<?xml version="1.0" encoding="UTF-8" standalone="no" ?>
<gpx xmlns="http://www.topografix.com/GPX/1/1" xmlns:xsi="http://www.w3.org/2001/XMLSchema-instance" xsi:schemaLocation="http://www.topografix.com/GPX/1/1 http://www.topografix.com/GPX/1/1/gpx.xsd" version="1.1" creator="VisuGPX - https://www.visugpx.com">
  <metadata>
    <name>AC Rospez Cyclotourisme</name>
    <desc><![CDATA[Sortie du 20 fevrier]]></desc>
  </metadata>
  <trk>
    <name><![CDATA[AC Rospez Cyclotourisme_1]]></name>
    <trkseg>
      <trkpt lat="48.73065" lon="-3.38336">
        <ele>77</ele>
        <time>2011-02-20T08:02:15Z</time>
      </trkpt>
      <trkpt lat="48.73037" lon="-3.38344">
        <ele>77</ele>
        <time>2011-02-20T08:02:26Z</time>
      </trkpt>
      <trkpt lat="48.73034" lon="-3.38348">
        <ele>77</ele>
        <time>2011-02-20T08:02:27Z</time>
      </trkpt>
      <trkpt lat="48.73031" lon="-3.38353">
        <ele>77</ele>
        <time>2011-02-20T08:02:28Z</time>
      </trkpt>
      <trkpt lat="48.73028" lon="-3.38358">
        <ele>77</ele>
        <time>2011-02-20T08:02:29Z</time>
      </trkpt>
      <trkpt lat="48.73025" lon="-3.38363">
        <ele>77</ele>
        <time>2011-02-20T08:02:30Z</time>
      </trkpt>
      <trkpt lat="48.73022" lon="-3.38369">
        <ele>77</ele>
        <time>2011-02-20T08:02:31Z</time>
      </trkpt>
      <trkpt lat="48.73019" lon="-3.38374">
        <ele>77</ele>
        <time>2011-02-20T08:02:32Z</time>
      </trkpt>
      <trkpt lat="48.73016" lon="-3.38379">
        <ele>77</ele>
        <time>2011-02-20T08:02:33Z</time>
      </trkpt>
      <trkpt lat="48.73013" lon="-3.38384">
        <ele>77</ele>
        <time>2011-02-20T08:02:34Z</time>
      </trkpt>
      <trkpt lat="48.73009" lon="-3.3839">
        <ele>77</ele>
        <time>2011-02-20T08:02:35Z</time>
      </trkpt>
      <trkpt lat="48.73006" lon="-3.38395">
        <ele>77</ele>
        <time>2011-02-20T08:02:36Z</time>
      </trkpt>
      <trkpt lat="48.73003" lon="-3.38401">
        <ele>77</ele>
        <time>2011-02-20T08:02:37Z</time>
      </trkpt>
      <trkpt lat="48.73" lon="-3.38407">
        <ele>77</ele>
        <time>2011-02-20T08:02:38Z</time>
      </trkpt>
      <trkpt lat="48.72997" lon="-3.38413">
        <ele>77</ele>
        <time>2011-02-20T08:02:39Z</time>
      </trkpt>
      <trkpt lat="48.72993" lon="-3.38419">
        <ele>77</ele>
        <time>2011-02-20T08:02:40Z</time>
      </trkpt>
      <trkpt lat="48.7299" lon="-3.38424">
        <ele>77</ele>
        <time>2011-02-20T08:02:41Z</time>
      </trkpt>
      <trkpt lat="48.72987" lon="-3.38428">
        <ele>77</ele>
        <time>2011-02-20T08:02:42Z</time>
      </trkpt>
      <trkpt lat="48.72984" lon="-3.38433">
        <ele>77</ele>
        <time>2011-02-20T08:02:43Z</time>
      </trkpt>
      <trkpt lat="48.7298" lon="-3.38437">
        <ele>77</ele>
        <time>2011-02-20T08:02:44Z</time>
      </trkpt>
      <trkpt lat="48.72976" lon="-3.38441">
        <ele>77</ele>
        <time>2011-02-20T08:02:45Z</time>
      </trkpt>
      <trkpt lat="48.72972" lon="-3.38444">
        <ele>77</ele>
        <time>2011-02-20T08:02:46Z</time>
      </trkpt>
      <trkpt lat="48.72967" lon="-3.38447">
        <ele>77</ele>
        <time>2011-02-20T08:02:47Z</time>
      </trkpt>
      <trkpt lat="48.72962" lon="-3.3845">
        <ele>77</ele>
        <time>2011-02-20T08:02:48Z</time>
      </trkpt>
      <trkpt lat="48.72958" lon="-3.38452">
        <ele>77</ele>
        <time>2011-02-20T08:02:49Z</time>
      </trkpt>
      <trkpt lat="48.72953" lon="-3.38454">
        <ele>77</ele>
        <time>2011-02-20T08:02:50Z</time>
      </trkpt>
      <trkpt lat="48.72948" lon="-3.38456">
        <ele>77</ele>
        <time>2011-02-20T08:02:51Z</time>
      </trkpt>
      <trkpt lat="48.72944" lon="-3.38459">
        <ele>77</ele>
        <time>2011-02-20T08:02:52Z</time>
      </trkpt>
      <trkpt lat="48.7294" lon="-3.38463">
        <ele>77</ele>
        <time>2011-02-20T08:02:53Z</time>
      </trkpt>
      <trkpt lat="48.72926" lon="-3.38503">
        <ele>77</ele>
        <time>2011-02-20T08:03:00Z</time>
      </trkpt>
      <trkpt lat="48.72924" lon="-3.38508">
        <ele>77</ele>
        <time>2011-02-20T08:03:01Z</time>
      </trkpt>
      <trkpt lat="48.72919" lon="-3.3852">
        <ele>77</ele>
        <time>2011-02-20T08:03:03Z</time>
      </trkpt>
      <trkpt lat="48.72915" lon="-3.38531">
        <ele>77</ele>
        <time>2011-02-20T08:03:05Z</time>
      </trkpt>
      <trkpt lat="48.72913" lon="-3.38537">
        <ele>77</ele>
        <time>2011-02-20T08:03:06Z</time>
      </trkpt>
      <trkpt lat="48.72911" lon="-3.38542">
        <ele>77</ele>
        <time>2011-02-20T08:03:07Z</time>
      </trkpt>
      <trkpt lat="48.72908" lon="-3.38548">
        <ele>77</ele>
        <time>2011-02-20T08:03:08Z</time>
      </trkpt>
      <trkpt lat="48.72905" lon="-3.38553">
        <ele>77</ele>
        <time>2011-02-20T08:03:09Z</time>
      </trkpt>
      <trkpt lat="48.72902" lon="-3.38558">
        <ele>77</ele>
        <time>2011-02-20T08:03:10Z</time>
      </trkpt>
      <trkpt lat="48.72898" lon="-3.38563">
        <ele>77</ele>
        <time>2011-02-20T08:03:11Z</time>
      </trkpt>
      <trkpt lat="48.72893" lon="-3.38566">
        <ele>77</ele>
        <time>2011-02-20T08:03:12Z</time>
      </trkpt>
      <trkpt lat="48.72889" lon="-3.38569">
        <ele>77</ele>
        <time>2011-02-20T08:03:13Z</time>
      </trkpt>
      <trkpt lat="48.72884" lon="-3.38571">
        <ele>77</ele>
        <time>2011-02-20T08:03:14Z</time>
      </trkpt>
      <trkpt lat="48.72879" lon="-3.38573">
        <ele>77</ele>
        <time>2011-02-20T08:03:15Z</time>
      </trkpt>
      <trkpt lat="48.72874" lon="-3.38574">
        <ele>77</ele>
        <time>2011-02-20T08:03:16Z</time>
      </trkpt>
      <trkpt lat="48.72869" lon="-3.38575">
        <ele>77</ele>
        <time>2011-02-20T08:03:17Z</time>
      </trkpt>
      <trkpt lat="48.72864" lon="-3.38576">
        <ele>77</ele>
        <time>2011-02-20T08:03:18Z</time>
      </trkpt>
      <trkpt lat="48.72858" lon="-3.38577">
        <ele>77</ele>
        <time>2011-02-20T08:03:19Z</time>
      </trkpt>
      <trkpt lat="48.72853" lon="-3.38579">
        <ele>77</ele>
        <time>2011-02-20T08:03:20Z</time>
      </trkpt>
      <trkpt lat="48.72848" lon="-3.3858">
        <ele>77</ele>
        <time>2011-02-20T08:03:21Z</time>
      </trkpt>
      <trkpt lat="48.72842" lon="-3.38581">
        <ele>77</ele>
        <time>2011-02-20T08:03:22Z</time>
      </trkpt>
      <trkpt lat="48.72837" lon="-3.38583">
        <ele>77</ele>
        <time>2011-02-20T08:03:23Z</time>
      </trkpt>
      <trkpt lat="48.72831" lon="-3.38584">
        <ele>77</ele>
        <time>2011-02-20T08:03:24Z</time>
      </trkpt>
      <trkpt lat="48.72826" lon="-3.38585">
        <ele>77</ele>
        <time>2011-02-20T08:03:25Z</time>
      </trkpt>
      <trkpt lat="48.7282" lon="-3.38586">
        <ele>77</ele>
        <time>2011-02-20T08:03:26Z</time>
      </trkpt>
      <trkpt lat="48.72815" lon="-3.38588">
        <ele>77</ele>
        <time>2011-02-20T08:03:27Z</time>
      </trkpt>
      <trkpt lat="48.7281" lon="-3.3859">
        <ele>77</ele>
        <time>2011-02-20T08:03:28Z</time>
      </trkpt>
      <trkpt lat="48.72805" lon="-3.38593">
        <ele>77</ele>
        <time>2011-02-20T08:03:29Z</time>
      </trkpt>
      <trkpt lat="48.728" lon="-3.38597">
        <ele>77</ele>
        <time>2011-02-20T08:03:30Z</time>
      </trkpt>
      <trkpt lat="48.72796" lon="-3.38601">
        <ele>77</ele>
        <time>2011-02-20T08:03:31Z</time>
      </trkpt>
      <trkpt lat="48.72792" lon="-3.38605">
        <ele>77</ele>
        <time>2011-02-20T08:03:32Z</time>
      </trkpt>
      <trkpt lat="48.72788" lon="-3.3861">
        <ele>77</ele>
        <time>2011-02-20T08:03:33Z</time>
      </trkpt>
      <trkpt lat="48.72784" lon="-3.38615">
        <ele>77</ele>
        <time>2011-02-20T08:03:34Z</time>
      </trkpt>
      <trkpt lat="48.7278" lon="-3.3862">
        <ele>78</ele>
        <time>2011-02-20T08:03:35Z</time>
      </trkpt>
      <trkpt lat="48.72776" lon="-3.38626">
        <ele>78</ele>
        <time>2011-02-20T08:03:36Z</time>
      </trkpt>
      <trkpt lat="48.72772" lon="-3.38631">
        <ele>78</ele>
        <time>2011-02-20T08:03:37Z</time>
      </trkpt>
      <trkpt lat="48.72768" lon="-3.38636">
        <ele>78</ele>
        <time>2011-02-20T08:03:38Z</time>
      </trkpt>
      <trkpt lat="48.72765" lon="-3.38641">
        <ele>78</ele>
        <time>2011-02-20T08:03:39Z</time>
      </trkpt>
      <trkpt lat="48.72761" lon="-3.38646">
        <ele>78</ele>
        <time>2011-02-20T08:03:40Z</time>
      </trkpt>
      <trkpt lat="48.72758" lon="-3.38651">
        <ele>78</ele>
        <time>2011-02-20T08:03:41Z</time>
      </trkpt>
      <trkpt lat="48.72755" lon="-3.38656">
        <ele>78</ele>
        <time>2011-02-20T08:03:42Z</time>
      </trkpt>
      <trkpt lat="48.72751" lon="-3.38661">
        <ele>79</ele>
        <time>2011-02-20T08:03:43Z</time>
      </trkpt>
      <trkpt lat="48.72748" lon="-3.38666">
        <ele>79</ele>
        <time>2011-02-20T08:03:44Z</time>
      </trkpt>
      <trkpt lat="48.72744" lon="-3.38671">
        <ele>79</ele>
        <time>2011-02-20T08:03:45Z</time>
      </trkpt>
      <trkpt lat="48.72741" lon="-3.38676">
        <ele>79</ele>
        <time>2011-02-20T08:03:46Z</time>
      </trkpt>
      <trkpt lat="48.72738" lon="-3.38682">
        <ele>79</ele>
        <time>2011-02-20T08:03:47Z</time>
      </trkpt>
      <trkpt lat="48.72734" lon="-3.38687">
        <ele>79</ele>
        <time>2011-02-20T08:03:48Z</time>
      </trkpt>
      <trkpt lat="48.72731" lon="-3.38693">
        <ele>79</ele>
        <time>2011-02-20T08:03:49Z</time>
      </trkpt>
      <trkpt lat="48.72728" lon="-3.38698">
        <ele>79</ele>
        <time>2011-02-20T08:03:50Z</time>
      </trkpt>
      <trkpt lat="48.72725" lon="-3.38704">
        <ele>80</ele>
        <time>2011-02-20T08:03:51Z</time>
      </trkpt>
      <trkpt lat="48.72722" lon="-3.38709">
        <ele>80</ele>
        <time>2011-02-20T08:03:52Z</time>
      </trkpt>
      <trkpt lat="48.72718" lon="-3.38715">
        <ele>80</ele>
        <time>2011-02-20T08:03:53Z</time>
      </trkpt>
      <trkpt lat="48.72716" lon="-3.3872">
        <ele>80</ele>
        <time>2011-02-20T08:03:54Z</time>
      </trkpt>
      <trkpt lat="48.72713" lon="-3.38726">
        <ele>80</ele>
        <time>2011-02-20T08:03:55Z</time>
      </trkpt>
      <trkpt lat="48.7271" lon="-3.38732">
        <ele>80</ele>
        <time>2011-02-20T08:03:56Z</time>
      </trkpt>
      <trkpt lat="48.72707" lon="-3.38738">
        <ele>80</ele>
        <time>2011-02-20T08:03:57Z</time>
      </trkpt>
      <trkpt lat="48.72704" lon="-3.38744">
        <ele>80</ele>
        <time>2011-02-20T08:03:58Z</time>
      </trkpt>
      <trkpt lat="48.72702" lon="-3.3875">
        <ele>80</ele>
        <time>2011-02-20T08:03:59Z</time>
      </trkpt>
      <trkpt lat="48.72699" lon="-3.38756">
        <ele>80</ele>
        <time>2011-02-20T08:04:00Z</time>
      </trkpt>
      <trkpt lat="48.72697" lon="-3.38763">
        <ele>80</ele>
        <time>2011-02-20T08:04:01Z</time>
      </trkpt>
      <trkpt lat="48.72695" lon="-3.3877">
        <ele>80</ele>
        <time>2011-02-20T08:04:02Z</time>
      </trkpt>
      <trkpt lat="48.72678" lon="-3.38828">
        <ele>81</ele>
        <time>2011-02-20T08:04:10Z</time>
      </trkpt>
      <trkpt lat="48.72676" lon="-3.38835">
        <ele>81</ele>
        <time>2011-02-20T08:04:11Z</time>
      </trkpt>
      <trkpt lat="48.72674" lon="-3.38843">
        <ele>81</ele>
        <time>2011-02-20T08:04:12Z</time>
      </trkpt>
      <trkpt lat="48.72672" lon="-3.3885">
        <ele>81</ele>
        <time>2011-02-20T08:04:13Z</time>
      </trkpt>
      <trkpt lat="48.7267" lon="-3.38857">
        <ele>81</ele>
        <time>2011-02-20T08:04:14Z</time>
      </trkpt>
      <trkpt lat="48.72667" lon="-3.38863">
        <ele>81</ele>
        <time>2011-02-20T08:04:15Z</time>
      </trkpt>
      <trkpt lat="48.72665" lon="-3.38869">
        <ele>81</ele>
        <time>2011-02-20T08:04:16Z</time>
      </trkpt>
      <trkpt lat="48.72662" lon="-3.38876">
        <ele>81</ele>
        <time>2011-02-20T08:04:17Z</time>
      </trkpt>
      <trkpt lat="48.7266" lon="-3.38882">
        <ele>81</ele>
        <time>2011-02-20T08:04:18Z</time>
      </trkpt>
      <trkpt lat="48.72658" lon="-3.38888">
        <ele>81</ele>
        <time>2011-02-20T08:04:19Z</time>
      </trkpt>
      <trkpt lat="48.72655" lon="-3.38895">
        <ele>81</ele>
        <time>2011-02-20T08:04:20Z</time>
      </trkpt>
      <trkpt lat="48.72652" lon="-3.38901">
        <ele>81</ele>
        <time>2011-02-20T08:04:21Z</time>
      </trkpt>
      <trkpt lat="48.72649" lon="-3.38908">
        <ele>81</ele>
        <time>2011-02-20T08:04:22Z</time>
      </trkpt>
      <trkpt lat="48.72646" lon="-3.38915">
        <ele>81</ele>
        <time>2011-02-20T08:04:23Z</time>
      </trkpt>
      <trkpt lat="48.72643" lon="-3.38923">
        <ele>81</ele>
        <time>2011-02-20T08:04:24Z</time>
      </trkpt>
      <trkpt lat="48.7264" lon="-3.3893">
        <ele>81</ele>
        <time>2011-02-20T08:04:25Z</time>
      </trkpt>
      <trkpt lat="48.72636" lon="-3.38938">
        <ele>81</ele>
        <time>2011-02-20T08:04:26Z</time>
      </trkpt>
      <trkpt lat="48.72633" lon="-3.38945">
        <ele>82</ele>
        <time>2011-02-20T08:04:27Z</time>
      </trkpt>
      <trkpt lat="48.7263" lon="-3.38953">
        <ele>82</ele>
        <time>2011-02-20T08:04:28Z</time>
      </trkpt>
      <trkpt lat="48.72627" lon="-3.3896">
        <ele>82</ele>
        <time>2011-02-20T08:04:29Z</time>
      </trkpt>
      <trkpt lat="48.72624" lon="-3.38967">
        <ele>82</ele>
        <time>2011-02-20T08:04:30Z</time>
      </trkpt>
      <trkpt lat="48.72621" lon="-3.38975">
        <ele>82</ele>
        <time>2011-02-20T08:04:31Z</time>
      </trkpt>
      <trkpt lat="48.72617" lon="-3.38983">
        <ele>82</ele>
        <time>2011-02-20T08:04:32Z</time>
      </trkpt>
      <trkpt lat="48.72614" lon="-3.3899">
        <ele>82</ele>
        <time>2011-02-20T08:04:33Z</time>
      </trkpt>
      <trkpt lat="48.7261" lon="-3.38998">
        <ele>82</ele>
        <time>2011-02-20T08:04:34Z</time>
      </trkpt>
      <trkpt lat="48.72607" lon="-3.39005">
        <ele>82</ele>
        <time>2011-02-20T08:04:35Z</time>
      </trkpt>
      <trkpt lat="48.72603" lon="-3.39013">
        <ele>82</ele>
        <time>2011-02-20T08:04:36Z</time>
      </trkpt>
      <trkpt lat="48.72599" lon="-3.3902">
        <ele>82</ele>
        <time>2011-02-20T08:04:37Z</time>
      </trkpt>
      <trkpt lat="48.72595" lon="-3.39027">
        <ele>82</ele>
        <time>2011-02-20T08:04:38Z</time>
      </trkpt>
      <trkpt lat="48.72591" lon="-3.39035">
        <ele>82</ele>
        <time>2011-02-20T08:04:39Z</time>
      </trkpt>
      <trkpt lat="48.72587" lon="-3.39042">
        <ele>82</ele>
        <time>2011-02-20T08:04:40Z</time>
      </trkpt>
      <trkpt lat="48.72583" lon="-3.39049">
        <ele>82</ele>
        <time>2011-02-20T08:04:41Z</time>
      </trkpt>
      <trkpt lat="48.7258" lon="-3.39056">
        <ele>82</ele>
        <time>2011-02-20T08:04:42Z</time>
      </trkpt>
      <trkpt lat="48.72576" lon="-3.39063">
        <ele>82</ele>
        <time>2011-02-20T08:04:43Z</time>
      </trkpt>
      <trkpt lat="48.72572" lon="-3.3907">
        <ele>82</ele>
        <time>2011-02-20T08:04:44Z</time>
      </trkpt>
      <trkpt lat="48.72569" lon="-3.39077">
        <ele>82</ele>
        <time>2011-02-20T08:04:45Z</time>
      </trkpt>
      <trkpt lat="48.72565" lon="-3.39084">
        <ele>82</ele>
        <time>2011-02-20T08:04:46Z</time>
      </trkpt>
      <trkpt lat="48.72561" lon="-3.39091">
        <ele>82</ele>
        <time>2011-02-20T08:04:47Z</time>
      </trkpt>
      <trkpt lat="48.72557" lon="-3.39097">
        <ele>82</ele>
        <time>2011-02-20T08:04:48Z</time>
      </trkpt>
      <trkpt lat="48.72554" lon="-3.39104">
        <ele>82</ele>
        <time>2011-02-20T08:04:49Z</time>
      </trkpt>
      <trkpt lat="48.7255" lon="-3.39111">
        <ele>82</ele>
        <time>2011-02-20T08:04:50Z</time>
      </trkpt>
      <trkpt lat="48.72546" lon="-3.39118">
        <ele>82</ele>
        <time>2011-02-20T08:04:51Z</time>
      </trkpt>
      <trkpt lat="48.72543" lon="-3.39124">
        <ele>82</ele>
        <time>2011-02-20T08:04:52Z</time>
      </trkpt>
      <trkpt lat="48.72539" lon="-3.39131">
        <ele>82</ele>
        <time>2011-02-20T08:04:53Z</time>
      </trkpt>
      <trkpt lat="48.72535" lon="-3.39138">
        <ele>82</ele>
        <time>2011-02-20T08:04:54Z</time>
      </trkpt>
      <trkpt lat="48.72532" lon="-3.39145">
        <ele>82</ele>
        <time>2011-02-20T08:04:55Z</time>
      </trkpt>
      <trkpt lat="48.72528" lon="-3.39152">
        <ele>82</ele>
        <time>2011-02-20T08:04:56Z</time>
      </trkpt>
      <trkpt lat="48.72524" lon="-3.39159">
        <ele>82</ele>
        <time>2011-02-20T08:04:57Z</time>
      </trkpt>
      <trkpt lat="48.7252" lon="-3.39166">
        <ele>82</ele>
        <time>2011-02-20T08:04:58Z</time>
      </trkpt>
      <trkpt lat="48.72517" lon="-3.39173">
        <ele>82</ele>
        <time>2011-02-20T08:04:59Z</time>
      </trkpt>
      <trkpt lat="48.72513" lon="-3.3918">
        <ele>82</ele>
        <time>2011-02-20T08:05:00Z</time>
      </trkpt>
      <trkpt lat="48.7251" lon="-3.39188">
        <ele>82</ele>
        <time>2011-02-20T08:05:01Z</time>
      </trkpt>
      <trkpt lat="48.72507" lon="-3.39195">
        <ele>82</ele>
        <time>2011-02-20T08:05:02Z</time>
      </trkpt>
      <trkpt lat="48.72503" lon="-3.39203">
        <ele>82</ele>
        <time>2011-02-20T08:05:03Z</time>
      </trkpt>
      <trkpt lat="48.725" lon="-3.39211">
        <ele>82</ele>
        <time>2011-02-20T08:05:04Z</time>
      </trkpt>
      <trkpt lat="48.72497" lon="-3.39219">
        <ele>82</ele>
        <time>2011-02-20T08:05:05Z</time>
      </trkpt>
      <trkpt lat="48.72493" lon="-3.39227">
        <ele>82</ele>
        <time>2011-02-20T08:05:06Z</time>
      </trkpt>
      <trkpt lat="48.7249" lon="-3.39235">
        <ele>82</ele>
        <time>2011-02-20T08:05:07Z</time>
      </trkpt>
      <trkpt lat="48.72486" lon="-3.39243">
        <ele>82</ele>
        <time>2011-02-20T08:05:08Z</time>
      </trkpt>
      <trkpt lat="48.72483" lon="-3.39251">
        <ele>82</ele>
        <time>2011-02-20T08:05:09Z</time>
      </trkpt>
      <trkpt lat="48.7248" lon="-3.39259">
        <ele>82</ele>
        <time>2011-02-20T08:05:10Z</time>
      </trkpt>
      <trkpt lat="48.72477" lon="-3.39267">
        <ele>82</ele>
        <time>2011-02-20T08:05:11Z</time>
      </trkpt>
      <trkpt lat="48.72473" lon="-3.39275">
        <ele>82</ele>
        <time>2011-02-20T08:05:12Z</time>
      </trkpt>
      <trkpt lat="48.7247" lon="-3.39282">
        <ele>82</ele>
        <time>2011-02-20T08:05:13Z</time>
      </trkpt>
      <trkpt lat="48.72467" lon="-3.3929">
        <ele>82</ele>
        <time>2011-02-20T08:05:14Z</time>
      </trkpt>
      <trkpt lat="48.72463" lon="-3.39298">
        <ele>82</ele>
        <time>2011-02-20T08:05:15Z</time>
      </trkpt>
      <trkpt lat="48.72459" lon="-3.39305">
        <ele>82</ele>
        <time>2011-02-20T08:05:16Z</time>
      </trkpt>
      <trkpt lat="48.72456" lon="-3.39313">
        <ele>82</ele>
        <time>2011-02-20T08:05:17Z</time>
      </trkpt>
      <trkpt lat="48.72452" lon="-3.3932">
        <ele>82</ele>
        <time>2011-02-20T08:05:18Z</time>
      </trkpt>
      <trkpt lat="48.72448" lon="-3.39328">
        <ele>82</ele>
        <time>2011-02-20T08:05:19Z</time>
      </trkpt>
      <trkpt lat="48.72444" lon="-3.39335">
        <ele>82</ele>
        <time>2011-02-20T08:05:20Z</time>
      </trkpt>
      <trkpt lat="48.7244" lon="-3.39343">
        <ele>82</ele>
        <time>2011-02-20T08:05:21Z</time>
      </trkpt>
      <trkpt lat="48.72436" lon="-3.39351">
        <ele>82</ele>
        <time>2011-02-20T08:05:22Z</time>
      </trkpt>
      <trkpt lat="48.72432" lon="-3.39358">
        <ele>82</ele>
        <time>2011-02-20T08:05:23Z</time>
      </trkpt>
      <trkpt lat="48.72428" lon="-3.39365">
        <ele>82</ele>
        <time>2011-02-20T08:05:24Z</time>
      </trkpt>
      <trkpt lat="48.72423" lon="-3.39373">
        <ele>82</ele>
        <time>2011-02-20T08:05:25Z</time>
      </trkpt>
      <trkpt lat="48.72419" lon="-3.3938">
        <ele>82</ele>
        <time>2011-02-20T08:05:26Z</time>
      </trkpt>
      <trkpt lat="48.72414" lon="-3.39387">
        <ele>82</ele>
        <time>2011-02-20T08:05:27Z</time>
      </trkpt>
      <trkpt lat="48.72409" lon="-3.39393">
        <ele>82</ele>
        <time>2011-02-20T08:05:28Z</time>
      </trkpt>
      <trkpt lat="48.72405" lon="-3.394">
        <ele>82</ele>
        <time>2011-02-20T08:05:29Z</time>
      </trkpt>
      <trkpt lat="48.724" lon="-3.39407">
        <ele>82</ele>
        <time>2011-02-20T08:05:30Z</time>
      </trkpt>
      <trkpt lat="48.72395" lon="-3.39413">
        <ele>82</ele>
        <time>2011-02-20T08:05:31Z</time>
      </trkpt>
      <trkpt lat="48.72391" lon="-3.3942">
        <ele>82</ele>
        <time>2011-02-20T08:05:32Z</time>
      </trkpt>
      <trkpt lat="48.72386" lon="-3.39427">
        <ele>82</ele>
        <time>2011-02-20T08:05:33Z</time>
      </trkpt>
      <trkpt lat="48.72381" lon="-3.39434">
        <ele>82</ele>
        <time>2011-02-20T08:05:34Z</time>
      </trkpt>
      <trkpt lat="48.72376" lon="-3.39441">
        <ele>82</ele>
        <time>2011-02-20T08:05:35Z</time>
      </trkpt>
      <trkpt lat="48.72371" lon="-3.39448">
        <ele>82</ele>
        <time>2011-02-20T08:05:36Z</time>
      </trkpt>
      <trkpt lat="48.72366" lon="-3.39455">
        <ele>82</ele>
        <time>2011-02-20T08:05:37Z</time>
      </trkpt>
      <trkpt lat="48.72361" lon="-3.39461">
        <ele>82</ele>
        <time>2011-02-20T08:05:38Z</time>
      </trkpt>
      <trkpt lat="48.72356" lon="-3.39468">
        <ele>82</ele>
        <time>2011-02-20T08:05:39Z</time>
      </trkpt>
      <trkpt lat="48.72351" lon="-3.39475">
        <ele>82</ele>
        <time>2011-02-20T08:05:40Z</time>
      </trkpt>
      <trkpt lat="48.72346" lon="-3.39482">
        <ele>82</ele>
        <time>2011-02-20T08:05:41Z</time>
      </trkpt>
      <trkpt lat="48.72341" lon="-3.39489">
        <ele>82</ele>
        <time>2011-02-20T08:05:42Z</time>
      </trkpt>
      <trkpt lat="48.72336" lon="-3.39497">
        <ele>82</ele>
        <time>2011-02-20T08:05:43Z</time>
      </trkpt>
      <trkpt lat="48.72331" lon="-3.39504">
        <ele>82</ele>
        <time>2011-02-20T08:05:44Z</time>
      </trkpt>
      <trkpt lat="48.72326" lon="-3.39512">
        <ele>82</ele>
        <time>2011-02-20T08:05:45Z</time>
      </trkpt>
      <trkpt lat="48.72321" lon="-3.39521">
        <ele>82</ele>
        <time>2011-02-20T08:05:46Z</time>
      </trkpt>
      <trkpt lat="48.72316" lon="-3.39529">
        <ele>82</ele>
        <time>2011-02-20T08:05:47Z</time>
      </trkpt>
      <trkpt lat="48.72312" lon="-3.39537">
        <ele>82</ele>
        <time>2011-02-20T08:05:48Z</time>
      </trkpt>
      <trkpt lat="48.72307" lon="-3.39546">
        <ele>82</ele>
        <time>2011-02-20T08:05:49Z</time>
      </trkpt>
      <trkpt lat="48.72303" lon="-3.39556">
        <ele>82</ele>
        <time>2011-02-20T08:05:50Z</time>
      </trkpt>
      <trkpt lat="48.72299" lon="-3.39566">
        <ele>82</ele>
        <time>2011-02-20T08:05:51Z</time>
      </trkpt>
      <trkpt lat="48.72294" lon="-3.39576">
        <ele>82</ele>
        <time>2011-02-20T08:05:52Z</time>
      </trkpt>
      <trkpt lat="48.7229" lon="-3.39585">
        <ele>82</ele>
        <time>2011-02-20T08:05:53Z</time>
      </trkpt>
      <trkpt lat="48.72284" lon="-3.39594">
        <ele>82</ele>
        <time>2011-02-20T08:05:54Z</time>
      </trkpt>
      <trkpt lat="48.72279" lon="-3.39602">
        <ele>82</ele>
        <time>2011-02-20T08:05:55Z</time>
      </trkpt>
      <trkpt lat="48.72273" lon="-3.39609">
        <ele>82</ele>
        <time>2011-02-20T08:05:56Z</time>
      </trkpt>
      <trkpt lat="48.72266" lon="-3.39616">
        <ele>82</ele>
        <time>2011-02-20T08:05:57Z</time>
      </trkpt>
      <trkpt lat="48.7226" lon="-3.39622">
        <ele>82</ele>
        <time>2011-02-20T08:05:58Z</time>
      </trkpt>
      <trkpt lat="48.72253" lon="-3.39628">
        <ele>82</ele>
        <time>2011-02-20T08:05:59Z</time>
      </trkpt>
      <trkpt lat="48.72246" lon="-3.39633">
        <ele>82</ele>
        <time>2011-02-20T08:06:00Z</time>
      </trkpt>
      <trkpt lat="48.72239" lon="-3.39638">
        <ele>82</ele>
        <time>2011-02-20T08:06:01Z</time>
      </trkpt>
      <trkpt lat="48.72231" lon="-3.39643">
        <ele>82</ele>
        <time>2011-02-20T08:06:02Z</time>
      </trkpt>
      <trkpt lat="48.72224" lon="-3.39648">
        <ele>82</ele>
        <time>2011-02-20T08:06:03Z</time>
      </trkpt>
      <trkpt lat="48.72217" lon="-3.39653">
        <ele>82</ele>
        <time>2011-02-20T08:06:04Z</time>
      </trkpt>
      <trkpt lat="48.7221" lon="-3.39658">
        <ele>82</ele>
        <time>2011-02-20T08:06:05Z</time>
      </trkpt>
      <trkpt lat="48.72203" lon="-3.39663">
        <ele>82</ele>
        <time>2011-02-20T08:06:06Z</time>
      </trkpt>
      <trkpt lat="48.72196" lon="-3.39668">
        <ele>82</ele>
        <time>2011-02-20T08:06:07Z</time>
      </trkpt>
      <trkpt lat="48.72189" lon="-3.39672">
        <ele>82</ele>
        <time>2011-02-20T08:06:08Z</time>
      </trkpt>
      <trkpt lat="48.72182" lon="-3.39677">
        <ele>82</ele>
        <time>2011-02-20T08:06:09Z</time>
      </trkpt>
      <trkpt lat="48.72175" lon="-3.39681">
        <ele>82</ele>
        <time>2011-02-20T08:06:10Z</time>
      </trkpt>
      <trkpt lat="48.72168" lon="-3.39685">
        <ele>82</ele>
        <time>2011-02-20T08:06:11Z</time>
      </trkpt>
      <trkpt lat="48.72161" lon="-3.39688">
        <ele>82</ele>
        <time>2011-02-20T08:06:12Z</time>
      </trkpt>
      <trkpt lat="48.72155" lon="-3.39692">
        <ele>82</ele>
        <time>2011-02-20T08:06:13Z</time>
      </trkpt>
      <trkpt lat="48.72148" lon="-3.39696">
        <ele>82</ele>
        <time>2011-02-20T08:06:14Z</time>
      </trkpt>
      <trkpt lat="48.72142" lon="-3.397">
        <ele>82</ele>
        <time>2011-02-20T08:06:15Z</time>
      </trkpt>
      <trkpt lat="48.72136" lon="-3.39703">
        <ele>82</ele>
        <time>2011-02-20T08:06:16Z</time>
      </trkpt>
      <trkpt lat="48.7213" lon="-3.39707">
        <ele>82</ele>
        <time>2011-02-20T08:06:17Z</time>
      </trkpt>
      <trkpt lat="48.72124" lon="-3.3971">
        <ele>82</ele>
        <time>2011-02-20T08:06:18Z</time>
      </trkpt>
      <trkpt lat="48.72118" lon="-3.39714">
        <ele>82</ele>
        <time>2011-02-20T08:06:19Z</time>
      </trkpt>
      <trkpt lat="48.72112" lon="-3.39717">
        <ele>82</ele>
        <time>2011-02-20T08:06:20Z</time>
      </trkpt>
      <trkpt lat="48.72106" lon="-3.39721">
        <ele>82</ele>
        <time>2011-02-20T08:06:21Z</time>
      </trkpt>
      <trkpt lat="48.721" lon="-3.39724">
        <ele>81</ele>
        <time>2011-02-20T08:06:22Z</time>
      </trkpt>
      <trkpt lat="48.72094" lon="-3.39728">
        <ele>81</ele>
        <time>2011-02-20T08:06:23Z</time>
      </trkpt>
      <trkpt lat="48.72088" lon="-3.39731">
        <ele>81</ele>
        <time>2011-02-20T08:06:24Z</time>
      </trkpt>
      <trkpt lat="48.72082" lon="-3.39735">
        <ele>81</ele>
        <time>2011-02-20T08:06:25Z</time>
      </trkpt>
      <trkpt lat="48.72076" lon="-3.39738">
        <ele>81</ele>
        <time>2011-02-20T08:06:26Z</time>
      </trkpt>
      <trkpt lat="48.72069" lon="-3.39742">
        <ele>81</ele>
        <time>2011-02-20T08:06:27Z</time>
      </trkpt>
      <trkpt lat="48.72063" lon="-3.39746">
        <ele>81</ele>
        <time>2011-02-20T08:06:28Z</time>
      </trkpt>
      <trkpt lat="48.72057" lon="-3.3975">
        <ele>81</ele>
        <time>2011-02-20T08:06:29Z</time>
      </trkpt>
      <trkpt lat="48.7205" lon="-3.39754">
        <ele>81</ele>
        <time>2011-02-20T08:06:30Z</time>
      </trkpt>
      <trkpt lat="48.72044" lon="-3.39757">
        <ele>81</ele>
        <time>2011-02-20T08:06:31Z</time>
      </trkpt>
      <trkpt lat="48.72038" lon="-3.39761">
        <ele>81</ele>
        <time>2011-02-20T08:06:32Z</time>
      </trkpt>
      <trkpt lat="48.72031" lon="-3.39764">
        <ele>81</ele>
        <time>2011-02-20T08:06:33Z</time>
      </trkpt>
      <trkpt lat="48.72025" lon="-3.39768">
        <ele>81</ele>
        <time>2011-02-20T08:06:34Z</time>
      </trkpt>
      <trkpt lat="48.72019" lon="-3.39772">
        <ele>81</ele>
        <time>2011-02-20T08:06:35Z</time>
      </trkpt>
      <trkpt lat="48.72012" lon="-3.39775">
        <ele>81</ele>
        <time>2011-02-20T08:06:36Z</time>
      </trkpt>
      <trkpt lat="48.72006" lon="-3.39779">
        <ele>81</ele>
        <time>2011-02-20T08:06:37Z</time>
      </trkpt>
      <trkpt lat="48.72" lon="-3.39783">
        <ele>81</ele>
        <time>2011-02-20T08:06:38Z</time>
      </trkpt>
      <trkpt lat="48.71994" lon="-3.39786">
        <ele>81</ele>
        <time>2011-02-20T08:06:39Z</time>
      </trkpt>
      <trkpt lat="48.71988" lon="-3.39789">
        <ele>81</ele>
        <time>2011-02-20T08:06:40Z</time>
      </trkpt>
      <trkpt lat="48.71982" lon="-3.39792">
        <ele>81</ele>
        <time>2011-02-20T08:06:41Z</time>
      </trkpt>
      <trkpt lat="48.71976" lon="-3.39796">
        <ele>81</ele>
        <time>2011-02-20T08:06:42Z</time>
      </trkpt>
      <trkpt lat="48.7197" lon="-3.39798">
        <ele>81</ele>
        <time>2011-02-20T08:06:43Z</time>
      </trkpt>
      <trkpt lat="48.71964" lon="-3.39801">
        <ele>81</ele>
        <time>2011-02-20T08:06:44Z</time>
      </trkpt>
      <trkpt lat="48.71958" lon="-3.39802">
        <ele>81</ele>
        <time>2011-02-20T08:06:45Z</time>
      </trkpt>
      <trkpt lat="48.71951" lon="-3.39803">
        <ele>81</ele>
        <time>2011-02-20T08:06:46Z</time>
      </trkpt>
      <trkpt lat="48.71945" lon="-3.39804">
        <ele>81</ele>
        <time>2011-02-20T08:06:47Z</time>
      </trkpt>
      <trkpt lat="48.71938" lon="-3.39803">
        <ele>81</ele>
        <time>2011-02-20T08:06:48Z</time>
      </trkpt>
      <trkpt lat="48.71931" lon="-3.39802">
        <ele>80</ele>
        <time>2011-02-20T08:06:49Z</time>
      </trkpt>
      <trkpt lat="48.71924" lon="-3.39801">
        <ele>80</ele>
        <time>2011-02-20T08:06:50Z</time>
      </trkpt>
      <trkpt lat="48.71917" lon="-3.39799">
        <ele>80</ele>
        <time>2011-02-20T08:06:51Z</time>
      </trkpt>
      <trkpt lat="48.7191" lon="-3.39797">
        <ele>80</ele>
        <time>2011-02-20T08:06:52Z</time>
      </trkpt>
      <trkpt lat="48.71903" lon="-3.39795">
        <ele>79</ele>
        <time>2011-02-20T08:06:53Z</time>
      </trkpt>
      <trkpt lat="48.71895" lon="-3.39792">
        <ele>79</ele>
        <time>2011-02-20T08:06:54Z</time>
      </trkpt>
      <trkpt lat="48.71886" lon="-3.39791">
        <ele>79</ele>
        <time>2011-02-20T08:06:55Z</time>
      </trkpt>
      <trkpt lat="48.71878" lon="-3.3979">
        <ele>78</ele>
        <time>2011-02-20T08:06:56Z</time>
      </trkpt>
      <trkpt lat="48.71869" lon="-3.39789">
        <ele>78</ele>
        <time>2011-02-20T08:06:57Z</time>
      </trkpt>
      <trkpt lat="48.7186" lon="-3.39788">
        <ele>77</ele>
        <time>2011-02-20T08:06:58Z</time>
      </trkpt>
      <trkpt lat="48.71851" lon="-3.39788">
        <ele>77</ele>
        <time>2011-02-20T08:06:59Z</time>
      </trkpt>
      <trkpt lat="48.71842" lon="-3.39787">
        <ele>77</ele>
        <time>2011-02-20T08:07:00Z</time>
      </trkpt>
      <trkpt lat="48.71833" lon="-3.39787">
        <ele>76</ele>
        <time>2011-02-20T08:07:01Z</time>
      </trkpt>
      <trkpt lat="48.71824" lon="-3.39786">
        <ele>76</ele>
        <time>2011-02-20T08:07:02Z</time>
      </trkpt>
      <trkpt lat="48.71815" lon="-3.39784">
        <ele>75</ele>
        <time>2011-02-20T08:07:03Z</time>
      </trkpt>
      <trkpt lat="48.71806" lon="-3.39781">
        <ele>75</ele>
        <time>2011-02-20T08:07:04Z</time>
      </trkpt>
      <trkpt lat="48.71798" lon="-3.39777">
        <ele>75</ele>
        <time>2011-02-20T08:07:05Z</time>
      </trkpt>
      <trkpt lat="48.7179" lon="-3.39772">
        <ele>74</ele>
        <time>2011-02-20T08:07:06Z</time>
      </trkpt>
      <trkpt lat="48.71782" lon="-3.39767">
        <ele>74</ele>
        <time>2011-02-20T08:07:07Z</time>
      </trkpt>
      <trkpt lat="48.71774" lon="-3.39762">
        <ele>74</ele>
        <time>2011-02-20T08:07:08Z</time>
      </trkpt>
      <trkpt lat="48.71767" lon="-3.39757">
        <ele>74</ele>
        <time>2011-02-20T08:07:09Z</time>
      </trkpt>
      <trkpt lat="48.7176" lon="-3.39752">
        <ele>74</ele>
        <time>2011-02-20T08:07:10Z</time>
      </trkpt>
      <trkpt lat="48.71752" lon="-3.39748">
        <ele>74</ele>
        <time>2011-02-20T08:07:11Z</time>
      </trkpt>
      <trkpt lat="48.71745" lon="-3.39744">
        <ele>74</ele>
        <time>2011-02-20T08:07:12Z</time>
      </trkpt>
      <trkpt lat="48.71737" lon="-3.39741">
        <ele>73</ele>
        <time>2011-02-20T08:07:13Z</time>
      </trkpt>
      <trkpt lat="48.7173" lon="-3.3974">
        <ele>73</ele>
        <time>2011-02-20T08:07:14Z</time>
      </trkpt>
      <trkpt lat="48.71722" lon="-3.39739">
        <ele>73</ele>
        <time>2011-02-20T08:07:15Z</time>
      </trkpt>
      <trkpt lat="48.71714" lon="-3.3974">
        <ele>73</ele>
        <time>2011-02-20T08:07:16Z</time>
      </trkpt>
      <trkpt lat="48.71706" lon="-3.3974">
        <ele>73</ele>
        <time>2011-02-20T08:07:17Z</time>
      </trkpt>
      <trkpt lat="48.71698" lon="-3.39742">
        <ele>73</ele>
        <time>2011-02-20T08:07:18Z</time>
      </trkpt>
      <trkpt lat="48.7169" lon="-3.39745">
        <ele>72</ele>
        <time>2011-02-20T08:07:19Z</time>
      </trkpt>
      <trkpt lat="48.71683" lon="-3.3975">
        <ele>72</ele>
        <time>2011-02-20T08:07:20Z</time>
      </trkpt>
      <trkpt lat="48.71676" lon="-3.39755">
        <ele>72</ele>
        <time>2011-02-20T08:07:21Z</time>
      </trkpt>
      <trkpt lat="48.71669" lon="-3.3976">
        <ele>72</ele>
        <time>2011-02-20T08:07:22Z</time>
      </trkpt>
      <trkpt lat="48.71662" lon="-3.39766">
        <ele>72</ele>
        <time>2011-02-20T08:07:23Z</time>
      </trkpt>
      <trkpt lat="48.71656" lon="-3.39771">
        <ele>72</ele>
        <time>2011-02-20T08:07:24Z</time>
      </trkpt>
      <trkpt lat="48.7165" lon="-3.39776">
        <ele>72</ele>
        <time>2011-02-20T08:07:25Z</time>
      </trkpt>
      <trkpt lat="48.71644" lon="-3.3978">
        <ele>72</ele>
        <time>2011-02-20T08:07:26Z</time>
      </trkpt>
      <trkpt lat="48.71639" lon="-3.39784">
        <ele>72</ele>
        <time>2011-02-20T08:07:27Z</time>
      </trkpt>
      <trkpt lat="48.71633" lon="-3.39788">
        <ele>72</ele>
        <time>2011-02-20T08:07:28Z</time>
      </trkpt>
      <trkpt lat="48.71627" lon="-3.3979">
        <ele>72</ele>
        <time>2011-02-20T08:07:29Z</time>
      </trkpt>
      <trkpt lat="48.71622" lon="-3.39793">
        <ele>72</ele>
        <time>2011-02-20T08:07:30Z</time>
      </trkpt>
      <trkpt lat="48.71616" lon="-3.39794">
        <ele>72</ele>
        <time>2011-02-20T08:07:31Z</time>
      </trkpt>
      <trkpt lat="48.71611" lon="-3.39796">
        <ele>72</ele>
        <time>2011-02-20T08:07:32Z</time>
      </trkpt>
      <trkpt lat="48.71606" lon="-3.39797">
        <ele>72</ele>
        <time>2011-02-20T08:07:33Z</time>
      </trkpt>
      <trkpt lat="48.71601" lon="-3.39798">
        <ele>72</ele>
        <time>2011-02-20T08:07:34Z</time>
      </trkpt>
      <trkpt lat="48.71596" lon="-3.39799">
        <ele>72</ele>
        <time>2011-02-20T08:07:35Z</time>
      </trkpt>
      <trkpt lat="48.71591" lon="-3.398">
        <ele>72</ele>
        <time>2011-02-20T08:07:36Z</time>
      </trkpt>
      <trkpt lat="48.71586" lon="-3.39801">
        <ele>72</ele>
        <time>2011-02-20T08:07:37Z</time>
      </trkpt>
      <trkpt lat="48.71581" lon="-3.39802">
        <ele>72</ele>
        <time>2011-02-20T08:07:38Z</time>
      </trkpt>
      <trkpt lat="48.71576" lon="-3.39803">
        <ele>72</ele>
        <time>2011-02-20T08:07:39Z</time>
      </trkpt>
      <trkpt lat="48.7157" lon="-3.39803">
        <ele>72</ele>
        <time>2011-02-20T08:07:40Z</time>
      </trkpt>
      <trkpt lat="48.71564" lon="-3.39803">
        <ele>72</ele>
        <time>2011-02-20T08:07:41Z</time>
      </trkpt>
      <trkpt lat="48.71559" lon="-3.39804">
        <ele>72</ele>
        <time>2011-02-20T08:07:42Z</time>
      </trkpt>
      <trkpt lat="48.71553" lon="-3.39807">
        <ele>72</ele>
        <time>2011-02-20T08:07:43Z</time>
      </trkpt>
      <trkpt lat="48.71548" lon="-3.3981">
        <ele>72</ele>
        <time>2011-02-20T08:07:44Z</time>
      </trkpt>
      <trkpt lat="48.71543" lon="-3.39814">
        <ele>72</ele>
        <time>2011-02-20T08:07:45Z</time>
      </trkpt>
      <trkpt lat="48.71538" lon="-3.39819">
        <ele>72</ele>
        <time>2011-02-20T08:07:46Z</time>
      </trkpt>
      <trkpt lat="48.71532" lon="-3.39823">
        <ele>72</ele>
        <time>2011-02-20T08:07:47Z</time>
      </trkpt>
      <trkpt lat="48.71527" lon="-3.39828">
        <ele>72</ele>
        <time>2011-02-20T08:07:48Z</time>
      </trkpt>
      <trkpt lat="48.71522" lon="-3.39832">
        <ele>72</ele>
        <time>2011-02-20T08:07:49Z</time>
      </trkpt>
      <trkpt lat="48.71517" lon="-3.39837">
        <ele>72</ele>
        <time>2011-02-20T08:07:50Z</time>
      </trkpt>
      <trkpt lat="48.71512" lon="-3.39841">
        <ele>72</ele>
        <time>2011-02-20T08:07:51Z</time>
      </trkpt>
      <trkpt lat="48.71508" lon="-3.39847">
        <ele>72</ele>
        <time>2011-02-20T08:07:52Z</time>
      </trkpt>
      <trkpt lat="48.71503" lon="-3.39854">
        <ele>72</ele>
        <time>2011-02-20T08:07:53Z</time>
      </trkpt>
      <trkpt lat="48.71499" lon="-3.39859">
        <ele>72</ele>
        <time>2011-02-20T08:07:54Z</time>
      </trkpt>
      <trkpt lat="48.71494" lon="-3.39863">
        <ele>72</ele>
        <time>2011-02-20T08:07:55Z</time>
      </trkpt>
      <trkpt lat="48.71487" lon="-3.39864">
        <ele>72</ele>
        <time>2011-02-20T08:07:56Z</time>
      </trkpt>
      <trkpt lat="48.71481" lon="-3.39864">
        <ele>72</ele>
        <time>2011-02-20T08:07:57Z</time>
      </trkpt>
      <trkpt lat="48.71474" lon="-3.39863">
        <ele>72</ele>
        <time>2011-02-20T08:07:58Z</time>
      </trkpt>
      <trkpt lat="48.71467" lon="-3.39862">
        <ele>72</ele>
        <time>2011-02-20T08:07:59Z</time>
      </trkpt>
      <trkpt lat="48.71459" lon="-3.39862">
        <ele>72</ele>
        <time>2011-02-20T08:08:00Z</time>
      </trkpt>
      <trkpt lat="48.71452" lon="-3.39863">
        <ele>72</ele>
        <time>2011-02-20T08:08:01Z</time>
      </trkpt>
      <trkpt lat="48.71444" lon="-3.39864">
        <ele>72</ele>
        <time>2011-02-20T08:08:02Z</time>
      </trkpt>
      <trkpt lat="48.71435" lon="-3.39865">
        <ele>72</ele>
        <time>2011-02-20T08:08:03Z</time>
      </trkpt>
      <trkpt lat="48.71427" lon="-3.39866">
        <ele>72</ele>
        <time>2011-02-20T08:08:04Z</time>
      </trkpt>
      <trkpt lat="48.71418" lon="-3.39868">
        <ele>72</ele>
        <time>2011-02-20T08:08:05Z</time>
      </trkpt>
      <trkpt lat="48.7141" lon="-3.39869">
        <ele>72</ele>
        <time>2011-02-20T08:08:06Z</time>
      </trkpt>
      <trkpt lat="48.71401" lon="-3.39871">
        <ele>72</ele>
        <time>2011-02-20T08:08:07Z</time>
      </trkpt>
      <trkpt lat="48.71392" lon="-3.39872">
        <ele>72</ele>
        <time>2011-02-20T08:08:08Z</time>
      </trkpt>
      <trkpt lat="48.71383" lon="-3.39874">
        <ele>72</ele>
        <time>2011-02-20T08:08:09Z</time>
      </trkpt>
      <trkpt lat="48.71375" lon="-3.39876">
        <ele>72</ele>
        <time>2011-02-20T08:08:10Z</time>
      </trkpt>
      <trkpt lat="48.71367" lon="-3.39877">
        <ele>72</ele>
        <time>2011-02-20T08:08:11Z</time>
      </trkpt>
      <trkpt lat="48.7136" lon="-3.39879">
        <ele>72</ele>
        <time>2011-02-20T08:08:12Z</time>
      </trkpt>
      <trkpt lat="48.71352" lon="-3.39879">
        <ele>72</ele>
        <time>2011-02-20T08:08:13Z</time>
      </trkpt>
      <trkpt lat="48.71346" lon="-3.3988">
        <ele>72</ele>
        <time>2011-02-20T08:08:14Z</time>
      </trkpt>
      <trkpt lat="48.71339" lon="-3.39881">
        <ele>72</ele>
        <time>2011-02-20T08:08:15Z</time>
      </trkpt>
      <trkpt lat="48.71333" lon="-3.39881">
        <ele>72</ele>
        <time>2011-02-20T08:08:16Z</time>
      </trkpt>
      <trkpt lat="48.71326" lon="-3.39881">
        <ele>72</ele>
        <time>2011-02-20T08:08:17Z</time>
      </trkpt>
      <trkpt lat="48.7132" lon="-3.39882">
        <ele>72</ele>
        <time>2011-02-20T08:08:18Z</time>
      </trkpt>
      <trkpt lat="48.71313" lon="-3.39882">
        <ele>72</ele>
        <time>2011-02-20T08:08:19Z</time>
      </trkpt>
      <trkpt lat="48.71307" lon="-3.39882">
        <ele>72</ele>
        <time>2011-02-20T08:08:20Z</time>
      </trkpt>
      <trkpt lat="48.713" lon="-3.39883">
        <ele>72</ele>
        <time>2011-02-20T08:08:21Z</time>
      </trkpt>
      <trkpt lat="48.71294" lon="-3.39883">
        <ele>72</ele>
        <time>2011-02-20T08:08:22Z</time>
      </trkpt>
      <trkpt lat="48.71287" lon="-3.39884">
        <ele>72</ele>
        <time>2011-02-20T08:08:23Z</time>
      </trkpt>
      <trkpt lat="48.71281" lon="-3.39885">
        <ele>72</ele>
        <time>2011-02-20T08:08:24Z</time>
      </trkpt>
      <trkpt lat="48.71274" lon="-3.39887">
        <ele>72</ele>
        <time>2011-02-20T08:08:25Z</time>
      </trkpt>
      <trkpt lat="48.71268" lon="-3.39889">
        <ele>72</ele>
        <time>2011-02-20T08:08:26Z</time>
      </trkpt>
      <trkpt lat="48.71262" lon="-3.39892">
        <ele>72</ele>
        <time>2011-02-20T08:08:27Z</time>
      </trkpt>
      <trkpt lat="48.71256" lon="-3.39894">
        <ele>72</ele>
        <time>2011-02-20T08:08:28Z</time>
      </trkpt>
      <trkpt lat="48.7125" lon="-3.39897">
        <ele>72</ele>
        <time>2011-02-20T08:08:29Z</time>
      </trkpt>
      <trkpt lat="48.71244" lon="-3.39901">
        <ele>72</ele>
        <time>2011-02-20T08:08:30Z</time>
      </trkpt>
      <trkpt lat="48.71238" lon="-3.39904">
        <ele>72</ele>
        <time>2011-02-20T08:08:31Z</time>
      </trkpt>
      <trkpt lat="48.71233" lon="-3.39908">
        <ele>72</ele>
        <time>2011-02-20T08:08:32Z</time>
      </trkpt>
      <trkpt lat="48.71227" lon="-3.39912">
        <ele>72</ele>
        <time>2011-02-20T08:08:33Z</time>
      </trkpt>
      <trkpt lat="48.71222" lon="-3.39917">
        <ele>72</ele>
        <time>2011-02-20T08:08:34Z</time>
      </trkpt>
      <trkpt lat="48.71217" lon="-3.39922">
        <ele>72</ele>
        <time>2011-02-20T08:08:35Z</time>
      </trkpt>
      <trkpt lat="48.71212" lon="-3.39927">
        <ele>72</ele>
        <time>2011-02-20T08:08:36Z</time>
      </trkpt>
      <trkpt lat="48.71207" lon="-3.39932">
        <ele>72</ele>
        <time>2011-02-20T08:08:37Z</time>
      </trkpt>
      <trkpt lat="48.71202" lon="-3.39938">
        <ele>72</ele>
        <time>2011-02-20T08:08:38Z</time>
      </trkpt>
      <trkpt lat="48.71198" lon="-3.39944">
        <ele>72</ele>
        <time>2011-02-20T08:08:39Z</time>
      </trkpt>
      <trkpt lat="48.71193" lon="-3.39949">
        <ele>72</ele>
        <time>2011-02-20T08:08:40Z</time>
      </trkpt>
      <trkpt lat="48.71189" lon="-3.39956">
        <ele>72</ele>
        <time>2011-02-20T08:08:41Z</time>
      </trkpt>
      <trkpt lat="48.71185" lon="-3.39963">
        <ele>72</ele>
        <time>2011-02-20T08:08:42Z</time>
      </trkpt>
      <trkpt lat="48.71181" lon="-3.39969">
        <ele>72</ele>
        <time>2011-02-20T08:08:43Z</time>
      </trkpt>
      <trkpt lat="48.71177" lon="-3.39977">
        <ele>72</ele>
        <time>2011-02-20T08:08:44Z</time>
      </trkpt>
      <trkpt lat="48.71174" lon="-3.39984">
        <ele>72</ele>
        <time>2011-02-20T08:08:45Z</time>
      </trkpt>
      <trkpt lat="48.7117" lon="-3.39992">
        <ele>72</ele>
        <time>2011-02-20T08:08:46Z</time>
      </trkpt>
      <trkpt lat="48.71167" lon="-3.4">
        <ele>72</ele>
        <time>2011-02-20T08:08:47Z</time>
      </trkpt>
      <trkpt lat="48.71164" lon="-3.40008">
        <ele>72</ele>
        <time>2011-02-20T08:08:48Z</time>
      </trkpt>
      <trkpt lat="48.71161" lon="-3.40017">
        <ele>72</ele>
        <time>2011-02-20T08:08:49Z</time>
      </trkpt>
      <trkpt lat="48.71158" lon="-3.40025">
        <ele>72</ele>
        <time>2011-02-20T08:08:50Z</time>
      </trkpt>
      <trkpt lat="48.71151" lon="-3.40052">
        <ele>72</ele>
        <time>2011-02-20T08:08:53Z</time>
      </trkpt>
      <trkpt lat="48.71146" lon="-3.40079">
        <ele>72</ele>
        <time>2011-02-20T08:08:56Z</time>
      </trkpt>
      <trkpt lat="48.71142" lon="-3.40097">
        <ele>72</ele>
        <time>2011-02-20T08:08:58Z</time>
      </trkpt>
      <trkpt lat="48.7114" lon="-3.40105">
        <ele>72</ele>
        <time>2011-02-20T08:08:59Z</time>
      </trkpt>
      <trkpt lat="48.71138" lon="-3.40114">
        <ele>72</ele>
        <time>2011-02-20T08:09:00Z</time>
      </trkpt>
      <trkpt lat="48.71135" lon="-3.40122">
        <ele>72</ele>
        <time>2011-02-20T08:09:01Z</time>
      </trkpt>
      <trkpt lat="48.71133" lon="-3.4013">
        <ele>72</ele>
        <time>2011-02-20T08:09:02Z</time>
      </trkpt>
      <trkpt lat="48.7113" lon="-3.40139">
        <ele>72</ele>
        <time>2011-02-20T08:09:03Z</time>
      </trkpt>
      <trkpt lat="48.71127" lon="-3.40146">
        <ele>72</ele>
        <time>2011-02-20T08:09:04Z</time>
      </trkpt>
      <trkpt lat="48.71123" lon="-3.40154">
        <ele>72</ele>
        <time>2011-02-20T08:09:05Z</time>
      </trkpt>
      <trkpt lat="48.7112" lon="-3.40162">
        <ele>72</ele>
        <time>2011-02-20T08:09:06Z</time>
      </trkpt>
      <trkpt lat="48.71116" lon="-3.40169">
        <ele>72</ele>
        <time>2011-02-20T08:09:07Z</time>
      </trkpt>
      <trkpt lat="48.71112" lon="-3.40176">
        <ele>72</ele>
        <time>2011-02-20T08:09:08Z</time>
      </trkpt>
      <trkpt lat="48.71108" lon="-3.40183">
        <ele>72</ele>
        <time>2011-02-20T08:09:09Z</time>
      </trkpt>
      <trkpt lat="48.71104" lon="-3.40189">
        <ele>72</ele>
        <time>2011-02-20T08:09:10Z</time>
      </trkpt>
      <trkpt lat="48.71099" lon="-3.40195">
        <ele>72</ele>
        <time>2011-02-20T08:09:11Z</time>
      </trkpt>
      <trkpt lat="48.71095" lon="-3.40201">
        <ele>73</ele>
        <time>2011-02-20T08:09:12Z</time>
      </trkpt>
      <trkpt lat="48.7109" lon="-3.40208">
        <ele>73</ele>
        <time>2011-02-20T08:09:13Z</time>
      </trkpt>
      <trkpt lat="48.71085" lon="-3.40213">
        <ele>73</ele>
        <time>2011-02-20T08:09:14Z</time>
      </trkpt>
      <trkpt lat="48.7108" lon="-3.40219">
        <ele>73</ele>
        <time>2011-02-20T08:09:15Z</time>
      </trkpt>
      <trkpt lat="48.71075" lon="-3.40224">
        <ele>73</ele>
        <time>2011-02-20T08:09:16Z</time>
      </trkpt>
      <trkpt lat="48.7107" lon="-3.40229">
        <ele>73</ele>
        <time>2011-02-20T08:09:17Z</time>
      </trkpt>
      <trkpt lat="48.71065" lon="-3.40234">
        <ele>73</ele>
        <time>2011-02-20T08:09:18Z</time>
      </trkpt>
      <trkpt lat="48.7106" lon="-3.40238">
        <ele>73</ele>
        <time>2011-02-20T08:09:19Z</time>
      </trkpt>
      <trkpt lat="48.71054" lon="-3.40243">
        <ele>74</ele>
        <time>2011-02-20T08:09:20Z</time>
      </trkpt>
      <trkpt lat="48.71048" lon="-3.40246">
        <ele>74</ele>
        <time>2011-02-20T08:09:21Z</time>
      </trkpt>
      <trkpt lat="48.71043" lon="-3.40249">
        <ele>74</ele>
        <time>2011-02-20T08:09:22Z</time>
      </trkpt>
      <trkpt lat="48.71037" lon="-3.40253">
        <ele>74</ele>
        <time>2011-02-20T08:09:23Z</time>
      </trkpt>
      <trkpt lat="48.71031" lon="-3.40255">
        <ele>74</ele>
        <time>2011-02-20T08:09:24Z</time>
      </trkpt>
      <trkpt lat="48.71025" lon="-3.40258">
        <ele>74</ele>
        <time>2011-02-20T08:09:25Z</time>
      </trkpt>
      <trkpt lat="48.7102" lon="-3.4026">
        <ele>74</ele>
        <time>2011-02-20T08:09:26Z</time>
      </trkpt>
      <trkpt lat="48.71014" lon="-3.40261">
        <ele>75</ele>
        <time>2011-02-20T08:09:27Z</time>
      </trkpt>
      <trkpt lat="48.71009" lon="-3.40262">
        <ele>75</ele>
        <time>2011-02-20T08:09:28Z</time>
      </trkpt>
      <trkpt lat="48.71003" lon="-3.40263">
        <ele>75</ele>
        <time>2011-02-20T08:09:29Z</time>
      </trkpt>
      <trkpt lat="48.70998" lon="-3.40264">
        <ele>76</ele>
        <time>2011-02-20T08:09:30Z</time>
      </trkpt>
      <trkpt lat="48.70993" lon="-3.40265">
        <ele>76</ele>
        <time>2011-02-20T08:09:31Z</time>
      </trkpt>
      <trkpt lat="48.70988" lon="-3.40265">
        <ele>76</ele>
        <time>2011-02-20T08:09:32Z</time>
      </trkpt>
      <trkpt lat="48.70982" lon="-3.40266">
        <ele>77</ele>
        <time>2011-02-20T08:09:33Z</time>
      </trkpt>
      <trkpt lat="48.70977" lon="-3.40266">
        <ele>77</ele>
        <time>2011-02-20T08:09:34Z</time>
      </trkpt>
      <trkpt lat="48.70972" lon="-3.40266">
        <ele>77</ele>
        <time>2011-02-20T08:09:35Z</time>
      </trkpt>
      <trkpt lat="48.70967" lon="-3.40266">
        <ele>78</ele>
        <time>2011-02-20T08:09:36Z</time>
      </trkpt>
      <trkpt lat="48.70962" lon="-3.40266">
        <ele>78</ele>
        <time>2011-02-20T08:09:37Z</time>
      </trkpt>
      <trkpt lat="48.70956" lon="-3.40265">
        <ele>78</ele>
        <time>2011-02-20T08:09:38Z</time>
      </trkpt>
      <trkpt lat="48.70951" lon="-3.40265">
        <ele>78</ele>
        <time>2011-02-20T08:09:39Z</time>
      </trkpt>
      <trkpt lat="48.70946" lon="-3.40265">
        <ele>79</ele>
        <time>2011-02-20T08:09:40Z</time>
      </trkpt>
      <trkpt lat="48.7094" lon="-3.40264">
        <ele>79</ele>
        <time>2011-02-20T08:09:41Z</time>
      </trkpt>
      <trkpt lat="48.70935" lon="-3.40264">
        <ele>79</ele>
        <time>2011-02-20T08:09:42Z</time>
      </trkpt>
      <trkpt lat="48.7093" lon="-3.40263">
        <ele>79</ele>
        <time>2011-02-20T08:09:43Z</time>
      </trkpt>
      <trkpt lat="48.70924" lon="-3.40263">
        <ele>79</ele>
        <time>2011-02-20T08:09:44Z</time>
      </trkpt>
      <trkpt lat="48.70919" lon="-3.40262">
        <ele>80</ele>
        <time>2011-02-20T08:09:45Z</time>
      </trkpt>
      <trkpt lat="48.70913" lon="-3.40261">
        <ele>80</ele>
        <time>2011-02-20T08:09:46Z</time>
      </trkpt>
      <trkpt lat="48.70908" lon="-3.4026">
        <ele>80</ele>
        <time>2011-02-20T08:09:47Z</time>
      </trkpt>
      <trkpt lat="48.70902" lon="-3.40259">
        <ele>80</ele>
        <time>2011-02-20T08:09:48Z</time>
      </trkpt>
      <trkpt lat="48.70896" lon="-3.40258">
        <ele>80</ele>
        <time>2011-02-20T08:09:49Z</time>
      </trkpt>
      <trkpt lat="48.7089" lon="-3.40258">
        <ele>80</ele>
        <time>2011-02-20T08:09:50Z</time>
      </trkpt>
      <trkpt lat="48.70884" lon="-3.40257">
        <ele>80</ele>
        <time>2011-02-20T08:09:51Z</time>
      </trkpt>
      <trkpt lat="48.70879" lon="-3.40256">
        <ele>80</ele>
        <time>2011-02-20T08:09:52Z</time>
      </trkpt>
      <trkpt lat="48.70873" lon="-3.40255">
        <ele>80</ele>
        <time>2011-02-20T08:09:53Z</time>
      </trkpt>
      <trkpt lat="48.70867" lon="-3.40254">
        <ele>80</ele>
        <time>2011-02-20T08:09:54Z</time>
      </trkpt>
      <trkpt lat="48.70861" lon="-3.40253">
        <ele>80</ele>
        <time>2011-02-20T08:09:55Z</time>
      </trkpt>
      <trkpt lat="48.70855" lon="-3.40252">
        <ele>80</ele>
        <time>2011-02-20T08:09:56Z</time>
      </trkpt>
      <trkpt lat="48.7085" lon="-3.40251">
        <ele>80</ele>
        <time>2011-02-20T08:09:57Z</time>
      </trkpt>
      <trkpt lat="48.70844" lon="-3.4025">
        <ele>80</ele>
        <time>2011-02-20T08:09:58Z</time>
      </trkpt>
      <trkpt lat="48.70839" lon="-3.40249">
        <ele>80</ele>
        <time>2011-02-20T08:09:59Z</time>
      </trkpt>
      <trkpt lat="48.70834" lon="-3.40248">
        <ele>81</ele>
        <time>2011-02-20T08:10:00Z</time>
      </trkpt>
      <trkpt lat="48.70828" lon="-3.40247">
        <ele>81</ele>
        <time>2011-02-20T08:10:01Z</time>
      </trkpt>
      <trkpt lat="48.70823" lon="-3.40246">
        <ele>81</ele>
        <time>2011-02-20T08:10:02Z</time>
      </trkpt>
      <trkpt lat="48.70818" lon="-3.40245">
        <ele>81</ele>
        <time>2011-02-20T08:10:03Z</time>
      </trkpt>
      <trkpt lat="48.70813" lon="-3.40244">
        <ele>82</ele>
        <time>2011-02-20T08:10:04Z</time>
      </trkpt>
      <trkpt lat="48.70808" lon="-3.40243">
        <ele>82</ele>
        <time>2011-02-20T08:10:05Z</time>
      </trkpt>
      <trkpt lat="48.70803" lon="-3.40242">
        <ele>82</ele>
        <time>2011-02-20T08:10:06Z</time>
      </trkpt>
      <trkpt lat="48.70797" lon="-3.40241">
        <ele>82</ele>
        <time>2011-02-20T08:10:07Z</time>
      </trkpt>
      <trkpt lat="48.70792" lon="-3.4024">
        <ele>82</ele>
        <time>2011-02-20T08:10:08Z</time>
      </trkpt>
      <trkpt lat="48.70787" lon="-3.40239">
        <ele>83</ele>
        <time>2011-02-20T08:10:09Z</time>
      </trkpt>
      <trkpt lat="48.70782" lon="-3.40238">
        <ele>83</ele>
        <time>2011-02-20T08:10:10Z</time>
      </trkpt>
      <trkpt lat="48.70776" lon="-3.40238">
        <ele>83</ele>
        <time>2011-02-20T08:10:11Z</time>
      </trkpt>
      <trkpt lat="48.70771" lon="-3.40237">
        <ele>83</ele>
        <time>2011-02-20T08:10:12Z</time>
      </trkpt>
      <trkpt lat="48.70765" lon="-3.40236">
        <ele>83</ele>
        <time>2011-02-20T08:10:13Z</time>
      </trkpt>
      <trkpt lat="48.70759" lon="-3.40236">
        <ele>83</ele>
        <time>2011-02-20T08:10:14Z</time>
      </trkpt>
      <trkpt lat="48.70753" lon="-3.40235">
        <ele>83</ele>
        <time>2011-02-20T08:10:15Z</time>
      </trkpt>
      <trkpt lat="48.70747" lon="-3.40234">
        <ele>83</ele>
        <time>2011-02-20T08:10:16Z</time>
      </trkpt>
      <trkpt lat="48.70742" lon="-3.40233">
        <ele>83</ele>
        <time>2011-02-20T08:10:17Z</time>
      </trkpt>
      <trkpt lat="48.70736" lon="-3.40232">
        <ele>83</ele>
        <time>2011-02-20T08:10:18Z</time>
      </trkpt>
      <trkpt lat="48.7073" lon="-3.4023">
        <ele>83</ele>
        <time>2011-02-20T08:10:19Z</time>
      </trkpt>
      <trkpt lat="48.70724" lon="-3.40228">
        <ele>83</ele>
        <time>2011-02-20T08:10:20Z</time>
      </trkpt>
      <trkpt lat="48.70718" lon="-3.40226">
        <ele>83</ele>
        <time>2011-02-20T08:10:21Z</time>
      </trkpt>
      <trkpt lat="48.70713" lon="-3.40224">
        <ele>83</ele>
        <time>2011-02-20T08:10:22Z</time>
      </trkpt>
      <trkpt lat="48.70707" lon="-3.40222">
        <ele>83</ele>
        <time>2011-02-20T08:10:23Z</time>
      </trkpt>
      <trkpt lat="48.70702" lon="-3.4022">
        <ele>83</ele>
        <time>2011-02-20T08:10:24Z</time>
      </trkpt>
      <trkpt lat="48.70696" lon="-3.40217">
        <ele>83</ele>
        <time>2011-02-20T08:10:25Z</time>
      </trkpt>
      <trkpt lat="48.70691" lon="-3.40215">
        <ele>84</ele>
        <time>2011-02-20T08:10:26Z</time>
      </trkpt>
      <trkpt lat="48.70685" lon="-3.40213">
        <ele>84</ele>
        <time>2011-02-20T08:10:27Z</time>
      </trkpt>
      <trkpt lat="48.70679" lon="-3.40212">
        <ele>84</ele>
        <time>2011-02-20T08:10:28Z</time>
      </trkpt>
      <trkpt lat="48.70673" lon="-3.4021">
        <ele>84</ele>
        <time>2011-02-20T08:10:29Z</time>
      </trkpt>
      <trkpt lat="48.70667" lon="-3.40209">
        <ele>84</ele>
        <time>2011-02-20T08:10:30Z</time>
      </trkpt>
      <trkpt lat="48.70661" lon="-3.40208">
        <ele>84</ele>
        <time>2011-02-20T08:10:31Z</time>
      </trkpt>
      <trkpt lat="48.70655" lon="-3.40207">
        <ele>84</ele>
        <time>2011-02-20T08:10:32Z</time>
      </trkpt>
      <trkpt lat="48.70649" lon="-3.40207">
        <ele>84</ele>
        <time>2011-02-20T08:10:33Z</time>
      </trkpt>
      <trkpt lat="48.70642" lon="-3.40208">
        <ele>84</ele>
        <time>2011-02-20T08:10:34Z</time>
      </trkpt>
      <trkpt lat="48.70636" lon="-3.40208">
        <ele>84</ele>
        <time>2011-02-20T08:10:35Z</time>
      </trkpt>
      <trkpt lat="48.7063" lon="-3.40209">
        <ele>84</ele>
        <time>2011-02-20T08:10:36Z</time>
      </trkpt>
      <trkpt lat="48.70624" lon="-3.40209">
        <ele>84</ele>
        <time>2011-02-20T08:10:37Z</time>
      </trkpt>
      <trkpt lat="48.70618" lon="-3.4021">
        <ele>84</ele>
        <time>2011-02-20T08:10:38Z</time>
      </trkpt>
      <trkpt lat="48.70612" lon="-3.4021">
        <ele>84</ele>
        <time>2011-02-20T08:10:39Z</time>
      </trkpt>
      <trkpt lat="48.70605" lon="-3.40211">
        <ele>84</ele>
        <time>2011-02-20T08:10:40Z</time>
      </trkpt>
      <trkpt lat="48.70599" lon="-3.40212">
        <ele>84</ele>
        <time>2011-02-20T08:10:41Z</time>
      </trkpt>
      <trkpt lat="48.70592" lon="-3.40213">
        <ele>84</ele>
        <time>2011-02-20T08:10:42Z</time>
      </trkpt>
      <trkpt lat="48.70585" lon="-3.40214">
        <ele>84</ele>
        <time>2011-02-20T08:10:43Z</time>
      </trkpt>
      <trkpt lat="48.70578" lon="-3.40216">
        <ele>84</ele>
        <time>2011-02-20T08:10:44Z</time>
      </trkpt>
      <trkpt lat="48.70571" lon="-3.40217">
        <ele>84</ele>
        <time>2011-02-20T08:10:45Z</time>
      </trkpt>
      <trkpt lat="48.70564" lon="-3.4022">
        <ele>84</ele>
        <time>2011-02-20T08:10:46Z</time>
      </trkpt>
      <trkpt lat="48.70556" lon="-3.40222">
        <ele>84</ele>
        <time>2011-02-20T08:10:47Z</time>
      </trkpt>
      <trkpt lat="48.70549" lon="-3.40225">
        <ele>84</ele>
        <time>2011-02-20T08:10:48Z</time>
      </trkpt>
      <trkpt lat="48.70542" lon="-3.40228">
        <ele>84</ele>
        <time>2011-02-20T08:10:49Z</time>
      </trkpt>
      <trkpt lat="48.70535" lon="-3.4023">
        <ele>84</ele>
        <time>2011-02-20T08:10:50Z</time>
      </trkpt>
      <trkpt lat="48.70529" lon="-3.40233">
        <ele>84</ele>
        <time>2011-02-20T08:10:51Z</time>
      </trkpt>
      <trkpt lat="48.70522" lon="-3.40236">
        <ele>84</ele>
        <time>2011-02-20T08:10:52Z</time>
      </trkpt>
      <trkpt lat="48.70516" lon="-3.40239">
        <ele>84</ele>
        <time>2011-02-20T08:10:53Z</time>
      </trkpt>
      <trkpt lat="48.7051" lon="-3.40242">
        <ele>84</ele>
        <time>2011-02-20T08:10:54Z</time>
      </trkpt>
      <trkpt lat="48.70504" lon="-3.40244">
        <ele>84</ele>
        <time>2011-02-20T08:10:55Z</time>
      </trkpt>
      <trkpt lat="48.70498" lon="-3.40247">
        <ele>84</ele>
        <time>2011-02-20T08:10:56Z</time>
      </trkpt>
      <trkpt lat="48.70492" lon="-3.4025">
        <ele>84</ele>
        <time>2011-02-20T08:10:57Z</time>
      </trkpt>
      <trkpt lat="48.70486" lon="-3.40253">
        <ele>84</ele>
        <time>2011-02-20T08:10:58Z</time>
      </trkpt>
      <trkpt lat="48.7048" lon="-3.40256">
        <ele>84</ele>
        <time>2011-02-20T08:10:59Z</time>
      </trkpt>
      <trkpt lat="48.70473" lon="-3.40259">
        <ele>84</ele>
        <time>2011-02-20T08:11:00Z</time>
      </trkpt>
      <trkpt lat="48.70467" lon="-3.40262">
        <ele>84</ele>
        <time>2011-02-20T08:11:01Z</time>
      </trkpt>
      <trkpt lat="48.7046" lon="-3.40264">
        <ele>84</ele>
        <time>2011-02-20T08:11:02Z</time>
      </trkpt>
      <trkpt lat="48.70453" lon="-3.40267">
        <ele>84</ele>
        <time>2011-02-20T08:11:03Z</time>
      </trkpt>
      <trkpt lat="48.70446" lon="-3.4027">
        <ele>84</ele>
        <time>2011-02-20T08:11:04Z</time>
      </trkpt>
      <trkpt lat="48.7044" lon="-3.40273">
        <ele>84</ele>
        <time>2011-02-20T08:11:05Z</time>
      </trkpt>
      <trkpt lat="48.70433" lon="-3.40275">
        <ele>84</ele>
        <time>2011-02-20T08:11:06Z</time>
      </trkpt>
      <trkpt lat="48.70426" lon="-3.40277">
        <ele>84</ele>
        <time>2011-02-20T08:11:07Z</time>
      </trkpt>
      <trkpt lat="48.70419" lon="-3.40279">
        <ele>84</ele>
        <time>2011-02-20T08:11:08Z</time>
      </trkpt>
      <trkpt lat="48.70412" lon="-3.4028">
        <ele>84</ele>
        <time>2011-02-20T08:11:09Z</time>
      </trkpt>
      <trkpt lat="48.70405" lon="-3.4028">
        <ele>84</ele>
        <time>2011-02-20T08:11:10Z</time>
      </trkpt>
      <trkpt lat="48.70398" lon="-3.40281">
        <ele>84</ele>
        <time>2011-02-20T08:11:11Z</time>
      </trkpt>
      <trkpt lat="48.70391" lon="-3.40281">
        <ele>84</ele>
        <time>2011-02-20T08:11:12Z</time>
      </trkpt>
      <trkpt lat="48.70384" lon="-3.40281">
        <ele>84</ele>
        <time>2011-02-20T08:11:13Z</time>
      </trkpt>
      <trkpt lat="48.70377" lon="-3.40282">
        <ele>84</ele>
        <time>2011-02-20T08:11:14Z</time>
      </trkpt>
      <trkpt lat="48.70371" lon="-3.40282">
        <ele>84</ele>
        <time>2011-02-20T08:11:15Z</time>
      </trkpt>
      <trkpt lat="48.70364" lon="-3.40282">
        <ele>84</ele>
        <time>2011-02-20T08:11:16Z</time>
      </trkpt>
      <trkpt lat="48.70358" lon="-3.40282">
        <ele>84</ele>
        <time>2011-02-20T08:11:17Z</time>
      </trkpt>
      <trkpt lat="48.70351" lon="-3.40282">
        <ele>84</ele>
        <time>2011-02-20T08:11:18Z</time>
      </trkpt>
      <trkpt lat="48.70344" lon="-3.40282">
        <ele>84</ele>
        <time>2011-02-20T08:11:19Z</time>
      </trkpt>
      <trkpt lat="48.70337" lon="-3.40282">
        <ele>84</ele>
        <time>2011-02-20T08:11:20Z</time>
      </trkpt>
      <trkpt lat="48.7033" lon="-3.40281">
        <ele>84</ele>
        <time>2011-02-20T08:11:21Z</time>
      </trkpt>
      <trkpt lat="48.70322" lon="-3.4028">
        <ele>84</ele>
        <time>2011-02-20T08:11:22Z</time>
      </trkpt>
      <trkpt lat="48.70316" lon="-3.4028">
        <ele>84</ele>
        <time>2011-02-20T08:11:23Z</time>
      </trkpt>
      <trkpt lat="48.70309" lon="-3.40279">
        <ele>84</ele>
        <time>2011-02-20T08:11:24Z</time>
      </trkpt>
      <trkpt lat="48.70301" lon="-3.40279">
        <ele>84</ele>
        <time>2011-02-20T08:11:25Z</time>
      </trkpt>
      <trkpt lat="48.70295" lon="-3.40278">
        <ele>84</ele>
        <time>2011-02-20T08:11:26Z</time>
      </trkpt>
      <trkpt lat="48.70288" lon="-3.40278">
        <ele>84</ele>
        <time>2011-02-20T08:11:27Z</time>
      </trkpt>
      <trkpt lat="48.70281" lon="-3.40278">
        <ele>84</ele>
        <time>2011-02-20T08:11:28Z</time>
      </trkpt>
      <trkpt lat="48.70274" lon="-3.40279">
        <ele>84</ele>
        <time>2011-02-20T08:11:29Z</time>
      </trkpt>
      <trkpt lat="48.70268" lon="-3.4028">
        <ele>84</ele>
        <time>2011-02-20T08:11:30Z</time>
      </trkpt>
      <trkpt lat="48.70262" lon="-3.40281">
        <ele>84</ele>
        <time>2011-02-20T08:11:31Z</time>
      </trkpt>
      <trkpt lat="48.70256" lon="-3.40283">
        <ele>84</ele>
        <time>2011-02-20T08:11:32Z</time>
      </trkpt>
      <trkpt lat="48.7025" lon="-3.40285">
        <ele>84</ele>
        <time>2011-02-20T08:11:33Z</time>
      </trkpt>
      <trkpt lat="48.70244" lon="-3.40287">
        <ele>84</ele>
        <time>2011-02-20T08:11:34Z</time>
      </trkpt>
      <trkpt lat="48.70238" lon="-3.40289">
        <ele>84</ele>
        <time>2011-02-20T08:11:35Z</time>
      </trkpt>
      <trkpt lat="48.70232" lon="-3.40291">
        <ele>84</ele>
        <time>2011-02-20T08:11:36Z</time>
      </trkpt>
      <trkpt lat="48.70227" lon="-3.40293">
        <ele>84</ele>
        <time>2011-02-20T08:11:37Z</time>
      </trkpt>
      <trkpt lat="48.70222" lon="-3.40295">
        <ele>84</ele>
        <time>2011-02-20T08:11:38Z</time>
      </trkpt>
      <trkpt lat="48.70217" lon="-3.40297">
        <ele>84</ele>
        <time>2011-02-20T08:11:39Z</time>
      </trkpt>
      <trkpt lat="48.70212" lon="-3.40299">
        <ele>84</ele>
        <time>2011-02-20T08:11:40Z</time>
      </trkpt>
      <trkpt lat="48.70206" lon="-3.40301">
        <ele>84</ele>
        <time>2011-02-20T08:11:41Z</time>
      </trkpt>
      <trkpt lat="48.70201" lon="-3.40303">
        <ele>84</ele>
        <time>2011-02-20T08:11:42Z</time>
      </trkpt>
      <trkpt lat="48.70196" lon="-3.40305">
        <ele>84</ele>
        <time>2011-02-20T08:11:43Z</time>
      </trkpt>
      <trkpt lat="48.70191" lon="-3.40307">
        <ele>84</ele>
        <time>2011-02-20T08:11:44Z</time>
      </trkpt>
      <trkpt lat="48.70185" lon="-3.40308">
        <ele>84</ele>
        <time>2011-02-20T08:11:45Z</time>
      </trkpt>
      <trkpt lat="48.7018" lon="-3.4031">
        <ele>84</ele>
        <time>2011-02-20T08:11:46Z</time>
      </trkpt>
      <trkpt lat="48.70175" lon="-3.40311">
        <ele>84</ele>
        <time>2011-02-20T08:11:47Z</time>
      </trkpt>
      <trkpt lat="48.7017" lon="-3.40312">
        <ele>84</ele>
        <time>2011-02-20T08:11:48Z</time>
      </trkpt>
      <trkpt lat="48.70165" lon="-3.40313">
        <ele>84</ele>
        <time>2011-02-20T08:11:49Z</time>
      </trkpt>
      <trkpt lat="48.7016" lon="-3.40314">
        <ele>84</ele>
        <time>2011-02-20T08:11:50Z</time>
      </trkpt>
      <trkpt lat="48.70154" lon="-3.40315">
        <ele>84</ele>
        <time>2011-02-20T08:11:51Z</time>
      </trkpt>
      <trkpt lat="48.70149" lon="-3.40316">
        <ele>84</ele>
        <time>2011-02-20T08:11:52Z</time>
      </trkpt>
      <trkpt lat="48.70143" lon="-3.40317">
        <ele>84</ele>
        <time>2011-02-20T08:11:53Z</time>
      </trkpt>
      <trkpt lat="48.70138" lon="-3.40317">
        <ele>84</ele>
        <time>2011-02-20T08:11:54Z</time>
      </trkpt>
      <trkpt lat="48.70132" lon="-3.40318">
        <ele>84</ele>
        <time>2011-02-20T08:11:55Z</time>
      </trkpt>
      <trkpt lat="48.70127" lon="-3.40318">
        <ele>84</ele>
        <time>2011-02-20T08:11:56Z</time>
      </trkpt>
      <trkpt lat="48.70121" lon="-3.40319">
        <ele>85</ele>
        <time>2011-02-20T08:11:57Z</time>
      </trkpt>
      <trkpt lat="48.70116" lon="-3.40319">
        <ele>85</ele>
        <time>2011-02-20T08:11:58Z</time>
      </trkpt>
      <trkpt lat="48.7011" lon="-3.4032">
        <ele>85</ele>
        <time>2011-02-20T08:11:59Z</time>
      </trkpt>
      <trkpt lat="48.70104" lon="-3.4032">
        <ele>85</ele>
        <time>2011-02-20T08:12:00Z</time>
      </trkpt>
      <trkpt lat="48.70098" lon="-3.4032">
        <ele>85</ele>
        <time>2011-02-20T08:12:01Z</time>
      </trkpt>
      <trkpt lat="48.70092" lon="-3.40321">
        <ele>86</ele>
        <time>2011-02-20T08:12:02Z</time>
      </trkpt>
      <trkpt lat="48.70086" lon="-3.40321">
        <ele>86</ele>
        <time>2011-02-20T08:12:03Z</time>
      </trkpt>
      <trkpt lat="48.7008" lon="-3.40321">
        <ele>86</ele>
        <time>2011-02-20T08:12:04Z</time>
      </trkpt>
      <trkpt lat="48.70074" lon="-3.40322">
        <ele>86</ele>
        <time>2011-02-20T08:12:05Z</time>
      </trkpt>
      <trkpt lat="48.70069" lon="-3.40323">
        <ele>86</ele>
        <time>2011-02-20T08:12:06Z</time>
      </trkpt>
      <trkpt lat="48.70064" lon="-3.40323">
        <ele>86</ele>
        <time>2011-02-20T08:12:07Z</time>
      </trkpt>
      <trkpt lat="48.70058" lon="-3.40324">
        <ele>86</ele>
        <time>2011-02-20T08:12:08Z</time>
      </trkpt>
      <trkpt lat="48.70053" lon="-3.40324">
        <ele>86</ele>
        <time>2011-02-20T08:12:09Z</time>
      </trkpt>
      <trkpt lat="48.70048" lon="-3.40325">
        <ele>87</ele>
        <time>2011-02-20T08:12:10Z</time>
      </trkpt>
      <trkpt lat="48.70042" lon="-3.40326">
        <ele>87</ele>
        <time>2011-02-20T08:12:11Z</time>
      </trkpt>
      <trkpt lat="48.70036" lon="-3.40327">
        <ele>87</ele>
        <time>2011-02-20T08:12:12Z</time>
      </trkpt>
      <trkpt lat="48.70031" lon="-3.40328">
        <ele>87</ele>
        <time>2011-02-20T08:12:13Z</time>
      </trkpt>
      <trkpt lat="48.70025" lon="-3.40328">
        <ele>87</ele>
        <time>2011-02-20T08:12:14Z</time>
      </trkpt>
      <trkpt lat="48.70019" lon="-3.40329">
        <ele>87</ele>
        <time>2011-02-20T08:12:15Z</time>
      </trkpt>
      <trkpt lat="48.70013" lon="-3.40329">
        <ele>87</ele>
        <time>2011-02-20T08:12:16Z</time>
      </trkpt>
      <trkpt lat="48.70007" lon="-3.4033">
        <ele>87</ele>
        <time>2011-02-20T08:12:17Z</time>
      </trkpt>
      <trkpt lat="48.70001" lon="-3.40331">
        <ele>88</ele>
        <time>2011-02-20T08:12:18Z</time>
      </trkpt>
      <trkpt lat="48.69995" lon="-3.40332">
        <ele>88</ele>
        <time>2011-02-20T08:12:19Z</time>
      </trkpt>
      <trkpt lat="48.69989" lon="-3.40332">
        <ele>88</ele>
        <time>2011-02-20T08:12:20Z</time>
      </trkpt>
      <trkpt lat="48.69984" lon="-3.40333">
        <ele>88</ele>
        <time>2011-02-20T08:12:21Z</time>
      </trkpt>
      <trkpt lat="48.69978" lon="-3.40333">
        <ele>88</ele>
        <time>2011-02-20T08:12:22Z</time>
      </trkpt>
      <trkpt lat="48.69971" lon="-3.40334">
        <ele>88</ele>
        <time>2011-02-20T08:12:23Z</time>
      </trkpt>
      <trkpt lat="48.69965" lon="-3.40335">
        <ele>88</ele>
        <time>2011-02-20T08:12:24Z</time>
      </trkpt>
      <trkpt lat="48.69959" lon="-3.40335">
        <ele>88</ele>
        <time>2011-02-20T08:12:25Z</time>
      </trkpt>
      <trkpt lat="48.69953" lon="-3.40336">
        <ele>88</ele>
        <time>2011-02-20T08:12:26Z</time>
      </trkpt>
      <trkpt lat="48.69947" lon="-3.40336">
        <ele>88</ele>
        <time>2011-02-20T08:12:27Z</time>
      </trkpt>
      <trkpt lat="48.69941" lon="-3.40337">
        <ele>88</ele>
        <time>2011-02-20T08:12:28Z</time>
      </trkpt>
      <trkpt lat="48.69934" lon="-3.40338">
        <ele>88</ele>
        <time>2011-02-20T08:12:29Z</time>
      </trkpt>
      <trkpt lat="48.69928" lon="-3.40338">
        <ele>88</ele>
        <time>2011-02-20T08:12:30Z</time>
      </trkpt>
      <trkpt lat="48.69921" lon="-3.40339">
        <ele>88</ele>
        <time>2011-02-20T08:12:31Z</time>
      </trkpt>
      <trkpt lat="48.69915" lon="-3.40339">
        <ele>89</ele>
        <time>2011-02-20T08:12:32Z</time>
      </trkpt>
      <trkpt lat="48.69909" lon="-3.4034">
        <ele>89</ele>
        <time>2011-02-20T08:12:33Z</time>
      </trkpt>
      <trkpt lat="48.69902" lon="-3.4034">
        <ele>89</ele>
        <time>2011-02-20T08:12:34Z</time>
      </trkpt>
      <trkpt lat="48.69895" lon="-3.40341">
        <ele>89</ele>
        <time>2011-02-20T08:12:35Z</time>
      </trkpt>
      <trkpt lat="48.69888" lon="-3.40342">
        <ele>89</ele>
        <time>2011-02-20T08:12:36Z</time>
      </trkpt>
      <trkpt lat="48.69881" lon="-3.40342">
        <ele>89</ele>
        <time>2011-02-20T08:12:37Z</time>
      </trkpt>
      <trkpt lat="48.69874" lon="-3.40343">
        <ele>89</ele>
        <time>2011-02-20T08:12:38Z</time>
      </trkpt>
      <trkpt lat="48.69867" lon="-3.40345">
        <ele>89</ele>
        <time>2011-02-20T08:12:39Z</time>
      </trkpt>
      <trkpt lat="48.69861" lon="-3.40347">
        <ele>89</ele>
        <time>2011-02-20T08:12:40Z</time>
      </trkpt>
      <trkpt lat="48.69854" lon="-3.4035">
        <ele>89</ele>
        <time>2011-02-20T08:12:41Z</time>
      </trkpt>
      <trkpt lat="48.69847" lon="-3.40353">
        <ele>90</ele>
        <time>2011-02-20T08:12:42Z</time>
      </trkpt>
      <trkpt lat="48.6984" lon="-3.40356">
        <ele>90</ele>
        <time>2011-02-20T08:12:43Z</time>
      </trkpt>
      <trkpt lat="48.69834" lon="-3.4036">
        <ele>90</ele>
        <time>2011-02-20T08:12:44Z</time>
      </trkpt>
      <trkpt lat="48.69827" lon="-3.40364">
        <ele>90</ele>
        <time>2011-02-20T08:12:45Z</time>
      </trkpt>
      <trkpt lat="48.69821" lon="-3.40369">
        <ele>90</ele>
        <time>2011-02-20T08:12:46Z</time>
      </trkpt>
      <trkpt lat="48.69815" lon="-3.40373">
        <ele>90</ele>
        <time>2011-02-20T08:12:47Z</time>
      </trkpt>
      <trkpt lat="48.69809" lon="-3.40377">
        <ele>90</ele>
        <time>2011-02-20T08:12:48Z</time>
      </trkpt>
      <trkpt lat="48.69802" lon="-3.40381">
        <ele>90</ele>
        <time>2011-02-20T08:12:49Z</time>
      </trkpt>
      <trkpt lat="48.69796" lon="-3.40384">
        <ele>90</ele>
        <time>2011-02-20T08:12:50Z</time>
      </trkpt>
      <trkpt lat="48.6979" lon="-3.40387">
        <ele>90</ele>
        <time>2011-02-20T08:12:51Z</time>
      </trkpt>
      <trkpt lat="48.69783" lon="-3.4039">
        <ele>90</ele>
        <time>2011-02-20T08:12:52Z</time>
      </trkpt>
      <trkpt lat="48.69776" lon="-3.40392">
        <ele>90</ele>
        <time>2011-02-20T08:12:53Z</time>
      </trkpt>
      <trkpt lat="48.69768" lon="-3.40395">
        <ele>90</ele>
        <time>2011-02-20T08:12:54Z</time>
      </trkpt>
      <trkpt lat="48.69761" lon="-3.40396">
        <ele>90</ele>
        <time>2011-02-20T08:12:55Z</time>
      </trkpt>
      <trkpt lat="48.69753" lon="-3.40398">
        <ele>90</ele>
        <time>2011-02-20T08:12:56Z</time>
      </trkpt>
      <trkpt lat="48.69746" lon="-3.404">
        <ele>90</ele>
        <time>2011-02-20T08:12:57Z</time>
      </trkpt>
      <trkpt lat="48.69738" lon="-3.40402">
        <ele>90</ele>
        <time>2011-02-20T08:12:58Z</time>
      </trkpt>
      <trkpt lat="48.6973" lon="-3.40403">
        <ele>90</ele>
        <time>2011-02-20T08:12:59Z</time>
      </trkpt>
      <trkpt lat="48.69721" lon="-3.40404">
        <ele>90</ele>
        <time>2011-02-20T08:13:00Z</time>
      </trkpt>
      <trkpt lat="48.69713" lon="-3.40404">
        <ele>90</ele>
        <time>2011-02-20T08:13:01Z</time>
      </trkpt>
      <trkpt lat="48.69704" lon="-3.40404">
        <ele>90</ele>
        <time>2011-02-20T08:13:02Z</time>
      </trkpt>
      <trkpt lat="48.69696" lon="-3.40403">
        <ele>90</ele>
        <time>2011-02-20T08:13:03Z</time>
      </trkpt>
      <trkpt lat="48.69687" lon="-3.40403">
        <ele>90</ele>
        <time>2011-02-20T08:13:04Z</time>
      </trkpt>
      <trkpt lat="48.69679" lon="-3.40403">
        <ele>90</ele>
        <time>2011-02-20T08:13:05Z</time>
      </trkpt>
      <trkpt lat="48.69671" lon="-3.40403">
        <ele>90</ele>
        <time>2011-02-20T08:13:06Z</time>
      </trkpt>
      <trkpt lat="48.69663" lon="-3.40404">
        <ele>90</ele>
        <time>2011-02-20T08:13:07Z</time>
      </trkpt>
      <trkpt lat="48.69655" lon="-3.40405">
        <ele>90</ele>
        <time>2011-02-20T08:13:08Z</time>
      </trkpt>
      <trkpt lat="48.69648" lon="-3.40406">
        <ele>90</ele>
        <time>2011-02-20T08:13:09Z</time>
      </trkpt>
      <trkpt lat="48.6964" lon="-3.40407">
        <ele>90</ele>
        <time>2011-02-20T08:13:10Z</time>
      </trkpt>
      <trkpt lat="48.69633" lon="-3.40409">
        <ele>90</ele>
        <time>2011-02-20T08:13:11Z</time>
      </trkpt>
      <trkpt lat="48.69625" lon="-3.40409">
        <ele>90</ele>
        <time>2011-02-20T08:13:12Z</time>
      </trkpt>
      <trkpt lat="48.69618" lon="-3.4041">
        <ele>90</ele>
        <time>2011-02-20T08:13:13Z</time>
      </trkpt>
      <trkpt lat="48.69611" lon="-3.4041">
        <ele>90</ele>
        <time>2011-02-20T08:13:14Z</time>
      </trkpt>
      <trkpt lat="48.69604" lon="-3.4041">
        <ele>90</ele>
        <time>2011-02-20T08:13:15Z</time>
      </trkpt>
      <trkpt lat="48.69596" lon="-3.4041">
        <ele>90</ele>
        <time>2011-02-20T08:13:16Z</time>
      </trkpt>
      <trkpt lat="48.69589" lon="-3.40408">
        <ele>90</ele>
        <time>2011-02-20T08:13:17Z</time>
      </trkpt>
      <trkpt lat="48.69582" lon="-3.40406">
        <ele>90</ele>
        <time>2011-02-20T08:13:18Z</time>
      </trkpt>
      <trkpt lat="48.69575" lon="-3.40404">
        <ele>90</ele>
        <time>2011-02-20T08:13:19Z</time>
      </trkpt>
      <trkpt lat="48.69567" lon="-3.40402">
        <ele>90</ele>
        <time>2011-02-20T08:13:20Z</time>
      </trkpt>
      <trkpt lat="48.6956" lon="-3.404">
        <ele>89</ele>
        <time>2011-02-20T08:13:21Z</time>
      </trkpt>
      <trkpt lat="48.69552" lon="-3.40397">
        <ele>89</ele>
        <time>2011-02-20T08:13:22Z</time>
      </trkpt>
      <trkpt lat="48.69544" lon="-3.40395">
        <ele>89</ele>
        <time>2011-02-20T08:13:23Z</time>
      </trkpt>
      <trkpt lat="48.69537" lon="-3.40392">
        <ele>89</ele>
        <time>2011-02-20T08:13:24Z</time>
      </trkpt>
      <trkpt lat="48.69529" lon="-3.4039">
        <ele>89</ele>
        <time>2011-02-20T08:13:25Z</time>
      </trkpt>
      <trkpt lat="48.69522" lon="-3.40388">
        <ele>88</ele>
        <time>2011-02-20T08:13:26Z</time>
      </trkpt>
      <trkpt lat="48.69515" lon="-3.40386">
        <ele>88</ele>
        <time>2011-02-20T08:13:27Z</time>
      </trkpt>
      <trkpt lat="48.69507" lon="-3.40384">
        <ele>88</ele>
        <time>2011-02-20T08:13:28Z</time>
      </trkpt>
      <trkpt lat="48.695" lon="-3.40382">
        <ele>88</ele>
        <time>2011-02-20T08:13:29Z</time>
      </trkpt>
      <trkpt lat="48.69492" lon="-3.4038">
        <ele>88</ele>
        <time>2011-02-20T08:13:30Z</time>
      </trkpt>
      <trkpt lat="48.69485" lon="-3.40379">
        <ele>88</ele>
        <time>2011-02-20T08:13:31Z</time>
      </trkpt>
      <trkpt lat="48.69478" lon="-3.40378">
        <ele>88</ele>
        <time>2011-02-20T08:13:32Z</time>
      </trkpt>
      <trkpt lat="48.69471" lon="-3.40377">
        <ele>88</ele>
        <time>2011-02-20T08:13:33Z</time>
      </trkpt>
      <trkpt lat="48.69463" lon="-3.40377">
        <ele>88</ele>
        <time>2011-02-20T08:13:34Z</time>
      </trkpt>
      <trkpt lat="48.69456" lon="-3.40376">
        <ele>88</ele>
        <time>2011-02-20T08:13:35Z</time>
      </trkpt>
      <trkpt lat="48.69449" lon="-3.40376">
        <ele>88</ele>
        <time>2011-02-20T08:13:36Z</time>
      </trkpt>
      <trkpt lat="48.69442" lon="-3.40376">
        <ele>88</ele>
        <time>2011-02-20T08:13:37Z</time>
      </trkpt>
      <trkpt lat="48.69435" lon="-3.40376">
        <ele>88</ele>
        <time>2011-02-20T08:13:38Z</time>
      </trkpt>
      <trkpt lat="48.69428" lon="-3.40376">
        <ele>88</ele>
        <time>2011-02-20T08:13:39Z</time>
      </trkpt>
      <trkpt lat="48.69421" lon="-3.40375">
        <ele>88</ele>
        <time>2011-02-20T08:13:40Z</time>
      </trkpt>
      <trkpt lat="48.69414" lon="-3.40374">
        <ele>87</ele>
        <time>2011-02-20T08:13:41Z</time>
      </trkpt>
      <trkpt lat="48.69407" lon="-3.40374">
        <ele>87</ele>
        <time>2011-02-20T08:13:42Z</time>
      </trkpt>
      <trkpt lat="48.694" lon="-3.40373">
        <ele>87</ele>
        <time>2011-02-20T08:13:43Z</time>
      </trkpt>
      <trkpt lat="48.69393" lon="-3.40372">
        <ele>87</ele>
        <time>2011-02-20T08:13:44Z</time>
      </trkpt>
      <trkpt lat="48.69386" lon="-3.4037">
        <ele>87</ele>
        <time>2011-02-20T08:13:45Z</time>
      </trkpt>
      <trkpt lat="48.69379" lon="-3.40368">
        <ele>87</ele>
        <time>2011-02-20T08:13:46Z</time>
      </trkpt>
      <trkpt lat="48.69372" lon="-3.40365">
        <ele>87</ele>
        <time>2011-02-20T08:13:47Z</time>
      </trkpt>
      <trkpt lat="48.69365" lon="-3.40362">
        <ele>86</ele>
        <time>2011-02-20T08:13:48Z</time>
      </trkpt>
      <trkpt lat="48.69358" lon="-3.40359">
        <ele>86</ele>
        <time>2011-02-20T08:13:49Z</time>
      </trkpt>
      <trkpt lat="48.69351" lon="-3.40356">
        <ele>86</ele>
        <time>2011-02-20T08:13:50Z</time>
      </trkpt>
      <trkpt lat="48.69344" lon="-3.40352">
        <ele>86</ele>
        <time>2011-02-20T08:13:51Z</time>
      </trkpt>
      <trkpt lat="48.69338" lon="-3.40348">
        <ele>86</ele>
        <time>2011-02-20T08:13:52Z</time>
      </trkpt>
      <trkpt lat="48.69331" lon="-3.40344">
        <ele>86</ele>
        <time>2011-02-20T08:13:53Z</time>
      </trkpt>
      <trkpt lat="48.69324" lon="-3.40339">
        <ele>86</ele>
        <time>2011-02-20T08:13:54Z</time>
      </trkpt>
      <trkpt lat="48.69317" lon="-3.40335">
        <ele>85</ele>
        <time>2011-02-20T08:13:55Z</time>
      </trkpt>
      <trkpt lat="48.6931" lon="-3.40331">
        <ele>85</ele>
        <time>2011-02-20T08:13:56Z</time>
      </trkpt>
      <trkpt lat="48.69303" lon="-3.40326">
        <ele>85</ele>
        <time>2011-02-20T08:13:57Z</time>
      </trkpt>
      <trkpt lat="48.69296" lon="-3.40321">
        <ele>85</ele>
        <time>2011-02-20T08:13:58Z</time>
      </trkpt>
      <trkpt lat="48.69289" lon="-3.40316">
        <ele>85</ele>
        <time>2011-02-20T08:13:59Z</time>
      </trkpt>
      <trkpt lat="48.69283" lon="-3.4031">
        <ele>85</ele>
        <time>2011-02-20T08:14:00Z</time>
      </trkpt>
      <trkpt lat="48.69276" lon="-3.40303">
        <ele>85</ele>
        <time>2011-02-20T08:14:01Z</time>
      </trkpt>
      <trkpt lat="48.6927" lon="-3.40296">
        <ele>85</ele>
        <time>2011-02-20T08:14:02Z</time>
      </trkpt>
      <trkpt lat="48.69264" lon="-3.40289">
        <ele>84</ele>
        <time>2011-02-20T08:14:03Z</time>
      </trkpt>
      <trkpt lat="48.69258" lon="-3.40283">
        <ele>84</ele>
        <time>2011-02-20T08:14:04Z</time>
      </trkpt>
      <trkpt lat="48.69252" lon="-3.40276">
        <ele>84</ele>
        <time>2011-02-20T08:14:05Z</time>
      </trkpt>
      <trkpt lat="48.69245" lon="-3.4027">
        <ele>84</ele>
        <time>2011-02-20T08:14:06Z</time>
      </trkpt>
      <trkpt lat="48.69239" lon="-3.40263">
        <ele>84</ele>
        <time>2011-02-20T08:14:07Z</time>
      </trkpt>
      <trkpt lat="48.69233" lon="-3.40256">
        <ele>83</ele>
        <time>2011-02-20T08:14:08Z</time>
      </trkpt>
      <trkpt lat="48.69227" lon="-3.40249">
        <ele>83</ele>
        <time>2011-02-20T08:14:09Z</time>
      </trkpt>
      <trkpt lat="48.69221" lon="-3.40243">
        <ele>83</ele>
        <time>2011-02-20T08:14:10Z</time>
      </trkpt>
      <trkpt lat="48.69214" lon="-3.40236">
        <ele>83</ele>
        <time>2011-02-20T08:14:11Z</time>
      </trkpt>
      <trkpt lat="48.69208" lon="-3.40229">
        <ele>82</ele>
        <time>2011-02-20T08:14:12Z</time>
      </trkpt>
      <trkpt lat="48.69201" lon="-3.40223">
        <ele>82</ele>
        <time>2011-02-20T08:14:13Z</time>
      </trkpt>
      <trkpt lat="48.69194" lon="-3.40216">
        <ele>82</ele>
        <time>2011-02-20T08:14:14Z</time>
      </trkpt>
      <trkpt lat="48.69187" lon="-3.4021">
        <ele>81</ele>
        <time>2011-02-20T08:14:15Z</time>
      </trkpt>
      <trkpt lat="48.6918" lon="-3.40204">
        <ele>81</ele>
        <time>2011-02-20T08:14:16Z</time>
      </trkpt>
      <trkpt lat="48.69172" lon="-3.40199">
        <ele>81</ele>
        <time>2011-02-20T08:14:17Z</time>
      </trkpt>
      <trkpt lat="48.69165" lon="-3.40194">
        <ele>80</ele>
        <time>2011-02-20T08:14:18Z</time>
      </trkpt>
      <trkpt lat="48.69157" lon="-3.40189">
        <ele>80</ele>
        <time>2011-02-20T08:14:19Z</time>
      </trkpt>
      <trkpt lat="48.6915" lon="-3.40183">
        <ele>80</ele>
        <time>2011-02-20T08:14:20Z</time>
      </trkpt>
      <trkpt lat="48.69143" lon="-3.40178">
        <ele>80</ele>
        <time>2011-02-20T08:14:21Z</time>
      </trkpt>
      <trkpt lat="48.69136" lon="-3.40173">
        <ele>80</ele>
        <time>2011-02-20T08:14:22Z</time>
      </trkpt>
      <trkpt lat="48.69129" lon="-3.40167">
        <ele>80</ele>
        <time>2011-02-20T08:14:23Z</time>
      </trkpt>
      <trkpt lat="48.69122" lon="-3.40162">
        <ele>80</ele>
        <time>2011-02-20T08:14:24Z</time>
      </trkpt>
      <trkpt lat="48.69116" lon="-3.40157">
        <ele>79</ele>
        <time>2011-02-20T08:14:25Z</time>
      </trkpt>
      <trkpt lat="48.69109" lon="-3.40151">
        <ele>79</ele>
        <time>2011-02-20T08:14:26Z</time>
      </trkpt>
      <trkpt lat="48.69102" lon="-3.40145">
        <ele>79</ele>
        <time>2011-02-20T08:14:27Z</time>
      </trkpt>
      <trkpt lat="48.69096" lon="-3.4014">
        <ele>79</ele>
        <time>2011-02-20T08:14:28Z</time>
      </trkpt>
      <trkpt lat="48.69089" lon="-3.40134">
        <ele>79</ele>
        <time>2011-02-20T08:14:29Z</time>
      </trkpt>
      <trkpt lat="48.69083" lon="-3.40128">
        <ele>78</ele>
        <time>2011-02-20T08:14:30Z</time>
      </trkpt>
      <trkpt lat="48.69077" lon="-3.40122">
        <ele>78</ele>
        <time>2011-02-20T08:14:31Z</time>
      </trkpt>
      <trkpt lat="48.6907" lon="-3.40115">
        <ele>78</ele>
        <time>2011-02-20T08:14:32Z</time>
      </trkpt>
      <trkpt lat="48.69064" lon="-3.40109">
        <ele>78</ele>
        <time>2011-02-20T08:14:33Z</time>
      </trkpt>
      <trkpt lat="48.69057" lon="-3.40103">
        <ele>78</ele>
        <time>2011-02-20T08:14:34Z</time>
      </trkpt>
      <trkpt lat="48.69051" lon="-3.40097">
        <ele>78</ele>
        <time>2011-02-20T08:14:35Z</time>
      </trkpt>
      <trkpt lat="48.69044" lon="-3.40091">
        <ele>78</ele>
        <time>2011-02-20T08:14:36Z</time>
      </trkpt>
      <trkpt lat="48.69038" lon="-3.40085">
        <ele>78</ele>
        <time>2011-02-20T08:14:37Z</time>
      </trkpt>
      <trkpt lat="48.69031" lon="-3.40079">
        <ele>77</ele>
        <time>2011-02-20T08:14:38Z</time>
      </trkpt>
      <trkpt lat="48.69024" lon="-3.40074">
        <ele>77</ele>
        <time>2011-02-20T08:14:39Z</time>
      </trkpt>
      <trkpt lat="48.69017" lon="-3.40069">
        <ele>77</ele>
        <time>2011-02-20T08:14:40Z</time>
      </trkpt>
      <trkpt lat="48.6901" lon="-3.40064">
        <ele>77</ele>
        <time>2011-02-20T08:14:41Z</time>
      </trkpt>
      <trkpt lat="48.69003" lon="-3.4006">
        <ele>77</ele>
        <time>2011-02-20T08:14:42Z</time>
      </trkpt>
      <trkpt lat="48.68996" lon="-3.40056">
        <ele>77</ele>
        <time>2011-02-20T08:14:43Z</time>
      </trkpt>
      <trkpt lat="48.68988" lon="-3.40053">
        <ele>77</ele>
        <time>2011-02-20T08:14:44Z</time>
      </trkpt>
      <trkpt lat="48.68981" lon="-3.4005">
        <ele>77</ele>
        <time>2011-02-20T08:14:45Z</time>
      </trkpt>
      <trkpt lat="48.68973" lon="-3.40046">
        <ele>77</ele>
        <time>2011-02-20T08:14:46Z</time>
      </trkpt>
      <trkpt lat="48.68966" lon="-3.40043">
        <ele>77</ele>
        <time>2011-02-20T08:14:47Z</time>
      </trkpt>
      <trkpt lat="48.68958" lon="-3.4004">
        <ele>77</ele>
        <time>2011-02-20T08:14:48Z</time>
      </trkpt>
      <trkpt lat="48.68951" lon="-3.40038">
        <ele>77</ele>
        <time>2011-02-20T08:14:49Z</time>
      </trkpt>
      <trkpt lat="48.68944" lon="-3.40035">
        <ele>77</ele>
        <time>2011-02-20T08:14:50Z</time>
      </trkpt>
      <trkpt lat="48.68937" lon="-3.40033">
        <ele>77</ele>
        <time>2011-02-20T08:14:51Z</time>
      </trkpt>
      <trkpt lat="48.6893" lon="-3.40031">
        <ele>77</ele>
        <time>2011-02-20T08:14:52Z</time>
      </trkpt>
      <trkpt lat="48.68923" lon="-3.40029">
        <ele>77</ele>
        <time>2011-02-20T08:14:53Z</time>
      </trkpt>
      <trkpt lat="48.68916" lon="-3.40027">
        <ele>77</ele>
        <time>2011-02-20T08:14:54Z</time>
      </trkpt>
      <trkpt lat="48.68909" lon="-3.40026">
        <ele>77</ele>
        <time>2011-02-20T08:14:55Z</time>
      </trkpt>
      <trkpt lat="48.68902" lon="-3.40025">
        <ele>77</ele>
        <time>2011-02-20T08:14:56Z</time>
      </trkpt>
      <trkpt lat="48.68895" lon="-3.40023">
        <ele>77</ele>
        <time>2011-02-20T08:14:57Z</time>
      </trkpt>
      <trkpt lat="48.68888" lon="-3.40022">
        <ele>77</ele>
        <time>2011-02-20T08:14:58Z</time>
      </trkpt>
      <trkpt lat="48.68881" lon="-3.40022">
        <ele>77</ele>
        <time>2011-02-20T08:14:59Z</time>
      </trkpt>
      <trkpt lat="48.68874" lon="-3.40021">
        <ele>77</ele>
        <time>2011-02-20T08:15:00Z</time>
      </trkpt>
      <trkpt lat="48.68867" lon="-3.4002">
        <ele>77</ele>
        <time>2011-02-20T08:15:01Z</time>
      </trkpt>
      <trkpt lat="48.6886" lon="-3.4002">
        <ele>77</ele>
        <time>2011-02-20T08:15:02Z</time>
      </trkpt>
      <trkpt lat="48.68854" lon="-3.40019">
        <ele>77</ele>
        <time>2011-02-20T08:15:03Z</time>
      </trkpt>
      <trkpt lat="48.68847" lon="-3.40018">
        <ele>77</ele>
        <time>2011-02-20T08:15:04Z</time>
      </trkpt>
      <trkpt lat="48.6884" lon="-3.40017">
        <ele>77</ele>
        <time>2011-02-20T08:15:05Z</time>
      </trkpt>
      <trkpt lat="48.68834" lon="-3.40015">
        <ele>76</ele>
        <time>2011-02-20T08:15:06Z</time>
      </trkpt>
      <trkpt lat="48.68828" lon="-3.40013">
        <ele>76</ele>
        <time>2011-02-20T08:15:07Z</time>
      </trkpt>
      <trkpt lat="48.68821" lon="-3.40012">
        <ele>76</ele>
        <time>2011-02-20T08:15:08Z</time>
      </trkpt>
      <trkpt lat="48.68815" lon="-3.40009">
        <ele>76</ele>
        <time>2011-02-20T08:15:09Z</time>
      </trkpt>
      <trkpt lat="48.68809" lon="-3.40008">
        <ele>76</ele>
        <time>2011-02-20T08:15:10Z</time>
      </trkpt>
      <trkpt lat="48.68803" lon="-3.40005">
        <ele>76</ele>
        <time>2011-02-20T08:15:11Z</time>
      </trkpt>
      <trkpt lat="48.68796" lon="-3.40003">
        <ele>76</ele>
        <time>2011-02-20T08:15:12Z</time>
      </trkpt>
      <trkpt lat="48.6879" lon="-3.40001">
        <ele>76</ele>
        <time>2011-02-20T08:15:13Z</time>
      </trkpt>
      <trkpt lat="48.68783" lon="-3.39999">
        <ele>76</ele>
        <time>2011-02-20T08:15:14Z</time>
      </trkpt>
      <trkpt lat="48.68776" lon="-3.39997">
        <ele>76</ele>
        <time>2011-02-20T08:15:15Z</time>
      </trkpt>
      <trkpt lat="48.68769" lon="-3.39994">
        <ele>75</ele>
        <time>2011-02-20T08:15:16Z</time>
      </trkpt>
      <trkpt lat="48.68763" lon="-3.39992">
        <ele>75</ele>
        <time>2011-02-20T08:15:17Z</time>
      </trkpt>
      <trkpt lat="48.68756" lon="-3.39989">
        <ele>75</ele>
        <time>2011-02-20T08:15:18Z</time>
      </trkpt>
      <trkpt lat="48.68749" lon="-3.39987">
        <ele>75</ele>
        <time>2011-02-20T08:15:19Z</time>
      </trkpt>
      <trkpt lat="48.68742" lon="-3.39985">
        <ele>75</ele>
        <time>2011-02-20T08:15:20Z</time>
      </trkpt>
      <trkpt lat="48.68736" lon="-3.39983">
        <ele>75</ele>
        <time>2011-02-20T08:15:21Z</time>
      </trkpt>
      <trkpt lat="48.68729" lon="-3.39981">
        <ele>75</ele>
        <time>2011-02-20T08:15:22Z</time>
      </trkpt>
      <trkpt lat="48.68722" lon="-3.3998">
        <ele>75</ele>
        <time>2011-02-20T08:15:23Z</time>
      </trkpt>
      <trkpt lat="48.68716" lon="-3.39978">
        <ele>75</ele>
        <time>2011-02-20T08:15:24Z</time>
      </trkpt>
      <trkpt lat="48.6871" lon="-3.39976">
        <ele>75</ele>
        <time>2011-02-20T08:15:25Z</time>
      </trkpt>
      <trkpt lat="48.68703" lon="-3.39974">
        <ele>75</ele>
        <time>2011-02-20T08:15:26Z</time>
      </trkpt>
      <trkpt lat="48.68696" lon="-3.39972">
        <ele>75</ele>
        <time>2011-02-20T08:15:27Z</time>
      </trkpt>
      <trkpt lat="48.68689" lon="-3.39969">
        <ele>75</ele>
        <time>2011-02-20T08:15:28Z</time>
      </trkpt>
      <trkpt lat="48.68682" lon="-3.39967">
        <ele>75</ele>
        <time>2011-02-20T08:15:29Z</time>
      </trkpt>
      <trkpt lat="48.68676" lon="-3.39965">
        <ele>75</ele>
        <time>2011-02-20T08:15:30Z</time>
      </trkpt>
      <trkpt lat="48.68668" lon="-3.39962">
        <ele>75</ele>
        <time>2011-02-20T08:15:31Z</time>
      </trkpt>
      <trkpt lat="48.68662" lon="-3.3996">
        <ele>75</ele>
        <time>2011-02-20T08:15:32Z</time>
      </trkpt>
      <trkpt lat="48.68655" lon="-3.39957">
        <ele>75</ele>
        <time>2011-02-20T08:15:33Z</time>
      </trkpt>
      <trkpt lat="48.68647" lon="-3.39955">
        <ele>75</ele>
        <time>2011-02-20T08:15:34Z</time>
      </trkpt>
      <trkpt lat="48.6864" lon="-3.39952">
        <ele>75</ele>
        <time>2011-02-20T08:15:35Z</time>
      </trkpt>
      <trkpt lat="48.68633" lon="-3.3995">
        <ele>75</ele>
        <time>2011-02-20T08:15:36Z</time>
      </trkpt>
      <trkpt lat="48.68625" lon="-3.39948">
        <ele>75</ele>
        <time>2011-02-20T08:15:37Z</time>
      </trkpt>
      <trkpt lat="48.68618" lon="-3.39946">
        <ele>75</ele>
        <time>2011-02-20T08:15:38Z</time>
      </trkpt>
      <trkpt lat="48.6861" lon="-3.39945">
        <ele>75</ele>
        <time>2011-02-20T08:15:39Z</time>
      </trkpt>
      <trkpt lat="48.68603" lon="-3.39944">
        <ele>75</ele>
        <time>2011-02-20T08:15:40Z</time>
      </trkpt>
      <trkpt lat="48.68595" lon="-3.39944">
        <ele>75</ele>
        <time>2011-02-20T08:15:41Z</time>
      </trkpt>
      <trkpt lat="48.68588" lon="-3.39945">
        <ele>75</ele>
        <time>2011-02-20T08:15:42Z</time>
      </trkpt>
      <trkpt lat="48.68581" lon="-3.39946">
        <ele>75</ele>
        <time>2011-02-20T08:15:43Z</time>
      </trkpt>
      <trkpt lat="48.68575" lon="-3.39947">
        <ele>75</ele>
        <time>2011-02-20T08:15:44Z</time>
      </trkpt>
      <trkpt lat="48.68567" lon="-3.39948">
        <ele>75</ele>
        <time>2011-02-20T08:15:45Z</time>
      </trkpt>
      <trkpt lat="48.6856" lon="-3.39949">
        <ele>75</ele>
        <time>2011-02-20T08:15:46Z</time>
      </trkpt>
      <trkpt lat="48.68554" lon="-3.3995">
        <ele>75</ele>
        <time>2011-02-20T08:15:47Z</time>
      </trkpt>
      <trkpt lat="48.68547" lon="-3.39952">
        <ele>75</ele>
        <time>2011-02-20T08:15:48Z</time>
      </trkpt>
      <trkpt lat="48.6854" lon="-3.39954">
        <ele>75</ele>
        <time>2011-02-20T08:15:49Z</time>
      </trkpt>
      <trkpt lat="48.68533" lon="-3.39956">
        <ele>75</ele>
        <time>2011-02-20T08:15:50Z</time>
      </trkpt>
      <trkpt lat="48.68526" lon="-3.39959">
        <ele>75</ele>
        <time>2011-02-20T08:15:51Z</time>
      </trkpt>
      <trkpt lat="48.68519" lon="-3.39961">
        <ele>75</ele>
        <time>2011-02-20T08:15:52Z</time>
      </trkpt>
      <trkpt lat="48.68513" lon="-3.39963">
        <ele>75</ele>
        <time>2011-02-20T08:15:53Z</time>
      </trkpt>
      <trkpt lat="48.68506" lon="-3.39964">
        <ele>75</ele>
        <time>2011-02-20T08:15:54Z</time>
      </trkpt>
      <trkpt lat="48.68499" lon="-3.39965">
        <ele>75</ele>
        <time>2011-02-20T08:15:55Z</time>
      </trkpt>
      <trkpt lat="48.68493" lon="-3.39967">
        <ele>75</ele>
        <time>2011-02-20T08:15:56Z</time>
      </trkpt>
      <trkpt lat="48.68486" lon="-3.39967">
        <ele>75</ele>
        <time>2011-02-20T08:15:57Z</time>
      </trkpt>
      <trkpt lat="48.68479" lon="-3.39967">
        <ele>75</ele>
        <time>2011-02-20T08:15:58Z</time>
      </trkpt>
      <trkpt lat="48.68472" lon="-3.39966">
        <ele>75</ele>
        <time>2011-02-20T08:15:59Z</time>
      </trkpt>
      <trkpt lat="48.68466" lon="-3.39965">
        <ele>75</ele>
        <time>2011-02-20T08:16:00Z</time>
      </trkpt>
      <trkpt lat="48.68459" lon="-3.39962">
        <ele>75</ele>
        <time>2011-02-20T08:16:01Z</time>
      </trkpt>
      <trkpt lat="48.68453" lon="-3.39959">
        <ele>75</ele>
        <time>2011-02-20T08:16:02Z</time>
      </trkpt>
      <trkpt lat="48.68447" lon="-3.39955">
        <ele>75</ele>
        <time>2011-02-20T08:16:03Z</time>
      </trkpt>
      <trkpt lat="48.68441" lon="-3.3995">
        <ele>75</ele>
        <time>2011-02-20T08:16:04Z</time>
      </trkpt>
      <trkpt lat="48.68436" lon="-3.39945">
        <ele>75</ele>
        <time>2011-02-20T08:16:05Z</time>
      </trkpt>
      <trkpt lat="48.6843" lon="-3.39939">
        <ele>75</ele>
        <time>2011-02-20T08:16:06Z</time>
      </trkpt>
      <trkpt lat="48.68425" lon="-3.39934">
        <ele>75</ele>
        <time>2011-02-20T08:16:07Z</time>
      </trkpt>
      <trkpt lat="48.68419" lon="-3.39929">
        <ele>75</ele>
        <time>2011-02-20T08:16:08Z</time>
      </trkpt>
      <trkpt lat="48.68413" lon="-3.39924">
        <ele>75</ele>
        <time>2011-02-20T08:16:09Z</time>
      </trkpt>
      <trkpt lat="48.68408" lon="-3.39919">
        <ele>75</ele>
        <time>2011-02-20T08:16:10Z</time>
      </trkpt>
      <trkpt lat="48.68402" lon="-3.39916">
        <ele>75</ele>
        <time>2011-02-20T08:16:11Z</time>
      </trkpt>
      <trkpt lat="48.68397" lon="-3.39912">
        <ele>75</ele>
        <time>2011-02-20T08:16:12Z</time>
      </trkpt>
      <trkpt lat="48.68391" lon="-3.39909">
        <ele>75</ele>
        <time>2011-02-20T08:16:13Z</time>
      </trkpt>
      <trkpt lat="48.68385" lon="-3.39906">
        <ele>75</ele>
        <time>2011-02-20T08:16:14Z</time>
      </trkpt>
      <trkpt lat="48.68378" lon="-3.39903">
        <ele>75</ele>
        <time>2011-02-20T08:16:15Z</time>
      </trkpt>
      <trkpt lat="48.68372" lon="-3.399">
        <ele>75</ele>
        <time>2011-02-20T08:16:16Z</time>
      </trkpt>
      <trkpt lat="48.68365" lon="-3.39897">
        <ele>75</ele>
        <time>2011-02-20T08:16:17Z</time>
      </trkpt>
      <trkpt lat="48.68359" lon="-3.39895">
        <ele>75</ele>
        <time>2011-02-20T08:16:18Z</time>
      </trkpt>
      <trkpt lat="48.68352" lon="-3.39893">
        <ele>75</ele>
        <time>2011-02-20T08:16:19Z</time>
      </trkpt>
      <trkpt lat="48.68346" lon="-3.39891">
        <ele>75</ele>
        <time>2011-02-20T08:16:20Z</time>
      </trkpt>
      <trkpt lat="48.68339" lon="-3.39888">
        <ele>75</ele>
        <time>2011-02-20T08:16:21Z</time>
      </trkpt>
      <trkpt lat="48.68333" lon="-3.39886">
        <ele>75</ele>
        <time>2011-02-20T08:16:22Z</time>
      </trkpt>
      <trkpt lat="48.68326" lon="-3.39883">
        <ele>75</ele>
        <time>2011-02-20T08:16:23Z</time>
      </trkpt>
      <trkpt lat="48.6832" lon="-3.39881">
        <ele>75</ele>
        <time>2011-02-20T08:16:24Z</time>
      </trkpt>
      <trkpt lat="48.68313" lon="-3.39878">
        <ele>75</ele>
        <time>2011-02-20T08:16:25Z</time>
      </trkpt>
      <trkpt lat="48.68306" lon="-3.39875">
        <ele>75</ele>
        <time>2011-02-20T08:16:26Z</time>
      </trkpt>
      <trkpt lat="48.68299" lon="-3.39873">
        <ele>75</ele>
        <time>2011-02-20T08:16:27Z</time>
      </trkpt>
      <trkpt lat="48.68292" lon="-3.3987">
        <ele>75</ele>
        <time>2011-02-20T08:16:28Z</time>
      </trkpt>
      <trkpt lat="48.68285" lon="-3.39867">
        <ele>75</ele>
        <time>2011-02-20T08:16:29Z</time>
      </trkpt>
      <trkpt lat="48.68278" lon="-3.39864">
        <ele>75</ele>
        <time>2011-02-20T08:16:30Z</time>
      </trkpt>
      <trkpt lat="48.68271" lon="-3.39862">
        <ele>75</ele>
        <time>2011-02-20T08:16:31Z</time>
      </trkpt>
      <trkpt lat="48.68263" lon="-3.39859">
        <ele>75</ele>
        <time>2011-02-20T08:16:32Z</time>
      </trkpt>
      <trkpt lat="48.68256" lon="-3.39856">
        <ele>75</ele>
        <time>2011-02-20T08:16:33Z</time>
      </trkpt>
      <trkpt lat="48.68249" lon="-3.39852">
        <ele>75</ele>
        <time>2011-02-20T08:16:34Z</time>
      </trkpt>
      <trkpt lat="48.68242" lon="-3.39848">
        <ele>75</ele>
        <time>2011-02-20T08:16:35Z</time>
      </trkpt>
      <trkpt lat="48.68235" lon="-3.39843">
        <ele>75</ele>
        <time>2011-02-20T08:16:36Z</time>
      </trkpt>
      <trkpt lat="48.68229" lon="-3.39838">
        <ele>75</ele>
        <time>2011-02-20T08:16:37Z</time>
      </trkpt>
      <trkpt lat="48.68222" lon="-3.39832">
        <ele>75</ele>
        <time>2011-02-20T08:16:38Z</time>
      </trkpt>
      <trkpt lat="48.68216" lon="-3.39827">
        <ele>75</ele>
        <time>2011-02-20T08:16:39Z</time>
      </trkpt>
      <trkpt lat="48.68209" lon="-3.3982">
        <ele>75</ele>
        <time>2011-02-20T08:16:40Z</time>
      </trkpt>
      <trkpt lat="48.68203" lon="-3.39813">
        <ele>75</ele>
        <time>2011-02-20T08:16:41Z</time>
      </trkpt>
      <trkpt lat="48.68198" lon="-3.39806">
        <ele>75</ele>
        <time>2011-02-20T08:16:42Z</time>
      </trkpt>
      <trkpt lat="48.68193" lon="-3.39799">
        <ele>75</ele>
        <time>2011-02-20T08:16:43Z</time>
      </trkpt>
      <trkpt lat="48.68187" lon="-3.39792">
        <ele>75</ele>
        <time>2011-02-20T08:16:44Z</time>
      </trkpt>
      <trkpt lat="48.68182" lon="-3.39785">
        <ele>75</ele>
        <time>2011-02-20T08:16:45Z</time>
      </trkpt>
      <trkpt lat="48.68177" lon="-3.39778">
        <ele>75</ele>
        <time>2011-02-20T08:16:46Z</time>
      </trkpt>
      <trkpt lat="48.68171" lon="-3.39772">
        <ele>75</ele>
        <time>2011-02-20T08:16:47Z</time>
      </trkpt>
      <trkpt lat="48.68166" lon="-3.39766">
        <ele>75</ele>
        <time>2011-02-20T08:16:48Z</time>
      </trkpt>
      <trkpt lat="48.6816" lon="-3.39759">
        <ele>75</ele>
        <time>2011-02-20T08:16:49Z</time>
      </trkpt>
      <trkpt lat="48.68154" lon="-3.39753">
        <ele>75</ele>
        <time>2011-02-20T08:16:50Z</time>
      </trkpt>
      <trkpt lat="48.68148" lon="-3.39747">
        <ele>75</ele>
        <time>2011-02-20T08:16:51Z</time>
      </trkpt>
      <trkpt lat="48.68142" lon="-3.39741">
        <ele>75</ele>
        <time>2011-02-20T08:16:52Z</time>
      </trkpt>
      <trkpt lat="48.68135" lon="-3.39735">
        <ele>75</ele>
        <time>2011-02-20T08:16:53Z</time>
      </trkpt>
      <trkpt lat="48.68129" lon="-3.39728">
        <ele>75</ele>
        <time>2011-02-20T08:16:54Z</time>
      </trkpt>
      <trkpt lat="48.68123" lon="-3.39722">
        <ele>75</ele>
        <time>2011-02-20T08:16:55Z</time>
      </trkpt>
      <trkpt lat="48.68117" lon="-3.39717">
        <ele>75</ele>
        <time>2011-02-20T08:16:56Z</time>
      </trkpt>
      <trkpt lat="48.68111" lon="-3.39711">
        <ele>75</ele>
        <time>2011-02-20T08:16:57Z</time>
      </trkpt>
      <trkpt lat="48.68105" lon="-3.39706">
        <ele>75</ele>
        <time>2011-02-20T08:16:58Z</time>
      </trkpt>
      <trkpt lat="48.68099" lon="-3.39701">
        <ele>75</ele>
        <time>2011-02-20T08:16:59Z</time>
      </trkpt>
      <trkpt lat="48.68093" lon="-3.39696">
        <ele>75</ele>
        <time>2011-02-20T08:17:00Z</time>
      </trkpt>
      <trkpt lat="48.68087" lon="-3.39691">
        <ele>75</ele>
        <time>2011-02-20T08:17:01Z</time>
      </trkpt>
      <trkpt lat="48.68081" lon="-3.39686">
        <ele>75</ele>
        <time>2011-02-20T08:17:02Z</time>
      </trkpt>
      <trkpt lat="48.68076" lon="-3.39682">
        <ele>75</ele>
        <time>2011-02-20T08:17:03Z</time>
      </trkpt>
      <trkpt lat="48.6807" lon="-3.39677">
        <ele>75</ele>
        <time>2011-02-20T08:17:04Z</time>
      </trkpt>
      <trkpt lat="48.68064" lon="-3.39672">
        <ele>75</ele>
        <time>2011-02-20T08:17:05Z</time>
      </trkpt>
      <trkpt lat="48.68059" lon="-3.39668">
        <ele>75</ele>
        <time>2011-02-20T08:17:06Z</time>
      </trkpt>
      <trkpt lat="48.68053" lon="-3.39663">
        <ele>75</ele>
        <time>2011-02-20T08:17:07Z</time>
      </trkpt>
      <trkpt lat="48.68047" lon="-3.39658">
        <ele>75</ele>
        <time>2011-02-20T08:17:08Z</time>
      </trkpt>
      <trkpt lat="48.68042" lon="-3.39653">
        <ele>75</ele>
        <time>2011-02-20T08:17:09Z</time>
      </trkpt>
      <trkpt lat="48.68037" lon="-3.39649">
        <ele>75</ele>
        <time>2011-02-20T08:17:10Z</time>
      </trkpt>
      <trkpt lat="48.68031" lon="-3.39645">
        <ele>75</ele>
        <time>2011-02-20T08:17:11Z</time>
      </trkpt>
      <trkpt lat="48.68026" lon="-3.3964">
        <ele>75</ele>
        <time>2011-02-20T08:17:12Z</time>
      </trkpt>
      <trkpt lat="48.68021" lon="-3.39636">
        <ele>75</ele>
        <time>2011-02-20T08:17:13Z</time>
      </trkpt>
      <trkpt lat="48.68016" lon="-3.39631">
        <ele>75</ele>
        <time>2011-02-20T08:17:14Z</time>
      </trkpt>
      <trkpt lat="48.68011" lon="-3.39627">
        <ele>75</ele>
        <time>2011-02-20T08:17:15Z</time>
      </trkpt>
      <trkpt lat="48.68006" lon="-3.39622">
        <ele>75</ele>
        <time>2011-02-20T08:17:16Z</time>
      </trkpt>
      <trkpt lat="48.68001" lon="-3.39618">
        <ele>75</ele>
        <time>2011-02-20T08:17:17Z</time>
      </trkpt>
      <trkpt lat="48.67996" lon="-3.39613">
        <ele>75</ele>
        <time>2011-02-20T08:17:18Z</time>
      </trkpt>
      <trkpt lat="48.67991" lon="-3.39609">
        <ele>75</ele>
        <time>2011-02-20T08:17:19Z</time>
      </trkpt>
      <trkpt lat="48.67986" lon="-3.39605">
        <ele>75</ele>
        <time>2011-02-20T08:17:20Z</time>
      </trkpt>
      <trkpt lat="48.67981" lon="-3.39601">
        <ele>75</ele>
        <time>2011-02-20T08:17:21Z</time>
      </trkpt>
      <trkpt lat="48.67976" lon="-3.39597">
        <ele>75</ele>
        <time>2011-02-20T08:17:22Z</time>
      </trkpt>
      <trkpt lat="48.67971" lon="-3.39594">
        <ele>76</ele>
        <time>2011-02-20T08:17:23Z</time>
      </trkpt>
      <trkpt lat="48.67966" lon="-3.39592">
        <ele>76</ele>
        <time>2011-02-20T08:17:24Z</time>
      </trkpt>
      <trkpt lat="48.6796" lon="-3.3959">
        <ele>76</ele>
        <time>2011-02-20T08:17:25Z</time>
      </trkpt>
      <trkpt lat="48.67955" lon="-3.39588">
        <ele>76</ele>
        <time>2011-02-20T08:17:26Z</time>
      </trkpt>
      <trkpt lat="48.6795" lon="-3.39586">
        <ele>77</ele>
        <time>2011-02-20T08:17:27Z</time>
      </trkpt>
      <trkpt lat="48.67945" lon="-3.39585">
        <ele>77</ele>
        <time>2011-02-20T08:17:28Z</time>
      </trkpt>
      <trkpt lat="48.6794" lon="-3.39584">
        <ele>77</ele>
        <time>2011-02-20T08:17:29Z</time>
      </trkpt>
      <trkpt lat="48.67935" lon="-3.39583">
        <ele>77</ele>
        <time>2011-02-20T08:17:30Z</time>
      </trkpt>
      <trkpt lat="48.67929" lon="-3.39583">
        <ele>78</ele>
        <time>2011-02-20T08:17:31Z</time>
      </trkpt>
      <trkpt lat="48.67924" lon="-3.39582">
        <ele>78</ele>
        <time>2011-02-20T08:17:32Z</time>
      </trkpt>
      <trkpt lat="48.67919" lon="-3.39581">
        <ele>78</ele>
        <time>2011-02-20T08:17:33Z</time>
      </trkpt>
      <trkpt lat="48.67914" lon="-3.39581">
        <ele>78</ele>
        <time>2011-02-20T08:17:34Z</time>
      </trkpt>
      <trkpt lat="48.67908" lon="-3.3958">
        <ele>79</ele>
        <time>2011-02-20T08:17:35Z</time>
      </trkpt>
      <trkpt lat="48.67902" lon="-3.39579">
        <ele>79</ele>
        <time>2011-02-20T08:17:36Z</time>
      </trkpt>
      <trkpt lat="48.67896" lon="-3.39579">
        <ele>79</ele>
        <time>2011-02-20T08:17:37Z</time>
      </trkpt>
      <trkpt lat="48.6789" lon="-3.39578">
        <ele>79</ele>
        <time>2011-02-20T08:17:38Z</time>
      </trkpt>
      <trkpt lat="48.67884" lon="-3.39577">
        <ele>79</ele>
        <time>2011-02-20T08:17:39Z</time>
      </trkpt>
      <trkpt lat="48.67877" lon="-3.39575">
        <ele>79</ele>
        <time>2011-02-20T08:17:40Z</time>
      </trkpt>
      <trkpt lat="48.6787" lon="-3.39575">
        <ele>79</ele>
        <time>2011-02-20T08:17:41Z</time>
      </trkpt>
      <trkpt lat="48.67863" lon="-3.39575">
        <ele>79</ele>
        <time>2011-02-20T08:17:42Z</time>
      </trkpt>
      <trkpt lat="48.67857" lon="-3.39575">
        <ele>79</ele>
        <time>2011-02-20T08:17:43Z</time>
      </trkpt>
      <trkpt lat="48.6785" lon="-3.39575">
        <ele>79</ele>
        <time>2011-02-20T08:17:44Z</time>
      </trkpt>
      <trkpt lat="48.67844" lon="-3.39576">
        <ele>79</ele>
        <time>2011-02-20T08:17:45Z</time>
      </trkpt>
      <trkpt lat="48.67838" lon="-3.39577">
        <ele>79</ele>
        <time>2011-02-20T08:17:46Z</time>
      </trkpt>
      <trkpt lat="48.67831" lon="-3.39577">
        <ele>79</ele>
        <time>2011-02-20T08:17:47Z</time>
      </trkpt>
      <trkpt lat="48.67825" lon="-3.39578">
        <ele>79</ele>
        <time>2011-02-20T08:17:48Z</time>
      </trkpt>
      <trkpt lat="48.67819" lon="-3.39578">
        <ele>79</ele>
        <time>2011-02-20T08:17:49Z</time>
      </trkpt>
      <trkpt lat="48.67812" lon="-3.39578">
        <ele>79</ele>
        <time>2011-02-20T08:17:50Z</time>
      </trkpt>
      <trkpt lat="48.67806" lon="-3.39577">
        <ele>79</ele>
        <time>2011-02-20T08:17:51Z</time>
      </trkpt>
      <trkpt lat="48.678" lon="-3.39576">
        <ele>79</ele>
        <time>2011-02-20T08:17:52Z</time>
      </trkpt>
      <trkpt lat="48.67794" lon="-3.39574">
        <ele>79</ele>
        <time>2011-02-20T08:17:53Z</time>
      </trkpt>
      <trkpt lat="48.67788" lon="-3.39572">
        <ele>79</ele>
        <time>2011-02-20T08:17:54Z</time>
      </trkpt>
      <trkpt lat="48.67783" lon="-3.3957">
        <ele>79</ele>
        <time>2011-02-20T08:17:55Z</time>
      </trkpt>
      <trkpt lat="48.67777" lon="-3.39567">
        <ele>79</ele>
        <time>2011-02-20T08:17:56Z</time>
      </trkpt>
      <trkpt lat="48.67771" lon="-3.39564">
        <ele>79</ele>
        <time>2011-02-20T08:17:57Z</time>
      </trkpt>
      <trkpt lat="48.67766" lon="-3.39561">
        <ele>79</ele>
        <time>2011-02-20T08:17:58Z</time>
      </trkpt>
      <trkpt lat="48.6776" lon="-3.39559">
        <ele>79</ele>
        <time>2011-02-20T08:17:59Z</time>
      </trkpt>
      <trkpt lat="48.67754" lon="-3.39556">
        <ele>79</ele>
        <time>2011-02-20T08:18:00Z</time>
      </trkpt>
      <trkpt lat="48.67748" lon="-3.39553">
        <ele>79</ele>
        <time>2011-02-20T08:18:01Z</time>
      </trkpt>
      <trkpt lat="48.67743" lon="-3.39551">
        <ele>80</ele>
        <time>2011-02-20T08:18:02Z</time>
      </trkpt>
      <trkpt lat="48.67737" lon="-3.39549">
        <ele>80</ele>
        <time>2011-02-20T08:18:03Z</time>
      </trkpt>
      <trkpt lat="48.67731" lon="-3.39547">
        <ele>80</ele>
        <time>2011-02-20T08:18:04Z</time>
      </trkpt>
      <trkpt lat="48.67725" lon="-3.39545">
        <ele>80</ele>
        <time>2011-02-20T08:18:05Z</time>
      </trkpt>
      <trkpt lat="48.67719" lon="-3.39544">
        <ele>80</ele>
        <time>2011-02-20T08:18:06Z</time>
      </trkpt>
      <trkpt lat="48.67713" lon="-3.39542">
        <ele>80</ele>
        <time>2011-02-20T08:18:07Z</time>
      </trkpt>
      <trkpt lat="48.67707" lon="-3.3954">
        <ele>80</ele>
        <time>2011-02-20T08:18:08Z</time>
      </trkpt>
      <trkpt lat="48.67701" lon="-3.39538">
        <ele>80</ele>
        <time>2011-02-20T08:18:09Z</time>
      </trkpt>
      <trkpt lat="48.67695" lon="-3.39536">
        <ele>80</ele>
        <time>2011-02-20T08:18:10Z</time>
      </trkpt>
      <trkpt lat="48.67689" lon="-3.39534">
        <ele>81</ele>
        <time>2011-02-20T08:18:11Z</time>
      </trkpt>
      <trkpt lat="48.67683" lon="-3.39532">
        <ele>81</ele>
        <time>2011-02-20T08:18:12Z</time>
      </trkpt>
      <trkpt lat="48.67677" lon="-3.39529">
        <ele>81</ele>
        <time>2011-02-20T08:18:13Z</time>
      </trkpt>
      <trkpt lat="48.67671" lon="-3.39527">
        <ele>81</ele>
        <time>2011-02-20T08:18:14Z</time>
      </trkpt>
      <trkpt lat="48.67666" lon="-3.39524">
        <ele>81</ele>
        <time>2011-02-20T08:18:15Z</time>
      </trkpt>
      <trkpt lat="48.6766" lon="-3.3952">
        <ele>81</ele>
        <time>2011-02-20T08:18:16Z</time>
      </trkpt>
      <trkpt lat="48.67655" lon="-3.39517">
        <ele>81</ele>
        <time>2011-02-20T08:18:17Z</time>
      </trkpt>
      <trkpt lat="48.67649" lon="-3.39513">
        <ele>81</ele>
        <time>2011-02-20T08:18:18Z</time>
      </trkpt>
      <trkpt lat="48.67644" lon="-3.3951">
        <ele>82</ele>
        <time>2011-02-20T08:18:19Z</time>
      </trkpt>
      <trkpt lat="48.67638" lon="-3.39507">
        <ele>82</ele>
        <time>2011-02-20T08:18:20Z</time>
      </trkpt>
      <trkpt lat="48.67633" lon="-3.39503">
        <ele>82</ele>
        <time>2011-02-20T08:18:21Z</time>
      </trkpt>
      <trkpt lat="48.67627" lon="-3.39499">
        <ele>82</ele>
        <time>2011-02-20T08:18:22Z</time>
      </trkpt>
      <trkpt lat="48.67621" lon="-3.39496">
        <ele>82</ele>
        <time>2011-02-20T08:18:23Z</time>
      </trkpt>
      <trkpt lat="48.67616" lon="-3.39492">
        <ele>82</ele>
        <time>2011-02-20T08:18:24Z</time>
      </trkpt>
      <trkpt lat="48.6761" lon="-3.39489">
        <ele>82</ele>
        <time>2011-02-20T08:18:25Z</time>
      </trkpt>
      <trkpt lat="48.67604" lon="-3.39486">
        <ele>82</ele>
        <time>2011-02-20T08:18:26Z</time>
      </trkpt>
      <trkpt lat="48.67598" lon="-3.39482">
        <ele>82</ele>
        <time>2011-02-20T08:18:27Z</time>
      </trkpt>
      <trkpt lat="48.67592" lon="-3.39478">
        <ele>82</ele>
        <time>2011-02-20T08:18:28Z</time>
      </trkpt>
      <trkpt lat="48.67586" lon="-3.39475">
        <ele>82</ele>
        <time>2011-02-20T08:18:29Z</time>
      </trkpt>
      <trkpt lat="48.6758" lon="-3.39472">
        <ele>82</ele>
        <time>2011-02-20T08:18:30Z</time>
      </trkpt>
      <trkpt lat="48.67574" lon="-3.39469">
        <ele>82</ele>
        <time>2011-02-20T08:18:31Z</time>
      </trkpt>
      <trkpt lat="48.67567" lon="-3.39466">
        <ele>82</ele>
        <time>2011-02-20T08:18:32Z</time>
      </trkpt>
      <trkpt lat="48.67561" lon="-3.39464">
        <ele>82</ele>
        <time>2011-02-20T08:18:33Z</time>
      </trkpt>
      <trkpt lat="48.67555" lon="-3.39461">
        <ele>82</ele>
        <time>2011-02-20T08:18:34Z</time>
      </trkpt>
      <trkpt lat="48.67549" lon="-3.39459">
        <ele>82</ele>
        <time>2011-02-20T08:18:35Z</time>
      </trkpt>
      <trkpt lat="48.67543" lon="-3.39457">
        <ele>82</ele>
        <time>2011-02-20T08:18:36Z</time>
      </trkpt>
      <trkpt lat="48.67537" lon="-3.39456">
        <ele>82</ele>
        <time>2011-02-20T08:18:37Z</time>
      </trkpt>
      <trkpt lat="48.6753" lon="-3.39454">
        <ele>82</ele>
        <time>2011-02-20T08:18:38Z</time>
      </trkpt>
      <trkpt lat="48.67524" lon="-3.39453">
        <ele>82</ele>
        <time>2011-02-20T08:18:39Z</time>
      </trkpt>
      <trkpt lat="48.67518" lon="-3.39451">
        <ele>82</ele>
        <time>2011-02-20T08:18:40Z</time>
      </trkpt>
      <trkpt lat="48.67511" lon="-3.3945">
        <ele>82</ele>
        <time>2011-02-20T08:18:41Z</time>
      </trkpt>
      <trkpt lat="48.67505" lon="-3.39448">
        <ele>82</ele>
        <time>2011-02-20T08:18:42Z</time>
      </trkpt>
      <trkpt lat="48.67498" lon="-3.39446">
        <ele>82</ele>
        <time>2011-02-20T08:18:43Z</time>
      </trkpt>
      <trkpt lat="48.67492" lon="-3.39444">
        <ele>82</ele>
        <time>2011-02-20T08:18:44Z</time>
      </trkpt>
      <trkpt lat="48.67486" lon="-3.39442">
        <ele>82</ele>
        <time>2011-02-20T08:18:45Z</time>
      </trkpt>
      <trkpt lat="48.6748" lon="-3.3944">
        <ele>82</ele>
        <time>2011-02-20T08:18:46Z</time>
      </trkpt>
      <trkpt lat="48.67474" lon="-3.39438">
        <ele>82</ele>
        <time>2011-02-20T08:18:47Z</time>
      </trkpt>
      <trkpt lat="48.67469" lon="-3.39435">
        <ele>83</ele>
        <time>2011-02-20T08:18:48Z</time>
      </trkpt>
      <trkpt lat="48.67463" lon="-3.39432">
        <ele>83</ele>
        <time>2011-02-20T08:18:49Z</time>
      </trkpt>
      <trkpt lat="48.67457" lon="-3.3943">
        <ele>83</ele>
        <time>2011-02-20T08:18:50Z</time>
      </trkpt>
      <trkpt lat="48.67451" lon="-3.39426">
        <ele>83</ele>
        <time>2011-02-20T08:18:51Z</time>
      </trkpt>
      <trkpt lat="48.67445" lon="-3.39423">
        <ele>83</ele>
        <time>2011-02-20T08:18:52Z</time>
      </trkpt>
      <trkpt lat="48.6744" lon="-3.3942">
        <ele>83</ele>
        <time>2011-02-20T08:18:53Z</time>
      </trkpt>
      <trkpt lat="48.67434" lon="-3.39416">
        <ele>83</ele>
        <time>2011-02-20T08:18:54Z</time>
      </trkpt>
      <trkpt lat="48.67428" lon="-3.39412">
        <ele>83</ele>
        <time>2011-02-20T08:18:55Z</time>
      </trkpt>
      <trkpt lat="48.67422" lon="-3.39409">
        <ele>83</ele>
        <time>2011-02-20T08:18:56Z</time>
      </trkpt>
      <trkpt lat="48.67416" lon="-3.39406">
        <ele>83</ele>
        <time>2011-02-20T08:18:57Z</time>
      </trkpt>
      <trkpt lat="48.6741" lon="-3.39403">
        <ele>83</ele>
        <time>2011-02-20T08:18:58Z</time>
      </trkpt>
      <trkpt lat="48.67403" lon="-3.394">
        <ele>83</ele>
        <time>2011-02-20T08:18:59Z</time>
      </trkpt>
      <trkpt lat="48.67397" lon="-3.39397">
        <ele>83</ele>
        <time>2011-02-20T08:19:00Z</time>
      </trkpt>
      <trkpt lat="48.67391" lon="-3.39395">
        <ele>83</ele>
        <time>2011-02-20T08:19:01Z</time>
      </trkpt>
      <trkpt lat="48.67384" lon="-3.39392">
        <ele>83</ele>
        <time>2011-02-20T08:19:02Z</time>
      </trkpt>
      <trkpt lat="48.67378" lon="-3.3939">
        <ele>83</ele>
        <time>2011-02-20T08:19:03Z</time>
      </trkpt>
      <trkpt lat="48.67372" lon="-3.39388">
        <ele>83</ele>
        <time>2011-02-20T08:19:04Z</time>
      </trkpt>
      <trkpt lat="48.67366" lon="-3.39386">
        <ele>83</ele>
        <time>2011-02-20T08:19:05Z</time>
      </trkpt>
      <trkpt lat="48.6736" lon="-3.39385">
        <ele>84</ele>
        <time>2011-02-20T08:19:06Z</time>
      </trkpt>
      <trkpt lat="48.67353" lon="-3.39383">
        <ele>84</ele>
        <time>2011-02-20T08:19:07Z</time>
      </trkpt>
      <trkpt lat="48.67347" lon="-3.39382">
        <ele>84</ele>
        <time>2011-02-20T08:19:08Z</time>
      </trkpt>
      <trkpt lat="48.6734" lon="-3.39382">
        <ele>84</ele>
        <time>2011-02-20T08:19:09Z</time>
      </trkpt>
      <trkpt lat="48.67334" lon="-3.39382">
        <ele>84</ele>
        <time>2011-02-20T08:19:10Z</time>
      </trkpt>
      <trkpt lat="48.67328" lon="-3.39383">
        <ele>84</ele>
        <time>2011-02-20T08:19:11Z</time>
      </trkpt>
      <trkpt lat="48.67321" lon="-3.39384">
        <ele>84</ele>
        <time>2011-02-20T08:19:12Z</time>
      </trkpt>
      <trkpt lat="48.67315" lon="-3.39385">
        <ele>84</ele>
        <time>2011-02-20T08:19:13Z</time>
      </trkpt>
      <trkpt lat="48.67308" lon="-3.39387">
        <ele>84</ele>
        <time>2011-02-20T08:19:14Z</time>
      </trkpt>
      <trkpt lat="48.67302" lon="-3.39388">
        <ele>84</ele>
        <time>2011-02-20T08:19:15Z</time>
      </trkpt>
      <trkpt lat="48.67296" lon="-3.3939">
        <ele>85</ele>
        <time>2011-02-20T08:19:16Z</time>
      </trkpt>
      <trkpt lat="48.67289" lon="-3.39392">
        <ele>85</ele>
        <time>2011-02-20T08:19:17Z</time>
      </trkpt>
      <trkpt lat="48.67283" lon="-3.39395">
        <ele>85</ele>
        <time>2011-02-20T08:19:18Z</time>
      </trkpt>
      <trkpt lat="48.67278" lon="-3.39398">
        <ele>85</ele>
        <time>2011-02-20T08:19:19Z</time>
      </trkpt>
      <trkpt lat="48.67272" lon="-3.39401">
        <ele>85</ele>
        <time>2011-02-20T08:19:20Z</time>
      </trkpt>
      <trkpt lat="48.67266" lon="-3.39404">
        <ele>85</ele>
        <time>2011-02-20T08:19:21Z</time>
      </trkpt>
      <trkpt lat="48.6726" lon="-3.39406">
        <ele>86</ele>
        <time>2011-02-20T08:19:22Z</time>
      </trkpt>
      <trkpt lat="48.67254" lon="-3.39409">
        <ele>86</ele>
        <time>2011-02-20T08:19:23Z</time>
      </trkpt>
      <trkpt lat="48.67248" lon="-3.39411">
        <ele>86</ele>
        <time>2011-02-20T08:19:24Z</time>
      </trkpt>
      <trkpt lat="48.67242" lon="-3.39413">
        <ele>86</ele>
        <time>2011-02-20T08:19:25Z</time>
      </trkpt>
      <trkpt lat="48.67236" lon="-3.39414">
        <ele>86</ele>
        <time>2011-02-20T08:19:26Z</time>
      </trkpt>
      <trkpt lat="48.67231" lon="-3.39416">
        <ele>86</ele>
        <time>2011-02-20T08:19:27Z</time>
      </trkpt>
      <trkpt lat="48.67225" lon="-3.39417">
        <ele>86</ele>
        <time>2011-02-20T08:19:28Z</time>
      </trkpt>
      <trkpt lat="48.67219" lon="-3.39418">
        <ele>87</ele>
        <time>2011-02-20T08:19:29Z</time>
      </trkpt>
      <trkpt lat="48.67213" lon="-3.39419">
        <ele>87</ele>
        <time>2011-02-20T08:19:30Z</time>
      </trkpt>
      <trkpt lat="48.67207" lon="-3.39421">
        <ele>87</ele>
        <time>2011-02-20T08:19:31Z</time>
      </trkpt>
      <trkpt lat="48.67202" lon="-3.39421">
        <ele>87</ele>
        <time>2011-02-20T08:19:32Z</time>
      </trkpt>
      <trkpt lat="48.67196" lon="-3.39422">
        <ele>87</ele>
        <time>2011-02-20T08:19:33Z</time>
      </trkpt>
      <trkpt lat="48.67189" lon="-3.39423">
        <ele>87</ele>
        <time>2011-02-20T08:19:34Z</time>
      </trkpt>
      <trkpt lat="48.67184" lon="-3.39424">
        <ele>87</ele>
        <time>2011-02-20T08:19:35Z</time>
      </trkpt>
      <trkpt lat="48.67178" lon="-3.39425">
        <ele>87</ele>
        <time>2011-02-20T08:19:36Z</time>
      </trkpt>
      <trkpt lat="48.67172" lon="-3.39426">
        <ele>88</ele>
        <time>2011-02-20T08:19:37Z</time>
      </trkpt>
      <trkpt lat="48.67166" lon="-3.39427">
        <ele>88</ele>
        <time>2011-02-20T08:19:38Z</time>
      </trkpt>
      <trkpt lat="48.6716" lon="-3.39429">
        <ele>88</ele>
        <time>2011-02-20T08:19:39Z</time>
      </trkpt>
      <trkpt lat="48.67154" lon="-3.3943">
        <ele>88</ele>
        <time>2011-02-20T08:19:40Z</time>
      </trkpt>
      <trkpt lat="48.67148" lon="-3.39431">
        <ele>88</ele>
        <time>2011-02-20T08:19:41Z</time>
      </trkpt>
      <trkpt lat="48.67142" lon="-3.39432">
        <ele>88</ele>
        <time>2011-02-20T08:19:42Z</time>
      </trkpt>
      <trkpt lat="48.67136" lon="-3.39434">
        <ele>88</ele>
        <time>2011-02-20T08:19:43Z</time>
      </trkpt>
      <trkpt lat="48.6713" lon="-3.39435">
        <ele>88</ele>
        <time>2011-02-20T08:19:44Z</time>
      </trkpt>
      <trkpt lat="48.67124" lon="-3.39436">
        <ele>88</ele>
        <time>2011-02-20T08:19:45Z</time>
      </trkpt>
      <trkpt lat="48.67118" lon="-3.39438">
        <ele>88</ele>
        <time>2011-02-20T08:19:46Z</time>
      </trkpt>
      <trkpt lat="48.67112" lon="-3.39439">
        <ele>88</ele>
        <time>2011-02-20T08:19:47Z</time>
      </trkpt>
      <trkpt lat="48.67106" lon="-3.3944">
        <ele>88</ele>
        <time>2011-02-20T08:19:48Z</time>
      </trkpt>
      <trkpt lat="48.671" lon="-3.39442">
        <ele>88</ele>
        <time>2011-02-20T08:19:49Z</time>
      </trkpt>
      <trkpt lat="48.67094" lon="-3.39444">
        <ele>88</ele>
        <time>2011-02-20T08:19:50Z</time>
      </trkpt>
      <trkpt lat="48.67088" lon="-3.39445">
        <ele>89</ele>
        <time>2011-02-20T08:19:51Z</time>
      </trkpt>
      <trkpt lat="48.67083" lon="-3.39447">
        <ele>89</ele>
        <time>2011-02-20T08:19:52Z</time>
      </trkpt>
      <trkpt lat="48.67076" lon="-3.39449">
        <ele>89</ele>
        <time>2011-02-20T08:19:53Z</time>
      </trkpt>
      <trkpt lat="48.6707" lon="-3.39451">
        <ele>89</ele>
        <time>2011-02-20T08:19:54Z</time>
      </trkpt>
      <trkpt lat="48.67065" lon="-3.39454">
        <ele>89</ele>
        <time>2011-02-20T08:19:55Z</time>
      </trkpt>
      <trkpt lat="48.67059" lon="-3.39456">
        <ele>89</ele>
        <time>2011-02-20T08:19:56Z</time>
      </trkpt>
      <trkpt lat="48.67054" lon="-3.3946">
        <ele>89</ele>
        <time>2011-02-20T08:19:57Z</time>
      </trkpt>
      <trkpt lat="48.67048" lon="-3.39465">
        <ele>90</ele>
        <time>2011-02-20T08:19:58Z</time>
      </trkpt>
      <trkpt lat="48.67044" lon="-3.39471">
        <ele>90</ele>
        <time>2011-02-20T08:19:59Z</time>
      </trkpt>
      <trkpt lat="48.67041" lon="-3.39476">
        <ele>90</ele>
        <time>2011-02-20T08:20:00Z</time>
      </trkpt>
      <trkpt lat="48.67038" lon="-3.39483">
        <ele>90</ele>
        <time>2011-02-20T08:20:01Z</time>
      </trkpt>
      <trkpt lat="48.67035" lon="-3.39491">
        <ele>90</ele>
        <time>2011-02-20T08:20:02Z</time>
      </trkpt>
      <trkpt lat="48.67031" lon="-3.39498">
        <ele>90</ele>
        <time>2011-02-20T08:20:03Z</time>
      </trkpt>
      <trkpt lat="48.67028" lon="-3.39506">
        <ele>90</ele>
        <time>2011-02-20T08:20:04Z</time>
      </trkpt>
      <trkpt lat="48.67025" lon="-3.39514">
        <ele>90</ele>
        <time>2011-02-20T08:20:05Z</time>
      </trkpt>
      <trkpt lat="48.67021" lon="-3.39522">
        <ele>90</ele>
        <time>2011-02-20T08:20:06Z</time>
      </trkpt>
      <trkpt lat="48.67019" lon="-3.39529">
        <ele>90</ele>
        <time>2011-02-20T08:20:07Z</time>
      </trkpt>
      <trkpt lat="48.67016" lon="-3.39537">
        <ele>90</ele>
        <time>2011-02-20T08:20:08Z</time>
      </trkpt>
      <trkpt lat="48.67013" lon="-3.39544">
        <ele>90</ele>
        <time>2011-02-20T08:20:09Z</time>
      </trkpt>
      <trkpt lat="48.67009" lon="-3.39551">
        <ele>90</ele>
        <time>2011-02-20T08:20:10Z</time>
      </trkpt>
      <trkpt lat="48.67005" lon="-3.39558">
        <ele>90</ele>
        <time>2011-02-20T08:20:11Z</time>
      </trkpt>
      <trkpt lat="48.67001" lon="-3.39562">
        <ele>90</ele>
        <time>2011-02-20T08:20:12Z</time>
      </trkpt>
      <trkpt lat="48.66995" lon="-3.39565">
        <ele>90</ele>
        <time>2011-02-20T08:20:13Z</time>
      </trkpt>
      <trkpt lat="48.66989" lon="-3.39567">
        <ele>90</ele>
        <time>2011-02-20T08:20:14Z</time>
      </trkpt>
      <trkpt lat="48.66983" lon="-3.39568">
        <ele>90</ele>
        <time>2011-02-20T08:20:15Z</time>
      </trkpt>
      <trkpt lat="48.66977" lon="-3.39569">
        <ele>90</ele>
        <time>2011-02-20T08:20:16Z</time>
      </trkpt>
      <trkpt lat="48.6697" lon="-3.39571">
        <ele>90</ele>
        <time>2011-02-20T08:20:17Z</time>
      </trkpt>
      <trkpt lat="48.66964" lon="-3.39573">
        <ele>90</ele>
        <time>2011-02-20T08:20:18Z</time>
      </trkpt>
      <trkpt lat="48.66957" lon="-3.39576">
        <ele>90</ele>
        <time>2011-02-20T08:20:19Z</time>
      </trkpt>
      <trkpt lat="48.66951" lon="-3.39579">
        <ele>90</ele>
        <time>2011-02-20T08:20:20Z</time>
      </trkpt>
      <trkpt lat="48.66945" lon="-3.39582">
        <ele>90</ele>
        <time>2011-02-20T08:20:21Z</time>
      </trkpt>
      <trkpt lat="48.66938" lon="-3.39585">
        <ele>90</ele>
        <time>2011-02-20T08:20:22Z</time>
      </trkpt>
      <trkpt lat="48.66933" lon="-3.39589">
        <ele>90</ele>
        <time>2011-02-20T08:20:23Z</time>
      </trkpt>
      <trkpt lat="48.66927" lon="-3.39592">
        <ele>90</ele>
        <time>2011-02-20T08:20:24Z</time>
      </trkpt>
      <trkpt lat="48.66921" lon="-3.39595">
        <ele>90</ele>
        <time>2011-02-20T08:20:25Z</time>
      </trkpt>
      <trkpt lat="48.66915" lon="-3.39597">
        <ele>90</ele>
        <time>2011-02-20T08:20:26Z</time>
      </trkpt>
      <trkpt lat="48.66909" lon="-3.396">
        <ele>90</ele>
        <time>2011-02-20T08:20:27Z</time>
      </trkpt>
      <trkpt lat="48.66903" lon="-3.39602">
        <ele>90</ele>
        <time>2011-02-20T08:20:28Z</time>
      </trkpt>
      <trkpt lat="48.66898" lon="-3.39605">
        <ele>90</ele>
        <time>2011-02-20T08:20:29Z</time>
      </trkpt>
      <trkpt lat="48.66892" lon="-3.39609">
        <ele>90</ele>
        <time>2011-02-20T08:20:30Z</time>
      </trkpt>
      <trkpt lat="48.66887" lon="-3.39614">
        <ele>90</ele>
        <time>2011-02-20T08:20:31Z</time>
      </trkpt>
      <trkpt lat="48.66882" lon="-3.3962">
        <ele>90</ele>
        <time>2011-02-20T08:20:32Z</time>
      </trkpt>
      <trkpt lat="48.66877" lon="-3.39627">
        <ele>90</ele>
        <time>2011-02-20T08:20:33Z</time>
      </trkpt>
      <trkpt lat="48.66874" lon="-3.39635">
        <ele>90</ele>
        <time>2011-02-20T08:20:34Z</time>
      </trkpt>
      <trkpt lat="48.6687" lon="-3.39643">
        <ele>90</ele>
        <time>2011-02-20T08:20:35Z</time>
      </trkpt>
      <trkpt lat="48.66868" lon="-3.39652">
        <ele>90</ele>
        <time>2011-02-20T08:20:36Z</time>
      </trkpt>
      <trkpt lat="48.66865" lon="-3.3966">
        <ele>90</ele>
        <time>2011-02-20T08:20:37Z</time>
      </trkpt>
      <trkpt lat="48.66862" lon="-3.39668">
        <ele>90</ele>
        <time>2011-02-20T08:20:38Z</time>
      </trkpt>
      <trkpt lat="48.66859" lon="-3.39676">
        <ele>90</ele>
        <time>2011-02-20T08:20:39Z</time>
      </trkpt>
      <trkpt lat="48.66855" lon="-3.39682">
        <ele>90</ele>
        <time>2011-02-20T08:20:40Z</time>
      </trkpt>
      <trkpt lat="48.6685" lon="-3.39688">
        <ele>91</ele>
        <time>2011-02-20T08:20:41Z</time>
      </trkpt>
      <trkpt lat="48.66845" lon="-3.39692">
        <ele>91</ele>
        <time>2011-02-20T08:20:42Z</time>
      </trkpt>
      <trkpt lat="48.6684" lon="-3.39696">
        <ele>91</ele>
        <time>2011-02-20T08:20:43Z</time>
      </trkpt>
      <trkpt lat="48.66835" lon="-3.39699">
        <ele>91</ele>
        <time>2011-02-20T08:20:44Z</time>
      </trkpt>
      <trkpt lat="48.66829" lon="-3.39702">
        <ele>91</ele>
        <time>2011-02-20T08:20:45Z</time>
      </trkpt>
      <trkpt lat="48.66823" lon="-3.39704">
        <ele>91</ele>
        <time>2011-02-20T08:20:46Z</time>
      </trkpt>
      <trkpt lat="48.66817" lon="-3.39705">
        <ele>91</ele>
        <time>2011-02-20T08:20:47Z</time>
      </trkpt>
      <trkpt lat="48.66811" lon="-3.39707">
        <ele>91</ele>
        <time>2011-02-20T08:20:48Z</time>
      </trkpt>
      <trkpt lat="48.66805" lon="-3.39708">
        <ele>91</ele>
        <time>2011-02-20T08:20:49Z</time>
      </trkpt>
      <trkpt lat="48.66799" lon="-3.3971">
        <ele>91</ele>
        <time>2011-02-20T08:20:50Z</time>
      </trkpt>
      <trkpt lat="48.66793" lon="-3.39712">
        <ele>91</ele>
        <time>2011-02-20T08:20:51Z</time>
      </trkpt>
      <trkpt lat="48.66788" lon="-3.39713">
        <ele>91</ele>
        <time>2011-02-20T08:20:52Z</time>
      </trkpt>
      <trkpt lat="48.66782" lon="-3.39715">
        <ele>91</ele>
        <time>2011-02-20T08:20:53Z</time>
      </trkpt>
      <trkpt lat="48.66777" lon="-3.39716">
        <ele>91</ele>
        <time>2011-02-20T08:20:54Z</time>
      </trkpt>
      <trkpt lat="48.66772" lon="-3.39717">
        <ele>91</ele>
        <time>2011-02-20T08:20:55Z</time>
      </trkpt>
      <trkpt lat="48.66768" lon="-3.39719">
        <ele>91</ele>
        <time>2011-02-20T08:20:56Z</time>
      </trkpt>
      <trkpt lat="48.66762" lon="-3.3972">
        <ele>92</ele>
        <time>2011-02-20T08:20:57Z</time>
      </trkpt>
      <trkpt lat="48.66756" lon="-3.39722">
        <ele>92</ele>
        <time>2011-02-20T08:20:58Z</time>
      </trkpt>
      <trkpt lat="48.66751" lon="-3.39724">
        <ele>92</ele>
        <time>2011-02-20T08:20:59Z</time>
      </trkpt>
      <trkpt lat="48.66745" lon="-3.39726">
        <ele>92</ele>
        <time>2011-02-20T08:21:00Z</time>
      </trkpt>
      <trkpt lat="48.6674" lon="-3.39728">
        <ele>92</ele>
        <time>2011-02-20T08:21:01Z</time>
      </trkpt>
      <trkpt lat="48.66734" lon="-3.3973">
        <ele>93</ele>
        <time>2011-02-20T08:21:02Z</time>
      </trkpt>
      <trkpt lat="48.66729" lon="-3.39732">
        <ele>93</ele>
        <time>2011-02-20T08:21:03Z</time>
      </trkpt>
      <trkpt lat="48.66724" lon="-3.39733">
        <ele>93</ele>
        <time>2011-02-20T08:21:04Z</time>
      </trkpt>
      <trkpt lat="48.66718" lon="-3.39734">
        <ele>93</ele>
        <time>2011-02-20T08:21:05Z</time>
      </trkpt>
      <trkpt lat="48.66713" lon="-3.39735">
        <ele>94</ele>
        <time>2011-02-20T08:21:06Z</time>
      </trkpt>
      <trkpt lat="48.66707" lon="-3.39736">
        <ele>94</ele>
        <time>2011-02-20T08:21:07Z</time>
      </trkpt>
      <trkpt lat="48.66702" lon="-3.39736">
        <ele>94</ele>
        <time>2011-02-20T08:21:08Z</time>
      </trkpt>
      <trkpt lat="48.66696" lon="-3.39737">
        <ele>94</ele>
        <time>2011-02-20T08:21:09Z</time>
      </trkpt>
      <trkpt lat="48.66691" lon="-3.39737">
        <ele>95</ele>
        <time>2011-02-20T08:21:10Z</time>
      </trkpt>
      <trkpt lat="48.66685" lon="-3.39736">
        <ele>95</ele>
        <time>2011-02-20T08:21:11Z</time>
      </trkpt>
      <trkpt lat="48.6668" lon="-3.39736">
        <ele>95</ele>
        <time>2011-02-20T08:21:12Z</time>
      </trkpt>
      <trkpt lat="48.66674" lon="-3.39735">
        <ele>95</ele>
        <time>2011-02-20T08:21:13Z</time>
      </trkpt>
      <trkpt lat="48.66669" lon="-3.39735">
        <ele>95</ele>
        <time>2011-02-20T08:21:14Z</time>
      </trkpt>
      <trkpt lat="48.66664" lon="-3.39733">
        <ele>95</ele>
        <time>2011-02-20T08:21:15Z</time>
      </trkpt>
      <trkpt lat="48.66658" lon="-3.39731">
        <ele>95</ele>
        <time>2011-02-20T08:21:16Z</time>
      </trkpt>
      <trkpt lat="48.66653" lon="-3.39729">
        <ele>95</ele>
        <time>2011-02-20T08:21:17Z</time>
      </trkpt>
      <trkpt lat="48.66647" lon="-3.39727">
        <ele>95</ele>
        <time>2011-02-20T08:21:18Z</time>
      </trkpt>
      <trkpt lat="48.66642" lon="-3.39725">
        <ele>95</ele>
        <time>2011-02-20T08:21:19Z</time>
      </trkpt>
      <trkpt lat="48.66636" lon="-3.39722">
        <ele>95</ele>
        <time>2011-02-20T08:21:20Z</time>
      </trkpt>
      <trkpt lat="48.66631" lon="-3.3972">
        <ele>95</ele>
        <time>2011-02-20T08:21:21Z</time>
      </trkpt>
      <trkpt lat="48.66625" lon="-3.39718">
        <ele>96</ele>
        <time>2011-02-20T08:21:22Z</time>
      </trkpt>
      <trkpt lat="48.66619" lon="-3.39716">
        <ele>96</ele>
        <time>2011-02-20T08:21:23Z</time>
      </trkpt>
      <trkpt lat="48.66614" lon="-3.39714">
        <ele>96</ele>
        <time>2011-02-20T08:21:24Z</time>
      </trkpt>
      <trkpt lat="48.66608" lon="-3.39711">
        <ele>96</ele>
        <time>2011-02-20T08:21:25Z</time>
      </trkpt>
      <trkpt lat="48.66603" lon="-3.39709">
        <ele>96</ele>
        <time>2011-02-20T08:21:26Z</time>
      </trkpt>
      <trkpt lat="48.66597" lon="-3.39707">
        <ele>96</ele>
        <time>2011-02-20T08:21:27Z</time>
      </trkpt>
      <trkpt lat="48.66592" lon="-3.39705">
        <ele>96</ele>
        <time>2011-02-20T08:21:28Z</time>
      </trkpt>
      <trkpt lat="48.66586" lon="-3.39703">
        <ele>96</ele>
        <time>2011-02-20T08:21:29Z</time>
      </trkpt>
      <trkpt lat="48.66581" lon="-3.39702">
        <ele>96</ele>
        <time>2011-02-20T08:21:30Z</time>
      </trkpt>
      <trkpt lat="48.66575" lon="-3.39701">
        <ele>96</ele>
        <time>2011-02-20T08:21:31Z</time>
      </trkpt>
      <trkpt lat="48.6657" lon="-3.39701">
        <ele>96</ele>
        <time>2011-02-20T08:21:32Z</time>
      </trkpt>
      <trkpt lat="48.66564" lon="-3.397">
        <ele>96</ele>
        <time>2011-02-20T08:21:33Z</time>
      </trkpt>
      <trkpt lat="48.66558" lon="-3.397">
        <ele>96</ele>
        <time>2011-02-20T08:21:34Z</time>
      </trkpt>
      <trkpt lat="48.66552" lon="-3.397">
        <ele>96</ele>
        <time>2011-02-20T08:21:35Z</time>
      </trkpt>
      <trkpt lat="48.66547" lon="-3.397">
        <ele>97</ele>
        <time>2011-02-20T08:21:36Z</time>
      </trkpt>
      <trkpt lat="48.66541" lon="-3.397">
        <ele>97</ele>
        <time>2011-02-20T08:21:37Z</time>
      </trkpt>
      <trkpt lat="48.66535" lon="-3.397">
        <ele>97</ele>
        <time>2011-02-20T08:21:38Z</time>
      </trkpt>
      <trkpt lat="48.66529" lon="-3.397">
        <ele>97</ele>
        <time>2011-02-20T08:21:39Z</time>
      </trkpt>
      <trkpt lat="48.66523" lon="-3.39699">
        <ele>97</ele>
        <time>2011-02-20T08:21:40Z</time>
      </trkpt>
      <trkpt lat="48.66518" lon="-3.39699">
        <ele>98</ele>
        <time>2011-02-20T08:21:41Z</time>
      </trkpt>
      <trkpt lat="48.66512" lon="-3.39698">
        <ele>98</ele>
        <time>2011-02-20T08:21:42Z</time>
      </trkpt>
      <trkpt lat="48.66506" lon="-3.39698">
        <ele>98</ele>
        <time>2011-02-20T08:21:43Z</time>
      </trkpt>
      <trkpt lat="48.665" lon="-3.39697">
        <ele>98</ele>
        <time>2011-02-20T08:21:44Z</time>
      </trkpt>
      <trkpt lat="48.66494" lon="-3.39697">
        <ele>98</ele>
        <time>2011-02-20T08:21:45Z</time>
      </trkpt>
      <trkpt lat="48.66489" lon="-3.39697">
        <ele>98</ele>
        <time>2011-02-20T08:21:46Z</time>
      </trkpt>
      <trkpt lat="48.66483" lon="-3.39697">
        <ele>98</ele>
        <time>2011-02-20T08:21:47Z</time>
      </trkpt>
      <trkpt lat="48.66477" lon="-3.39697">
        <ele>98</ele>
        <time>2011-02-20T08:21:48Z</time>
      </trkpt>
      <trkpt lat="48.66471" lon="-3.39698">
        <ele>99</ele>
        <time>2011-02-20T08:21:49Z</time>
      </trkpt>
      <trkpt lat="48.66465" lon="-3.397">
        <ele>99</ele>
        <time>2011-02-20T08:21:50Z</time>
      </trkpt>
      <trkpt lat="48.6646" lon="-3.39701">
        <ele>99</ele>
        <time>2011-02-20T08:21:51Z</time>
      </trkpt>
      <trkpt lat="48.66454" lon="-3.39703">
        <ele>99</ele>
        <time>2011-02-20T08:21:52Z</time>
      </trkpt>
      <trkpt lat="48.66448" lon="-3.39705">
        <ele>99</ele>
        <time>2011-02-20T08:21:53Z</time>
      </trkpt>
      <trkpt lat="48.66442" lon="-3.39706">
        <ele>99</ele>
        <time>2011-02-20T08:21:54Z</time>
      </trkpt>
      <trkpt lat="48.66437" lon="-3.39708">
        <ele>99</ele>
        <time>2011-02-20T08:21:55Z</time>
      </trkpt>
      <trkpt lat="48.66431" lon="-3.39708">
        <ele>99</ele>
        <time>2011-02-20T08:21:56Z</time>
      </trkpt>
      <trkpt lat="48.66425" lon="-3.39709">
        <ele>100</ele>
        <time>2011-02-20T08:21:57Z</time>
      </trkpt>
      <trkpt lat="48.66419" lon="-3.39709">
        <ele>100</ele>
        <time>2011-02-20T08:21:58Z</time>
      </trkpt>
      <trkpt lat="48.66413" lon="-3.39708">
        <ele>100</ele>
        <time>2011-02-20T08:21:59Z</time>
      </trkpt>
      <trkpt lat="48.66407" lon="-3.39707">
        <ele>100</ele>
        <time>2011-02-20T08:22:00Z</time>
      </trkpt>
      <trkpt lat="48.66401" lon="-3.39706">
        <ele>100</ele>
        <time>2011-02-20T08:22:01Z</time>
      </trkpt>
      <trkpt lat="48.66395" lon="-3.39704">
        <ele>100</ele>
        <time>2011-02-20T08:22:02Z</time>
      </trkpt>
      <trkpt lat="48.66389" lon="-3.39703">
        <ele>100</ele>
        <time>2011-02-20T08:22:03Z</time>
      </trkpt>
      <trkpt lat="48.66383" lon="-3.39701">
        <ele>100</ele>
        <time>2011-02-20T08:22:04Z</time>
      </trkpt>
      <trkpt lat="48.66376" lon="-3.39699">
        <ele>100</ele>
        <time>2011-02-20T08:22:05Z</time>
      </trkpt>
      <trkpt lat="48.6637" lon="-3.39697">
        <ele>100</ele>
        <time>2011-02-20T08:22:06Z</time>
      </trkpt>
      <trkpt lat="48.66365" lon="-3.39695">
        <ele>100</ele>
        <time>2011-02-20T08:22:07Z</time>
      </trkpt>
      <trkpt lat="48.66359" lon="-3.39693">
        <ele>100</ele>
        <time>2011-02-20T08:22:08Z</time>
      </trkpt>
      <trkpt lat="48.66353" lon="-3.39691">
        <ele>100</ele>
        <time>2011-02-20T08:22:09Z</time>
      </trkpt>
      <trkpt lat="48.66347" lon="-3.39689">
        <ele>100</ele>
        <time>2011-02-20T08:22:10Z</time>
      </trkpt>
      <trkpt lat="48.66341" lon="-3.39687">
        <ele>100</ele>
        <time>2011-02-20T08:22:11Z</time>
      </trkpt>
      <trkpt lat="48.66336" lon="-3.39685">
        <ele>101</ele>
        <time>2011-02-20T08:22:12Z</time>
      </trkpt>
      <trkpt lat="48.6633" lon="-3.39683">
        <ele>101</ele>
        <time>2011-02-20T08:22:13Z</time>
      </trkpt>
      <trkpt lat="48.66324" lon="-3.39681">
        <ele>101</ele>
        <time>2011-02-20T08:22:14Z</time>
      </trkpt>
      <trkpt lat="48.66318" lon="-3.39679">
        <ele>101</ele>
        <time>2011-02-20T08:22:15Z</time>
      </trkpt>
      <trkpt lat="48.66312" lon="-3.39677">
        <ele>101</ele>
        <time>2011-02-20T08:22:16Z</time>
      </trkpt>
      <trkpt lat="48.66306" lon="-3.39675">
        <ele>101</ele>
        <time>2011-02-20T08:22:17Z</time>
      </trkpt>
      <trkpt lat="48.663" lon="-3.39673">
        <ele>101</ele>
        <time>2011-02-20T08:22:18Z</time>
      </trkpt>
      <trkpt lat="48.66293" lon="-3.39671">
        <ele>101</ele>
        <time>2011-02-20T08:22:19Z</time>
      </trkpt>
      <trkpt lat="48.66287" lon="-3.39669">
        <ele>101</ele>
        <time>2011-02-20T08:22:20Z</time>
      </trkpt>
      <trkpt lat="48.66281" lon="-3.39667">
        <ele>101</ele>
        <time>2011-02-20T08:22:21Z</time>
      </trkpt>
      <trkpt lat="48.66275" lon="-3.39664">
        <ele>101</ele>
        <time>2011-02-20T08:22:22Z</time>
      </trkpt>
      <trkpt lat="48.66269" lon="-3.39662">
        <ele>101</ele>
        <time>2011-02-20T08:22:23Z</time>
      </trkpt>
      <trkpt lat="48.66262" lon="-3.39659">
        <ele>101</ele>
        <time>2011-02-20T08:22:24Z</time>
      </trkpt>
      <trkpt lat="48.66256" lon="-3.39656">
        <ele>101</ele>
        <time>2011-02-20T08:22:25Z</time>
      </trkpt>
      <trkpt lat="48.66249" lon="-3.39653">
        <ele>101</ele>
        <time>2011-02-20T08:22:26Z</time>
      </trkpt>
      <trkpt lat="48.66243" lon="-3.3965">
        <ele>101</ele>
        <time>2011-02-20T08:22:27Z</time>
      </trkpt>
      <trkpt lat="48.66236" lon="-3.39648">
        <ele>101</ele>
        <time>2011-02-20T08:22:28Z</time>
      </trkpt>
      <trkpt lat="48.6623" lon="-3.39645">
        <ele>101</ele>
        <time>2011-02-20T08:22:29Z</time>
      </trkpt>
      <trkpt lat="48.66223" lon="-3.39642">
        <ele>101</ele>
        <time>2011-02-20T08:22:30Z</time>
      </trkpt>
      <trkpt lat="48.66217" lon="-3.39639">
        <ele>101</ele>
        <time>2011-02-20T08:22:31Z</time>
      </trkpt>
      <trkpt lat="48.6621" lon="-3.39636">
        <ele>101</ele>
        <time>2011-02-20T08:22:32Z</time>
      </trkpt>
      <trkpt lat="48.66204" lon="-3.39633">
        <ele>101</ele>
        <time>2011-02-20T08:22:33Z</time>
      </trkpt>
      <trkpt lat="48.66198" lon="-3.3963">
        <ele>101</ele>
        <time>2011-02-20T08:22:34Z</time>
      </trkpt>
      <trkpt lat="48.66191" lon="-3.39628">
        <ele>101</ele>
        <time>2011-02-20T08:22:35Z</time>
      </trkpt>
      <trkpt lat="48.66185" lon="-3.39625">
        <ele>101</ele>
        <time>2011-02-20T08:22:36Z</time>
      </trkpt>
      <trkpt lat="48.66179" lon="-3.39622">
        <ele>101</ele>
        <time>2011-02-20T08:22:37Z</time>
      </trkpt>
      <trkpt lat="48.66172" lon="-3.3962">
        <ele>101</ele>
        <time>2011-02-20T08:22:38Z</time>
      </trkpt>
      <trkpt lat="48.66166" lon="-3.39617">
        <ele>101</ele>
        <time>2011-02-20T08:22:39Z</time>
      </trkpt>
      <trkpt lat="48.6616" lon="-3.39615">
        <ele>101</ele>
        <time>2011-02-20T08:22:40Z</time>
      </trkpt>
      <trkpt lat="48.66153" lon="-3.39612">
        <ele>101</ele>
        <time>2011-02-20T08:22:41Z</time>
      </trkpt>
      <trkpt lat="48.66147" lon="-3.3961">
        <ele>101</ele>
        <time>2011-02-20T08:22:42Z</time>
      </trkpt>
      <trkpt lat="48.6614" lon="-3.39608">
        <ele>101</ele>
        <time>2011-02-20T08:22:43Z</time>
      </trkpt>
      <trkpt lat="48.66133" lon="-3.39605">
        <ele>101</ele>
        <time>2011-02-20T08:22:44Z</time>
      </trkpt>
      <trkpt lat="48.66127" lon="-3.39603">
        <ele>101</ele>
        <time>2011-02-20T08:22:45Z</time>
      </trkpt>
      <trkpt lat="48.6612" lon="-3.39601">
        <ele>101</ele>
        <time>2011-02-20T08:22:46Z</time>
      </trkpt>
      <trkpt lat="48.66113" lon="-3.39599">
        <ele>101</ele>
        <time>2011-02-20T08:22:47Z</time>
      </trkpt>
      <trkpt lat="48.66106" lon="-3.39597">
        <ele>101</ele>
        <time>2011-02-20T08:22:48Z</time>
      </trkpt>
      <trkpt lat="48.661" lon="-3.39595">
        <ele>101</ele>
        <time>2011-02-20T08:22:49Z</time>
      </trkpt>
      <trkpt lat="48.66093" lon="-3.39593">
        <ele>101</ele>
        <time>2011-02-20T08:22:50Z</time>
      </trkpt>
      <trkpt lat="48.66086" lon="-3.39591">
        <ele>101</ele>
        <time>2011-02-20T08:22:51Z</time>
      </trkpt>
      <trkpt lat="48.66079" lon="-3.39589">
        <ele>101</ele>
        <time>2011-02-20T08:22:52Z</time>
      </trkpt>
      <trkpt lat="48.66073" lon="-3.39586">
        <ele>101</ele>
        <time>2011-02-20T08:22:53Z</time>
      </trkpt>
      <trkpt lat="48.66066" lon="-3.39584">
        <ele>101</ele>
        <time>2011-02-20T08:22:54Z</time>
      </trkpt>
      <trkpt lat="48.66059" lon="-3.39582">
        <ele>101</ele>
        <time>2011-02-20T08:22:55Z</time>
      </trkpt>
      <trkpt lat="48.66053" lon="-3.39579">
        <ele>101</ele>
        <time>2011-02-20T08:22:56Z</time>
      </trkpt>
      <trkpt lat="48.66046" lon="-3.39577">
        <ele>101</ele>
        <time>2011-02-20T08:22:57Z</time>
      </trkpt>
      <trkpt lat="48.6604" lon="-3.39574">
        <ele>101</ele>
        <time>2011-02-20T08:22:58Z</time>
      </trkpt>
      <trkpt lat="48.66033" lon="-3.39571">
        <ele>101</ele>
        <time>2011-02-20T08:22:59Z</time>
      </trkpt>
      <trkpt lat="48.66027" lon="-3.39568">
        <ele>101</ele>
        <time>2011-02-20T08:23:00Z</time>
      </trkpt>
      <trkpt lat="48.6602" lon="-3.39566">
        <ele>101</ele>
        <time>2011-02-20T08:23:01Z</time>
      </trkpt>
      <trkpt lat="48.66013" lon="-3.39563">
        <ele>101</ele>
        <time>2011-02-20T08:23:02Z</time>
      </trkpt>
      <trkpt lat="48.66007" lon="-3.3956">
        <ele>101</ele>
        <time>2011-02-20T08:23:03Z</time>
      </trkpt>
      <trkpt lat="48.66" lon="-3.39557">
        <ele>101</ele>
        <time>2011-02-20T08:23:04Z</time>
      </trkpt>
      <trkpt lat="48.65993" lon="-3.39554">
        <ele>101</ele>
        <time>2011-02-20T08:23:05Z</time>
      </trkpt>
      <trkpt lat="48.65987" lon="-3.39551">
        <ele>101</ele>
        <time>2011-02-20T08:23:06Z</time>
      </trkpt>
      <trkpt lat="48.6598" lon="-3.39548">
        <ele>101</ele>
        <time>2011-02-20T08:23:07Z</time>
      </trkpt>
      <trkpt lat="48.65974" lon="-3.39545">
        <ele>101</ele>
        <time>2011-02-20T08:23:08Z</time>
      </trkpt>
      <trkpt lat="48.65967" lon="-3.39542">
        <ele>101</ele>
        <time>2011-02-20T08:23:09Z</time>
      </trkpt>
      <trkpt lat="48.6596" lon="-3.39539">
        <ele>101</ele>
        <time>2011-02-20T08:23:10Z</time>
      </trkpt>
      <trkpt lat="48.65954" lon="-3.39535">
        <ele>101</ele>
        <time>2011-02-20T08:23:11Z</time>
      </trkpt>
      <trkpt lat="48.65947" lon="-3.39532">
        <ele>101</ele>
        <time>2011-02-20T08:23:12Z</time>
      </trkpt>
      <trkpt lat="48.65941" lon="-3.39528">
        <ele>101</ele>
        <time>2011-02-20T08:23:13Z</time>
      </trkpt>
      <trkpt lat="48.65934" lon="-3.39525">
        <ele>101</ele>
        <time>2011-02-20T08:23:14Z</time>
      </trkpt>
      <trkpt lat="48.65928" lon="-3.39522">
        <ele>101</ele>
        <time>2011-02-20T08:23:15Z</time>
      </trkpt>
      <trkpt lat="48.65922" lon="-3.3952">
        <ele>101</ele>
        <time>2011-02-20T08:23:16Z</time>
      </trkpt>
      <trkpt lat="48.65916" lon="-3.39517">
        <ele>101</ele>
        <time>2011-02-20T08:23:17Z</time>
      </trkpt>
      <trkpt lat="48.65909" lon="-3.39514">
        <ele>101</ele>
        <time>2011-02-20T08:23:18Z</time>
      </trkpt>
      <trkpt lat="48.65903" lon="-3.39511">
        <ele>101</ele>
        <time>2011-02-20T08:23:19Z</time>
      </trkpt>
      <trkpt lat="48.65897" lon="-3.39509">
        <ele>101</ele>
        <time>2011-02-20T08:23:20Z</time>
      </trkpt>
      <trkpt lat="48.65891" lon="-3.39507">
        <ele>101</ele>
        <time>2011-02-20T08:23:21Z</time>
      </trkpt>
      <trkpt lat="48.65885" lon="-3.39505">
        <ele>101</ele>
        <time>2011-02-20T08:23:22Z</time>
      </trkpt>
      <trkpt lat="48.65879" lon="-3.39502">
        <ele>101</ele>
        <time>2011-02-20T08:23:23Z</time>
      </trkpt>
      <trkpt lat="48.65873" lon="-3.395">
        <ele>101</ele>
        <time>2011-02-20T08:23:24Z</time>
      </trkpt>
      <trkpt lat="48.65866" lon="-3.39498">
        <ele>101</ele>
        <time>2011-02-20T08:23:25Z</time>
      </trkpt>
      <trkpt lat="48.6586" lon="-3.39495">
        <ele>101</ele>
        <time>2011-02-20T08:23:26Z</time>
      </trkpt>
      <trkpt lat="48.65854" lon="-3.39493">
        <ele>101</ele>
        <time>2011-02-20T08:23:27Z</time>
      </trkpt>
      <trkpt lat="48.65848" lon="-3.39491">
        <ele>101</ele>
        <time>2011-02-20T08:23:28Z</time>
      </trkpt>
      <trkpt lat="48.65842" lon="-3.39489">
        <ele>101</ele>
        <time>2011-02-20T08:23:29Z</time>
      </trkpt>
      <trkpt lat="48.65836" lon="-3.39488">
        <ele>101</ele>
        <time>2011-02-20T08:23:30Z</time>
      </trkpt>
      <trkpt lat="48.65829" lon="-3.39486">
        <ele>101</ele>
        <time>2011-02-20T08:23:31Z</time>
      </trkpt>
      <trkpt lat="48.65823" lon="-3.39485">
        <ele>101</ele>
        <time>2011-02-20T08:23:32Z</time>
      </trkpt>
      <trkpt lat="48.65817" lon="-3.39484">
        <ele>101</ele>
        <time>2011-02-20T08:23:33Z</time>
      </trkpt>
      <trkpt lat="48.65811" lon="-3.39482">
        <ele>101</ele>
        <time>2011-02-20T08:23:34Z</time>
      </trkpt>
      <trkpt lat="48.65805" lon="-3.39481">
        <ele>101</ele>
        <time>2011-02-20T08:23:35Z</time>
      </trkpt>
      <trkpt lat="48.65799" lon="-3.3948">
        <ele>101</ele>
        <time>2011-02-20T08:23:36Z</time>
      </trkpt>
      <trkpt lat="48.65792" lon="-3.39479">
        <ele>101</ele>
        <time>2011-02-20T08:23:37Z</time>
      </trkpt>
      <trkpt lat="48.65786" lon="-3.39478">
        <ele>101</ele>
        <time>2011-02-20T08:23:38Z</time>
      </trkpt>
      <trkpt lat="48.65779" lon="-3.39477">
        <ele>101</ele>
        <time>2011-02-20T08:23:39Z</time>
      </trkpt>
      <trkpt lat="48.65772" lon="-3.39476">
        <ele>101</ele>
        <time>2011-02-20T08:23:40Z</time>
      </trkpt>
      <trkpt lat="48.65766" lon="-3.39475">
        <ele>101</ele>
        <time>2011-02-20T08:23:41Z</time>
      </trkpt>
      <trkpt lat="48.65759" lon="-3.39474">
        <ele>101</ele>
        <time>2011-02-20T08:23:42Z</time>
      </trkpt>
      <trkpt lat="48.65753" lon="-3.39474">
        <ele>101</ele>
        <time>2011-02-20T08:23:43Z</time>
      </trkpt>
      <trkpt lat="48.65746" lon="-3.39474">
        <ele>101</ele>
        <time>2011-02-20T08:23:44Z</time>
      </trkpt>
      <trkpt lat="48.6574" lon="-3.39473">
        <ele>101</ele>
        <time>2011-02-20T08:23:45Z</time>
      </trkpt>
      <trkpt lat="48.65733" lon="-3.39474">
        <ele>101</ele>
        <time>2011-02-20T08:23:46Z</time>
      </trkpt>
      <trkpt lat="48.65727" lon="-3.39474">
        <ele>101</ele>
        <time>2011-02-20T08:23:47Z</time>
      </trkpt>
      <trkpt lat="48.6572" lon="-3.39475">
        <ele>101</ele>
        <time>2011-02-20T08:23:48Z</time>
      </trkpt>
      <trkpt lat="48.65714" lon="-3.39476">
        <ele>101</ele>
        <time>2011-02-20T08:23:49Z</time>
      </trkpt>
      <trkpt lat="48.65707" lon="-3.39476">
        <ele>101</ele>
        <time>2011-02-20T08:23:50Z</time>
      </trkpt>
      <trkpt lat="48.65701" lon="-3.39477">
        <ele>101</ele>
        <time>2011-02-20T08:23:51Z</time>
      </trkpt>
      <trkpt lat="48.65694" lon="-3.39477">
        <ele>101</ele>
        <time>2011-02-20T08:23:52Z</time>
      </trkpt>
      <trkpt lat="48.65688" lon="-3.39477">
        <ele>101</ele>
        <time>2011-02-20T08:23:53Z</time>
      </trkpt>
      <trkpt lat="48.65681" lon="-3.39477">
        <ele>101</ele>
        <time>2011-02-20T08:23:54Z</time>
      </trkpt>
      <trkpt lat="48.65675" lon="-3.39477">
        <ele>101</ele>
        <time>2011-02-20T08:23:55Z</time>
      </trkpt>
      <trkpt lat="48.65668" lon="-3.39476">
        <ele>101</ele>
        <time>2011-02-20T08:23:56Z</time>
      </trkpt>
      <trkpt lat="48.65662" lon="-3.39476">
        <ele>101</ele>
        <time>2011-02-20T08:23:57Z</time>
      </trkpt>
      <trkpt lat="48.65655" lon="-3.39476">
        <ele>101</ele>
        <time>2011-02-20T08:23:58Z</time>
      </trkpt>
      <trkpt lat="48.65648" lon="-3.39476">
        <ele>101</ele>
        <time>2011-02-20T08:23:59Z</time>
      </trkpt>
      <trkpt lat="48.65641" lon="-3.39476">
        <ele>101</ele>
        <time>2011-02-20T08:24:00Z</time>
      </trkpt>
      <trkpt lat="48.65635" lon="-3.39476">
        <ele>101</ele>
        <time>2011-02-20T08:24:01Z</time>
      </trkpt>
      <trkpt lat="48.65628" lon="-3.39476">
        <ele>101</ele>
        <time>2011-02-20T08:24:02Z</time>
      </trkpt>
      <trkpt lat="48.65622" lon="-3.39475">
        <ele>101</ele>
        <time>2011-02-20T08:24:03Z</time>
      </trkpt>
      <trkpt lat="48.65615" lon="-3.39473">
        <ele>101</ele>
        <time>2011-02-20T08:24:04Z</time>
      </trkpt>
      <trkpt lat="48.65609" lon="-3.39471">
        <ele>101</ele>
        <time>2011-02-20T08:24:05Z</time>
      </trkpt>
      <trkpt lat="48.65602" lon="-3.3947">
        <ele>101</ele>
        <time>2011-02-20T08:24:06Z</time>
      </trkpt>
      <trkpt lat="48.65596" lon="-3.39468">
        <ele>101</ele>
        <time>2011-02-20T08:24:07Z</time>
      </trkpt>
      <trkpt lat="48.65589" lon="-3.39467">
        <ele>101</ele>
        <time>2011-02-20T08:24:08Z</time>
      </trkpt>
      <trkpt lat="48.65583" lon="-3.39465">
        <ele>101</ele>
        <time>2011-02-20T08:24:09Z</time>
      </trkpt>
      <trkpt lat="48.65576" lon="-3.39464">
        <ele>101</ele>
        <time>2011-02-20T08:24:10Z</time>
      </trkpt>
      <trkpt lat="48.6557" lon="-3.39464">
        <ele>101</ele>
        <time>2011-02-20T08:24:11Z</time>
      </trkpt>
      <trkpt lat="48.65563" lon="-3.39463">
        <ele>101</ele>
        <time>2011-02-20T08:24:12Z</time>
      </trkpt>
      <trkpt lat="48.65557" lon="-3.39464">
        <ele>101</ele>
        <time>2011-02-20T08:24:13Z</time>
      </trkpt>
      <trkpt lat="48.6555" lon="-3.39464">
        <ele>101</ele>
        <time>2011-02-20T08:24:14Z</time>
      </trkpt>
      <trkpt lat="48.65543" lon="-3.39465">
        <ele>101</ele>
        <time>2011-02-20T08:24:15Z</time>
      </trkpt>
      <trkpt lat="48.65537" lon="-3.39467">
        <ele>101</ele>
        <time>2011-02-20T08:24:16Z</time>
      </trkpt>
      <trkpt lat="48.6553" lon="-3.39469">
        <ele>101</ele>
        <time>2011-02-20T08:24:17Z</time>
      </trkpt>
      <trkpt lat="48.65524" lon="-3.39472">
        <ele>101</ele>
        <time>2011-02-20T08:24:18Z</time>
      </trkpt>
      <trkpt lat="48.65517" lon="-3.39476">
        <ele>101</ele>
        <time>2011-02-20T08:24:19Z</time>
      </trkpt>
      <trkpt lat="48.65511" lon="-3.3948">
        <ele>101</ele>
        <time>2011-02-20T08:24:20Z</time>
      </trkpt>
      <trkpt lat="48.65505" lon="-3.39484">
        <ele>101</ele>
        <time>2011-02-20T08:24:21Z</time>
      </trkpt>
      <trkpt lat="48.65498" lon="-3.39487">
        <ele>101</ele>
        <time>2011-02-20T08:24:22Z</time>
      </trkpt>
      <trkpt lat="48.65491" lon="-3.3949">
        <ele>101</ele>
        <time>2011-02-20T08:24:23Z</time>
      </trkpt>
      <trkpt lat="48.65485" lon="-3.39492">
        <ele>101</ele>
        <time>2011-02-20T08:24:24Z</time>
      </trkpt>
      <trkpt lat="48.65478" lon="-3.39494">
        <ele>101</ele>
        <time>2011-02-20T08:24:25Z</time>
      </trkpt>
      <trkpt lat="48.65471" lon="-3.39495">
        <ele>101</ele>
        <time>2011-02-20T08:24:26Z</time>
      </trkpt>
      <trkpt lat="48.65464" lon="-3.39496">
        <ele>101</ele>
        <time>2011-02-20T08:24:27Z</time>
      </trkpt>
      <trkpt lat="48.65457" lon="-3.39496">
        <ele>101</ele>
        <time>2011-02-20T08:24:28Z</time>
      </trkpt>
      <trkpt lat="48.65451" lon="-3.39497">
        <ele>101</ele>
        <time>2011-02-20T08:24:29Z</time>
      </trkpt>
      <trkpt lat="48.65444" lon="-3.39497">
        <ele>102</ele>
        <time>2011-02-20T08:24:30Z</time>
      </trkpt>
      <trkpt lat="48.65437" lon="-3.39497">
        <ele>102</ele>
        <time>2011-02-20T08:24:31Z</time>
      </trkpt>
      <trkpt lat="48.6543" lon="-3.39496">
        <ele>102</ele>
        <time>2011-02-20T08:24:32Z</time>
      </trkpt>
      <trkpt lat="48.65423" lon="-3.39494">
        <ele>102</ele>
        <time>2011-02-20T08:24:33Z</time>
      </trkpt>
      <trkpt lat="48.65416" lon="-3.39493">
        <ele>102</ele>
        <time>2011-02-20T08:24:34Z</time>
      </trkpt>
      <trkpt lat="48.65409" lon="-3.39491">
        <ele>102</ele>
        <time>2011-02-20T08:24:35Z</time>
      </trkpt>
      <trkpt lat="48.65403" lon="-3.3949">
        <ele>102</ele>
        <time>2011-02-20T08:24:36Z</time>
      </trkpt>
      <trkpt lat="48.65396" lon="-3.39488">
        <ele>102</ele>
        <time>2011-02-20T08:24:37Z</time>
      </trkpt>
      <trkpt lat="48.65389" lon="-3.39486">
        <ele>102</ele>
        <time>2011-02-20T08:24:38Z</time>
      </trkpt>
      <trkpt lat="48.65382" lon="-3.39485">
        <ele>102</ele>
        <time>2011-02-20T08:24:39Z</time>
      </trkpt>
      <trkpt lat="48.65375" lon="-3.39483">
        <ele>102</ele>
        <time>2011-02-20T08:24:40Z</time>
      </trkpt>
      <trkpt lat="48.65368" lon="-3.39481">
        <ele>102</ele>
        <time>2011-02-20T08:24:41Z</time>
      </trkpt>
      <trkpt lat="48.65361" lon="-3.3948">
        <ele>102</ele>
        <time>2011-02-20T08:24:42Z</time>
      </trkpt>
      <trkpt lat="48.65354" lon="-3.39478">
        <ele>102</ele>
        <time>2011-02-20T08:24:43Z</time>
      </trkpt>
      <trkpt lat="48.65347" lon="-3.39477">
        <ele>102</ele>
        <time>2011-02-20T08:24:44Z</time>
      </trkpt>
      <trkpt lat="48.6534" lon="-3.39475">
        <ele>102</ele>
        <time>2011-02-20T08:24:45Z</time>
      </trkpt>
      <trkpt lat="48.65334" lon="-3.39473">
        <ele>102</ele>
        <time>2011-02-20T08:24:46Z</time>
      </trkpt>
      <trkpt lat="48.65327" lon="-3.39472">
        <ele>102</ele>
        <time>2011-02-20T08:24:47Z</time>
      </trkpt>
      <trkpt lat="48.65321" lon="-3.39471">
        <ele>102</ele>
        <time>2011-02-20T08:24:48Z</time>
      </trkpt>
      <trkpt lat="48.65314" lon="-3.39469">
        <ele>102</ele>
        <time>2011-02-20T08:24:49Z</time>
      </trkpt>
      <trkpt lat="48.65307" lon="-3.39468">
        <ele>102</ele>
        <time>2011-02-20T08:24:50Z</time>
      </trkpt>
      <trkpt lat="48.653" lon="-3.39467">
        <ele>102</ele>
        <time>2011-02-20T08:24:51Z</time>
      </trkpt>
      <trkpt lat="48.65294" lon="-3.39465">
        <ele>102</ele>
        <time>2011-02-20T08:24:52Z</time>
      </trkpt>
      <trkpt lat="48.65287" lon="-3.39464">
        <ele>102</ele>
        <time>2011-02-20T08:24:53Z</time>
      </trkpt>
      <trkpt lat="48.6528" lon="-3.39462">
        <ele>102</ele>
        <time>2011-02-20T08:24:54Z</time>
      </trkpt>
      <trkpt lat="48.65273" lon="-3.3946">
        <ele>102</ele>
        <time>2011-02-20T08:24:55Z</time>
      </trkpt>
      <trkpt lat="48.65266" lon="-3.39459">
        <ele>102</ele>
        <time>2011-02-20T08:24:56Z</time>
      </trkpt>
      <trkpt lat="48.65259" lon="-3.39457">
        <ele>102</ele>
        <time>2011-02-20T08:24:57Z</time>
      </trkpt>
      <trkpt lat="48.65252" lon="-3.39456">
        <ele>102</ele>
        <time>2011-02-20T08:24:58Z</time>
      </trkpt>
      <trkpt lat="48.65245" lon="-3.39454">
        <ele>102</ele>
        <time>2011-02-20T08:24:59Z</time>
      </trkpt>
      <trkpt lat="48.65239" lon="-3.39453">
        <ele>102</ele>
        <time>2011-02-20T08:25:00Z</time>
      </trkpt>
      <trkpt lat="48.65232" lon="-3.39451">
        <ele>102</ele>
        <time>2011-02-20T08:25:01Z</time>
      </trkpt>
      <trkpt lat="48.65225" lon="-3.3945">
        <ele>102</ele>
        <time>2011-02-20T08:25:02Z</time>
      </trkpt>
      <trkpt lat="48.65218" lon="-3.39448">
        <ele>102</ele>
        <time>2011-02-20T08:25:03Z</time>
      </trkpt>
      <trkpt lat="48.65212" lon="-3.39447">
        <ele>102</ele>
        <time>2011-02-20T08:25:04Z</time>
      </trkpt>
      <trkpt lat="48.65205" lon="-3.39445">
        <ele>102</ele>
        <time>2011-02-20T08:25:05Z</time>
      </trkpt>
      <trkpt lat="48.65199" lon="-3.39444">
        <ele>102</ele>
        <time>2011-02-20T08:25:06Z</time>
      </trkpt>
      <trkpt lat="48.65192" lon="-3.39442">
        <ele>103</ele>
        <time>2011-02-20T08:25:07Z</time>
      </trkpt>
      <trkpt lat="48.65185" lon="-3.3944">
        <ele>103</ele>
        <time>2011-02-20T08:25:08Z</time>
      </trkpt>
      <trkpt lat="48.65179" lon="-3.39439">
        <ele>103</ele>
        <time>2011-02-20T08:25:09Z</time>
      </trkpt>
      <trkpt lat="48.65172" lon="-3.39437">
        <ele>103</ele>
        <time>2011-02-20T08:25:10Z</time>
      </trkpt>
      <trkpt lat="48.65165" lon="-3.39435">
        <ele>103</ele>
        <time>2011-02-20T08:25:11Z</time>
      </trkpt>
      <trkpt lat="48.65159" lon="-3.39433">
        <ele>103</ele>
        <time>2011-02-20T08:25:12Z</time>
      </trkpt>
      <trkpt lat="48.65152" lon="-3.39432">
        <ele>103</ele>
        <time>2011-02-20T08:25:13Z</time>
      </trkpt>
      <trkpt lat="48.65146" lon="-3.3943">
        <ele>103</ele>
        <time>2011-02-20T08:25:14Z</time>
      </trkpt>
      <trkpt lat="48.65139" lon="-3.39428">
        <ele>103</ele>
        <time>2011-02-20T08:25:15Z</time>
      </trkpt>
      <trkpt lat="48.65133" lon="-3.39426">
        <ele>103</ele>
        <time>2011-02-20T08:25:16Z</time>
      </trkpt>
      <trkpt lat="48.65127" lon="-3.39424">
        <ele>103</ele>
        <time>2011-02-20T08:25:17Z</time>
      </trkpt>
      <trkpt lat="48.65121" lon="-3.39423">
        <ele>103</ele>
        <time>2011-02-20T08:25:18Z</time>
      </trkpt>
      <trkpt lat="48.65115" lon="-3.39421">
        <ele>103</ele>
        <time>2011-02-20T08:25:19Z</time>
      </trkpt>
      <trkpt lat="48.65108" lon="-3.39419">
        <ele>103</ele>
        <time>2011-02-20T08:25:20Z</time>
      </trkpt>
      <trkpt lat="48.65102" lon="-3.39418">
        <ele>103</ele>
        <time>2011-02-20T08:25:21Z</time>
      </trkpt>
      <trkpt lat="48.65096" lon="-3.39416">
        <ele>103</ele>
        <time>2011-02-20T08:25:22Z</time>
      </trkpt>
      <trkpt lat="48.65089" lon="-3.39414">
        <ele>103</ele>
        <time>2011-02-20T08:25:23Z</time>
      </trkpt>
      <trkpt lat="48.65083" lon="-3.39412">
        <ele>103</ele>
        <time>2011-02-20T08:25:24Z</time>
      </trkpt>
      <trkpt lat="48.65077" lon="-3.3941">
        <ele>104</ele>
        <time>2011-02-20T08:25:25Z</time>
      </trkpt>
      <trkpt lat="48.65071" lon="-3.39409">
        <ele>104</ele>
        <time>2011-02-20T08:25:26Z</time>
      </trkpt>
      <trkpt lat="48.65065" lon="-3.39407">
        <ele>104</ele>
        <time>2011-02-20T08:25:27Z</time>
      </trkpt>
      <trkpt lat="48.65058" lon="-3.39406">
        <ele>104</ele>
        <time>2011-02-20T08:25:28Z</time>
      </trkpt>
      <trkpt lat="48.65052" lon="-3.39404">
        <ele>104</ele>
        <time>2011-02-20T08:25:29Z</time>
      </trkpt>
      <trkpt lat="48.65046" lon="-3.39403">
        <ele>104</ele>
        <time>2011-02-20T08:25:30Z</time>
      </trkpt>
      <trkpt lat="48.65041" lon="-3.39402">
        <ele>104</ele>
        <time>2011-02-20T08:25:31Z</time>
      </trkpt>
      <trkpt lat="48.65035" lon="-3.39401">
        <ele>104</ele>
        <time>2011-02-20T08:25:32Z</time>
      </trkpt>
      <trkpt lat="48.6503" lon="-3.39401">
        <ele>104</ele>
        <time>2011-02-20T08:25:33Z</time>
      </trkpt>
      <trkpt lat="48.65024" lon="-3.39401">
        <ele>104</ele>
        <time>2011-02-20T08:25:34Z</time>
      </trkpt>
      <trkpt lat="48.65019" lon="-3.39401">
        <ele>104</ele>
        <time>2011-02-20T08:25:35Z</time>
      </trkpt>
      <trkpt lat="48.65014" lon="-3.39402">
        <ele>104</ele>
        <time>2011-02-20T08:25:36Z</time>
      </trkpt>
      <trkpt lat="48.65009" lon="-3.39402">
        <ele>104</ele>
        <time>2011-02-20T08:25:37Z</time>
      </trkpt>
      <trkpt lat="48.65005" lon="-3.39402">
        <ele>104</ele>
        <time>2011-02-20T08:25:38Z</time>
      </trkpt>
      <trkpt lat="48.64995" lon="-3.39364">
        <ele>104</ele>
        <time>2011-02-20T08:25:46Z</time>
      </trkpt>
      <trkpt lat="48.64996" lon="-3.39355">
        <ele>104</ele>
        <time>2011-02-20T08:25:47Z</time>
      </trkpt>
      <trkpt lat="48.65007" lon="-3.39266">
        <ele>104</ele>
        <time>2011-02-20T08:25:56Z</time>
      </trkpt>
      <trkpt lat="48.65012" lon="-3.39227">
        <ele>104</ele>
        <time>2011-02-20T08:26:00Z</time>
      </trkpt>
      <trkpt lat="48.65013" lon="-3.39217">
        <ele>104</ele>
        <time>2011-02-20T08:26:01Z</time>
      </trkpt>
      <trkpt lat="48.65021" lon="-3.39161">
        <ele>104</ele>
        <time>2011-02-20T08:26:07Z</time>
      </trkpt>
      <trkpt lat="48.65026" lon="-3.39123">
        <ele>104</ele>
        <time>2011-02-20T08:26:11Z</time>
      </trkpt>
      <trkpt lat="48.65027" lon="-3.38976">
        <ele>104</ele>
        <time>2011-02-20T08:26:26Z</time>
      </trkpt>
      <trkpt lat="48.65025" lon="-3.38966">
        <ele>104</ele>
        <time>2011-02-20T08:26:27Z</time>
      </trkpt>
      <trkpt lat="48.65023" lon="-3.38957">
        <ele>104</ele>
        <time>2011-02-20T08:26:28Z</time>
      </trkpt>
      <trkpt lat="48.6502" lon="-3.38948">
        <ele>104</ele>
        <time>2011-02-20T08:26:29Z</time>
      </trkpt>
      <trkpt lat="48.65017" lon="-3.38939">
        <ele>104</ele>
        <time>2011-02-20T08:26:30Z</time>
      </trkpt>
      <trkpt lat="48.65013" lon="-3.38931">
        <ele>104</ele>
        <time>2011-02-20T08:26:31Z</time>
      </trkpt>
      <trkpt lat="48.65009" lon="-3.38923">
        <ele>104</ele>
        <time>2011-02-20T08:26:32Z</time>
      </trkpt>
      <trkpt lat="48.65004" lon="-3.38916">
        <ele>104</ele>
        <time>2011-02-20T08:26:33Z</time>
      </trkpt>
      <trkpt lat="48.64998" lon="-3.3891">
        <ele>104</ele>
        <time>2011-02-20T08:26:34Z</time>
      </trkpt>
      <trkpt lat="48.64992" lon="-3.38904">
        <ele>104</ele>
        <time>2011-02-20T08:26:35Z</time>
      </trkpt>
      <trkpt lat="48.64986" lon="-3.38899">
        <ele>104</ele>
        <time>2011-02-20T08:26:36Z</time>
      </trkpt>
      <trkpt lat="48.6498" lon="-3.38894">
        <ele>104</ele>
        <time>2011-02-20T08:26:37Z</time>
      </trkpt>
      <trkpt lat="48.64973" lon="-3.3889">
        <ele>104</ele>
        <time>2011-02-20T08:26:38Z</time>
      </trkpt>
      <trkpt lat="48.64967" lon="-3.38885">
        <ele>104</ele>
        <time>2011-02-20T08:26:39Z</time>
      </trkpt>
      <trkpt lat="48.64961" lon="-3.3888">
        <ele>104</ele>
        <time>2011-02-20T08:26:40Z</time>
      </trkpt>
      <trkpt lat="48.64955" lon="-3.38875">
        <ele>104</ele>
        <time>2011-02-20T08:26:41Z</time>
      </trkpt>
      <trkpt lat="48.64949" lon="-3.38871">
        <ele>104</ele>
        <time>2011-02-20T08:26:42Z</time>
      </trkpt>
      <trkpt lat="48.64943" lon="-3.38866">
        <ele>104</ele>
        <time>2011-02-20T08:26:43Z</time>
      </trkpt>
      <trkpt lat="48.64937" lon="-3.38862">
        <ele>104</ele>
        <time>2011-02-20T08:26:44Z</time>
      </trkpt>
      <trkpt lat="48.64931" lon="-3.38857">
        <ele>104</ele>
        <time>2011-02-20T08:26:45Z</time>
      </trkpt>
      <trkpt lat="48.64925" lon="-3.38853">
        <ele>104</ele>
        <time>2011-02-20T08:26:46Z</time>
      </trkpt>
      <trkpt lat="48.64919" lon="-3.38848">
        <ele>104</ele>
        <time>2011-02-20T08:26:47Z</time>
      </trkpt>
      <trkpt lat="48.64913" lon="-3.38844">
        <ele>104</ele>
        <time>2011-02-20T08:26:48Z</time>
      </trkpt>
      <trkpt lat="48.64907" lon="-3.38839">
        <ele>104</ele>
        <time>2011-02-20T08:26:49Z</time>
      </trkpt>
      <trkpt lat="48.64901" lon="-3.38835">
        <ele>104</ele>
        <time>2011-02-20T08:26:50Z</time>
      </trkpt>
      <trkpt lat="48.64896" lon="-3.38831">
        <ele>104</ele>
        <time>2011-02-20T08:26:51Z</time>
      </trkpt>
      <trkpt lat="48.64889" lon="-3.38826">
        <ele>104</ele>
        <time>2011-02-20T08:26:52Z</time>
      </trkpt>
      <trkpt lat="48.64883" lon="-3.38822">
        <ele>104</ele>
        <time>2011-02-20T08:26:53Z</time>
      </trkpt>
      <trkpt lat="48.64877" lon="-3.38817">
        <ele>104</ele>
        <time>2011-02-20T08:26:54Z</time>
      </trkpt>
      <trkpt lat="48.64871" lon="-3.38812">
        <ele>104</ele>
        <time>2011-02-20T08:26:55Z</time>
      </trkpt>
      <trkpt lat="48.64864" lon="-3.38808">
        <ele>104</ele>
        <time>2011-02-20T08:26:56Z</time>
      </trkpt>
      <trkpt lat="48.64858" lon="-3.38803">
        <ele>104</ele>
        <time>2011-02-20T08:26:57Z</time>
      </trkpt>
      <trkpt lat="48.64852" lon="-3.38798">
        <ele>104</ele>
        <time>2011-02-20T08:26:58Z</time>
      </trkpt>
      <trkpt lat="48.64846" lon="-3.38792">
        <ele>104</ele>
        <time>2011-02-20T08:26:59Z</time>
      </trkpt>
      <trkpt lat="48.64841" lon="-3.38786">
        <ele>104</ele>
        <time>2011-02-20T08:27:00Z</time>
      </trkpt>
      <trkpt lat="48.64836" lon="-3.38779">
        <ele>104</ele>
        <time>2011-02-20T08:27:01Z</time>
      </trkpt>
      <trkpt lat="48.64831" lon="-3.38772">
        <ele>104</ele>
        <time>2011-02-20T08:27:02Z</time>
      </trkpt>
      <trkpt lat="48.64826" lon="-3.38765">
        <ele>104</ele>
        <time>2011-02-20T08:27:03Z</time>
      </trkpt>
      <trkpt lat="48.64822" lon="-3.38757">
        <ele>104</ele>
        <time>2011-02-20T08:27:04Z</time>
      </trkpt>
      <trkpt lat="48.64817" lon="-3.38749">
        <ele>104</ele>
        <time>2011-02-20T08:27:05Z</time>
      </trkpt>
      <trkpt lat="48.64812" lon="-3.38741">
        <ele>104</ele>
        <time>2011-02-20T08:27:06Z</time>
      </trkpt>
      <trkpt lat="48.64808" lon="-3.38733">
        <ele>104</ele>
        <time>2011-02-20T08:27:07Z</time>
      </trkpt>
      <trkpt lat="48.64803" lon="-3.38724">
        <ele>104</ele>
        <time>2011-02-20T08:27:08Z</time>
      </trkpt>
      <trkpt lat="48.64798" lon="-3.38716">
        <ele>104</ele>
        <time>2011-02-20T08:27:09Z</time>
      </trkpt>
      <trkpt lat="48.64794" lon="-3.38708">
        <ele>104</ele>
        <time>2011-02-20T08:27:10Z</time>
      </trkpt>
      <trkpt lat="48.64789" lon="-3.387">
        <ele>104</ele>
        <time>2011-02-20T08:27:11Z</time>
      </trkpt>
      <trkpt lat="48.64784" lon="-3.38692">
        <ele>104</ele>
        <time>2011-02-20T08:27:12Z</time>
      </trkpt>
      <trkpt lat="48.6478" lon="-3.38685">
        <ele>104</ele>
        <time>2011-02-20T08:27:13Z</time>
      </trkpt>
      <trkpt lat="48.64776" lon="-3.38678">
        <ele>104</ele>
        <time>2011-02-20T08:27:14Z</time>
      </trkpt>
      <trkpt lat="48.64772" lon="-3.38671">
        <ele>104</ele>
        <time>2011-02-20T08:27:15Z</time>
      </trkpt>
      <trkpt lat="48.64768" lon="-3.38664">
        <ele>104</ele>
        <time>2011-02-20T08:27:16Z</time>
      </trkpt>
      <trkpt lat="48.64764" lon="-3.38656">
        <ele>104</ele>
        <time>2011-02-20T08:27:17Z</time>
      </trkpt>
      <trkpt lat="48.6476" lon="-3.38649">
        <ele>104</ele>
        <time>2011-02-20T08:27:18Z</time>
      </trkpt>
      <trkpt lat="48.64756" lon="-3.38642">
        <ele>104</ele>
        <time>2011-02-20T08:27:19Z</time>
      </trkpt>
      <trkpt lat="48.64752" lon="-3.38635">
        <ele>104</ele>
        <time>2011-02-20T08:27:20Z</time>
      </trkpt>
      <trkpt lat="48.64749" lon="-3.38627">
        <ele>104</ele>
        <time>2011-02-20T08:27:21Z</time>
      </trkpt>
      <trkpt lat="48.64745" lon="-3.38619">
        <ele>104</ele>
        <time>2011-02-20T08:27:22Z</time>
      </trkpt>
      <trkpt lat="48.64742" lon="-3.38611">
        <ele>104</ele>
        <time>2011-02-20T08:27:23Z</time>
      </trkpt>
      <trkpt lat="48.64738" lon="-3.38602">
        <ele>104</ele>
        <time>2011-02-20T08:27:24Z</time>
      </trkpt>
      <trkpt lat="48.64735" lon="-3.38593">
        <ele>104</ele>
        <time>2011-02-20T08:27:25Z</time>
      </trkpt>
      <trkpt lat="48.64732" lon="-3.38584">
        <ele>104</ele>
        <time>2011-02-20T08:27:26Z</time>
      </trkpt>
      <trkpt lat="48.64729" lon="-3.38574">
        <ele>104</ele>
        <time>2011-02-20T08:27:27Z</time>
      </trkpt>
      <trkpt lat="48.64725" lon="-3.38565">
        <ele>104</ele>
        <time>2011-02-20T08:27:28Z</time>
      </trkpt>
      <trkpt lat="48.64722" lon="-3.38556">
        <ele>104</ele>
        <time>2011-02-20T08:27:29Z</time>
      </trkpt>
      <trkpt lat="48.64718" lon="-3.38546">
        <ele>104</ele>
        <time>2011-02-20T08:27:30Z</time>
      </trkpt>
      <trkpt lat="48.64714" lon="-3.38537">
        <ele>104</ele>
        <time>2011-02-20T08:27:31Z</time>
      </trkpt>
      <trkpt lat="48.6471" lon="-3.38528">
        <ele>104</ele>
        <time>2011-02-20T08:27:32Z</time>
      </trkpt>
      <trkpt lat="48.64706" lon="-3.38519">
        <ele>104</ele>
        <time>2011-02-20T08:27:33Z</time>
      </trkpt>
      <trkpt lat="48.64701" lon="-3.38509">
        <ele>104</ele>
        <time>2011-02-20T08:27:34Z</time>
      </trkpt>
      <trkpt lat="48.64698" lon="-3.38499">
        <ele>104</ele>
        <time>2011-02-20T08:27:35Z</time>
      </trkpt>
      <trkpt lat="48.64693" lon="-3.38488">
        <ele>104</ele>
        <time>2011-02-20T08:27:36Z</time>
      </trkpt>
      <trkpt lat="48.64689" lon="-3.38478">
        <ele>104</ele>
        <time>2011-02-20T08:27:37Z</time>
      </trkpt>
      <trkpt lat="48.64685" lon="-3.38467">
        <ele>104</ele>
        <time>2011-02-20T08:27:38Z</time>
      </trkpt>
      <trkpt lat="48.6468" lon="-3.38457">
        <ele>104</ele>
        <time>2011-02-20T08:27:39Z</time>
      </trkpt>
      <trkpt lat="48.64675" lon="-3.38446">
        <ele>104</ele>
        <time>2011-02-20T08:27:40Z</time>
      </trkpt>
      <trkpt lat="48.64671" lon="-3.38436">
        <ele>104</ele>
        <time>2011-02-20T08:27:41Z</time>
      </trkpt>
      <trkpt lat="48.64665" lon="-3.38427">
        <ele>104</ele>
        <time>2011-02-20T08:27:42Z</time>
      </trkpt>
      <trkpt lat="48.6466" lon="-3.38417">
        <ele>104</ele>
        <time>2011-02-20T08:27:43Z</time>
      </trkpt>
      <trkpt lat="48.64655" lon="-3.38407">
        <ele>104</ele>
        <time>2011-02-20T08:27:44Z</time>
      </trkpt>
      <trkpt lat="48.64648" lon="-3.38399">
        <ele>104</ele>
        <time>2011-02-20T08:27:45Z</time>
      </trkpt>
      <trkpt lat="48.64642" lon="-3.38391">
        <ele>104</ele>
        <time>2011-02-20T08:27:46Z</time>
      </trkpt>
      <trkpt lat="48.64635" lon="-3.38384">
        <ele>104</ele>
        <time>2011-02-20T08:27:47Z</time>
      </trkpt>
      <trkpt lat="48.64628" lon="-3.38377">
        <ele>104</ele>
        <time>2011-02-20T08:27:48Z</time>
      </trkpt>
      <trkpt lat="48.64621" lon="-3.38371">
        <ele>104</ele>
        <time>2011-02-20T08:27:49Z</time>
      </trkpt>
      <trkpt lat="48.64614" lon="-3.38366">
        <ele>104</ele>
        <time>2011-02-20T08:27:50Z</time>
      </trkpt>
      <trkpt lat="48.64608" lon="-3.38359">
        <ele>104</ele>
        <time>2011-02-20T08:27:51Z</time>
      </trkpt>
      <trkpt lat="48.64602" lon="-3.38353">
        <ele>104</ele>
        <time>2011-02-20T08:27:52Z</time>
      </trkpt>
      <trkpt lat="48.64596" lon="-3.38345">
        <ele>104</ele>
        <time>2011-02-20T08:27:53Z</time>
      </trkpt>
      <trkpt lat="48.64591" lon="-3.38337">
        <ele>104</ele>
        <time>2011-02-20T08:27:54Z</time>
      </trkpt>
      <trkpt lat="48.64587" lon="-3.38328">
        <ele>104</ele>
        <time>2011-02-20T08:27:55Z</time>
      </trkpt>
      <trkpt lat="48.64583" lon="-3.38319">
        <ele>104</ele>
        <time>2011-02-20T08:27:56Z</time>
      </trkpt>
      <trkpt lat="48.64579" lon="-3.3831">
        <ele>104</ele>
        <time>2011-02-20T08:27:57Z</time>
      </trkpt>
      <trkpt lat="48.64576" lon="-3.38299">
        <ele>104</ele>
        <time>2011-02-20T08:27:58Z</time>
      </trkpt>
      <trkpt lat="48.64573" lon="-3.38289">
        <ele>104</ele>
        <time>2011-02-20T08:27:59Z</time>
      </trkpt>
      <trkpt lat="48.6457" lon="-3.38279">
        <ele>104</ele>
        <time>2011-02-20T08:28:00Z</time>
      </trkpt>
      <trkpt lat="48.64566" lon="-3.38258">
        <ele>104</ele>
        <time>2011-02-20T08:28:02Z</time>
      </trkpt>
      <trkpt lat="48.64555" lon="-3.38182">
        <ele>104</ele>
        <time>2011-02-20T08:28:09Z</time>
      </trkpt>
      <trkpt lat="48.64553" lon="-3.3817">
        <ele>104</ele>
        <time>2011-02-20T08:28:10Z</time>
      </trkpt>
      <trkpt lat="48.6455" lon="-3.38158">
        <ele>104</ele>
        <time>2011-02-20T08:28:11Z</time>
      </trkpt>
      <trkpt lat="48.64548" lon="-3.38145">
        <ele>103</ele>
        <time>2011-02-20T08:28:12Z</time>
      </trkpt>
      <trkpt lat="48.64545" lon="-3.38133">
        <ele>103</ele>
        <time>2011-02-20T08:28:13Z</time>
      </trkpt>
      <trkpt lat="48.64543" lon="-3.3812">
        <ele>103</ele>
        <time>2011-02-20T08:28:14Z</time>
      </trkpt>
      <trkpt lat="48.6454" lon="-3.38107">
        <ele>102</ele>
        <time>2011-02-20T08:28:15Z</time>
      </trkpt>
      <trkpt lat="48.64537" lon="-3.38094">
        <ele>102</ele>
        <time>2011-02-20T08:28:16Z</time>
      </trkpt>
      <trkpt lat="48.64533" lon="-3.38082">
        <ele>102</ele>
        <time>2011-02-20T08:28:17Z</time>
      </trkpt>
      <trkpt lat="48.6453" lon="-3.38071">
        <ele>102</ele>
        <time>2011-02-20T08:28:18Z</time>
      </trkpt>
      <trkpt lat="48.64527" lon="-3.3806">
        <ele>102</ele>
        <time>2011-02-20T08:28:19Z</time>
      </trkpt>
      <trkpt lat="48.64524" lon="-3.3805">
        <ele>102</ele>
        <time>2011-02-20T08:28:20Z</time>
      </trkpt>
      <trkpt lat="48.64521" lon="-3.3804">
        <ele>102</ele>
        <time>2011-02-20T08:28:21Z</time>
      </trkpt>
      <trkpt lat="48.64519" lon="-3.3803">
        <ele>102</ele>
        <time>2011-02-20T08:28:22Z</time>
      </trkpt>
      <trkpt lat="48.64516" lon="-3.38021">
        <ele>102</ele>
        <time>2011-02-20T08:28:23Z</time>
      </trkpt>
      <trkpt lat="48.64513" lon="-3.38012">
        <ele>102</ele>
        <time>2011-02-20T08:28:24Z</time>
      </trkpt>
      <trkpt lat="48.64511" lon="-3.38003">
        <ele>102</ele>
        <time>2011-02-20T08:28:25Z</time>
      </trkpt>
      <trkpt lat="48.64508" lon="-3.37994">
        <ele>102</ele>
        <time>2011-02-20T08:28:26Z</time>
      </trkpt>
      <trkpt lat="48.64505" lon="-3.37985">
        <ele>102</ele>
        <time>2011-02-20T08:28:27Z</time>
      </trkpt>
      <trkpt lat="48.64502" lon="-3.37976">
        <ele>102</ele>
        <time>2011-02-20T08:28:28Z</time>
      </trkpt>
      <trkpt lat="48.64499" lon="-3.37967">
        <ele>102</ele>
        <time>2011-02-20T08:28:29Z</time>
      </trkpt>
      <trkpt lat="48.64495" lon="-3.37959">
        <ele>102</ele>
        <time>2011-02-20T08:28:30Z</time>
      </trkpt>
      <trkpt lat="48.64492" lon="-3.3795">
        <ele>102</ele>
        <time>2011-02-20T08:28:31Z</time>
      </trkpt>
      <trkpt lat="48.64487" lon="-3.37942">
        <ele>102</ele>
        <time>2011-02-20T08:28:32Z</time>
      </trkpt>
      <trkpt lat="48.64483" lon="-3.37934">
        <ele>102</ele>
        <time>2011-02-20T08:28:33Z</time>
      </trkpt>
      <trkpt lat="48.64479" lon="-3.37926">
        <ele>102</ele>
        <time>2011-02-20T08:28:34Z</time>
      </trkpt>
      <trkpt lat="48.64474" lon="-3.37919">
        <ele>102</ele>
        <time>2011-02-20T08:28:35Z</time>
      </trkpt>
      <trkpt lat="48.64469" lon="-3.37912">
        <ele>102</ele>
        <time>2011-02-20T08:28:36Z</time>
      </trkpt>
      <trkpt lat="48.64465" lon="-3.37905">
        <ele>102</ele>
        <time>2011-02-20T08:28:37Z</time>
      </trkpt>
      <trkpt lat="48.6446" lon="-3.37899">
        <ele>102</ele>
        <time>2011-02-20T08:28:38Z</time>
      </trkpt>
      <trkpt lat="48.64455" lon="-3.37892">
        <ele>102</ele>
        <time>2011-02-20T08:28:39Z</time>
      </trkpt>
      <trkpt lat="48.6445" lon="-3.37885">
        <ele>102</ele>
        <time>2011-02-20T08:28:40Z</time>
      </trkpt>
      <trkpt lat="48.64445" lon="-3.37879">
        <ele>102</ele>
        <time>2011-02-20T08:28:41Z</time>
      </trkpt>
      <trkpt lat="48.64441" lon="-3.37872">
        <ele>102</ele>
        <time>2011-02-20T08:28:42Z</time>
      </trkpt>
      <trkpt lat="48.64435" lon="-3.37866">
        <ele>102</ele>
        <time>2011-02-20T08:28:43Z</time>
      </trkpt>
      <trkpt lat="48.6443" lon="-3.3786">
        <ele>102</ele>
        <time>2011-02-20T08:28:44Z</time>
      </trkpt>
      <trkpt lat="48.64425" lon="-3.37854">
        <ele>102</ele>
        <time>2011-02-20T08:28:45Z</time>
      </trkpt>
      <trkpt lat="48.6442" lon="-3.37847">
        <ele>102</ele>
        <time>2011-02-20T08:28:46Z</time>
      </trkpt>
      <trkpt lat="48.64414" lon="-3.37841">
        <ele>102</ele>
        <time>2011-02-20T08:28:47Z</time>
      </trkpt>
      <trkpt lat="48.64409" lon="-3.37836">
        <ele>102</ele>
        <time>2011-02-20T08:28:48Z</time>
      </trkpt>
      <trkpt lat="48.64404" lon="-3.3783">
        <ele>102</ele>
        <time>2011-02-20T08:28:49Z</time>
      </trkpt>
      <trkpt lat="48.64399" lon="-3.37824">
        <ele>102</ele>
        <time>2011-02-20T08:28:50Z</time>
      </trkpt>
      <trkpt lat="48.64394" lon="-3.37818">
        <ele>102</ele>
        <time>2011-02-20T08:28:51Z</time>
      </trkpt>
      <trkpt lat="48.64389" lon="-3.37813">
        <ele>102</ele>
        <time>2011-02-20T08:28:52Z</time>
      </trkpt>
      <trkpt lat="48.64383" lon="-3.37807">
        <ele>102</ele>
        <time>2011-02-20T08:28:53Z</time>
      </trkpt>
      <trkpt lat="48.64378" lon="-3.37802">
        <ele>102</ele>
        <time>2011-02-20T08:28:54Z</time>
      </trkpt>
      <trkpt lat="48.64373" lon="-3.37796">
        <ele>102</ele>
        <time>2011-02-20T08:28:55Z</time>
      </trkpt>
      <trkpt lat="48.64369" lon="-3.3779">
        <ele>102</ele>
        <time>2011-02-20T08:28:56Z</time>
      </trkpt>
      <trkpt lat="48.64364" lon="-3.37783">
        <ele>102</ele>
        <time>2011-02-20T08:28:57Z</time>
      </trkpt>
      <trkpt lat="48.6436" lon="-3.37776">
        <ele>102</ele>
        <time>2011-02-20T08:28:58Z</time>
      </trkpt>
      <trkpt lat="48.64355" lon="-3.37769">
        <ele>102</ele>
        <time>2011-02-20T08:28:59Z</time>
      </trkpt>
      <trkpt lat="48.64351" lon="-3.37761">
        <ele>102</ele>
        <time>2011-02-20T08:29:00Z</time>
      </trkpt>
      <trkpt lat="48.64347" lon="-3.37752">
        <ele>102</ele>
        <time>2011-02-20T08:29:01Z</time>
      </trkpt>
      <trkpt lat="48.64343" lon="-3.37742">
        <ele>102</ele>
        <time>2011-02-20T08:29:02Z</time>
      </trkpt>
      <trkpt lat="48.6434" lon="-3.37733">
        <ele>102</ele>
        <time>2011-02-20T08:29:03Z</time>
      </trkpt>
      <trkpt lat="48.64337" lon="-3.37722">
        <ele>102</ele>
        <time>2011-02-20T08:29:04Z</time>
      </trkpt>
      <trkpt lat="48.64334" lon="-3.37711">
        <ele>102</ele>
        <time>2011-02-20T08:29:05Z</time>
      </trkpt>
      <trkpt lat="48.64332" lon="-3.377">
        <ele>102</ele>
        <time>2011-02-20T08:29:06Z</time>
      </trkpt>
      <trkpt lat="48.64329" lon="-3.37688">
        <ele>102</ele>
        <time>2011-02-20T08:29:07Z</time>
      </trkpt>
      <trkpt lat="48.64326" lon="-3.37677">
        <ele>102</ele>
        <time>2011-02-20T08:29:08Z</time>
      </trkpt>
      <trkpt lat="48.64323" lon="-3.37665">
        <ele>102</ele>
        <time>2011-02-20T08:29:09Z</time>
      </trkpt>
      <trkpt lat="48.6432" lon="-3.37653">
        <ele>102</ele>
        <time>2011-02-20T08:29:10Z</time>
      </trkpt>
      <trkpt lat="48.64317" lon="-3.37641">
        <ele>102</ele>
        <time>2011-02-20T08:29:11Z</time>
      </trkpt>
      <trkpt lat="48.64315" lon="-3.37629">
        <ele>102</ele>
        <time>2011-02-20T08:29:12Z</time>
      </trkpt>
      <trkpt lat="48.64312" lon="-3.37617">
        <ele>102</ele>
        <time>2011-02-20T08:29:13Z</time>
      </trkpt>
      <trkpt lat="48.64309" lon="-3.37605">
        <ele>101</ele>
        <time>2011-02-20T08:29:14Z</time>
      </trkpt>
      <trkpt lat="48.64305" lon="-3.3758">
        <ele>100</ele>
        <time>2011-02-20T08:29:16Z</time>
      </trkpt>
      <trkpt lat="48.64303" lon="-3.37567">
        <ele>100</ele>
        <time>2011-02-20T08:29:17Z</time>
      </trkpt>
      <trkpt lat="48.64294" lon="-3.37515">
        <ele>99</ele>
        <time>2011-02-20T08:29:21Z</time>
      </trkpt>
      <trkpt lat="48.6429" lon="-3.37403">
        <ele>99</ele>
        <time>2011-02-20T08:29:33Z</time>
      </trkpt>
      <trkpt lat="48.64291" lon="-3.37396">
        <ele>99</ele>
        <time>2011-02-20T08:29:34Z</time>
      </trkpt>
      <trkpt lat="48.64299" lon="-3.37311">
        <ele>99</ele>
        <time>2011-02-20T08:29:45Z</time>
      </trkpt>
      <trkpt lat="48.64297" lon="-3.37304">
        <ele>99</ele>
        <time>2011-02-20T08:29:46Z</time>
      </trkpt>
      <trkpt lat="48.64295" lon="-3.37299">
        <ele>99</ele>
        <time>2011-02-20T08:29:47Z</time>
      </trkpt>
      <trkpt lat="48.64292" lon="-3.37294">
        <ele>99</ele>
        <time>2011-02-20T08:29:48Z</time>
      </trkpt>
      <trkpt lat="48.64289" lon="-3.37288">
        <ele>99</ele>
        <time>2011-02-20T08:29:49Z</time>
      </trkpt>
      <trkpt lat="48.64286" lon="-3.37283">
        <ele>99</ele>
        <time>2011-02-20T08:29:50Z</time>
      </trkpt>
      <trkpt lat="48.64282" lon="-3.37279">
        <ele>100</ele>
        <time>2011-02-20T08:29:51Z</time>
      </trkpt>
      <trkpt lat="48.64278" lon="-3.37276">
        <ele>100</ele>
        <time>2011-02-20T08:29:52Z</time>
      </trkpt>
      <trkpt lat="48.64273" lon="-3.37273">
        <ele>100</ele>
        <time>2011-02-20T08:29:53Z</time>
      </trkpt>
      <trkpt lat="48.64269" lon="-3.37271">
        <ele>100</ele>
        <time>2011-02-20T08:29:54Z</time>
      </trkpt>
      <trkpt lat="48.64265" lon="-3.3727">
        <ele>101</ele>
        <time>2011-02-20T08:29:55Z</time>
      </trkpt>
      <trkpt lat="48.6426" lon="-3.37269">
        <ele>101</ele>
        <time>2011-02-20T08:29:56Z</time>
      </trkpt>
      <trkpt lat="48.64256" lon="-3.37269">
        <ele>102</ele>
        <time>2011-02-20T08:29:57Z</time>
      </trkpt>
      <trkpt lat="48.64252" lon="-3.3727">
        <ele>102</ele>
        <time>2011-02-20T08:29:58Z</time>
      </trkpt>
      <trkpt lat="48.64248" lon="-3.37271">
        <ele>102</ele>
        <time>2011-02-20T08:29:59Z</time>
      </trkpt>
      <trkpt lat="48.64244" lon="-3.37272">
        <ele>102</ele>
        <time>2011-02-20T08:30:00Z</time>
      </trkpt>
      <trkpt lat="48.64241" lon="-3.37274">
        <ele>102</ele>
        <time>2011-02-20T08:30:01Z</time>
      </trkpt>
      <trkpt lat="48.64236" lon="-3.37276">
        <ele>102</ele>
        <time>2011-02-20T08:30:02Z</time>
      </trkpt>
      <trkpt lat="48.64233" lon="-3.37277">
        <ele>102</ele>
        <time>2011-02-20T08:30:03Z</time>
      </trkpt>
      <trkpt lat="48.64228" lon="-3.3728">
        <ele>103</ele>
        <time>2011-02-20T08:30:04Z</time>
      </trkpt>
      <trkpt lat="48.64224" lon="-3.37282">
        <ele>103</ele>
        <time>2011-02-20T08:30:05Z</time>
      </trkpt>
      <trkpt lat="48.6422" lon="-3.37284">
        <ele>103</ele>
        <time>2011-02-20T08:30:06Z</time>
      </trkpt>
      <trkpt lat="48.64216" lon="-3.37286">
        <ele>103</ele>
        <time>2011-02-20T08:30:07Z</time>
      </trkpt>
      <trkpt lat="48.64212" lon="-3.37288">
        <ele>103</ele>
        <time>2011-02-20T08:30:08Z</time>
      </trkpt>
      <trkpt lat="48.64207" lon="-3.3729">
        <ele>104</ele>
        <time>2011-02-20T08:30:09Z</time>
      </trkpt>
      <trkpt lat="48.64203" lon="-3.37292">
        <ele>104</ele>
        <time>2011-02-20T08:30:10Z</time>
      </trkpt>
      <trkpt lat="48.64199" lon="-3.37293">
        <ele>104</ele>
        <time>2011-02-20T08:30:11Z</time>
      </trkpt>
      <trkpt lat="48.64194" lon="-3.37294">
        <ele>105</ele>
        <time>2011-02-20T08:30:12Z</time>
      </trkpt>
      <trkpt lat="48.6419" lon="-3.37295">
        <ele>105</ele>
        <time>2011-02-20T08:30:13Z</time>
      </trkpt>
      <trkpt lat="48.64186" lon="-3.37295">
        <ele>106</ele>
        <time>2011-02-20T08:30:14Z</time>
      </trkpt>
      <trkpt lat="48.64182" lon="-3.37295">
        <ele>106</ele>
        <time>2011-02-20T08:30:15Z</time>
      </trkpt>
      <trkpt lat="48.64178" lon="-3.37294">
        <ele>107</ele>
        <time>2011-02-20T08:30:16Z</time>
      </trkpt>
      <trkpt lat="48.64174" lon="-3.37292">
        <ele>107</ele>
        <time>2011-02-20T08:30:17Z</time>
      </trkpt>
      <trkpt lat="48.6417" lon="-3.3729">
        <ele>107</ele>
        <time>2011-02-20T08:30:18Z</time>
      </trkpt>
      <trkpt lat="48.64167" lon="-3.37288">
        <ele>107</ele>
        <time>2011-02-20T08:30:19Z</time>
      </trkpt>
      <trkpt lat="48.64164" lon="-3.37285">
        <ele>108</ele>
        <time>2011-02-20T08:30:20Z</time>
      </trkpt>
      <trkpt lat="48.64161" lon="-3.37281">
        <ele>108</ele>
        <time>2011-02-20T08:30:21Z</time>
      </trkpt>
      <trkpt lat="48.64159" lon="-3.37278">
        <ele>108</ele>
        <time>2011-02-20T08:30:22Z</time>
      </trkpt>
      <trkpt lat="48.64156" lon="-3.37274">
        <ele>109</ele>
        <time>2011-02-20T08:30:23Z</time>
      </trkpt>
      <trkpt lat="48.64153" lon="-3.3727">
        <ele>109</ele>
        <time>2011-02-20T08:30:24Z</time>
      </trkpt>
      <trkpt lat="48.6415" lon="-3.37267">
        <ele>109</ele>
        <time>2011-02-20T08:30:25Z</time>
      </trkpt>
      <trkpt lat="48.64148" lon="-3.37263">
        <ele>109</ele>
        <time>2011-02-20T08:30:26Z</time>
      </trkpt>
      <trkpt lat="48.64145" lon="-3.37259">
        <ele>110</ele>
        <time>2011-02-20T08:30:27Z</time>
      </trkpt>
      <trkpt lat="48.64142" lon="-3.37255">
        <ele>110</ele>
        <time>2011-02-20T08:30:28Z</time>
      </trkpt>
      <trkpt lat="48.64139" lon="-3.37251">
        <ele>110</ele>
        <time>2011-02-20T08:30:29Z</time>
      </trkpt>
      <trkpt lat="48.64137" lon="-3.37248">
        <ele>111</ele>
        <time>2011-02-20T08:30:30Z</time>
      </trkpt>
      <trkpt lat="48.64134" lon="-3.37245">
        <ele>111</ele>
        <time>2011-02-20T08:30:31Z</time>
      </trkpt>
      <trkpt lat="48.64131" lon="-3.37241">
        <ele>111</ele>
        <time>2011-02-20T08:30:32Z</time>
      </trkpt>
      <trkpt lat="48.64128" lon="-3.37238">
        <ele>112</ele>
        <time>2011-02-20T08:30:33Z</time>
      </trkpt>
      <trkpt lat="48.64125" lon="-3.37234">
        <ele>112</ele>
        <time>2011-02-20T08:30:34Z</time>
      </trkpt>
      <trkpt lat="48.64114" lon="-3.37202">
        <ele>113</ele>
        <time>2011-02-20T08:30:41Z</time>
      </trkpt>
      <trkpt lat="48.64116" lon="-3.37197">
        <ele>113</ele>
        <time>2011-02-20T08:30:42Z</time>
      </trkpt>
      <trkpt lat="48.64118" lon="-3.37192">
        <ele>114</ele>
        <time>2011-02-20T08:30:43Z</time>
      </trkpt>
      <trkpt lat="48.64121" lon="-3.37188">
        <ele>114</ele>
        <time>2011-02-20T08:30:44Z</time>
      </trkpt>
      <trkpt lat="48.64124" lon="-3.37184">
        <ele>114</ele>
        <time>2011-02-20T08:30:45Z</time>
      </trkpt>
      <trkpt lat="48.64128" lon="-3.3718">
        <ele>114</ele>
        <time>2011-02-20T08:30:46Z</time>
      </trkpt>
      <trkpt lat="48.64131" lon="-3.37177">
        <ele>114</ele>
        <time>2011-02-20T08:30:47Z</time>
      </trkpt>
      <trkpt lat="48.64135" lon="-3.37173">
        <ele>114</ele>
        <time>2011-02-20T08:30:48Z</time>
      </trkpt>
      <trkpt lat="48.64138" lon="-3.37169">
        <ele>114</ele>
        <time>2011-02-20T08:30:49Z</time>
      </trkpt>
      <trkpt lat="48.64142" lon="-3.37165">
        <ele>114</ele>
        <time>2011-02-20T08:30:50Z</time>
      </trkpt>
      <trkpt lat="48.64145" lon="-3.37162">
        <ele>114</ele>
        <time>2011-02-20T08:30:51Z</time>
      </trkpt>
      <trkpt lat="48.64149" lon="-3.37158">
        <ele>114</ele>
        <time>2011-02-20T08:30:52Z</time>
      </trkpt>
      <trkpt lat="48.64152" lon="-3.37154">
        <ele>114</ele>
        <time>2011-02-20T08:30:53Z</time>
      </trkpt>
      <trkpt lat="48.64156" lon="-3.3715">
        <ele>114</ele>
        <time>2011-02-20T08:30:54Z</time>
      </trkpt>
      <trkpt lat="48.64159" lon="-3.37146">
        <ele>114</ele>
        <time>2011-02-20T08:30:55Z</time>
      </trkpt>
      <trkpt lat="48.64163" lon="-3.37141">
        <ele>114</ele>
        <time>2011-02-20T08:30:56Z</time>
      </trkpt>
      <trkpt lat="48.64166" lon="-3.37137">
        <ele>115</ele>
        <time>2011-02-20T08:30:57Z</time>
      </trkpt>
      <trkpt lat="48.6417" lon="-3.37134">
        <ele>115</ele>
        <time>2011-02-20T08:30:58Z</time>
      </trkpt>
      <trkpt lat="48.64174" lon="-3.3713">
        <ele>115</ele>
        <time>2011-02-20T08:30:59Z</time>
      </trkpt>
      <trkpt lat="48.64178" lon="-3.37126">
        <ele>115</ele>
        <time>2011-02-20T08:31:00Z</time>
      </trkpt>
      <trkpt lat="48.64182" lon="-3.37121">
        <ele>115</ele>
        <time>2011-02-20T08:31:01Z</time>
      </trkpt>
      <trkpt lat="48.64185" lon="-3.37116">
        <ele>115</ele>
        <time>2011-02-20T08:31:02Z</time>
      </trkpt>
      <trkpt lat="48.64195" lon="-3.37063">
        <ele>115</ele>
        <time>2011-02-20T08:31:08Z</time>
      </trkpt>
      <trkpt lat="48.64204" lon="-3.36973">
        <ele>114</ele>
        <time>2011-02-20T08:31:15Z</time>
      </trkpt>
      <trkpt lat="48.64206" lon="-3.3696">
        <ele>113</ele>
        <time>2011-02-20T08:31:16Z</time>
      </trkpt>
      <trkpt lat="48.64209" lon="-3.36947">
        <ele>113</ele>
        <time>2011-02-20T08:31:17Z</time>
      </trkpt>
      <trkpt lat="48.64211" lon="-3.36933">
        <ele>112</ele>
        <time>2011-02-20T08:31:18Z</time>
      </trkpt>
      <trkpt lat="48.64214" lon="-3.36919">
        <ele>112</ele>
        <time>2011-02-20T08:31:19Z</time>
      </trkpt>
      <trkpt lat="48.64216" lon="-3.36905">
        <ele>111</ele>
        <time>2011-02-20T08:31:20Z</time>
      </trkpt>
      <trkpt lat="48.64219" lon="-3.36892">
        <ele>111</ele>
        <time>2011-02-20T08:31:21Z</time>
      </trkpt>
      <trkpt lat="48.64222" lon="-3.36878">
        <ele>111</ele>
        <time>2011-02-20T08:31:22Z</time>
      </trkpt>
      <trkpt lat="48.64225" lon="-3.36864">
        <ele>110</ele>
        <time>2011-02-20T08:31:23Z</time>
      </trkpt>
      <trkpt lat="48.64228" lon="-3.3685">
        <ele>110</ele>
        <time>2011-02-20T08:31:24Z</time>
      </trkpt>
      <trkpt lat="48.6423" lon="-3.36836">
        <ele>109</ele>
        <time>2011-02-20T08:31:25Z</time>
      </trkpt>
      <trkpt lat="48.64233" lon="-3.36821">
        <ele>109</ele>
        <time>2011-02-20T08:31:26Z</time>
      </trkpt>
      <trkpt lat="48.64236" lon="-3.36807">
        <ele>108</ele>
        <time>2011-02-20T08:31:26Z</time>
      </trkpt>
      <trkpt lat="48.64238" lon="-3.36792">
        <ele>107</ele>
        <time>2011-02-20T08:31:27Z</time>
      </trkpt>
      <trkpt lat="48.64242" lon="-3.36777">
        <ele>107</ele>
        <time>2011-02-20T08:31:28Z</time>
      </trkpt>
      <trkpt lat="48.64246" lon="-3.36763">
        <ele>106</ele>
        <time>2011-02-20T08:31:29Z</time>
      </trkpt>
      <trkpt lat="48.64251" lon="-3.36748">
        <ele>105</ele>
        <time>2011-02-20T08:31:30Z</time>
      </trkpt>
      <trkpt lat="48.64256" lon="-3.36734">
        <ele>105</ele>
        <time>2011-02-20T08:31:31Z</time>
      </trkpt>
      <trkpt lat="48.64261" lon="-3.36719">
        <ele>104</ele>
        <time>2011-02-20T08:31:32Z</time>
      </trkpt>
      <trkpt lat="48.64265" lon="-3.36704">
        <ele>103</ele>
        <time>2011-02-20T08:31:33Z</time>
      </trkpt>
      <trkpt lat="48.6427" lon="-3.3669">
        <ele>103</ele>
        <time>2011-02-20T08:31:34Z</time>
      </trkpt>
      <trkpt lat="48.64275" lon="-3.36674">
        <ele>102</ele>
        <time>2011-02-20T08:31:35Z</time>
      </trkpt>
      <trkpt lat="48.64279" lon="-3.36659">
        <ele>101</ele>
        <time>2011-02-20T08:31:36Z</time>
      </trkpt>
      <trkpt lat="48.64283" lon="-3.36642">
        <ele>101</ele>
        <time>2011-02-20T08:31:37Z</time>
      </trkpt>
      <trkpt lat="48.64288" lon="-3.36625">
        <ele>100</ele>
        <time>2011-02-20T08:31:38Z</time>
      </trkpt>
      <trkpt lat="48.64292" lon="-3.36607">
        <ele>99</ele>
        <time>2011-02-20T08:31:39Z</time>
      </trkpt>
      <trkpt lat="48.64296" lon="-3.36589">
        <ele>98</ele>
        <time>2011-02-20T08:31:40Z</time>
      </trkpt>
      <trkpt lat="48.64301" lon="-3.3657">
        <ele>97</ele>
        <time>2011-02-20T08:31:41Z</time>
      </trkpt>
      <trkpt lat="48.64305" lon="-3.36551">
        <ele>96</ele>
        <time>2011-02-20T08:31:42Z</time>
      </trkpt>
      <trkpt lat="48.64309" lon="-3.36531">
        <ele>95</ele>
        <time>2011-02-20T08:31:43Z</time>
      </trkpt>
      <trkpt lat="48.64314" lon="-3.36511">
        <ele>94</ele>
        <time>2011-02-20T08:31:44Z</time>
      </trkpt>
      <trkpt lat="48.64318" lon="-3.36492">
        <ele>93</ele>
        <time>2011-02-20T08:31:45Z</time>
      </trkpt>
      <trkpt lat="48.64323" lon="-3.36472">
        <ele>92</ele>
        <time>2011-02-20T08:31:46Z</time>
      </trkpt>
      <trkpt lat="48.64329" lon="-3.36452">
        <ele>91</ele>
        <time>2011-02-20T08:31:47Z</time>
      </trkpt>
      <trkpt lat="48.64334" lon="-3.36433">
        <ele>90</ele>
        <time>2011-02-20T08:31:48Z</time>
      </trkpt>
      <trkpt lat="48.64339" lon="-3.36414">
        <ele>89</ele>
        <time>2011-02-20T08:31:49Z</time>
      </trkpt>
      <trkpt lat="48.64344" lon="-3.36395">
        <ele>88</ele>
        <time>2011-02-20T08:31:50Z</time>
      </trkpt>
      <trkpt lat="48.64349" lon="-3.36376">
        <ele>87</ele>
        <time>2011-02-20T08:31:51Z</time>
      </trkpt>
      <trkpt lat="48.64353" lon="-3.36358">
        <ele>87</ele>
        <time>2011-02-20T08:31:52Z</time>
      </trkpt>
      <trkpt lat="48.64357" lon="-3.3634">
        <ele>87</ele>
        <time>2011-02-20T08:31:53Z</time>
      </trkpt>
      <trkpt lat="48.64364" lon="-3.36293">
        <ele>87</ele>
        <time>2011-02-20T08:31:57Z</time>
      </trkpt>
      <trkpt lat="48.64366" lon="-3.36279">
        <ele>87</ele>
        <time>2011-02-20T08:31:58Z</time>
      </trkpt>
      <trkpt lat="48.6437" lon="-3.36245">
        <ele>87</ele>
        <time>2011-02-20T08:32:01Z</time>
      </trkpt>
      <trkpt lat="48.64379" lon="-3.36167">
        <ele>90</ele>
        <time>2011-02-20T08:32:12Z</time>
      </trkpt>
      <trkpt lat="48.64381" lon="-3.3616">
        <ele>90</ele>
        <time>2011-02-20T08:32:13Z</time>
      </trkpt>
      <trkpt lat="48.64383" lon="-3.36153">
        <ele>91</ele>
        <time>2011-02-20T08:32:14Z</time>
      </trkpt>
      <trkpt lat="48.64385" lon="-3.36146">
        <ele>91</ele>
        <time>2011-02-20T08:32:15Z</time>
      </trkpt>
      <trkpt lat="48.64388" lon="-3.36139">
        <ele>91</ele>
        <time>2011-02-20T08:32:16Z</time>
      </trkpt>
      <trkpt lat="48.6439" lon="-3.36133">
        <ele>91</ele>
        <time>2011-02-20T08:32:17Z</time>
      </trkpt>
      <trkpt lat="48.64393" lon="-3.36126">
        <ele>92</ele>
        <time>2011-02-20T08:32:18Z</time>
      </trkpt>
      <trkpt lat="48.64395" lon="-3.3612">
        <ele>92</ele>
        <time>2011-02-20T08:32:19Z</time>
      </trkpt>
      <trkpt lat="48.64398" lon="-3.36113">
        <ele>92</ele>
        <time>2011-02-20T08:32:20Z</time>
      </trkpt>
      <trkpt lat="48.64404" lon="-3.36091">
        <ele>93</ele>
        <time>2011-02-20T08:32:23Z</time>
      </trkpt>
      <trkpt lat="48.64406" lon="-3.36083">
        <ele>93</ele>
        <time>2011-02-20T08:32:24Z</time>
      </trkpt>
      <trkpt lat="48.64417" lon="-3.36015">
        <ele>94</ele>
        <time>2011-02-20T08:32:32Z</time>
      </trkpt>
      <trkpt lat="48.64419" lon="-3.36007">
        <ele>94</ele>
        <time>2011-02-20T08:32:33Z</time>
      </trkpt>
      <trkpt lat="48.64421" lon="-3.35999">
        <ele>94</ele>
        <time>2011-02-20T08:32:34Z</time>
      </trkpt>
      <trkpt lat="48.64423" lon="-3.3599">
        <ele>94</ele>
        <time>2011-02-20T08:32:35Z</time>
      </trkpt>
      <trkpt lat="48.64426" lon="-3.35982">
        <ele>94</ele>
        <time>2011-02-20T08:32:36Z</time>
      </trkpt>
      <trkpt lat="48.64429" lon="-3.35974">
        <ele>94</ele>
        <time>2011-02-20T08:32:37Z</time>
      </trkpt>
      <trkpt lat="48.64431" lon="-3.35966">
        <ele>94</ele>
        <time>2011-02-20T08:32:38Z</time>
      </trkpt>
      <trkpt lat="48.64434" lon="-3.35959">
        <ele>94</ele>
        <time>2011-02-20T08:32:39Z</time>
      </trkpt>
      <trkpt lat="48.64437" lon="-3.35951">
        <ele>94</ele>
        <time>2011-02-20T08:32:40Z</time>
      </trkpt>
      <trkpt lat="48.6444" lon="-3.35944">
        <ele>94</ele>
        <time>2011-02-20T08:32:41Z</time>
      </trkpt>
      <trkpt lat="48.64443" lon="-3.35936">
        <ele>94</ele>
        <time>2011-02-20T08:32:42Z</time>
      </trkpt>
      <trkpt lat="48.64446" lon="-3.35929">
        <ele>94</ele>
        <time>2011-02-20T08:32:43Z</time>
      </trkpt>
      <trkpt lat="48.64449" lon="-3.35922">
        <ele>94</ele>
        <time>2011-02-20T08:32:44Z</time>
      </trkpt>
      <trkpt lat="48.64452" lon="-3.35915">
        <ele>94</ele>
        <time>2011-02-20T08:32:45Z</time>
      </trkpt>
      <trkpt lat="48.64455" lon="-3.35908">
        <ele>94</ele>
        <time>2011-02-20T08:32:46Z</time>
      </trkpt>
      <trkpt lat="48.64458" lon="-3.35901">
        <ele>94</ele>
        <time>2011-02-20T08:32:47Z</time>
      </trkpt>
      <trkpt lat="48.64461" lon="-3.35894">
        <ele>94</ele>
        <time>2011-02-20T08:32:48Z</time>
      </trkpt>
      <trkpt lat="48.64465" lon="-3.35886">
        <ele>94</ele>
        <time>2011-02-20T08:32:49Z</time>
      </trkpt>
      <trkpt lat="48.64468" lon="-3.35879">
        <ele>95</ele>
        <time>2011-02-20T08:32:50Z</time>
      </trkpt>
      <trkpt lat="48.64472" lon="-3.35873">
        <ele>95</ele>
        <time>2011-02-20T08:32:51Z</time>
      </trkpt>
      <trkpt lat="48.64476" lon="-3.35866">
        <ele>95</ele>
        <time>2011-02-20T08:32:52Z</time>
      </trkpt>
      <trkpt lat="48.64479" lon="-3.35859">
        <ele>95</ele>
        <time>2011-02-20T08:32:53Z</time>
      </trkpt>
      <trkpt lat="48.64483" lon="-3.35853">
        <ele>95</ele>
        <time>2011-02-20T08:32:54Z</time>
      </trkpt>
      <trkpt lat="48.64487" lon="-3.35846">
        <ele>95</ele>
        <time>2011-02-20T08:32:55Z</time>
      </trkpt>
      <trkpt lat="48.6449" lon="-3.35839">
        <ele>95</ele>
        <time>2011-02-20T08:32:56Z</time>
      </trkpt>
      <trkpt lat="48.64494" lon="-3.35833">
        <ele>95</ele>
        <time>2011-02-20T08:32:57Z</time>
      </trkpt>
      <trkpt lat="48.64497" lon="-3.35825">
        <ele>95</ele>
        <time>2011-02-20T08:32:58Z</time>
      </trkpt>
      <trkpt lat="48.64501" lon="-3.35818">
        <ele>96</ele>
        <time>2011-02-20T08:32:59Z</time>
      </trkpt>
      <trkpt lat="48.64504" lon="-3.35811">
        <ele>96</ele>
        <time>2011-02-20T08:33:00Z</time>
      </trkpt>
      <trkpt lat="48.64507" lon="-3.35804">
        <ele>96</ele>
        <time>2011-02-20T08:33:01Z</time>
      </trkpt>
      <trkpt lat="48.6451" lon="-3.35796">
        <ele>96</ele>
        <time>2011-02-20T08:33:02Z</time>
      </trkpt>
      <trkpt lat="48.64513" lon="-3.35788">
        <ele>96</ele>
        <time>2011-02-20T08:33:03Z</time>
      </trkpt>
      <trkpt lat="48.64515" lon="-3.3578">
        <ele>96</ele>
        <time>2011-02-20T08:33:04Z</time>
      </trkpt>
      <trkpt lat="48.64522" lon="-3.35756">
        <ele>96</ele>
        <time>2011-02-20T08:33:07Z</time>
      </trkpt>
      <trkpt lat="48.64532" lon="-3.35712">
        <ele>97</ele>
        <time>2011-02-20T08:33:12Z</time>
      </trkpt>
      <trkpt lat="48.64536" lon="-3.35694">
        <ele>97</ele>
        <time>2011-02-20T08:33:14Z</time>
      </trkpt>
      <trkpt lat="48.64538" lon="-3.35685">
        <ele>97</ele>
        <time>2011-02-20T08:33:15Z</time>
      </trkpt>
      <trkpt lat="48.6454" lon="-3.35677">
        <ele>97</ele>
        <time>2011-02-20T08:33:16Z</time>
      </trkpt>
      <trkpt lat="48.64543" lon="-3.35668">
        <ele>97</ele>
        <time>2011-02-20T08:33:17Z</time>
      </trkpt>
      <trkpt lat="48.64546" lon="-3.3566">
        <ele>97</ele>
        <time>2011-02-20T08:33:18Z</time>
      </trkpt>
      <trkpt lat="48.64549" lon="-3.35652">
        <ele>97</ele>
        <time>2011-02-20T08:33:19Z</time>
      </trkpt>
      <trkpt lat="48.64552" lon="-3.35644">
        <ele>97</ele>
        <time>2011-02-20T08:33:20Z</time>
      </trkpt>
      <trkpt lat="48.64555" lon="-3.35636">
        <ele>97</ele>
        <time>2011-02-20T08:33:21Z</time>
      </trkpt>
      <trkpt lat="48.64559" lon="-3.35628">
        <ele>97</ele>
        <time>2011-02-20T08:33:22Z</time>
      </trkpt>
      <trkpt lat="48.64563" lon="-3.3562">
        <ele>97</ele>
        <time>2011-02-20T08:33:23Z</time>
      </trkpt>
      <trkpt lat="48.64566" lon="-3.35612">
        <ele>97</ele>
        <time>2011-02-20T08:33:24Z</time>
      </trkpt>
      <trkpt lat="48.6457" lon="-3.35604">
        <ele>97</ele>
        <time>2011-02-20T08:33:25Z</time>
      </trkpt>
      <trkpt lat="48.64574" lon="-3.35596">
        <ele>97</ele>
        <time>2011-02-20T08:33:26Z</time>
      </trkpt>
      <trkpt lat="48.64578" lon="-3.35589">
        <ele>97</ele>
        <time>2011-02-20T08:33:27Z</time>
      </trkpt>
      <trkpt lat="48.64582" lon="-3.35581">
        <ele>97</ele>
        <time>2011-02-20T08:33:28Z</time>
      </trkpt>
      <trkpt lat="48.64587" lon="-3.35574">
        <ele>97</ele>
        <time>2011-02-20T08:33:29Z</time>
      </trkpt>
      <trkpt lat="48.6459" lon="-3.35565">
        <ele>97</ele>
        <time>2011-02-20T08:33:30Z</time>
      </trkpt>
      <trkpt lat="48.64594" lon="-3.35557">
        <ele>97</ele>
        <time>2011-02-20T08:33:31Z</time>
      </trkpt>
      <trkpt lat="48.64597" lon="-3.35548">
        <ele>97</ele>
        <time>2011-02-20T08:33:32Z</time>
      </trkpt>
      <trkpt lat="48.646" lon="-3.3554">
        <ele>97</ele>
        <time>2011-02-20T08:33:33Z</time>
      </trkpt>
      <trkpt lat="48.64603" lon="-3.35531">
        <ele>97</ele>
        <time>2011-02-20T08:33:34Z</time>
      </trkpt>
      <trkpt lat="48.64606" lon="-3.35522">
        <ele>97</ele>
        <time>2011-02-20T08:33:35Z</time>
      </trkpt>
      <trkpt lat="48.64609" lon="-3.35513">
        <ele>97</ele>
        <time>2011-02-20T08:33:36Z</time>
      </trkpt>
      <trkpt lat="48.64613" lon="-3.35504">
        <ele>97</ele>
        <time>2011-02-20T08:33:37Z</time>
      </trkpt>
      <trkpt lat="48.64616" lon="-3.35496">
        <ele>97</ele>
        <time>2011-02-20T08:33:38Z</time>
      </trkpt>
      <trkpt lat="48.64619" lon="-3.35487">
        <ele>97</ele>
        <time>2011-02-20T08:33:39Z</time>
      </trkpt>
      <trkpt lat="48.64622" lon="-3.35478">
        <ele>97</ele>
        <time>2011-02-20T08:33:40Z</time>
      </trkpt>
      <trkpt lat="48.64626" lon="-3.35469">
        <ele>97</ele>
        <time>2011-02-20T08:33:41Z</time>
      </trkpt>
      <trkpt lat="48.64629" lon="-3.3546">
        <ele>97</ele>
        <time>2011-02-20T08:33:42Z</time>
      </trkpt>
      <trkpt lat="48.64632" lon="-3.35452">
        <ele>97</ele>
        <time>2011-02-20T08:33:43Z</time>
      </trkpt>
      <trkpt lat="48.64635" lon="-3.35443">
        <ele>97</ele>
        <time>2011-02-20T08:33:44Z</time>
      </trkpt>
      <trkpt lat="48.64639" lon="-3.35435">
        <ele>97</ele>
        <time>2011-02-20T08:33:45Z</time>
      </trkpt>
      <trkpt lat="48.64642" lon="-3.35426">
        <ele>97</ele>
        <time>2011-02-20T08:33:46Z</time>
      </trkpt>
      <trkpt lat="48.64645" lon="-3.35418">
        <ele>97</ele>
        <time>2011-02-20T08:33:47Z</time>
      </trkpt>
      <trkpt lat="48.64648" lon="-3.35409">
        <ele>97</ele>
        <time>2011-02-20T08:33:48Z</time>
      </trkpt>
      <trkpt lat="48.64652" lon="-3.35401">
        <ele>97</ele>
        <time>2011-02-20T08:33:49Z</time>
      </trkpt>
      <trkpt lat="48.64655" lon="-3.35393">
        <ele>97</ele>
        <time>2011-02-20T08:33:50Z</time>
      </trkpt>
      <trkpt lat="48.64658" lon="-3.35385">
        <ele>97</ele>
        <time>2011-02-20T08:33:51Z</time>
      </trkpt>
      <trkpt lat="48.64661" lon="-3.35377">
        <ele>97</ele>
        <time>2011-02-20T08:33:52Z</time>
      </trkpt>
      <trkpt lat="48.64664" lon="-3.35368">
        <ele>97</ele>
        <time>2011-02-20T08:33:53Z</time>
      </trkpt>
      <trkpt lat="48.64667" lon="-3.3536">
        <ele>97</ele>
        <time>2011-02-20T08:33:54Z</time>
      </trkpt>
      <trkpt lat="48.6467" lon="-3.35351">
        <ele>97</ele>
        <time>2011-02-20T08:33:55Z</time>
      </trkpt>
      <trkpt lat="48.64674" lon="-3.35332">
        <ele>97</ele>
        <time>2011-02-20T08:33:57Z</time>
      </trkpt>
      <trkpt lat="48.64676" lon="-3.35323">
        <ele>97</ele>
        <time>2011-02-20T08:33:58Z</time>
      </trkpt>
      <trkpt lat="48.64698" lon="-3.35177">
        <ele>97</ele>
        <time>2011-02-20T08:34:13Z</time>
      </trkpt>
      <trkpt lat="48.647" lon="-3.35167">
        <ele>97</ele>
        <time>2011-02-20T08:34:14Z</time>
      </trkpt>
      <trkpt lat="48.64702" lon="-3.35157">
        <ele>97</ele>
        <time>2011-02-20T08:34:15Z</time>
      </trkpt>
      <trkpt lat="48.64705" lon="-3.35148">
        <ele>97</ele>
        <time>2011-02-20T08:34:16Z</time>
      </trkpt>
      <trkpt lat="48.64709" lon="-3.3513">
        <ele>97</ele>
        <time>2011-02-20T08:34:18Z</time>
      </trkpt>
      <trkpt lat="48.64714" lon="-3.35111">
        <ele>97</ele>
        <time>2011-02-20T08:34:20Z</time>
      </trkpt>
      <trkpt lat="48.64716" lon="-3.35102">
        <ele>97</ele>
        <time>2011-02-20T08:34:21Z</time>
      </trkpt>
      <trkpt lat="48.64718" lon="-3.35093">
        <ele>97</ele>
        <time>2011-02-20T08:34:22Z</time>
      </trkpt>
      <trkpt lat="48.6472" lon="-3.35084">
        <ele>97</ele>
        <time>2011-02-20T08:34:23Z</time>
      </trkpt>
      <trkpt lat="48.64722" lon="-3.35074">
        <ele>97</ele>
        <time>2011-02-20T08:34:24Z</time>
      </trkpt>
      <trkpt lat="48.64725" lon="-3.35065">
        <ele>97</ele>
        <time>2011-02-20T08:34:25Z</time>
      </trkpt>
      <trkpt lat="48.64727" lon="-3.35055">
        <ele>97</ele>
        <time>2011-02-20T08:34:26Z</time>
      </trkpt>
      <trkpt lat="48.64729" lon="-3.35046">
        <ele>97</ele>
        <time>2011-02-20T08:34:27Z</time>
      </trkpt>
      <trkpt lat="48.64732" lon="-3.35037">
        <ele>97</ele>
        <time>2011-02-20T08:34:28Z</time>
      </trkpt>
      <trkpt lat="48.64734" lon="-3.35027">
        <ele>97</ele>
        <time>2011-02-20T08:34:29Z</time>
      </trkpt>
      <trkpt lat="48.64736" lon="-3.35018">
        <ele>97</ele>
        <time>2011-02-20T08:34:30Z</time>
      </trkpt>
      <trkpt lat="48.64738" lon="-3.35008">
        <ele>97</ele>
        <time>2011-02-20T08:34:31Z</time>
      </trkpt>
      <trkpt lat="48.64741" lon="-3.34999">
        <ele>97</ele>
        <time>2011-02-20T08:34:32Z</time>
      </trkpt>
      <trkpt lat="48.64743" lon="-3.34989">
        <ele>97</ele>
        <time>2011-02-20T08:34:33Z</time>
      </trkpt>
      <trkpt lat="48.64745" lon="-3.3498">
        <ele>98</ele>
        <time>2011-02-20T08:34:34Z</time>
      </trkpt>
      <trkpt lat="48.64748" lon="-3.34971">
        <ele>98</ele>
        <time>2011-02-20T08:34:35Z</time>
      </trkpt>
      <trkpt lat="48.6475" lon="-3.34962">
        <ele>98</ele>
        <time>2011-02-20T08:34:36Z</time>
      </trkpt>
      <trkpt lat="48.64753" lon="-3.34952">
        <ele>98</ele>
        <time>2011-02-20T08:34:37Z</time>
      </trkpt>
      <trkpt lat="48.64755" lon="-3.34944">
        <ele>98</ele>
        <time>2011-02-20T08:34:38Z</time>
      </trkpt>
      <trkpt lat="48.64757" lon="-3.34934">
        <ele>99</ele>
        <time>2011-02-20T08:34:39Z</time>
      </trkpt>
      <trkpt lat="48.64759" lon="-3.34926">
        <ele>99</ele>
        <time>2011-02-20T08:34:40Z</time>
      </trkpt>
      <trkpt lat="48.64762" lon="-3.34917">
        <ele>99</ele>
        <time>2011-02-20T08:34:41Z</time>
      </trkpt>
      <trkpt lat="48.64764" lon="-3.34909">
        <ele>99</ele>
        <time>2011-02-20T08:34:42Z</time>
      </trkpt>
      <trkpt lat="48.64766" lon="-3.34901">
        <ele>99</ele>
        <time>2011-02-20T08:34:43Z</time>
      </trkpt>
      <trkpt lat="48.64769" lon="-3.34893">
        <ele>100</ele>
        <time>2011-02-20T08:34:44Z</time>
      </trkpt>
      <trkpt lat="48.64771" lon="-3.34885">
        <ele>100</ele>
        <time>2011-02-20T08:34:45Z</time>
      </trkpt>
      <trkpt lat="48.64774" lon="-3.34877">
        <ele>100</ele>
        <time>2011-02-20T08:34:46Z</time>
      </trkpt>
      <trkpt lat="48.64777" lon="-3.3487">
        <ele>100</ele>
        <time>2011-02-20T08:34:47Z</time>
      </trkpt>
      <trkpt lat="48.6478" lon="-3.34862">
        <ele>100</ele>
        <time>2011-02-20T08:34:48Z</time>
      </trkpt>
      <trkpt lat="48.64782" lon="-3.34854">
        <ele>100</ele>
        <time>2011-02-20T08:34:49Z</time>
      </trkpt>
      <trkpt lat="48.64786" lon="-3.34846">
        <ele>101</ele>
        <time>2011-02-20T08:34:50Z</time>
      </trkpt>
      <trkpt lat="48.6479" lon="-3.34839">
        <ele>101</ele>
        <time>2011-02-20T08:34:51Z</time>
      </trkpt>
      <trkpt lat="48.64794" lon="-3.34832">
        <ele>101</ele>
        <time>2011-02-20T08:34:52Z</time>
      </trkpt>
      <trkpt lat="48.64798" lon="-3.34826">
        <ele>101</ele>
        <time>2011-02-20T08:34:53Z</time>
      </trkpt>
      <trkpt lat="48.64803" lon="-3.34821">
        <ele>101</ele>
        <time>2011-02-20T08:34:54Z</time>
      </trkpt>
      <trkpt lat="48.64809" lon="-3.34816">
        <ele>101</ele>
        <time>2011-02-20T08:34:55Z</time>
      </trkpt>
      <trkpt lat="48.64814" lon="-3.34811">
        <ele>101</ele>
        <time>2011-02-20T08:34:56Z</time>
      </trkpt>
      <trkpt lat="48.6482" lon="-3.34806">
        <ele>101</ele>
        <time>2011-02-20T08:34:57Z</time>
      </trkpt>
      <trkpt lat="48.64825" lon="-3.34802">
        <ele>101</ele>
        <time>2011-02-20T08:34:58Z</time>
      </trkpt>
      <trkpt lat="48.6483" lon="-3.34797">
        <ele>101</ele>
        <time>2011-02-20T08:34:59Z</time>
      </trkpt>
      <trkpt lat="48.64836" lon="-3.34793">
        <ele>101</ele>
        <time>2011-02-20T08:35:00Z</time>
      </trkpt>
      <trkpt lat="48.64841" lon="-3.34788">
        <ele>101</ele>
        <time>2011-02-20T08:35:01Z</time>
      </trkpt>
      <trkpt lat="48.64847" lon="-3.34784">
        <ele>101</ele>
        <time>2011-02-20T08:35:02Z</time>
      </trkpt>
      <trkpt lat="48.64853" lon="-3.3478">
        <ele>101</ele>
        <time>2011-02-20T08:35:03Z</time>
      </trkpt>
      <trkpt lat="48.64859" lon="-3.34776">
        <ele>101</ele>
        <time>2011-02-20T08:35:04Z</time>
      </trkpt>
      <trkpt lat="48.64864" lon="-3.34772">
        <ele>102</ele>
        <time>2011-02-20T08:35:05Z</time>
      </trkpt>
      <trkpt lat="48.64871" lon="-3.34769">
        <ele>102</ele>
        <time>2011-02-20T08:35:06Z</time>
      </trkpt>
      <trkpt lat="48.64877" lon="-3.34766">
        <ele>102</ele>
        <time>2011-02-20T08:35:07Z</time>
      </trkpt>
      <trkpt lat="48.64884" lon="-3.34764">
        <ele>102</ele>
        <time>2011-02-20T08:35:08Z</time>
      </trkpt>
      <trkpt lat="48.64891" lon="-3.34762">
        <ele>102</ele>
        <time>2011-02-20T08:35:09Z</time>
      </trkpt>
      <trkpt lat="48.64898" lon="-3.34759">
        <ele>102</ele>
        <time>2011-02-20T08:35:10Z</time>
      </trkpt>
      <trkpt lat="48.64904" lon="-3.34757">
        <ele>102</ele>
        <time>2011-02-20T08:35:11Z</time>
      </trkpt>
      <trkpt lat="48.64912" lon="-3.34755">
        <ele>102</ele>
        <time>2011-02-20T08:35:12Z</time>
      </trkpt>
      <trkpt lat="48.64919" lon="-3.34753">
        <ele>102</ele>
        <time>2011-02-20T08:35:13Z</time>
      </trkpt>
      <trkpt lat="48.64925" lon="-3.3475">
        <ele>102</ele>
        <time>2011-02-20T08:35:14Z</time>
      </trkpt>
      <trkpt lat="48.64932" lon="-3.34748">
        <ele>102</ele>
        <time>2011-02-20T08:35:15Z</time>
      </trkpt>
      <trkpt lat="48.64939" lon="-3.34745">
        <ele>102</ele>
        <time>2011-02-20T08:35:16Z</time>
      </trkpt>
      <trkpt lat="48.64946" lon="-3.34741">
        <ele>102</ele>
        <time>2011-02-20T08:35:17Z</time>
      </trkpt>
      <trkpt lat="48.64952" lon="-3.34738">
        <ele>102</ele>
        <time>2011-02-20T08:35:18Z</time>
      </trkpt>
      <trkpt lat="48.64959" lon="-3.34734">
        <ele>102</ele>
        <time>2011-02-20T08:35:19Z</time>
      </trkpt>
      <trkpt lat="48.64965" lon="-3.3473">
        <ele>102</ele>
        <time>2011-02-20T08:35:20Z</time>
      </trkpt>
      <trkpt lat="48.64972" lon="-3.34726">
        <ele>102</ele>
        <time>2011-02-20T08:35:21Z</time>
      </trkpt>
      <trkpt lat="48.64978" lon="-3.34722">
        <ele>102</ele>
        <time>2011-02-20T08:35:22Z</time>
      </trkpt>
      <trkpt lat="48.64985" lon="-3.34717">
        <ele>102</ele>
        <time>2011-02-20T08:35:23Z</time>
      </trkpt>
      <trkpt lat="48.64992" lon="-3.34713">
        <ele>102</ele>
        <time>2011-02-20T08:35:24Z</time>
      </trkpt>
      <trkpt lat="48.64998" lon="-3.34708">
        <ele>103</ele>
        <time>2011-02-20T08:35:25Z</time>
      </trkpt>
      <trkpt lat="48.65005" lon="-3.34703">
        <ele>103</ele>
        <time>2011-02-20T08:35:26Z</time>
      </trkpt>
      <trkpt lat="48.65011" lon="-3.34699">
        <ele>103</ele>
        <time>2011-02-20T08:35:27Z</time>
      </trkpt>
      <trkpt lat="48.65018" lon="-3.34694">
        <ele>103</ele>
        <time>2011-02-20T08:35:28Z</time>
      </trkpt>
      <trkpt lat="48.65025" lon="-3.3469">
        <ele>103</ele>
        <time>2011-02-20T08:35:29Z</time>
      </trkpt>
      <trkpt lat="48.65031" lon="-3.34686">
        <ele>103</ele>
        <time>2011-02-20T08:35:30Z</time>
      </trkpt>
      <trkpt lat="48.65038" lon="-3.34683">
        <ele>103</ele>
        <time>2011-02-20T08:35:31Z</time>
      </trkpt>
      <trkpt lat="48.65045" lon="-3.34679">
        <ele>103</ele>
        <time>2011-02-20T08:35:32Z</time>
      </trkpt>
      <trkpt lat="48.65052" lon="-3.34676">
        <ele>103</ele>
        <time>2011-02-20T08:35:33Z</time>
      </trkpt>
      <trkpt lat="48.65059" lon="-3.34673">
        <ele>103</ele>
        <time>2011-02-20T08:35:34Z</time>
      </trkpt>
      <trkpt lat="48.65065" lon="-3.34669">
        <ele>103</ele>
        <time>2011-02-20T08:35:35Z</time>
      </trkpt>
      <trkpt lat="48.65072" lon="-3.34666">
        <ele>103</ele>
        <time>2011-02-20T08:35:36Z</time>
      </trkpt>
      <trkpt lat="48.65079" lon="-3.34662">
        <ele>103</ele>
        <time>2011-02-20T08:35:37Z</time>
      </trkpt>
      <trkpt lat="48.65086" lon="-3.34658">
        <ele>103</ele>
        <time>2011-02-20T08:35:38Z</time>
      </trkpt>
      <trkpt lat="48.65094" lon="-3.34654">
        <ele>103</ele>
        <time>2011-02-20T08:35:39Z</time>
      </trkpt>
      <trkpt lat="48.65101" lon="-3.3465">
        <ele>103</ele>
        <time>2011-02-20T08:35:40Z</time>
      </trkpt>
      <trkpt lat="48.65108" lon="-3.34646">
        <ele>103</ele>
        <time>2011-02-20T08:35:41Z</time>
      </trkpt>
      <trkpt lat="48.65115" lon="-3.34642">
        <ele>103</ele>
        <time>2011-02-20T08:35:42Z</time>
      </trkpt>
      <trkpt lat="48.65123" lon="-3.34637">
        <ele>103</ele>
        <time>2011-02-20T08:35:43Z</time>
      </trkpt>
      <trkpt lat="48.6513" lon="-3.34633">
        <ele>103</ele>
        <time>2011-02-20T08:35:44Z</time>
      </trkpt>
      <trkpt lat="48.65137" lon="-3.34629">
        <ele>103</ele>
        <time>2011-02-20T08:35:45Z</time>
      </trkpt>
      <trkpt lat="48.65144" lon="-3.34625">
        <ele>103</ele>
        <time>2011-02-20T08:35:46Z</time>
      </trkpt>
      <trkpt lat="48.65151" lon="-3.3462">
        <ele>103</ele>
        <time>2011-02-20T08:35:47Z</time>
      </trkpt>
      <trkpt lat="48.65158" lon="-3.34617">
        <ele>103</ele>
        <time>2011-02-20T08:35:48Z</time>
      </trkpt>
      <trkpt lat="48.65165" lon="-3.34612">
        <ele>103</ele>
        <time>2011-02-20T08:35:49Z</time>
      </trkpt>
      <trkpt lat="48.65171" lon="-3.34607">
        <ele>103</ele>
        <time>2011-02-20T08:35:50Z</time>
      </trkpt>
      <trkpt lat="48.65179" lon="-3.34601">
        <ele>103</ele>
        <time>2011-02-20T08:35:51Z</time>
      </trkpt>
      <trkpt lat="48.65186" lon="-3.34595">
        <ele>103</ele>
        <time>2011-02-20T08:35:52Z</time>
      </trkpt>
      <trkpt lat="48.65193" lon="-3.34588">
        <ele>103</ele>
        <time>2011-02-20T08:35:53Z</time>
      </trkpt>
      <trkpt lat="48.65199" lon="-3.3458">
        <ele>103</ele>
        <time>2011-02-20T08:35:54Z</time>
      </trkpt>
      <trkpt lat="48.65205" lon="-3.34573">
        <ele>103</ele>
        <time>2011-02-20T08:35:55Z</time>
      </trkpt>
      <trkpt lat="48.65212" lon="-3.34565">
        <ele>103</ele>
        <time>2011-02-20T08:35:56Z</time>
      </trkpt>
      <trkpt lat="48.65217" lon="-3.34557">
        <ele>103</ele>
        <time>2011-02-20T08:35:57Z</time>
      </trkpt>
      <trkpt lat="48.65223" lon="-3.3455">
        <ele>103</ele>
        <time>2011-02-20T08:35:58Z</time>
      </trkpt>
      <trkpt lat="48.65228" lon="-3.34542">
        <ele>103</ele>
        <time>2011-02-20T08:35:59Z</time>
      </trkpt>
      <trkpt lat="48.65233" lon="-3.34535">
        <ele>103</ele>
        <time>2011-02-20T08:36:00Z</time>
      </trkpt>
      <trkpt lat="48.65238" lon="-3.34527">
        <ele>103</ele>
        <time>2011-02-20T08:36:01Z</time>
      </trkpt>
      <trkpt lat="48.65244" lon="-3.3452">
        <ele>103</ele>
        <time>2011-02-20T08:36:02Z</time>
      </trkpt>
      <trkpt lat="48.65249" lon="-3.34512">
        <ele>103</ele>
        <time>2011-02-20T08:36:03Z</time>
      </trkpt>
      <trkpt lat="48.65255" lon="-3.34505">
        <ele>103</ele>
        <time>2011-02-20T08:36:04Z</time>
      </trkpt>
      <trkpt lat="48.6526" lon="-3.34498">
        <ele>103</ele>
        <time>2011-02-20T08:36:05Z</time>
      </trkpt>
      <trkpt lat="48.65266" lon="-3.34491">
        <ele>103</ele>
        <time>2011-02-20T08:36:06Z</time>
      </trkpt>
      <trkpt lat="48.65273" lon="-3.34485">
        <ele>103</ele>
        <time>2011-02-20T08:36:07Z</time>
      </trkpt>
      <trkpt lat="48.65279" lon="-3.34478">
        <ele>103</ele>
        <time>2011-02-20T08:36:08Z</time>
      </trkpt>
      <trkpt lat="48.65285" lon="-3.34472">
        <ele>103</ele>
        <time>2011-02-20T08:36:09Z</time>
      </trkpt>
      <trkpt lat="48.65292" lon="-3.34466">
        <ele>103</ele>
        <time>2011-02-20T08:36:10Z</time>
      </trkpt>
      <trkpt lat="48.65298" lon="-3.34461">
        <ele>103</ele>
        <time>2011-02-20T08:36:11Z</time>
      </trkpt>
      <trkpt lat="48.65305" lon="-3.34456">
        <ele>103</ele>
        <time>2011-02-20T08:36:12Z</time>
      </trkpt>
      <trkpt lat="48.65311" lon="-3.34451">
        <ele>103</ele>
        <time>2011-02-20T08:36:13Z</time>
      </trkpt>
      <trkpt lat="48.65319" lon="-3.34446">
        <ele>103</ele>
        <time>2011-02-20T08:36:14Z</time>
      </trkpt>
      <trkpt lat="48.65326" lon="-3.34441">
        <ele>103</ele>
        <time>2011-02-20T08:36:15Z</time>
      </trkpt>
      <trkpt lat="48.65332" lon="-3.34437">
        <ele>103</ele>
        <time>2011-02-20T08:36:16Z</time>
      </trkpt>
      <trkpt lat="48.65339" lon="-3.34432">
        <ele>103</ele>
        <time>2011-02-20T08:36:17Z</time>
      </trkpt>
      <trkpt lat="48.65346" lon="-3.34427">
        <ele>103</ele>
        <time>2011-02-20T08:36:18Z</time>
      </trkpt>
      <trkpt lat="48.65352" lon="-3.34421">
        <ele>103</ele>
        <time>2011-02-20T08:36:19Z</time>
      </trkpt>
      <trkpt lat="48.65358" lon="-3.34414">
        <ele>103</ele>
        <time>2011-02-20T08:36:20Z</time>
      </trkpt>
      <trkpt lat="48.65363" lon="-3.34407">
        <ele>103</ele>
        <time>2011-02-20T08:36:21Z</time>
      </trkpt>
      <trkpt lat="48.65369" lon="-3.34399">
        <ele>103</ele>
        <time>2011-02-20T08:36:22Z</time>
      </trkpt>
      <trkpt lat="48.65374" lon="-3.34391">
        <ele>103</ele>
        <time>2011-02-20T08:36:23Z</time>
      </trkpt>
      <trkpt lat="48.65378" lon="-3.34383">
        <ele>103</ele>
        <time>2011-02-20T08:36:24Z</time>
      </trkpt>
      <trkpt lat="48.65383" lon="-3.34374">
        <ele>103</ele>
        <time>2011-02-20T08:36:25Z</time>
      </trkpt>
      <trkpt lat="48.65387" lon="-3.34365">
        <ele>103</ele>
        <time>2011-02-20T08:36:26Z</time>
      </trkpt>
      <trkpt lat="48.65391" lon="-3.34355">
        <ele>103</ele>
        <time>2011-02-20T08:36:27Z</time>
      </trkpt>
      <trkpt lat="48.65395" lon="-3.34346">
        <ele>103</ele>
        <time>2011-02-20T08:36:28Z</time>
      </trkpt>
      <trkpt lat="48.65399" lon="-3.34336">
        <ele>103</ele>
        <time>2011-02-20T08:36:29Z</time>
      </trkpt>
      <trkpt lat="48.65403" lon="-3.34328">
        <ele>103</ele>
        <time>2011-02-20T08:36:30Z</time>
      </trkpt>
      <trkpt lat="48.65407" lon="-3.34319">
        <ele>103</ele>
        <time>2011-02-20T08:36:31Z</time>
      </trkpt>
      <trkpt lat="48.65411" lon="-3.34311">
        <ele>103</ele>
        <time>2011-02-20T08:36:32Z</time>
      </trkpt>
      <trkpt lat="48.65415" lon="-3.34302">
        <ele>103</ele>
        <time>2011-02-20T08:36:33Z</time>
      </trkpt>
      <trkpt lat="48.65419" lon="-3.34293">
        <ele>103</ele>
        <time>2011-02-20T08:36:34Z</time>
      </trkpt>
      <trkpt lat="48.65423" lon="-3.34284">
        <ele>103</ele>
        <time>2011-02-20T08:36:35Z</time>
      </trkpt>
      <trkpt lat="48.65427" lon="-3.34276">
        <ele>103</ele>
        <time>2011-02-20T08:36:36Z</time>
      </trkpt>
      <trkpt lat="48.65431" lon="-3.34267">
        <ele>103</ele>
        <time>2011-02-20T08:36:37Z</time>
      </trkpt>
      <trkpt lat="48.65435" lon="-3.34258">
        <ele>103</ele>
        <time>2011-02-20T08:36:38Z</time>
      </trkpt>
      <trkpt lat="48.65439" lon="-3.3425">
        <ele>103</ele>
        <time>2011-02-20T08:36:39Z</time>
      </trkpt>
      <trkpt lat="48.65443" lon="-3.34242">
        <ele>103</ele>
        <time>2011-02-20T08:36:40Z</time>
      </trkpt>
      <trkpt lat="48.65447" lon="-3.34232">
        <ele>103</ele>
        <time>2011-02-20T08:36:41Z</time>
      </trkpt>
      <trkpt lat="48.65451" lon="-3.34222">
        <ele>103</ele>
        <time>2011-02-20T08:36:42Z</time>
      </trkpt>
      <trkpt lat="48.65454" lon="-3.34212">
        <ele>103</ele>
        <time>2011-02-20T08:36:43Z</time>
      </trkpt>
      <trkpt lat="48.65458" lon="-3.34203">
        <ele>103</ele>
        <time>2011-02-20T08:36:44Z</time>
      </trkpt>
      <trkpt lat="48.65462" lon="-3.34192">
        <ele>103</ele>
        <time>2011-02-20T08:36:45Z</time>
      </trkpt>
      <trkpt lat="48.65465" lon="-3.34182">
        <ele>103</ele>
        <time>2011-02-20T08:36:45Z</time>
      </trkpt>
      <trkpt lat="48.65468" lon="-3.34172">
        <ele>103</ele>
        <time>2011-02-20T08:36:47Z</time>
      </trkpt>
      <trkpt lat="48.65472" lon="-3.34162">
        <ele>103</ele>
        <time>2011-02-20T08:36:48Z</time>
      </trkpt>
      <trkpt lat="48.65474" lon="-3.34151">
        <ele>103</ele>
        <time>2011-02-20T08:36:49Z</time>
      </trkpt>
      <trkpt lat="48.65477" lon="-3.3414">
        <ele>103</ele>
        <time>2011-02-20T08:36:50Z</time>
      </trkpt>
      <trkpt lat="48.6548" lon="-3.3413">
        <ele>103</ele>
        <time>2011-02-20T08:36:51Z</time>
      </trkpt>
      <trkpt lat="48.65483" lon="-3.34119">
        <ele>103</ele>
        <time>2011-02-20T08:36:52Z</time>
      </trkpt>
      <trkpt lat="48.65486" lon="-3.34109">
        <ele>103</ele>
        <time>2011-02-20T08:36:53Z</time>
      </trkpt>
      <trkpt lat="48.65489" lon="-3.34098">
        <ele>103</ele>
        <time>2011-02-20T08:36:54Z</time>
      </trkpt>
      <trkpt lat="48.65492" lon="-3.34087">
        <ele>103</ele>
        <time>2011-02-20T08:36:55Z</time>
      </trkpt>
      <trkpt lat="48.65495" lon="-3.34076">
        <ele>103</ele>
        <time>2011-02-20T08:36:56Z</time>
      </trkpt>
      <trkpt lat="48.65497" lon="-3.34066">
        <ele>103</ele>
        <time>2011-02-20T08:36:57Z</time>
      </trkpt>
      <trkpt lat="48.655" lon="-3.34055">
        <ele>103</ele>
        <time>2011-02-20T08:36:58Z</time>
      </trkpt>
      <trkpt lat="48.65504" lon="-3.34044">
        <ele>103</ele>
        <time>2011-02-20T08:36:59Z</time>
      </trkpt>
      <trkpt lat="48.65508" lon="-3.34034">
        <ele>103</ele>
        <time>2011-02-20T08:37:00Z</time>
      </trkpt>
      <trkpt lat="48.65513" lon="-3.34025">
        <ele>103</ele>
        <time>2011-02-20T08:37:01Z</time>
      </trkpt>
      <trkpt lat="48.65519" lon="-3.34016">
        <ele>103</ele>
        <time>2011-02-20T08:37:02Z</time>
      </trkpt>
      <trkpt lat="48.65525" lon="-3.34008">
        <ele>103</ele>
        <time>2011-02-20T08:37:03Z</time>
      </trkpt>
      <trkpt lat="48.65531" lon="-3.34">
        <ele>103</ele>
        <time>2011-02-20T08:37:04Z</time>
      </trkpt>
      <trkpt lat="48.65537" lon="-3.33993">
        <ele>103</ele>
        <time>2011-02-20T08:37:05Z</time>
      </trkpt>
      <trkpt lat="48.65543" lon="-3.33985">
        <ele>102</ele>
        <time>2011-02-20T08:37:06Z</time>
      </trkpt>
      <trkpt lat="48.6555" lon="-3.33978">
        <ele>102</ele>
        <time>2011-02-20T08:37:07Z</time>
      </trkpt>
      <trkpt lat="48.65556" lon="-3.33972">
        <ele>102</ele>
        <time>2011-02-20T08:37:08Z</time>
      </trkpt>
      <trkpt lat="48.65563" lon="-3.33965">
        <ele>102</ele>
        <time>2011-02-20T08:37:09Z</time>
      </trkpt>
      <trkpt lat="48.6557" lon="-3.33959">
        <ele>102</ele>
        <time>2011-02-20T08:37:10Z</time>
      </trkpt>
      <trkpt lat="48.65577" lon="-3.33954">
        <ele>102</ele>
        <time>2011-02-20T08:37:11Z</time>
      </trkpt>
      <trkpt lat="48.65584" lon="-3.33949">
        <ele>102</ele>
        <time>2011-02-20T08:37:11Z</time>
      </trkpt>
      <trkpt lat="48.65591" lon="-3.33945">
        <ele>102</ele>
        <time>2011-02-20T08:37:13Z</time>
      </trkpt>
      <trkpt lat="48.65599" lon="-3.33941">
        <ele>102</ele>
        <time>2011-02-20T08:37:14Z</time>
      </trkpt>
      <trkpt lat="48.65606" lon="-3.33937">
        <ele>102</ele>
        <time>2011-02-20T08:37:15Z</time>
      </trkpt>
      <trkpt lat="48.65614" lon="-3.33934">
        <ele>102</ele>
        <time>2011-02-20T08:37:16Z</time>
      </trkpt>
      <trkpt lat="48.65621" lon="-3.33931">
        <ele>102</ele>
        <time>2011-02-20T08:37:17Z</time>
      </trkpt>
      <trkpt lat="48.65629" lon="-3.33929">
        <ele>102</ele>
        <time>2011-02-20T08:37:18Z</time>
      </trkpt>
      <trkpt lat="48.65637" lon="-3.33927">
        <ele>102</ele>
        <time>2011-02-20T08:37:19Z</time>
      </trkpt>
      <trkpt lat="48.65645" lon="-3.33925">
        <ele>102</ele>
        <time>2011-02-20T08:37:19Z</time>
      </trkpt>
      <trkpt lat="48.65653" lon="-3.33923">
        <ele>102</ele>
        <time>2011-02-20T08:37:20Z</time>
      </trkpt>
      <trkpt lat="48.65661" lon="-3.33921">
        <ele>102</ele>
        <time>2011-02-20T08:37:21Z</time>
      </trkpt>
      <trkpt lat="48.65668" lon="-3.33918">
        <ele>102</ele>
        <time>2011-02-20T08:37:22Z</time>
      </trkpt>
      <trkpt lat="48.65676" lon="-3.33915">
        <ele>102</ele>
        <time>2011-02-20T08:37:24Z</time>
      </trkpt>
      <trkpt lat="48.65683" lon="-3.33911">
        <ele>102</ele>
        <time>2011-02-20T08:37:25Z</time>
      </trkpt>
      <trkpt lat="48.65691" lon="-3.33908">
        <ele>102</ele>
        <time>2011-02-20T08:37:26Z</time>
      </trkpt>
      <trkpt lat="48.65698" lon="-3.33903">
        <ele>102</ele>
        <time>2011-02-20T08:37:27Z</time>
      </trkpt>
      <trkpt lat="48.65704" lon="-3.33899">
        <ele>102</ele>
        <time>2011-02-20T08:37:27Z</time>
      </trkpt>
      <trkpt lat="48.65711" lon="-3.33894">
        <ele>102</ele>
        <time>2011-02-20T08:37:28Z</time>
      </trkpt>
      <trkpt lat="48.65717" lon="-3.33889">
        <ele>102</ele>
        <time>2011-02-20T08:37:30Z</time>
      </trkpt>
      <trkpt lat="48.65723" lon="-3.33884">
        <ele>102</ele>
        <time>2011-02-20T08:37:31Z</time>
      </trkpt>
      <trkpt lat="48.65728" lon="-3.33878">
        <ele>102</ele>
        <time>2011-02-20T08:37:32Z</time>
      </trkpt>
      <trkpt lat="48.65733" lon="-3.33871">
        <ele>102</ele>
        <time>2011-02-20T08:37:32Z</time>
      </trkpt>
      <trkpt lat="48.65736" lon="-3.33863">
        <ele>102</ele>
        <time>2011-02-20T08:37:34Z</time>
      </trkpt>
      <trkpt lat="48.65739" lon="-3.33855">
        <ele>102</ele>
        <time>2011-02-20T08:37:34Z</time>
      </trkpt>
      <trkpt lat="48.65743" lon="-3.33847">
        <ele>102</ele>
        <time>2011-02-20T08:37:36Z</time>
      </trkpt>
      <trkpt lat="48.65747" lon="-3.3384">
        <ele>102</ele>
        <time>2011-02-20T08:37:36Z</time>
      </trkpt>
      <trkpt lat="48.65753" lon="-3.33835">
        <ele>102</ele>
        <time>2011-02-20T08:37:38Z</time>
      </trkpt>
      <trkpt lat="48.65759" lon="-3.33831">
        <ele>102</ele>
        <time>2011-02-20T08:37:39Z</time>
      </trkpt>
      <trkpt lat="48.65766" lon="-3.33827">
        <ele>102</ele>
        <time>2011-02-20T08:37:39Z</time>
      </trkpt>
      <trkpt lat="48.65773" lon="-3.33822">
        <ele>102</ele>
        <time>2011-02-20T08:37:41Z</time>
      </trkpt>
      <trkpt lat="48.65778" lon="-3.33816">
        <ele>102</ele>
        <time>2011-02-20T08:37:42Z</time>
      </trkpt>
      <trkpt lat="48.65784" lon="-3.33809">
        <ele>102</ele>
        <time>2011-02-20T08:37:43Z</time>
      </trkpt>
      <trkpt lat="48.65789" lon="-3.33801">
        <ele>102</ele>
        <time>2011-02-20T08:37:44Z</time>
      </trkpt>
      <trkpt lat="48.65794" lon="-3.33793">
        <ele>102</ele>
        <time>2011-02-20T08:37:45Z</time>
      </trkpt>
      <trkpt lat="48.65799" lon="-3.33785">
        <ele>102</ele>
        <time>2011-02-20T08:37:46Z</time>
      </trkpt>
      <trkpt lat="48.65804" lon="-3.33777">
        <ele>102</ele>
        <time>2011-02-20T08:37:47Z</time>
      </trkpt>
      <trkpt lat="48.65809" lon="-3.3377">
        <ele>102</ele>
        <time>2011-02-20T08:37:47Z</time>
      </trkpt>
      <trkpt lat="48.65813" lon="-3.33763">
        <ele>102</ele>
        <time>2011-02-20T08:37:49Z</time>
      </trkpt>
      <trkpt lat="48.65818" lon="-3.33755">
        <ele>102</ele>
        <time>2011-02-20T08:37:50Z</time>
      </trkpt>
      <trkpt lat="48.65823" lon="-3.33749">
        <ele>102</ele>
        <time>2011-02-20T08:37:51Z</time>
      </trkpt>
      <trkpt lat="48.65827" lon="-3.33741">
        <ele>103</ele>
        <time>2011-02-20T08:37:51Z</time>
      </trkpt>
      <trkpt lat="48.65832" lon="-3.33734">
        <ele>103</ele>
        <time>2011-02-20T08:37:53Z</time>
      </trkpt>
      <trkpt lat="48.65836" lon="-3.33727">
        <ele>103</ele>
        <time>2011-02-20T08:37:54Z</time>
      </trkpt>
      <trkpt lat="48.65842" lon="-3.3372">
        <ele>103</ele>
        <time>2011-02-20T08:37:54Z</time>
      </trkpt>
      <trkpt lat="48.65847" lon="-3.33715">
        <ele>103</ele>
        <time>2011-02-20T08:37:56Z</time>
      </trkpt>
      <trkpt lat="48.65854" lon="-3.3371">
        <ele>103</ele>
        <time>2011-02-20T08:37:57Z</time>
      </trkpt>
      <trkpt lat="48.6586" lon="-3.33706">
        <ele>103</ele>
        <time>2011-02-20T08:37:58Z</time>
      </trkpt>
      <trkpt lat="48.65868" lon="-3.33704">
        <ele>103</ele>
        <time>2011-02-20T08:37:59Z</time>
      </trkpt>
      <trkpt lat="48.65875" lon="-3.33702">
        <ele>103</ele>
        <time>2011-02-20T08:37:59Z</time>
      </trkpt>
      <trkpt lat="48.65882" lon="-3.33702">
        <ele>103</ele>
        <time>2011-02-20T08:38:01Z</time>
      </trkpt>
      <trkpt lat="48.6589" lon="-3.33703">
        <ele>103</ele>
        <time>2011-02-20T08:38:02Z</time>
      </trkpt>
      <trkpt lat="48.65897" lon="-3.33706">
        <ele>103</ele>
        <time>2011-02-20T08:38:03Z</time>
      </trkpt>
      <trkpt lat="48.65905" lon="-3.3371">
        <ele>103</ele>
        <time>2011-02-20T08:38:03Z</time>
      </trkpt>
      <trkpt lat="48.65912" lon="-3.33715">
        <ele>103</ele>
        <time>2011-02-20T08:38:05Z</time>
      </trkpt>
      <trkpt lat="48.65919" lon="-3.33722">
        <ele>103</ele>
        <time>2011-02-20T08:38:06Z</time>
      </trkpt>
      <trkpt lat="48.65926" lon="-3.3373">
        <ele>103</ele>
        <time>2011-02-20T08:38:07Z</time>
      </trkpt>
      <trkpt lat="48.65933" lon="-3.33739">
        <ele>103</ele>
        <time>2011-02-20T08:38:07Z</time>
      </trkpt>
      <trkpt lat="48.6594" lon="-3.33748">
        <ele>103</ele>
        <time>2011-02-20T08:38:09Z</time>
      </trkpt>
      <trkpt lat="48.65947" lon="-3.33757">
        <ele>103</ele>
        <time>2011-02-20T08:38:10Z</time>
      </trkpt>
      <trkpt lat="48.65955" lon="-3.33767">
        <ele>103</ele>
        <time>2011-02-20T08:38:11Z</time>
      </trkpt>
      <trkpt lat="48.65962" lon="-3.33775">
        <ele>103</ele>
        <time>2011-02-20T08:38:11Z</time>
      </trkpt>
      <trkpt lat="48.65969" lon="-3.33783">
        <ele>103</ele>
        <time>2011-02-20T08:38:13Z</time>
      </trkpt>
      <trkpt lat="48.65977" lon="-3.33791">
        <ele>103</ele>
        <time>2011-02-20T08:38:14Z</time>
      </trkpt>
      <trkpt lat="48.65986" lon="-3.33798">
        <ele>103</ele>
        <time>2011-02-20T08:38:14Z</time>
      </trkpt>
      <trkpt lat="48.65994" lon="-3.33804">
        <ele>103</ele>
        <time>2011-02-20T08:38:15Z</time>
      </trkpt>
      <trkpt lat="48.66002" lon="-3.33811">
        <ele>103</ele>
        <time>2011-02-20T08:38:17Z</time>
      </trkpt>
      <trkpt lat="48.66011" lon="-3.33816">
        <ele>103</ele>
        <time>2011-02-20T08:38:18Z</time>
      </trkpt>
      <trkpt lat="48.6602" lon="-3.33821">
        <ele>103</ele>
        <time>2011-02-20T08:38:18Z</time>
      </trkpt>
      <trkpt lat="48.66029" lon="-3.33825">
        <ele>103</ele>
        <time>2011-02-20T08:38:19Z</time>
      </trkpt>
      <trkpt lat="48.66037" lon="-3.33828">
        <ele>103</ele>
        <time>2011-02-20T08:38:20Z</time>
      </trkpt>
      <trkpt lat="48.66046" lon="-3.3383">
        <ele>103</ele>
        <time>2011-02-20T08:38:21Z</time>
      </trkpt>
      <trkpt lat="48.66055" lon="-3.33832">
        <ele>103</ele>
        <time>2011-02-20T08:38:23Z</time>
      </trkpt>
      <trkpt lat="48.66063" lon="-3.33832">
        <ele>103</ele>
        <time>2011-02-20T08:38:23Z</time>
      </trkpt>
      <trkpt lat="48.66071" lon="-3.33833">
        <ele>103</ele>
        <time>2011-02-20T08:38:25Z</time>
      </trkpt>
      <trkpt lat="48.6608" lon="-3.33834">
        <ele>103</ele>
        <time>2011-02-20T08:38:26Z</time>
      </trkpt>
      <trkpt lat="48.66088" lon="-3.33834">
        <ele>103</ele>
        <time>2011-02-20T08:38:26Z</time>
      </trkpt>
      <trkpt lat="48.66096" lon="-3.33835">
        <ele>103</ele>
        <time>2011-02-20T08:38:27Z</time>
      </trkpt>
      <trkpt lat="48.66104" lon="-3.33835">
        <ele>103</ele>
        <time>2011-02-20T08:38:29Z</time>
      </trkpt>
      <trkpt lat="48.66112" lon="-3.33835">
        <ele>103</ele>
        <time>2011-02-20T08:38:30Z</time>
      </trkpt>
      <trkpt lat="48.6612" lon="-3.33835">
        <ele>103</ele>
        <time>2011-02-20T08:38:30Z</time>
      </trkpt>
      <trkpt lat="48.66127" lon="-3.33835">
        <ele>103</ele>
        <time>2011-02-20T08:38:31Z</time>
      </trkpt>
      <trkpt lat="48.66135" lon="-3.33835">
        <ele>103</ele>
        <time>2011-02-20T08:38:32Z</time>
      </trkpt>
      <trkpt lat="48.66143" lon="-3.33834">
        <ele>103</ele>
        <time>2011-02-20T08:38:34Z</time>
      </trkpt>
      <trkpt lat="48.6615" lon="-3.33834">
        <ele>103</ele>
        <time>2011-02-20T08:38:34Z</time>
      </trkpt>
      <trkpt lat="48.66158" lon="-3.33833">
        <ele>103</ele>
        <time>2011-02-20T08:38:35Z</time>
      </trkpt>
      <trkpt lat="48.66166" lon="-3.33833">
        <ele>103</ele>
        <time>2011-02-20T08:38:37Z</time>
      </trkpt>
      <trkpt lat="48.66174" lon="-3.33832">
        <ele>103</ele>
        <time>2011-02-20T08:38:38Z</time>
      </trkpt>
      <trkpt lat="48.66182" lon="-3.33831">
        <ele>103</ele>
        <time>2011-02-20T08:38:39Z</time>
      </trkpt>
      <trkpt lat="48.66189" lon="-3.33831">
        <ele>103</ele>
        <time>2011-02-20T08:38:39Z</time>
      </trkpt>
      <trkpt lat="48.66197" lon="-3.3383">
        <ele>103</ele>
        <time>2011-02-20T08:38:40Z</time>
      </trkpt>
      <trkpt lat="48.66205" lon="-3.3383">
        <ele>103</ele>
        <time>2011-02-20T08:38:41Z</time>
      </trkpt>
      <trkpt lat="48.66212" lon="-3.33829">
        <ele>103</ele>
        <time>2011-02-20T08:38:42Z</time>
      </trkpt>
      <trkpt lat="48.6622" lon="-3.33829">
        <ele>103</ele>
        <time>2011-02-20T08:38:44Z</time>
      </trkpt>
      <trkpt lat="48.66227" lon="-3.33828">
        <ele>103</ele>
        <time>2011-02-20T08:38:44Z</time>
      </trkpt>
      <trkpt lat="48.66234" lon="-3.33827">
        <ele>103</ele>
        <time>2011-02-20T08:38:45Z</time>
      </trkpt>
      <trkpt lat="48.66241" lon="-3.33825">
        <ele>103</ele>
        <time>2011-02-20T08:38:46Z</time>
      </trkpt>
      <trkpt lat="48.66248" lon="-3.33822">
        <ele>103</ele>
        <time>2011-02-20T08:38:47Z</time>
      </trkpt>
      <trkpt lat="48.66254" lon="-3.33816">
        <ele>103</ele>
        <time>2011-02-20T08:38:49Z</time>
      </trkpt>
      <trkpt lat="48.66259" lon="-3.33807">
        <ele>103</ele>
        <time>2011-02-20T08:38:49Z</time>
      </trkpt>
      <trkpt lat="48.66262" lon="-3.33798">
        <ele>102</ele>
        <time>2011-02-20T08:38:50Z</time>
      </trkpt>
      <trkpt lat="48.66266" lon="-3.33788">
        <ele>102</ele>
        <time>2011-02-20T08:38:51Z</time>
      </trkpt>
      <trkpt lat="48.66271" lon="-3.33778">
        <ele>102</ele>
        <time>2011-02-20T08:38:52Z</time>
      </trkpt>
      <trkpt lat="48.66277" lon="-3.33769">
        <ele>102</ele>
        <time>2011-02-20T08:38:54Z</time>
      </trkpt>
      <trkpt lat="48.66283" lon="-3.3376">
        <ele>102</ele>
        <time>2011-02-20T08:38:54Z</time>
      </trkpt>
      <trkpt lat="48.66289" lon="-3.33752">
        <ele>102</ele>
        <time>2011-02-20T08:38:55Z</time>
      </trkpt>
      <trkpt lat="48.66296" lon="-3.33746">
        <ele>102</ele>
        <time>2011-02-20T08:38:56Z</time>
      </trkpt>
      <trkpt lat="48.66303" lon="-3.33739">
        <ele>102</ele>
        <time>2011-02-20T08:38:57Z</time>
      </trkpt>
      <trkpt lat="48.66311" lon="-3.33732">
        <ele>102</ele>
        <time>2011-02-20T08:38:59Z</time>
      </trkpt>
      <trkpt lat="48.66317" lon="-3.33725">
        <ele>102</ele>
        <time>2011-02-20T08:38:59Z</time>
      </trkpt>
      <trkpt lat="48.66325" lon="-3.33719">
        <ele>102</ele>
        <time>2011-02-20T08:39:00Z</time>
      </trkpt>
      <trkpt lat="48.66332" lon="-3.33712">
        <ele>102</ele>
        <time>2011-02-20T08:39:01Z</time>
      </trkpt>
      <trkpt lat="48.66339" lon="-3.33705">
        <ele>102</ele>
        <time>2011-02-20T08:39:02Z</time>
      </trkpt>
      <trkpt lat="48.66346" lon="-3.33699">
        <ele>102</ele>
        <time>2011-02-20T08:39:04Z</time>
      </trkpt>
      <trkpt lat="48.66353" lon="-3.33693">
        <ele>102</ele>
        <time>2011-02-20T08:39:04Z</time>
      </trkpt>
      <trkpt lat="48.6636" lon="-3.33686">
        <ele>101</ele>
        <time>2011-02-20T08:39:05Z</time>
      </trkpt>
      <trkpt lat="48.66367" lon="-3.3368">
        <ele>101</ele>
        <time>2011-02-20T08:39:06Z</time>
      </trkpt>
      <trkpt lat="48.66375" lon="-3.33674">
        <ele>101</ele>
        <time>2011-02-20T08:39:07Z</time>
      </trkpt>
      <trkpt lat="48.66381" lon="-3.33667">
        <ele>101</ele>
        <time>2011-02-20T08:39:09Z</time>
      </trkpt>
      <trkpt lat="48.66388" lon="-3.33662">
        <ele>101</ele>
        <time>2011-02-20T08:39:09Z</time>
      </trkpt>
      <trkpt lat="48.66395" lon="-3.33656">
        <ele>101</ele>
        <time>2011-02-20T08:39:10Z</time>
      </trkpt>
      <trkpt lat="48.66401" lon="-3.3365">
        <ele>101</ele>
        <time>2011-02-20T08:39:11Z</time>
      </trkpt>
      <trkpt lat="48.66407" lon="-3.33644">
        <ele>101</ele>
        <time>2011-02-20T08:39:12Z</time>
      </trkpt>
      <trkpt lat="48.66414" lon="-3.33639">
        <ele>101</ele>
        <time>2011-02-20T08:39:14Z</time>
      </trkpt>
      <trkpt lat="48.6642" lon="-3.33633">
        <ele>101</ele>
        <time>2011-02-20T08:39:14Z</time>
      </trkpt>
      <trkpt lat="48.66426" lon="-3.33627">
        <ele>101</ele>
        <time>2011-02-20T08:39:15Z</time>
      </trkpt>
      <trkpt lat="48.66432" lon="-3.3362">
        <ele>100</ele>
        <time>2011-02-20T08:39:16Z</time>
      </trkpt>
      <trkpt lat="48.66439" lon="-3.33614">
        <ele>100</ele>
        <time>2011-02-20T08:39:17Z</time>
      </trkpt>
      <trkpt lat="48.66445" lon="-3.33607">
        <ele>100</ele>
        <time>2011-02-20T08:39:19Z</time>
      </trkpt>
      <trkpt lat="48.66451" lon="-3.33601">
        <ele>100</ele>
        <time>2011-02-20T08:39:19Z</time>
      </trkpt>
      <trkpt lat="48.66458" lon="-3.33594">
        <ele>100</ele>
        <time>2011-02-20T08:39:20Z</time>
      </trkpt>
      <trkpt lat="48.66464" lon="-3.33587">
        <ele>100</ele>
        <time>2011-02-20T08:39:21Z</time>
      </trkpt>
      <trkpt lat="48.6647" lon="-3.33579">
        <ele>100</ele>
        <time>2011-02-20T08:39:22Z</time>
      </trkpt>
      <trkpt lat="48.66476" lon="-3.33572">
        <ele>100</ele>
        <time>2011-02-20T08:39:24Z</time>
      </trkpt>
      <trkpt lat="48.66483" lon="-3.33565">
        <ele>100</ele>
        <time>2011-02-20T08:39:24Z</time>
      </trkpt>
      <trkpt lat="48.66489" lon="-3.33558">
        <ele>100</ele>
        <time>2011-02-20T08:39:26Z</time>
      </trkpt>
      <trkpt lat="48.66495" lon="-3.33551">
        <ele>100</ele>
        <time>2011-02-20T08:39:26Z</time>
      </trkpt>
      <trkpt lat="48.66502" lon="-3.33543">
        <ele>100</ele>
        <time>2011-02-20T08:39:27Z</time>
      </trkpt>
      <trkpt lat="48.66508" lon="-3.33536">
        <ele>100</ele>
        <time>2011-02-20T08:39:29Z</time>
      </trkpt>
      <trkpt lat="48.66514" lon="-3.33528">
        <ele>100</ele>
        <time>2011-02-20T08:39:29Z</time>
      </trkpt>
      <trkpt lat="48.6652" lon="-3.33522">
        <ele>99</ele>
        <time>2011-02-20T08:39:30Z</time>
      </trkpt>
      <trkpt lat="48.66526" lon="-3.33515">
        <ele>99</ele>
        <time>2011-02-20T08:39:31Z</time>
      </trkpt>
      <trkpt lat="48.66532" lon="-3.33508">
        <ele>99</ele>
        <time>2011-02-20T08:39:32Z</time>
      </trkpt>
      <trkpt lat="48.66538" lon="-3.33501">
        <ele>99</ele>
        <time>2011-02-20T08:39:34Z</time>
      </trkpt>
      <trkpt lat="48.66544" lon="-3.33494">
        <ele>99</ele>
        <time>2011-02-20T08:39:34Z</time>
      </trkpt>
      <trkpt lat="48.6655" lon="-3.33487">
        <ele>99</ele>
        <time>2011-02-20T08:39:35Z</time>
      </trkpt>
      <trkpt lat="48.66556" lon="-3.3348">
        <ele>99</ele>
        <time>2011-02-20T08:39:36Z</time>
      </trkpt>
      <trkpt lat="48.66562" lon="-3.33473">
        <ele>99</ele>
        <time>2011-02-20T08:39:37Z</time>
      </trkpt>
      <trkpt lat="48.66568" lon="-3.33467">
        <ele>99</ele>
        <time>2011-02-20T08:39:39Z</time>
      </trkpt>
      <trkpt lat="48.66574" lon="-3.3346">
        <ele>99</ele>
        <time>2011-02-20T08:39:39Z</time>
      </trkpt>
      <trkpt lat="48.66579" lon="-3.33454">
        <ele>99</ele>
        <time>2011-02-20T08:39:40Z</time>
      </trkpt>
      <trkpt lat="48.66585" lon="-3.33447">
        <ele>99</ele>
        <time>2011-02-20T08:39:41Z</time>
      </trkpt>
      <trkpt lat="48.66591" lon="-3.33441">
        <ele>99</ele>
        <time>2011-02-20T08:39:42Z</time>
      </trkpt>
      <trkpt lat="48.66597" lon="-3.33435">
        <ele>99</ele>
        <time>2011-02-20T08:39:44Z</time>
      </trkpt>
      <trkpt lat="48.66602" lon="-3.33429">
        <ele>99</ele>
        <time>2011-02-20T08:39:44Z</time>
      </trkpt>
      <trkpt lat="48.66608" lon="-3.33422">
        <ele>99</ele>
        <time>2011-02-20T08:39:45Z</time>
      </trkpt>
      <trkpt lat="48.66613" lon="-3.33416">
        <ele>99</ele>
        <time>2011-02-20T08:39:46Z</time>
      </trkpt>
      <trkpt lat="48.66619" lon="-3.3341">
        <ele>99</ele>
        <time>2011-02-20T08:39:47Z</time>
      </trkpt>
      <trkpt lat="48.66625" lon="-3.33404">
        <ele>99</ele>
        <time>2011-02-20T08:39:49Z</time>
      </trkpt>
      <trkpt lat="48.6663" lon="-3.33398">
        <ele>99</ele>
        <time>2011-02-20T08:39:49Z</time>
      </trkpt>
      <trkpt lat="48.66636" lon="-3.33392">
        <ele>99</ele>
        <time>2011-02-20T08:39:50Z</time>
      </trkpt>
      <trkpt lat="48.66642" lon="-3.33385">
        <ele>99</ele>
        <time>2011-02-20T08:39:51Z</time>
      </trkpt>
      <trkpt lat="48.66648" lon="-3.33379">
        <ele>99</ele>
        <time>2011-02-20T08:39:52Z</time>
      </trkpt>
      <trkpt lat="48.66654" lon="-3.33372">
        <ele>99</ele>
        <time>2011-02-20T08:39:54Z</time>
      </trkpt>
      <trkpt lat="48.6666" lon="-3.33366">
        <ele>99</ele>
        <time>2011-02-20T08:39:54Z</time>
      </trkpt>
      <trkpt lat="48.66666" lon="-3.3336">
        <ele>99</ele>
        <time>2011-02-20T08:39:55Z</time>
      </trkpt>
      <trkpt lat="48.66672" lon="-3.33354">
        <ele>99</ele>
        <time>2011-02-20T08:39:56Z</time>
      </trkpt>
      <trkpt lat="48.66678" lon="-3.33348">
        <ele>99</ele>
        <time>2011-02-20T08:39:57Z</time>
      </trkpt>
      <trkpt lat="48.66684" lon="-3.33342">
        <ele>99</ele>
        <time>2011-02-20T08:39:59Z</time>
      </trkpt>
      <trkpt lat="48.6669" lon="-3.33335">
        <ele>99</ele>
        <time>2011-02-20T08:39:59Z</time>
      </trkpt>
      <trkpt lat="48.66696" lon="-3.33329">
        <ele>99</ele>
        <time>2011-02-20T08:40:00Z</time>
      </trkpt>
      <trkpt lat="48.66702" lon="-3.33323">
        <ele>99</ele>
        <time>2011-02-20T08:40:01Z</time>
      </trkpt>
      <trkpt lat="48.66708" lon="-3.33316">
        <ele>99</ele>
        <time>2011-02-20T08:40:02Z</time>
      </trkpt>
      <trkpt lat="48.66715" lon="-3.3331">
        <ele>99</ele>
        <time>2011-02-20T08:40:03Z</time>
      </trkpt>
      <trkpt lat="48.66721" lon="-3.33303">
        <ele>99</ele>
        <time>2011-02-20T08:40:04Z</time>
      </trkpt>
      <trkpt lat="48.66727" lon="-3.33296">
        <ele>99</ele>
        <time>2011-02-20T08:40:05Z</time>
      </trkpt>
      <trkpt lat="48.66734" lon="-3.3329">
        <ele>99</ele>
        <time>2011-02-20T08:40:06Z</time>
      </trkpt>
      <trkpt lat="48.6674" lon="-3.33283">
        <ele>99</ele>
        <time>2011-02-20T08:40:07Z</time>
      </trkpt>
      <trkpt lat="48.66747" lon="-3.33277">
        <ele>99</ele>
        <time>2011-02-20T08:40:09Z</time>
      </trkpt>
      <trkpt lat="48.66753" lon="-3.33271">
        <ele>99</ele>
        <time>2011-02-20T08:40:09Z</time>
      </trkpt>
      <trkpt lat="48.6676" lon="-3.33264">
        <ele>99</ele>
        <time>2011-02-20T08:40:10Z</time>
      </trkpt>
      <trkpt lat="48.66766" lon="-3.33258">
        <ele>99</ele>
        <time>2011-02-20T08:40:11Z</time>
      </trkpt>
      <trkpt lat="48.66773" lon="-3.33251">
        <ele>99</ele>
        <time>2011-02-20T08:40:12Z</time>
      </trkpt>
      <trkpt lat="48.66779" lon="-3.33245">
        <ele>99</ele>
        <time>2011-02-20T08:40:14Z</time>
      </trkpt>
      <trkpt lat="48.66785" lon="-3.33239">
        <ele>99</ele>
        <time>2011-02-20T08:40:14Z</time>
      </trkpt>
      <trkpt lat="48.66792" lon="-3.33232">
        <ele>99</ele>
        <time>2011-02-20T08:40:15Z</time>
      </trkpt>
      <trkpt lat="48.66798" lon="-3.33226">
        <ele>99</ele>
        <time>2011-02-20T08:40:16Z</time>
      </trkpt>
      <trkpt lat="48.66805" lon="-3.3322">
        <ele>99</ele>
        <time>2011-02-20T08:40:17Z</time>
      </trkpt>
      <trkpt lat="48.66811" lon="-3.33213">
        <ele>99</ele>
        <time>2011-02-20T08:40:19Z</time>
      </trkpt>
      <trkpt lat="48.66817" lon="-3.33207">
        <ele>99</ele>
        <time>2011-02-20T08:40:19Z</time>
      </trkpt>
      <trkpt lat="48.66823" lon="-3.33201">
        <ele>99</ele>
        <time>2011-02-20T08:40:20Z</time>
      </trkpt>
      <trkpt lat="48.6683" lon="-3.33194">
        <ele>99</ele>
        <time>2011-02-20T08:40:21Z</time>
      </trkpt>
      <trkpt lat="48.66836" lon="-3.33188">
        <ele>99</ele>
        <time>2011-02-20T08:40:22Z</time>
      </trkpt>
      <trkpt lat="48.66842" lon="-3.33182">
        <ele>99</ele>
        <time>2011-02-20T08:40:24Z</time>
      </trkpt>
      <trkpt lat="48.66848" lon="-3.33175">
        <ele>99</ele>
        <time>2011-02-20T08:40:24Z</time>
      </trkpt>
      <trkpt lat="48.66854" lon="-3.33169">
        <ele>99</ele>
        <time>2011-02-20T08:40:25Z</time>
      </trkpt>
      <trkpt lat="48.6686" lon="-3.33162">
        <ele>99</ele>
        <time>2011-02-20T08:40:26Z</time>
      </trkpt>
      <trkpt lat="48.66866" lon="-3.33156">
        <ele>99</ele>
        <time>2011-02-20T08:40:27Z</time>
      </trkpt>
      <trkpt lat="48.66872" lon="-3.33149">
        <ele>99</ele>
        <time>2011-02-20T08:40:29Z</time>
      </trkpt>
      <trkpt lat="48.66879" lon="-3.33142">
        <ele>99</ele>
        <time>2011-02-20T08:40:29Z</time>
      </trkpt>
      <trkpt lat="48.66884" lon="-3.33136">
        <ele>99</ele>
        <time>2011-02-20T08:40:30Z</time>
      </trkpt>
      <trkpt lat="48.6689" lon="-3.33129">
        <ele>99</ele>
        <time>2011-02-20T08:40:31Z</time>
      </trkpt>
      <trkpt lat="48.66896" lon="-3.33122">
        <ele>99</ele>
        <time>2011-02-20T08:40:32Z</time>
      </trkpt>
      <trkpt lat="48.66901" lon="-3.33115">
        <ele>99</ele>
        <time>2011-02-20T08:40:34Z</time>
      </trkpt>
      <trkpt lat="48.66907" lon="-3.33108">
        <ele>99</ele>
        <time>2011-02-20T08:40:34Z</time>
      </trkpt>
      <trkpt lat="48.66913" lon="-3.33101">
        <ele>99</ele>
        <time>2011-02-20T08:40:35Z</time>
      </trkpt>
      <trkpt lat="48.66919" lon="-3.33094">
        <ele>99</ele>
        <time>2011-02-20T08:40:36Z</time>
      </trkpt>
      <trkpt lat="48.66925" lon="-3.33087">
        <ele>99</ele>
        <time>2011-02-20T08:40:37Z</time>
      </trkpt>
      <trkpt lat="48.6693" lon="-3.3308">
        <ele>99</ele>
        <time>2011-02-20T08:40:39Z</time>
      </trkpt>
      <trkpt lat="48.66936" lon="-3.33072">
        <ele>99</ele>
        <time>2011-02-20T08:40:39Z</time>
      </trkpt>
      <trkpt lat="48.66941" lon="-3.33066">
        <ele>99</ele>
        <time>2011-02-20T08:40:40Z</time>
      </trkpt>
      <trkpt lat="48.66947" lon="-3.33058">
        <ele>99</ele>
        <time>2011-02-20T08:40:41Z</time>
      </trkpt>
      <trkpt lat="48.66953" lon="-3.33051">
        <ele>99</ele>
        <time>2011-02-20T08:40:42Z</time>
      </trkpt>
      <trkpt lat="48.66958" lon="-3.33043">
        <ele>99</ele>
        <time>2011-02-20T08:40:43Z</time>
      </trkpt>
      <trkpt lat="48.66964" lon="-3.33036">
        <ele>99</ele>
        <time>2011-02-20T08:40:44Z</time>
      </trkpt>
      <trkpt lat="48.66969" lon="-3.33028">
        <ele>99</ele>
        <time>2011-02-20T08:40:45Z</time>
      </trkpt>
      <trkpt lat="48.66974" lon="-3.3302">
        <ele>99</ele>
        <time>2011-02-20T08:40:46Z</time>
      </trkpt>
      <trkpt lat="48.6698" lon="-3.33012">
        <ele>99</ele>
        <time>2011-02-20T08:40:47Z</time>
      </trkpt>
      <trkpt lat="48.66985" lon="-3.33004">
        <ele>99</ele>
        <time>2011-02-20T08:40:49Z</time>
      </trkpt>
      <trkpt lat="48.66991" lon="-3.32995">
        <ele>99</ele>
        <time>2011-02-20T08:40:49Z</time>
      </trkpt>
      <trkpt lat="48.66996" lon="-3.32987">
        <ele>99</ele>
        <time>2011-02-20T08:40:50Z</time>
      </trkpt>
      <trkpt lat="48.67001" lon="-3.32979">
        <ele>99</ele>
        <time>2011-02-20T08:40:51Z</time>
      </trkpt>
      <trkpt lat="48.67006" lon="-3.3297">
        <ele>99</ele>
        <time>2011-02-20T08:40:52Z</time>
      </trkpt>
      <trkpt lat="48.6701" lon="-3.32962">
        <ele>99</ele>
        <time>2011-02-20T08:40:54Z</time>
      </trkpt>
      <trkpt lat="48.67015" lon="-3.32953">
        <ele>99</ele>
        <time>2011-02-20T08:40:54Z</time>
      </trkpt>
      <trkpt lat="48.6702" lon="-3.32944">
        <ele>99</ele>
        <time>2011-02-20T08:40:55Z</time>
      </trkpt>
      <trkpt lat="48.67025" lon="-3.32936">
        <ele>99</ele>
        <time>2011-02-20T08:40:56Z</time>
      </trkpt>
      <trkpt lat="48.6703" lon="-3.32927">
        <ele>99</ele>
        <time>2011-02-20T08:40:57Z</time>
      </trkpt>
      <trkpt lat="48.67035" lon="-3.32919">
        <ele>99</ele>
        <time>2011-02-20T08:40:59Z</time>
      </trkpt>
      <trkpt lat="48.6704" lon="-3.3291">
        <ele>99</ele>
        <time>2011-02-20T08:40:59Z</time>
      </trkpt>
      <trkpt lat="48.67045" lon="-3.32902">
        <ele>99</ele>
        <time>2011-02-20T08:41:00Z</time>
      </trkpt>
      <trkpt lat="48.6705" lon="-3.32893">
        <ele>99</ele>
        <time>2011-02-20T08:41:01Z</time>
      </trkpt>
      <trkpt lat="48.67054" lon="-3.32885">
        <ele>99</ele>
        <time>2011-02-20T08:41:02Z</time>
      </trkpt>
      <trkpt lat="48.67059" lon="-3.32877">
        <ele>99</ele>
        <time>2011-02-20T08:41:03Z</time>
      </trkpt>
      <trkpt lat="48.67064" lon="-3.32869">
        <ele>99</ele>
        <time>2011-02-20T08:41:04Z</time>
      </trkpt>
      <trkpt lat="48.67069" lon="-3.3286">
        <ele>99</ele>
        <time>2011-02-20T08:41:05Z</time>
      </trkpt>
      <trkpt lat="48.67074" lon="-3.32852">
        <ele>99</ele>
        <time>2011-02-20T08:41:06Z</time>
      </trkpt>
      <trkpt lat="48.67079" lon="-3.32844">
        <ele>99</ele>
        <time>2011-02-20T08:41:07Z</time>
      </trkpt>
      <trkpt lat="48.67083" lon="-3.32836">
        <ele>99</ele>
        <time>2011-02-20T08:41:09Z</time>
      </trkpt>
      <trkpt lat="48.67088" lon="-3.32828">
        <ele>99</ele>
        <time>2011-02-20T08:41:09Z</time>
      </trkpt>
      <trkpt lat="48.67094" lon="-3.3282">
        <ele>99</ele>
        <time>2011-02-20T08:41:10Z</time>
      </trkpt>
      <trkpt lat="48.67099" lon="-3.32811">
        <ele>99</ele>
        <time>2011-02-20T08:41:11Z</time>
      </trkpt>
      <trkpt lat="48.67104" lon="-3.32803">
        <ele>99</ele>
        <time>2011-02-20T08:41:12Z</time>
      </trkpt>
      <trkpt lat="48.67109" lon="-3.32795">
        <ele>99</ele>
        <time>2011-02-20T08:41:14Z</time>
      </trkpt>
      <trkpt lat="48.67114" lon="-3.32787">
        <ele>99</ele>
        <time>2011-02-20T08:41:14Z</time>
      </trkpt>
      <trkpt lat="48.6712" lon="-3.32779">
        <ele>99</ele>
        <time>2011-02-20T08:41:15Z</time>
      </trkpt>
      <trkpt lat="48.67125" lon="-3.32771">
        <ele>99</ele>
        <time>2011-02-20T08:41:16Z</time>
      </trkpt>
      <trkpt lat="48.67131" lon="-3.32764">
        <ele>99</ele>
        <time>2011-02-20T08:41:17Z</time>
      </trkpt>
      <trkpt lat="48.67136" lon="-3.32756">
        <ele>99</ele>
        <time>2011-02-20T08:41:19Z</time>
      </trkpt>
      <trkpt lat="48.67142" lon="-3.32748">
        <ele>99</ele>
        <time>2011-02-20T08:41:20Z</time>
      </trkpt>
      <trkpt lat="48.67147" lon="-3.3274">
        <ele>99</ele>
        <time>2011-02-20T08:41:20Z</time>
      </trkpt>
      <trkpt lat="48.67153" lon="-3.32732">
        <ele>99</ele>
        <time>2011-02-20T08:41:21Z</time>
      </trkpt>
      <trkpt lat="48.67158" lon="-3.32724">
        <ele>99</ele>
        <time>2011-02-20T08:41:22Z</time>
      </trkpt>
      <trkpt lat="48.67164" lon="-3.32716">
        <ele>99</ele>
        <time>2011-02-20T08:41:23Z</time>
      </trkpt>
      <trkpt lat="48.67169" lon="-3.32709">
        <ele>99</ele>
        <time>2011-02-20T08:41:24Z</time>
      </trkpt>
      <trkpt lat="48.67175" lon="-3.32701">
        <ele>99</ele>
        <time>2011-02-20T08:41:25Z</time>
      </trkpt>
      <trkpt lat="48.6718" lon="-3.32693">
        <ele>99</ele>
        <time>2011-02-20T08:41:26Z</time>
      </trkpt>
      <trkpt lat="48.67185" lon="-3.32685">
        <ele>99</ele>
        <time>2011-02-20T08:41:27Z</time>
      </trkpt>
      <trkpt lat="48.6719" lon="-3.32677">
        <ele>99</ele>
        <time>2011-02-20T08:41:28Z</time>
      </trkpt>
      <trkpt lat="48.67196" lon="-3.32669">
        <ele>99</ele>
        <time>2011-02-20T08:41:29Z</time>
      </trkpt>
      <trkpt lat="48.67201" lon="-3.32661">
        <ele>99</ele>
        <time>2011-02-20T08:41:30Z</time>
      </trkpt>
      <trkpt lat="48.67206" lon="-3.32652">
        <ele>99</ele>
        <time>2011-02-20T08:41:31Z</time>
      </trkpt>
      <trkpt lat="48.67212" lon="-3.32644">
        <ele>99</ele>
        <time>2011-02-20T08:41:32Z</time>
      </trkpt>
      <trkpt lat="48.67217" lon="-3.32636">
        <ele>99</ele>
        <time>2011-02-20T08:41:34Z</time>
      </trkpt>
      <trkpt lat="48.67222" lon="-3.32628">
        <ele>99</ele>
        <time>2011-02-20T08:41:34Z</time>
      </trkpt>
      <trkpt lat="48.67227" lon="-3.3262">
        <ele>99</ele>
        <time>2011-02-20T08:41:35Z</time>
      </trkpt>
      <trkpt lat="48.67233" lon="-3.32611">
        <ele>99</ele>
        <time>2011-02-20T08:41:36Z</time>
      </trkpt>
      <trkpt lat="48.67238" lon="-3.32603">
        <ele>99</ele>
        <time>2011-02-20T08:41:37Z</time>
      </trkpt>
      <trkpt lat="48.67243" lon="-3.32595">
        <ele>99</ele>
        <time>2011-02-20T08:41:38Z</time>
      </trkpt>
      <trkpt lat="48.67248" lon="-3.32586">
        <ele>99</ele>
        <time>2011-02-20T08:41:39Z</time>
      </trkpt>
      <trkpt lat="48.67253" lon="-3.32578">
        <ele>99</ele>
        <time>2011-02-20T08:41:40Z</time>
      </trkpt>
      <trkpt lat="48.67258" lon="-3.32569">
        <ele>99</ele>
        <time>2011-02-20T08:41:41Z</time>
      </trkpt>
      <trkpt lat="48.67263" lon="-3.3256">
        <ele>99</ele>
        <time>2011-02-20T08:41:42Z</time>
      </trkpt>
      <trkpt lat="48.67268" lon="-3.32552">
        <ele>99</ele>
        <time>2011-02-20T08:41:44Z</time>
      </trkpt>
      <trkpt lat="48.67273" lon="-3.32543">
        <ele>99</ele>
        <time>2011-02-20T08:41:44Z</time>
      </trkpt>
      <trkpt lat="48.67278" lon="-3.32535">
        <ele>99</ele>
        <time>2011-02-20T08:41:45Z</time>
      </trkpt>
      <trkpt lat="48.67282" lon="-3.32526">
        <ele>99</ele>
        <time>2011-02-20T08:41:46Z</time>
      </trkpt>
      <trkpt lat="48.67287" lon="-3.32518">
        <ele>99</ele>
        <time>2011-02-20T08:41:47Z</time>
      </trkpt>
      <trkpt lat="48.67292" lon="-3.32509">
        <ele>99</ele>
        <time>2011-02-20T08:41:48Z</time>
      </trkpt>
      <trkpt lat="48.67296" lon="-3.32501">
        <ele>99</ele>
        <time>2011-02-20T08:41:49Z</time>
      </trkpt>
      <trkpt lat="48.67301" lon="-3.32492">
        <ele>99</ele>
        <time>2011-02-20T08:41:50Z</time>
      </trkpt>
      <trkpt lat="48.67306" lon="-3.32483">
        <ele>99</ele>
        <time>2011-02-20T08:41:51Z</time>
      </trkpt>
      <trkpt lat="48.6731" lon="-3.32474">
        <ele>99</ele>
        <time>2011-02-20T08:41:52Z</time>
      </trkpt>
      <trkpt lat="48.67315" lon="-3.32466">
        <ele>99</ele>
        <time>2011-02-20T08:41:54Z</time>
      </trkpt>
      <trkpt lat="48.6732" lon="-3.32457">
        <ele>99</ele>
        <time>2011-02-20T08:41:54Z</time>
      </trkpt>
      <trkpt lat="48.67324" lon="-3.32448">
        <ele>99</ele>
        <time>2011-02-20T08:41:55Z</time>
      </trkpt>
      <trkpt lat="48.67329" lon="-3.32439">
        <ele>99</ele>
        <time>2011-02-20T08:41:56Z</time>
      </trkpt>
      <trkpt lat="48.67334" lon="-3.32431">
        <ele>100</ele>
        <time>2011-02-20T08:41:57Z</time>
      </trkpt>
      <trkpt lat="48.67339" lon="-3.32422">
        <ele>100</ele>
        <time>2011-02-20T08:41:58Z</time>
      </trkpt>
      <trkpt lat="48.67344" lon="-3.32414">
        <ele>100</ele>
        <time>2011-02-20T08:41:59Z</time>
      </trkpt>
      <trkpt lat="48.67348" lon="-3.32405">
        <ele>100</ele>
        <time>2011-02-20T08:42:00Z</time>
      </trkpt>
      <trkpt lat="48.67353" lon="-3.32397">
        <ele>100</ele>
        <time>2011-02-20T08:42:01Z</time>
      </trkpt>
      <trkpt lat="48.67358" lon="-3.32389">
        <ele>100</ele>
        <time>2011-02-20T08:42:02Z</time>
      </trkpt>
      <trkpt lat="48.67363" lon="-3.32381">
        <ele>100</ele>
        <time>2011-02-20T08:42:03Z</time>
      </trkpt>
      <trkpt lat="48.67368" lon="-3.32373">
        <ele>100</ele>
        <time>2011-02-20T08:42:04Z</time>
      </trkpt>
      <trkpt lat="48.67374" lon="-3.32365">
        <ele>100</ele>
        <time>2011-02-20T08:42:05Z</time>
      </trkpt>
      <trkpt lat="48.67379" lon="-3.32358">
        <ele>100</ele>
        <time>2011-02-20T08:42:06Z</time>
      </trkpt>
      <trkpt lat="48.67384" lon="-3.3235">
        <ele>100</ele>
        <time>2011-02-20T08:42:07Z</time>
      </trkpt>
      <trkpt lat="48.6739" lon="-3.32343">
        <ele>100</ele>
        <time>2011-02-20T08:42:08Z</time>
      </trkpt>
      <trkpt lat="48.67395" lon="-3.32335">
        <ele>100</ele>
        <time>2011-02-20T08:42:09Z</time>
      </trkpt>
      <trkpt lat="48.67401" lon="-3.32328">
        <ele>100</ele>
        <time>2011-02-20T08:42:10Z</time>
      </trkpt>
      <trkpt lat="48.67407" lon="-3.3232">
        <ele>100</ele>
        <time>2011-02-20T08:42:11Z</time>
      </trkpt>
      <trkpt lat="48.67413" lon="-3.32313">
        <ele>100</ele>
        <time>2011-02-20T08:42:12Z</time>
      </trkpt>
      <trkpt lat="48.67419" lon="-3.32307">
        <ele>100</ele>
        <time>2011-02-20T08:42:14Z</time>
      </trkpt>
      <trkpt lat="48.67425" lon="-3.323">
        <ele>100</ele>
        <time>2011-02-20T08:42:14Z</time>
      </trkpt>
      <trkpt lat="48.67431" lon="-3.32294">
        <ele>100</ele>
        <time>2011-02-20T08:42:15Z</time>
      </trkpt>
      <trkpt lat="48.67437" lon="-3.32287">
        <ele>100</ele>
        <time>2011-02-20T08:42:16Z</time>
      </trkpt>
      <trkpt lat="48.67444" lon="-3.32281">
        <ele>100</ele>
        <time>2011-02-20T08:42:17Z</time>
      </trkpt>
      <trkpt lat="48.6745" lon="-3.32276">
        <ele>100</ele>
        <time>2011-02-20T08:42:19Z</time>
      </trkpt>
      <trkpt lat="48.67456" lon="-3.3227">
        <ele>100</ele>
        <time>2011-02-20T08:42:19Z</time>
      </trkpt>
      <trkpt lat="48.67463" lon="-3.32265">
        <ele>100</ele>
        <time>2011-02-20T08:42:20Z</time>
      </trkpt>
      <trkpt lat="48.6747" lon="-3.32259">
        <ele>100</ele>
        <time>2011-02-20T08:42:21Z</time>
      </trkpt>
      <trkpt lat="48.67476" lon="-3.32254">
        <ele>100</ele>
        <time>2011-02-20T08:42:22Z</time>
      </trkpt>
      <trkpt lat="48.67483" lon="-3.32248">
        <ele>100</ele>
        <time>2011-02-20T08:42:23Z</time>
      </trkpt>
      <trkpt lat="48.6749" lon="-3.32243">
        <ele>100</ele>
        <time>2011-02-20T08:42:24Z</time>
      </trkpt>
      <trkpt lat="48.67497" lon="-3.32237">
        <ele>100</ele>
        <time>2011-02-20T08:42:25Z</time>
      </trkpt>
      <trkpt lat="48.67504" lon="-3.32231">
        <ele>100</ele>
        <time>2011-02-20T08:42:26Z</time>
      </trkpt>
      <trkpt lat="48.67511" lon="-3.32225">
        <ele>100</ele>
        <time>2011-02-20T08:42:27Z</time>
      </trkpt>
      <trkpt lat="48.67517" lon="-3.3222">
        <ele>100</ele>
        <time>2011-02-20T08:42:28Z</time>
      </trkpt>
      <trkpt lat="48.67524" lon="-3.32213">
        <ele>100</ele>
        <time>2011-02-20T08:42:29Z</time>
      </trkpt>
      <trkpt lat="48.67531" lon="-3.32207">
        <ele>100</ele>
        <time>2011-02-20T08:42:30Z</time>
      </trkpt>
      <trkpt lat="48.67538" lon="-3.32201">
        <ele>100</ele>
        <time>2011-02-20T08:42:31Z</time>
      </trkpt>
      <trkpt lat="48.67545" lon="-3.32195">
        <ele>100</ele>
        <time>2011-02-20T08:42:32Z</time>
      </trkpt>
      <trkpt lat="48.67551" lon="-3.32189">
        <ele>100</ele>
        <time>2011-02-20T08:42:33Z</time>
      </trkpt>
      <trkpt lat="48.67558" lon="-3.32182">
        <ele>100</ele>
        <time>2011-02-20T08:42:34Z</time>
      </trkpt>
      <trkpt lat="48.67564" lon="-3.32176">
        <ele>100</ele>
        <time>2011-02-20T08:42:35Z</time>
      </trkpt>
      <trkpt lat="48.67571" lon="-3.3217">
        <ele>100</ele>
        <time>2011-02-20T08:42:36Z</time>
      </trkpt>
      <trkpt lat="48.67577" lon="-3.32163">
        <ele>100</ele>
        <time>2011-02-20T08:42:37Z</time>
      </trkpt>
      <trkpt lat="48.67584" lon="-3.32157">
        <ele>100</ele>
        <time>2011-02-20T08:42:38Z</time>
      </trkpt>
      <trkpt lat="48.6759" lon="-3.32151">
        <ele>100</ele>
        <time>2011-02-20T08:42:39Z</time>
      </trkpt>
      <trkpt lat="48.67597" lon="-3.32145">
        <ele>100</ele>
        <time>2011-02-20T08:42:40Z</time>
      </trkpt>
      <trkpt lat="48.67604" lon="-3.32138">
        <ele>100</ele>
        <time>2011-02-20T08:42:41Z</time>
      </trkpt>
      <trkpt lat="48.6761" lon="-3.32132">
        <ele>100</ele>
        <time>2011-02-20T08:42:42Z</time>
      </trkpt>
      <trkpt lat="48.67617" lon="-3.32125">
        <ele>100</ele>
        <time>2011-02-20T08:42:44Z</time>
      </trkpt>
      <trkpt lat="48.67624" lon="-3.32119">
        <ele>100</ele>
        <time>2011-02-20T08:42:44Z</time>
      </trkpt>
      <trkpt lat="48.6763" lon="-3.32113">
        <ele>100</ele>
        <time>2011-02-20T08:42:45Z</time>
      </trkpt>
      <trkpt lat="48.67636" lon="-3.32106">
        <ele>100</ele>
        <time>2011-02-20T08:42:46Z</time>
      </trkpt>
      <trkpt lat="48.67643" lon="-3.321">
        <ele>100</ele>
        <time>2011-02-20T08:42:47Z</time>
      </trkpt>
      <trkpt lat="48.67649" lon="-3.32094">
        <ele>100</ele>
        <time>2011-02-20T08:42:48Z</time>
      </trkpt>
      <trkpt lat="48.67655" lon="-3.32088">
        <ele>100</ele>
        <time>2011-02-20T08:42:49Z</time>
      </trkpt>
      <trkpt lat="48.67661" lon="-3.32081">
        <ele>100</ele>
        <time>2011-02-20T08:42:50Z</time>
      </trkpt>
      <trkpt lat="48.67668" lon="-3.32075">
        <ele>100</ele>
        <time>2011-02-20T08:42:51Z</time>
      </trkpt>
      <trkpt lat="48.67674" lon="-3.32068">
        <ele>100</ele>
        <time>2011-02-20T08:42:52Z</time>
      </trkpt>
      <trkpt lat="48.6768" lon="-3.32061">
        <ele>100</ele>
        <time>2011-02-20T08:42:53Z</time>
      </trkpt>
      <trkpt lat="48.67686" lon="-3.32053">
        <ele>100</ele>
        <time>2011-02-20T08:42:54Z</time>
      </trkpt>
      <trkpt lat="48.67693" lon="-3.32046">
        <ele>100</ele>
        <time>2011-02-20T08:42:55Z</time>
      </trkpt>
      <trkpt lat="48.67699" lon="-3.32038">
        <ele>100</ele>
        <time>2011-02-20T08:42:56Z</time>
      </trkpt>
      <trkpt lat="48.67705" lon="-3.32031">
        <ele>100</ele>
        <time>2011-02-20T08:42:57Z</time>
      </trkpt>
      <trkpt lat="48.67711" lon="-3.32024">
        <ele>100</ele>
        <time>2011-02-20T08:42:58Z</time>
      </trkpt>
      <trkpt lat="48.67717" lon="-3.32016">
        <ele>100</ele>
        <time>2011-02-20T08:42:59Z</time>
      </trkpt>
      <trkpt lat="48.67723" lon="-3.32009">
        <ele>100</ele>
        <time>2011-02-20T08:43:00Z</time>
      </trkpt>
      <trkpt lat="48.67729" lon="-3.32002">
        <ele>100</ele>
        <time>2011-02-20T08:43:01Z</time>
      </trkpt>
      <trkpt lat="48.67736" lon="-3.31995">
        <ele>100</ele>
        <time>2011-02-20T08:43:02Z</time>
      </trkpt>
      <trkpt lat="48.67742" lon="-3.31988">
        <ele>100</ele>
        <time>2011-02-20T08:43:03Z</time>
      </trkpt>
      <trkpt lat="48.67748" lon="-3.31981">
        <ele>100</ele>
        <time>2011-02-20T08:43:04Z</time>
      </trkpt>
      <trkpt lat="48.67754" lon="-3.31974">
        <ele>100</ele>
        <time>2011-02-20T08:43:05Z</time>
      </trkpt>
      <trkpt lat="48.6776" lon="-3.31967">
        <ele>100</ele>
        <time>2011-02-20T08:43:06Z</time>
      </trkpt>
      <trkpt lat="48.67767" lon="-3.3196">
        <ele>100</ele>
        <time>2011-02-20T08:43:07Z</time>
      </trkpt>
      <trkpt lat="48.67773" lon="-3.31953">
        <ele>100</ele>
        <time>2011-02-20T08:43:08Z</time>
      </trkpt>
      <trkpt lat="48.6778" lon="-3.31946">
        <ele>100</ele>
        <time>2011-02-20T08:43:09Z</time>
      </trkpt>
      <trkpt lat="48.67786" lon="-3.3194">
        <ele>100</ele>
        <time>2011-02-20T08:43:10Z</time>
      </trkpt>
      <trkpt lat="48.67792" lon="-3.31933">
        <ele>100</ele>
        <time>2011-02-20T08:43:11Z</time>
      </trkpt>
      <trkpt lat="48.67798" lon="-3.31927">
        <ele>100</ele>
        <time>2011-02-20T08:43:12Z</time>
      </trkpt>
      <trkpt lat="48.67805" lon="-3.31921">
        <ele>100</ele>
        <time>2011-02-20T08:43:13Z</time>
      </trkpt>
      <trkpt lat="48.67811" lon="-3.31915">
        <ele>100</ele>
        <time>2011-02-20T08:43:14Z</time>
      </trkpt>
      <trkpt lat="48.67817" lon="-3.31909">
        <ele>100</ele>
        <time>2011-02-20T08:43:15Z</time>
      </trkpt>
      <trkpt lat="48.67824" lon="-3.31904">
        <ele>100</ele>
        <time>2011-02-20T08:43:16Z</time>
      </trkpt>
      <trkpt lat="48.6783" lon="-3.31898">
        <ele>100</ele>
        <time>2011-02-20T08:43:17Z</time>
      </trkpt>
      <trkpt lat="48.67837" lon="-3.31893">
        <ele>100</ele>
        <time>2011-02-20T08:43:18Z</time>
      </trkpt>
      <trkpt lat="48.67843" lon="-3.31888">
        <ele>100</ele>
        <time>2011-02-20T08:43:19Z</time>
      </trkpt>
      <trkpt lat="48.6785" lon="-3.31883">
        <ele>100</ele>
        <time>2011-02-20T08:43:20Z</time>
      </trkpt>
      <trkpt lat="48.67857" lon="-3.31879">
        <ele>100</ele>
        <time>2011-02-20T08:43:21Z</time>
      </trkpt>
      <trkpt lat="48.67864" lon="-3.31876">
        <ele>100</ele>
        <time>2011-02-20T08:43:22Z</time>
      </trkpt>
      <trkpt lat="48.67871" lon="-3.31873">
        <ele>100</ele>
        <time>2011-02-20T08:43:23Z</time>
      </trkpt>
      <trkpt lat="48.67879" lon="-3.3187">
        <ele>100</ele>
        <time>2011-02-20T08:43:24Z</time>
      </trkpt>
      <trkpt lat="48.67886" lon="-3.31869">
        <ele>100</ele>
        <time>2011-02-20T08:43:25Z</time>
      </trkpt>
      <trkpt lat="48.67894" lon="-3.31867">
        <ele>100</ele>
        <time>2011-02-20T08:43:26Z</time>
      </trkpt>
      <trkpt lat="48.67902" lon="-3.31866">
        <ele>100</ele>
        <time>2011-02-20T08:43:27Z</time>
      </trkpt>
      <trkpt lat="48.67909" lon="-3.31866">
        <ele>100</ele>
        <time>2011-02-20T08:43:28Z</time>
      </trkpt>
      <trkpt lat="48.67917" lon="-3.31866">
        <ele>100</ele>
        <time>2011-02-20T08:43:29Z</time>
      </trkpt>
      <trkpt lat="48.67925" lon="-3.31866">
        <ele>100</ele>
        <time>2011-02-20T08:43:30Z</time>
      </trkpt>
      <trkpt lat="48.67934" lon="-3.31867">
        <ele>100</ele>
        <time>2011-02-20T08:43:31Z</time>
      </trkpt>
      <trkpt lat="48.67942" lon="-3.31868">
        <ele>100</ele>
        <time>2011-02-20T08:43:32Z</time>
      </trkpt>
      <trkpt lat="48.6795" lon="-3.31869">
        <ele>100</ele>
        <time>2011-02-20T08:43:33Z</time>
      </trkpt>
      <trkpt lat="48.67958" lon="-3.3187">
        <ele>100</ele>
        <time>2011-02-20T08:43:34Z</time>
      </trkpt>
      <trkpt lat="48.67966" lon="-3.31872">
        <ele>100</ele>
        <time>2011-02-20T08:43:35Z</time>
      </trkpt>
      <trkpt lat="48.67974" lon="-3.31873">
        <ele>100</ele>
        <time>2011-02-20T08:43:36Z</time>
      </trkpt>
      <trkpt lat="48.67982" lon="-3.31874">
        <ele>100</ele>
        <time>2011-02-20T08:43:37Z</time>
      </trkpt>
      <trkpt lat="48.6799" lon="-3.31876">
        <ele>100</ele>
        <time>2011-02-20T08:43:38Z</time>
      </trkpt>
      <trkpt lat="48.67999" lon="-3.31877">
        <ele>100</ele>
        <time>2011-02-20T08:43:39Z</time>
      </trkpt>
      <trkpt lat="48.68007" lon="-3.31879">
        <ele>100</ele>
        <time>2011-02-20T08:43:40Z</time>
      </trkpt>
      <trkpt lat="48.68015" lon="-3.31881">
        <ele>100</ele>
        <time>2011-02-20T08:43:41Z</time>
      </trkpt>
      <trkpt lat="48.68023" lon="-3.31882">
        <ele>100</ele>
        <time>2011-02-20T08:43:42Z</time>
      </trkpt>
      <trkpt lat="48.68031" lon="-3.31883">
        <ele>100</ele>
        <time>2011-02-20T08:43:44Z</time>
      </trkpt>
      <trkpt lat="48.68039" lon="-3.31884">
        <ele>100</ele>
        <time>2011-02-20T08:43:44Z</time>
      </trkpt>
      <trkpt lat="48.68047" lon="-3.31884">
        <ele>100</ele>
        <time>2011-02-20T08:43:45Z</time>
      </trkpt>
      <trkpt lat="48.68056" lon="-3.31884">
        <ele>100</ele>
        <time>2011-02-20T08:43:46Z</time>
      </trkpt>
      <trkpt lat="48.68064" lon="-3.31884">
        <ele>100</ele>
        <time>2011-02-20T08:43:47Z</time>
      </trkpt>
      <trkpt lat="48.68072" lon="-3.31884">
        <ele>100</ele>
        <time>2011-02-20T08:43:48Z</time>
      </trkpt>
      <trkpt lat="48.6808" lon="-3.31884">
        <ele>100</ele>
        <time>2011-02-20T08:43:49Z</time>
      </trkpt>
      <trkpt lat="48.68089" lon="-3.31884">
        <ele>100</ele>
        <time>2011-02-20T08:43:50Z</time>
      </trkpt>
      <trkpt lat="48.68097" lon="-3.31884">
        <ele>100</ele>
        <time>2011-02-20T08:43:51Z</time>
      </trkpt>
      <trkpt lat="48.68105" lon="-3.31883">
        <ele>100</ele>
        <time>2011-02-20T08:43:52Z</time>
      </trkpt>
      <trkpt lat="48.68113" lon="-3.31883">
        <ele>100</ele>
        <time>2011-02-20T08:43:53Z</time>
      </trkpt>
      <trkpt lat="48.68121" lon="-3.31882">
        <ele>100</ele>
        <time>2011-02-20T08:43:54Z</time>
      </trkpt>
      <trkpt lat="48.68129" lon="-3.31881">
        <ele>100</ele>
        <time>2011-02-20T08:43:55Z</time>
      </trkpt>
      <trkpt lat="48.68137" lon="-3.3188">
        <ele>100</ele>
        <time>2011-02-20T08:43:56Z</time>
      </trkpt>
      <trkpt lat="48.68145" lon="-3.31879">
        <ele>100</ele>
        <time>2011-02-20T08:43:57Z</time>
      </trkpt>
      <trkpt lat="48.68153" lon="-3.31878">
        <ele>100</ele>
        <time>2011-02-20T08:43:58Z</time>
      </trkpt>
      <trkpt lat="48.68161" lon="-3.31877">
        <ele>100</ele>
        <time>2011-02-20T08:43:59Z</time>
      </trkpt>
      <trkpt lat="48.68169" lon="-3.31875">
        <ele>100</ele>
        <time>2011-02-20T08:44:00Z</time>
      </trkpt>
      <trkpt lat="48.68177" lon="-3.31873">
        <ele>100</ele>
        <time>2011-02-20T08:44:01Z</time>
      </trkpt>
      <trkpt lat="48.68186" lon="-3.31871">
        <ele>100</ele>
        <time>2011-02-20T08:44:02Z</time>
      </trkpt>
      <trkpt lat="48.68194" lon="-3.3187">
        <ele>100</ele>
        <time>2011-02-20T08:44:03Z</time>
      </trkpt>
      <trkpt lat="48.68201" lon="-3.31868">
        <ele>100</ele>
        <time>2011-02-20T08:44:04Z</time>
      </trkpt>
      <trkpt lat="48.68209" lon="-3.31866">
        <ele>100</ele>
        <time>2011-02-20T08:44:05Z</time>
      </trkpt>
      <trkpt lat="48.68216" lon="-3.31864">
        <ele>100</ele>
        <time>2011-02-20T08:44:06Z</time>
      </trkpt>
      <trkpt lat="48.68224" lon="-3.31862">
        <ele>100</ele>
        <time>2011-02-20T08:44:07Z</time>
      </trkpt>
      <trkpt lat="48.68232" lon="-3.3186">
        <ele>100</ele>
        <time>2011-02-20T08:44:08Z</time>
      </trkpt>
      <trkpt lat="48.68239" lon="-3.31858">
        <ele>100</ele>
        <time>2011-02-20T08:44:09Z</time>
      </trkpt>
      <trkpt lat="48.68247" lon="-3.31856">
        <ele>100</ele>
        <time>2011-02-20T08:44:10Z</time>
      </trkpt>
      <trkpt lat="48.68254" lon="-3.31855">
        <ele>100</ele>
        <time>2011-02-20T08:44:11Z</time>
      </trkpt>
      <trkpt lat="48.68262" lon="-3.31853">
        <ele>100</ele>
        <time>2011-02-20T08:44:12Z</time>
      </trkpt>
      <trkpt lat="48.6827" lon="-3.31851">
        <ele>100</ele>
        <time>2011-02-20T08:44:14Z</time>
      </trkpt>
      <trkpt lat="48.68277" lon="-3.31849">
        <ele>100</ele>
        <time>2011-02-20T08:44:14Z</time>
      </trkpt>
      <trkpt lat="48.68285" lon="-3.31846">
        <ele>100</ele>
        <time>2011-02-20T08:44:15Z</time>
      </trkpt>
      <trkpt lat="48.68293" lon="-3.31844">
        <ele>100</ele>
        <time>2011-02-20T08:44:16Z</time>
      </trkpt>
      <trkpt lat="48.683" lon="-3.31842">
        <ele>100</ele>
        <time>2011-02-20T08:44:17Z</time>
      </trkpt>
      <trkpt lat="48.68308" lon="-3.3184">
        <ele>100</ele>
        <time>2011-02-20T08:44:18Z</time>
      </trkpt>
      <trkpt lat="48.68316" lon="-3.31838">
        <ele>100</ele>
        <time>2011-02-20T08:44:19Z</time>
      </trkpt>
      <trkpt lat="48.68323" lon="-3.31836">
        <ele>100</ele>
        <time>2011-02-20T08:44:20Z</time>
      </trkpt>
      <trkpt lat="48.68331" lon="-3.31834">
        <ele>100</ele>
        <time>2011-02-20T08:44:21Z</time>
      </trkpt>
      <trkpt lat="48.68338" lon="-3.31832">
        <ele>100</ele>
        <time>2011-02-20T08:44:22Z</time>
      </trkpt>
      <trkpt lat="48.68346" lon="-3.3183">
        <ele>100</ele>
        <time>2011-02-20T08:44:23Z</time>
      </trkpt>
      <trkpt lat="48.68354" lon="-3.31828">
        <ele>100</ele>
        <time>2011-02-20T08:44:24Z</time>
      </trkpt>
      <trkpt lat="48.68362" lon="-3.31827">
        <ele>101</ele>
        <time>2011-02-20T08:44:25Z</time>
      </trkpt>
      <trkpt lat="48.6837" lon="-3.31825">
        <ele>101</ele>
        <time>2011-02-20T08:44:26Z</time>
      </trkpt>
      <trkpt lat="48.68378" lon="-3.31824">
        <ele>101</ele>
        <time>2011-02-20T08:44:27Z</time>
      </trkpt>
      <trkpt lat="48.68386" lon="-3.31823">
        <ele>101</ele>
        <time>2011-02-20T08:44:28Z</time>
      </trkpt>
      <trkpt lat="48.68394" lon="-3.31822">
        <ele>101</ele>
        <time>2011-02-20T08:44:29Z</time>
      </trkpt>
      <trkpt lat="48.68402" lon="-3.31821">
        <ele>101</ele>
        <time>2011-02-20T08:44:30Z</time>
      </trkpt>
      <trkpt lat="48.6841" lon="-3.3182">
        <ele>101</ele>
        <time>2011-02-20T08:44:31Z</time>
      </trkpt>
      <trkpt lat="48.68418" lon="-3.31818">
        <ele>101</ele>
        <time>2011-02-20T08:44:32Z</time>
      </trkpt>
      <trkpt lat="48.68426" lon="-3.31817">
        <ele>101</ele>
        <time>2011-02-20T08:44:33Z</time>
      </trkpt>
      <trkpt lat="48.68434" lon="-3.31816">
        <ele>101</ele>
        <time>2011-02-20T08:44:34Z</time>
      </trkpt>
      <trkpt lat="48.68442" lon="-3.31815">
        <ele>101</ele>
        <time>2011-02-20T08:44:35Z</time>
      </trkpt>
      <trkpt lat="48.6845" lon="-3.31814">
        <ele>101</ele>
        <time>2011-02-20T08:44:36Z</time>
      </trkpt>
      <trkpt lat="48.68458" lon="-3.31813">
        <ele>101</ele>
        <time>2011-02-20T08:44:37Z</time>
      </trkpt>
      <trkpt lat="48.68466" lon="-3.31811">
        <ele>101</ele>
        <time>2011-02-20T08:44:38Z</time>
      </trkpt>
      <trkpt lat="48.68474" lon="-3.3181">
        <ele>101</ele>
        <time>2011-02-20T08:44:39Z</time>
      </trkpt>
      <trkpt lat="48.68482" lon="-3.31809">
        <ele>101</ele>
        <time>2011-02-20T08:44:40Z</time>
      </trkpt>
      <trkpt lat="48.6849" lon="-3.31808">
        <ele>101</ele>
        <time>2011-02-20T08:44:41Z</time>
      </trkpt>
      <trkpt lat="48.68499" lon="-3.31807">
        <ele>101</ele>
        <time>2011-02-20T08:44:42Z</time>
      </trkpt>
      <trkpt lat="48.68507" lon="-3.31806">
        <ele>101</ele>
        <time>2011-02-20T08:44:43Z</time>
      </trkpt>
      <trkpt lat="48.68515" lon="-3.31805">
        <ele>101</ele>
        <time>2011-02-20T08:44:44Z</time>
      </trkpt>
      <trkpt lat="48.68524" lon="-3.31804">
        <ele>101</ele>
        <time>2011-02-20T08:44:45Z</time>
      </trkpt>
      <trkpt lat="48.68532" lon="-3.31803">
        <ele>101</ele>
        <time>2011-02-20T08:44:46Z</time>
      </trkpt>
      <trkpt lat="48.68541" lon="-3.31802">
        <ele>101</ele>
        <time>2011-02-20T08:44:47Z</time>
      </trkpt>
      <trkpt lat="48.68549" lon="-3.31801">
        <ele>101</ele>
        <time>2011-02-20T08:44:48Z</time>
      </trkpt>
      <trkpt lat="48.68558" lon="-3.318">
        <ele>101</ele>
        <time>2011-02-20T08:44:49Z</time>
      </trkpt>
      <trkpt lat="48.68567" lon="-3.31798">
        <ele>101</ele>
        <time>2011-02-20T08:44:50Z</time>
      </trkpt>
      <trkpt lat="48.68575" lon="-3.31796">
        <ele>101</ele>
        <time>2011-02-20T08:44:51Z</time>
      </trkpt>
      <trkpt lat="48.68583" lon="-3.31793">
        <ele>101</ele>
        <time>2011-02-20T08:44:52Z</time>
      </trkpt>
      <trkpt lat="48.68591" lon="-3.3179">
        <ele>101</ele>
        <time>2011-02-20T08:44:53Z</time>
      </trkpt>
      <trkpt lat="48.68599" lon="-3.31786">
        <ele>101</ele>
        <time>2011-02-20T08:44:54Z</time>
      </trkpt>
      <trkpt lat="48.68607" lon="-3.31782">
        <ele>101</ele>
        <time>2011-02-20T08:44:55Z</time>
      </trkpt>
      <trkpt lat="48.68614" lon="-3.31778">
        <ele>101</ele>
        <time>2011-02-20T08:44:56Z</time>
      </trkpt>
      <trkpt lat="48.68621" lon="-3.31772">
        <ele>101</ele>
        <time>2011-02-20T08:44:57Z</time>
      </trkpt>
      <trkpt lat="48.68629" lon="-3.31767">
        <ele>101</ele>
        <time>2011-02-20T08:44:58Z</time>
      </trkpt>
      <trkpt lat="48.68636" lon="-3.31762">
        <ele>101</ele>
        <time>2011-02-20T08:44:59Z</time>
      </trkpt>
      <trkpt lat="48.68644" lon="-3.31756">
        <ele>101</ele>
        <time>2011-02-20T08:45:00Z</time>
      </trkpt>
      <trkpt lat="48.68651" lon="-3.31751">
        <ele>101</ele>
        <time>2011-02-20T08:45:01Z</time>
      </trkpt>
      <trkpt lat="48.68659" lon="-3.31747">
        <ele>101</ele>
        <time>2011-02-20T08:45:02Z</time>
      </trkpt>
      <trkpt lat="48.68668" lon="-3.31743">
        <ele>101</ele>
        <time>2011-02-20T08:45:03Z</time>
      </trkpt>
      <trkpt lat="48.68676" lon="-3.3174">
        <ele>101</ele>
        <time>2011-02-20T08:45:04Z</time>
      </trkpt>
      <trkpt lat="48.68685" lon="-3.31737">
        <ele>101</ele>
        <time>2011-02-20T08:45:05Z</time>
      </trkpt>
      <trkpt lat="48.68694" lon="-3.31735">
        <ele>101</ele>
        <time>2011-02-20T08:45:06Z</time>
      </trkpt>
      <trkpt lat="48.68703" lon="-3.31733">
        <ele>101</ele>
        <time>2011-02-20T08:45:07Z</time>
      </trkpt>
      <trkpt lat="48.68712" lon="-3.31733">
        <ele>101</ele>
        <time>2011-02-20T08:45:08Z</time>
      </trkpt>
      <trkpt lat="48.68721" lon="-3.31733">
        <ele>101</ele>
        <time>2011-02-20T08:45:09Z</time>
      </trkpt>
      <trkpt lat="48.68731" lon="-3.31733">
        <ele>101</ele>
        <time>2011-02-20T08:45:10Z</time>
      </trkpt>
      <trkpt lat="48.6874" lon="-3.31734">
        <ele>101</ele>
        <time>2011-02-20T08:45:11Z</time>
      </trkpt>
      <trkpt lat="48.68749" lon="-3.31735">
        <ele>100</ele>
        <time>2011-02-20T08:45:12Z</time>
      </trkpt>
      <trkpt lat="48.68758" lon="-3.31736">
        <ele>100</ele>
        <time>2011-02-20T08:45:13Z</time>
      </trkpt>
      <trkpt lat="48.68768" lon="-3.31737">
        <ele>100</ele>
        <time>2011-02-20T08:45:14Z</time>
      </trkpt>
      <trkpt lat="48.68776" lon="-3.31738">
        <ele>99</ele>
        <time>2011-02-20T08:45:15Z</time>
      </trkpt>
      <trkpt lat="48.68785" lon="-3.31738">
        <ele>99</ele>
        <time>2011-02-20T08:45:16Z</time>
      </trkpt>
      <trkpt lat="48.68794" lon="-3.31739">
        <ele>99</ele>
        <time>2011-02-20T08:45:17Z</time>
      </trkpt>
      <trkpt lat="48.68803" lon="-3.3174">
        <ele>98</ele>
        <time>2011-02-20T08:45:18Z</time>
      </trkpt>
      <trkpt lat="48.68813" lon="-3.3174">
        <ele>98</ele>
        <time>2011-02-20T08:45:19Z</time>
      </trkpt>
      <trkpt lat="48.68821" lon="-3.31741">
        <ele>98</ele>
        <time>2011-02-20T08:45:20Z</time>
      </trkpt>
      <trkpt lat="48.6883" lon="-3.31741">
        <ele>98</ele>
        <time>2011-02-20T08:45:21Z</time>
      </trkpt>
      <trkpt lat="48.68839" lon="-3.31742">
        <ele>98</ele>
        <time>2011-02-20T08:45:22Z</time>
      </trkpt>
      <trkpt lat="48.68848" lon="-3.31743">
        <ele>98</ele>
        <time>2011-02-20T08:45:23Z</time>
      </trkpt>
      <trkpt lat="48.68857" lon="-3.31744">
        <ele>98</ele>
        <time>2011-02-20T08:45:24Z</time>
      </trkpt>
      <trkpt lat="48.68866" lon="-3.31745">
        <ele>97</ele>
        <time>2011-02-20T08:45:25Z</time>
      </trkpt>
      <trkpt lat="48.68874" lon="-3.31746">
        <ele>97</ele>
        <time>2011-02-20T08:45:26Z</time>
      </trkpt>
      <trkpt lat="48.68882" lon="-3.31747">
        <ele>97</ele>
        <time>2011-02-20T08:45:27Z</time>
      </trkpt>
      <trkpt lat="48.6889" lon="-3.31748">
        <ele>97</ele>
        <time>2011-02-20T08:45:28Z</time>
      </trkpt>
      <trkpt lat="48.68898" lon="-3.31749">
        <ele>97</ele>
        <time>2011-02-20T08:45:29Z</time>
      </trkpt>
      <trkpt lat="48.68906" lon="-3.3175">
        <ele>97</ele>
        <time>2011-02-20T08:45:30Z</time>
      </trkpt>
      <trkpt lat="48.68914" lon="-3.31751">
        <ele>97</ele>
        <time>2011-02-20T08:45:31Z</time>
      </trkpt>
      <trkpt lat="48.68922" lon="-3.31753">
        <ele>97</ele>
        <time>2011-02-20T08:45:32Z</time>
      </trkpt>
      <trkpt lat="48.6893" lon="-3.31754">
        <ele>97</ele>
        <time>2011-02-20T08:45:33Z</time>
      </trkpt>
      <trkpt lat="48.68937" lon="-3.31755">
        <ele>97</ele>
        <time>2011-02-20T08:45:34Z</time>
      </trkpt>
      <trkpt lat="48.68945" lon="-3.31757">
        <ele>97</ele>
        <time>2011-02-20T08:45:35Z</time>
      </trkpt>
      <trkpt lat="48.68953" lon="-3.31758">
        <ele>97</ele>
        <time>2011-02-20T08:45:36Z</time>
      </trkpt>
      <trkpt lat="48.68961" lon="-3.3176">
        <ele>97</ele>
        <time>2011-02-20T08:45:37Z</time>
      </trkpt>
      <trkpt lat="48.6897" lon="-3.31762">
        <ele>97</ele>
        <time>2011-02-20T08:45:38Z</time>
      </trkpt>
      <trkpt lat="48.68978" lon="-3.31763">
        <ele>97</ele>
        <time>2011-02-20T08:45:39Z</time>
      </trkpt>
      <trkpt lat="48.68986" lon="-3.31765">
        <ele>97</ele>
        <time>2011-02-20T08:45:40Z</time>
      </trkpt>
      <trkpt lat="48.68994" lon="-3.31766">
        <ele>97</ele>
        <time>2011-02-20T08:45:41Z</time>
      </trkpt>
      <trkpt lat="48.69003" lon="-3.31768">
        <ele>97</ele>
        <time>2011-02-20T08:45:42Z</time>
      </trkpt>
      <trkpt lat="48.69011" lon="-3.3177">
        <ele>97</ele>
        <time>2011-02-20T08:45:43Z</time>
      </trkpt>
      <trkpt lat="48.69019" lon="-3.31771">
        <ele>97</ele>
        <time>2011-02-20T08:45:44Z</time>
      </trkpt>
      <trkpt lat="48.69027" lon="-3.31773">
        <ele>97</ele>
        <time>2011-02-20T08:45:45Z</time>
      </trkpt>
      <trkpt lat="48.69035" lon="-3.31774">
        <ele>97</ele>
        <time>2011-02-20T08:45:46Z</time>
      </trkpt>
      <trkpt lat="48.69043" lon="-3.31776">
        <ele>97</ele>
        <time>2011-02-20T08:45:47Z</time>
      </trkpt>
      <trkpt lat="48.69051" lon="-3.31777">
        <ele>96</ele>
        <time>2011-02-20T08:45:48Z</time>
      </trkpt>
      <trkpt lat="48.69059" lon="-3.31778">
        <ele>96</ele>
        <time>2011-02-20T08:45:49Z</time>
      </trkpt>
      <trkpt lat="48.69067" lon="-3.31779">
        <ele>96</ele>
        <time>2011-02-20T08:45:50Z</time>
      </trkpt>
      <trkpt lat="48.69075" lon="-3.31781">
        <ele>96</ele>
        <time>2011-02-20T08:45:51Z</time>
      </trkpt>
      <trkpt lat="48.69083" lon="-3.31782">
        <ele>95</ele>
        <time>2011-02-20T08:45:52Z</time>
      </trkpt>
      <trkpt lat="48.69091" lon="-3.31782">
        <ele>95</ele>
        <time>2011-02-20T08:45:53Z</time>
      </trkpt>
      <trkpt lat="48.69099" lon="-3.31783">
        <ele>95</ele>
        <time>2011-02-20T08:45:54Z</time>
      </trkpt>
      <trkpt lat="48.69107" lon="-3.31783">
        <ele>95</ele>
        <time>2011-02-20T08:45:55Z</time>
      </trkpt>
      <trkpt lat="48.69115" lon="-3.31784">
        <ele>95</ele>
        <time>2011-02-20T08:45:56Z</time>
      </trkpt>
      <trkpt lat="48.69123" lon="-3.31784">
        <ele>95</ele>
        <time>2011-02-20T08:45:57Z</time>
      </trkpt>
      <trkpt lat="48.69132" lon="-3.31784">
        <ele>95</ele>
        <time>2011-02-20T08:45:58Z</time>
      </trkpt>
      <trkpt lat="48.6914" lon="-3.31784">
        <ele>95</ele>
        <time>2011-02-20T08:45:59Z</time>
      </trkpt>
      <trkpt lat="48.69149" lon="-3.31784">
        <ele>95</ele>
        <time>2011-02-20T08:46:00Z</time>
      </trkpt>
      <trkpt lat="48.69157" lon="-3.31784">
        <ele>94</ele>
        <time>2011-02-20T08:46:01Z</time>
      </trkpt>
      <trkpt lat="48.69165" lon="-3.31783">
        <ele>94</ele>
        <time>2011-02-20T08:46:02Z</time>
      </trkpt>
      <trkpt lat="48.69174" lon="-3.31782">
        <ele>94</ele>
        <time>2011-02-20T08:46:03Z</time>
      </trkpt>
      <trkpt lat="48.69182" lon="-3.3178">
        <ele>94</ele>
        <time>2011-02-20T08:46:04Z</time>
      </trkpt>
      <trkpt lat="48.69191" lon="-3.31779">
        <ele>94</ele>
        <time>2011-02-20T08:46:05Z</time>
      </trkpt>
      <trkpt lat="48.69199" lon="-3.31777">
        <ele>94</ele>
        <time>2011-02-20T08:46:06Z</time>
      </trkpt>
      <trkpt lat="48.69208" lon="-3.31775">
        <ele>94</ele>
        <time>2011-02-20T08:46:07Z</time>
      </trkpt>
      <trkpt lat="48.69216" lon="-3.31773">
        <ele>94</ele>
        <time>2011-02-20T08:46:08Z</time>
      </trkpt>
      <trkpt lat="48.69225" lon="-3.3177">
        <ele>94</ele>
        <time>2011-02-20T08:46:09Z</time>
      </trkpt>
      <trkpt lat="48.69233" lon="-3.31768">
        <ele>94</ele>
        <time>2011-02-20T08:46:10Z</time>
      </trkpt>
      <trkpt lat="48.69242" lon="-3.31765">
        <ele>94</ele>
        <time>2011-02-20T08:46:11Z</time>
      </trkpt>
      <trkpt lat="48.6925" lon="-3.31763">
        <ele>94</ele>
        <time>2011-02-20T08:46:12Z</time>
      </trkpt>
      <trkpt lat="48.69258" lon="-3.3176">
        <ele>94</ele>
        <time>2011-02-20T08:46:13Z</time>
      </trkpt>
      <trkpt lat="48.69267" lon="-3.31757">
        <ele>93</ele>
        <time>2011-02-20T08:46:14Z</time>
      </trkpt>
      <trkpt lat="48.69275" lon="-3.31755">
        <ele>93</ele>
        <time>2011-02-20T08:46:15Z</time>
      </trkpt>
      <trkpt lat="48.69284" lon="-3.31752">
        <ele>93</ele>
        <time>2011-02-20T08:46:16Z</time>
      </trkpt>
      <trkpt lat="48.69292" lon="-3.3175">
        <ele>93</ele>
        <time>2011-02-20T08:46:17Z</time>
      </trkpt>
      <trkpt lat="48.69301" lon="-3.31747">
        <ele>93</ele>
        <time>2011-02-20T08:46:18Z</time>
      </trkpt>
      <trkpt lat="48.69309" lon="-3.31745">
        <ele>93</ele>
        <time>2011-02-20T08:46:19Z</time>
      </trkpt>
      <trkpt lat="48.69317" lon="-3.31742">
        <ele>93</ele>
        <time>2011-02-20T08:46:20Z</time>
      </trkpt>
      <trkpt lat="48.69325" lon="-3.3174">
        <ele>93</ele>
        <time>2011-02-20T08:46:21Z</time>
      </trkpt>
      <trkpt lat="48.69333" lon="-3.31738">
        <ele>93</ele>
        <time>2011-02-20T08:46:22Z</time>
      </trkpt>
      <trkpt lat="48.69341" lon="-3.31737">
        <ele>93</ele>
        <time>2011-02-20T08:46:23Z</time>
      </trkpt>
      <trkpt lat="48.69349" lon="-3.31736">
        <ele>93</ele>
        <time>2011-02-20T08:46:24Z</time>
      </trkpt>
      <trkpt lat="48.69357" lon="-3.31735">
        <ele>93</ele>
        <time>2011-02-20T08:46:25Z</time>
      </trkpt>
      <trkpt lat="48.69365" lon="-3.31734">
        <ele>93</ele>
        <time>2011-02-20T08:46:26Z</time>
      </trkpt>
      <trkpt lat="48.69373" lon="-3.31734">
        <ele>92</ele>
        <time>2011-02-20T08:46:27Z</time>
      </trkpt>
      <trkpt lat="48.69381" lon="-3.31733">
        <ele>92</ele>
        <time>2011-02-20T08:46:28Z</time>
      </trkpt>
      <trkpt lat="48.6939" lon="-3.31733">
        <ele>92</ele>
        <time>2011-02-20T08:46:29Z</time>
      </trkpt>
      <trkpt lat="48.69398" lon="-3.31733">
        <ele>92</ele>
        <time>2011-02-20T08:46:30Z</time>
      </trkpt>
      <trkpt lat="48.69407" lon="-3.31732">
        <ele>92</ele>
        <time>2011-02-20T08:46:31Z</time>
      </trkpt>
      <trkpt lat="48.69415" lon="-3.31732">
        <ele>92</ele>
        <time>2011-02-20T08:46:32Z</time>
      </trkpt>
      <trkpt lat="48.69423" lon="-3.31731">
        <ele>92</ele>
        <time>2011-02-20T08:46:33Z</time>
      </trkpt>
      <trkpt lat="48.69431" lon="-3.31731">
        <ele>92</ele>
        <time>2011-02-20T08:46:34Z</time>
      </trkpt>
      <trkpt lat="48.69439" lon="-3.3173">
        <ele>92</ele>
        <time>2011-02-20T08:46:35Z</time>
      </trkpt>
      <trkpt lat="48.69446" lon="-3.31729">
        <ele>92</ele>
        <time>2011-02-20T08:46:36Z</time>
      </trkpt>
      <trkpt lat="48.69454" lon="-3.31727">
        <ele>92</ele>
        <time>2011-02-20T08:46:37Z</time>
      </trkpt>
      <trkpt lat="48.69461" lon="-3.31725">
        <ele>92</ele>
        <time>2011-02-20T08:46:38Z</time>
      </trkpt>
      <trkpt lat="48.69469" lon="-3.31722">
        <ele>92</ele>
        <time>2011-02-20T08:46:39Z</time>
      </trkpt>
      <trkpt lat="48.69476" lon="-3.31718">
        <ele>92</ele>
        <time>2011-02-20T08:46:40Z</time>
      </trkpt>
      <trkpt lat="48.69483" lon="-3.31713">
        <ele>92</ele>
        <time>2011-02-20T08:46:41Z</time>
      </trkpt>
      <trkpt lat="48.69491" lon="-3.31708">
        <ele>92</ele>
        <time>2011-02-20T08:46:42Z</time>
      </trkpt>
      <trkpt lat="48.69498" lon="-3.31702">
        <ele>92</ele>
        <time>2011-02-20T08:46:43Z</time>
      </trkpt>
      <trkpt lat="48.69506" lon="-3.31696">
        <ele>91</ele>
        <time>2011-02-20T08:46:44Z</time>
      </trkpt>
      <trkpt lat="48.69514" lon="-3.3169">
        <ele>91</ele>
        <time>2011-02-20T08:46:45Z</time>
      </trkpt>
      <trkpt lat="48.69522" lon="-3.31683">
        <ele>90</ele>
        <time>2011-02-20T08:46:46Z</time>
      </trkpt>
      <trkpt lat="48.6953" lon="-3.31676">
        <ele>90</ele>
        <time>2011-02-20T08:46:47Z</time>
      </trkpt>
      <trkpt lat="48.69538" lon="-3.31669">
        <ele>90</ele>
        <time>2011-02-20T08:46:48Z</time>
      </trkpt>
      <trkpt lat="48.69546" lon="-3.31661">
        <ele>89</ele>
        <time>2011-02-20T08:46:49Z</time>
      </trkpt>
      <trkpt lat="48.69553" lon="-3.31653">
        <ele>89</ele>
        <time>2011-02-20T08:46:50Z</time>
      </trkpt>
      <trkpt lat="48.69561" lon="-3.31644">
        <ele>89</ele>
        <time>2011-02-20T08:46:51Z</time>
      </trkpt>
      <trkpt lat="48.69568" lon="-3.31634">
        <ele>88</ele>
        <time>2011-02-20T08:46:52Z</time>
      </trkpt>
      <trkpt lat="48.69576" lon="-3.31624">
        <ele>88</ele>
        <time>2011-02-20T08:46:53Z</time>
      </trkpt>
      <trkpt lat="48.69583" lon="-3.31613">
        <ele>88</ele>
        <time>2011-02-20T08:46:54Z</time>
      </trkpt>
      <trkpt lat="48.6959" lon="-3.31603">
        <ele>87</ele>
        <time>2011-02-20T08:46:55Z</time>
      </trkpt>
      <trkpt lat="48.69596" lon="-3.31593">
        <ele>87</ele>
        <time>2011-02-20T08:46:56Z</time>
      </trkpt>
      <trkpt lat="48.69603" lon="-3.31584">
        <ele>87</ele>
        <time>2011-02-20T08:46:57Z</time>
      </trkpt>
      <trkpt lat="48.69611" lon="-3.31576">
        <ele>86</ele>
        <time>2011-02-20T08:46:58Z</time>
      </trkpt>
      <trkpt lat="48.69618" lon="-3.31568">
        <ele>86</ele>
        <time>2011-02-20T08:46:59Z</time>
      </trkpt>
      <trkpt lat="48.69625" lon="-3.31561">
        <ele>86</ele>
        <time>2011-02-20T08:47:00Z</time>
      </trkpt>
      <trkpt lat="48.69633" lon="-3.31554">
        <ele>85</ele>
        <time>2011-02-20T08:47:01Z</time>
      </trkpt>
      <trkpt lat="48.69641" lon="-3.31546">
        <ele>85</ele>
        <time>2011-02-20T08:47:02Z</time>
      </trkpt>
      <trkpt lat="48.69649" lon="-3.31539">
        <ele>85</ele>
        <time>2011-02-20T08:47:03Z</time>
      </trkpt>
      <trkpt lat="48.69656" lon="-3.31532">
        <ele>85</ele>
        <time>2011-02-20T08:47:04Z</time>
      </trkpt>
      <trkpt lat="48.69664" lon="-3.31524">
        <ele>84</ele>
        <time>2011-02-20T08:47:05Z</time>
      </trkpt>
      <trkpt lat="48.6967" lon="-3.31515">
        <ele>84</ele>
        <time>2011-02-20T08:47:06Z</time>
      </trkpt>
      <trkpt lat="48.69676" lon="-3.31507">
        <ele>84</ele>
        <time>2011-02-20T08:47:07Z</time>
      </trkpt>
      <trkpt lat="48.69683" lon="-3.31498">
        <ele>84</ele>
        <time>2011-02-20T08:47:08Z</time>
      </trkpt>
      <trkpt lat="48.69689" lon="-3.3149">
        <ele>84</ele>
        <time>2011-02-20T08:47:09Z</time>
      </trkpt>
      <trkpt lat="48.69695" lon="-3.31481">
        <ele>84</ele>
        <time>2011-02-20T08:47:10Z</time>
      </trkpt>
      <trkpt lat="48.69701" lon="-3.31473">
        <ele>84</ele>
        <time>2011-02-20T08:47:11Z</time>
      </trkpt>
      <trkpt lat="48.69707" lon="-3.31465">
        <ele>84</ele>
        <time>2011-02-20T08:47:12Z</time>
      </trkpt>
      <trkpt lat="48.69712" lon="-3.31457">
        <ele>84</ele>
        <time>2011-02-20T08:47:13Z</time>
      </trkpt>
      <trkpt lat="48.69718" lon="-3.31449">
        <ele>83</ele>
        <time>2011-02-20T08:47:14Z</time>
      </trkpt>
      <trkpt lat="48.69724" lon="-3.31441">
        <ele>83</ele>
        <time>2011-02-20T08:47:15Z</time>
      </trkpt>
      <trkpt lat="48.69729" lon="-3.31433">
        <ele>83</ele>
        <time>2011-02-20T08:47:16Z</time>
      </trkpt>
      <trkpt lat="48.69735" lon="-3.31425">
        <ele>83</ele>
        <time>2011-02-20T08:47:17Z</time>
      </trkpt>
      <trkpt lat="48.69741" lon="-3.31417">
        <ele>83</ele>
        <time>2011-02-20T08:47:18Z</time>
      </trkpt>
      <trkpt lat="48.69746" lon="-3.3141">
        <ele>83</ele>
        <time>2011-02-20T08:47:19Z</time>
      </trkpt>
      <trkpt lat="48.69753" lon="-3.31403">
        <ele>83</ele>
        <time>2011-02-20T08:47:20Z</time>
      </trkpt>
      <trkpt lat="48.69759" lon="-3.31397">
        <ele>83</ele>
        <time>2011-02-20T08:47:21Z</time>
      </trkpt>
      <trkpt lat="48.69766" lon="-3.3139">
        <ele>83</ele>
        <time>2011-02-20T08:47:22Z</time>
      </trkpt>
      <trkpt lat="48.69772" lon="-3.31384">
        <ele>83</ele>
        <time>2011-02-20T08:47:23Z</time>
      </trkpt>
      <trkpt lat="48.69779" lon="-3.31378">
        <ele>82</ele>
        <time>2011-02-20T08:47:24Z</time>
      </trkpt>
      <trkpt lat="48.69786" lon="-3.31372">
        <ele>82</ele>
        <time>2011-02-20T08:47:25Z</time>
      </trkpt>
      <trkpt lat="48.69793" lon="-3.31366">
        <ele>82</ele>
        <time>2011-02-20T08:47:26Z</time>
      </trkpt>
      <trkpt lat="48.698" lon="-3.31361">
        <ele>82</ele>
        <time>2011-02-20T08:47:27Z</time>
      </trkpt>
      <trkpt lat="48.69807" lon="-3.31355">
        <ele>82</ele>
        <time>2011-02-20T08:47:28Z</time>
      </trkpt>
      <trkpt lat="48.69814" lon="-3.3135">
        <ele>82</ele>
        <time>2011-02-20T08:47:29Z</time>
      </trkpt>
      <trkpt lat="48.69821" lon="-3.31344">
        <ele>82</ele>
        <time>2011-02-20T08:47:30Z</time>
      </trkpt>
      <trkpt lat="48.69828" lon="-3.31338">
        <ele>82</ele>
        <time>2011-02-20T08:47:31Z</time>
      </trkpt>
      <trkpt lat="48.69835" lon="-3.31332">
        <ele>82</ele>
        <time>2011-02-20T08:47:32Z</time>
      </trkpt>
      <trkpt lat="48.69841" lon="-3.31326">
        <ele>81</ele>
        <time>2011-02-20T08:47:33Z</time>
      </trkpt>
      <trkpt lat="48.69849" lon="-3.31319">
        <ele>81</ele>
        <time>2011-02-20T08:47:34Z</time>
      </trkpt>
      <trkpt lat="48.69856" lon="-3.31312">
        <ele>81</ele>
        <time>2011-02-20T08:47:35Z</time>
      </trkpt>
      <trkpt lat="48.69863" lon="-3.31305">
        <ele>81</ele>
        <time>2011-02-20T08:47:36Z</time>
      </trkpt>
      <trkpt lat="48.6987" lon="-3.31297">
        <ele>80</ele>
        <time>2011-02-20T08:47:37Z</time>
      </trkpt>
      <trkpt lat="48.69877" lon="-3.31289">
        <ele>80</ele>
        <time>2011-02-20T08:47:38Z</time>
      </trkpt>
      <trkpt lat="48.69883" lon="-3.31281">
        <ele>80</ele>
        <time>2011-02-20T08:47:39Z</time>
      </trkpt>
      <trkpt lat="48.6989" lon="-3.31272">
        <ele>80</ele>
        <time>2011-02-20T08:47:40Z</time>
      </trkpt>
      <trkpt lat="48.69896" lon="-3.31262">
        <ele>80</ele>
        <time>2011-02-20T08:47:41Z</time>
      </trkpt>
      <trkpt lat="48.69902" lon="-3.31254">
        <ele>80</ele>
        <time>2011-02-20T08:47:42Z</time>
      </trkpt>
      <trkpt lat="48.69908" lon="-3.31245">
        <ele>80</ele>
        <time>2011-02-20T08:47:43Z</time>
      </trkpt>
      <trkpt lat="48.69913" lon="-3.31237">
        <ele>80</ele>
        <time>2011-02-20T08:47:44Z</time>
      </trkpt>
      <trkpt lat="48.69919" lon="-3.31228">
        <ele>79</ele>
        <time>2011-02-20T08:47:45Z</time>
      </trkpt>
      <trkpt lat="48.69926" lon="-3.31221">
        <ele>79</ele>
        <time>2011-02-20T08:47:46Z</time>
      </trkpt>
      <trkpt lat="48.69932" lon="-3.31213">
        <ele>79</ele>
        <time>2011-02-20T08:47:47Z</time>
      </trkpt>
      <trkpt lat="48.69938" lon="-3.31205">
        <ele>79</ele>
        <time>2011-02-20T08:47:48Z</time>
      </trkpt>
      <trkpt lat="48.69945" lon="-3.31198">
        <ele>79</ele>
        <time>2011-02-20T08:47:49Z</time>
      </trkpt>
      <trkpt lat="48.69952" lon="-3.31191">
        <ele>79</ele>
        <time>2011-02-20T08:47:50Z</time>
      </trkpt>
      <trkpt lat="48.69958" lon="-3.31183">
        <ele>79</ele>
        <time>2011-02-20T08:47:51Z</time>
      </trkpt>
      <trkpt lat="48.69964" lon="-3.31175">
        <ele>79</ele>
        <time>2011-02-20T08:47:52Z</time>
      </trkpt>
      <trkpt lat="48.6997" lon="-3.31167">
        <ele>79</ele>
        <time>2011-02-20T08:47:53Z</time>
      </trkpt>
      <trkpt lat="48.69976" lon="-3.31159">
        <ele>79</ele>
        <time>2011-02-20T08:47:54Z</time>
      </trkpt>
      <trkpt lat="48.69981" lon="-3.3115">
        <ele>78</ele>
        <time>2011-02-20T08:47:55Z</time>
      </trkpt>
      <trkpt lat="48.69986" lon="-3.31141">
        <ele>78</ele>
        <time>2011-02-20T08:47:56Z</time>
      </trkpt>
      <trkpt lat="48.69992" lon="-3.31133">
        <ele>78</ele>
        <time>2011-02-20T08:47:57Z</time>
      </trkpt>
      <trkpt lat="48.69997" lon="-3.31125">
        <ele>78</ele>
        <time>2011-02-20T08:47:58Z</time>
      </trkpt>
      <trkpt lat="48.70002" lon="-3.31117">
        <ele>78</ele>
        <time>2011-02-20T08:47:59Z</time>
      </trkpt>
      <trkpt lat="48.70007" lon="-3.31108">
        <ele>78</ele>
        <time>2011-02-20T08:48:00Z</time>
      </trkpt>
      <trkpt lat="48.70013" lon="-3.31101">
        <ele>78</ele>
        <time>2011-02-20T08:48:01Z</time>
      </trkpt>
      <trkpt lat="48.70018" lon="-3.31093">
        <ele>78</ele>
        <time>2011-02-20T08:48:02Z</time>
      </trkpt>
      <trkpt lat="48.70024" lon="-3.31085">
        <ele>78</ele>
        <time>2011-02-20T08:48:03Z</time>
      </trkpt>
      <trkpt lat="48.70029" lon="-3.31077">
        <ele>78</ele>
        <time>2011-02-20T08:48:04Z</time>
      </trkpt>
      <trkpt lat="48.70035" lon="-3.31069">
        <ele>78</ele>
        <time>2011-02-20T08:48:05Z</time>
      </trkpt>
      <trkpt lat="48.70041" lon="-3.31061">
        <ele>78</ele>
        <time>2011-02-20T08:48:06Z</time>
      </trkpt>
      <trkpt lat="48.70046" lon="-3.31052">
        <ele>78</ele>
        <time>2011-02-20T08:48:07Z</time>
      </trkpt>
      <trkpt lat="48.70052" lon="-3.31044">
        <ele>78</ele>
        <time>2011-02-20T08:48:08Z</time>
      </trkpt>
      <trkpt lat="48.70057" lon="-3.31036">
        <ele>78</ele>
        <time>2011-02-20T08:48:09Z</time>
      </trkpt>
      <trkpt lat="48.70062" lon="-3.31028">
        <ele>78</ele>
        <time>2011-02-20T08:48:10Z</time>
      </trkpt>
      <trkpt lat="48.70067" lon="-3.31019">
        <ele>78</ele>
        <time>2011-02-20T08:48:11Z</time>
      </trkpt>
      <trkpt lat="48.70073" lon="-3.31011">
        <ele>78</ele>
        <time>2011-02-20T08:48:12Z</time>
      </trkpt>
      <trkpt lat="48.70078" lon="-3.31002">
        <ele>78</ele>
        <time>2011-02-20T08:48:13Z</time>
      </trkpt>
      <trkpt lat="48.70083" lon="-3.30993">
        <ele>78</ele>
        <time>2011-02-20T08:48:14Z</time>
      </trkpt>
      <trkpt lat="48.70088" lon="-3.30984">
        <ele>78</ele>
        <time>2011-02-20T08:48:15Z</time>
      </trkpt>
      <trkpt lat="48.70093" lon="-3.30975">
        <ele>78</ele>
        <time>2011-02-20T08:48:16Z</time>
      </trkpt>
      <trkpt lat="48.70098" lon="-3.30966">
        <ele>78</ele>
        <time>2011-02-20T08:48:17Z</time>
      </trkpt>
      <trkpt lat="48.70102" lon="-3.30957">
        <ele>78</ele>
        <time>2011-02-20T08:48:18Z</time>
      </trkpt>
      <trkpt lat="48.70107" lon="-3.30948">
        <ele>78</ele>
        <time>2011-02-20T08:48:19Z</time>
      </trkpt>
      <trkpt lat="48.70112" lon="-3.30938">
        <ele>78</ele>
        <time>2011-02-20T08:48:20Z</time>
      </trkpt>
      <trkpt lat="48.70117" lon="-3.30929">
        <ele>78</ele>
        <time>2011-02-20T08:48:21Z</time>
      </trkpt>
      <trkpt lat="48.70122" lon="-3.3092">
        <ele>78</ele>
        <time>2011-02-20T08:48:22Z</time>
      </trkpt>
      <trkpt lat="48.70127" lon="-3.30911">
        <ele>78</ele>
        <time>2011-02-20T08:48:23Z</time>
      </trkpt>
      <trkpt lat="48.70132" lon="-3.30902">
        <ele>78</ele>
        <time>2011-02-20T08:48:24Z</time>
      </trkpt>
      <trkpt lat="48.70137" lon="-3.30892">
        <ele>78</ele>
        <time>2011-02-20T08:48:25Z</time>
      </trkpt>
      <trkpt lat="48.70143" lon="-3.30883">
        <ele>78</ele>
        <time>2011-02-20T08:48:26Z</time>
      </trkpt>
      <trkpt lat="48.70148" lon="-3.30874">
        <ele>78</ele>
        <time>2011-02-20T08:48:27Z</time>
      </trkpt>
      <trkpt lat="48.70154" lon="-3.30865">
        <ele>78</ele>
        <time>2011-02-20T08:48:28Z</time>
      </trkpt>
      <trkpt lat="48.7016" lon="-3.30856">
        <ele>78</ele>
        <time>2011-02-20T08:48:29Z</time>
      </trkpt>
      <trkpt lat="48.70166" lon="-3.30847">
        <ele>78</ele>
        <time>2011-02-20T08:48:30Z</time>
      </trkpt>
      <trkpt lat="48.70172" lon="-3.30838">
        <ele>78</ele>
        <time>2011-02-20T08:48:31Z</time>
      </trkpt>
      <trkpt lat="48.70178" lon="-3.3083">
        <ele>78</ele>
        <time>2011-02-20T08:48:32Z</time>
      </trkpt>
      <trkpt lat="48.70184" lon="-3.30821">
        <ele>77</ele>
        <time>2011-02-20T08:48:33Z</time>
      </trkpt>
      <trkpt lat="48.7019" lon="-3.30812">
        <ele>77</ele>
        <time>2011-02-20T08:48:34Z</time>
      </trkpt>
      <trkpt lat="48.70197" lon="-3.30804">
        <ele>77</ele>
        <time>2011-02-20T08:48:35Z</time>
      </trkpt>
      <trkpt lat="48.70203" lon="-3.30795">
        <ele>77</ele>
        <time>2011-02-20T08:48:36Z</time>
      </trkpt>
      <trkpt lat="48.70209" lon="-3.30786">
        <ele>76</ele>
        <time>2011-02-20T08:48:37Z</time>
      </trkpt>
      <trkpt lat="48.70216" lon="-3.30777">
        <ele>76</ele>
        <time>2011-02-20T08:48:38Z</time>
      </trkpt>
      <trkpt lat="48.70222" lon="-3.30768">
        <ele>76</ele>
        <time>2011-02-20T08:48:39Z</time>
      </trkpt>
      <trkpt lat="48.70229" lon="-3.3076">
        <ele>75</ele>
        <time>2011-02-20T08:48:40Z</time>
      </trkpt>
      <trkpt lat="48.70236" lon="-3.30751">
        <ele>75</ele>
        <time>2011-02-20T08:48:41Z</time>
      </trkpt>
      <trkpt lat="48.70242" lon="-3.30743">
        <ele>75</ele>
        <time>2011-02-20T08:48:42Z</time>
      </trkpt>
      <trkpt lat="48.70249" lon="-3.30735">
        <ele>75</ele>
        <time>2011-02-20T08:48:43Z</time>
      </trkpt>
      <trkpt lat="48.70256" lon="-3.30727">
        <ele>74</ele>
        <time>2011-02-20T08:48:44Z</time>
      </trkpt>
      <trkpt lat="48.70262" lon="-3.30719">
        <ele>74</ele>
        <time>2011-02-20T08:48:45Z</time>
      </trkpt>
      <trkpt lat="48.70269" lon="-3.30711">
        <ele>74</ele>
        <time>2011-02-20T08:48:46Z</time>
      </trkpt>
      <trkpt lat="48.70276" lon="-3.30703">
        <ele>74</ele>
        <time>2011-02-20T08:48:47Z</time>
      </trkpt>
      <trkpt lat="48.70283" lon="-3.30695">
        <ele>73</ele>
        <time>2011-02-20T08:48:48Z</time>
      </trkpt>
      <trkpt lat="48.7029" lon="-3.30686">
        <ele>73</ele>
        <time>2011-02-20T08:48:49Z</time>
      </trkpt>
      <trkpt lat="48.70298" lon="-3.30678">
        <ele>73</ele>
        <time>2011-02-20T08:48:50Z</time>
      </trkpt>
      <trkpt lat="48.70305" lon="-3.3067">
        <ele>73</ele>
        <time>2011-02-20T08:48:51Z</time>
      </trkpt>
      <trkpt lat="48.70312" lon="-3.30662">
        <ele>73</ele>
        <time>2011-02-20T08:48:52Z</time>
      </trkpt>
      <trkpt lat="48.70319" lon="-3.30653">
        <ele>73</ele>
        <time>2011-02-20T08:48:53Z</time>
      </trkpt>
      <trkpt lat="48.70325" lon="-3.30645">
        <ele>73</ele>
        <time>2011-02-20T08:48:54Z</time>
      </trkpt>
      <trkpt lat="48.70332" lon="-3.30637">
        <ele>73</ele>
        <time>2011-02-20T08:48:55Z</time>
      </trkpt>
      <trkpt lat="48.70339" lon="-3.30629">
        <ele>73</ele>
        <time>2011-02-20T08:48:56Z</time>
      </trkpt>
      <trkpt lat="48.70345" lon="-3.30621">
        <ele>73</ele>
        <time>2011-02-20T08:48:57Z</time>
      </trkpt>
      <trkpt lat="48.70352" lon="-3.30613">
        <ele>73</ele>
        <time>2011-02-20T08:48:58Z</time>
      </trkpt>
      <trkpt lat="48.70358" lon="-3.30605">
        <ele>73</ele>
        <time>2011-02-20T08:48:59Z</time>
      </trkpt>
      <trkpt lat="48.70365" lon="-3.30597">
        <ele>73</ele>
        <time>2011-02-20T08:49:00Z</time>
      </trkpt>
      <trkpt lat="48.70371" lon="-3.3059">
        <ele>73</ele>
        <time>2011-02-20T08:49:01Z</time>
      </trkpt>
      <trkpt lat="48.70377" lon="-3.30582">
        <ele>73</ele>
        <time>2011-02-20T08:49:02Z</time>
      </trkpt>
      <trkpt lat="48.70384" lon="-3.30575">
        <ele>73</ele>
        <time>2011-02-20T08:49:03Z</time>
      </trkpt>
      <trkpt lat="48.7039" lon="-3.30568">
        <ele>73</ele>
        <time>2011-02-20T08:49:04Z</time>
      </trkpt>
      <trkpt lat="48.70397" lon="-3.30561">
        <ele>73</ele>
        <time>2011-02-20T08:49:05Z</time>
      </trkpt>
      <trkpt lat="48.70404" lon="-3.30554">
        <ele>73</ele>
        <time>2011-02-20T08:49:06Z</time>
      </trkpt>
      <trkpt lat="48.70411" lon="-3.30547">
        <ele>73</ele>
        <time>2011-02-20T08:49:07Z</time>
      </trkpt>
      <trkpt lat="48.70418" lon="-3.30541">
        <ele>73</ele>
        <time>2011-02-20T08:49:08Z</time>
      </trkpt>
      <trkpt lat="48.70425" lon="-3.30534">
        <ele>72</ele>
        <time>2011-02-20T08:49:09Z</time>
      </trkpt>
      <trkpt lat="48.70432" lon="-3.30528">
        <ele>72</ele>
        <time>2011-02-20T08:49:10Z</time>
      </trkpt>
      <trkpt lat="48.70439" lon="-3.30522">
        <ele>72</ele>
        <time>2011-02-20T08:49:11Z</time>
      </trkpt>
      <trkpt lat="48.70446" lon="-3.30516">
        <ele>72</ele>
        <time>2011-02-20T08:49:12Z</time>
      </trkpt>
      <trkpt lat="48.70452" lon="-3.30509">
        <ele>72</ele>
        <time>2011-02-20T08:49:13Z</time>
      </trkpt>
      <trkpt lat="48.70459" lon="-3.30503">
        <ele>72</ele>
        <time>2011-02-20T08:49:14Z</time>
      </trkpt>
      <trkpt lat="48.70467" lon="-3.30497">
        <ele>72</ele>
        <time>2011-02-20T08:49:15Z</time>
      </trkpt>
      <trkpt lat="48.70474" lon="-3.30491">
        <ele>71</ele>
        <time>2011-02-20T08:49:16Z</time>
      </trkpt>
      <trkpt lat="48.70481" lon="-3.30485">
        <ele>71</ele>
        <time>2011-02-20T08:49:17Z</time>
      </trkpt>
      <trkpt lat="48.70488" lon="-3.30479">
        <ele>71</ele>
        <time>2011-02-20T08:49:18Z</time>
      </trkpt>
      <trkpt lat="48.70494" lon="-3.30472">
        <ele>71</ele>
        <time>2011-02-20T08:49:19Z</time>
      </trkpt>
      <trkpt lat="48.70501" lon="-3.30466">
        <ele>71</ele>
        <time>2011-02-20T08:49:20Z</time>
      </trkpt>
      <trkpt lat="48.70508" lon="-3.30459">
        <ele>70</ele>
        <time>2011-02-20T08:49:21Z</time>
      </trkpt>
      <trkpt lat="48.70515" lon="-3.30452">
        <ele>70</ele>
        <time>2011-02-20T08:49:22Z</time>
      </trkpt>
      <trkpt lat="48.70522" lon="-3.30446">
        <ele>70</ele>
        <time>2011-02-20T08:49:23Z</time>
      </trkpt>
      <trkpt lat="48.70529" lon="-3.30438">
        <ele>70</ele>
        <time>2011-02-20T08:49:24Z</time>
      </trkpt>
      <trkpt lat="48.70536" lon="-3.30431">
        <ele>69</ele>
        <time>2011-02-20T08:49:25Z</time>
      </trkpt>
      <trkpt lat="48.70542" lon="-3.30424">
        <ele>69</ele>
        <time>2011-02-20T08:49:26Z</time>
      </trkpt>
      <trkpt lat="48.70549" lon="-3.30417">
        <ele>69</ele>
        <time>2011-02-20T08:49:27Z</time>
      </trkpt>
      <trkpt lat="48.70556" lon="-3.3041">
        <ele>69</ele>
        <time>2011-02-20T08:49:28Z</time>
      </trkpt>
      <trkpt lat="48.70562" lon="-3.30403">
        <ele>68</ele>
        <time>2011-02-20T08:49:29Z</time>
      </trkpt>
      <trkpt lat="48.70569" lon="-3.30396">
        <ele>68</ele>
        <time>2011-02-20T08:49:30Z</time>
      </trkpt>
      <trkpt lat="48.70576" lon="-3.30389">
        <ele>68</ele>
        <time>2011-02-20T08:49:31Z</time>
      </trkpt>
      <trkpt lat="48.70583" lon="-3.30383">
        <ele>68</ele>
        <time>2011-02-20T08:49:32Z</time>
      </trkpt>
      <trkpt lat="48.7059" lon="-3.30377">
        <ele>68</ele>
        <time>2011-02-20T08:49:33Z</time>
      </trkpt>
      <trkpt lat="48.70596" lon="-3.30372">
        <ele>68</ele>
        <time>2011-02-20T08:49:34Z</time>
      </trkpt>
      <trkpt lat="48.70603" lon="-3.30366">
        <ele>68</ele>
        <time>2011-02-20T08:49:35Z</time>
      </trkpt>
      <trkpt lat="48.70609" lon="-3.30361">
        <ele>68</ele>
        <time>2011-02-20T08:49:36Z</time>
      </trkpt>
      <trkpt lat="48.70615" lon="-3.30357">
        <ele>68</ele>
        <time>2011-02-20T08:49:37Z</time>
      </trkpt>
      <trkpt lat="48.70622" lon="-3.30352">
        <ele>68</ele>
        <time>2011-02-20T08:49:38Z</time>
      </trkpt>
      <trkpt lat="48.70628" lon="-3.30347">
        <ele>68</ele>
        <time>2011-02-20T08:49:39Z</time>
      </trkpt>
      <trkpt lat="48.70634" lon="-3.30342">
        <ele>68</ele>
        <time>2011-02-20T08:49:40Z</time>
      </trkpt>
      <trkpt lat="48.7064" lon="-3.30338">
        <ele>68</ele>
        <time>2011-02-20T08:49:41Z</time>
      </trkpt>
      <trkpt lat="48.70646" lon="-3.30333">
        <ele>68</ele>
        <time>2011-02-20T08:49:42Z</time>
      </trkpt>
      <trkpt lat="48.70652" lon="-3.30329">
        <ele>68</ele>
        <time>2011-02-20T08:49:43Z</time>
      </trkpt>
      <trkpt lat="48.70658" lon="-3.30324">
        <ele>68</ele>
        <time>2011-02-20T08:49:44Z</time>
      </trkpt>
      <trkpt lat="48.70664" lon="-3.3032">
        <ele>68</ele>
        <time>2011-02-20T08:49:45Z</time>
      </trkpt>
      <trkpt lat="48.7067" lon="-3.30315">
        <ele>68</ele>
        <time>2011-02-20T08:49:46Z</time>
      </trkpt>
      <trkpt lat="48.70676" lon="-3.30311">
        <ele>68</ele>
        <time>2011-02-20T08:49:47Z</time>
      </trkpt>
      <trkpt lat="48.70681" lon="-3.30306">
        <ele>68</ele>
        <time>2011-02-20T08:49:48Z</time>
      </trkpt>
      <trkpt lat="48.70687" lon="-3.30302">
        <ele>68</ele>
        <time>2011-02-20T08:49:49Z</time>
      </trkpt>
      <trkpt lat="48.70692" lon="-3.30298">
        <ele>68</ele>
        <time>2011-02-20T08:49:50Z</time>
      </trkpt>
      <trkpt lat="48.70698" lon="-3.30294">
        <ele>68</ele>
        <time>2011-02-20T08:49:51Z</time>
      </trkpt>
      <trkpt lat="48.70704" lon="-3.3029">
        <ele>68</ele>
        <time>2011-02-20T08:49:52Z</time>
      </trkpt>
      <trkpt lat="48.70709" lon="-3.30286">
        <ele>68</ele>
        <time>2011-02-20T08:49:53Z</time>
      </trkpt>
      <trkpt lat="48.70715" lon="-3.30281">
        <ele>68</ele>
        <time>2011-02-20T08:49:54Z</time>
      </trkpt>
      <trkpt lat="48.7072" lon="-3.30277">
        <ele>69</ele>
        <time>2011-02-20T08:49:55Z</time>
      </trkpt>
      <trkpt lat="48.70726" lon="-3.30274">
        <ele>69</ele>
        <time>2011-02-20T08:49:56Z</time>
      </trkpt>
      <trkpt lat="48.70731" lon="-3.30269">
        <ele>69</ele>
        <time>2011-02-20T08:49:57Z</time>
      </trkpt>
      <trkpt lat="48.70737" lon="-3.30265">
        <ele>69</ele>
        <time>2011-02-20T08:49:58Z</time>
      </trkpt>
      <trkpt lat="48.70743" lon="-3.30261">
        <ele>70</ele>
        <time>2011-02-20T08:49:59Z</time>
      </trkpt>
      <trkpt lat="48.70749" lon="-3.30257">
        <ele>70</ele>
        <time>2011-02-20T08:50:00Z</time>
      </trkpt>
      <trkpt lat="48.70754" lon="-3.30253">
        <ele>70</ele>
        <time>2011-02-20T08:50:01Z</time>
      </trkpt>
      <trkpt lat="48.7076" lon="-3.30249">
        <ele>70</ele>
        <time>2011-02-20T08:50:02Z</time>
      </trkpt>
      <trkpt lat="48.70766" lon="-3.30245">
        <ele>70</ele>
        <time>2011-02-20T08:50:03Z</time>
      </trkpt>
      <trkpt lat="48.70772" lon="-3.30242">
        <ele>70</ele>
        <time>2011-02-20T08:50:04Z</time>
      </trkpt>
      <trkpt lat="48.70778" lon="-3.30239">
        <ele>70</ele>
        <time>2011-02-20T08:50:05Z</time>
      </trkpt>
      <trkpt lat="48.70784" lon="-3.30235">
        <ele>70</ele>
        <time>2011-02-20T08:50:06Z</time>
      </trkpt>
      <trkpt lat="48.70789" lon="-3.30232">
        <ele>70</ele>
        <time>2011-02-20T08:50:07Z</time>
      </trkpt>
      <trkpt lat="48.70795" lon="-3.30229">
        <ele>70</ele>
        <time>2011-02-20T08:50:08Z</time>
      </trkpt>
      <trkpt lat="48.70801" lon="-3.30226">
        <ele>70</ele>
        <time>2011-02-20T08:50:09Z</time>
      </trkpt>
      <trkpt lat="48.70807" lon="-3.30223">
        <ele>70</ele>
        <time>2011-02-20T08:50:10Z</time>
      </trkpt>
      <trkpt lat="48.70813" lon="-3.3022">
        <ele>71</ele>
        <time>2011-02-20T08:50:11Z</time>
      </trkpt>
      <trkpt lat="48.70819" lon="-3.30217">
        <ele>71</ele>
        <time>2011-02-20T08:50:12Z</time>
      </trkpt>
      <trkpt lat="48.70825" lon="-3.30213">
        <ele>71</ele>
        <time>2011-02-20T08:50:13Z</time>
      </trkpt>
      <trkpt lat="48.70831" lon="-3.3021">
        <ele>71</ele>
        <time>2011-02-20T08:50:14Z</time>
      </trkpt>
      <trkpt lat="48.70837" lon="-3.30208">
        <ele>72</ele>
        <time>2011-02-20T08:50:15Z</time>
      </trkpt>
      <trkpt lat="48.70843" lon="-3.30205">
        <ele>72</ele>
        <time>2011-02-20T08:50:16Z</time>
      </trkpt>
      <trkpt lat="48.70849" lon="-3.30202">
        <ele>72</ele>
        <time>2011-02-20T08:50:17Z</time>
      </trkpt>
      <trkpt lat="48.70855" lon="-3.30199">
        <ele>72</ele>
        <time>2011-02-20T08:50:18Z</time>
      </trkpt>
      <trkpt lat="48.70861" lon="-3.30196">
        <ele>73</ele>
        <time>2011-02-20T08:50:19Z</time>
      </trkpt>
      <trkpt lat="48.70866" lon="-3.30193">
        <ele>73</ele>
        <time>2011-02-20T08:50:20Z</time>
      </trkpt>
      <trkpt lat="48.70872" lon="-3.3019">
        <ele>73</ele>
        <time>2011-02-20T08:50:21Z</time>
      </trkpt>
      <trkpt lat="48.70877" lon="-3.30188">
        <ele>73</ele>
        <time>2011-02-20T08:50:22Z</time>
      </trkpt>
      <trkpt lat="48.70883" lon="-3.30185">
        <ele>73</ele>
        <time>2011-02-20T08:50:23Z</time>
      </trkpt>
      <trkpt lat="48.70889" lon="-3.30182">
        <ele>73</ele>
        <time>2011-02-20T08:50:24Z</time>
      </trkpt>
      <trkpt lat="48.70894" lon="-3.30178">
        <ele>74</ele>
        <time>2011-02-20T08:50:25Z</time>
      </trkpt>
      <trkpt lat="48.709" lon="-3.30175">
        <ele>74</ele>
        <time>2011-02-20T08:50:26Z</time>
      </trkpt>
      <trkpt lat="48.70906" lon="-3.30172">
        <ele>74</ele>
        <time>2011-02-20T08:50:27Z</time>
      </trkpt>
      <trkpt lat="48.70911" lon="-3.30168">
        <ele>74</ele>
        <time>2011-02-20T08:50:28Z</time>
      </trkpt>
      <trkpt lat="48.70917" lon="-3.30165">
        <ele>74</ele>
        <time>2011-02-20T08:50:29Z</time>
      </trkpt>
      <trkpt lat="48.70922" lon="-3.30161">
        <ele>75</ele>
        <time>2011-02-20T08:50:30Z</time>
      </trkpt>
      <trkpt lat="48.70928" lon="-3.30157">
        <ele>75</ele>
        <time>2011-02-20T08:50:31Z</time>
      </trkpt>
      <trkpt lat="48.70933" lon="-3.30153">
        <ele>75</ele>
        <time>2011-02-20T08:50:32Z</time>
      </trkpt>
      <trkpt lat="48.70939" lon="-3.30149">
        <ele>75</ele>
        <time>2011-02-20T08:50:33Z</time>
      </trkpt>
      <trkpt lat="48.70944" lon="-3.30144">
        <ele>75</ele>
        <time>2011-02-20T08:50:34Z</time>
      </trkpt>
      <trkpt lat="48.70949" lon="-3.30139">
        <ele>75</ele>
        <time>2011-02-20T08:50:35Z</time>
      </trkpt>
      <trkpt lat="48.70954" lon="-3.30134">
        <ele>75</ele>
        <time>2011-02-20T08:50:36Z</time>
      </trkpt>
      <trkpt lat="48.70959" lon="-3.30129">
        <ele>75</ele>
        <time>2011-02-20T08:50:37Z</time>
      </trkpt>
      <trkpt lat="48.70965" lon="-3.30124">
        <ele>75</ele>
        <time>2011-02-20T08:50:38Z</time>
      </trkpt>
      <trkpt lat="48.7097" lon="-3.30118">
        <ele>75</ele>
        <time>2011-02-20T08:50:39Z</time>
      </trkpt>
      <trkpt lat="48.70975" lon="-3.30113">
        <ele>75</ele>
        <time>2011-02-20T08:50:40Z</time>
      </trkpt>
      <trkpt lat="48.70981" lon="-3.30107">
        <ele>75</ele>
        <time>2011-02-20T08:50:41Z</time>
      </trkpt>
      <trkpt lat="48.70986" lon="-3.30101">
        <ele>75</ele>
        <time>2011-02-20T08:50:42Z</time>
      </trkpt>
      <trkpt lat="48.70991" lon="-3.30095">
        <ele>75</ele>
        <time>2011-02-20T08:50:43Z</time>
      </trkpt>
      <trkpt lat="48.70996" lon="-3.30088">
        <ele>75</ele>
        <time>2011-02-20T08:50:44Z</time>
      </trkpt>
      <trkpt lat="48.71001" lon="-3.30081">
        <ele>75</ele>
        <time>2011-02-20T08:50:45Z</time>
      </trkpt>
      <trkpt lat="48.71007" lon="-3.30074">
        <ele>75</ele>
        <time>2011-02-20T08:50:46Z</time>
      </trkpt>
      <trkpt lat="48.71012" lon="-3.30067">
        <ele>75</ele>
        <time>2011-02-20T08:50:47Z</time>
      </trkpt>
      <trkpt lat="48.71017" lon="-3.3006">
        <ele>75</ele>
        <time>2011-02-20T08:50:48Z</time>
      </trkpt>
      <trkpt lat="48.71022" lon="-3.30052">
        <ele>75</ele>
        <time>2011-02-20T08:50:49Z</time>
      </trkpt>
      <trkpt lat="48.71027" lon="-3.30045">
        <ele>75</ele>
        <time>2011-02-20T08:50:50Z</time>
      </trkpt>
      <trkpt lat="48.71032" lon="-3.30037">
        <ele>75</ele>
        <time>2011-02-20T08:50:51Z</time>
      </trkpt>
      <trkpt lat="48.71037" lon="-3.3003">
        <ele>75</ele>
        <time>2011-02-20T08:50:52Z</time>
      </trkpt>
      <trkpt lat="48.71042" lon="-3.30022">
        <ele>75</ele>
        <time>2011-02-20T08:50:53Z</time>
      </trkpt>
      <trkpt lat="48.71047" lon="-3.30015">
        <ele>75</ele>
        <time>2011-02-20T08:50:54Z</time>
      </trkpt>
      <trkpt lat="48.71052" lon="-3.30007">
        <ele>75</ele>
        <time>2011-02-20T08:50:55Z</time>
      </trkpt>
      <trkpt lat="48.71057" lon="-3.3">
        <ele>75</ele>
        <time>2011-02-20T08:50:56Z</time>
      </trkpt>
      <trkpt lat="48.71062" lon="-3.29992">
        <ele>75</ele>
        <time>2011-02-20T08:50:57Z</time>
      </trkpt>
      <trkpt lat="48.71067" lon="-3.29985">
        <ele>75</ele>
        <time>2011-02-20T08:50:58Z</time>
      </trkpt>
      <trkpt lat="48.71072" lon="-3.29977">
        <ele>75</ele>
        <time>2011-02-20T08:50:59Z</time>
      </trkpt>
      <trkpt lat="48.71077" lon="-3.2997">
        <ele>75</ele>
        <time>2011-02-20T08:51:00Z</time>
      </trkpt>
      <trkpt lat="48.71083" lon="-3.29962">
        <ele>75</ele>
        <time>2011-02-20T08:51:01Z</time>
      </trkpt>
      <trkpt lat="48.71088" lon="-3.29954">
        <ele>75</ele>
        <time>2011-02-20T08:51:02Z</time>
      </trkpt>
      <trkpt lat="48.71094" lon="-3.29946">
        <ele>75</ele>
        <time>2011-02-20T08:51:03Z</time>
      </trkpt>
      <trkpt lat="48.71099" lon="-3.29938">
        <ele>75</ele>
        <time>2011-02-20T08:51:04Z</time>
      </trkpt>
      <trkpt lat="48.71105" lon="-3.2993">
        <ele>75</ele>
        <time>2011-02-20T08:51:05Z</time>
      </trkpt>
      <trkpt lat="48.71111" lon="-3.29923">
        <ele>75</ele>
        <time>2011-02-20T08:51:06Z</time>
      </trkpt>
      <trkpt lat="48.71116" lon="-3.29915">
        <ele>75</ele>
        <time>2011-02-20T08:51:07Z</time>
      </trkpt>
      <trkpt lat="48.71122" lon="-3.29908">
        <ele>75</ele>
        <time>2011-02-20T08:51:08Z</time>
      </trkpt>
      <trkpt lat="48.71128" lon="-3.29901">
        <ele>75</ele>
        <time>2011-02-20T08:51:09Z</time>
      </trkpt>
      <trkpt lat="48.71134" lon="-3.29894">
        <ele>75</ele>
        <time>2011-02-20T08:51:10Z</time>
      </trkpt>
      <trkpt lat="48.7114" lon="-3.29888">
        <ele>75</ele>
        <time>2011-02-20T08:51:11Z</time>
      </trkpt>
      <trkpt lat="48.71146" lon="-3.29881">
        <ele>75</ele>
        <time>2011-02-20T08:51:12Z</time>
      </trkpt>
      <trkpt lat="48.71152" lon="-3.29874">
        <ele>75</ele>
        <time>2011-02-20T08:51:13Z</time>
      </trkpt>
      <trkpt lat="48.71158" lon="-3.29868">
        <ele>75</ele>
        <time>2011-02-20T08:51:14Z</time>
      </trkpt>
      <trkpt lat="48.71164" lon="-3.29861">
        <ele>75</ele>
        <time>2011-02-20T08:51:15Z</time>
      </trkpt>
      <trkpt lat="48.71169" lon="-3.29855">
        <ele>75</ele>
        <time>2011-02-20T08:51:16Z</time>
      </trkpt>
      <trkpt lat="48.71175" lon="-3.29849">
        <ele>75</ele>
        <time>2011-02-20T08:51:17Z</time>
      </trkpt>
      <trkpt lat="48.71181" lon="-3.29843">
        <ele>75</ele>
        <time>2011-02-20T08:51:18Z</time>
      </trkpt>
      <trkpt lat="48.71186" lon="-3.29836">
        <ele>75</ele>
        <time>2011-02-20T08:51:19Z</time>
      </trkpt>
      <trkpt lat="48.71192" lon="-3.2983">
        <ele>75</ele>
        <time>2011-02-20T08:51:20Z</time>
      </trkpt>
      <trkpt lat="48.71198" lon="-3.29824">
        <ele>75</ele>
        <time>2011-02-20T08:51:21Z</time>
      </trkpt>
      <trkpt lat="48.71204" lon="-3.29817">
        <ele>75</ele>
        <time>2011-02-20T08:51:22Z</time>
      </trkpt>
      <trkpt lat="48.71209" lon="-3.29811">
        <ele>75</ele>
        <time>2011-02-20T08:51:23Z</time>
      </trkpt>
      <trkpt lat="48.71215" lon="-3.29804">
        <ele>75</ele>
        <time>2011-02-20T08:51:24Z</time>
      </trkpt>
      <trkpt lat="48.71221" lon="-3.29797">
        <ele>75</ele>
        <time>2011-02-20T08:51:25Z</time>
      </trkpt>
      <trkpt lat="48.71227" lon="-3.2979">
        <ele>75</ele>
        <time>2011-02-20T08:51:26Z</time>
      </trkpt>
      <trkpt lat="48.71232" lon="-3.29783">
        <ele>75</ele>
        <time>2011-02-20T08:51:27Z</time>
      </trkpt>
      <trkpt lat="48.71238" lon="-3.29776">
        <ele>75</ele>
        <time>2011-02-20T08:51:28Z</time>
      </trkpt>
      <trkpt lat="48.71243" lon="-3.29768">
        <ele>75</ele>
        <time>2011-02-20T08:51:29Z</time>
      </trkpt>
      <trkpt lat="48.71248" lon="-3.29761">
        <ele>75</ele>
        <time>2011-02-20T08:51:30Z</time>
      </trkpt>
      <trkpt lat="48.71253" lon="-3.29754">
        <ele>75</ele>
        <time>2011-02-20T08:51:31Z</time>
      </trkpt>
      <trkpt lat="48.71258" lon="-3.29747">
        <ele>75</ele>
        <time>2011-02-20T08:51:32Z</time>
      </trkpt>
      <trkpt lat="48.71263" lon="-3.29739">
        <ele>75</ele>
        <time>2011-02-20T08:51:33Z</time>
      </trkpt>
      <trkpt lat="48.71268" lon="-3.29732">
        <ele>75</ele>
        <time>2011-02-20T08:51:34Z</time>
      </trkpt>
      <trkpt lat="48.71273" lon="-3.29725">
        <ele>75</ele>
        <time>2011-02-20T08:51:35Z</time>
      </trkpt>
      <trkpt lat="48.71278" lon="-3.29717">
        <ele>75</ele>
        <time>2011-02-20T08:51:36Z</time>
      </trkpt>
      <trkpt lat="48.71283" lon="-3.2971">
        <ele>75</ele>
        <time>2011-02-20T08:51:37Z</time>
      </trkpt>
      <trkpt lat="48.71289" lon="-3.29703">
        <ele>75</ele>
        <time>2011-02-20T08:51:38Z</time>
      </trkpt>
      <trkpt lat="48.71294" lon="-3.29696">
        <ele>75</ele>
        <time>2011-02-20T08:51:39Z</time>
      </trkpt>
      <trkpt lat="48.71299" lon="-3.29688">
        <ele>75</ele>
        <time>2011-02-20T08:51:40Z</time>
      </trkpt>
      <trkpt lat="48.71304" lon="-3.29681">
        <ele>75</ele>
        <time>2011-02-20T08:51:41Z</time>
      </trkpt>
      <trkpt lat="48.71309" lon="-3.29674">
        <ele>75</ele>
        <time>2011-02-20T08:51:42Z</time>
      </trkpt>
      <trkpt lat="48.71314" lon="-3.29666">
        <ele>75</ele>
        <time>2011-02-20T08:51:43Z</time>
      </trkpt>
      <trkpt lat="48.71319" lon="-3.29659">
        <ele>75</ele>
        <time>2011-02-20T08:51:44Z</time>
      </trkpt>
      <trkpt lat="48.71325" lon="-3.29652">
        <ele>76</ele>
        <time>2011-02-20T08:51:45Z</time>
      </trkpt>
      <trkpt lat="48.7133" lon="-3.29644">
        <ele>76</ele>
        <time>2011-02-20T08:51:46Z</time>
      </trkpt>
      <trkpt lat="48.71335" lon="-3.29637">
        <ele>76</ele>
        <time>2011-02-20T08:51:47Z</time>
      </trkpt>
      <trkpt lat="48.7134" lon="-3.2963">
        <ele>76</ele>
        <time>2011-02-20T08:51:48Z</time>
      </trkpt>
      <trkpt lat="48.71345" lon="-3.29622">
        <ele>76</ele>
        <time>2011-02-20T08:51:49Z</time>
      </trkpt>
      <trkpt lat="48.71349" lon="-3.29615">
        <ele>76</ele>
        <time>2011-02-20T08:51:50Z</time>
      </trkpt>
      <trkpt lat="48.71355" lon="-3.29608">
        <ele>76</ele>
        <time>2011-02-20T08:51:51Z</time>
      </trkpt>
      <trkpt lat="48.7136" lon="-3.296">
        <ele>76</ele>
        <time>2011-02-20T08:51:52Z</time>
      </trkpt>
      <trkpt lat="48.71365" lon="-3.29593">
        <ele>76</ele>
        <time>2011-02-20T08:51:53Z</time>
      </trkpt>
      <trkpt lat="48.7137" lon="-3.29586">
        <ele>76</ele>
        <time>2011-02-20T08:51:54Z</time>
      </trkpt>
      <trkpt lat="48.71376" lon="-3.29578">
        <ele>76</ele>
        <time>2011-02-20T08:51:55Z</time>
      </trkpt>
      <trkpt lat="48.71381" lon="-3.29571">
        <ele>76</ele>
        <time>2011-02-20T08:51:56Z</time>
      </trkpt>
      <trkpt lat="48.71386" lon="-3.29563">
        <ele>76</ele>
        <time>2011-02-20T08:51:57Z</time>
      </trkpt>
      <trkpt lat="48.71392" lon="-3.29555">
        <ele>76</ele>
        <time>2011-02-20T08:51:58Z</time>
      </trkpt>
      <trkpt lat="48.71397" lon="-3.29548">
        <ele>76</ele>
        <time>2011-02-20T08:51:59Z</time>
      </trkpt>
      <trkpt lat="48.71402" lon="-3.29541">
        <ele>76</ele>
        <time>2011-02-20T08:52:00Z</time>
      </trkpt>
      <trkpt lat="48.71407" lon="-3.29534">
        <ele>76</ele>
        <time>2011-02-20T08:52:01Z</time>
      </trkpt>
      <trkpt lat="48.71412" lon="-3.29526">
        <ele>76</ele>
        <time>2011-02-20T08:52:02Z</time>
      </trkpt>
      <trkpt lat="48.71417" lon="-3.29519">
        <ele>76</ele>
        <time>2011-02-20T08:52:03Z</time>
      </trkpt>
      <trkpt lat="48.71422" lon="-3.29512">
        <ele>76</ele>
        <time>2011-02-20T08:52:04Z</time>
      </trkpt>
      <trkpt lat="48.71427" lon="-3.29504">
        <ele>76</ele>
        <time>2011-02-20T08:52:05Z</time>
      </trkpt>
      <trkpt lat="48.71432" lon="-3.29497">
        <ele>77</ele>
        <time>2011-02-20T08:52:06Z</time>
      </trkpt>
      <trkpt lat="48.71437" lon="-3.29489">
        <ele>77</ele>
        <time>2011-02-20T08:52:07Z</time>
      </trkpt>
      <trkpt lat="48.71443" lon="-3.29482">
        <ele>77</ele>
        <time>2011-02-20T08:52:08Z</time>
      </trkpt>
      <trkpt lat="48.71448" lon="-3.29474">
        <ele>77</ele>
        <time>2011-02-20T08:52:09Z</time>
      </trkpt>
      <trkpt lat="48.71453" lon="-3.29466">
        <ele>77</ele>
        <time>2011-02-20T08:52:10Z</time>
      </trkpt>
      <trkpt lat="48.71459" lon="-3.29458">
        <ele>77</ele>
        <time>2011-02-20T08:52:11Z</time>
      </trkpt>
      <trkpt lat="48.71464" lon="-3.2945">
        <ele>77</ele>
        <time>2011-02-20T08:52:12Z</time>
      </trkpt>
      <trkpt lat="48.7147" lon="-3.29443">
        <ele>77</ele>
        <time>2011-02-20T08:52:13Z</time>
      </trkpt>
      <trkpt lat="48.71475" lon="-3.29435">
        <ele>77</ele>
        <time>2011-02-20T08:52:14Z</time>
      </trkpt>
      <trkpt lat="48.71481" lon="-3.29427">
        <ele>77</ele>
        <time>2011-02-20T08:52:15Z</time>
      </trkpt>
      <trkpt lat="48.71486" lon="-3.29419">
        <ele>77</ele>
        <time>2011-02-20T08:52:16Z</time>
      </trkpt>
      <trkpt lat="48.71491" lon="-3.29412">
        <ele>77</ele>
        <time>2011-02-20T08:52:17Z</time>
      </trkpt>
      <trkpt lat="48.71497" lon="-3.29404">
        <ele>77</ele>
        <time>2011-02-20T08:52:18Z</time>
      </trkpt>
      <trkpt lat="48.71502" lon="-3.29396">
        <ele>77</ele>
        <time>2011-02-20T08:52:19Z</time>
      </trkpt>
      <trkpt lat="48.71507" lon="-3.29389">
        <ele>77</ele>
        <time>2011-02-20T08:52:20Z</time>
      </trkpt>
      <trkpt lat="48.71513" lon="-3.29381">
        <ele>77</ele>
        <time>2011-02-20T08:52:21Z</time>
      </trkpt>
      <trkpt lat="48.71518" lon="-3.29374">
        <ele>77</ele>
        <time>2011-02-20T08:52:22Z</time>
      </trkpt>
      <trkpt lat="48.71524" lon="-3.29366">
        <ele>77</ele>
        <time>2011-02-20T08:52:23Z</time>
      </trkpt>
      <trkpt lat="48.71529" lon="-3.29359">
        <ele>77</ele>
        <time>2011-02-20T08:52:24Z</time>
      </trkpt>
      <trkpt lat="48.71535" lon="-3.29352">
        <ele>77</ele>
        <time>2011-02-20T08:52:25Z</time>
      </trkpt>
      <trkpt lat="48.71541" lon="-3.29345">
        <ele>77</ele>
        <time>2011-02-20T08:52:26Z</time>
      </trkpt>
      <trkpt lat="48.71547" lon="-3.29338">
        <ele>77</ele>
        <time>2011-02-20T08:52:27Z</time>
      </trkpt>
      <trkpt lat="48.71554" lon="-3.29331">
        <ele>77</ele>
        <time>2011-02-20T08:52:28Z</time>
      </trkpt>
      <trkpt lat="48.7156" lon="-3.29325">
        <ele>77</ele>
        <time>2011-02-20T08:52:29Z</time>
      </trkpt>
      <trkpt lat="48.71566" lon="-3.29318">
        <ele>77</ele>
        <time>2011-02-20T08:52:30Z</time>
      </trkpt>
      <trkpt lat="48.71572" lon="-3.29312">
        <ele>77</ele>
        <time>2011-02-20T08:52:31Z</time>
      </trkpt>
      <trkpt lat="48.71579" lon="-3.29306">
        <ele>77</ele>
        <time>2011-02-20T08:52:32Z</time>
      </trkpt>
      <trkpt lat="48.71586" lon="-3.293">
        <ele>77</ele>
        <time>2011-02-20T08:52:33Z</time>
      </trkpt>
      <trkpt lat="48.71592" lon="-3.29294">
        <ele>77</ele>
        <time>2011-02-20T08:52:34Z</time>
      </trkpt>
      <trkpt lat="48.71599" lon="-3.29288">
        <ele>77</ele>
        <time>2011-02-20T08:52:35Z</time>
      </trkpt>
      <trkpt lat="48.71606" lon="-3.29282">
        <ele>77</ele>
        <time>2011-02-20T08:52:36Z</time>
      </trkpt>
      <trkpt lat="48.71613" lon="-3.29277">
        <ele>77</ele>
        <time>2011-02-20T08:52:37Z</time>
      </trkpt>
      <trkpt lat="48.7162" lon="-3.29271">
        <ele>77</ele>
        <time>2011-02-20T08:52:38Z</time>
      </trkpt>
      <trkpt lat="48.71627" lon="-3.29266">
        <ele>77</ele>
        <time>2011-02-20T08:52:39Z</time>
      </trkpt>
      <trkpt lat="48.71634" lon="-3.29261">
        <ele>77</ele>
        <time>2011-02-20T08:52:40Z</time>
      </trkpt>
      <trkpt lat="48.71641" lon="-3.29256">
        <ele>77</ele>
        <time>2011-02-20T08:52:41Z</time>
      </trkpt>
      <trkpt lat="48.71648" lon="-3.29252">
        <ele>77</ele>
        <time>2011-02-20T08:52:42Z</time>
      </trkpt>
      <trkpt lat="48.71656" lon="-3.29247">
        <ele>77</ele>
        <time>2011-02-20T08:52:43Z</time>
      </trkpt>
      <trkpt lat="48.71663" lon="-3.29243">
        <ele>77</ele>
        <time>2011-02-20T08:52:44Z</time>
      </trkpt>
      <trkpt lat="48.71671" lon="-3.29239">
        <ele>77</ele>
        <time>2011-02-20T08:52:45Z</time>
      </trkpt>
      <trkpt lat="48.71678" lon="-3.29235">
        <ele>77</ele>
        <time>2011-02-20T08:52:46Z</time>
      </trkpt>
      <trkpt lat="48.71686" lon="-3.29232">
        <ele>77</ele>
        <time>2011-02-20T08:52:47Z</time>
      </trkpt>
      <trkpt lat="48.71694" lon="-3.29228">
        <ele>77</ele>
        <time>2011-02-20T08:52:48Z</time>
      </trkpt>
      <trkpt lat="48.71701" lon="-3.29224">
        <ele>77</ele>
        <time>2011-02-20T08:52:49Z</time>
      </trkpt>
      <trkpt lat="48.71709" lon="-3.29221">
        <ele>77</ele>
        <time>2011-02-20T08:52:50Z</time>
      </trkpt>
      <trkpt lat="48.71717" lon="-3.29218">
        <ele>77</ele>
        <time>2011-02-20T08:52:51Z</time>
      </trkpt>
      <trkpt lat="48.71725" lon="-3.29215">
        <ele>77</ele>
        <time>2011-02-20T08:52:52Z</time>
      </trkpt>
      <trkpt lat="48.71734" lon="-3.29213">
        <ele>77</ele>
        <time>2011-02-20T08:52:53Z</time>
      </trkpt>
      <trkpt lat="48.71742" lon="-3.29211">
        <ele>77</ele>
        <time>2011-02-20T08:52:54Z</time>
      </trkpt>
      <trkpt lat="48.71751" lon="-3.29208">
        <ele>77</ele>
        <time>2011-02-20T08:52:55Z</time>
      </trkpt>
      <trkpt lat="48.71759" lon="-3.29207">
        <ele>77</ele>
        <time>2011-02-20T08:52:56Z</time>
      </trkpt>
      <trkpt lat="48.71768" lon="-3.29205">
        <ele>77</ele>
        <time>2011-02-20T08:52:57Z</time>
      </trkpt>
      <trkpt lat="48.71777" lon="-3.29203">
        <ele>77</ele>
        <time>2011-02-20T08:52:58Z</time>
      </trkpt>
      <trkpt lat="48.71786" lon="-3.29201">
        <ele>77</ele>
        <time>2011-02-20T08:52:59Z</time>
      </trkpt>
      <trkpt lat="48.71795" lon="-3.29199">
        <ele>77</ele>
        <time>2011-02-20T08:53:00Z</time>
      </trkpt>
      <trkpt lat="48.71804" lon="-3.29197">
        <ele>77</ele>
        <time>2011-02-20T08:53:01Z</time>
      </trkpt>
      <trkpt lat="48.71812" lon="-3.29195">
        <ele>77</ele>
        <time>2011-02-20T08:53:02Z</time>
      </trkpt>
      <trkpt lat="48.71821" lon="-3.29193">
        <ele>77</ele>
        <time>2011-02-20T08:53:03Z</time>
      </trkpt>
      <trkpt lat="48.7183" lon="-3.29191">
        <ele>77</ele>
        <time>2011-02-20T08:53:04Z</time>
      </trkpt>
      <trkpt lat="48.71839" lon="-3.29188">
        <ele>77</ele>
        <time>2011-02-20T08:53:05Z</time>
      </trkpt>
      <trkpt lat="48.71848" lon="-3.29186">
        <ele>77</ele>
        <time>2011-02-20T08:53:06Z</time>
      </trkpt>
      <trkpt lat="48.71857" lon="-3.29184">
        <ele>77</ele>
        <time>2011-02-20T08:53:07Z</time>
      </trkpt>
      <trkpt lat="48.71866" lon="-3.29183">
        <ele>77</ele>
        <time>2011-02-20T08:53:08Z</time>
      </trkpt>
      <trkpt lat="48.71874" lon="-3.2918">
        <ele>77</ele>
        <time>2011-02-20T08:53:09Z</time>
      </trkpt>
      <trkpt lat="48.71883" lon="-3.29177">
        <ele>77</ele>
        <time>2011-02-20T08:53:10Z</time>
      </trkpt>
      <trkpt lat="48.71892" lon="-3.29175">
        <ele>77</ele>
        <time>2011-02-20T08:53:11Z</time>
      </trkpt>
      <trkpt lat="48.71901" lon="-3.29173">
        <ele>77</ele>
        <time>2011-02-20T08:53:12Z</time>
      </trkpt>
      <trkpt lat="48.7191" lon="-3.29171">
        <ele>77</ele>
        <time>2011-02-20T08:53:13Z</time>
      </trkpt>
      <trkpt lat="48.7192" lon="-3.29169">
        <ele>77</ele>
        <time>2011-02-20T08:53:14Z</time>
      </trkpt>
      <trkpt lat="48.71929" lon="-3.29167">
        <ele>77</ele>
        <time>2011-02-20T08:53:15Z</time>
      </trkpt>
      <trkpt lat="48.71938" lon="-3.29165">
        <ele>77</ele>
        <time>2011-02-20T08:53:16Z</time>
      </trkpt>
      <trkpt lat="48.71948" lon="-3.29163">
        <ele>77</ele>
        <time>2011-02-20T08:53:17Z</time>
      </trkpt>
      <trkpt lat="48.71957" lon="-3.29162">
        <ele>77</ele>
        <time>2011-02-20T08:53:18Z</time>
      </trkpt>
      <trkpt lat="48.71967" lon="-3.29161">
        <ele>77</ele>
        <time>2011-02-20T08:53:19Z</time>
      </trkpt>
      <trkpt lat="48.71977" lon="-3.29159">
        <ele>77</ele>
        <time>2011-02-20T08:53:20Z</time>
      </trkpt>
      <trkpt lat="48.71987" lon="-3.29157">
        <ele>77</ele>
        <time>2011-02-20T08:53:21Z</time>
      </trkpt>
      <trkpt lat="48.71997" lon="-3.29155">
        <ele>77</ele>
        <time>2011-02-20T08:53:22Z</time>
      </trkpt>
      <trkpt lat="48.72006" lon="-3.29152">
        <ele>77</ele>
        <time>2011-02-20T08:53:23Z</time>
      </trkpt>
      <trkpt lat="48.72016" lon="-3.29149">
        <ele>77</ele>
        <time>2011-02-20T08:53:24Z</time>
      </trkpt>
      <trkpt lat="48.72025" lon="-3.29146">
        <ele>77</ele>
        <time>2011-02-20T08:53:25Z</time>
      </trkpt>
      <trkpt lat="48.72035" lon="-3.29143">
        <ele>77</ele>
        <time>2011-02-20T08:53:26Z</time>
      </trkpt>
      <trkpt lat="48.72044" lon="-3.29139">
        <ele>77</ele>
        <time>2011-02-20T08:53:27Z</time>
      </trkpt>
      <trkpt lat="48.72054" lon="-3.29136">
        <ele>77</ele>
        <time>2011-02-20T08:53:28Z</time>
      </trkpt>
      <trkpt lat="48.72063" lon="-3.29133">
        <ele>77</ele>
        <time>2011-02-20T08:53:29Z</time>
      </trkpt>
      <trkpt lat="48.72073" lon="-3.29129">
        <ele>77</ele>
        <time>2011-02-20T08:53:30Z</time>
      </trkpt>
      <trkpt lat="48.72082" lon="-3.29126">
        <ele>77</ele>
        <time>2011-02-20T08:53:31Z</time>
      </trkpt>
      <trkpt lat="48.72091" lon="-3.29122">
        <ele>77</ele>
        <time>2011-02-20T08:53:32Z</time>
      </trkpt>
      <trkpt lat="48.721" lon="-3.29118">
        <ele>77</ele>
        <time>2011-02-20T08:53:33Z</time>
      </trkpt>
      <trkpt lat="48.7211" lon="-3.29113">
        <ele>77</ele>
        <time>2011-02-20T08:53:34Z</time>
      </trkpt>
      <trkpt lat="48.72119" lon="-3.29108">
        <ele>77</ele>
        <time>2011-02-20T08:53:35Z</time>
      </trkpt>
      <trkpt lat="48.72128" lon="-3.29102">
        <ele>77</ele>
        <time>2011-02-20T08:53:36Z</time>
      </trkpt>
      <trkpt lat="48.72137" lon="-3.29096">
        <ele>77</ele>
        <time>2011-02-20T08:53:37Z</time>
      </trkpt>
      <trkpt lat="48.72147" lon="-3.29089">
        <ele>77</ele>
        <time>2011-02-20T08:53:38Z</time>
      </trkpt>
      <trkpt lat="48.72156" lon="-3.29082">
        <ele>77</ele>
        <time>2011-02-20T08:53:39Z</time>
      </trkpt>
      <trkpt lat="48.72166" lon="-3.29075">
        <ele>77</ele>
        <time>2011-02-20T08:53:40Z</time>
      </trkpt>
      <trkpt lat="48.72175" lon="-3.29068">
        <ele>77</ele>
        <time>2011-02-20T08:53:41Z</time>
      </trkpt>
      <trkpt lat="48.72185" lon="-3.29061">
        <ele>77</ele>
        <time>2011-02-20T08:53:42Z</time>
      </trkpt>
      <trkpt lat="48.72194" lon="-3.29054">
        <ele>77</ele>
        <time>2011-02-20T08:53:43Z</time>
      </trkpt>
      <trkpt lat="48.72203" lon="-3.29047">
        <ele>77</ele>
        <time>2011-02-20T08:53:44Z</time>
      </trkpt>
      <trkpt lat="48.72211" lon="-3.29041">
        <ele>76</ele>
        <time>2011-02-20T08:53:45Z</time>
      </trkpt>
      <trkpt lat="48.7222" lon="-3.29034">
        <ele>76</ele>
        <time>2011-02-20T08:53:46Z</time>
      </trkpt>
      <trkpt lat="48.72228" lon="-3.29028">
        <ele>76</ele>
        <time>2011-02-20T08:53:47Z</time>
      </trkpt>
      <trkpt lat="48.72236" lon="-3.29022">
        <ele>76</ele>
        <time>2011-02-20T08:53:48Z</time>
      </trkpt>
      <trkpt lat="48.72244" lon="-3.29015">
        <ele>76</ele>
        <time>2011-02-20T08:53:49Z</time>
      </trkpt>
      <trkpt lat="48.72251" lon="-3.2901">
        <ele>76</ele>
        <time>2011-02-20T08:53:50Z</time>
      </trkpt>
      <trkpt lat="48.72259" lon="-3.29004">
        <ele>76</ele>
        <time>2011-02-20T08:53:51Z</time>
      </trkpt>
      <trkpt lat="48.72266" lon="-3.28998">
        <ele>76</ele>
        <time>2011-02-20T08:53:52Z</time>
      </trkpt>
      <trkpt lat="48.72274" lon="-3.28992">
        <ele>76</ele>
        <time>2011-02-20T08:53:53Z</time>
      </trkpt>
      <trkpt lat="48.72281" lon="-3.28986">
        <ele>76</ele>
        <time>2011-02-20T08:53:54Z</time>
      </trkpt>
      <trkpt lat="48.72289" lon="-3.28979">
        <ele>76</ele>
        <time>2011-02-20T08:53:55Z</time>
      </trkpt>
      <trkpt lat="48.72297" lon="-3.28973">
        <ele>75</ele>
        <time>2011-02-20T08:53:56Z</time>
      </trkpt>
      <trkpt lat="48.72304" lon="-3.28966">
        <ele>75</ele>
        <time>2011-02-20T08:53:57Z</time>
      </trkpt>
      <trkpt lat="48.72312" lon="-3.28959">
        <ele>75</ele>
        <time>2011-02-20T08:53:58Z</time>
      </trkpt>
      <trkpt lat="48.7232" lon="-3.28952">
        <ele>75</ele>
        <time>2011-02-20T08:53:59Z</time>
      </trkpt>
      <trkpt lat="48.72328" lon="-3.28945">
        <ele>75</ele>
        <time>2011-02-20T08:54:00Z</time>
      </trkpt>
      <trkpt lat="48.72335" lon="-3.28938">
        <ele>74</ele>
        <time>2011-02-20T08:54:01Z</time>
      </trkpt>
      <trkpt lat="48.72343" lon="-3.2893">
        <ele>74</ele>
        <time>2011-02-20T08:54:02Z</time>
      </trkpt>
      <trkpt lat="48.72351" lon="-3.28923">
        <ele>74</ele>
        <time>2011-02-20T08:54:03Z</time>
      </trkpt>
      <trkpt lat="48.7236" lon="-3.28915">
        <ele>73</ele>
        <time>2011-02-20T08:54:04Z</time>
      </trkpt>
      <trkpt lat="48.72368" lon="-3.28907">
        <ele>73</ele>
        <time>2011-02-20T08:54:05Z</time>
      </trkpt>
      <trkpt lat="48.72377" lon="-3.28899">
        <ele>72</ele>
        <time>2011-02-20T08:54:06Z</time>
      </trkpt>
      <trkpt lat="48.72386" lon="-3.28891">
        <ele>72</ele>
        <time>2011-02-20T08:54:07Z</time>
      </trkpt>
      <trkpt lat="48.72395" lon="-3.28883">
        <ele>71</ele>
        <time>2011-02-20T08:54:08Z</time>
      </trkpt>
      <trkpt lat="48.72404" lon="-3.28874">
        <ele>70</ele>
        <time>2011-02-20T08:54:09Z</time>
      </trkpt>
      <trkpt lat="48.72413" lon="-3.28866">
        <ele>70</ele>
        <time>2011-02-20T08:54:10Z</time>
      </trkpt>
      <trkpt lat="48.72423" lon="-3.28856">
        <ele>69</ele>
        <time>2011-02-20T08:54:11Z</time>
      </trkpt>
      <trkpt lat="48.72432" lon="-3.28846">
        <ele>68</ele>
        <time>2011-02-20T08:54:12Z</time>
      </trkpt>
      <trkpt lat="48.72441" lon="-3.28836">
        <ele>68</ele>
        <time>2011-02-20T08:54:13Z</time>
      </trkpt>
      <trkpt lat="48.72451" lon="-3.28825">
        <ele>67</ele>
        <time>2011-02-20T08:54:14Z</time>
      </trkpt>
      <trkpt lat="48.7246" lon="-3.28814">
        <ele>66</ele>
        <time>2011-02-20T08:54:15Z</time>
      </trkpt>
      <trkpt lat="48.7247" lon="-3.28803">
        <ele>65</ele>
        <time>2011-02-20T08:54:16Z</time>
      </trkpt>
      <trkpt lat="48.7248" lon="-3.28793">
        <ele>65</ele>
        <time>2011-02-20T08:54:17Z</time>
      </trkpt>
      <trkpt lat="48.7249" lon="-3.28782">
        <ele>64</ele>
        <time>2011-02-20T08:54:18Z</time>
      </trkpt>
      <trkpt lat="48.72501" lon="-3.28772">
        <ele>63</ele>
        <time>2011-02-20T08:54:19Z</time>
      </trkpt>
      <trkpt lat="48.72511" lon="-3.28761">
        <ele>62</ele>
        <time>2011-02-20T08:54:20Z</time>
      </trkpt>
      <trkpt lat="48.72522" lon="-3.2875">
        <ele>61</ele>
        <time>2011-02-20T08:54:21Z</time>
      </trkpt>
      <trkpt lat="48.72533" lon="-3.2874">
        <ele>60</ele>
        <time>2011-02-20T08:54:22Z</time>
      </trkpt>
      <trkpt lat="48.72544" lon="-3.28729">
        <ele>59</ele>
        <time>2011-02-20T08:54:23Z</time>
      </trkpt>
      <trkpt lat="48.72555" lon="-3.28718">
        <ele>58</ele>
        <time>2011-02-20T08:54:24Z</time>
      </trkpt>
      <trkpt lat="48.72566" lon="-3.28707">
        <ele>57</ele>
        <time>2011-02-20T08:54:25Z</time>
      </trkpt>
      <trkpt lat="48.72577" lon="-3.28697">
        <ele>56</ele>
        <time>2011-02-20T08:54:26Z</time>
      </trkpt>
      <trkpt lat="48.72589" lon="-3.28688">
        <ele>55</ele>
        <time>2011-02-20T08:54:27Z</time>
      </trkpt>
      <trkpt lat="48.72601" lon="-3.2868">
        <ele>54</ele>
        <time>2011-02-20T08:54:28Z</time>
      </trkpt>
      <trkpt lat="48.72614" lon="-3.28671">
        <ele>53</ele>
        <time>2011-02-20T08:54:29Z</time>
      </trkpt>
      <trkpt lat="48.72626" lon="-3.28664">
        <ele>52</ele>
        <time>2011-02-20T08:54:30Z</time>
      </trkpt>
      <trkpt lat="48.72639" lon="-3.28657">
        <ele>51</ele>
        <time>2011-02-20T08:54:31Z</time>
      </trkpt>
      <trkpt lat="48.72652" lon="-3.28649">
        <ele>50</ele>
        <time>2011-02-20T08:54:32Z</time>
      </trkpt>
      <trkpt lat="48.72664" lon="-3.28642">
        <ele>50</ele>
        <time>2011-02-20T08:54:33Z</time>
      </trkpt>
      <trkpt lat="48.72676" lon="-3.28635">
        <ele>49</ele>
        <time>2011-02-20T08:54:34Z</time>
      </trkpt>
      <trkpt lat="48.72688" lon="-3.28627">
        <ele>48</ele>
        <time>2011-02-20T08:54:35Z</time>
      </trkpt>
      <trkpt lat="48.727" lon="-3.2862">
        <ele>47</ele>
        <time>2011-02-20T08:54:36Z</time>
      </trkpt>
      <trkpt lat="48.72712" lon="-3.28611">
        <ele>46</ele>
        <time>2011-02-20T08:54:37Z</time>
      </trkpt>
      <trkpt lat="48.72724" lon="-3.28604">
        <ele>46</ele>
        <time>2011-02-20T08:54:38Z</time>
      </trkpt>
      <trkpt lat="48.72736" lon="-3.28595">
        <ele>45</ele>
        <time>2011-02-20T08:54:39Z</time>
      </trkpt>
      <trkpt lat="48.72747" lon="-3.28586">
        <ele>45</ele>
        <time>2011-02-20T08:54:40Z</time>
      </trkpt>
      <trkpt lat="48.72758" lon="-3.28576">
        <ele>44</ele>
        <time>2011-02-20T08:54:41Z</time>
      </trkpt>
      <trkpt lat="48.72769" lon="-3.28567">
        <ele>44</ele>
        <time>2011-02-20T08:54:42Z</time>
      </trkpt>
      <trkpt lat="48.72779" lon="-3.28556">
        <ele>43</ele>
        <time>2011-02-20T08:54:43Z</time>
      </trkpt>
      <trkpt lat="48.7279" lon="-3.28546">
        <ele>43</ele>
        <time>2011-02-20T08:54:44Z</time>
      </trkpt>
      <trkpt lat="48.72801" lon="-3.28536">
        <ele>42</ele>
        <time>2011-02-20T08:54:45Z</time>
      </trkpt>
      <trkpt lat="48.72813" lon="-3.28527">
        <ele>41</ele>
        <time>2011-02-20T08:54:46Z</time>
      </trkpt>
      <trkpt lat="48.72824" lon="-3.28518">
        <ele>41</ele>
        <time>2011-02-20T08:54:47Z</time>
      </trkpt>
      <trkpt lat="48.72837" lon="-3.2851">
        <ele>40</ele>
        <time>2011-02-20T08:54:48Z</time>
      </trkpt>
      <trkpt lat="48.72848" lon="-3.28502">
        <ele>39</ele>
        <time>2011-02-20T08:54:49Z</time>
      </trkpt>
      <trkpt lat="48.7286" lon="-3.28496">
        <ele>38</ele>
        <time>2011-02-20T08:54:50Z</time>
      </trkpt>
      <trkpt lat="48.72872" lon="-3.2849">
        <ele>37</ele>
        <time>2011-02-20T08:54:51Z</time>
      </trkpt>
      <trkpt lat="48.72884" lon="-3.28485">
        <ele>36</ele>
        <time>2011-02-20T08:54:52Z</time>
      </trkpt>
      <trkpt lat="48.72897" lon="-3.2848">
        <ele>36</ele>
        <time>2011-02-20T08:54:53Z</time>
      </trkpt>
      <trkpt lat="48.72909" lon="-3.28474">
        <ele>35</ele>
        <time>2011-02-20T08:54:54Z</time>
      </trkpt>
      <trkpt lat="48.72922" lon="-3.28468">
        <ele>34</ele>
        <time>2011-02-20T08:54:55Z</time>
      </trkpt>
      <trkpt lat="48.72935" lon="-3.28461">
        <ele>33</ele>
        <time>2011-02-20T08:54:56Z</time>
      </trkpt>
      <trkpt lat="48.72948" lon="-3.28453">
        <ele>33</ele>
        <time>2011-02-20T08:54:57Z</time>
      </trkpt>
      <trkpt lat="48.7296" lon="-3.28445">
        <ele>32</ele>
        <time>2011-02-20T08:54:58Z</time>
      </trkpt>
      <trkpt lat="48.72973" lon="-3.28435">
        <ele>31</ele>
        <time>2011-02-20T08:54:59Z</time>
      </trkpt>
      <trkpt lat="48.72985" lon="-3.28425">
        <ele>30</ele>
        <time>2011-02-20T08:55:00Z</time>
      </trkpt>
      <trkpt lat="48.72998" lon="-3.28414">
        <ele>29</ele>
        <time>2011-02-20T08:55:01Z</time>
      </trkpt>
      <trkpt lat="48.7301" lon="-3.28404">
        <ele>28</ele>
        <time>2011-02-20T08:55:02Z</time>
      </trkpt>
      <trkpt lat="48.73022" lon="-3.28393">
        <ele>28</ele>
        <time>2011-02-20T08:55:03Z</time>
      </trkpt>
      <trkpt lat="48.73034" lon="-3.28383">
        <ele>27</ele>
        <time>2011-02-20T08:55:04Z</time>
      </trkpt>
      <trkpt lat="48.73045" lon="-3.28371">
        <ele>26</ele>
        <time>2011-02-20T08:55:05Z</time>
      </trkpt>
      <trkpt lat="48.73056" lon="-3.28359">
        <ele>25</ele>
        <time>2011-02-20T08:55:06Z</time>
      </trkpt>
      <trkpt lat="48.73065" lon="-3.28346">
        <ele>24</ele>
        <time>2011-02-20T08:55:07Z</time>
      </trkpt>
      <trkpt lat="48.73074" lon="-3.28332">
        <ele>24</ele>
        <time>2011-02-20T08:55:08Z</time>
      </trkpt>
      <trkpt lat="48.73082" lon="-3.28317">
        <ele>23</ele>
        <time>2011-02-20T08:55:09Z</time>
      </trkpt>
      <trkpt lat="48.7309" lon="-3.28301">
        <ele>23</ele>
        <time>2011-02-20T08:55:10Z</time>
      </trkpt>
      <trkpt lat="48.73096" lon="-3.28285">
        <ele>22</ele>
        <time>2011-02-20T08:55:11Z</time>
      </trkpt>
      <trkpt lat="48.73102" lon="-3.28268">
        <ele>22</ele>
        <time>2011-02-20T08:55:12Z</time>
      </trkpt>
      <trkpt lat="48.73108" lon="-3.28251">
        <ele>21</ele>
        <time>2011-02-20T08:55:13Z</time>
      </trkpt>
      <trkpt lat="48.73114" lon="-3.28234">
        <ele>21</ele>
        <time>2011-02-20T08:55:14Z</time>
      </trkpt>
      <trkpt lat="48.7312" lon="-3.28217">
        <ele>20</ele>
        <time>2011-02-20T08:55:15Z</time>
      </trkpt>
      <trkpt lat="48.73126" lon="-3.282">
        <ele>20</ele>
        <time>2011-02-20T08:55:16Z</time>
      </trkpt>
      <trkpt lat="48.73132" lon="-3.28183">
        <ele>19</ele>
        <time>2011-02-20T08:55:17Z</time>
      </trkpt>
      <trkpt lat="48.73138" lon="-3.28167">
        <ele>18</ele>
        <time>2011-02-20T08:55:18Z</time>
      </trkpt>
      <trkpt lat="48.73143" lon="-3.2815">
        <ele>18</ele>
        <time>2011-02-20T08:55:19Z</time>
      </trkpt>
      <trkpt lat="48.73148" lon="-3.28134">
        <ele>17</ele>
        <time>2011-02-20T08:55:20Z</time>
      </trkpt>
      <trkpt lat="48.73154" lon="-3.28117">
        <ele>17</ele>
        <time>2011-02-20T08:55:21Z</time>
      </trkpt>
      <trkpt lat="48.73159" lon="-3.28101">
        <ele>16</ele>
        <time>2011-02-20T08:55:22Z</time>
      </trkpt>
      <trkpt lat="48.73165" lon="-3.28084">
        <ele>16</ele>
        <time>2011-02-20T08:55:23Z</time>
      </trkpt>
      <trkpt lat="48.73171" lon="-3.28069">
        <ele>16</ele>
        <time>2011-02-20T08:55:24Z</time>
      </trkpt>
      <trkpt lat="48.73177" lon="-3.28053">
        <ele>15</ele>
        <time>2011-02-20T08:55:25Z</time>
      </trkpt>
      <trkpt lat="48.73183" lon="-3.28038">
        <ele>15</ele>
        <time>2011-02-20T08:55:26Z</time>
      </trkpt>
      <trkpt lat="48.7319" lon="-3.28024">
        <ele>15</ele>
        <time>2011-02-20T08:55:27Z</time>
      </trkpt>
      <trkpt lat="48.73198" lon="-3.2801">
        <ele>15</ele>
        <time>2011-02-20T08:55:28Z</time>
      </trkpt>
      <trkpt lat="48.73205" lon="-3.27996">
        <ele>15</ele>
        <time>2011-02-20T08:55:29Z</time>
      </trkpt>
      <trkpt lat="48.73213" lon="-3.27983">
        <ele>14</ele>
        <time>2011-02-20T08:55:30Z</time>
      </trkpt>
      <trkpt lat="48.73221" lon="-3.27971">
        <ele>14</ele>
        <time>2011-02-20T08:55:31Z</time>
      </trkpt>
      <trkpt lat="48.73228" lon="-3.27959">
        <ele>14</ele>
        <time>2011-02-20T08:55:32Z</time>
      </trkpt>
      <trkpt lat="48.73236" lon="-3.27947">
        <ele>14</ele>
        <time>2011-02-20T08:55:33Z</time>
      </trkpt>
      <trkpt lat="48.73244" lon="-3.27935">
        <ele>14</ele>
        <time>2011-02-20T08:55:34Z</time>
      </trkpt>
      <trkpt lat="48.73252" lon="-3.27923">
        <ele>13</ele>
        <time>2011-02-20T08:55:35Z</time>
      </trkpt>
      <trkpt lat="48.73259" lon="-3.27911">
        <ele>13</ele>
        <time>2011-02-20T08:55:36Z</time>
      </trkpt>
      <trkpt lat="48.73265" lon="-3.27899">
        <ele>13</ele>
        <time>2011-02-20T08:55:37Z</time>
      </trkpt>
      <trkpt lat="48.73272" lon="-3.27886">
        <ele>13</ele>
        <time>2011-02-20T08:55:38Z</time>
      </trkpt>
      <trkpt lat="48.73278" lon="-3.27873">
        <ele>12</ele>
        <time>2011-02-20T08:55:39Z</time>
      </trkpt>
      <trkpt lat="48.73284" lon="-3.2786">
        <ele>12</ele>
        <time>2011-02-20T08:55:40Z</time>
      </trkpt>
      <trkpt lat="48.73291" lon="-3.27848">
        <ele>12</ele>
        <time>2011-02-20T08:55:41Z</time>
      </trkpt>
      <trkpt lat="48.73298" lon="-3.27836">
        <ele>11</ele>
        <time>2011-02-20T08:55:42Z</time>
      </trkpt>
      <trkpt lat="48.73305" lon="-3.27824">
        <ele>11</ele>
        <time>2011-02-20T08:55:43Z</time>
      </trkpt>
      <trkpt lat="48.73313" lon="-3.27813">
        <ele>10</ele>
        <time>2011-02-20T08:55:44Z</time>
      </trkpt>
      <trkpt lat="48.73321" lon="-3.27801">
        <ele>10</ele>
        <time>2011-02-20T08:55:45Z</time>
      </trkpt>
      <trkpt lat="48.73329" lon="-3.2779">
        <ele>9</ele>
        <time>2011-02-20T08:55:46Z</time>
      </trkpt>
      <trkpt lat="48.73338" lon="-3.2778">
        <ele>9</ele>
        <time>2011-02-20T08:55:47Z</time>
      </trkpt>
      <trkpt lat="48.73347" lon="-3.2777">
        <ele>8</ele>
        <time>2011-02-20T08:55:48Z</time>
      </trkpt>
      <trkpt lat="48.73356" lon="-3.27762">
        <ele>8</ele>
        <time>2011-02-20T08:55:49Z</time>
      </trkpt>
      <trkpt lat="48.73365" lon="-3.27753">
        <ele>7</ele>
        <time>2011-02-20T08:55:50Z</time>
      </trkpt>
      <trkpt lat="48.73374" lon="-3.27747">
        <ele>7</ele>
        <time>2011-02-20T08:55:51Z</time>
      </trkpt>
      <trkpt lat="48.73384" lon="-3.27742">
        <ele>7</ele>
        <time>2011-02-20T08:55:52Z</time>
      </trkpt>
      <trkpt lat="48.73394" lon="-3.27737">
        <ele>6</ele>
        <time>2011-02-20T08:55:53Z</time>
      </trkpt>
      <trkpt lat="48.73404" lon="-3.27733">
        <ele>6</ele>
        <time>2011-02-20T08:55:54Z</time>
      </trkpt>
      <trkpt lat="48.73414" lon="-3.27728">
        <ele>6</ele>
        <time>2011-02-20T08:55:55Z</time>
      </trkpt>
      <trkpt lat="48.73424" lon="-3.27724">
        <ele>6</ele>
        <time>2011-02-20T08:55:56Z</time>
      </trkpt>
      <trkpt lat="48.73434" lon="-3.2772">
        <ele>6</ele>
        <time>2011-02-20T08:55:57Z</time>
      </trkpt>
      <trkpt lat="48.73444" lon="-3.27715">
        <ele>6</ele>
        <time>2011-02-20T08:55:58Z</time>
      </trkpt>
      <trkpt lat="48.73454" lon="-3.2771">
        <ele>6</ele>
        <time>2011-02-20T08:55:59Z</time>
      </trkpt>
      <trkpt lat="48.73463" lon="-3.27704">
        <ele>6</ele>
        <time>2011-02-20T08:56:00Z</time>
      </trkpt>
      <trkpt lat="48.73472" lon="-3.27697">
        <ele>6</ele>
        <time>2011-02-20T08:56:01Z</time>
      </trkpt>
      <trkpt lat="48.73481" lon="-3.2769">
        <ele>6</ele>
        <time>2011-02-20T08:56:02Z</time>
      </trkpt>
      <trkpt lat="48.7349" lon="-3.27682">
        <ele>6</ele>
        <time>2011-02-20T08:56:03Z</time>
      </trkpt>
      <trkpt lat="48.73498" lon="-3.27674">
        <ele>6</ele>
        <time>2011-02-20T08:56:04Z</time>
      </trkpt>
      <trkpt lat="48.73506" lon="-3.27665">
        <ele>6</ele>
        <time>2011-02-20T08:56:05Z</time>
      </trkpt>
      <trkpt lat="48.73513" lon="-3.27656">
        <ele>6</ele>
        <time>2011-02-20T08:56:06Z</time>
      </trkpt>
      <trkpt lat="48.73521" lon="-3.27646">
        <ele>6</ele>
        <time>2011-02-20T08:56:07Z</time>
      </trkpt>
      <trkpt lat="48.73528" lon="-3.27637">
        <ele>6</ele>
        <time>2011-02-20T08:56:08Z</time>
      </trkpt>
      <trkpt lat="48.73534" lon="-3.27628">
        <ele>6</ele>
        <time>2011-02-20T08:56:09Z</time>
      </trkpt>
      <trkpt lat="48.73541" lon="-3.2762">
        <ele>6</ele>
        <time>2011-02-20T08:56:10Z</time>
      </trkpt>
      <trkpt lat="48.73547" lon="-3.27612">
        <ele>6</ele>
        <time>2011-02-20T08:56:11Z</time>
      </trkpt>
      <trkpt lat="48.73552" lon="-3.27603">
        <ele>6</ele>
        <time>2011-02-20T08:56:12Z</time>
      </trkpt>
      <trkpt lat="48.73558" lon="-3.27594">
        <ele>6</ele>
        <time>2011-02-20T08:56:13Z</time>
      </trkpt>
      <trkpt lat="48.73563" lon="-3.27585">
        <ele>6</ele>
        <time>2011-02-20T08:56:14Z</time>
      </trkpt>
      <trkpt lat="48.73569" lon="-3.27576">
        <ele>6</ele>
        <time>2011-02-20T08:56:15Z</time>
      </trkpt>
      <trkpt lat="48.73574" lon="-3.27566">
        <ele>6</ele>
        <time>2011-02-20T08:56:16Z</time>
      </trkpt>
      <trkpt lat="48.73579" lon="-3.27557">
        <ele>6</ele>
        <time>2011-02-20T08:56:17Z</time>
      </trkpt>
      <trkpt lat="48.73584" lon="-3.27547">
        <ele>6</ele>
        <time>2011-02-20T08:56:18Z</time>
      </trkpt>
      <trkpt lat="48.73589" lon="-3.27537">
        <ele>6</ele>
        <time>2011-02-20T08:56:19Z</time>
      </trkpt>
      <trkpt lat="48.73594" lon="-3.27527">
        <ele>6</ele>
        <time>2011-02-20T08:56:20Z</time>
      </trkpt>
      <trkpt lat="48.73598" lon="-3.27517">
        <ele>6</ele>
        <time>2011-02-20T08:56:21Z</time>
      </trkpt>
      <trkpt lat="48.73603" lon="-3.27507">
        <ele>6</ele>
        <time>2011-02-20T08:56:22Z</time>
      </trkpt>
      <trkpt lat="48.73607" lon="-3.27497">
        <ele>6</ele>
        <time>2011-02-20T08:56:23Z</time>
      </trkpt>
      <trkpt lat="48.73611" lon="-3.27487">
        <ele>6</ele>
        <time>2011-02-20T08:56:24Z</time>
      </trkpt>
      <trkpt lat="48.73615" lon="-3.27477">
        <ele>6</ele>
        <time>2011-02-20T08:56:25Z</time>
      </trkpt>
      <trkpt lat="48.73619" lon="-3.27467">
        <ele>6</ele>
        <time>2011-02-20T08:56:26Z</time>
      </trkpt>
      <trkpt lat="48.73623" lon="-3.27457">
        <ele>6</ele>
        <time>2011-02-20T08:56:27Z</time>
      </trkpt>
      <trkpt lat="48.73627" lon="-3.27447">
        <ele>6</ele>
        <time>2011-02-20T08:56:28Z</time>
      </trkpt>
      <trkpt lat="48.73632" lon="-3.27437">
        <ele>6</ele>
        <time>2011-02-20T08:56:29Z</time>
      </trkpt>
      <trkpt lat="48.73637" lon="-3.27428">
        <ele>6</ele>
        <time>2011-02-20T08:56:30Z</time>
      </trkpt>
      <trkpt lat="48.73642" lon="-3.27418">
        <ele>6</ele>
        <time>2011-02-20T08:56:31Z</time>
      </trkpt>
      <trkpt lat="48.73646" lon="-3.2741">
        <ele>6</ele>
        <time>2011-02-20T08:56:32Z</time>
      </trkpt>
      <trkpt lat="48.73651" lon="-3.27401">
        <ele>6</ele>
        <time>2011-02-20T08:56:33Z</time>
      </trkpt>
      <trkpt lat="48.73656" lon="-3.27392">
        <ele>6</ele>
        <time>2011-02-20T08:56:34Z</time>
      </trkpt>
      <trkpt lat="48.73661" lon="-3.27384">
        <ele>6</ele>
        <time>2011-02-20T08:56:35Z</time>
      </trkpt>
      <trkpt lat="48.73666" lon="-3.27375">
        <ele>6</ele>
        <time>2011-02-20T08:56:36Z</time>
      </trkpt>
      <trkpt lat="48.73671" lon="-3.27366">
        <ele>6</ele>
        <time>2011-02-20T08:56:37Z</time>
      </trkpt>
      <trkpt lat="48.73676" lon="-3.27358">
        <ele>6</ele>
        <time>2011-02-20T08:56:38Z</time>
      </trkpt>
      <trkpt lat="48.73681" lon="-3.27349">
        <ele>6</ele>
        <time>2011-02-20T08:56:39Z</time>
      </trkpt>
      <trkpt lat="48.73686" lon="-3.27341">
        <ele>6</ele>
        <time>2011-02-20T08:56:40Z</time>
      </trkpt>
      <trkpt lat="48.73691" lon="-3.27332">
        <ele>6</ele>
        <time>2011-02-20T08:56:41Z</time>
      </trkpt>
      <trkpt lat="48.73696" lon="-3.27323">
        <ele>6</ele>
        <time>2011-02-20T08:56:42Z</time>
      </trkpt>
      <trkpt lat="48.737" lon="-3.27314">
        <ele>6</ele>
        <time>2011-02-20T08:56:43Z</time>
      </trkpt>
      <trkpt lat="48.73705" lon="-3.27306">
        <ele>6</ele>
        <time>2011-02-20T08:56:44Z</time>
      </trkpt>
      <trkpt lat="48.73708" lon="-3.27296">
        <ele>6</ele>
        <time>2011-02-20T08:56:45Z</time>
      </trkpt>
      <trkpt lat="48.73712" lon="-3.27287">
        <ele>6</ele>
        <time>2011-02-20T08:56:46Z</time>
      </trkpt>
      <trkpt lat="48.73716" lon="-3.27277">
        <ele>6</ele>
        <time>2011-02-20T08:56:47Z</time>
      </trkpt>
      <trkpt lat="48.73719" lon="-3.27268">
        <ele>6</ele>
        <time>2011-02-20T08:56:48Z</time>
      </trkpt>
      <trkpt lat="48.73723" lon="-3.27259">
        <ele>6</ele>
        <time>2011-02-20T08:56:49Z</time>
      </trkpt>
      <trkpt lat="48.73726" lon="-3.27249">
        <ele>6</ele>
        <time>2011-02-20T08:56:50Z</time>
      </trkpt>
      <trkpt lat="48.7373" lon="-3.2724">
        <ele>6</ele>
        <time>2011-02-20T08:56:51Z</time>
      </trkpt>
      <trkpt lat="48.73733" lon="-3.2723">
        <ele>6</ele>
        <time>2011-02-20T08:56:52Z</time>
      </trkpt>
      <trkpt lat="48.73737" lon="-3.27221">
        <ele>6</ele>
        <time>2011-02-20T08:56:53Z</time>
      </trkpt>
      <trkpt lat="48.7374" lon="-3.2721">
        <ele>6</ele>
        <time>2011-02-20T08:56:54Z</time>
      </trkpt>
      <trkpt lat="48.73743" lon="-3.272">
        <ele>6</ele>
        <time>2011-02-20T08:56:55Z</time>
      </trkpt>
      <trkpt lat="48.73746" lon="-3.2719">
        <ele>6</ele>
        <time>2011-02-20T08:56:56Z</time>
      </trkpt>
      <trkpt lat="48.73749" lon="-3.27179">
        <ele>6</ele>
        <time>2011-02-20T08:56:57Z</time>
      </trkpt>
      <trkpt lat="48.73752" lon="-3.27169">
        <ele>6</ele>
        <time>2011-02-20T08:56:58Z</time>
      </trkpt>
      <trkpt lat="48.73757" lon="-3.27148">
        <ele>6</ele>
        <time>2011-02-20T08:57:00Z</time>
      </trkpt>
      <trkpt lat="48.73759" lon="-3.27137">
        <ele>6</ele>
        <time>2011-02-20T08:57:01Z</time>
      </trkpt>
      <trkpt lat="48.73761" lon="-3.27127">
        <ele>6</ele>
        <time>2011-02-20T08:57:02Z</time>
      </trkpt>
      <trkpt lat="48.73764" lon="-3.27117">
        <ele>6</ele>
        <time>2011-02-20T08:57:03Z</time>
      </trkpt>
      <trkpt lat="48.73766" lon="-3.27107">
        <ele>6</ele>
        <time>2011-02-20T08:57:04Z</time>
      </trkpt>
      <trkpt lat="48.73768" lon="-3.27098">
        <ele>6</ele>
        <time>2011-02-20T08:57:05Z</time>
      </trkpt>
      <trkpt lat="48.73771" lon="-3.27088">
        <ele>6</ele>
        <time>2011-02-20T08:57:06Z</time>
      </trkpt>
      <trkpt lat="48.73775" lon="-3.27068">
        <ele>6</ele>
        <time>2011-02-20T08:57:08Z</time>
      </trkpt>
      <trkpt lat="48.73777" lon="-3.27059">
        <ele>6</ele>
        <time>2011-02-20T08:57:09Z</time>
      </trkpt>
      <trkpt lat="48.73782" lon="-3.2704">
        <ele>6</ele>
        <time>2011-02-20T08:57:11Z</time>
      </trkpt>
      <trkpt lat="48.73786" lon="-3.27021">
        <ele>6</ele>
        <time>2011-02-20T08:57:13Z</time>
      </trkpt>
      <trkpt lat="48.73788" lon="-3.27012">
        <ele>6</ele>
        <time>2011-02-20T08:57:14Z</time>
      </trkpt>
      <trkpt lat="48.7379" lon="-3.27004">
        <ele>6</ele>
        <time>2011-02-20T08:57:15Z</time>
      </trkpt>
      <trkpt lat="48.73793" lon="-3.26995">
        <ele>6</ele>
        <time>2011-02-20T08:57:16Z</time>
      </trkpt>
      <trkpt lat="48.73796" lon="-3.26988">
        <ele>6</ele>
        <time>2011-02-20T08:57:17Z</time>
      </trkpt>
      <trkpt lat="48.73799" lon="-3.26981">
        <ele>7</ele>
        <time>2011-02-20T08:57:18Z</time>
      </trkpt>
      <trkpt lat="48.73802" lon="-3.26974">
        <ele>7</ele>
        <time>2011-02-20T08:57:19Z</time>
      </trkpt>
      <trkpt lat="48.73805" lon="-3.26968">
        <ele>8</ele>
        <time>2011-02-20T08:57:20Z</time>
      </trkpt>
      <trkpt lat="48.73809" lon="-3.26962">
        <ele>8</ele>
        <time>2011-02-20T08:57:21Z</time>
      </trkpt>
      <trkpt lat="48.73813" lon="-3.26956">
        <ele>8</ele>
        <time>2011-02-20T08:57:22Z</time>
      </trkpt>
      <trkpt lat="48.73817" lon="-3.26951">
        <ele>9</ele>
        <time>2011-02-20T08:57:23Z</time>
      </trkpt>
      <trkpt lat="48.73821" lon="-3.26946">
        <ele>9</ele>
        <time>2011-02-20T08:57:24Z</time>
      </trkpt>
      <trkpt lat="48.73825" lon="-3.26941">
        <ele>9</ele>
        <time>2011-02-20T08:57:25Z</time>
      </trkpt>
      <trkpt lat="48.73829" lon="-3.26937">
        <ele>10</ele>
        <time>2011-02-20T08:57:26Z</time>
      </trkpt>
      <trkpt lat="48.73833" lon="-3.26932">
        <ele>10</ele>
        <time>2011-02-20T08:57:27Z</time>
      </trkpt>
      <trkpt lat="48.73837" lon="-3.26927">
        <ele>10</ele>
        <time>2011-02-20T08:57:28Z</time>
      </trkpt>
      <trkpt lat="48.73841" lon="-3.26923">
        <ele>10</ele>
        <time>2011-02-20T08:57:29Z</time>
      </trkpt>
      <trkpt lat="48.73845" lon="-3.26919">
        <ele>10</ele>
        <time>2011-02-20T08:57:30Z</time>
      </trkpt>
      <trkpt lat="48.73849" lon="-3.26914">
        <ele>10</ele>
        <time>2011-02-20T08:57:31Z</time>
      </trkpt>
      <trkpt lat="48.73853" lon="-3.2691">
        <ele>11</ele>
        <time>2011-02-20T08:57:32Z</time>
      </trkpt>
      <trkpt lat="48.73857" lon="-3.26905">
        <ele>11</ele>
        <time>2011-02-20T08:57:33Z</time>
      </trkpt>
      <trkpt lat="48.73861" lon="-3.26901">
        <ele>11</ele>
        <time>2011-02-20T08:57:34Z</time>
      </trkpt>
      <trkpt lat="48.73866" lon="-3.26897">
        <ele>11</ele>
        <time>2011-02-20T08:57:35Z</time>
      </trkpt>
      <trkpt lat="48.7387" lon="-3.26893">
        <ele>12</ele>
        <time>2011-02-20T08:57:36Z</time>
      </trkpt>
      <trkpt lat="48.73875" lon="-3.2689">
        <ele>12</ele>
        <time>2011-02-20T08:57:37Z</time>
      </trkpt>
      <trkpt lat="48.73879" lon="-3.26886">
        <ele>12</ele>
        <time>2011-02-20T08:57:38Z</time>
      </trkpt>
      <trkpt lat="48.73883" lon="-3.26883">
        <ele>12</ele>
        <time>2011-02-20T08:57:39Z</time>
      </trkpt>
      <trkpt lat="48.73888" lon="-3.2688">
        <ele>12</ele>
        <time>2011-02-20T08:57:40Z</time>
      </trkpt>
      <trkpt lat="48.73893" lon="-3.26876">
        <ele>12</ele>
        <time>2011-02-20T08:57:41Z</time>
      </trkpt>
      <trkpt lat="48.73897" lon="-3.26873">
        <ele>12</ele>
        <time>2011-02-20T08:57:42Z</time>
      </trkpt>
      <trkpt lat="48.73902" lon="-3.2687">
        <ele>12</ele>
        <time>2011-02-20T08:57:43Z</time>
      </trkpt>
      <trkpt lat="48.73907" lon="-3.26867">
        <ele>12</ele>
        <time>2011-02-20T08:57:44Z</time>
      </trkpt>
      <trkpt lat="48.73911" lon="-3.26864">
        <ele>12</ele>
        <time>2011-02-20T08:57:45Z</time>
      </trkpt>
      <trkpt lat="48.73916" lon="-3.26861">
        <ele>13</ele>
        <time>2011-02-20T08:57:46Z</time>
      </trkpt>
      <trkpt lat="48.7392" lon="-3.26857">
        <ele>13</ele>
        <time>2011-02-20T08:57:47Z</time>
      </trkpt>
      <trkpt lat="48.73925" lon="-3.26854">
        <ele>13</ele>
        <time>2011-02-20T08:57:48Z</time>
      </trkpt>
      <trkpt lat="48.7393" lon="-3.2685">
        <ele>13</ele>
        <time>2011-02-20T08:57:49Z</time>
      </trkpt>
      <trkpt lat="48.73935" lon="-3.26847">
        <ele>13</ele>
        <time>2011-02-20T08:57:50Z</time>
      </trkpt>
      <trkpt lat="48.73941" lon="-3.26843">
        <ele>13</ele>
        <time>2011-02-20T08:57:51Z</time>
      </trkpt>
      <trkpt lat="48.73946" lon="-3.26838">
        <ele>13</ele>
        <time>2011-02-20T08:57:52Z</time>
      </trkpt>
      <trkpt lat="48.73951" lon="-3.26834">
        <ele>13</ele>
        <time>2011-02-20T08:57:53Z</time>
      </trkpt>
      <trkpt lat="48.73957" lon="-3.2683">
        <ele>13</ele>
        <time>2011-02-20T08:57:54Z</time>
      </trkpt>
      <trkpt lat="48.73962" lon="-3.26825">
        <ele>13</ele>
        <time>2011-02-20T08:57:55Z</time>
      </trkpt>
      <trkpt lat="48.73968" lon="-3.2682">
        <ele>13</ele>
        <time>2011-02-20T08:57:56Z</time>
      </trkpt>
      <trkpt lat="48.73974" lon="-3.26815">
        <ele>14</ele>
        <time>2011-02-20T08:57:57Z</time>
      </trkpt>
      <trkpt lat="48.73979" lon="-3.2681">
        <ele>14</ele>
        <time>2011-02-20T08:57:58Z</time>
      </trkpt>
      <trkpt lat="48.73985" lon="-3.26805">
        <ele>14</ele>
        <time>2011-02-20T08:57:59Z</time>
      </trkpt>
      <trkpt lat="48.7399" lon="-3.268">
        <ele>15</ele>
        <time>2011-02-20T08:58:00Z</time>
      </trkpt>
      <trkpt lat="48.73996" lon="-3.26795">
        <ele>15</ele>
        <time>2011-02-20T08:58:01Z</time>
      </trkpt>
      <trkpt lat="48.74001" lon="-3.2679">
        <ele>15</ele>
        <time>2011-02-20T08:58:02Z</time>
      </trkpt>
      <trkpt lat="48.74006" lon="-3.26784">
        <ele>15</ele>
        <time>2011-02-20T08:58:03Z</time>
      </trkpt>
      <trkpt lat="48.74012" lon="-3.26779">
        <ele>16</ele>
        <time>2011-02-20T08:58:04Z</time>
      </trkpt>
      <trkpt lat="48.74017" lon="-3.26772">
        <ele>16</ele>
        <time>2011-02-20T08:58:05Z</time>
      </trkpt>
      <trkpt lat="48.74023" lon="-3.26766">
        <ele>16</ele>
        <time>2011-02-20T08:58:06Z</time>
      </trkpt>
      <trkpt lat="48.74029" lon="-3.26759">
        <ele>16</ele>
        <time>2011-02-20T08:58:07Z</time>
      </trkpt>
      <trkpt lat="48.74035" lon="-3.26752">
        <ele>16</ele>
        <time>2011-02-20T08:58:08Z</time>
      </trkpt>
      <trkpt lat="48.74041" lon="-3.26745">
        <ele>16</ele>
        <time>2011-02-20T08:58:09Z</time>
      </trkpt>
      <trkpt lat="48.74047" lon="-3.26737">
        <ele>16</ele>
        <time>2011-02-20T08:58:10Z</time>
      </trkpt>
      <trkpt lat="48.74053" lon="-3.26729">
        <ele>16</ele>
        <time>2011-02-20T08:58:11Z</time>
      </trkpt>
      <trkpt lat="48.74059" lon="-3.26721">
        <ele>16</ele>
        <time>2011-02-20T08:58:12Z</time>
      </trkpt>
      <trkpt lat="48.74066" lon="-3.26712">
        <ele>16</ele>
        <time>2011-02-20T08:58:13Z</time>
      </trkpt>
      <trkpt lat="48.74073" lon="-3.26704">
        <ele>16</ele>
        <time>2011-02-20T08:58:14Z</time>
      </trkpt>
      <trkpt lat="48.7408" lon="-3.26694">
        <ele>16</ele>
        <time>2011-02-20T08:58:15Z</time>
      </trkpt>
      <trkpt lat="48.74086" lon="-3.26683">
        <ele>16</ele>
        <time>2011-02-20T08:58:16Z</time>
      </trkpt>
      <trkpt lat="48.74092" lon="-3.26671">
        <ele>16</ele>
        <time>2011-02-20T08:58:17Z</time>
      </trkpt>
      <trkpt lat="48.74098" lon="-3.26659">
        <ele>16</ele>
        <time>2011-02-20T08:58:18Z</time>
      </trkpt>
      <trkpt lat="48.74103" lon="-3.26646">
        <ele>16</ele>
        <time>2011-02-20T08:58:19Z</time>
      </trkpt>
      <trkpt lat="48.74108" lon="-3.26634">
        <ele>16</ele>
        <time>2011-02-20T08:58:20Z</time>
      </trkpt>
      <trkpt lat="48.74112" lon="-3.26622">
        <ele>16</ele>
        <time>2011-02-20T08:58:21Z</time>
      </trkpt>
      <trkpt lat="48.74117" lon="-3.2661">
        <ele>15</ele>
        <time>2011-02-20T08:58:22Z</time>
      </trkpt>
      <trkpt lat="48.74122" lon="-3.26599">
        <ele>15</ele>
        <time>2011-02-20T08:58:23Z</time>
      </trkpt>
      <trkpt lat="48.74128" lon="-3.26589">
        <ele>15</ele>
        <time>2011-02-20T08:58:24Z</time>
      </trkpt>
      <trkpt lat="48.74133" lon="-3.26578">
        <ele>15</ele>
        <time>2011-02-20T08:58:25Z</time>
      </trkpt>
      <trkpt lat="48.74139" lon="-3.26569">
        <ele>15</ele>
        <time>2011-02-20T08:58:26Z</time>
      </trkpt>
      <trkpt lat="48.74145" lon="-3.26561">
        <ele>15</ele>
        <time>2011-02-20T08:58:27Z</time>
      </trkpt>
      <trkpt lat="48.74152" lon="-3.26554">
        <ele>15</ele>
        <time>2011-02-20T08:58:28Z</time>
      </trkpt>
      <trkpt lat="48.74158" lon="-3.26547">
        <ele>15</ele>
        <time>2011-02-20T08:58:29Z</time>
      </trkpt>
      <trkpt lat="48.74165" lon="-3.26541">
        <ele>15</ele>
        <time>2011-02-20T08:58:30Z</time>
      </trkpt>
      <trkpt lat="48.74172" lon="-3.26536">
        <ele>15</ele>
        <time>2011-02-20T08:58:31Z</time>
      </trkpt>
      <trkpt lat="48.74179" lon="-3.26531">
        <ele>15</ele>
        <time>2011-02-20T08:58:32Z</time>
      </trkpt>
      <trkpt lat="48.74186" lon="-3.26527">
        <ele>15</ele>
        <time>2011-02-20T08:58:33Z</time>
      </trkpt>
      <trkpt lat="48.74194" lon="-3.26523">
        <ele>15</ele>
        <time>2011-02-20T08:58:34Z</time>
      </trkpt>
      <trkpt lat="48.74201" lon="-3.26519">
        <ele>15</ele>
        <time>2011-02-20T08:58:35Z</time>
      </trkpt>
      <trkpt lat="48.74207" lon="-3.26516">
        <ele>15</ele>
        <time>2011-02-20T08:58:36Z</time>
      </trkpt>
      <trkpt lat="48.74214" lon="-3.26513">
        <ele>15</ele>
        <time>2011-02-20T08:58:37Z</time>
      </trkpt>
      <trkpt lat="48.74221" lon="-3.26508">
        <ele>15</ele>
        <time>2011-02-20T08:58:38Z</time>
      </trkpt>
      <trkpt lat="48.74227" lon="-3.26504">
        <ele>15</ele>
        <time>2011-02-20T08:58:39Z</time>
      </trkpt>
      <trkpt lat="48.74233" lon="-3.26498">
        <ele>15</ele>
        <time>2011-02-20T08:58:40Z</time>
      </trkpt>
      <trkpt lat="48.74238" lon="-3.26492">
        <ele>15</ele>
        <time>2011-02-20T08:58:41Z</time>
      </trkpt>
      <trkpt lat="48.74243" lon="-3.26486">
        <ele>15</ele>
        <time>2011-02-20T08:58:42Z</time>
      </trkpt>
      <trkpt lat="48.74248" lon="-3.26478">
        <ele>15</ele>
        <time>2011-02-20T08:58:43Z</time>
      </trkpt>
      <trkpt lat="48.74253" lon="-3.26471">
        <ele>15</ele>
        <time>2011-02-20T08:58:44Z</time>
      </trkpt>
      <trkpt lat="48.74258" lon="-3.26463">
        <ele>15</ele>
        <time>2011-02-20T08:58:45Z</time>
      </trkpt>
      <trkpt lat="48.74263" lon="-3.26455">
        <ele>15</ele>
        <time>2011-02-20T08:58:46Z</time>
      </trkpt>
      <trkpt lat="48.74268" lon="-3.26448">
        <ele>15</ele>
        <time>2011-02-20T08:58:47Z</time>
      </trkpt>
      <trkpt lat="48.74273" lon="-3.2644">
        <ele>15</ele>
        <time>2011-02-20T08:58:48Z</time>
      </trkpt>
      <trkpt lat="48.74279" lon="-3.26432">
        <ele>15</ele>
        <time>2011-02-20T08:58:49Z</time>
      </trkpt>
      <trkpt lat="48.74284" lon="-3.26425">
        <ele>15</ele>
        <time>2011-02-20T08:58:50Z</time>
      </trkpt>
      <trkpt lat="48.74289" lon="-3.26418">
        <ele>15</ele>
        <time>2011-02-20T08:58:51Z</time>
      </trkpt>
      <trkpt lat="48.74294" lon="-3.2641">
        <ele>15</ele>
        <time>2011-02-20T08:58:52Z</time>
      </trkpt>
      <trkpt lat="48.74299" lon="-3.26403">
        <ele>15</ele>
        <time>2011-02-20T08:58:53Z</time>
      </trkpt>
      <trkpt lat="48.74304" lon="-3.26396">
        <ele>15</ele>
        <time>2011-02-20T08:58:54Z</time>
      </trkpt>
      <trkpt lat="48.7431" lon="-3.26389">
        <ele>15</ele>
        <time>2011-02-20T08:58:55Z</time>
      </trkpt>
      <trkpt lat="48.74316" lon="-3.26382">
        <ele>15</ele>
        <time>2011-02-20T08:58:56Z</time>
      </trkpt>
      <trkpt lat="48.74322" lon="-3.26377">
        <ele>15</ele>
        <time>2011-02-20T08:58:57Z</time>
      </trkpt>
      <trkpt lat="48.74329" lon="-3.26372">
        <ele>15</ele>
        <time>2011-02-20T08:58:58Z</time>
      </trkpt>
      <trkpt lat="48.74336" lon="-3.26367">
        <ele>15</ele>
        <time>2011-02-20T08:58:59Z</time>
      </trkpt>
      <trkpt lat="48.74343" lon="-3.26363">
        <ele>15</ele>
        <time>2011-02-20T08:59:00Z</time>
      </trkpt>
      <trkpt lat="48.7435" lon="-3.26359">
        <ele>15</ele>
        <time>2011-02-20T08:59:01Z</time>
      </trkpt>
      <trkpt lat="48.74358" lon="-3.26354">
        <ele>15</ele>
        <time>2011-02-20T08:59:02Z</time>
      </trkpt>
      <trkpt lat="48.74366" lon="-3.26349">
        <ele>15</ele>
        <time>2011-02-20T08:59:03Z</time>
      </trkpt>
      <trkpt lat="48.74374" lon="-3.26344">
        <ele>14</ele>
        <time>2011-02-20T08:59:04Z</time>
      </trkpt>
      <trkpt lat="48.74381" lon="-3.26339">
        <ele>13</ele>
        <time>2011-02-20T08:59:05Z</time>
      </trkpt>
      <trkpt lat="48.74387" lon="-3.26333">
        <ele>13</ele>
        <time>2011-02-20T08:59:06Z</time>
      </trkpt>
      <trkpt lat="48.74395" lon="-3.26328">
        <ele>12</ele>
        <time>2011-02-20T08:59:07Z</time>
      </trkpt>
      <trkpt lat="48.74402" lon="-3.26322">
        <ele>11</ele>
        <time>2011-02-20T08:59:08Z</time>
      </trkpt>
      <trkpt lat="48.7441" lon="-3.26316">
        <ele>10</ele>
        <time>2011-02-20T08:59:09Z</time>
      </trkpt>
      <trkpt lat="48.74416" lon="-3.2631">
        <ele>10</ele>
        <time>2011-02-20T08:59:10Z</time>
      </trkpt>
      <trkpt lat="48.74422" lon="-3.26304">
        <ele>9</ele>
        <time>2011-02-20T08:59:11Z</time>
      </trkpt>
      <trkpt lat="48.74429" lon="-3.26299">
        <ele>8</ele>
        <time>2011-02-20T08:59:12Z</time>
      </trkpt>
      <trkpt lat="48.74435" lon="-3.26296">
        <ele>8</ele>
        <time>2011-02-20T08:59:13Z</time>
      </trkpt>
      <trkpt lat="48.74441" lon="-3.26297">
        <ele>7</ele>
        <time>2011-02-20T08:59:14Z</time>
      </trkpt>
      <trkpt lat="48.74446" lon="-3.26302">
        <ele>7</ele>
        <time>2011-02-20T08:59:15Z</time>
      </trkpt>
      <trkpt lat="48.74451" lon="-3.26309">
        <ele>7</ele>
        <time>2011-02-20T08:59:16Z</time>
      </trkpt>
      <trkpt lat="48.74454" lon="-3.26317">
        <ele>6</ele>
        <time>2011-02-20T08:59:17Z</time>
      </trkpt>
      <trkpt lat="48.74456" lon="-3.26326">
        <ele>6</ele>
        <time>2011-02-20T08:59:18Z</time>
      </trkpt>
      <trkpt lat="48.74458" lon="-3.26334">
        <ele>6</ele>
        <time>2011-02-20T08:59:19Z</time>
      </trkpt>
      <trkpt lat="48.74461" lon="-3.26342">
        <ele>6</ele>
        <time>2011-02-20T08:59:20Z</time>
      </trkpt>
      <trkpt lat="48.74464" lon="-3.26349">
        <ele>6</ele>
        <time>2011-02-20T08:59:21Z</time>
      </trkpt>
      <trkpt lat="48.74466" lon="-3.26358">
        <ele>6</ele>
        <time>2011-02-20T08:59:22Z</time>
      </trkpt>
      <trkpt lat="48.74469" lon="-3.26365">
        <ele>6</ele>
        <time>2011-02-20T08:59:23Z</time>
      </trkpt>
      <trkpt lat="48.74472" lon="-3.26373">
        <ele>6</ele>
        <time>2011-02-20T08:59:24Z</time>
      </trkpt>
      <trkpt lat="48.74474" lon="-3.26381">
        <ele>6</ele>
        <time>2011-02-20T08:59:25Z</time>
      </trkpt>
      <trkpt lat="48.74477" lon="-3.26388">
        <ele>6</ele>
        <time>2011-02-20T08:59:26Z</time>
      </trkpt>
      <trkpt lat="48.74479" lon="-3.26396">
        <ele>6</ele>
        <time>2011-02-20T08:59:27Z</time>
      </trkpt>
      <trkpt lat="48.74483" lon="-3.26402">
        <ele>6</ele>
        <time>2011-02-20T08:59:28Z</time>
      </trkpt>
      <trkpt lat="48.74487" lon="-3.26408">
        <ele>6</ele>
        <time>2011-02-20T08:59:29Z</time>
      </trkpt>
      <trkpt lat="48.74491" lon="-3.26413">
        <ele>6</ele>
        <time>2011-02-20T08:59:30Z</time>
      </trkpt>
      <trkpt lat="48.74495" lon="-3.26419">
        <ele>6</ele>
        <time>2011-02-20T08:59:31Z</time>
      </trkpt>
      <trkpt lat="48.74498" lon="-3.26426">
        <ele>6</ele>
        <time>2011-02-20T08:59:32Z</time>
      </trkpt>
      <trkpt lat="48.74503" lon="-3.26432">
        <ele>6</ele>
        <time>2011-02-20T08:59:33Z</time>
      </trkpt>
      <trkpt lat="48.74507" lon="-3.26439">
        <ele>6</ele>
        <time>2011-02-20T08:59:34Z</time>
      </trkpt>
      <trkpt lat="48.74512" lon="-3.26445">
        <ele>6</ele>
        <time>2011-02-20T08:59:35Z</time>
      </trkpt>
      <trkpt lat="48.74517" lon="-3.26451">
        <ele>6</ele>
        <time>2011-02-20T08:59:36Z</time>
      </trkpt>
      <trkpt lat="48.74522" lon="-3.26458">
        <ele>6</ele>
        <time>2011-02-20T08:59:37Z</time>
      </trkpt>
      <trkpt lat="48.74527" lon="-3.26465">
        <ele>6</ele>
        <time>2011-02-20T08:59:38Z</time>
      </trkpt>
      <trkpt lat="48.74532" lon="-3.26473">
        <ele>6</ele>
        <time>2011-02-20T08:59:39Z</time>
      </trkpt>
      <trkpt lat="48.74537" lon="-3.2648">
        <ele>6</ele>
        <time>2011-02-20T08:59:40Z</time>
      </trkpt>
      <trkpt lat="48.74542" lon="-3.26488">
        <ele>6</ele>
        <time>2011-02-20T08:59:41Z</time>
      </trkpt>
      <trkpt lat="48.74547" lon="-3.26496">
        <ele>6</ele>
        <time>2011-02-20T08:59:42Z</time>
      </trkpt>
      <trkpt lat="48.74552" lon="-3.26504">
        <ele>6</ele>
        <time>2011-02-20T08:59:43Z</time>
      </trkpt>
      <trkpt lat="48.74557" lon="-3.26513">
        <ele>6</ele>
        <time>2011-02-20T08:59:44Z</time>
      </trkpt>
      <trkpt lat="48.74561" lon="-3.26521">
        <ele>6</ele>
        <time>2011-02-20T08:59:45Z</time>
      </trkpt>
      <trkpt lat="48.74565" lon="-3.2653">
        <ele>6</ele>
        <time>2011-02-20T08:59:46Z</time>
      </trkpt>
      <trkpt lat="48.74569" lon="-3.26539">
        <ele>6</ele>
        <time>2011-02-20T08:59:47Z</time>
      </trkpt>
      <trkpt lat="48.74572" lon="-3.26548">
        <ele>6</ele>
        <time>2011-02-20T08:59:48Z</time>
      </trkpt>
      <trkpt lat="48.74576" lon="-3.26557">
        <ele>6</ele>
        <time>2011-02-20T08:59:49Z</time>
      </trkpt>
      <trkpt lat="48.7458" lon="-3.26566">
        <ele>6</ele>
        <time>2011-02-20T08:59:50Z</time>
      </trkpt>
      <trkpt lat="48.74583" lon="-3.26575">
        <ele>6</ele>
        <time>2011-02-20T08:59:51Z</time>
      </trkpt>
      <trkpt lat="48.74587" lon="-3.26585">
        <ele>6</ele>
        <time>2011-02-20T08:59:52Z</time>
      </trkpt>
      <trkpt lat="48.74591" lon="-3.26593">
        <ele>6</ele>
        <time>2011-02-20T08:59:53Z</time>
      </trkpt>
      <trkpt lat="48.74595" lon="-3.26601">
        <ele>6</ele>
        <time>2011-02-20T08:59:54Z</time>
      </trkpt>
      <trkpt lat="48.746" lon="-3.26608">
        <ele>6</ele>
        <time>2011-02-20T08:59:55Z</time>
      </trkpt>
      <trkpt lat="48.74605" lon="-3.26614">
        <ele>6</ele>
        <time>2011-02-20T08:59:56Z</time>
      </trkpt>
      <trkpt lat="48.7461" lon="-3.26621">
        <ele>6</ele>
        <time>2011-02-20T08:59:57Z</time>
      </trkpt>
      <trkpt lat="48.74615" lon="-3.26627">
        <ele>6</ele>
        <time>2011-02-20T08:59:58Z</time>
      </trkpt>
      <trkpt lat="48.74621" lon="-3.26632">
        <ele>6</ele>
        <time>2011-02-20T08:59:59Z</time>
      </trkpt>
      <trkpt lat="48.74626" lon="-3.26638">
        <ele>6</ele>
        <time>2011-02-20T09:00:00Z</time>
      </trkpt>
      <trkpt lat="48.74632" lon="-3.26643">
        <ele>6</ele>
        <time>2011-02-20T09:00:01Z</time>
      </trkpt>
      <trkpt lat="48.74637" lon="-3.26648">
        <ele>6</ele>
        <time>2011-02-20T09:00:02Z</time>
      </trkpt>
      <trkpt lat="48.74643" lon="-3.26653">
        <ele>6</ele>
        <time>2011-02-20T09:00:03Z</time>
      </trkpt>
      <trkpt lat="48.74648" lon="-3.26657">
        <ele>6</ele>
        <time>2011-02-20T09:00:04Z</time>
      </trkpt>
      <trkpt lat="48.74653" lon="-3.26662">
        <ele>6</ele>
        <time>2011-02-20T09:00:05Z</time>
      </trkpt>
      <trkpt lat="48.74659" lon="-3.26667">
        <ele>6</ele>
        <time>2011-02-20T09:00:06Z</time>
      </trkpt>
      <trkpt lat="48.74664" lon="-3.26672">
        <ele>6</ele>
        <time>2011-02-20T09:00:07Z</time>
      </trkpt>
      <trkpt lat="48.74669" lon="-3.26678">
        <ele>6</ele>
        <time>2011-02-20T09:00:08Z</time>
      </trkpt>
      <trkpt lat="48.74675" lon="-3.26684">
        <ele>6</ele>
        <time>2011-02-20T09:00:09Z</time>
      </trkpt>
      <trkpt lat="48.7468" lon="-3.2669">
        <ele>5</ele>
        <time>2011-02-20T09:00:10Z</time>
      </trkpt>
      <trkpt lat="48.74685" lon="-3.26697">
        <ele>5</ele>
        <time>2011-02-20T09:00:11Z</time>
      </trkpt>
      <trkpt lat="48.7469" lon="-3.26704">
        <ele>5</ele>
        <time>2011-02-20T09:00:12Z</time>
      </trkpt>
      <trkpt lat="48.74695" lon="-3.26711">
        <ele>5</ele>
        <time>2011-02-20T09:00:13Z</time>
      </trkpt>
      <trkpt lat="48.74699" lon="-3.26718">
        <ele>5</ele>
        <time>2011-02-20T09:00:14Z</time>
      </trkpt>
      <trkpt lat="48.74704" lon="-3.26725">
        <ele>5</ele>
        <time>2011-02-20T09:00:15Z</time>
      </trkpt>
      <trkpt lat="48.74708" lon="-3.26732">
        <ele>5</ele>
        <time>2011-02-20T09:00:16Z</time>
      </trkpt>
      <trkpt lat="48.74712" lon="-3.2674">
        <ele>5</ele>
        <time>2011-02-20T09:00:17Z</time>
      </trkpt>
      <trkpt lat="48.74717" lon="-3.26747">
        <ele>5</ele>
        <time>2011-02-20T09:00:18Z</time>
      </trkpt>
      <trkpt lat="48.74721" lon="-3.26755">
        <ele>5</ele>
        <time>2011-02-20T09:00:19Z</time>
      </trkpt>
      <trkpt lat="48.74725" lon="-3.26763">
        <ele>5</ele>
        <time>2011-02-20T09:00:20Z</time>
      </trkpt>
      <trkpt lat="48.7473" lon="-3.2677">
        <ele>5</ele>
        <time>2011-02-20T09:00:21Z</time>
      </trkpt>
      <trkpt lat="48.74734" lon="-3.26778">
        <ele>5</ele>
        <time>2011-02-20T09:00:22Z</time>
      </trkpt>
      <trkpt lat="48.74738" lon="-3.26785">
        <ele>5</ele>
        <time>2011-02-20T09:00:23Z</time>
      </trkpt>
      <trkpt lat="48.74742" lon="-3.26792">
        <ele>5</ele>
        <time>2011-02-20T09:00:24Z</time>
      </trkpt>
      <trkpt lat="48.74746" lon="-3.26799">
        <ele>5</ele>
        <time>2011-02-20T09:00:25Z</time>
      </trkpt>
      <trkpt lat="48.7475" lon="-3.26805">
        <ele>5</ele>
        <time>2011-02-20T09:00:26Z</time>
      </trkpt>
      <trkpt lat="48.74754" lon="-3.26812">
        <ele>5</ele>
        <time>2011-02-20T09:00:27Z</time>
      </trkpt>
      <trkpt lat="48.74758" lon="-3.26819">
        <ele>5</ele>
        <time>2011-02-20T09:00:28Z</time>
      </trkpt>
      <trkpt lat="48.74761" lon="-3.26826">
        <ele>5</ele>
        <time>2011-02-20T09:00:29Z</time>
      </trkpt>
      <trkpt lat="48.74765" lon="-3.26833">
        <ele>5</ele>
        <time>2011-02-20T09:00:30Z</time>
      </trkpt>
      <trkpt lat="48.74769" lon="-3.26839">
        <ele>5</ele>
        <time>2011-02-20T09:00:31Z</time>
      </trkpt>
      <trkpt lat="48.74773" lon="-3.26846">
        <ele>5</ele>
        <time>2011-02-20T09:00:32Z</time>
      </trkpt>
      <trkpt lat="48.74776" lon="-3.26853">
        <ele>5</ele>
        <time>2011-02-20T09:00:33Z</time>
      </trkpt>
      <trkpt lat="48.7478" lon="-3.26861">
        <ele>5</ele>
        <time>2011-02-20T09:00:34Z</time>
      </trkpt>
      <trkpt lat="48.74784" lon="-3.26868">
        <ele>5</ele>
        <time>2011-02-20T09:00:35Z</time>
      </trkpt>
      <trkpt lat="48.74788" lon="-3.26875">
        <ele>5</ele>
        <time>2011-02-20T09:00:36Z</time>
      </trkpt>
      <trkpt lat="48.74792" lon="-3.26882">
        <ele>5</ele>
        <time>2011-02-20T09:00:37Z</time>
      </trkpt>
      <trkpt lat="48.74797" lon="-3.26889">
        <ele>5</ele>
        <time>2011-02-20T09:00:38Z</time>
      </trkpt>
      <trkpt lat="48.74801" lon="-3.26897">
        <ele>5</ele>
        <time>2011-02-20T09:00:39Z</time>
      </trkpt>
      <trkpt lat="48.74805" lon="-3.26904">
        <ele>5</ele>
        <time>2011-02-20T09:00:40Z</time>
      </trkpt>
      <trkpt lat="48.7481" lon="-3.26911">
        <ele>5</ele>
        <time>2011-02-20T09:00:41Z</time>
      </trkpt>
      <trkpt lat="48.74815" lon="-3.26918">
        <ele>5</ele>
        <time>2011-02-20T09:00:42Z</time>
      </trkpt>
      <trkpt lat="48.7482" lon="-3.26924">
        <ele>5</ele>
        <time>2011-02-20T09:00:43Z</time>
      </trkpt>
      <trkpt lat="48.74825" lon="-3.2693">
        <ele>5</ele>
        <time>2011-02-20T09:00:44Z</time>
      </trkpt>
      <trkpt lat="48.74831" lon="-3.26936">
        <ele>5</ele>
        <time>2011-02-20T09:00:45Z</time>
      </trkpt>
      <trkpt lat="48.74836" lon="-3.26942">
        <ele>5</ele>
        <time>2011-02-20T09:00:46Z</time>
      </trkpt>
      <trkpt lat="48.74842" lon="-3.26948">
        <ele>5</ele>
        <time>2011-02-20T09:00:47Z</time>
      </trkpt>
      <trkpt lat="48.74847" lon="-3.26954">
        <ele>5</ele>
        <time>2011-02-20T09:00:48Z</time>
      </trkpt>
      <trkpt lat="48.74852" lon="-3.26959">
        <ele>5</ele>
        <time>2011-02-20T09:00:49Z</time>
      </trkpt>
      <trkpt lat="48.74857" lon="-3.26964">
        <ele>5</ele>
        <time>2011-02-20T09:00:50Z</time>
      </trkpt>
      <trkpt lat="48.74862" lon="-3.26969">
        <ele>5</ele>
        <time>2011-02-20T09:00:51Z</time>
      </trkpt>
      <trkpt lat="48.74866" lon="-3.26973">
        <ele>5</ele>
        <time>2011-02-20T09:00:52Z</time>
      </trkpt>
      <trkpt lat="48.74871" lon="-3.26977">
        <ele>5</ele>
        <time>2011-02-20T09:00:53Z</time>
      </trkpt>
      <trkpt lat="48.74875" lon="-3.26981">
        <ele>5</ele>
        <time>2011-02-20T09:00:54Z</time>
      </trkpt>
      <trkpt lat="48.74878" lon="-3.26984">
        <ele>5</ele>
        <time>2011-02-20T09:00:55Z</time>
      </trkpt>
      <trkpt lat="48.74884" lon="-3.26988">
        <ele>5</ele>
        <time>2011-02-20T09:00:57Z</time>
      </trkpt>
      <trkpt lat="48.74888" lon="-3.2699">
        <ele>5</ele>
        <time>2011-02-20T09:00:59Z</time>
      </trkpt>
      <trkpt lat="48.7489" lon="-3.26992">
        <ele>5</ele>
        <time>2011-02-20T09:01:00Z</time>
      </trkpt>
      <trkpt lat="48.74899" lon="-3.26981">
        <ele>6</ele>
        <time>2011-02-20T09:01:12Z</time>
      </trkpt>
      <trkpt lat="48.749" lon="-3.26978">
        <ele>6</ele>
        <time>2011-02-20T09:01:13Z</time>
      </trkpt>
      <trkpt lat="48.74917" lon="-3.26872">
        <ele>6</ele>
        <time>2011-02-20T09:01:28Z</time>
      </trkpt>
      <trkpt lat="48.74918" lon="-3.26864">
        <ele>6</ele>
        <time>2011-02-20T09:01:29Z</time>
      </trkpt>
      <trkpt lat="48.74921" lon="-3.26856">
        <ele>6</ele>
        <time>2011-02-20T09:01:30Z</time>
      </trkpt>
      <trkpt lat="48.74923" lon="-3.26849">
        <ele>6</ele>
        <time>2011-02-20T09:01:31Z</time>
      </trkpt>
      <trkpt lat="48.74926" lon="-3.26842">
        <ele>6</ele>
        <time>2011-02-20T09:01:32Z</time>
      </trkpt>
      <trkpt lat="48.74929" lon="-3.26835">
        <ele>6</ele>
        <time>2011-02-20T09:01:33Z</time>
      </trkpt>
      <trkpt lat="48.74932" lon="-3.26828">
        <ele>6</ele>
        <time>2011-02-20T09:01:34Z</time>
      </trkpt>
      <trkpt lat="48.74936" lon="-3.26822">
        <ele>6</ele>
        <time>2011-02-20T09:01:35Z</time>
      </trkpt>
      <trkpt lat="48.7494" lon="-3.26816">
        <ele>6</ele>
        <time>2011-02-20T09:01:36Z</time>
      </trkpt>
      <trkpt lat="48.74945" lon="-3.2681">
        <ele>6</ele>
        <time>2011-02-20T09:01:37Z</time>
      </trkpt>
      <trkpt lat="48.74949" lon="-3.26805">
        <ele>6</ele>
        <time>2011-02-20T09:01:38Z</time>
      </trkpt>
      <trkpt lat="48.74954" lon="-3.26801">
        <ele>6</ele>
        <time>2011-02-20T09:01:39Z</time>
      </trkpt>
      <trkpt lat="48.74959" lon="-3.26797">
        <ele>6</ele>
        <time>2011-02-20T09:01:40Z</time>
      </trkpt>
      <trkpt lat="48.74964" lon="-3.26794">
        <ele>6</ele>
        <time>2011-02-20T09:01:41Z</time>
      </trkpt>
      <trkpt lat="48.74969" lon="-3.2679">
        <ele>6</ele>
        <time>2011-02-20T09:01:42Z</time>
      </trkpt>
      <trkpt lat="48.74974" lon="-3.26788">
        <ele>6</ele>
        <time>2011-02-20T09:01:43Z</time>
      </trkpt>
      <trkpt lat="48.74978" lon="-3.26785">
        <ele>6</ele>
        <time>2011-02-20T09:01:44Z</time>
      </trkpt>
      <trkpt lat="48.74982" lon="-3.26781">
        <ele>6</ele>
        <time>2011-02-20T09:01:45Z</time>
      </trkpt>
      <trkpt lat="48.74986" lon="-3.26777">
        <ele>6</ele>
        <time>2011-02-20T09:01:46Z</time>
      </trkpt>
      <trkpt lat="48.74989" lon="-3.26771">
        <ele>6</ele>
        <time>2011-02-20T09:01:47Z</time>
      </trkpt>
      <trkpt lat="48.74993" lon="-3.26766">
        <ele>6</ele>
        <time>2011-02-20T09:01:48Z</time>
      </trkpt>
      <trkpt lat="48.74998" lon="-3.26762">
        <ele>6</ele>
        <time>2011-02-20T09:01:49Z</time>
      </trkpt>
      <trkpt lat="48.75004" lon="-3.2676">
        <ele>6</ele>
        <time>2011-02-20T09:01:50Z</time>
      </trkpt>
      <trkpt lat="48.7501" lon="-3.26759">
        <ele>6</ele>
        <time>2011-02-20T09:01:51Z</time>
      </trkpt>
      <trkpt lat="48.75016" lon="-3.26758">
        <ele>6</ele>
        <time>2011-02-20T09:01:52Z</time>
      </trkpt>
      <trkpt lat="48.75022" lon="-3.26756">
        <ele>6</ele>
        <time>2011-02-20T09:01:53Z</time>
      </trkpt>
      <trkpt lat="48.75029" lon="-3.26753">
        <ele>6</ele>
        <time>2011-02-20T09:01:54Z</time>
      </trkpt>
      <trkpt lat="48.75034" lon="-3.26749">
        <ele>6</ele>
        <time>2011-02-20T09:01:55Z</time>
      </trkpt>
      <trkpt lat="48.7504" lon="-3.26745">
        <ele>6</ele>
        <time>2011-02-20T09:01:56Z</time>
      </trkpt>
      <trkpt lat="48.75046" lon="-3.2674">
        <ele>6</ele>
        <time>2011-02-20T09:01:57Z</time>
      </trkpt>
      <trkpt lat="48.75052" lon="-3.26736">
        <ele>6</ele>
        <time>2011-02-20T09:01:58Z</time>
      </trkpt>
      <trkpt lat="48.75058" lon="-3.26731">
        <ele>6</ele>
        <time>2011-02-20T09:01:59Z</time>
      </trkpt>
      <trkpt lat="48.75064" lon="-3.26727">
        <ele>6</ele>
        <time>2011-02-20T09:02:00Z</time>
      </trkpt>
      <trkpt lat="48.7507" lon="-3.26723">
        <ele>6</ele>
        <time>2011-02-20T09:02:01Z</time>
      </trkpt>
      <trkpt lat="48.75077" lon="-3.26719">
        <ele>6</ele>
        <time>2011-02-20T09:02:02Z</time>
      </trkpt>
      <trkpt lat="48.75083" lon="-3.26715">
        <ele>6</ele>
        <time>2011-02-20T09:02:03Z</time>
      </trkpt>
      <trkpt lat="48.7509" lon="-3.26711">
        <ele>6</ele>
        <time>2011-02-20T09:02:04Z</time>
      </trkpt>
      <trkpt lat="48.75096" lon="-3.26708">
        <ele>6</ele>
        <time>2011-02-20T09:02:05Z</time>
      </trkpt>
      <trkpt lat="48.75103" lon="-3.26704">
        <ele>6</ele>
        <time>2011-02-20T09:02:06Z</time>
      </trkpt>
      <trkpt lat="48.75109" lon="-3.267">
        <ele>6</ele>
        <time>2011-02-20T09:02:07Z</time>
      </trkpt>
      <trkpt lat="48.75116" lon="-3.26696">
        <ele>6</ele>
        <time>2011-02-20T09:02:08Z</time>
      </trkpt>
      <trkpt lat="48.75123" lon="-3.26693">
        <ele>6</ele>
        <time>2011-02-20T09:02:09Z</time>
      </trkpt>
      <trkpt lat="48.7513" lon="-3.26689">
        <ele>6</ele>
        <time>2011-02-20T09:02:10Z</time>
      </trkpt>
      <trkpt lat="48.75137" lon="-3.26685">
        <ele>6</ele>
        <time>2011-02-20T09:02:11Z</time>
      </trkpt>
      <trkpt lat="48.75143" lon="-3.2668">
        <ele>6</ele>
        <time>2011-02-20T09:02:12Z</time>
      </trkpt>
      <trkpt lat="48.7515" lon="-3.26676">
        <ele>6</ele>
        <time>2011-02-20T09:02:13Z</time>
      </trkpt>
      <trkpt lat="48.75156" lon="-3.26671">
        <ele>6</ele>
        <time>2011-02-20T09:02:14Z</time>
      </trkpt>
      <trkpt lat="48.75162" lon="-3.26667">
        <ele>6</ele>
        <time>2011-02-20T09:02:15Z</time>
      </trkpt>
      <trkpt lat="48.75168" lon="-3.26662">
        <ele>6</ele>
        <time>2011-02-20T09:02:16Z</time>
      </trkpt>
      <trkpt lat="48.75174" lon="-3.26657">
        <ele>6</ele>
        <time>2011-02-20T09:02:17Z</time>
      </trkpt>
      <trkpt lat="48.75179" lon="-3.26651">
        <ele>6</ele>
        <time>2011-02-20T09:02:18Z</time>
      </trkpt>
      <trkpt lat="48.75184" lon="-3.26644">
        <ele>6</ele>
        <time>2011-02-20T09:02:19Z</time>
      </trkpt>
      <trkpt lat="48.75189" lon="-3.26638">
        <ele>6</ele>
        <time>2011-02-20T09:02:20Z</time>
      </trkpt>
      <trkpt lat="48.75194" lon="-3.26632">
        <ele>6</ele>
        <time>2011-02-20T09:02:21Z</time>
      </trkpt>
      <trkpt lat="48.75198" lon="-3.26625">
        <ele>6</ele>
        <time>2011-02-20T09:02:22Z</time>
      </trkpt>
      <trkpt lat="48.75202" lon="-3.26618">
        <ele>6</ele>
        <time>2011-02-20T09:02:23Z</time>
      </trkpt>
      <trkpt lat="48.75206" lon="-3.2661">
        <ele>6</ele>
        <time>2011-02-20T09:02:24Z</time>
      </trkpt>
      <trkpt lat="48.7521" lon="-3.26603">
        <ele>6</ele>
        <time>2011-02-20T09:02:25Z</time>
      </trkpt>
      <trkpt lat="48.75214" lon="-3.26596">
        <ele>6</ele>
        <time>2011-02-20T09:02:26Z</time>
      </trkpt>
      <trkpt lat="48.75217" lon="-3.26589">
        <ele>6</ele>
        <time>2011-02-20T09:02:27Z</time>
      </trkpt>
      <trkpt lat="48.7522" lon="-3.26582">
        <ele>6</ele>
        <time>2011-02-20T09:02:28Z</time>
      </trkpt>
      <trkpt lat="48.75224" lon="-3.26575">
        <ele>6</ele>
        <time>2011-02-20T09:02:29Z</time>
      </trkpt>
      <trkpt lat="48.75227" lon="-3.26569">
        <ele>6</ele>
        <time>2011-02-20T09:02:30Z</time>
      </trkpt>
      <trkpt lat="48.7523" lon="-3.26562">
        <ele>6</ele>
        <time>2011-02-20T09:02:31Z</time>
      </trkpt>
      <trkpt lat="48.75234" lon="-3.26555">
        <ele>6</ele>
        <time>2011-02-20T09:02:32Z</time>
      </trkpt>
      <trkpt lat="48.75237" lon="-3.26549">
        <ele>6</ele>
        <time>2011-02-20T09:02:33Z</time>
      </trkpt>
      <trkpt lat="48.75241" lon="-3.26542">
        <ele>6</ele>
        <time>2011-02-20T09:02:34Z</time>
      </trkpt>
      <trkpt lat="48.75244" lon="-3.26535">
        <ele>6</ele>
        <time>2011-02-20T09:02:35Z</time>
      </trkpt>
      <trkpt lat="48.75248" lon="-3.26528">
        <ele>6</ele>
        <time>2011-02-20T09:02:36Z</time>
      </trkpt>
      <trkpt lat="48.75251" lon="-3.2652">
        <ele>6</ele>
        <time>2011-02-20T09:02:37Z</time>
      </trkpt>
      <trkpt lat="48.75254" lon="-3.26513">
        <ele>6</ele>
        <time>2011-02-20T09:02:38Z</time>
      </trkpt>
      <trkpt lat="48.75257" lon="-3.26505">
        <ele>6</ele>
        <time>2011-02-20T09:02:39Z</time>
      </trkpt>
      <trkpt lat="48.75261" lon="-3.26498">
        <ele>6</ele>
        <time>2011-02-20T09:02:40Z</time>
      </trkpt>
      <trkpt lat="48.75264" lon="-3.2649">
        <ele>6</ele>
        <time>2011-02-20T09:02:41Z</time>
      </trkpt>
      <trkpt lat="48.75267" lon="-3.26482">
        <ele>6</ele>
        <time>2011-02-20T09:02:42Z</time>
      </trkpt>
      <trkpt lat="48.75272" lon="-3.26395">
        <ele>6</ele>
        <time>2011-02-20T09:02:51Z</time>
      </trkpt>
      <trkpt lat="48.75271" lon="-3.26386">
        <ele>6</ele>
        <time>2011-02-20T09:02:52Z</time>
      </trkpt>
      <trkpt lat="48.75269" lon="-3.26377">
        <ele>6</ele>
        <time>2011-02-20T09:02:53Z</time>
      </trkpt>
      <trkpt lat="48.75266" lon="-3.26367">
        <ele>6</ele>
        <time>2011-02-20T09:02:54Z</time>
      </trkpt>
      <trkpt lat="48.75264" lon="-3.26359">
        <ele>6</ele>
        <time>2011-02-20T09:02:55Z</time>
      </trkpt>
      <trkpt lat="48.75261" lon="-3.26349">
        <ele>6</ele>
        <time>2011-02-20T09:02:56Z</time>
      </trkpt>
      <trkpt lat="48.75259" lon="-3.26341">
        <ele>6</ele>
        <time>2011-02-20T09:02:57Z</time>
      </trkpt>
      <trkpt lat="48.75256" lon="-3.26332">
        <ele>6</ele>
        <time>2011-02-20T09:02:58Z</time>
      </trkpt>
      <trkpt lat="48.75254" lon="-3.26323">
        <ele>6</ele>
        <time>2011-02-20T09:02:59Z</time>
      </trkpt>
      <trkpt lat="48.75251" lon="-3.26313">
        <ele>6</ele>
        <time>2011-02-20T09:03:00Z</time>
      </trkpt>
      <trkpt lat="48.75249" lon="-3.26304">
        <ele>6</ele>
        <time>2011-02-20T09:03:01Z</time>
      </trkpt>
      <trkpt lat="48.75246" lon="-3.26294">
        <ele>6</ele>
        <time>2011-02-20T09:03:02Z</time>
      </trkpt>
      <trkpt lat="48.75244" lon="-3.26285">
        <ele>6</ele>
        <time>2011-02-20T09:03:03Z</time>
      </trkpt>
      <trkpt lat="48.75241" lon="-3.26275">
        <ele>6</ele>
        <time>2011-02-20T09:03:04Z</time>
      </trkpt>
      <trkpt lat="48.75236" lon="-3.26256">
        <ele>6</ele>
        <time>2011-02-20T09:03:06Z</time>
      </trkpt>
      <trkpt lat="48.7523" lon="-3.26182">
        <ele>6</ele>
        <time>2011-02-20T09:03:14Z</time>
      </trkpt>
      <trkpt lat="48.75232" lon="-3.26174">
        <ele>6</ele>
        <time>2011-02-20T09:03:15Z</time>
      </trkpt>
      <trkpt lat="48.75235" lon="-3.26166">
        <ele>6</ele>
        <time>2011-02-20T09:03:16Z</time>
      </trkpt>
      <trkpt lat="48.75238" lon="-3.26159">
        <ele>6</ele>
        <time>2011-02-20T09:03:17Z</time>
      </trkpt>
      <trkpt lat="48.7524" lon="-3.26151">
        <ele>6</ele>
        <time>2011-02-20T09:03:18Z</time>
      </trkpt>
      <trkpt lat="48.75243" lon="-3.26144">
        <ele>6</ele>
        <time>2011-02-20T09:03:19Z</time>
      </trkpt>
      <trkpt lat="48.75246" lon="-3.26136">
        <ele>6</ele>
        <time>2011-02-20T09:03:20Z</time>
      </trkpt>
      <trkpt lat="48.75249" lon="-3.2613">
        <ele>6</ele>
        <time>2011-02-20T09:03:21Z</time>
      </trkpt>
      <trkpt lat="48.75254" lon="-3.26123">
        <ele>6</ele>
        <time>2011-02-20T09:03:22Z</time>
      </trkpt>
      <trkpt lat="48.75259" lon="-3.26119">
        <ele>6</ele>
        <time>2011-02-20T09:03:23Z</time>
      </trkpt>
      <trkpt lat="48.75264" lon="-3.26117">
        <ele>6</ele>
        <time>2011-02-20T09:03:24Z</time>
      </trkpt>
      <trkpt lat="48.7527" lon="-3.26117">
        <ele>6</ele>
        <time>2011-02-20T09:03:25Z</time>
      </trkpt>
      <trkpt lat="48.75276" lon="-3.2612">
        <ele>6</ele>
        <time>2011-02-20T09:03:26Z</time>
      </trkpt>
      <trkpt lat="48.75285" lon="-3.2619">
        <ele>6</ele>
        <time>2011-02-20T09:03:34Z</time>
      </trkpt>
      <trkpt lat="48.75287" lon="-3.26199">
        <ele>6</ele>
        <time>2011-02-20T09:03:35Z</time>
      </trkpt>
      <trkpt lat="48.75289" lon="-3.26208">
        <ele>6</ele>
        <time>2011-02-20T09:03:36Z</time>
      </trkpt>
      <trkpt lat="48.75292" lon="-3.26216">
        <ele>6</ele>
        <time>2011-02-20T09:03:37Z</time>
      </trkpt>
      <trkpt lat="48.75295" lon="-3.26224">
        <ele>6</ele>
        <time>2011-02-20T09:03:38Z</time>
      </trkpt>
      <trkpt lat="48.75298" lon="-3.26232">
        <ele>6</ele>
        <time>2011-02-20T09:03:39Z</time>
      </trkpt>
      <trkpt lat="48.75301" lon="-3.2624">
        <ele>6</ele>
        <time>2011-02-20T09:03:40Z</time>
      </trkpt>
      <trkpt lat="48.75304" lon="-3.26247">
        <ele>6</ele>
        <time>2011-02-20T09:03:41Z</time>
      </trkpt>
      <trkpt lat="48.75307" lon="-3.26255">
        <ele>6</ele>
        <time>2011-02-20T09:03:42Z</time>
      </trkpt>
      <trkpt lat="48.7531" lon="-3.26263">
        <ele>6</ele>
        <time>2011-02-20T09:03:43Z</time>
      </trkpt>
      <trkpt lat="48.75313" lon="-3.26271">
        <ele>6</ele>
        <time>2011-02-20T09:03:44Z</time>
      </trkpt>
      <trkpt lat="48.75316" lon="-3.26279">
        <ele>6</ele>
        <time>2011-02-20T09:03:45Z</time>
      </trkpt>
      <trkpt lat="48.75319" lon="-3.26286">
        <ele>6</ele>
        <time>2011-02-20T09:03:46Z</time>
      </trkpt>
      <trkpt lat="48.75322" lon="-3.26294">
        <ele>6</ele>
        <time>2011-02-20T09:03:47Z</time>
      </trkpt>
      <trkpt lat="48.75325" lon="-3.26301">
        <ele>6</ele>
        <time>2011-02-20T09:03:48Z</time>
      </trkpt>
      <trkpt lat="48.75328" lon="-3.26309">
        <ele>6</ele>
        <time>2011-02-20T09:03:49Z</time>
      </trkpt>
      <trkpt lat="48.7533" lon="-3.26316">
        <ele>6</ele>
        <time>2011-02-20T09:03:50Z</time>
      </trkpt>
      <trkpt lat="48.75333" lon="-3.26324">
        <ele>6</ele>
        <time>2011-02-20T09:03:51Z</time>
      </trkpt>
      <trkpt lat="48.75337" lon="-3.26331">
        <ele>6</ele>
        <time>2011-02-20T09:03:52Z</time>
      </trkpt>
      <trkpt lat="48.7534" lon="-3.26338">
        <ele>6</ele>
        <time>2011-02-20T09:03:53Z</time>
      </trkpt>
      <trkpt lat="48.75343" lon="-3.26345">
        <ele>6</ele>
        <time>2011-02-20T09:03:54Z</time>
      </trkpt>
      <trkpt lat="48.75345" lon="-3.26353">
        <ele>6</ele>
        <time>2011-02-20T09:03:55Z</time>
      </trkpt>
      <trkpt lat="48.75348" lon="-3.26361">
        <ele>6</ele>
        <time>2011-02-20T09:03:56Z</time>
      </trkpt>
      <trkpt lat="48.75351" lon="-3.26369">
        <ele>6</ele>
        <time>2011-02-20T09:03:57Z</time>
      </trkpt>
      <trkpt lat="48.75354" lon="-3.26376">
        <ele>6</ele>
        <time>2011-02-20T09:03:58Z</time>
      </trkpt>
      <trkpt lat="48.75357" lon="-3.26384">
        <ele>6</ele>
        <time>2011-02-20T09:03:59Z</time>
      </trkpt>
      <trkpt lat="48.7536" lon="-3.26392">
        <ele>6</ele>
        <time>2011-02-20T09:04:00Z</time>
      </trkpt>
      <trkpt lat="48.75363" lon="-3.26399">
        <ele>7</ele>
        <time>2011-02-20T09:04:01Z</time>
      </trkpt>
      <trkpt lat="48.75366" lon="-3.26407">
        <ele>7</ele>
        <time>2011-02-20T09:04:02Z</time>
      </trkpt>
      <trkpt lat="48.75369" lon="-3.26414">
        <ele>7</ele>
        <time>2011-02-20T09:04:03Z</time>
      </trkpt>
      <trkpt lat="48.75372" lon="-3.26421">
        <ele>7</ele>
        <time>2011-02-20T09:04:04Z</time>
      </trkpt>
      <trkpt lat="48.75374" lon="-3.26429">
        <ele>8</ele>
        <time>2011-02-20T09:04:05Z</time>
      </trkpt>
      <trkpt lat="48.75377" lon="-3.26436">
        <ele>8</ele>
        <time>2011-02-20T09:04:06Z</time>
      </trkpt>
      <trkpt lat="48.7538" lon="-3.26444">
        <ele>8</ele>
        <time>2011-02-20T09:04:07Z</time>
      </trkpt>
      <trkpt lat="48.75383" lon="-3.26451">
        <ele>8</ele>
        <time>2011-02-20T09:04:08Z</time>
      </trkpt>
      <trkpt lat="48.75386" lon="-3.26459">
        <ele>9</ele>
        <time>2011-02-20T09:04:09Z</time>
      </trkpt>
      <trkpt lat="48.75389" lon="-3.26466">
        <ele>9</ele>
        <time>2011-02-20T09:04:10Z</time>
      </trkpt>
      <trkpt lat="48.75392" lon="-3.26474">
        <ele>9</ele>
        <time>2011-02-20T09:04:11Z</time>
      </trkpt>
      <trkpt lat="48.75395" lon="-3.26482">
        <ele>9</ele>
        <time>2011-02-20T09:04:12Z</time>
      </trkpt>
      <trkpt lat="48.75398" lon="-3.26489">
        <ele>10</ele>
        <time>2011-02-20T09:04:13Z</time>
      </trkpt>
      <trkpt lat="48.75401" lon="-3.26497">
        <ele>10</ele>
        <time>2011-02-20T09:04:14Z</time>
      </trkpt>
      <trkpt lat="48.75404" lon="-3.26504">
        <ele>10</ele>
        <time>2011-02-20T09:04:15Z</time>
      </trkpt>
      <trkpt lat="48.75406" lon="-3.26512">
        <ele>10</ele>
        <time>2011-02-20T09:04:16Z</time>
      </trkpt>
      <trkpt lat="48.75409" lon="-3.26519">
        <ele>10</ele>
        <time>2011-02-20T09:04:17Z</time>
      </trkpt>
      <trkpt lat="48.75412" lon="-3.26526">
        <ele>10</ele>
        <time>2011-02-20T09:04:18Z</time>
      </trkpt>
      <trkpt lat="48.75415" lon="-3.26534">
        <ele>10</ele>
        <time>2011-02-20T09:04:19Z</time>
      </trkpt>
      <trkpt lat="48.75418" lon="-3.26541">
        <ele>10</ele>
        <time>2011-02-20T09:04:20Z</time>
      </trkpt>
      <trkpt lat="48.75422" lon="-3.26549">
        <ele>10</ele>
        <time>2011-02-20T09:04:21Z</time>
      </trkpt>
      <trkpt lat="48.75425" lon="-3.26556">
        <ele>10</ele>
        <time>2011-02-20T09:04:22Z</time>
      </trkpt>
      <trkpt lat="48.75428" lon="-3.26564">
        <ele>11</ele>
        <time>2011-02-20T09:04:23Z</time>
      </trkpt>
      <trkpt lat="48.75431" lon="-3.26571">
        <ele>11</ele>
        <time>2011-02-20T09:04:24Z</time>
      </trkpt>
      <trkpt lat="48.75433" lon="-3.26579">
        <ele>11</ele>
        <time>2011-02-20T09:04:25Z</time>
      </trkpt>
      <trkpt lat="48.75436" lon="-3.26586">
        <ele>11</ele>
        <time>2011-02-20T09:04:26Z</time>
      </trkpt>
      <trkpt lat="48.75439" lon="-3.26594">
        <ele>11</ele>
        <time>2011-02-20T09:04:27Z</time>
      </trkpt>
      <trkpt lat="48.75443" lon="-3.26601">
        <ele>11</ele>
        <time>2011-02-20T09:04:28Z</time>
      </trkpt>
      <trkpt lat="48.75446" lon="-3.26609">
        <ele>12</ele>
        <time>2011-02-20T09:04:29Z</time>
      </trkpt>
      <trkpt lat="48.75449" lon="-3.26616">
        <ele>12</ele>
        <time>2011-02-20T09:04:30Z</time>
      </trkpt>
      <trkpt lat="48.75452" lon="-3.26624">
        <ele>12</ele>
        <time>2011-02-20T09:04:31Z</time>
      </trkpt>
      <trkpt lat="48.75455" lon="-3.26631">
        <ele>12</ele>
        <time>2011-02-20T09:04:32Z</time>
      </trkpt>
      <trkpt lat="48.75458" lon="-3.26639">
        <ele>12</ele>
        <time>2011-02-20T09:04:33Z</time>
      </trkpt>
      <trkpt lat="48.75461" lon="-3.26646">
        <ele>12</ele>
        <time>2011-02-20T09:04:34Z</time>
      </trkpt>
      <trkpt lat="48.75464" lon="-3.26654">
        <ele>13</ele>
        <time>2011-02-20T09:04:35Z</time>
      </trkpt>
      <trkpt lat="48.75467" lon="-3.26662">
        <ele>13</ele>
        <time>2011-02-20T09:04:36Z</time>
      </trkpt>
      <trkpt lat="48.7547" lon="-3.2667">
        <ele>13</ele>
        <time>2011-02-20T09:04:37Z</time>
      </trkpt>
      <trkpt lat="48.75473" lon="-3.26677">
        <ele>13</ele>
        <time>2011-02-20T09:04:38Z</time>
      </trkpt>
      <trkpt lat="48.75477" lon="-3.26685">
        <ele>13</ele>
        <time>2011-02-20T09:04:39Z</time>
      </trkpt>
      <trkpt lat="48.7548" lon="-3.26693">
        <ele>13</ele>
        <time>2011-02-20T09:04:40Z</time>
      </trkpt>
      <trkpt lat="48.75483" lon="-3.267">
        <ele>14</ele>
        <time>2011-02-20T09:04:41Z</time>
      </trkpt>
      <trkpt lat="48.75486" lon="-3.26708">
        <ele>14</ele>
        <time>2011-02-20T09:04:42Z</time>
      </trkpt>
      <trkpt lat="48.75489" lon="-3.26716">
        <ele>14</ele>
        <time>2011-02-20T09:04:43Z</time>
      </trkpt>
      <trkpt lat="48.75492" lon="-3.26723">
        <ele>14</ele>
        <time>2011-02-20T09:04:44Z</time>
      </trkpt>
      <trkpt lat="48.75495" lon="-3.26731">
        <ele>14</ele>
        <time>2011-02-20T09:04:45Z</time>
      </trkpt>
      <trkpt lat="48.75499" lon="-3.26739">
        <ele>14</ele>
        <time>2011-02-20T09:04:46Z</time>
      </trkpt>
      <trkpt lat="48.75502" lon="-3.26747">
        <ele>14</ele>
        <time>2011-02-20T09:04:47Z</time>
      </trkpt>
      <trkpt lat="48.75505" lon="-3.26755">
        <ele>14</ele>
        <time>2011-02-20T09:04:48Z</time>
      </trkpt>
      <trkpt lat="48.75508" lon="-3.26763">
        <ele>15</ele>
        <time>2011-02-20T09:04:49Z</time>
      </trkpt>
      <trkpt lat="48.75512" lon="-3.26771">
        <ele>15</ele>
        <time>2011-02-20T09:04:50Z</time>
      </trkpt>
      <trkpt lat="48.75515" lon="-3.26779">
        <ele>15</ele>
        <time>2011-02-20T09:04:51Z</time>
      </trkpt>
      <trkpt lat="48.75518" lon="-3.26786">
        <ele>15</ele>
        <time>2011-02-20T09:04:52Z</time>
      </trkpt>
      <trkpt lat="48.75521" lon="-3.26795">
        <ele>15</ele>
        <time>2011-02-20T09:04:53Z</time>
      </trkpt>
      <trkpt lat="48.75525" lon="-3.26803">
        <ele>16</ele>
        <time>2011-02-20T09:04:54Z</time>
      </trkpt>
      <trkpt lat="48.75528" lon="-3.26811">
        <ele>16</ele>
        <time>2011-02-20T09:04:55Z</time>
      </trkpt>
      <trkpt lat="48.75531" lon="-3.26819">
        <ele>16</ele>
        <time>2011-02-20T09:04:56Z</time>
      </trkpt>
      <trkpt lat="48.75535" lon="-3.26827">
        <ele>16</ele>
        <time>2011-02-20T09:04:57Z</time>
      </trkpt>
      <trkpt lat="48.75538" lon="-3.26835">
        <ele>16</ele>
        <time>2011-02-20T09:04:58Z</time>
      </trkpt>
      <trkpt lat="48.75542" lon="-3.26843">
        <ele>16</ele>
        <time>2011-02-20T09:04:59Z</time>
      </trkpt>
      <trkpt lat="48.75545" lon="-3.26852">
        <ele>17</ele>
        <time>2011-02-20T09:05:00Z</time>
      </trkpt>
      <trkpt lat="48.75548" lon="-3.26859">
        <ele>17</ele>
        <time>2011-02-20T09:05:01Z</time>
      </trkpt>
      <trkpt lat="48.75551" lon="-3.26868">
        <ele>17</ele>
        <time>2011-02-20T09:05:02Z</time>
      </trkpt>
      <trkpt lat="48.75555" lon="-3.26875">
        <ele>17</ele>
        <time>2011-02-20T09:05:03Z</time>
      </trkpt>
      <trkpt lat="48.75558" lon="-3.26884">
        <ele>17</ele>
        <time>2011-02-20T09:05:04Z</time>
      </trkpt>
      <trkpt lat="48.75561" lon="-3.26892">
        <ele>17</ele>
        <time>2011-02-20T09:05:05Z</time>
      </trkpt>
      <trkpt lat="48.75565" lon="-3.269">
        <ele>17</ele>
        <time>2011-02-20T09:05:06Z</time>
      </trkpt>
      <trkpt lat="48.75568" lon="-3.26908">
        <ele>18</ele>
        <time>2011-02-20T09:05:07Z</time>
      </trkpt>
      <trkpt lat="48.75571" lon="-3.26916">
        <ele>18</ele>
        <time>2011-02-20T09:05:08Z</time>
      </trkpt>
      <trkpt lat="48.75574" lon="-3.26923">
        <ele>18</ele>
        <time>2011-02-20T09:05:09Z</time>
      </trkpt>
      <trkpt lat="48.75578" lon="-3.26932">
        <ele>18</ele>
        <time>2011-02-20T09:05:10Z</time>
      </trkpt>
      <trkpt lat="48.75581" lon="-3.2694">
        <ele>18</ele>
        <time>2011-02-20T09:05:11Z</time>
      </trkpt>
      <trkpt lat="48.75585" lon="-3.26948">
        <ele>19</ele>
        <time>2011-02-20T09:05:12Z</time>
      </trkpt>
      <trkpt lat="48.75588" lon="-3.26956">
        <ele>19</ele>
        <time>2011-02-20T09:05:13Z</time>
      </trkpt>
      <trkpt lat="48.75591" lon="-3.26964">
        <ele>19</ele>
        <time>2011-02-20T09:05:14Z</time>
      </trkpt>
      <trkpt lat="48.75595" lon="-3.26973">
        <ele>19</ele>
        <time>2011-02-20T09:05:15Z</time>
      </trkpt>
      <trkpt lat="48.75598" lon="-3.26981">
        <ele>19</ele>
        <time>2011-02-20T09:05:16Z</time>
      </trkpt>
      <trkpt lat="48.75602" lon="-3.26989">
        <ele>19</ele>
        <time>2011-02-20T09:05:17Z</time>
      </trkpt>
      <trkpt lat="48.75605" lon="-3.26998">
        <ele>20</ele>
        <time>2011-02-20T09:05:18Z</time>
      </trkpt>
      <trkpt lat="48.75608" lon="-3.27006">
        <ele>20</ele>
        <time>2011-02-20T09:05:19Z</time>
      </trkpt>
      <trkpt lat="48.75612" lon="-3.27014">
        <ele>20</ele>
        <time>2011-02-20T09:05:20Z</time>
      </trkpt>
      <trkpt lat="48.75615" lon="-3.27022">
        <ele>20</ele>
        <time>2011-02-20T09:05:21Z</time>
      </trkpt>
      <trkpt lat="48.75618" lon="-3.2703">
        <ele>20</ele>
        <time>2011-02-20T09:05:22Z</time>
      </trkpt>
      <trkpt lat="48.75621" lon="-3.27038">
        <ele>20</ele>
        <time>2011-02-20T09:05:23Z</time>
      </trkpt>
      <trkpt lat="48.75625" lon="-3.27045">
        <ele>20</ele>
        <time>2011-02-20T09:05:24Z</time>
      </trkpt>
      <trkpt lat="48.75628" lon="-3.27053">
        <ele>21</ele>
        <time>2011-02-20T09:05:25Z</time>
      </trkpt>
      <trkpt lat="48.75631" lon="-3.27061">
        <ele>21</ele>
        <time>2011-02-20T09:05:26Z</time>
      </trkpt>
      <trkpt lat="48.75634" lon="-3.27069">
        <ele>21</ele>
        <time>2011-02-20T09:05:27Z</time>
      </trkpt>
      <trkpt lat="48.75637" lon="-3.27077">
        <ele>21</ele>
        <time>2011-02-20T09:05:28Z</time>
      </trkpt>
      <trkpt lat="48.75641" lon="-3.27085">
        <ele>21</ele>
        <time>2011-02-20T09:05:29Z</time>
      </trkpt>
      <trkpt lat="48.75644" lon="-3.27093">
        <ele>21</ele>
        <time>2011-02-20T09:05:30Z</time>
      </trkpt>
      <trkpt lat="48.75647" lon="-3.27101">
        <ele>22</ele>
        <time>2011-02-20T09:05:31Z</time>
      </trkpt>
      <trkpt lat="48.75651" lon="-3.27109">
        <ele>22</ele>
        <time>2011-02-20T09:05:32Z</time>
      </trkpt>
      <trkpt lat="48.75654" lon="-3.27117">
        <ele>22</ele>
        <time>2011-02-20T09:05:33Z</time>
      </trkpt>
      <trkpt lat="48.75657" lon="-3.27125">
        <ele>22</ele>
        <time>2011-02-20T09:05:34Z</time>
      </trkpt>
      <trkpt lat="48.7566" lon="-3.27134">
        <ele>22</ele>
        <time>2011-02-20T09:05:35Z</time>
      </trkpt>
      <trkpt lat="48.75663" lon="-3.27142">
        <ele>23</ele>
        <time>2011-02-20T09:05:36Z</time>
      </trkpt>
      <trkpt lat="48.75666" lon="-3.2715">
        <ele>23</ele>
        <time>2011-02-20T09:05:37Z</time>
      </trkpt>
      <trkpt lat="48.75669" lon="-3.27159">
        <ele>23</ele>
        <time>2011-02-20T09:05:38Z</time>
      </trkpt>
      <trkpt lat="48.75672" lon="-3.27168">
        <ele>23</ele>
        <time>2011-02-20T09:05:39Z</time>
      </trkpt>
      <trkpt lat="48.75675" lon="-3.27176">
        <ele>23</ele>
        <time>2011-02-20T09:05:40Z</time>
      </trkpt>
      <trkpt lat="48.75678" lon="-3.27185">
        <ele>24</ele>
        <time>2011-02-20T09:05:41Z</time>
      </trkpt>
      <trkpt lat="48.7568" lon="-3.27193">
        <ele>24</ele>
        <time>2011-02-20T09:05:42Z</time>
      </trkpt>
      <trkpt lat="48.75683" lon="-3.27202">
        <ele>24</ele>
        <time>2011-02-20T09:05:43Z</time>
      </trkpt>
      <trkpt lat="48.75686" lon="-3.27211">
        <ele>24</ele>
        <time>2011-02-20T09:05:44Z</time>
      </trkpt>
      <trkpt lat="48.75688" lon="-3.2722">
        <ele>24</ele>
        <time>2011-02-20T09:05:45Z</time>
      </trkpt>
      <trkpt lat="48.75691" lon="-3.27229">
        <ele>25</ele>
        <time>2011-02-20T09:05:46Z</time>
      </trkpt>
      <trkpt lat="48.75693" lon="-3.27238">
        <ele>25</ele>
        <time>2011-02-20T09:05:47Z</time>
      </trkpt>
      <trkpt lat="48.75696" lon="-3.27247">
        <ele>25</ele>
        <time>2011-02-20T09:05:48Z</time>
      </trkpt>
      <trkpt lat="48.75698" lon="-3.27256">
        <ele>25</ele>
        <time>2011-02-20T09:05:49Z</time>
      </trkpt>
      <trkpt lat="48.757" lon="-3.27265">
        <ele>25</ele>
        <time>2011-02-20T09:05:50Z</time>
      </trkpt>
      <trkpt lat="48.75705" lon="-3.27283">
        <ele>26</ele>
        <time>2011-02-20T09:05:52Z</time>
      </trkpt>
      <trkpt lat="48.75707" lon="-3.27292">
        <ele>26</ele>
        <time>2011-02-20T09:05:53Z</time>
      </trkpt>
      <trkpt lat="48.75724" lon="-3.27378">
        <ele>27</ele>
        <time>2011-02-20T09:06:02Z</time>
      </trkpt>
      <trkpt lat="48.75729" lon="-3.27415">
        <ele>27</ele>
        <time>2011-02-20T09:06:06Z</time>
      </trkpt>
      <trkpt lat="48.75731" lon="-3.27425">
        <ele>27</ele>
        <time>2011-02-20T09:06:07Z</time>
      </trkpt>
      <trkpt lat="48.75743" lon="-3.2756">
        <ele>28</ele>
        <time>2011-02-20T09:06:21Z</time>
      </trkpt>
      <trkpt lat="48.75743" lon="-3.2757">
        <ele>28</ele>
        <time>2011-02-20T09:06:22Z</time>
      </trkpt>
      <trkpt lat="48.75736" lon="-3.27793">
        <ele>28</ele>
        <time>2011-02-20T09:06:43Z</time>
      </trkpt>
      <trkpt lat="48.75728" lon="-3.27862">
        <ele>28</ele>
        <time>2011-02-20T09:06:49Z</time>
      </trkpt>
      <trkpt lat="48.75721" lon="-3.27924">
        <ele>28</ele>
        <time>2011-02-20T09:06:54Z</time>
      </trkpt>
      <trkpt lat="48.75715" lon="-3.27975">
        <ele>28</ele>
        <time>2011-02-20T09:06:58Z</time>
      </trkpt>
      <trkpt lat="48.75713" lon="-3.27988">
        <ele>28</ele>
        <time>2011-02-20T09:06:59Z</time>
      </trkpt>
      <trkpt lat="48.75705" lon="-3.28065">
        <ele>28</ele>
        <time>2011-02-20T09:07:05Z</time>
      </trkpt>
      <trkpt lat="48.75704" lon="-3.28079">
        <ele>28</ele>
        <time>2011-02-20T09:07:06Z</time>
      </trkpt>
      <trkpt lat="48.75733" lon="-3.28552">
        <ele>21</ele>
        <time>2011-02-20T09:07:43Z</time>
      </trkpt>
      <trkpt lat="48.75733" lon="-3.28564">
        <ele>21</ele>
        <time>2011-02-20T09:07:44Z</time>
      </trkpt>
      <trkpt lat="48.75747" lon="-3.28717">
        <ele>20</ele>
        <time>2011-02-20T09:07:57Z</time>
      </trkpt>
      <trkpt lat="48.75748" lon="-3.28729">
        <ele>20</ele>
        <time>2011-02-20T09:07:58Z</time>
      </trkpt>
      <trkpt lat="48.75766" lon="-3.28882">
        <ele>20</ele>
        <time>2011-02-20T09:08:12Z</time>
      </trkpt>
      <trkpt lat="48.75768" lon="-3.28893">
        <ele>20</ele>
        <time>2011-02-20T09:08:13Z</time>
      </trkpt>
      <trkpt lat="48.75771" lon="-3.28904">
        <ele>20</ele>
        <time>2011-02-20T09:08:14Z</time>
      </trkpt>
      <trkpt lat="48.75773" lon="-3.28915">
        <ele>20</ele>
        <time>2011-02-20T09:08:15Z</time>
      </trkpt>
      <trkpt lat="48.75776" lon="-3.28926">
        <ele>20</ele>
        <time>2011-02-20T09:08:16Z</time>
      </trkpt>
      <trkpt lat="48.75778" lon="-3.28937">
        <ele>20</ele>
        <time>2011-02-20T09:08:17Z</time>
      </trkpt>
      <trkpt lat="48.75781" lon="-3.28947">
        <ele>20</ele>
        <time>2011-02-20T09:08:18Z</time>
      </trkpt>
      <trkpt lat="48.75784" lon="-3.28957">
        <ele>20</ele>
        <time>2011-02-20T09:08:19Z</time>
      </trkpt>
      <trkpt lat="48.75787" lon="-3.28967">
        <ele>20</ele>
        <time>2011-02-20T09:08:20Z</time>
      </trkpt>
      <trkpt lat="48.7579" lon="-3.28976">
        <ele>20</ele>
        <time>2011-02-20T09:08:21Z</time>
      </trkpt>
      <trkpt lat="48.75793" lon="-3.28986">
        <ele>20</ele>
        <time>2011-02-20T09:08:22Z</time>
      </trkpt>
      <trkpt lat="48.75796" lon="-3.28995">
        <ele>20</ele>
        <time>2011-02-20T09:08:23Z</time>
      </trkpt>
      <trkpt lat="48.758" lon="-3.29005">
        <ele>20</ele>
        <time>2011-02-20T09:08:24Z</time>
      </trkpt>
      <trkpt lat="48.75803" lon="-3.29014">
        <ele>20</ele>
        <time>2011-02-20T09:08:25Z</time>
      </trkpt>
      <trkpt lat="48.75806" lon="-3.29024">
        <ele>20</ele>
        <time>2011-02-20T09:08:26Z</time>
      </trkpt>
      <trkpt lat="48.75809" lon="-3.29032">
        <ele>20</ele>
        <time>2011-02-20T09:08:27Z</time>
      </trkpt>
      <trkpt lat="48.75813" lon="-3.29041">
        <ele>20</ele>
        <time>2011-02-20T09:08:28Z</time>
      </trkpt>
      <trkpt lat="48.75817" lon="-3.2905">
        <ele>20</ele>
        <time>2011-02-20T09:08:29Z</time>
      </trkpt>
      <trkpt lat="48.75821" lon="-3.29059">
        <ele>20</ele>
        <time>2011-02-20T09:08:30Z</time>
      </trkpt>
      <trkpt lat="48.75825" lon="-3.29067">
        <ele>20</ele>
        <time>2011-02-20T09:08:31Z</time>
      </trkpt>
      <trkpt lat="48.7583" lon="-3.29076">
        <ele>20</ele>
        <time>2011-02-20T09:08:32Z</time>
      </trkpt>
      <trkpt lat="48.75834" lon="-3.29085">
        <ele>20</ele>
        <time>2011-02-20T09:08:33Z</time>
      </trkpt>
      <trkpt lat="48.75839" lon="-3.29094">
        <ele>20</ele>
        <time>2011-02-20T09:08:34Z</time>
      </trkpt>
      <trkpt lat="48.75844" lon="-3.29103">
        <ele>20</ele>
        <time>2011-02-20T09:08:35Z</time>
      </trkpt>
      <trkpt lat="48.75849" lon="-3.29112">
        <ele>20</ele>
        <time>2011-02-20T09:08:36Z</time>
      </trkpt>
      <trkpt lat="48.75854" lon="-3.29121">
        <ele>20</ele>
        <time>2011-02-20T09:08:37Z</time>
      </trkpt>
      <trkpt lat="48.75859" lon="-3.29129">
        <ele>20</ele>
        <time>2011-02-20T09:08:38Z</time>
      </trkpt>
      <trkpt lat="48.75864" lon="-3.29137">
        <ele>20</ele>
        <time>2011-02-20T09:08:39Z</time>
      </trkpt>
      <trkpt lat="48.75869" lon="-3.29145">
        <ele>20</ele>
        <time>2011-02-20T09:08:40Z</time>
      </trkpt>
      <trkpt lat="48.75875" lon="-3.29152">
        <ele>20</ele>
        <time>2011-02-20T09:08:41Z</time>
      </trkpt>
      <trkpt lat="48.7588" lon="-3.29159">
        <ele>20</ele>
        <time>2011-02-20T09:08:42Z</time>
      </trkpt>
      <trkpt lat="48.75885" lon="-3.29167">
        <ele>20</ele>
        <time>2011-02-20T09:08:43Z</time>
      </trkpt>
      <trkpt lat="48.75891" lon="-3.29174">
        <ele>20</ele>
        <time>2011-02-20T09:08:44Z</time>
      </trkpt>
      <trkpt lat="48.75896" lon="-3.29182">
        <ele>20</ele>
        <time>2011-02-20T09:08:45Z</time>
      </trkpt>
      <trkpt lat="48.75902" lon="-3.29188">
        <ele>20</ele>
        <time>2011-02-20T09:08:46Z</time>
      </trkpt>
      <trkpt lat="48.75908" lon="-3.29196">
        <ele>20</ele>
        <time>2011-02-20T09:08:47Z</time>
      </trkpt>
      <trkpt lat="48.75913" lon="-3.29203">
        <ele>20</ele>
        <time>2011-02-20T09:08:48Z</time>
      </trkpt>
      <trkpt lat="48.75919" lon="-3.29211">
        <ele>20</ele>
        <time>2011-02-20T09:08:49Z</time>
      </trkpt>
      <trkpt lat="48.75924" lon="-3.29218">
        <ele>20</ele>
        <time>2011-02-20T09:08:50Z</time>
      </trkpt>
      <trkpt lat="48.7593" lon="-3.29225">
        <ele>20</ele>
        <time>2011-02-20T09:08:51Z</time>
      </trkpt>
      <trkpt lat="48.75935" lon="-3.29233">
        <ele>20</ele>
        <time>2011-02-20T09:08:52Z</time>
      </trkpt>
      <trkpt lat="48.75941" lon="-3.2924">
        <ele>20</ele>
        <time>2011-02-20T09:08:53Z</time>
      </trkpt>
      <trkpt lat="48.75947" lon="-3.29248">
        <ele>20</ele>
        <time>2011-02-20T09:08:54Z</time>
      </trkpt>
      <trkpt lat="48.75953" lon="-3.29255">
        <ele>20</ele>
        <time>2011-02-20T09:08:55Z</time>
      </trkpt>
      <trkpt lat="48.75958" lon="-3.29262">
        <ele>20</ele>
        <time>2011-02-20T09:08:56Z</time>
      </trkpt>
      <trkpt lat="48.75964" lon="-3.29269">
        <ele>20</ele>
        <time>2011-02-20T09:08:57Z</time>
      </trkpt>
      <trkpt lat="48.75969" lon="-3.29276">
        <ele>20</ele>
        <time>2011-02-20T09:08:58Z</time>
      </trkpt>
      <trkpt lat="48.75975" lon="-3.29284">
        <ele>20</ele>
        <time>2011-02-20T09:08:59Z</time>
      </trkpt>
      <trkpt lat="48.7598" lon="-3.29291">
        <ele>20</ele>
        <time>2011-02-20T09:09:00Z</time>
      </trkpt>
      <trkpt lat="48.75986" lon="-3.29297">
        <ele>20</ele>
        <time>2011-02-20T09:09:01Z</time>
      </trkpt>
      <trkpt lat="48.75991" lon="-3.29304">
        <ele>20</ele>
        <time>2011-02-20T09:09:02Z</time>
      </trkpt>
      <trkpt lat="48.75997" lon="-3.2931">
        <ele>20</ele>
        <time>2011-02-20T09:09:03Z</time>
      </trkpt>
      <trkpt lat="48.76002" lon="-3.29315">
        <ele>20</ele>
        <time>2011-02-20T09:09:04Z</time>
      </trkpt>
      <trkpt lat="48.76007" lon="-3.29318">
        <ele>20</ele>
        <time>2011-02-20T09:09:05Z</time>
      </trkpt>
      <trkpt lat="48.76012" lon="-3.29321">
        <ele>20</ele>
        <time>2011-02-20T09:09:06Z</time>
      </trkpt>
      <trkpt lat="48.76017" lon="-3.29322">
        <ele>20</ele>
        <time>2011-02-20T09:09:07Z</time>
      </trkpt>
      <trkpt lat="48.76023" lon="-3.29323">
        <ele>20</ele>
        <time>2011-02-20T09:09:08Z</time>
      </trkpt>
      <trkpt lat="48.76028" lon="-3.29323">
        <ele>20</ele>
        <time>2011-02-20T09:09:09Z</time>
      </trkpt>
      <trkpt lat="48.76034" lon="-3.29323">
        <ele>20</ele>
        <time>2011-02-20T09:09:10Z</time>
      </trkpt>
      <trkpt lat="48.76039" lon="-3.29324">
        <ele>20</ele>
        <time>2011-02-20T09:09:11Z</time>
      </trkpt>
      <trkpt lat="48.76044" lon="-3.29326">
        <ele>20</ele>
        <time>2011-02-20T09:09:12Z</time>
      </trkpt>
      <trkpt lat="48.7605" lon="-3.29328">
        <ele>20</ele>
        <time>2011-02-20T09:09:13Z</time>
      </trkpt>
      <trkpt lat="48.76054" lon="-3.29333">
        <ele>20</ele>
        <time>2011-02-20T09:09:14Z</time>
      </trkpt>
      <trkpt lat="48.76059" lon="-3.29339">
        <ele>20</ele>
        <time>2011-02-20T09:09:15Z</time>
      </trkpt>
      <trkpt lat="48.76069" lon="-3.29408">
        <ele>20</ele>
        <time>2011-02-20T09:09:22Z</time>
      </trkpt>
      <trkpt lat="48.76071" lon="-3.2942">
        <ele>20</ele>
        <time>2011-02-20T09:09:23Z</time>
      </trkpt>
      <trkpt lat="48.76075" lon="-3.29432">
        <ele>20</ele>
        <time>2011-02-20T09:09:24Z</time>
      </trkpt>
      <trkpt lat="48.7608" lon="-3.29443">
        <ele>20</ele>
        <time>2011-02-20T09:09:25Z</time>
      </trkpt>
      <trkpt lat="48.76086" lon="-3.29453">
        <ele>20</ele>
        <time>2011-02-20T09:09:26Z</time>
      </trkpt>
      <trkpt lat="48.76093" lon="-3.29463">
        <ele>20</ele>
        <time>2011-02-20T09:09:27Z</time>
      </trkpt>
      <trkpt lat="48.76099" lon="-3.29472">
        <ele>20</ele>
        <time>2011-02-20T09:09:28Z</time>
      </trkpt>
      <trkpt lat="48.76106" lon="-3.29482">
        <ele>20</ele>
        <time>2011-02-20T09:09:29Z</time>
      </trkpt>
      <trkpt lat="48.76113" lon="-3.29491">
        <ele>20</ele>
        <time>2011-02-20T09:09:30Z</time>
      </trkpt>
      <trkpt lat="48.7612" lon="-3.295">
        <ele>20</ele>
        <time>2011-02-20T09:09:31Z</time>
      </trkpt>
      <trkpt lat="48.76127" lon="-3.29509">
        <ele>20</ele>
        <time>2011-02-20T09:09:32Z</time>
      </trkpt>
      <trkpt lat="48.76135" lon="-3.29518">
        <ele>20</ele>
        <time>2011-02-20T09:09:33Z</time>
      </trkpt>
      <trkpt lat="48.76142" lon="-3.29526">
        <ele>20</ele>
        <time>2011-02-20T09:09:34Z</time>
      </trkpt>
      <trkpt lat="48.76149" lon="-3.29536">
        <ele>20</ele>
        <time>2011-02-20T09:09:35Z</time>
      </trkpt>
      <trkpt lat="48.76157" lon="-3.29544">
        <ele>20</ele>
        <time>2011-02-20T09:09:36Z</time>
      </trkpt>
      <trkpt lat="48.76164" lon="-3.29553">
        <ele>20</ele>
        <time>2011-02-20T09:09:37Z</time>
      </trkpt>
      <trkpt lat="48.7617" lon="-3.29562">
        <ele>20</ele>
        <time>2011-02-20T09:09:38Z</time>
      </trkpt>
      <trkpt lat="48.76177" lon="-3.2957">
        <ele>20</ele>
        <time>2011-02-20T09:09:39Z</time>
      </trkpt>
      <trkpt lat="48.76184" lon="-3.29578">
        <ele>20</ele>
        <time>2011-02-20T09:09:40Z</time>
      </trkpt>
      <trkpt lat="48.7619" lon="-3.29587">
        <ele>20</ele>
        <time>2011-02-20T09:09:41Z</time>
      </trkpt>
      <trkpt lat="48.76197" lon="-3.29594">
        <ele>20</ele>
        <time>2011-02-20T09:09:42Z</time>
      </trkpt>
      <trkpt lat="48.76204" lon="-3.29602">
        <ele>20</ele>
        <time>2011-02-20T09:09:43Z</time>
      </trkpt>
      <trkpt lat="48.7621" lon="-3.2961">
        <ele>20</ele>
        <time>2011-02-20T09:09:44Z</time>
      </trkpt>
      <trkpt lat="48.76217" lon="-3.29617">
        <ele>20</ele>
        <time>2011-02-20T09:09:45Z</time>
      </trkpt>
      <trkpt lat="48.76223" lon="-3.29624">
        <ele>20</ele>
        <time>2011-02-20T09:09:46Z</time>
      </trkpt>
      <trkpt lat="48.7623" lon="-3.2963">
        <ele>20</ele>
        <time>2011-02-20T09:09:47Z</time>
      </trkpt>
      <trkpt lat="48.76237" lon="-3.29636">
        <ele>20</ele>
        <time>2011-02-20T09:09:48Z</time>
      </trkpt>
      <trkpt lat="48.76244" lon="-3.29641">
        <ele>20</ele>
        <time>2011-02-20T09:09:49Z</time>
      </trkpt>
      <trkpt lat="48.76252" lon="-3.29645">
        <ele>20</ele>
        <time>2011-02-20T09:09:50Z</time>
      </trkpt>
      <trkpt lat="48.76259" lon="-3.2965">
        <ele>20</ele>
        <time>2011-02-20T09:09:51Z</time>
      </trkpt>
      <trkpt lat="48.76266" lon="-3.29654">
        <ele>20</ele>
        <time>2011-02-20T09:09:52Z</time>
      </trkpt>
      <trkpt lat="48.76272" lon="-3.29658">
        <ele>20</ele>
        <time>2011-02-20T09:09:53Z</time>
      </trkpt>
      <trkpt lat="48.76279" lon="-3.29662">
        <ele>20</ele>
        <time>2011-02-20T09:09:54Z</time>
      </trkpt>
      <trkpt lat="48.76285" lon="-3.29665">
        <ele>20</ele>
        <time>2011-02-20T09:09:55Z</time>
      </trkpt>
      <trkpt lat="48.76291" lon="-3.29669">
        <ele>20</ele>
        <time>2011-02-20T09:09:56Z</time>
      </trkpt>
      <trkpt lat="48.76297" lon="-3.29672">
        <ele>20</ele>
        <time>2011-02-20T09:09:57Z</time>
      </trkpt>
      <trkpt lat="48.76303" lon="-3.29675">
        <ele>20</ele>
        <time>2011-02-20T09:09:58Z</time>
      </trkpt>
      <trkpt lat="48.76308" lon="-3.29678">
        <ele>20</ele>
        <time>2011-02-20T09:09:59Z</time>
      </trkpt>
      <trkpt lat="48.76313" lon="-3.29681">
        <ele>20</ele>
        <time>2011-02-20T09:10:00Z</time>
      </trkpt>
      <trkpt lat="48.76319" lon="-3.29684">
        <ele>20</ele>
        <time>2011-02-20T09:10:01Z</time>
      </trkpt>
      <trkpt lat="48.76324" lon="-3.29688">
        <ele>20</ele>
        <time>2011-02-20T09:10:02Z</time>
      </trkpt>
      <trkpt lat="48.76329" lon="-3.29691">
        <ele>20</ele>
        <time>2011-02-20T09:10:03Z</time>
      </trkpt>
      <trkpt lat="48.76334" lon="-3.29694">
        <ele>20</ele>
        <time>2011-02-20T09:10:04Z</time>
      </trkpt>
      <trkpt lat="48.76339" lon="-3.29697">
        <ele>20</ele>
        <time>2011-02-20T09:10:05Z</time>
      </trkpt>
      <trkpt lat="48.76344" lon="-3.297">
        <ele>20</ele>
        <time>2011-02-20T09:10:06Z</time>
      </trkpt>
      <trkpt lat="48.76348" lon="-3.29704">
        <ele>20</ele>
        <time>2011-02-20T09:10:07Z</time>
      </trkpt>
      <trkpt lat="48.76353" lon="-3.29708">
        <ele>20</ele>
        <time>2011-02-20T09:10:08Z</time>
      </trkpt>
      <trkpt lat="48.76358" lon="-3.29711">
        <ele>21</ele>
        <time>2011-02-20T09:10:09Z</time>
      </trkpt>
      <trkpt lat="48.76362" lon="-3.29715">
        <ele>21</ele>
        <time>2011-02-20T09:10:10Z</time>
      </trkpt>
      <trkpt lat="48.76366" lon="-3.29719">
        <ele>21</ele>
        <time>2011-02-20T09:10:11Z</time>
      </trkpt>
      <trkpt lat="48.76371" lon="-3.29724">
        <ele>21</ele>
        <time>2011-02-20T09:10:12Z</time>
      </trkpt>
      <trkpt lat="48.76375" lon="-3.29728">
        <ele>22</ele>
        <time>2011-02-20T09:10:13Z</time>
      </trkpt>
      <trkpt lat="48.76379" lon="-3.29732">
        <ele>22</ele>
        <time>2011-02-20T09:10:14Z</time>
      </trkpt>
      <trkpt lat="48.76383" lon="-3.29737">
        <ele>22</ele>
        <time>2011-02-20T09:10:15Z</time>
      </trkpt>
      <trkpt lat="48.76387" lon="-3.29743">
        <ele>23</ele>
        <time>2011-02-20T09:10:16Z</time>
      </trkpt>
      <trkpt lat="48.7639" lon="-3.29748">
        <ele>23</ele>
        <time>2011-02-20T09:10:17Z</time>
      </trkpt>
      <trkpt lat="48.76394" lon="-3.29753">
        <ele>23</ele>
        <time>2011-02-20T09:10:18Z</time>
      </trkpt>
      <trkpt lat="48.76397" lon="-3.29759">
        <ele>23</ele>
        <time>2011-02-20T09:10:19Z</time>
      </trkpt>
      <trkpt lat="48.76401" lon="-3.29764">
        <ele>24</ele>
        <time>2011-02-20T09:10:20Z</time>
      </trkpt>
      <trkpt lat="48.76404" lon="-3.2977">
        <ele>24</ele>
        <time>2011-02-20T09:10:21Z</time>
      </trkpt>
      <trkpt lat="48.76407" lon="-3.29776">
        <ele>24</ele>
        <time>2011-02-20T09:10:22Z</time>
      </trkpt>
      <trkpt lat="48.7641" lon="-3.29782">
        <ele>25</ele>
        <time>2011-02-20T09:10:23Z</time>
      </trkpt>
      <trkpt lat="48.76413" lon="-3.29788">
        <ele>25</ele>
        <time>2011-02-20T09:10:24Z</time>
      </trkpt>
      <trkpt lat="48.76416" lon="-3.29795">
        <ele>25</ele>
        <time>2011-02-20T09:10:25Z</time>
      </trkpt>
      <trkpt lat="48.76419" lon="-3.29801">
        <ele>25</ele>
        <time>2011-02-20T09:10:26Z</time>
      </trkpt>
      <trkpt lat="48.76422" lon="-3.29808">
        <ele>26</ele>
        <time>2011-02-20T09:10:27Z</time>
      </trkpt>
      <trkpt lat="48.76434" lon="-3.29849">
        <ele>27</ele>
        <time>2011-02-20T09:10:33Z</time>
      </trkpt>
      <trkpt lat="48.76439" lon="-3.2987">
        <ele>28</ele>
        <time>2011-02-20T09:10:36Z</time>
      </trkpt>
      <trkpt lat="48.7644" lon="-3.29877">
        <ele>28</ele>
        <time>2011-02-20T09:10:37Z</time>
      </trkpt>
      <trkpt lat="48.76442" lon="-3.29893">
        <ele>29</ele>
        <time>2011-02-20T09:10:39Z</time>
      </trkpt>
      <trkpt lat="48.76444" lon="-3.29908">
        <ele>30</ele>
        <time>2011-02-20T09:10:41Z</time>
      </trkpt>
      <trkpt lat="48.76464" lon="-3.30227">
        <ele>33</ele>
        <time>2011-02-20T09:11:16Z</time>
      </trkpt>
      <trkpt lat="48.76477" lon="-3.30347">
        <ele>35</ele>
        <time>2011-02-20T09:11:28Z</time>
      </trkpt>
      <trkpt lat="48.76481" lon="-3.30365">
        <ele>35</ele>
        <time>2011-02-20T09:11:30Z</time>
      </trkpt>
      <trkpt lat="48.76483" lon="-3.30374">
        <ele>36</ele>
        <time>2011-02-20T09:11:31Z</time>
      </trkpt>
      <trkpt lat="48.76485" lon="-3.30383">
        <ele>36</ele>
        <time>2011-02-20T09:11:32Z</time>
      </trkpt>
      <trkpt lat="48.76487" lon="-3.30392">
        <ele>36</ele>
        <time>2011-02-20T09:11:33Z</time>
      </trkpt>
      <trkpt lat="48.7649" lon="-3.304">
        <ele>37</ele>
        <time>2011-02-20T09:11:34Z</time>
      </trkpt>
      <trkpt lat="48.76492" lon="-3.30409">
        <ele>37</ele>
        <time>2011-02-20T09:11:35Z</time>
      </trkpt>
      <trkpt lat="48.76495" lon="-3.30417">
        <ele>37</ele>
        <time>2011-02-20T09:11:36Z</time>
      </trkpt>
      <trkpt lat="48.76498" lon="-3.30425">
        <ele>38</ele>
        <time>2011-02-20T09:11:37Z</time>
      </trkpt>
      <trkpt lat="48.765" lon="-3.30433">
        <ele>38</ele>
        <time>2011-02-20T09:11:38Z</time>
      </trkpt>
      <trkpt lat="48.76503" lon="-3.3044">
        <ele>38</ele>
        <time>2011-02-20T09:11:39Z</time>
      </trkpt>
      <trkpt lat="48.76506" lon="-3.30448">
        <ele>38</ele>
        <time>2011-02-20T09:11:40Z</time>
      </trkpt>
      <trkpt lat="48.76509" lon="-3.30455">
        <ele>39</ele>
        <time>2011-02-20T09:11:41Z</time>
      </trkpt>
      <trkpt lat="48.76513" lon="-3.30463">
        <ele>39</ele>
        <time>2011-02-20T09:11:42Z</time>
      </trkpt>
      <trkpt lat="48.76516" lon="-3.30469">
        <ele>39</ele>
        <time>2011-02-20T09:11:43Z</time>
      </trkpt>
      <trkpt lat="48.76519" lon="-3.30476">
        <ele>39</ele>
        <time>2011-02-20T09:11:44Z</time>
      </trkpt>
      <trkpt lat="48.76522" lon="-3.30483">
        <ele>40</ele>
        <time>2011-02-20T09:11:45Z</time>
      </trkpt>
      <trkpt lat="48.76526" lon="-3.3049">
        <ele>40</ele>
        <time>2011-02-20T09:11:46Z</time>
      </trkpt>
      <trkpt lat="48.76529" lon="-3.30497">
        <ele>40</ele>
        <time>2011-02-20T09:11:47Z</time>
      </trkpt>
      <trkpt lat="48.76532" lon="-3.30504">
        <ele>40</ele>
        <time>2011-02-20T09:11:48Z</time>
      </trkpt>
      <trkpt lat="48.76535" lon="-3.3051">
        <ele>41</ele>
        <time>2011-02-20T09:11:49Z</time>
      </trkpt>
      <trkpt lat="48.76538" lon="-3.30517">
        <ele>41</ele>
        <time>2011-02-20T09:11:50Z</time>
      </trkpt>
      <trkpt lat="48.76542" lon="-3.30524">
        <ele>41</ele>
        <time>2011-02-20T09:11:51Z</time>
      </trkpt>
      <trkpt lat="48.76545" lon="-3.30531">
        <ele>41</ele>
        <time>2011-02-20T09:11:52Z</time>
      </trkpt>
      <trkpt lat="48.76548" lon="-3.30538">
        <ele>42</ele>
        <time>2011-02-20T09:11:53Z</time>
      </trkpt>
      <trkpt lat="48.76551" lon="-3.30545">
        <ele>42</ele>
        <time>2011-02-20T09:11:54Z</time>
      </trkpt>
      <trkpt lat="48.76554" lon="-3.30552">
        <ele>42</ele>
        <time>2011-02-20T09:11:55Z</time>
      </trkpt>
      <trkpt lat="48.76557" lon="-3.30558">
        <ele>42</ele>
        <time>2011-02-20T09:11:56Z</time>
      </trkpt>
      <trkpt lat="48.76561" lon="-3.30565">
        <ele>43</ele>
        <time>2011-02-20T09:11:57Z</time>
      </trkpt>
      <trkpt lat="48.76564" lon="-3.30572">
        <ele>43</ele>
        <time>2011-02-20T09:11:58Z</time>
      </trkpt>
      <trkpt lat="48.76567" lon="-3.30578">
        <ele>43</ele>
        <time>2011-02-20T09:11:59Z</time>
      </trkpt>
      <trkpt lat="48.7657" lon="-3.30585">
        <ele>43</ele>
        <time>2011-02-20T09:12:00Z</time>
      </trkpt>
      <trkpt lat="48.76573" lon="-3.30592">
        <ele>44</ele>
        <time>2011-02-20T09:12:01Z</time>
      </trkpt>
      <trkpt lat="48.76576" lon="-3.30598">
        <ele>44</ele>
        <time>2011-02-20T09:12:02Z</time>
      </trkpt>
      <trkpt lat="48.76579" lon="-3.30605">
        <ele>44</ele>
        <time>2011-02-20T09:12:03Z</time>
      </trkpt>
      <trkpt lat="48.76582" lon="-3.30611">
        <ele>44</ele>
        <time>2011-02-20T09:12:04Z</time>
      </trkpt>
      <trkpt lat="48.76585" lon="-3.30618">
        <ele>44</ele>
        <time>2011-02-20T09:12:05Z</time>
      </trkpt>
      <trkpt lat="48.76588" lon="-3.30625">
        <ele>45</ele>
        <time>2011-02-20T09:12:06Z</time>
      </trkpt>
      <trkpt lat="48.76591" lon="-3.30631">
        <ele>45</ele>
        <time>2011-02-20T09:12:07Z</time>
      </trkpt>
      <trkpt lat="48.76594" lon="-3.30638">
        <ele>45</ele>
        <time>2011-02-20T09:12:08Z</time>
      </trkpt>
      <trkpt lat="48.76597" lon="-3.30644">
        <ele>46</ele>
        <time>2011-02-20T09:12:09Z</time>
      </trkpt>
      <trkpt lat="48.766" lon="-3.30651">
        <ele>46</ele>
        <time>2011-02-20T09:12:10Z</time>
      </trkpt>
      <trkpt lat="48.76603" lon="-3.30658">
        <ele>46</ele>
        <time>2011-02-20T09:12:11Z</time>
      </trkpt>
      <trkpt lat="48.76606" lon="-3.30664">
        <ele>46</ele>
        <time>2011-02-20T09:12:12Z</time>
      </trkpt>
      <trkpt lat="48.76609" lon="-3.3067">
        <ele>47</ele>
        <time>2011-02-20T09:12:13Z</time>
      </trkpt>
      <trkpt lat="48.76612" lon="-3.30677">
        <ele>47</ele>
        <time>2011-02-20T09:12:14Z</time>
      </trkpt>
      <trkpt lat="48.76615" lon="-3.30684">
        <ele>47</ele>
        <time>2011-02-20T09:12:15Z</time>
      </trkpt>
      <trkpt lat="48.76618" lon="-3.3069">
        <ele>47</ele>
        <time>2011-02-20T09:12:16Z</time>
      </trkpt>
      <trkpt lat="48.76621" lon="-3.30697">
        <ele>48</ele>
        <time>2011-02-20T09:12:17Z</time>
      </trkpt>
      <trkpt lat="48.76624" lon="-3.30703">
        <ele>48</ele>
        <time>2011-02-20T09:12:18Z</time>
      </trkpt>
      <trkpt lat="48.76627" lon="-3.3071">
        <ele>48</ele>
        <time>2011-02-20T09:12:19Z</time>
      </trkpt>
      <trkpt lat="48.7663" lon="-3.30716">
        <ele>49</ele>
        <time>2011-02-20T09:12:20Z</time>
      </trkpt>
      <trkpt lat="48.76633" lon="-3.30723">
        <ele>49</ele>
        <time>2011-02-20T09:12:21Z</time>
      </trkpt>
      <trkpt lat="48.76636" lon="-3.30729">
        <ele>49</ele>
        <time>2011-02-20T09:12:22Z</time>
      </trkpt>
      <trkpt lat="48.76639" lon="-3.30736">
        <ele>50</ele>
        <time>2011-02-20T09:12:23Z</time>
      </trkpt>
      <trkpt lat="48.76642" lon="-3.30742">
        <ele>50</ele>
        <time>2011-02-20T09:12:24Z</time>
      </trkpt>
      <trkpt lat="48.76645" lon="-3.30749">
        <ele>50</ele>
        <time>2011-02-20T09:12:25Z</time>
      </trkpt>
      <trkpt lat="48.76648" lon="-3.30755">
        <ele>51</ele>
        <time>2011-02-20T09:12:26Z</time>
      </trkpt>
      <trkpt lat="48.76651" lon="-3.30762">
        <ele>51</ele>
        <time>2011-02-20T09:12:27Z</time>
      </trkpt>
      <trkpt lat="48.76654" lon="-3.30768">
        <ele>51</ele>
        <time>2011-02-20T09:12:28Z</time>
      </trkpt>
      <trkpt lat="48.76657" lon="-3.30775">
        <ele>51</ele>
        <time>2011-02-20T09:12:29Z</time>
      </trkpt>
      <trkpt lat="48.7666" lon="-3.30782">
        <ele>52</ele>
        <time>2011-02-20T09:12:30Z</time>
      </trkpt>
      <trkpt lat="48.76662" lon="-3.30789">
        <ele>52</ele>
        <time>2011-02-20T09:12:31Z</time>
      </trkpt>
      <trkpt lat="48.76665" lon="-3.30796">
        <ele>52</ele>
        <time>2011-02-20T09:12:32Z</time>
      </trkpt>
      <trkpt lat="48.76667" lon="-3.30803">
        <ele>53</ele>
        <time>2011-02-20T09:12:33Z</time>
      </trkpt>
      <trkpt lat="48.7667" lon="-3.3081">
        <ele>53</ele>
        <time>2011-02-20T09:12:34Z</time>
      </trkpt>
      <trkpt lat="48.76675" lon="-3.30825">
        <ele>53</ele>
        <time>2011-02-20T09:12:36Z</time>
      </trkpt>
      <trkpt lat="48.76677" lon="-3.30832">
        <ele>54</ele>
        <time>2011-02-20T09:12:37Z</time>
      </trkpt>
      <trkpt lat="48.76679" lon="-3.3084">
        <ele>54</ele>
        <time>2011-02-20T09:12:38Z</time>
      </trkpt>
      <trkpt lat="48.76681" lon="-3.30848">
        <ele>54</ele>
        <time>2011-02-20T09:12:39Z</time>
      </trkpt>
      <trkpt lat="48.76686" lon="-3.30863">
        <ele>55</ele>
        <time>2011-02-20T09:12:41Z</time>
      </trkpt>
      <trkpt lat="48.76688" lon="-3.30871">
        <ele>55</ele>
        <time>2011-02-20T09:12:42Z</time>
      </trkpt>
      <trkpt lat="48.7669" lon="-3.30879">
        <ele>55</ele>
        <time>2011-02-20T09:12:43Z</time>
      </trkpt>
      <trkpt lat="48.76692" lon="-3.30887">
        <ele>55</ele>
        <time>2011-02-20T09:12:44Z</time>
      </trkpt>
      <trkpt lat="48.76694" lon="-3.30895">
        <ele>55</ele>
        <time>2011-02-20T09:12:45Z</time>
      </trkpt>
      <trkpt lat="48.76697" lon="-3.30903">
        <ele>56</ele>
        <time>2011-02-20T09:12:46Z</time>
      </trkpt>
      <trkpt lat="48.76701" lon="-3.30919">
        <ele>56</ele>
        <time>2011-02-20T09:12:48Z</time>
      </trkpt>
      <trkpt lat="48.76703" lon="-3.30927">
        <ele>56</ele>
        <time>2011-02-20T09:12:49Z</time>
      </trkpt>
      <trkpt lat="48.76706" lon="-3.30935">
        <ele>56</ele>
        <time>2011-02-20T09:12:50Z</time>
      </trkpt>
      <trkpt lat="48.76708" lon="-3.30943">
        <ele>57</ele>
        <time>2011-02-20T09:12:51Z</time>
      </trkpt>
      <trkpt lat="48.7671" lon="-3.30951">
        <ele>57</ele>
        <time>2011-02-20T09:12:52Z</time>
      </trkpt>
      <trkpt lat="48.76712" lon="-3.3096">
        <ele>57</ele>
        <time>2011-02-20T09:12:53Z</time>
      </trkpt>
      <trkpt lat="48.76715" lon="-3.30967">
        <ele>57</ele>
        <time>2011-02-20T09:12:54Z</time>
      </trkpt>
      <trkpt lat="48.76717" lon="-3.30976">
        <ele>57</ele>
        <time>2011-02-20T09:12:55Z</time>
      </trkpt>
      <trkpt lat="48.76719" lon="-3.30984">
        <ele>57</ele>
        <time>2011-02-20T09:12:56Z</time>
      </trkpt>
      <trkpt lat="48.76722" lon="-3.30992">
        <ele>57</ele>
        <time>2011-02-20T09:12:57Z</time>
      </trkpt>
      <trkpt lat="48.76724" lon="-3.31">
        <ele>57</ele>
        <time>2011-02-20T09:12:58Z</time>
      </trkpt>
      <trkpt lat="48.76726" lon="-3.31009">
        <ele>57</ele>
        <time>2011-02-20T09:12:59Z</time>
      </trkpt>
      <trkpt lat="48.76728" lon="-3.31017">
        <ele>57</ele>
        <time>2011-02-20T09:13:00Z</time>
      </trkpt>
      <trkpt lat="48.76731" lon="-3.31025">
        <ele>57</ele>
        <time>2011-02-20T09:13:01Z</time>
      </trkpt>
      <trkpt lat="48.76733" lon="-3.31033">
        <ele>57</ele>
        <time>2011-02-20T09:13:02Z</time>
      </trkpt>
      <trkpt lat="48.76736" lon="-3.31042">
        <ele>58</ele>
        <time>2011-02-20T09:13:03Z</time>
      </trkpt>
      <trkpt lat="48.76738" lon="-3.3105">
        <ele>58</ele>
        <time>2011-02-20T09:13:04Z</time>
      </trkpt>
      <trkpt lat="48.7674" lon="-3.31059">
        <ele>58</ele>
        <time>2011-02-20T09:13:05Z</time>
      </trkpt>
      <trkpt lat="48.76743" lon="-3.31067">
        <ele>58</ele>
        <time>2011-02-20T09:13:06Z</time>
      </trkpt>
      <trkpt lat="48.76745" lon="-3.31075">
        <ele>58</ele>
        <time>2011-02-20T09:13:07Z</time>
      </trkpt>
      <trkpt lat="48.76747" lon="-3.31084">
        <ele>58</ele>
        <time>2011-02-20T09:13:08Z</time>
      </trkpt>
      <trkpt lat="48.7675" lon="-3.31092">
        <ele>58</ele>
        <time>2011-02-20T09:13:09Z</time>
      </trkpt>
      <trkpt lat="48.76752" lon="-3.31101">
        <ele>58</ele>
        <time>2011-02-20T09:13:10Z</time>
      </trkpt>
      <trkpt lat="48.76754" lon="-3.31109">
        <ele>58</ele>
        <time>2011-02-20T09:13:11Z</time>
      </trkpt>
      <trkpt lat="48.76757" lon="-3.31117">
        <ele>58</ele>
        <time>2011-02-20T09:13:12Z</time>
      </trkpt>
      <trkpt lat="48.76759" lon="-3.31126">
        <ele>58</ele>
        <time>2011-02-20T09:13:13Z</time>
      </trkpt>
      <trkpt lat="48.76762" lon="-3.31134">
        <ele>58</ele>
        <time>2011-02-20T09:13:14Z</time>
      </trkpt>
      <trkpt lat="48.76764" lon="-3.31142">
        <ele>58</ele>
        <time>2011-02-20T09:13:15Z</time>
      </trkpt>
      <trkpt lat="48.76766" lon="-3.31151">
        <ele>58</ele>
        <time>2011-02-20T09:13:16Z</time>
      </trkpt>
      <trkpt lat="48.76769" lon="-3.31159">
        <ele>58</ele>
        <time>2011-02-20T09:13:17Z</time>
      </trkpt>
      <trkpt lat="48.76771" lon="-3.31168">
        <ele>59</ele>
        <time>2011-02-20T09:13:18Z</time>
      </trkpt>
      <trkpt lat="48.76774" lon="-3.31176">
        <ele>59</ele>
        <time>2011-02-20T09:13:19Z</time>
      </trkpt>
      <trkpt lat="48.76776" lon="-3.31185">
        <ele>59</ele>
        <time>2011-02-20T09:13:20Z</time>
      </trkpt>
      <trkpt lat="48.76779" lon="-3.31193">
        <ele>59</ele>
        <time>2011-02-20T09:13:21Z</time>
      </trkpt>
      <trkpt lat="48.76781" lon="-3.31201">
        <ele>59</ele>
        <time>2011-02-20T09:13:22Z</time>
      </trkpt>
      <trkpt lat="48.76784" lon="-3.31209">
        <ele>59</ele>
        <time>2011-02-20T09:13:23Z</time>
      </trkpt>
      <trkpt lat="48.76786" lon="-3.31218">
        <ele>59</ele>
        <time>2011-02-20T09:13:24Z</time>
      </trkpt>
      <trkpt lat="48.76788" lon="-3.31226">
        <ele>59</ele>
        <time>2011-02-20T09:13:25Z</time>
      </trkpt>
      <trkpt lat="48.76791" lon="-3.31235">
        <ele>59</ele>
        <time>2011-02-20T09:13:26Z</time>
      </trkpt>
      <trkpt lat="48.76793" lon="-3.31243">
        <ele>59</ele>
        <time>2011-02-20T09:13:27Z</time>
      </trkpt>
      <trkpt lat="48.76796" lon="-3.31251">
        <ele>59</ele>
        <time>2011-02-20T09:13:28Z</time>
      </trkpt>
      <trkpt lat="48.76799" lon="-3.3126">
        <ele>59</ele>
        <time>2011-02-20T09:13:29Z</time>
      </trkpt>
      <trkpt lat="48.76801" lon="-3.31269">
        <ele>59</ele>
        <time>2011-02-20T09:13:30Z</time>
      </trkpt>
      <trkpt lat="48.76804" lon="-3.31277">
        <ele>59</ele>
        <time>2011-02-20T09:13:31Z</time>
      </trkpt>
      <trkpt lat="48.76806" lon="-3.31286">
        <ele>59</ele>
        <time>2011-02-20T09:13:32Z</time>
      </trkpt>
      <trkpt lat="48.76809" lon="-3.31295">
        <ele>59</ele>
        <time>2011-02-20T09:13:33Z</time>
      </trkpt>
      <trkpt lat="48.76812" lon="-3.31304">
        <ele>59</ele>
        <time>2011-02-20T09:13:34Z</time>
      </trkpt>
      <trkpt lat="48.76814" lon="-3.31312">
        <ele>59</ele>
        <time>2011-02-20T09:13:35Z</time>
      </trkpt>
      <trkpt lat="48.76817" lon="-3.31321">
        <ele>59</ele>
        <time>2011-02-20T09:13:36Z</time>
      </trkpt>
      <trkpt lat="48.76819" lon="-3.3133">
        <ele>59</ele>
        <time>2011-02-20T09:13:37Z</time>
      </trkpt>
      <trkpt lat="48.76822" lon="-3.31338">
        <ele>59</ele>
        <time>2011-02-20T09:13:38Z</time>
      </trkpt>
      <trkpt lat="48.76825" lon="-3.31347">
        <ele>60</ele>
        <time>2011-02-20T09:13:39Z</time>
      </trkpt>
      <trkpt lat="48.76827" lon="-3.31355">
        <ele>60</ele>
        <time>2011-02-20T09:13:40Z</time>
      </trkpt>
      <trkpt lat="48.7683" lon="-3.31364">
        <ele>60</ele>
        <time>2011-02-20T09:13:41Z</time>
      </trkpt>
      <trkpt lat="48.76832" lon="-3.31372">
        <ele>60</ele>
        <time>2011-02-20T09:13:42Z</time>
      </trkpt>
      <trkpt lat="48.76835" lon="-3.31381">
        <ele>60</ele>
        <time>2011-02-20T09:13:43Z</time>
      </trkpt>
      <trkpt lat="48.76837" lon="-3.31389">
        <ele>60</ele>
        <time>2011-02-20T09:13:44Z</time>
      </trkpt>
      <trkpt lat="48.7684" lon="-3.31398">
        <ele>60</ele>
        <time>2011-02-20T09:13:45Z</time>
      </trkpt>
      <trkpt lat="48.76842" lon="-3.31407">
        <ele>60</ele>
        <time>2011-02-20T09:13:46Z</time>
      </trkpt>
      <trkpt lat="48.76845" lon="-3.31416">
        <ele>60</ele>
        <time>2011-02-20T09:13:47Z</time>
      </trkpt>
      <trkpt lat="48.76847" lon="-3.31425">
        <ele>60</ele>
        <time>2011-02-20T09:13:48Z</time>
      </trkpt>
      <trkpt lat="48.76849" lon="-3.31434">
        <ele>60</ele>
        <time>2011-02-20T09:13:49Z</time>
      </trkpt>
      <trkpt lat="48.76854" lon="-3.31452">
        <ele>61</ele>
        <time>2011-02-20T09:13:51Z</time>
      </trkpt>
      <trkpt lat="48.76861" lon="-3.31489">
        <ele>61</ele>
        <time>2011-02-20T09:13:55Z</time>
      </trkpt>
      <trkpt lat="48.76867" lon="-3.31527">
        <ele>62</ele>
        <time>2011-02-20T09:13:59Z</time>
      </trkpt>
      <trkpt lat="48.76868" lon="-3.31538">
        <ele>62</ele>
        <time>2011-02-20T09:14:00Z</time>
      </trkpt>
      <trkpt lat="48.76874" lon="-3.31783">
        <ele>64</ele>
        <time>2011-02-20T09:14:25Z</time>
      </trkpt>
      <trkpt lat="48.76873" lon="-3.32433">
        <ele>71</ele>
        <time>2011-02-20T09:15:32Z</time>
      </trkpt>
      <trkpt lat="48.76874" lon="-3.32442">
        <ele>71</ele>
        <time>2011-02-20T09:15:33Z</time>
      </trkpt>
      <trkpt lat="48.7688" lon="-3.32488">
        <ele>72</ele>
        <time>2011-02-20T09:15:38Z</time>
      </trkpt>
      <trkpt lat="48.76883" lon="-3.32516">
        <ele>73</ele>
        <time>2011-02-20T09:15:41Z</time>
      </trkpt>
      <trkpt lat="48.76894" lon="-3.32597">
        <ele>76</ele>
        <time>2011-02-20T09:15:50Z</time>
      </trkpt>
      <trkpt lat="48.76896" lon="-3.32606">
        <ele>76</ele>
        <time>2011-02-20T09:15:51Z</time>
      </trkpt>
      <trkpt lat="48.76901" lon="-3.32641">
        <ele>77</ele>
        <time>2011-02-20T09:15:55Z</time>
      </trkpt>
      <trkpt lat="48.76908" lon="-3.32695">
        <ele>78</ele>
        <time>2011-02-20T09:16:01Z</time>
      </trkpt>
      <trkpt lat="48.7691" lon="-3.32705">
        <ele>78</ele>
        <time>2011-02-20T09:16:02Z</time>
      </trkpt>
      <trkpt lat="48.76922" lon="-3.328">
        <ele>80</ele>
        <time>2011-02-20T09:16:12Z</time>
      </trkpt>
      <trkpt lat="48.76928" lon="-3.32835">
        <ele>81</ele>
        <time>2011-02-20T09:16:16Z</time>
      </trkpt>
      <trkpt lat="48.76929" lon="-3.32844">
        <ele>81</ele>
        <time>2011-02-20T09:16:17Z</time>
      </trkpt>
      <trkpt lat="48.76932" lon="-3.32863">
        <ele>81</ele>
        <time>2011-02-20T09:16:19Z</time>
      </trkpt>
      <trkpt lat="48.7694" lon="-3.3292">
        <ele>81</ele>
        <time>2011-02-20T09:16:25Z</time>
      </trkpt>
      <trkpt lat="48.76945" lon="-3.32958">
        <ele>82</ele>
        <time>2011-02-20T09:16:29Z</time>
      </trkpt>
      <trkpt lat="48.76947" lon="-3.32967">
        <ele>82</ele>
        <time>2011-02-20T09:16:30Z</time>
      </trkpt>
      <trkpt lat="48.76954" lon="-3.33017">
        <ele>82</ele>
        <time>2011-02-20T09:16:35Z</time>
      </trkpt>
      <trkpt lat="48.76983" lon="-3.33219">
        <ele>82</ele>
        <time>2011-02-20T09:16:54Z</time>
      </trkpt>
      <trkpt lat="48.76989" lon="-3.33261">
        <ele>82</ele>
        <time>2011-02-20T09:16:58Z</time>
      </trkpt>
      <trkpt lat="48.76997" lon="-3.33323">
        <ele>83</ele>
        <time>2011-02-20T09:17:04Z</time>
      </trkpt>
      <trkpt lat="48.76997" lon="-3.33334">
        <ele>83</ele>
        <time>2011-02-20T09:17:05Z</time>
      </trkpt>
      <trkpt lat="48.77" lon="-3.33355">
        <ele>83</ele>
        <time>2011-02-20T09:17:07Z</time>
      </trkpt>
      <trkpt lat="48.76986" lon="-3.34522">
        <ele>95</ele>
        <time>2011-02-20T09:19:00Z</time>
      </trkpt>
      <trkpt lat="48.76982" lon="-3.34552">
        <ele>95</ele>
        <time>2011-02-20T09:19:03Z</time>
      </trkpt>
      <trkpt lat="48.76978" lon="-3.34582">
        <ele>95</ele>
        <time>2011-02-20T09:19:06Z</time>
      </trkpt>
      <trkpt lat="48.76971" lon="-3.34642">
        <ele>95</ele>
        <time>2011-02-20T09:19:12Z</time>
      </trkpt>
      <trkpt lat="48.76966" lon="-3.34674">
        <ele>95</ele>
        <time>2011-02-20T09:19:15Z</time>
      </trkpt>
      <trkpt lat="48.76965" lon="-3.34684">
        <ele>95</ele>
        <time>2011-02-20T09:19:16Z</time>
      </trkpt>
      <trkpt lat="48.76954" lon="-3.34767">
        <ele>96</ele>
        <time>2011-02-20T09:19:24Z</time>
      </trkpt>
      <trkpt lat="48.76949" lon="-3.34799">
        <ele>96</ele>
        <time>2011-02-20T09:19:27Z</time>
      </trkpt>
      <trkpt lat="48.76948" lon="-3.3481">
        <ele>96</ele>
        <time>2011-02-20T09:19:28Z</time>
      </trkpt>
      <trkpt lat="48.76937" lon="-3.34896">
        <ele>96</ele>
        <time>2011-02-20T09:19:36Z</time>
      </trkpt>
      <trkpt lat="48.76933" lon="-3.34929">
        <ele>96</ele>
        <time>2011-02-20T09:19:39Z</time>
      </trkpt>
      <trkpt lat="48.76928" lon="-3.34963">
        <ele>96</ele>
        <time>2011-02-20T09:19:42Z</time>
      </trkpt>
      <trkpt lat="48.76921" lon="-3.35019">
        <ele>96</ele>
        <time>2011-02-20T09:19:47Z</time>
      </trkpt>
      <trkpt lat="48.76913" lon="-3.35084">
        <ele>96</ele>
        <time>2011-02-20T09:19:53Z</time>
      </trkpt>
      <trkpt lat="48.76907" lon="-3.35128">
        <ele>96</ele>
        <time>2011-02-20T09:19:57Z</time>
      </trkpt>
      <trkpt lat="48.76895" lon="-3.35219">
        <ele>96</ele>
        <time>2011-02-20T09:20:05Z</time>
      </trkpt>
      <trkpt lat="48.76882" lon="-3.35314">
        <ele>96</ele>
        <time>2011-02-20T09:20:13Z</time>
      </trkpt>
      <trkpt lat="48.76859" lon="-3.3548">
        <ele>96</ele>
        <time>2011-02-20T09:20:27Z</time>
      </trkpt>
      <trkpt lat="48.76855" lon="-3.35517">
        <ele>96</ele>
        <time>2011-02-20T09:20:30Z</time>
      </trkpt>
      <trkpt lat="48.76851" lon="-3.35552">
        <ele>96</ele>
        <time>2011-02-20T09:20:33Z</time>
      </trkpt>
      <trkpt lat="48.76857" lon="-3.35753">
        <ele>96</ele>
        <time>2011-02-20T09:20:51Z</time>
      </trkpt>
      <trkpt lat="48.76859" lon="-3.35764">
        <ele>96</ele>
        <time>2011-02-20T09:20:52Z</time>
      </trkpt>
      <trkpt lat="48.76861" lon="-3.35773">
        <ele>96</ele>
        <time>2011-02-20T09:20:53Z</time>
      </trkpt>
      <trkpt lat="48.76863" lon="-3.35784">
        <ele>96</ele>
        <time>2011-02-20T09:20:54Z</time>
      </trkpt>
      <trkpt lat="48.76866" lon="-3.35794">
        <ele>96</ele>
        <time>2011-02-20T09:20:55Z</time>
      </trkpt>
      <trkpt lat="48.76868" lon="-3.35804">
        <ele>96</ele>
        <time>2011-02-20T09:20:56Z</time>
      </trkpt>
      <trkpt lat="48.76871" lon="-3.35814">
        <ele>96</ele>
        <time>2011-02-20T09:20:57Z</time>
      </trkpt>
      <trkpt lat="48.76873" lon="-3.35824">
        <ele>96</ele>
        <time>2011-02-20T09:20:58Z</time>
      </trkpt>
      <trkpt lat="48.76876" lon="-3.35834">
        <ele>96</ele>
        <time>2011-02-20T09:20:59Z</time>
      </trkpt>
      <trkpt lat="48.76878" lon="-3.35844">
        <ele>96</ele>
        <time>2011-02-20T09:21:00Z</time>
      </trkpt>
      <trkpt lat="48.76881" lon="-3.35854">
        <ele>96</ele>
        <time>2011-02-20T09:21:01Z</time>
      </trkpt>
      <trkpt lat="48.76883" lon="-3.35864">
        <ele>96</ele>
        <time>2011-02-20T09:21:02Z</time>
      </trkpt>
      <trkpt lat="48.76886" lon="-3.35874">
        <ele>96</ele>
        <time>2011-02-20T09:21:03Z</time>
      </trkpt>
      <trkpt lat="48.76889" lon="-3.35884">
        <ele>96</ele>
        <time>2011-02-20T09:21:04Z</time>
      </trkpt>
      <trkpt lat="48.76891" lon="-3.35894">
        <ele>97</ele>
        <time>2011-02-20T09:21:05Z</time>
      </trkpt>
      <trkpt lat="48.76894" lon="-3.35904">
        <ele>97</ele>
        <time>2011-02-20T09:21:06Z</time>
      </trkpt>
      <trkpt lat="48.76896" lon="-3.35914">
        <ele>97</ele>
        <time>2011-02-20T09:21:07Z</time>
      </trkpt>
      <trkpt lat="48.76898" lon="-3.35923">
        <ele>97</ele>
        <time>2011-02-20T09:21:08Z</time>
      </trkpt>
      <trkpt lat="48.76901" lon="-3.35933">
        <ele>97</ele>
        <time>2011-02-20T09:21:09Z</time>
      </trkpt>
      <trkpt lat="48.76903" lon="-3.35943">
        <ele>98</ele>
        <time>2011-02-20T09:21:10Z</time>
      </trkpt>
      <trkpt lat="48.76906" lon="-3.35953">
        <ele>98</ele>
        <time>2011-02-20T09:21:11Z</time>
      </trkpt>
      <trkpt lat="48.76908" lon="-3.35963">
        <ele>98</ele>
        <time>2011-02-20T09:21:12Z</time>
      </trkpt>
      <trkpt lat="48.76911" lon="-3.35972">
        <ele>98</ele>
        <time>2011-02-20T09:21:13Z</time>
      </trkpt>
      <trkpt lat="48.76913" lon="-3.35982">
        <ele>98</ele>
        <time>2011-02-20T09:21:14Z</time>
      </trkpt>
      <trkpt lat="48.76916" lon="-3.35992">
        <ele>98</ele>
        <time>2011-02-20T09:21:15Z</time>
      </trkpt>
      <trkpt lat="48.76918" lon="-3.36002">
        <ele>98</ele>
        <time>2011-02-20T09:21:16Z</time>
      </trkpt>
      <trkpt lat="48.76921" lon="-3.36012">
        <ele>98</ele>
        <time>2011-02-20T09:21:17Z</time>
      </trkpt>
      <trkpt lat="48.76923" lon="-3.36022">
        <ele>98</ele>
        <time>2011-02-20T09:21:18Z</time>
      </trkpt>
      <trkpt lat="48.76926" lon="-3.36032">
        <ele>98</ele>
        <time>2011-02-20T09:21:19Z</time>
      </trkpt>
      <trkpt lat="48.76931" lon="-3.36052">
        <ele>99</ele>
        <time>2011-02-20T09:21:21Z</time>
      </trkpt>
      <trkpt lat="48.76933" lon="-3.36061">
        <ele>99</ele>
        <time>2011-02-20T09:21:22Z</time>
      </trkpt>
      <trkpt lat="48.76935" lon="-3.36071">
        <ele>99</ele>
        <time>2011-02-20T09:21:23Z</time>
      </trkpt>
      <trkpt lat="48.76937" lon="-3.36082">
        <ele>99</ele>
        <time>2011-02-20T09:21:24Z</time>
      </trkpt>
      <trkpt lat="48.76939" lon="-3.36091">
        <ele>99</ele>
        <time>2011-02-20T09:21:25Z</time>
      </trkpt>
      <trkpt lat="48.76942" lon="-3.36101">
        <ele>99</ele>
        <time>2011-02-20T09:21:26Z</time>
      </trkpt>
      <trkpt lat="48.76945" lon="-3.36111">
        <ele>99</ele>
        <time>2011-02-20T09:21:27Z</time>
      </trkpt>
      <trkpt lat="48.76948" lon="-3.36121">
        <ele>99</ele>
        <time>2011-02-20T09:21:28Z</time>
      </trkpt>
      <trkpt lat="48.76951" lon="-3.36132">
        <ele>99</ele>
        <time>2011-02-20T09:21:29Z</time>
      </trkpt>
      <trkpt lat="48.76955" lon="-3.36142">
        <ele>99</ele>
        <time>2011-02-20T09:21:30Z</time>
      </trkpt>
      <trkpt lat="48.76958" lon="-3.36152">
        <ele>99</ele>
        <time>2011-02-20T09:21:31Z</time>
      </trkpt>
      <trkpt lat="48.76962" lon="-3.36162">
        <ele>99</ele>
        <time>2011-02-20T09:21:32Z</time>
      </trkpt>
      <trkpt lat="48.76966" lon="-3.36172">
        <ele>99</ele>
        <time>2011-02-20T09:21:33Z</time>
      </trkpt>
      <trkpt lat="48.76971" lon="-3.36182">
        <ele>99</ele>
        <time>2011-02-20T09:21:34Z</time>
      </trkpt>
      <trkpt lat="48.76975" lon="-3.36192">
        <ele>99</ele>
        <time>2011-02-20T09:21:35Z</time>
      </trkpt>
      <trkpt lat="48.7698" lon="-3.36201">
        <ele>99</ele>
        <time>2011-02-20T09:21:36Z</time>
      </trkpt>
      <trkpt lat="48.76984" lon="-3.36211">
        <ele>99</ele>
        <time>2011-02-20T09:21:37Z</time>
      </trkpt>
      <trkpt lat="48.76989" lon="-3.3622">
        <ele>99</ele>
        <time>2011-02-20T09:21:38Z</time>
      </trkpt>
      <trkpt lat="48.76994" lon="-3.3623">
        <ele>99</ele>
        <time>2011-02-20T09:21:39Z</time>
      </trkpt>
      <trkpt lat="48.77" lon="-3.36239">
        <ele>100</ele>
        <time>2011-02-20T09:21:40Z</time>
      </trkpt>
      <trkpt lat="48.77005" lon="-3.36248">
        <ele>100</ele>
        <time>2011-02-20T09:21:41Z</time>
      </trkpt>
      <trkpt lat="48.7701" lon="-3.36257">
        <ele>100</ele>
        <time>2011-02-20T09:21:42Z</time>
      </trkpt>
      <trkpt lat="48.77015" lon="-3.36266">
        <ele>100</ele>
        <time>2011-02-20T09:21:43Z</time>
      </trkpt>
      <trkpt lat="48.77021" lon="-3.36275">
        <ele>100</ele>
        <time>2011-02-20T09:21:44Z</time>
      </trkpt>
      <trkpt lat="48.77026" lon="-3.36284">
        <ele>100</ele>
        <time>2011-02-20T09:21:45Z</time>
      </trkpt>
      <trkpt lat="48.77031" lon="-3.36294">
        <ele>100</ele>
        <time>2011-02-20T09:21:46Z</time>
      </trkpt>
      <trkpt lat="48.77037" lon="-3.36303">
        <ele>100</ele>
        <time>2011-02-20T09:21:47Z</time>
      </trkpt>
      <trkpt lat="48.77042" lon="-3.36312">
        <ele>100</ele>
        <time>2011-02-20T09:21:48Z</time>
      </trkpt>
      <trkpt lat="48.77047" lon="-3.36322">
        <ele>100</ele>
        <time>2011-02-20T09:21:49Z</time>
      </trkpt>
      <trkpt lat="48.77053" lon="-3.36331">
        <ele>100</ele>
        <time>2011-02-20T09:21:50Z</time>
      </trkpt>
      <trkpt lat="48.77058" lon="-3.36341">
        <ele>100</ele>
        <time>2011-02-20T09:21:51Z</time>
      </trkpt>
      <trkpt lat="48.77064" lon="-3.36351">
        <ele>100</ele>
        <time>2011-02-20T09:21:52Z</time>
      </trkpt>
      <trkpt lat="48.7707" lon="-3.36361">
        <ele>100</ele>
        <time>2011-02-20T09:21:53Z</time>
      </trkpt>
      <trkpt lat="48.77075" lon="-3.3637">
        <ele>100</ele>
        <time>2011-02-20T09:21:54Z</time>
      </trkpt>
      <trkpt lat="48.77081" lon="-3.3638">
        <ele>100</ele>
        <time>2011-02-20T09:21:55Z</time>
      </trkpt>
      <trkpt lat="48.77086" lon="-3.3639">
        <ele>100</ele>
        <time>2011-02-20T09:21:56Z</time>
      </trkpt>
      <trkpt lat="48.77092" lon="-3.36399">
        <ele>100</ele>
        <time>2011-02-20T09:21:57Z</time>
      </trkpt>
      <trkpt lat="48.77097" lon="-3.36408">
        <ele>100</ele>
        <time>2011-02-20T09:21:58Z</time>
      </trkpt>
      <trkpt lat="48.77102" lon="-3.36418">
        <ele>100</ele>
        <time>2011-02-20T09:21:59Z</time>
      </trkpt>
      <trkpt lat="48.77108" lon="-3.36427">
        <ele>100</ele>
        <time>2011-02-20T09:22:00Z</time>
      </trkpt>
      <trkpt lat="48.77113" lon="-3.36436">
        <ele>100</ele>
        <time>2011-02-20T09:22:01Z</time>
      </trkpt>
      <trkpt lat="48.77118" lon="-3.36445">
        <ele>100</ele>
        <time>2011-02-20T09:22:02Z</time>
      </trkpt>
      <trkpt lat="48.77124" lon="-3.36455">
        <ele>100</ele>
        <time>2011-02-20T09:22:03Z</time>
      </trkpt>
      <trkpt lat="48.77129" lon="-3.36464">
        <ele>100</ele>
        <time>2011-02-20T09:22:04Z</time>
      </trkpt>
      <trkpt lat="48.77135" lon="-3.36474">
        <ele>100</ele>
        <time>2011-02-20T09:22:05Z</time>
      </trkpt>
      <trkpt lat="48.77141" lon="-3.36484">
        <ele>100</ele>
        <time>2011-02-20T09:22:06Z</time>
      </trkpt>
      <trkpt lat="48.77147" lon="-3.36494">
        <ele>100</ele>
        <time>2011-02-20T09:22:07Z</time>
      </trkpt>
      <trkpt lat="48.77152" lon="-3.36504">
        <ele>100</ele>
        <time>2011-02-20T09:22:08Z</time>
      </trkpt>
      <trkpt lat="48.77158" lon="-3.36514">
        <ele>100</ele>
        <time>2011-02-20T09:22:09Z</time>
      </trkpt>
      <trkpt lat="48.77164" lon="-3.36524">
        <ele>100</ele>
        <time>2011-02-20T09:22:10Z</time>
      </trkpt>
      <trkpt lat="48.7717" lon="-3.36535">
        <ele>100</ele>
        <time>2011-02-20T09:22:11Z</time>
      </trkpt>
      <trkpt lat="48.77176" lon="-3.36545">
        <ele>100</ele>
        <time>2011-02-20T09:22:12Z</time>
      </trkpt>
      <trkpt lat="48.77182" lon="-3.36556">
        <ele>100</ele>
        <time>2011-02-20T09:22:13Z</time>
      </trkpt>
      <trkpt lat="48.77188" lon="-3.36567">
        <ele>100</ele>
        <time>2011-02-20T09:22:14Z</time>
      </trkpt>
      <trkpt lat="48.77194" lon="-3.36578">
        <ele>100</ele>
        <time>2011-02-20T09:22:15Z</time>
      </trkpt>
      <trkpt lat="48.772" lon="-3.36589">
        <ele>100</ele>
        <time>2011-02-20T09:22:16Z</time>
      </trkpt>
      <trkpt lat="48.77207" lon="-3.366">
        <ele>100</ele>
        <time>2011-02-20T09:22:17Z</time>
      </trkpt>
      <trkpt lat="48.77213" lon="-3.36611">
        <ele>100</ele>
        <time>2011-02-20T09:22:18Z</time>
      </trkpt>
      <trkpt lat="48.7722" lon="-3.36623">
        <ele>100</ele>
        <time>2011-02-20T09:22:19Z</time>
      </trkpt>
      <trkpt lat="48.77226" lon="-3.36634">
        <ele>100</ele>
        <time>2011-02-20T09:22:20Z</time>
      </trkpt>
      <trkpt lat="48.77233" lon="-3.36646">
        <ele>100</ele>
        <time>2011-02-20T09:22:21Z</time>
      </trkpt>
      <trkpt lat="48.7724" lon="-3.36658">
        <ele>100</ele>
        <time>2011-02-20T09:22:22Z</time>
      </trkpt>
      <trkpt lat="48.77247" lon="-3.36669">
        <ele>100</ele>
        <time>2011-02-20T09:22:23Z</time>
      </trkpt>
      <trkpt lat="48.77254" lon="-3.36682">
        <ele>100</ele>
        <time>2011-02-20T09:22:24Z</time>
      </trkpt>
      <trkpt lat="48.77261" lon="-3.36694">
        <ele>99</ele>
        <time>2011-02-20T09:22:25Z</time>
      </trkpt>
      <trkpt lat="48.77268" lon="-3.36706">
        <ele>99</ele>
        <time>2011-02-20T09:22:26Z</time>
      </trkpt>
      <trkpt lat="48.77275" lon="-3.36719">
        <ele>99</ele>
        <time>2011-02-20T09:22:27Z</time>
      </trkpt>
      <trkpt lat="48.77282" lon="-3.36732">
        <ele>98</ele>
        <time>2011-02-20T09:22:28Z</time>
      </trkpt>
      <trkpt lat="48.77289" lon="-3.36744">
        <ele>98</ele>
        <time>2011-02-20T09:22:29Z</time>
      </trkpt>
      <trkpt lat="48.77296" lon="-3.36756">
        <ele>97</ele>
        <time>2011-02-20T09:22:30Z</time>
      </trkpt>
      <trkpt lat="48.77303" lon="-3.36769">
        <ele>97</ele>
        <time>2011-02-20T09:22:31Z</time>
      </trkpt>
      <trkpt lat="48.77309" lon="-3.36781">
        <ele>97</ele>
        <time>2011-02-20T09:22:32Z</time>
      </trkpt>
      <trkpt lat="48.77316" lon="-3.36793">
        <ele>96</ele>
        <time>2011-02-20T09:22:33Z</time>
      </trkpt>
      <trkpt lat="48.77323" lon="-3.36805">
        <ele>96</ele>
        <time>2011-02-20T09:22:34Z</time>
      </trkpt>
      <trkpt lat="48.7733" lon="-3.36816">
        <ele>96</ele>
        <time>2011-02-20T09:22:35Z</time>
      </trkpt>
      <trkpt lat="48.77337" lon="-3.36827">
        <ele>96</ele>
        <time>2011-02-20T09:22:36Z</time>
      </trkpt>
      <trkpt lat="48.77343" lon="-3.36839">
        <ele>96</ele>
        <time>2011-02-20T09:22:37Z</time>
      </trkpt>
      <trkpt lat="48.7735" lon="-3.3685">
        <ele>96</ele>
        <time>2011-02-20T09:22:38Z</time>
      </trkpt>
      <trkpt lat="48.77356" lon="-3.36861">
        <ele>96</ele>
        <time>2011-02-20T09:22:39Z</time>
      </trkpt>
      <trkpt lat="48.77362" lon="-3.36872">
        <ele>96</ele>
        <time>2011-02-20T09:22:40Z</time>
      </trkpt>
      <trkpt lat="48.77368" lon="-3.36883">
        <ele>96</ele>
        <time>2011-02-20T09:22:41Z</time>
      </trkpt>
      <trkpt lat="48.77374" lon="-3.36894">
        <ele>96</ele>
        <time>2011-02-20T09:22:42Z</time>
      </trkpt>
      <trkpt lat="48.7738" lon="-3.36905">
        <ele>96</ele>
        <time>2011-02-20T09:22:43Z</time>
      </trkpt>
      <trkpt lat="48.77386" lon="-3.36916">
        <ele>96</ele>
        <time>2011-02-20T09:22:44Z</time>
      </trkpt>
      <trkpt lat="48.77392" lon="-3.36927">
        <ele>96</ele>
        <time>2011-02-20T09:22:45Z</time>
      </trkpt>
      <trkpt lat="48.77397" lon="-3.36937">
        <ele>96</ele>
        <time>2011-02-20T09:22:46Z</time>
      </trkpt>
      <trkpt lat="48.77403" lon="-3.36948">
        <ele>96</ele>
        <time>2011-02-20T09:22:47Z</time>
      </trkpt>
      <trkpt lat="48.77408" lon="-3.36959">
        <ele>96</ele>
        <time>2011-02-20T09:22:48Z</time>
      </trkpt>
      <trkpt lat="48.77413" lon="-3.3697">
        <ele>96</ele>
        <time>2011-02-20T09:22:49Z</time>
      </trkpt>
      <trkpt lat="48.77418" lon="-3.3698">
        <ele>96</ele>
        <time>2011-02-20T09:22:50Z</time>
      </trkpt>
      <trkpt lat="48.77423" lon="-3.36991">
        <ele>96</ele>
        <time>2011-02-20T09:22:51Z</time>
      </trkpt>
      <trkpt lat="48.77428" lon="-3.37001">
        <ele>96</ele>
        <time>2011-02-20T09:22:52Z</time>
      </trkpt>
      <trkpt lat="48.77432" lon="-3.37012">
        <ele>96</ele>
        <time>2011-02-20T09:22:53Z</time>
      </trkpt>
      <trkpt lat="48.77437" lon="-3.37022">
        <ele>96</ele>
        <time>2011-02-20T09:22:54Z</time>
      </trkpt>
      <trkpt lat="48.77441" lon="-3.37033">
        <ele>96</ele>
        <time>2011-02-20T09:22:55Z</time>
      </trkpt>
      <trkpt lat="48.77446" lon="-3.37043">
        <ele>96</ele>
        <time>2011-02-20T09:22:56Z</time>
      </trkpt>
      <trkpt lat="48.7745" lon="-3.37054">
        <ele>96</ele>
        <time>2011-02-20T09:22:57Z</time>
      </trkpt>
      <trkpt lat="48.77455" lon="-3.37064">
        <ele>96</ele>
        <time>2011-02-20T09:22:58Z</time>
      </trkpt>
      <trkpt lat="48.77459" lon="-3.37074">
        <ele>96</ele>
        <time>2011-02-20T09:22:59Z</time>
      </trkpt>
      <trkpt lat="48.77463" lon="-3.37085">
        <ele>96</ele>
        <time>2011-02-20T09:23:00Z</time>
      </trkpt>
      <trkpt lat="48.77467" lon="-3.37096">
        <ele>96</ele>
        <time>2011-02-20T09:23:01Z</time>
      </trkpt>
      <trkpt lat="48.77472" lon="-3.37107">
        <ele>96</ele>
        <time>2011-02-20T09:23:02Z</time>
      </trkpt>
      <trkpt lat="48.77476" lon="-3.37118">
        <ele>96</ele>
        <time>2011-02-20T09:23:03Z</time>
      </trkpt>
      <trkpt lat="48.7748" lon="-3.3713">
        <ele>96</ele>
        <time>2011-02-20T09:23:04Z</time>
      </trkpt>
      <trkpt lat="48.77485" lon="-3.37141">
        <ele>96</ele>
        <time>2011-02-20T09:23:05Z</time>
      </trkpt>
      <trkpt lat="48.77489" lon="-3.37152">
        <ele>96</ele>
        <time>2011-02-20T09:23:06Z</time>
      </trkpt>
      <trkpt lat="48.77493" lon="-3.37163">
        <ele>96</ele>
        <time>2011-02-20T09:23:07Z</time>
      </trkpt>
      <trkpt lat="48.77497" lon="-3.37173">
        <ele>96</ele>
        <time>2011-02-20T09:23:08Z</time>
      </trkpt>
      <trkpt lat="48.77502" lon="-3.37184">
        <ele>96</ele>
        <time>2011-02-20T09:23:09Z</time>
      </trkpt>
      <trkpt lat="48.77506" lon="-3.37195">
        <ele>96</ele>
        <time>2011-02-20T09:23:10Z</time>
      </trkpt>
      <trkpt lat="48.7751" lon="-3.37206">
        <ele>96</ele>
        <time>2011-02-20T09:23:11Z</time>
      </trkpt>
      <trkpt lat="48.77514" lon="-3.37216">
        <ele>96</ele>
        <time>2011-02-20T09:23:12Z</time>
      </trkpt>
      <trkpt lat="48.77518" lon="-3.37228">
        <ele>96</ele>
        <time>2011-02-20T09:23:13Z</time>
      </trkpt>
      <trkpt lat="48.77523" lon="-3.37239">
        <ele>96</ele>
        <time>2011-02-20T09:23:14Z</time>
      </trkpt>
      <trkpt lat="48.77528" lon="-3.3725">
        <ele>96</ele>
        <time>2011-02-20T09:23:15Z</time>
      </trkpt>
      <trkpt lat="48.77532" lon="-3.37262">
        <ele>96</ele>
        <time>2011-02-20T09:23:16Z</time>
      </trkpt>
      <trkpt lat="48.77537" lon="-3.37274">
        <ele>96</ele>
        <time>2011-02-20T09:23:17Z</time>
      </trkpt>
      <trkpt lat="48.77542" lon="-3.37285">
        <ele>96</ele>
        <time>2011-02-20T09:23:18Z</time>
      </trkpt>
      <trkpt lat="48.77546" lon="-3.37297">
        <ele>96</ele>
        <time>2011-02-20T09:23:19Z</time>
      </trkpt>
      <trkpt lat="48.77551" lon="-3.37309">
        <ele>95</ele>
        <time>2011-02-20T09:23:20Z</time>
      </trkpt>
      <trkpt lat="48.77555" lon="-3.3732">
        <ele>95</ele>
        <time>2011-02-20T09:23:21Z</time>
      </trkpt>
      <trkpt lat="48.7756" lon="-3.37333">
        <ele>95</ele>
        <time>2011-02-20T09:23:22Z</time>
      </trkpt>
      <trkpt lat="48.77565" lon="-3.37345">
        <ele>94</ele>
        <time>2011-02-20T09:23:23Z</time>
      </trkpt>
      <trkpt lat="48.7757" lon="-3.37357">
        <ele>94</ele>
        <time>2011-02-20T09:23:24Z</time>
      </trkpt>
      <trkpt lat="48.77575" lon="-3.3737">
        <ele>93</ele>
        <time>2011-02-20T09:23:25Z</time>
      </trkpt>
      <trkpt lat="48.7758" lon="-3.37384">
        <ele>93</ele>
        <time>2011-02-20T09:23:26Z</time>
      </trkpt>
      <trkpt lat="48.77585" lon="-3.37397">
        <ele>92</ele>
        <time>2011-02-20T09:23:27Z</time>
      </trkpt>
      <trkpt lat="48.77591" lon="-3.37411">
        <ele>91</ele>
        <time>2011-02-20T09:23:28Z</time>
      </trkpt>
      <trkpt lat="48.77596" lon="-3.37425">
        <ele>91</ele>
        <time>2011-02-20T09:23:29Z</time>
      </trkpt>
      <trkpt lat="48.77602" lon="-3.37439">
        <ele>90</ele>
        <time>2011-02-20T09:23:30Z</time>
      </trkpt>
      <trkpt lat="48.77607" lon="-3.37453">
        <ele>89</ele>
        <time>2011-02-20T09:23:31Z</time>
      </trkpt>
      <trkpt lat="48.77613" lon="-3.37467">
        <ele>89</ele>
        <time>2011-02-20T09:23:32Z</time>
      </trkpt>
      <trkpt lat="48.77618" lon="-3.37482">
        <ele>88</ele>
        <time>2011-02-20T09:23:33Z</time>
      </trkpt>
      <trkpt lat="48.77624" lon="-3.37497">
        <ele>87</ele>
        <time>2011-02-20T09:23:34Z</time>
      </trkpt>
      <trkpt lat="48.7763" lon="-3.37511">
        <ele>87</ele>
        <time>2011-02-20T09:23:35Z</time>
      </trkpt>
      <trkpt lat="48.77636" lon="-3.37526">
        <ele>86</ele>
        <time>2011-02-20T09:23:36Z</time>
      </trkpt>
      <trkpt lat="48.77641" lon="-3.37541">
        <ele>85</ele>
        <time>2011-02-20T09:23:37Z</time>
      </trkpt>
      <trkpt lat="48.77647" lon="-3.37555">
        <ele>85</ele>
        <time>2011-02-20T09:23:38Z</time>
      </trkpt>
      <trkpt lat="48.77653" lon="-3.37569">
        <ele>84</ele>
        <time>2011-02-20T09:23:39Z</time>
      </trkpt>
      <trkpt lat="48.77658" lon="-3.37583">
        <ele>83</ele>
        <time>2011-02-20T09:23:40Z</time>
      </trkpt>
      <trkpt lat="48.77664" lon="-3.37597">
        <ele>83</ele>
        <time>2011-02-20T09:23:41Z</time>
      </trkpt>
      <trkpt lat="48.7767" lon="-3.37611">
        <ele>82</ele>
        <time>2011-02-20T09:23:42Z</time>
      </trkpt>
      <trkpt lat="48.77675" lon="-3.37625">
        <ele>82</ele>
        <time>2011-02-20T09:23:43Z</time>
      </trkpt>
      <trkpt lat="48.77681" lon="-3.37639">
        <ele>82</ele>
        <time>2011-02-20T09:23:44Z</time>
      </trkpt>
      <trkpt lat="48.77686" lon="-3.37652">
        <ele>81</ele>
        <time>2011-02-20T09:23:45Z</time>
      </trkpt>
      <trkpt lat="48.77691" lon="-3.37666">
        <ele>81</ele>
        <time>2011-02-20T09:23:46Z</time>
      </trkpt>
      <trkpt lat="48.77697" lon="-3.37679">
        <ele>81</ele>
        <time>2011-02-20T09:23:47Z</time>
      </trkpt>
      <trkpt lat="48.77702" lon="-3.37692">
        <ele>81</ele>
        <time>2011-02-20T09:23:48Z</time>
      </trkpt>
      <trkpt lat="48.77707" lon="-3.37704">
        <ele>81</ele>
        <time>2011-02-20T09:23:49Z</time>
      </trkpt>
      <trkpt lat="48.77712" lon="-3.37717">
        <ele>81</ele>
        <time>2011-02-20T09:23:50Z</time>
      </trkpt>
      <trkpt lat="48.77716" lon="-3.37729">
        <ele>81</ele>
        <time>2011-02-20T09:23:51Z</time>
      </trkpt>
      <trkpt lat="48.77721" lon="-3.3774">
        <ele>81</ele>
        <time>2011-02-20T09:23:52Z</time>
      </trkpt>
      <trkpt lat="48.77726" lon="-3.37752">
        <ele>81</ele>
        <time>2011-02-20T09:23:53Z</time>
      </trkpt>
      <trkpt lat="48.7773" lon="-3.37764">
        <ele>81</ele>
        <time>2011-02-20T09:23:54Z</time>
      </trkpt>
      <trkpt lat="48.77734" lon="-3.37774">
        <ele>81</ele>
        <time>2011-02-20T09:23:55Z</time>
      </trkpt>
      <trkpt lat="48.77739" lon="-3.37786">
        <ele>81</ele>
        <time>2011-02-20T09:23:56Z</time>
      </trkpt>
      <trkpt lat="48.77743" lon="-3.37796">
        <ele>81</ele>
        <time>2011-02-20T09:23:57Z</time>
      </trkpt>
      <trkpt lat="48.77747" lon="-3.37807">
        <ele>81</ele>
        <time>2011-02-20T09:23:58Z</time>
      </trkpt>
      <trkpt lat="48.77751" lon="-3.37817">
        <ele>81</ele>
        <time>2011-02-20T09:23:59Z</time>
      </trkpt>
      <trkpt lat="48.77755" lon="-3.37827">
        <ele>81</ele>
        <time>2011-02-20T09:24:00Z</time>
      </trkpt>
      <trkpt lat="48.77759" lon="-3.37837">
        <ele>81</ele>
        <time>2011-02-20T09:24:01Z</time>
      </trkpt>
      <trkpt lat="48.77763" lon="-3.37847">
        <ele>81</ele>
        <time>2011-02-20T09:24:02Z</time>
      </trkpt>
      <trkpt lat="48.77766" lon="-3.37856">
        <ele>81</ele>
        <time>2011-02-20T09:24:03Z</time>
      </trkpt>
      <trkpt lat="48.7777" lon="-3.37866">
        <ele>81</ele>
        <time>2011-02-20T09:24:04Z</time>
      </trkpt>
      <trkpt lat="48.77774" lon="-3.37875">
        <ele>81</ele>
        <time>2011-02-20T09:24:05Z</time>
      </trkpt>
      <trkpt lat="48.77777" lon="-3.37885">
        <ele>81</ele>
        <time>2011-02-20T09:24:06Z</time>
      </trkpt>
      <trkpt lat="48.77781" lon="-3.37894">
        <ele>81</ele>
        <time>2011-02-20T09:24:07Z</time>
      </trkpt>
      <trkpt lat="48.77785" lon="-3.37903">
        <ele>81</ele>
        <time>2011-02-20T09:24:08Z</time>
      </trkpt>
      <trkpt lat="48.77788" lon="-3.37913">
        <ele>81</ele>
        <time>2011-02-20T09:24:09Z</time>
      </trkpt>
      <trkpt lat="48.77792" lon="-3.37922">
        <ele>81</ele>
        <time>2011-02-20T09:24:10Z</time>
      </trkpt>
      <trkpt lat="48.77795" lon="-3.3793">
        <ele>81</ele>
        <time>2011-02-20T09:24:11Z</time>
      </trkpt>
      <trkpt lat="48.77799" lon="-3.37939">
        <ele>81</ele>
        <time>2011-02-20T09:24:12Z</time>
      </trkpt>
      <trkpt lat="48.77802" lon="-3.37948">
        <ele>81</ele>
        <time>2011-02-20T09:24:13Z</time>
      </trkpt>
      <trkpt lat="48.77805" lon="-3.37957">
        <ele>81</ele>
        <time>2011-02-20T09:24:14Z</time>
      </trkpt>
      <trkpt lat="48.77809" lon="-3.37965">
        <ele>81</ele>
        <time>2011-02-20T09:24:15Z</time>
      </trkpt>
      <trkpt lat="48.77812" lon="-3.37974">
        <ele>81</ele>
        <time>2011-02-20T09:24:16Z</time>
      </trkpt>
      <trkpt lat="48.77816" lon="-3.37983">
        <ele>81</ele>
        <time>2011-02-20T09:24:17Z</time>
      </trkpt>
      <trkpt lat="48.77819" lon="-3.37991">
        <ele>81</ele>
        <time>2011-02-20T09:24:18Z</time>
      </trkpt>
      <trkpt lat="48.77822" lon="-3.38001">
        <ele>81</ele>
        <time>2011-02-20T09:24:19Z</time>
      </trkpt>
      <trkpt lat="48.77826" lon="-3.3801">
        <ele>81</ele>
        <time>2011-02-20T09:24:20Z</time>
      </trkpt>
      <trkpt lat="48.77829" lon="-3.38018">
        <ele>81</ele>
        <time>2011-02-20T09:24:21Z</time>
      </trkpt>
      <trkpt lat="48.77833" lon="-3.38028">
        <ele>81</ele>
        <time>2011-02-20T09:24:22Z</time>
      </trkpt>
      <trkpt lat="48.77837" lon="-3.38036">
        <ele>81</ele>
        <time>2011-02-20T09:24:23Z</time>
      </trkpt>
      <trkpt lat="48.7784" lon="-3.38046">
        <ele>81</ele>
        <time>2011-02-20T09:24:24Z</time>
      </trkpt>
      <trkpt lat="48.77844" lon="-3.38054">
        <ele>81</ele>
        <time>2011-02-20T09:24:25Z</time>
      </trkpt>
      <trkpt lat="48.77847" lon="-3.38064">
        <ele>81</ele>
        <time>2011-02-20T09:24:26Z</time>
      </trkpt>
      <trkpt lat="48.77851" lon="-3.38072">
        <ele>81</ele>
        <time>2011-02-20T09:24:27Z</time>
      </trkpt>
      <trkpt lat="48.77854" lon="-3.38082">
        <ele>81</ele>
        <time>2011-02-20T09:24:28Z</time>
      </trkpt>
      <trkpt lat="48.77858" lon="-3.3809">
        <ele>81</ele>
        <time>2011-02-20T09:24:29Z</time>
      </trkpt>
      <trkpt lat="48.77861" lon="-3.381">
        <ele>81</ele>
        <time>2011-02-20T09:24:30Z</time>
      </trkpt>
      <trkpt lat="48.77865" lon="-3.38108">
        <ele>81</ele>
        <time>2011-02-20T09:24:31Z</time>
      </trkpt>
      <trkpt lat="48.77869" lon="-3.38117">
        <ele>81</ele>
        <time>2011-02-20T09:24:32Z</time>
      </trkpt>
      <trkpt lat="48.77872" lon="-3.38126">
        <ele>81</ele>
        <time>2011-02-20T09:24:33Z</time>
      </trkpt>
      <trkpt lat="48.77875" lon="-3.38135">
        <ele>81</ele>
        <time>2011-02-20T09:24:34Z</time>
      </trkpt>
      <trkpt lat="48.77879" lon="-3.38144">
        <ele>81</ele>
        <time>2011-02-20T09:24:35Z</time>
      </trkpt>
      <trkpt lat="48.77882" lon="-3.38152">
        <ele>81</ele>
        <time>2011-02-20T09:24:36Z</time>
      </trkpt>
      <trkpt lat="48.77885" lon="-3.38161">
        <ele>81</ele>
        <time>2011-02-20T09:24:37Z</time>
      </trkpt>
      <trkpt lat="48.77889" lon="-3.38169">
        <ele>81</ele>
        <time>2011-02-20T09:24:38Z</time>
      </trkpt>
      <trkpt lat="48.77892" lon="-3.38178">
        <ele>81</ele>
        <time>2011-02-20T09:24:39Z</time>
      </trkpt>
      <trkpt lat="48.77896" lon="-3.38187">
        <ele>82</ele>
        <time>2011-02-20T09:24:40Z</time>
      </trkpt>
      <trkpt lat="48.77899" lon="-3.38195">
        <ele>82</ele>
        <time>2011-02-20T09:24:41Z</time>
      </trkpt>
      <trkpt lat="48.77903" lon="-3.38204">
        <ele>82</ele>
        <time>2011-02-20T09:24:42Z</time>
      </trkpt>
      <trkpt lat="48.77906" lon="-3.38213">
        <ele>82</ele>
        <time>2011-02-20T09:24:43Z</time>
      </trkpt>
      <trkpt lat="48.77909" lon="-3.38222">
        <ele>82</ele>
        <time>2011-02-20T09:24:44Z</time>
      </trkpt>
      <trkpt lat="48.77913" lon="-3.38231">
        <ele>82</ele>
        <time>2011-02-20T09:24:45Z</time>
      </trkpt>
      <trkpt lat="48.77916" lon="-3.3824">
        <ele>82</ele>
        <time>2011-02-20T09:24:46Z</time>
      </trkpt>
      <trkpt lat="48.7792" lon="-3.38249">
        <ele>82</ele>
        <time>2011-02-20T09:24:47Z</time>
      </trkpt>
      <trkpt lat="48.77923" lon="-3.38258">
        <ele>82</ele>
        <time>2011-02-20T09:24:48Z</time>
      </trkpt>
      <trkpt lat="48.77927" lon="-3.38267">
        <ele>82</ele>
        <time>2011-02-20T09:24:49Z</time>
      </trkpt>
      <trkpt lat="48.7793" lon="-3.38276">
        <ele>82</ele>
        <time>2011-02-20T09:24:50Z</time>
      </trkpt>
      <trkpt lat="48.77934" lon="-3.38284">
        <ele>82</ele>
        <time>2011-02-20T09:24:51Z</time>
      </trkpt>
      <trkpt lat="48.77937" lon="-3.38294">
        <ele>82</ele>
        <time>2011-02-20T09:24:52Z</time>
      </trkpt>
      <trkpt lat="48.77941" lon="-3.38303">
        <ele>83</ele>
        <time>2011-02-20T09:24:53Z</time>
      </trkpt>
      <trkpt lat="48.77945" lon="-3.38312">
        <ele>83</ele>
        <time>2011-02-20T09:24:54Z</time>
      </trkpt>
      <trkpt lat="48.77948" lon="-3.38321">
        <ele>83</ele>
        <time>2011-02-20T09:24:55Z</time>
      </trkpt>
      <trkpt lat="48.77952" lon="-3.38331">
        <ele>83</ele>
        <time>2011-02-20T09:24:56Z</time>
      </trkpt>
      <trkpt lat="48.77956" lon="-3.38341">
        <ele>83</ele>
        <time>2011-02-20T09:24:57Z</time>
      </trkpt>
      <trkpt lat="48.7796" lon="-3.38351">
        <ele>83</ele>
        <time>2011-02-20T09:24:58Z</time>
      </trkpt>
      <trkpt lat="48.77963" lon="-3.3836">
        <ele>83</ele>
        <time>2011-02-20T09:24:59Z</time>
      </trkpt>
      <trkpt lat="48.77967" lon="-3.3837">
        <ele>83</ele>
        <time>2011-02-20T09:25:00Z</time>
      </trkpt>
      <trkpt lat="48.77971" lon="-3.3838">
        <ele>83</ele>
        <time>2011-02-20T09:25:01Z</time>
      </trkpt>
      <trkpt lat="48.77975" lon="-3.38389">
        <ele>83</ele>
        <time>2011-02-20T09:25:02Z</time>
      </trkpt>
      <trkpt lat="48.77979" lon="-3.38399">
        <ele>83</ele>
        <time>2011-02-20T09:25:03Z</time>
      </trkpt>
      <trkpt lat="48.77982" lon="-3.38409">
        <ele>83</ele>
        <time>2011-02-20T09:25:04Z</time>
      </trkpt>
      <trkpt lat="48.77986" lon="-3.38419">
        <ele>83</ele>
        <time>2011-02-20T09:25:05Z</time>
      </trkpt>
      <trkpt lat="48.7799" lon="-3.38429">
        <ele>83</ele>
        <time>2011-02-20T09:25:06Z</time>
      </trkpt>
      <trkpt lat="48.77994" lon="-3.38439">
        <ele>83</ele>
        <time>2011-02-20T09:25:07Z</time>
      </trkpt>
      <trkpt lat="48.77998" lon="-3.38449">
        <ele>83</ele>
        <time>2011-02-20T09:25:08Z</time>
      </trkpt>
      <trkpt lat="48.78002" lon="-3.38459">
        <ele>83</ele>
        <time>2011-02-20T09:25:09Z</time>
      </trkpt>
      <trkpt lat="48.78006" lon="-3.3847">
        <ele>83</ele>
        <time>2011-02-20T09:25:10Z</time>
      </trkpt>
      <trkpt lat="48.7801" lon="-3.3848">
        <ele>83</ele>
        <time>2011-02-20T09:25:11Z</time>
      </trkpt>
      <trkpt lat="48.78014" lon="-3.3849">
        <ele>83</ele>
        <time>2011-02-20T09:25:12Z</time>
      </trkpt>
      <trkpt lat="48.78018" lon="-3.385">
        <ele>83</ele>
        <time>2011-02-20T09:25:13Z</time>
      </trkpt>
      <trkpt lat="48.78022" lon="-3.38511">
        <ele>83</ele>
        <time>2011-02-20T09:25:14Z</time>
      </trkpt>
      <trkpt lat="48.78026" lon="-3.38521">
        <ele>83</ele>
        <time>2011-02-20T09:25:15Z</time>
      </trkpt>
      <trkpt lat="48.7803" lon="-3.38531">
        <ele>83</ele>
        <time>2011-02-20T09:25:16Z</time>
      </trkpt>
      <trkpt lat="48.78034" lon="-3.38541">
        <ele>83</ele>
        <time>2011-02-20T09:25:17Z</time>
      </trkpt>
      <trkpt lat="48.78038" lon="-3.38552">
        <ele>83</ele>
        <time>2011-02-20T09:25:18Z</time>
      </trkpt>
      <trkpt lat="48.78042" lon="-3.38562">
        <ele>83</ele>
        <time>2011-02-20T09:25:19Z</time>
      </trkpt>
      <trkpt lat="48.78046" lon="-3.38573">
        <ele>83</ele>
        <time>2011-02-20T09:25:20Z</time>
      </trkpt>
      <trkpt lat="48.7805" lon="-3.38583">
        <ele>83</ele>
        <time>2011-02-20T09:25:21Z</time>
      </trkpt>
      <trkpt lat="48.78055" lon="-3.38595">
        <ele>83</ele>
        <time>2011-02-20T09:25:22Z</time>
      </trkpt>
      <trkpt lat="48.78059" lon="-3.38606">
        <ele>83</ele>
        <time>2011-02-20T09:25:23Z</time>
      </trkpt>
      <trkpt lat="48.78063" lon="-3.38617">
        <ele>83</ele>
        <time>2011-02-20T09:25:24Z</time>
      </trkpt>
      <trkpt lat="48.78068" lon="-3.38629">
        <ele>83</ele>
        <time>2011-02-20T09:25:25Z</time>
      </trkpt>
      <trkpt lat="48.78072" lon="-3.3864">
        <ele>83</ele>
        <time>2011-02-20T09:25:26Z</time>
      </trkpt>
      <trkpt lat="48.78077" lon="-3.38651">
        <ele>83</ele>
        <time>2011-02-20T09:25:27Z</time>
      </trkpt>
      <trkpt lat="48.78081" lon="-3.38663">
        <ele>83</ele>
        <time>2011-02-20T09:25:28Z</time>
      </trkpt>
      <trkpt lat="48.78086" lon="-3.38674">
        <ele>83</ele>
        <time>2011-02-20T09:25:29Z</time>
      </trkpt>
      <trkpt lat="48.78091" lon="-3.38686">
        <ele>83</ele>
        <time>2011-02-20T09:25:30Z</time>
      </trkpt>
      <trkpt lat="48.78095" lon="-3.38697">
        <ele>83</ele>
        <time>2011-02-20T09:25:31Z</time>
      </trkpt>
      <trkpt lat="48.78099" lon="-3.38708">
        <ele>83</ele>
        <time>2011-02-20T09:25:32Z</time>
      </trkpt>
      <trkpt lat="48.78104" lon="-3.3872">
        <ele>83</ele>
        <time>2011-02-20T09:25:33Z</time>
      </trkpt>
      <trkpt lat="48.78108" lon="-3.38731">
        <ele>83</ele>
        <time>2011-02-20T09:25:34Z</time>
      </trkpt>
      <trkpt lat="48.78112" lon="-3.38742">
        <ele>83</ele>
        <time>2011-02-20T09:25:35Z</time>
      </trkpt>
      <trkpt lat="48.78117" lon="-3.38753">
        <ele>83</ele>
        <time>2011-02-20T09:25:36Z</time>
      </trkpt>
      <trkpt lat="48.78121" lon="-3.38763">
        <ele>83</ele>
        <time>2011-02-20T09:25:37Z</time>
      </trkpt>
      <trkpt lat="48.78125" lon="-3.38773">
        <ele>83</ele>
        <time>2011-02-20T09:25:38Z</time>
      </trkpt>
      <trkpt lat="48.78129" lon="-3.38784">
        <ele>83</ele>
        <time>2011-02-20T09:25:39Z</time>
      </trkpt>
      <trkpt lat="48.78133" lon="-3.38794">
        <ele>83</ele>
        <time>2011-02-20T09:25:40Z</time>
      </trkpt>
      <trkpt lat="48.78136" lon="-3.38804">
        <ele>83</ele>
        <time>2011-02-20T09:25:41Z</time>
      </trkpt>
      <trkpt lat="48.78139" lon="-3.38814">
        <ele>83</ele>
        <time>2011-02-20T09:25:42Z</time>
      </trkpt>
      <trkpt lat="48.78143" lon="-3.38825">
        <ele>83</ele>
        <time>2011-02-20T09:25:43Z</time>
      </trkpt>
      <trkpt lat="48.78146" lon="-3.38835">
        <ele>83</ele>
        <time>2011-02-20T09:25:44Z</time>
      </trkpt>
      <trkpt lat="48.78149" lon="-3.38845">
        <ele>83</ele>
        <time>2011-02-20T09:25:45Z</time>
      </trkpt>
      <trkpt lat="48.78152" lon="-3.38855">
        <ele>83</ele>
        <time>2011-02-20T09:25:46Z</time>
      </trkpt>
      <trkpt lat="48.78154" lon="-3.38866">
        <ele>83</ele>
        <time>2011-02-20T09:25:47Z</time>
      </trkpt>
      <trkpt lat="48.78157" lon="-3.38877">
        <ele>83</ele>
        <time>2011-02-20T09:25:48Z</time>
      </trkpt>
      <trkpt lat="48.7816" lon="-3.38887">
        <ele>83</ele>
        <time>2011-02-20T09:25:49Z</time>
      </trkpt>
      <trkpt lat="48.78162" lon="-3.38897">
        <ele>83</ele>
        <time>2011-02-20T09:25:50Z</time>
      </trkpt>
      <trkpt lat="48.78165" lon="-3.38908">
        <ele>83</ele>
        <time>2011-02-20T09:25:51Z</time>
      </trkpt>
      <trkpt lat="48.78167" lon="-3.38918">
        <ele>83</ele>
        <time>2011-02-20T09:25:52Z</time>
      </trkpt>
      <trkpt lat="48.7817" lon="-3.38929">
        <ele>83</ele>
        <time>2011-02-20T09:25:53Z</time>
      </trkpt>
      <trkpt lat="48.78172" lon="-3.38939">
        <ele>83</ele>
        <time>2011-02-20T09:25:54Z</time>
      </trkpt>
      <trkpt lat="48.78174" lon="-3.38949">
        <ele>83</ele>
        <time>2011-02-20T09:25:55Z</time>
      </trkpt>
      <trkpt lat="48.78179" lon="-3.38969">
        <ele>83</ele>
        <time>2011-02-20T09:25:57Z</time>
      </trkpt>
      <trkpt lat="48.78181" lon="-3.3898">
        <ele>83</ele>
        <time>2011-02-20T09:25:58Z</time>
      </trkpt>
      <trkpt lat="48.78183" lon="-3.38989">
        <ele>83</ele>
        <time>2011-02-20T09:25:59Z</time>
      </trkpt>
      <trkpt lat="48.78188" lon="-3.3901">
        <ele>83</ele>
        <time>2011-02-20T09:26:01Z</time>
      </trkpt>
      <trkpt lat="48.7819" lon="-3.3902">
        <ele>83</ele>
        <time>2011-02-20T09:26:02Z</time>
      </trkpt>
      <trkpt lat="48.78193" lon="-3.3903">
        <ele>83</ele>
        <time>2011-02-20T09:26:03Z</time>
      </trkpt>
      <trkpt lat="48.78195" lon="-3.39041">
        <ele>83</ele>
        <time>2011-02-20T09:26:04Z</time>
      </trkpt>
      <trkpt lat="48.78197" lon="-3.39051">
        <ele>83</ele>
        <time>2011-02-20T09:26:05Z</time>
      </trkpt>
      <trkpt lat="48.782" lon="-3.39062">
        <ele>83</ele>
        <time>2011-02-20T09:26:06Z</time>
      </trkpt>
      <trkpt lat="48.78202" lon="-3.39072">
        <ele>83</ele>
        <time>2011-02-20T09:26:07Z</time>
      </trkpt>
      <trkpt lat="48.78205" lon="-3.39082">
        <ele>83</ele>
        <time>2011-02-20T09:26:08Z</time>
      </trkpt>
      <trkpt lat="48.78207" lon="-3.39092">
        <ele>83</ele>
        <time>2011-02-20T09:26:09Z</time>
      </trkpt>
      <trkpt lat="48.78209" lon="-3.39102">
        <ele>83</ele>
        <time>2011-02-20T09:26:10Z</time>
      </trkpt>
      <trkpt lat="48.78212" lon="-3.39112">
        <ele>83</ele>
        <time>2011-02-20T09:26:11Z</time>
      </trkpt>
      <trkpt lat="48.78216" lon="-3.39131">
        <ele>83</ele>
        <time>2011-02-20T09:26:13Z</time>
      </trkpt>
      <trkpt lat="48.78218" lon="-3.39141">
        <ele>83</ele>
        <time>2011-02-20T09:26:14Z</time>
      </trkpt>
      <trkpt lat="48.78223" lon="-3.3916">
        <ele>83</ele>
        <time>2011-02-20T09:26:16Z</time>
      </trkpt>
      <trkpt lat="48.78229" lon="-3.39187">
        <ele>83</ele>
        <time>2011-02-20T09:26:19Z</time>
      </trkpt>
      <trkpt lat="48.78231" lon="-3.39196">
        <ele>83</ele>
        <time>2011-02-20T09:26:20Z</time>
      </trkpt>
      <trkpt lat="48.78233" lon="-3.39205">
        <ele>83</ele>
        <time>2011-02-20T09:26:21Z</time>
      </trkpt>
      <trkpt lat="48.78235" lon="-3.39215">
        <ele>83</ele>
        <time>2011-02-20T09:26:22Z</time>
      </trkpt>
      <trkpt lat="48.78238" lon="-3.39225">
        <ele>83</ele>
        <time>2011-02-20T09:26:23Z</time>
      </trkpt>
      <trkpt lat="48.7824" lon="-3.39234">
        <ele>83</ele>
        <time>2011-02-20T09:26:24Z</time>
      </trkpt>
      <trkpt lat="48.78242" lon="-3.39244">
        <ele>83</ele>
        <time>2011-02-20T09:26:25Z</time>
      </trkpt>
      <trkpt lat="48.78244" lon="-3.39254">
        <ele>83</ele>
        <time>2011-02-20T09:26:26Z</time>
      </trkpt>
      <trkpt lat="48.78247" lon="-3.39264">
        <ele>83</ele>
        <time>2011-02-20T09:26:27Z</time>
      </trkpt>
      <trkpt lat="48.78249" lon="-3.39273">
        <ele>83</ele>
        <time>2011-02-20T09:26:28Z</time>
      </trkpt>
      <trkpt lat="48.78252" lon="-3.39283">
        <ele>83</ele>
        <time>2011-02-20T09:26:29Z</time>
      </trkpt>
      <trkpt lat="48.78254" lon="-3.39293">
        <ele>83</ele>
        <time>2011-02-20T09:26:30Z</time>
      </trkpt>
      <trkpt lat="48.78257" lon="-3.39302">
        <ele>83</ele>
        <time>2011-02-20T09:26:31Z</time>
      </trkpt>
      <trkpt lat="48.7826" lon="-3.39312">
        <ele>83</ele>
        <time>2011-02-20T09:26:32Z</time>
      </trkpt>
      <trkpt lat="48.78264" lon="-3.39322">
        <ele>83</ele>
        <time>2011-02-20T09:26:33Z</time>
      </trkpt>
      <trkpt lat="48.78267" lon="-3.39332">
        <ele>83</ele>
        <time>2011-02-20T09:26:34Z</time>
      </trkpt>
      <trkpt lat="48.78271" lon="-3.39342">
        <ele>83</ele>
        <time>2011-02-20T09:26:35Z</time>
      </trkpt>
      <trkpt lat="48.78275" lon="-3.39352">
        <ele>83</ele>
        <time>2011-02-20T09:26:36Z</time>
      </trkpt>
      <trkpt lat="48.78279" lon="-3.39361">
        <ele>83</ele>
        <time>2011-02-20T09:26:37Z</time>
      </trkpt>
      <trkpt lat="48.78283" lon="-3.39371">
        <ele>83</ele>
        <time>2011-02-20T09:26:38Z</time>
      </trkpt>
      <trkpt lat="48.78288" lon="-3.3938">
        <ele>83</ele>
        <time>2011-02-20T09:26:39Z</time>
      </trkpt>
      <trkpt lat="48.78292" lon="-3.39389">
        <ele>83</ele>
        <time>2011-02-20T09:26:40Z</time>
      </trkpt>
      <trkpt lat="48.78297" lon="-3.39398">
        <ele>83</ele>
        <time>2011-02-20T09:26:41Z</time>
      </trkpt>
      <trkpt lat="48.78302" lon="-3.39405">
        <ele>83</ele>
        <time>2011-02-20T09:26:42Z</time>
      </trkpt>
      <trkpt lat="48.78307" lon="-3.39413">
        <ele>83</ele>
        <time>2011-02-20T09:26:43Z</time>
      </trkpt>
      <trkpt lat="48.78311" lon="-3.39421">
        <ele>83</ele>
        <time>2011-02-20T09:26:44Z</time>
      </trkpt>
      <trkpt lat="48.78315" lon="-3.39428">
        <ele>83</ele>
        <time>2011-02-20T09:26:45Z</time>
      </trkpt>
      <trkpt lat="48.7832" lon="-3.39436">
        <ele>83</ele>
        <time>2011-02-20T09:26:46Z</time>
      </trkpt>
      <trkpt lat="48.78324" lon="-3.39443">
        <ele>83</ele>
        <time>2011-02-20T09:26:47Z</time>
      </trkpt>
      <trkpt lat="48.78328" lon="-3.3945">
        <ele>83</ele>
        <time>2011-02-20T09:26:48Z</time>
      </trkpt>
      <trkpt lat="48.78332" lon="-3.39457">
        <ele>83</ele>
        <time>2011-02-20T09:26:49Z</time>
      </trkpt>
      <trkpt lat="48.78336" lon="-3.39464">
        <ele>83</ele>
        <time>2011-02-20T09:26:50Z</time>
      </trkpt>
      <trkpt lat="48.78341" lon="-3.39471">
        <ele>83</ele>
        <time>2011-02-20T09:26:51Z</time>
      </trkpt>
      <trkpt lat="48.78345" lon="-3.39476">
        <ele>83</ele>
        <time>2011-02-20T09:26:52Z</time>
      </trkpt>
      <trkpt lat="48.78349" lon="-3.39482">
        <ele>83</ele>
        <time>2011-02-20T09:26:53Z</time>
      </trkpt>
      <trkpt lat="48.78352" lon="-3.39488">
        <ele>83</ele>
        <time>2011-02-20T09:26:54Z</time>
      </trkpt>
      <trkpt lat="48.78356" lon="-3.39493">
        <ele>83</ele>
        <time>2011-02-20T09:26:55Z</time>
      </trkpt>
      <trkpt lat="48.7836" lon="-3.39498">
        <ele>83</ele>
        <time>2011-02-20T09:26:56Z</time>
      </trkpt>
      <trkpt lat="48.78364" lon="-3.39503">
        <ele>83</ele>
        <time>2011-02-20T09:26:57Z</time>
      </trkpt>
      <trkpt lat="48.78368" lon="-3.39507">
        <ele>83</ele>
        <time>2011-02-20T09:26:58Z</time>
      </trkpt>
      <trkpt lat="48.78371" lon="-3.39511">
        <ele>83</ele>
        <time>2011-02-20T09:26:59Z</time>
      </trkpt>
      <trkpt lat="48.78374" lon="-3.39515">
        <ele>83</ele>
        <time>2011-02-20T09:27:00Z</time>
      </trkpt>
      <trkpt lat="48.78378" lon="-3.39519">
        <ele>83</ele>
        <time>2011-02-20T09:27:01Z</time>
      </trkpt>
      <trkpt lat="48.78381" lon="-3.39523">
        <ele>83</ele>
        <time>2011-02-20T09:27:02Z</time>
      </trkpt>
      <trkpt lat="48.78384" lon="-3.39527">
        <ele>83</ele>
        <time>2011-02-20T09:27:03Z</time>
      </trkpt>
      <trkpt lat="48.78388" lon="-3.3953">
        <ele>83</ele>
        <time>2011-02-20T09:27:04Z</time>
      </trkpt>
      <trkpt lat="48.78391" lon="-3.39533">
        <ele>83</ele>
        <time>2011-02-20T09:27:05Z</time>
      </trkpt>
      <trkpt lat="48.78394" lon="-3.39536">
        <ele>83</ele>
        <time>2011-02-20T09:27:06Z</time>
      </trkpt>
      <trkpt lat="48.78397" lon="-3.3954">
        <ele>83</ele>
        <time>2011-02-20T09:27:07Z</time>
      </trkpt>
      <trkpt lat="48.784" lon="-3.39543">
        <ele>83</ele>
        <time>2011-02-20T09:27:08Z</time>
      </trkpt>
      <trkpt lat="48.78404" lon="-3.39546">
        <ele>83</ele>
        <time>2011-02-20T09:27:09Z</time>
      </trkpt>
      <trkpt lat="48.78407" lon="-3.39549">
        <ele>83</ele>
        <time>2011-02-20T09:27:10Z</time>
      </trkpt>
      <trkpt lat="48.7841" lon="-3.39553">
        <ele>83</ele>
        <time>2011-02-20T09:27:11Z</time>
      </trkpt>
      <trkpt lat="48.78414" lon="-3.39556">
        <ele>83</ele>
        <time>2011-02-20T09:27:12Z</time>
      </trkpt>
      <trkpt lat="48.78417" lon="-3.39559">
        <ele>83</ele>
        <time>2011-02-20T09:27:13Z</time>
      </trkpt>
      <trkpt lat="48.78421" lon="-3.39562">
        <ele>83</ele>
        <time>2011-02-20T09:27:14Z</time>
      </trkpt>
      <trkpt lat="48.78424" lon="-3.39565">
        <ele>83</ele>
        <time>2011-02-20T09:27:15Z</time>
      </trkpt>
      <trkpt lat="48.78428" lon="-3.39567">
        <ele>83</ele>
        <time>2011-02-20T09:27:16Z</time>
      </trkpt>
      <trkpt lat="48.78431" lon="-3.3957">
        <ele>83</ele>
        <time>2011-02-20T09:27:17Z</time>
      </trkpt>
      <trkpt lat="48.78435" lon="-3.39573">
        <ele>83</ele>
        <time>2011-02-20T09:27:18Z</time>
      </trkpt>
      <trkpt lat="48.78439" lon="-3.39576">
        <ele>83</ele>
        <time>2011-02-20T09:27:19Z</time>
      </trkpt>
      <trkpt lat="48.78442" lon="-3.39579">
        <ele>83</ele>
        <time>2011-02-20T09:27:20Z</time>
      </trkpt>
      <trkpt lat="48.78445" lon="-3.39581">
        <ele>83</ele>
        <time>2011-02-20T09:27:21Z</time>
      </trkpt>
      <trkpt lat="48.78448" lon="-3.39583">
        <ele>83</ele>
        <time>2011-02-20T09:27:22Z</time>
      </trkpt>
      <trkpt lat="48.78451" lon="-3.39586">
        <ele>83</ele>
        <time>2011-02-20T09:27:23Z</time>
      </trkpt>
      <trkpt lat="48.78454" lon="-3.39588">
        <ele>83</ele>
        <time>2011-02-20T09:27:24Z</time>
      </trkpt>
      <trkpt lat="48.78462" lon="-3.39591">
        <ele>83</ele>
        <time>2011-02-20T09:29:41Z</time>
      </trkpt>
      <trkpt lat="48.78464" lon="-3.396">
        <ele>83</ele>
        <time>2011-02-20T09:31:29Z</time>
      </trkpt>
      <trkpt lat="48.78466" lon="-3.39602">
        <ele>83</ele>
        <time>2011-02-20T09:31:30Z</time>
      </trkpt>
      <trkpt lat="48.78468" lon="-3.39604">
        <ele>83</ele>
        <time>2011-02-20T09:31:31Z</time>
      </trkpt>
      <trkpt lat="48.78471" lon="-3.39607">
        <ele>83</ele>
        <time>2011-02-20T09:31:32Z</time>
      </trkpt>
      <trkpt lat="48.78473" lon="-3.39609">
        <ele>83</ele>
        <time>2011-02-20T09:31:33Z</time>
      </trkpt>
      <trkpt lat="48.78476" lon="-3.39611">
        <ele>83</ele>
        <time>2011-02-20T09:31:34Z</time>
      </trkpt>
      <trkpt lat="48.78478" lon="-3.39613">
        <ele>83</ele>
        <time>2011-02-20T09:31:35Z</time>
      </trkpt>
      <trkpt lat="48.78481" lon="-3.39615">
        <ele>83</ele>
        <time>2011-02-20T09:31:36Z</time>
      </trkpt>
      <trkpt lat="48.78484" lon="-3.39617">
        <ele>83</ele>
        <time>2011-02-20T09:31:37Z</time>
      </trkpt>
      <trkpt lat="48.78487" lon="-3.39619">
        <ele>83</ele>
        <time>2011-02-20T09:31:38Z</time>
      </trkpt>
      <trkpt lat="48.7849" lon="-3.3962">
        <ele>83</ele>
        <time>2011-02-20T09:31:39Z</time>
      </trkpt>
      <trkpt lat="48.78493" lon="-3.3962">
        <ele>83</ele>
        <time>2011-02-20T09:31:40Z</time>
      </trkpt>
      <trkpt lat="48.78496" lon="-3.39619">
        <ele>83</ele>
        <time>2011-02-20T09:31:41Z</time>
      </trkpt>
      <trkpt lat="48.785" lon="-3.39617">
        <ele>83</ele>
        <time>2011-02-20T09:31:42Z</time>
      </trkpt>
      <trkpt lat="48.78503" lon="-3.39616">
        <ele>83</ele>
        <time>2011-02-20T09:31:43Z</time>
      </trkpt>
      <trkpt lat="48.78507" lon="-3.39615">
        <ele>83</ele>
        <time>2011-02-20T09:31:44Z</time>
      </trkpt>
      <trkpt lat="48.7851" lon="-3.39615">
        <ele>83</ele>
        <time>2011-02-20T09:31:45Z</time>
      </trkpt>
      <trkpt lat="48.78514" lon="-3.39616">
        <ele>83</ele>
        <time>2011-02-20T09:31:46Z</time>
      </trkpt>
      <trkpt lat="48.78518" lon="-3.39618">
        <ele>83</ele>
        <time>2011-02-20T09:31:47Z</time>
      </trkpt>
      <trkpt lat="48.78521" lon="-3.39622">
        <ele>83</ele>
        <time>2011-02-20T09:31:48Z</time>
      </trkpt>
      <trkpt lat="48.78529" lon="-3.39641">
        <ele>83</ele>
        <time>2011-02-20T09:31:51Z</time>
      </trkpt>
      <trkpt lat="48.7853" lon="-3.39649">
        <ele>83</ele>
        <time>2011-02-20T09:31:52Z</time>
      </trkpt>
      <trkpt lat="48.78532" lon="-3.39657">
        <ele>83</ele>
        <time>2011-02-20T09:31:53Z</time>
      </trkpt>
      <trkpt lat="48.78535" lon="-3.39665">
        <ele>83</ele>
        <time>2011-02-20T09:31:54Z</time>
      </trkpt>
      <trkpt lat="48.78539" lon="-3.39672">
        <ele>83</ele>
        <time>2011-02-20T09:31:55Z</time>
      </trkpt>
      <trkpt lat="48.78543" lon="-3.3968">
        <ele>83</ele>
        <time>2011-02-20T09:31:56Z</time>
      </trkpt>
      <trkpt lat="48.78548" lon="-3.39686">
        <ele>83</ele>
        <time>2011-02-20T09:31:57Z</time>
      </trkpt>
      <trkpt lat="48.78552" lon="-3.39692">
        <ele>83</ele>
        <time>2011-02-20T09:31:58Z</time>
      </trkpt>
      <trkpt lat="48.78557" lon="-3.39698">
        <ele>83</ele>
        <time>2011-02-20T09:31:59Z</time>
      </trkpt>
      <trkpt lat="48.78562" lon="-3.39704">
        <ele>82</ele>
        <time>2011-02-20T09:32:00Z</time>
      </trkpt>
      <trkpt lat="48.78567" lon="-3.3971">
        <ele>82</ele>
        <time>2011-02-20T09:32:01Z</time>
      </trkpt>
      <trkpt lat="48.78572" lon="-3.39717">
        <ele>82</ele>
        <time>2011-02-20T09:32:02Z</time>
      </trkpt>
      <trkpt lat="48.78577" lon="-3.39723">
        <ele>82</ele>
        <time>2011-02-20T09:32:03Z</time>
      </trkpt>
      <trkpt lat="48.78582" lon="-3.39729">
        <ele>82</ele>
        <time>2011-02-20T09:32:04Z</time>
      </trkpt>
      <trkpt lat="48.78587" lon="-3.39736">
        <ele>82</ele>
        <time>2011-02-20T09:32:05Z</time>
      </trkpt>
      <trkpt lat="48.78593" lon="-3.39742">
        <ele>82</ele>
        <time>2011-02-20T09:32:06Z</time>
      </trkpt>
      <trkpt lat="48.78599" lon="-3.39749">
        <ele>82</ele>
        <time>2011-02-20T09:32:07Z</time>
      </trkpt>
      <trkpt lat="48.78604" lon="-3.39756">
        <ele>81</ele>
        <time>2011-02-20T09:32:08Z</time>
      </trkpt>
      <trkpt lat="48.7861" lon="-3.39763">
        <ele>81</ele>
        <time>2011-02-20T09:32:09Z</time>
      </trkpt>
      <trkpt lat="48.78616" lon="-3.3977">
        <ele>81</ele>
        <time>2011-02-20T09:32:10Z</time>
      </trkpt>
      <trkpt lat="48.78622" lon="-3.39777">
        <ele>81</ele>
        <time>2011-02-20T09:32:11Z</time>
      </trkpt>
      <trkpt lat="48.78627" lon="-3.39784">
        <ele>81</ele>
        <time>2011-02-20T09:32:12Z</time>
      </trkpt>
      <trkpt lat="48.78633" lon="-3.39791">
        <ele>80</ele>
        <time>2011-02-20T09:32:13Z</time>
      </trkpt>
      <trkpt lat="48.78639" lon="-3.39798">
        <ele>80</ele>
        <time>2011-02-20T09:32:14Z</time>
      </trkpt>
      <trkpt lat="48.78645" lon="-3.39806">
        <ele>80</ele>
        <time>2011-02-20T09:32:15Z</time>
      </trkpt>
      <trkpt lat="48.78651" lon="-3.39813">
        <ele>80</ele>
        <time>2011-02-20T09:32:16Z</time>
      </trkpt>
      <trkpt lat="48.78658" lon="-3.39821">
        <ele>80</ele>
        <time>2011-02-20T09:32:17Z</time>
      </trkpt>
      <trkpt lat="48.78664" lon="-3.39829">
        <ele>80</ele>
        <time>2011-02-20T09:32:18Z</time>
      </trkpt>
      <trkpt lat="48.7867" lon="-3.39836">
        <ele>80</ele>
        <time>2011-02-20T09:32:19Z</time>
      </trkpt>
      <trkpt lat="48.78677" lon="-3.39844">
        <ele>80</ele>
        <time>2011-02-20T09:32:20Z</time>
      </trkpt>
      <trkpt lat="48.78683" lon="-3.39851">
        <ele>80</ele>
        <time>2011-02-20T09:32:21Z</time>
      </trkpt>
      <trkpt lat="48.7869" lon="-3.39859">
        <ele>80</ele>
        <time>2011-02-20T09:32:22Z</time>
      </trkpt>
      <trkpt lat="48.78696" lon="-3.39867">
        <ele>79</ele>
        <time>2011-02-20T09:32:23Z</time>
      </trkpt>
      <trkpt lat="48.78703" lon="-3.39875">
        <ele>79</ele>
        <time>2011-02-20T09:32:24Z</time>
      </trkpt>
      <trkpt lat="48.78709" lon="-3.39882">
        <ele>79</ele>
        <time>2011-02-20T09:32:25Z</time>
      </trkpt>
      <trkpt lat="48.78716" lon="-3.3989">
        <ele>79</ele>
        <time>2011-02-20T09:32:26Z</time>
      </trkpt>
      <trkpt lat="48.78722" lon="-3.39898">
        <ele>79</ele>
        <time>2011-02-20T09:32:27Z</time>
      </trkpt>
      <trkpt lat="48.78729" lon="-3.39905">
        <ele>79</ele>
        <time>2011-02-20T09:32:28Z</time>
      </trkpt>
      <trkpt lat="48.78736" lon="-3.39913">
        <ele>79</ele>
        <time>2011-02-20T09:32:29Z</time>
      </trkpt>
      <trkpt lat="48.78743" lon="-3.3992">
        <ele>78</ele>
        <time>2011-02-20T09:32:30Z</time>
      </trkpt>
      <trkpt lat="48.7875" lon="-3.39927">
        <ele>78</ele>
        <time>2011-02-20T09:32:31Z</time>
      </trkpt>
      <trkpt lat="48.78758" lon="-3.39933">
        <ele>78</ele>
        <time>2011-02-20T09:32:32Z</time>
      </trkpt>
      <trkpt lat="48.78765" lon="-3.3994">
        <ele>78</ele>
        <time>2011-02-20T09:32:33Z</time>
      </trkpt>
      <trkpt lat="48.78773" lon="-3.39947">
        <ele>77</ele>
        <time>2011-02-20T09:32:34Z</time>
      </trkpt>
      <trkpt lat="48.7878" lon="-3.39953">
        <ele>77</ele>
        <time>2011-02-20T09:32:35Z</time>
      </trkpt>
      <trkpt lat="48.78788" lon="-3.3996">
        <ele>77</ele>
        <time>2011-02-20T09:32:36Z</time>
      </trkpt>
      <trkpt lat="48.78796" lon="-3.39966">
        <ele>77</ele>
        <time>2011-02-20T09:32:37Z</time>
      </trkpt>
      <trkpt lat="48.78804" lon="-3.39972">
        <ele>76</ele>
        <time>2011-02-20T09:32:38Z</time>
      </trkpt>
      <trkpt lat="48.78812" lon="-3.39979">
        <ele>76</ele>
        <time>2011-02-20T09:32:39Z</time>
      </trkpt>
      <trkpt lat="48.7882" lon="-3.39986">
        <ele>76</ele>
        <time>2011-02-20T09:32:40Z</time>
      </trkpt>
      <trkpt lat="48.78828" lon="-3.39992">
        <ele>75</ele>
        <time>2011-02-20T09:32:41Z</time>
      </trkpt>
      <trkpt lat="48.78835" lon="-3.39999">
        <ele>75</ele>
        <time>2011-02-20T09:32:42Z</time>
      </trkpt>
      <trkpt lat="48.78843" lon="-3.40006">
        <ele>75</ele>
        <time>2011-02-20T09:32:43Z</time>
      </trkpt>
      <trkpt lat="48.78851" lon="-3.40013">
        <ele>74</ele>
        <time>2011-02-20T09:32:44Z</time>
      </trkpt>
      <trkpt lat="48.78859" lon="-3.4002">
        <ele>74</ele>
        <time>2011-02-20T09:32:45Z</time>
      </trkpt>
      <trkpt lat="48.78867" lon="-3.40027">
        <ele>74</ele>
        <time>2011-02-20T09:32:46Z</time>
      </trkpt>
      <trkpt lat="48.78875" lon="-3.40034">
        <ele>74</ele>
        <time>2011-02-20T09:32:47Z</time>
      </trkpt>
      <trkpt lat="48.78883" lon="-3.40041">
        <ele>73</ele>
        <time>2011-02-20T09:32:48Z</time>
      </trkpt>
      <trkpt lat="48.78891" lon="-3.40048">
        <ele>73</ele>
        <time>2011-02-20T09:32:49Z</time>
      </trkpt>
      <trkpt lat="48.78899" lon="-3.40055">
        <ele>73</ele>
        <time>2011-02-20T09:32:50Z</time>
      </trkpt>
      <trkpt lat="48.78907" lon="-3.40061">
        <ele>73</ele>
        <time>2011-02-20T09:32:51Z</time>
      </trkpt>
      <trkpt lat="48.78915" lon="-3.40068">
        <ele>72</ele>
        <time>2011-02-20T09:32:52Z</time>
      </trkpt>
      <trkpt lat="48.78923" lon="-3.40075">
        <ele>72</ele>
        <time>2011-02-20T09:32:53Z</time>
      </trkpt>
      <trkpt lat="48.78931" lon="-3.40082">
        <ele>72</ele>
        <time>2011-02-20T09:32:54Z</time>
      </trkpt>
      <trkpt lat="48.78939" lon="-3.40089">
        <ele>72</ele>
        <time>2011-02-20T09:32:55Z</time>
      </trkpt>
      <trkpt lat="48.78947" lon="-3.40096">
        <ele>72</ele>
        <time>2011-02-20T09:32:56Z</time>
      </trkpt>
      <trkpt lat="48.78956" lon="-3.40103">
        <ele>71</ele>
        <time>2011-02-20T09:32:57Z</time>
      </trkpt>
      <trkpt lat="48.78963" lon="-3.4011">
        <ele>71</ele>
        <time>2011-02-20T09:32:58Z</time>
      </trkpt>
      <trkpt lat="48.78971" lon="-3.40117">
        <ele>71</ele>
        <time>2011-02-20T09:32:59Z</time>
      </trkpt>
      <trkpt lat="48.78979" lon="-3.40125">
        <ele>71</ele>
        <time>2011-02-20T09:33:00Z</time>
      </trkpt>
      <trkpt lat="48.78986" lon="-3.40132">
        <ele>70</ele>
        <time>2011-02-20T09:33:01Z</time>
      </trkpt>
      <trkpt lat="48.78993" lon="-3.40141">
        <ele>70</ele>
        <time>2011-02-20T09:33:02Z</time>
      </trkpt>
      <trkpt lat="48.79" lon="-3.4015">
        <ele>70</ele>
        <time>2011-02-20T09:33:03Z</time>
      </trkpt>
      <trkpt lat="48.79007" lon="-3.4016">
        <ele>70</ele>
        <time>2011-02-20T09:33:04Z</time>
      </trkpt>
      <trkpt lat="48.79015" lon="-3.4017">
        <ele>69</ele>
        <time>2011-02-20T09:33:05Z</time>
      </trkpt>
      <trkpt lat="48.79022" lon="-3.40181">
        <ele>69</ele>
        <time>2011-02-20T09:33:06Z</time>
      </trkpt>
      <trkpt lat="48.79029" lon="-3.40192">
        <ele>69</ele>
        <time>2011-02-20T09:33:07Z</time>
      </trkpt>
      <trkpt lat="48.79036" lon="-3.40203">
        <ele>68</ele>
        <time>2011-02-20T09:33:08Z</time>
      </trkpt>
      <trkpt lat="48.79042" lon="-3.40214">
        <ele>68</ele>
        <time>2011-02-20T09:33:09Z</time>
      </trkpt>
      <trkpt lat="48.79049" lon="-3.40226">
        <ele>68</ele>
        <time>2011-02-20T09:33:10Z</time>
      </trkpt>
      <trkpt lat="48.79056" lon="-3.40238">
        <ele>67</ele>
        <time>2011-02-20T09:33:11Z</time>
      </trkpt>
      <trkpt lat="48.79062" lon="-3.4025">
        <ele>67</ele>
        <time>2011-02-20T09:33:12Z</time>
      </trkpt>
      <trkpt lat="48.79069" lon="-3.40262">
        <ele>66</ele>
        <time>2011-02-20T09:33:13Z</time>
      </trkpt>
      <trkpt lat="48.79076" lon="-3.40275">
        <ele>66</ele>
        <time>2011-02-20T09:33:14Z</time>
      </trkpt>
      <trkpt lat="48.79082" lon="-3.40287">
        <ele>66</ele>
        <time>2011-02-20T09:33:15Z</time>
      </trkpt>
      <trkpt lat="48.79089" lon="-3.403">
        <ele>65</ele>
        <time>2011-02-20T09:33:16Z</time>
      </trkpt>
      <trkpt lat="48.79096" lon="-3.40313">
        <ele>65</ele>
        <time>2011-02-20T09:33:17Z</time>
      </trkpt>
      <trkpt lat="48.79103" lon="-3.40325">
        <ele>65</ele>
        <time>2011-02-20T09:33:18Z</time>
      </trkpt>
      <trkpt lat="48.7911" lon="-3.40338">
        <ele>64</ele>
        <time>2011-02-20T09:33:19Z</time>
      </trkpt>
      <trkpt lat="48.79116" lon="-3.40351">
        <ele>64</ele>
        <time>2011-02-20T09:33:20Z</time>
      </trkpt>
      <trkpt lat="48.79123" lon="-3.40363">
        <ele>64</ele>
        <time>2011-02-20T09:33:21Z</time>
      </trkpt>
      <trkpt lat="48.79129" lon="-3.40375">
        <ele>63</ele>
        <time>2011-02-20T09:33:22Z</time>
      </trkpt>
      <trkpt lat="48.79136" lon="-3.40387">
        <ele>63</ele>
        <time>2011-02-20T09:33:23Z</time>
      </trkpt>
      <trkpt lat="48.79142" lon="-3.40398">
        <ele>63</ele>
        <time>2011-02-20T09:33:24Z</time>
      </trkpt>
      <trkpt lat="48.79147" lon="-3.40409">
        <ele>63</ele>
        <time>2011-02-20T09:33:25Z</time>
      </trkpt>
      <trkpt lat="48.79153" lon="-3.4042">
        <ele>63</ele>
        <time>2011-02-20T09:33:26Z</time>
      </trkpt>
      <trkpt lat="48.79159" lon="-3.40431">
        <ele>63</ele>
        <time>2011-02-20T09:33:27Z</time>
      </trkpt>
      <trkpt lat="48.79165" lon="-3.40442">
        <ele>63</ele>
        <time>2011-02-20T09:33:28Z</time>
      </trkpt>
      <trkpt lat="48.79171" lon="-3.40452">
        <ele>63</ele>
        <time>2011-02-20T09:33:29Z</time>
      </trkpt>
      <trkpt lat="48.79176" lon="-3.40462">
        <ele>63</ele>
        <time>2011-02-20T09:33:30Z</time>
      </trkpt>
      <trkpt lat="48.79182" lon="-3.40473">
        <ele>63</ele>
        <time>2011-02-20T09:33:31Z</time>
      </trkpt>
      <trkpt lat="48.79187" lon="-3.40482">
        <ele>63</ele>
        <time>2011-02-20T09:33:32Z</time>
      </trkpt>
      <trkpt lat="48.79192" lon="-3.40493">
        <ele>63</ele>
        <time>2011-02-20T09:33:33Z</time>
      </trkpt>
      <trkpt lat="48.79198" lon="-3.40502">
        <ele>63</ele>
        <time>2011-02-20T09:33:34Z</time>
      </trkpt>
      <trkpt lat="48.79203" lon="-3.40512">
        <ele>63</ele>
        <time>2011-02-20T09:33:35Z</time>
      </trkpt>
      <trkpt lat="48.79208" lon="-3.40522">
        <ele>63</ele>
        <time>2011-02-20T09:33:36Z</time>
      </trkpt>
      <trkpt lat="48.79214" lon="-3.40532">
        <ele>63</ele>
        <time>2011-02-20T09:33:37Z</time>
      </trkpt>
      <trkpt lat="48.79219" lon="-3.40541">
        <ele>63</ele>
        <time>2011-02-20T09:33:38Z</time>
      </trkpt>
      <trkpt lat="48.79224" lon="-3.40551">
        <ele>63</ele>
        <time>2011-02-20T09:33:39Z</time>
      </trkpt>
      <trkpt lat="48.79229" lon="-3.40561">
        <ele>63</ele>
        <time>2011-02-20T09:33:40Z</time>
      </trkpt>
      <trkpt lat="48.79234" lon="-3.4057">
        <ele>63</ele>
        <time>2011-02-20T09:33:41Z</time>
      </trkpt>
      <trkpt lat="48.7924" lon="-3.4058">
        <ele>63</ele>
        <time>2011-02-20T09:33:42Z</time>
      </trkpt>
      <trkpt lat="48.79245" lon="-3.40589">
        <ele>63</ele>
        <time>2011-02-20T09:33:43Z</time>
      </trkpt>
      <trkpt lat="48.7925" lon="-3.40599">
        <ele>63</ele>
        <time>2011-02-20T09:33:44Z</time>
      </trkpt>
      <trkpt lat="48.79255" lon="-3.40609">
        <ele>63</ele>
        <time>2011-02-20T09:33:45Z</time>
      </trkpt>
      <trkpt lat="48.79259" lon="-3.40618">
        <ele>63</ele>
        <time>2011-02-20T09:33:46Z</time>
      </trkpt>
      <trkpt lat="48.79264" lon="-3.40628">
        <ele>63</ele>
        <time>2011-02-20T09:33:47Z</time>
      </trkpt>
      <trkpt lat="48.79269" lon="-3.40637">
        <ele>63</ele>
        <time>2011-02-20T09:33:48Z</time>
      </trkpt>
      <trkpt lat="48.79274" lon="-3.40646">
        <ele>63</ele>
        <time>2011-02-20T09:33:49Z</time>
      </trkpt>
      <trkpt lat="48.79279" lon="-3.40655">
        <ele>63</ele>
        <time>2011-02-20T09:33:50Z</time>
      </trkpt>
      <trkpt lat="48.79283" lon="-3.40665">
        <ele>63</ele>
        <time>2011-02-20T09:33:51Z</time>
      </trkpt>
      <trkpt lat="48.79288" lon="-3.40675">
        <ele>63</ele>
        <time>2011-02-20T09:33:52Z</time>
      </trkpt>
      <trkpt lat="48.79292" lon="-3.40685">
        <ele>63</ele>
        <time>2011-02-20T09:33:53Z</time>
      </trkpt>
      <trkpt lat="48.79296" lon="-3.40696">
        <ele>63</ele>
        <time>2011-02-20T09:33:54Z</time>
      </trkpt>
      <trkpt lat="48.79301" lon="-3.40706">
        <ele>63</ele>
        <time>2011-02-20T09:33:55Z</time>
      </trkpt>
      <trkpt lat="48.79305" lon="-3.40717">
        <ele>63</ele>
        <time>2011-02-20T09:33:56Z</time>
      </trkpt>
      <trkpt lat="48.79309" lon="-3.40728">
        <ele>63</ele>
        <time>2011-02-20T09:33:57Z</time>
      </trkpt>
      <trkpt lat="48.79314" lon="-3.40739">
        <ele>63</ele>
        <time>2011-02-20T09:33:58Z</time>
      </trkpt>
      <trkpt lat="48.79318" lon="-3.4075">
        <ele>63</ele>
        <time>2011-02-20T09:33:59Z</time>
      </trkpt>
      <trkpt lat="48.79322" lon="-3.40761">
        <ele>63</ele>
        <time>2011-02-20T09:34:00Z</time>
      </trkpt>
      <trkpt lat="48.79326" lon="-3.40772">
        <ele>63</ele>
        <time>2011-02-20T09:34:01Z</time>
      </trkpt>
      <trkpt lat="48.7933" lon="-3.40782">
        <ele>62</ele>
        <time>2011-02-20T09:34:02Z</time>
      </trkpt>
      <trkpt lat="48.79334" lon="-3.40793">
        <ele>62</ele>
        <time>2011-02-20T09:34:03Z</time>
      </trkpt>
      <trkpt lat="48.79338" lon="-3.40805">
        <ele>62</ele>
        <time>2011-02-20T09:34:04Z</time>
      </trkpt>
      <trkpt lat="48.79342" lon="-3.40815">
        <ele>62</ele>
        <time>2011-02-20T09:34:05Z</time>
      </trkpt>
      <trkpt lat="48.79346" lon="-3.40826">
        <ele>61</ele>
        <time>2011-02-20T09:34:06Z</time>
      </trkpt>
      <trkpt lat="48.7935" lon="-3.40836">
        <ele>61</ele>
        <time>2011-02-20T09:34:07Z</time>
      </trkpt>
      <trkpt lat="48.79353" lon="-3.40845">
        <ele>61</ele>
        <time>2011-02-20T09:34:08Z</time>
      </trkpt>
      <trkpt lat="48.79356" lon="-3.40854">
        <ele>61</ele>
        <time>2011-02-20T09:34:09Z</time>
      </trkpt>
      <trkpt lat="48.79359" lon="-3.40863">
        <ele>61</ele>
        <time>2011-02-20T09:34:10Z</time>
      </trkpt>
      <trkpt lat="48.79362" lon="-3.40873">
        <ele>60</ele>
        <time>2011-02-20T09:34:11Z</time>
      </trkpt>
      <trkpt lat="48.79365" lon="-3.40882">
        <ele>60</ele>
        <time>2011-02-20T09:34:12Z</time>
      </trkpt>
      <trkpt lat="48.79368" lon="-3.40893">
        <ele>60</ele>
        <time>2011-02-20T09:34:13Z</time>
      </trkpt>
      <trkpt lat="48.79371" lon="-3.40903">
        <ele>60</ele>
        <time>2011-02-20T09:34:14Z</time>
      </trkpt>
      <trkpt lat="48.79373" lon="-3.40914">
        <ele>60</ele>
        <time>2011-02-20T09:34:15Z</time>
      </trkpt>
      <trkpt lat="48.79375" lon="-3.40926">
        <ele>60</ele>
        <time>2011-02-20T09:34:16Z</time>
      </trkpt>
      <trkpt lat="48.79379" lon="-3.40948">
        <ele>60</ele>
        <time>2011-02-20T09:34:18Z</time>
      </trkpt>
      <trkpt lat="48.79389" lon="-3.41006">
        <ele>60</ele>
        <time>2011-02-20T09:34:24Z</time>
      </trkpt>
      <trkpt lat="48.79391" lon="-3.41015">
        <ele>60</ele>
        <time>2011-02-20T09:34:25Z</time>
      </trkpt>
      <trkpt lat="48.79393" lon="-3.41024">
        <ele>60</ele>
        <time>2011-02-20T09:34:26Z</time>
      </trkpt>
      <trkpt lat="48.79396" lon="-3.41033">
        <ele>60</ele>
        <time>2011-02-20T09:34:27Z</time>
      </trkpt>
      <trkpt lat="48.79401" lon="-3.41053">
        <ele>59</ele>
        <time>2011-02-20T09:34:29Z</time>
      </trkpt>
      <trkpt lat="48.79403" lon="-3.41063">
        <ele>59</ele>
        <time>2011-02-20T09:34:30Z</time>
      </trkpt>
      <trkpt lat="48.79405" lon="-3.41073">
        <ele>59</ele>
        <time>2011-02-20T09:34:31Z</time>
      </trkpt>
      <trkpt lat="48.79407" lon="-3.41083">
        <ele>59</ele>
        <time>2011-02-20T09:34:32Z</time>
      </trkpt>
      <trkpt lat="48.79409" lon="-3.41092">
        <ele>59</ele>
        <time>2011-02-20T09:34:33Z</time>
      </trkpt>
      <trkpt lat="48.79412" lon="-3.41101">
        <ele>59</ele>
        <time>2011-02-20T09:34:34Z</time>
      </trkpt>
      <trkpt lat="48.79415" lon="-3.41109">
        <ele>59</ele>
        <time>2011-02-20T09:34:35Z</time>
      </trkpt>
      <trkpt lat="48.79419" lon="-3.41117">
        <ele>59</ele>
        <time>2011-02-20T09:34:36Z</time>
      </trkpt>
      <trkpt lat="48.79423" lon="-3.41124">
        <ele>59</ele>
        <time>2011-02-20T09:34:37Z</time>
      </trkpt>
      <trkpt lat="48.79427" lon="-3.4113">
        <ele>59</ele>
        <time>2011-02-20T09:34:38Z</time>
      </trkpt>
      <trkpt lat="48.79432" lon="-3.41137">
        <ele>59</ele>
        <time>2011-02-20T09:34:39Z</time>
      </trkpt>
      <trkpt lat="48.79436" lon="-3.41144">
        <ele>59</ele>
        <time>2011-02-20T09:34:40Z</time>
      </trkpt>
      <trkpt lat="48.7944" lon="-3.41152">
        <ele>59</ele>
        <time>2011-02-20T09:34:41Z</time>
      </trkpt>
      <trkpt lat="48.79444" lon="-3.4116">
        <ele>58</ele>
        <time>2011-02-20T09:34:42Z</time>
      </trkpt>
      <trkpt lat="48.79447" lon="-3.4117">
        <ele>58</ele>
        <time>2011-02-20T09:34:43Z</time>
      </trkpt>
      <trkpt lat="48.7945" lon="-3.4118">
        <ele>58</ele>
        <time>2011-02-20T09:34:44Z</time>
      </trkpt>
      <trkpt lat="48.79452" lon="-3.41192">
        <ele>57</ele>
        <time>2011-02-20T09:34:45Z</time>
      </trkpt>
      <trkpt lat="48.79454" lon="-3.41203">
        <ele>57</ele>
        <time>2011-02-20T09:34:46Z</time>
      </trkpt>
      <trkpt lat="48.79457" lon="-3.41215">
        <ele>56</ele>
        <time>2011-02-20T09:34:47Z</time>
      </trkpt>
      <trkpt lat="48.7946" lon="-3.41227">
        <ele>56</ele>
        <time>2011-02-20T09:34:48Z</time>
      </trkpt>
      <trkpt lat="48.79462" lon="-3.4124">
        <ele>55</ele>
        <time>2011-02-20T09:34:49Z</time>
      </trkpt>
      <trkpt lat="48.79465" lon="-3.41253">
        <ele>55</ele>
        <time>2011-02-20T09:34:50Z</time>
      </trkpt>
      <trkpt lat="48.79468" lon="-3.41267">
        <ele>54</ele>
        <time>2011-02-20T09:34:51Z</time>
      </trkpt>
      <trkpt lat="48.7947" lon="-3.41281">
        <ele>53</ele>
        <time>2011-02-20T09:34:52Z</time>
      </trkpt>
      <trkpt lat="48.79473" lon="-3.41294">
        <ele>53</ele>
        <time>2011-02-20T09:34:53Z</time>
      </trkpt>
      <trkpt lat="48.79476" lon="-3.41308">
        <ele>52</ele>
        <time>2011-02-20T09:34:54Z</time>
      </trkpt>
      <trkpt lat="48.79479" lon="-3.41322">
        <ele>51</ele>
        <time>2011-02-20T09:34:55Z</time>
      </trkpt>
      <trkpt lat="48.79482" lon="-3.41336">
        <ele>51</ele>
        <time>2011-02-20T09:34:56Z</time>
      </trkpt>
      <trkpt lat="48.79485" lon="-3.41348">
        <ele>50</ele>
        <time>2011-02-20T09:34:57Z</time>
      </trkpt>
      <trkpt lat="48.79487" lon="-3.41359">
        <ele>50</ele>
        <time>2011-02-20T09:34:58Z</time>
      </trkpt>
      <trkpt lat="48.7949" lon="-3.41369">
        <ele>49</ele>
        <time>2011-02-20T09:34:59Z</time>
      </trkpt>
      <trkpt lat="48.79492" lon="-3.41378">
        <ele>49</ele>
        <time>2011-02-20T09:35:00Z</time>
      </trkpt>
      <trkpt lat="48.795" lon="-3.41406">
        <ele>49</ele>
        <time>2011-02-20T09:35:03Z</time>
      </trkpt>
      <trkpt lat="48.795" lon="-3.41416">
        <ele>49</ele>
        <time>2011-02-20T09:35:04Z</time>
      </trkpt>
      <trkpt lat="48.79498" lon="-3.41426">
        <ele>48</ele>
        <time>2011-02-20T09:35:05Z</time>
      </trkpt>
      <trkpt lat="48.79488" lon="-3.41519">
        <ele>46</ele>
        <time>2011-02-20T09:35:13Z</time>
      </trkpt>
      <trkpt lat="48.79486" lon="-3.41531">
        <ele>45</ele>
        <time>2011-02-20T09:35:14Z</time>
      </trkpt>
      <trkpt lat="48.79482" lon="-3.41556">
        <ele>45</ele>
        <time>2011-02-20T09:35:16Z</time>
      </trkpt>
      <trkpt lat="48.79477" lon="-3.41596">
        <ele>43</ele>
        <time>2011-02-20T09:35:19Z</time>
      </trkpt>
      <trkpt lat="48.79474" lon="-3.41685">
        <ele>40</ele>
        <time>2011-02-20T09:35:25Z</time>
      </trkpt>
      <trkpt lat="48.79475" lon="-3.417">
        <ele>40</ele>
        <time>2011-02-20T09:35:26Z</time>
      </trkpt>
      <trkpt lat="48.79477" lon="-3.41716">
        <ele>39</ele>
        <time>2011-02-20T09:35:27Z</time>
      </trkpt>
      <trkpt lat="48.79479" lon="-3.41732">
        <ele>38</ele>
        <time>2011-02-20T09:35:28Z</time>
      </trkpt>
      <trkpt lat="48.79481" lon="-3.41747">
        <ele>38</ele>
        <time>2011-02-20T09:35:29Z</time>
      </trkpt>
      <trkpt lat="48.79484" lon="-3.41763">
        <ele>37</ele>
        <time>2011-02-20T09:35:30Z</time>
      </trkpt>
      <trkpt lat="48.79488" lon="-3.41779">
        <ele>37</ele>
        <time>2011-02-20T09:35:31Z</time>
      </trkpt>
      <trkpt lat="48.79492" lon="-3.41794">
        <ele>36</ele>
        <time>2011-02-20T09:35:32Z</time>
      </trkpt>
      <trkpt lat="48.79497" lon="-3.4181">
        <ele>36</ele>
        <time>2011-02-20T09:35:33Z</time>
      </trkpt>
      <trkpt lat="48.79502" lon="-3.41825">
        <ele>35</ele>
        <time>2011-02-20T09:35:34Z</time>
      </trkpt>
      <trkpt lat="48.79507" lon="-3.41841">
        <ele>34</ele>
        <time>2011-02-20T09:35:35Z</time>
      </trkpt>
      <trkpt lat="48.79512" lon="-3.41856">
        <ele>34</ele>
        <time>2011-02-20T09:35:36Z</time>
      </trkpt>
      <trkpt lat="48.79517" lon="-3.41872">
        <ele>33</ele>
        <time>2011-02-20T09:35:37Z</time>
      </trkpt>
      <trkpt lat="48.79523" lon="-3.41888">
        <ele>33</ele>
        <time>2011-02-20T09:35:38Z</time>
      </trkpt>
      <trkpt lat="48.79528" lon="-3.41904">
        <ele>32</ele>
        <time>2011-02-20T09:35:39Z</time>
      </trkpt>
      <trkpt lat="48.79533" lon="-3.4192">
        <ele>31</ele>
        <time>2011-02-20T09:35:40Z</time>
      </trkpt>
      <trkpt lat="48.79539" lon="-3.41935">
        <ele>31</ele>
        <time>2011-02-20T09:35:41Z</time>
      </trkpt>
      <trkpt lat="48.79544" lon="-3.41951">
        <ele>30</ele>
        <time>2011-02-20T09:35:42Z</time>
      </trkpt>
      <trkpt lat="48.79549" lon="-3.41968">
        <ele>30</ele>
        <time>2011-02-20T09:35:43Z</time>
      </trkpt>
      <trkpt lat="48.79554" lon="-3.41984">
        <ele>29</ele>
        <time>2011-02-20T09:35:44Z</time>
      </trkpt>
      <trkpt lat="48.79558" lon="-3.42001">
        <ele>29</ele>
        <time>2011-02-20T09:35:45Z</time>
      </trkpt>
      <trkpt lat="48.79562" lon="-3.42017">
        <ele>28</ele>
        <time>2011-02-20T09:35:46Z</time>
      </trkpt>
      <trkpt lat="48.79566" lon="-3.42034">
        <ele>27</ele>
        <time>2011-02-20T09:35:47Z</time>
      </trkpt>
      <trkpt lat="48.7957" lon="-3.42051">
        <ele>27</ele>
        <time>2011-02-20T09:35:48Z</time>
      </trkpt>
      <trkpt lat="48.79574" lon="-3.42068">
        <ele>26</ele>
        <time>2011-02-20T09:35:49Z</time>
      </trkpt>
      <trkpt lat="48.79576" lon="-3.42086">
        <ele>26</ele>
        <time>2011-02-20T09:35:50Z</time>
      </trkpt>
      <trkpt lat="48.7958" lon="-3.42104">
        <ele>25</ele>
        <time>2011-02-20T09:35:51Z</time>
      </trkpt>
      <trkpt lat="48.79582" lon="-3.42123">
        <ele>24</ele>
        <time>2011-02-20T09:35:52Z</time>
      </trkpt>
      <trkpt lat="48.79585" lon="-3.42142">
        <ele>23</ele>
        <time>2011-02-20T09:35:53Z</time>
      </trkpt>
      <trkpt lat="48.79588" lon="-3.42162">
        <ele>23</ele>
        <time>2011-02-20T09:35:54Z</time>
      </trkpt>
      <trkpt lat="48.79589" lon="-3.42183">
        <ele>22</ele>
        <time>2011-02-20T09:35:55Z</time>
      </trkpt>
      <trkpt lat="48.79591" lon="-3.42205">
        <ele>21</ele>
        <time>2011-02-20T09:35:56Z</time>
      </trkpt>
      <trkpt lat="48.79593" lon="-3.42227">
        <ele>20</ele>
        <time>2011-02-20T09:35:57Z</time>
      </trkpt>
      <trkpt lat="48.79594" lon="-3.42249">
        <ele>20</ele>
        <time>2011-02-20T09:35:58Z</time>
      </trkpt>
      <trkpt lat="48.79596" lon="-3.42271">
        <ele>19</ele>
        <time>2011-02-20T09:35:59Z</time>
      </trkpt>
      <trkpt lat="48.79598" lon="-3.42294">
        <ele>18</ele>
        <time>2011-02-20T09:36:00Z</time>
      </trkpt>
      <trkpt lat="48.79599" lon="-3.42317">
        <ele>17</ele>
        <time>2011-02-20T09:36:01Z</time>
      </trkpt>
      <trkpt lat="48.79601" lon="-3.4234">
        <ele>16</ele>
        <time>2011-02-20T09:36:02Z</time>
      </trkpt>
      <trkpt lat="48.79602" lon="-3.42363">
        <ele>15</ele>
        <time>2011-02-20T09:36:03Z</time>
      </trkpt>
      <trkpt lat="48.79604" lon="-3.42386">
        <ele>14</ele>
        <time>2011-02-20T09:36:04Z</time>
      </trkpt>
      <trkpt lat="48.79606" lon="-3.42409">
        <ele>14</ele>
        <time>2011-02-20T09:36:05Z</time>
      </trkpt>
      <trkpt lat="48.79607" lon="-3.42432">
        <ele>13</ele>
        <time>2011-02-20T09:36:06Z</time>
      </trkpt>
      <trkpt lat="48.7961" lon="-3.42455">
        <ele>12</ele>
        <time>2011-02-20T09:36:07Z</time>
      </trkpt>
      <trkpt lat="48.79612" lon="-3.42477">
        <ele>11</ele>
        <time>2011-02-20T09:36:08Z</time>
      </trkpt>
      <trkpt lat="48.79613" lon="-3.42499">
        <ele>11</ele>
        <time>2011-02-20T09:36:09Z</time>
      </trkpt>
      <trkpt lat="48.79615" lon="-3.4252">
        <ele>11</ele>
        <time>2011-02-20T09:36:10Z</time>
      </trkpt>
      <trkpt lat="48.79618" lon="-3.42541">
        <ele>11</ele>
        <time>2011-02-20T09:36:11Z</time>
      </trkpt>
      <trkpt lat="48.7962" lon="-3.42561">
        <ele>11</ele>
        <time>2011-02-20T09:36:12Z</time>
      </trkpt>
      <trkpt lat="48.79623" lon="-3.42581">
        <ele>11</ele>
        <time>2011-02-20T09:36:13Z</time>
      </trkpt>
      <trkpt lat="48.79627" lon="-3.426">
        <ele>11</ele>
        <time>2011-02-20T09:36:14Z</time>
      </trkpt>
      <trkpt lat="48.7963" lon="-3.42618">
        <ele>11</ele>
        <time>2011-02-20T09:36:15Z</time>
      </trkpt>
      <trkpt lat="48.79633" lon="-3.42636">
        <ele>11</ele>
        <time>2011-02-20T09:36:16Z</time>
      </trkpt>
      <trkpt lat="48.79637" lon="-3.42653">
        <ele>11</ele>
        <time>2011-02-20T09:36:17Z</time>
      </trkpt>
      <trkpt lat="48.7964" lon="-3.42671">
        <ele>11</ele>
        <time>2011-02-20T09:36:18Z</time>
      </trkpt>
      <trkpt lat="48.79644" lon="-3.42687">
        <ele>11</ele>
        <time>2011-02-20T09:36:19Z</time>
      </trkpt>
      <trkpt lat="48.79647" lon="-3.42704">
        <ele>11</ele>
        <time>2011-02-20T09:36:20Z</time>
      </trkpt>
      <trkpt lat="48.7965" lon="-3.4272">
        <ele>11</ele>
        <time>2011-02-20T09:36:21Z</time>
      </trkpt>
      <trkpt lat="48.79653" lon="-3.42736">
        <ele>11</ele>
        <time>2011-02-20T09:36:22Z</time>
      </trkpt>
      <trkpt lat="48.79656" lon="-3.42751">
        <ele>11</ele>
        <time>2011-02-20T09:36:23Z</time>
      </trkpt>
      <trkpt lat="48.79659" lon="-3.42766">
        <ele>11</ele>
        <time>2011-02-20T09:36:24Z</time>
      </trkpt>
      <trkpt lat="48.79662" lon="-3.42782">
        <ele>11</ele>
        <time>2011-02-20T09:36:25Z</time>
      </trkpt>
      <trkpt lat="48.79665" lon="-3.42797">
        <ele>11</ele>
        <time>2011-02-20T09:36:26Z</time>
      </trkpt>
      <trkpt lat="48.79668" lon="-3.42812">
        <ele>11</ele>
        <time>2011-02-20T09:36:27Z</time>
      </trkpt>
      <trkpt lat="48.7967" lon="-3.42827">
        <ele>11</ele>
        <time>2011-02-20T09:36:28Z</time>
      </trkpt>
      <trkpt lat="48.79673" lon="-3.42842">
        <ele>11</ele>
        <time>2011-02-20T09:36:29Z</time>
      </trkpt>
      <trkpt lat="48.79676" lon="-3.42856">
        <ele>11</ele>
        <time>2011-02-20T09:36:30Z</time>
      </trkpt>
      <trkpt lat="48.79678" lon="-3.42871">
        <ele>11</ele>
        <time>2011-02-20T09:36:31Z</time>
      </trkpt>
      <trkpt lat="48.7968" lon="-3.42885">
        <ele>11</ele>
        <time>2011-02-20T09:36:32Z</time>
      </trkpt>
      <trkpt lat="48.79682" lon="-3.42899">
        <ele>11</ele>
        <time>2011-02-20T09:36:33Z</time>
      </trkpt>
      <trkpt lat="48.79685" lon="-3.42913">
        <ele>11</ele>
        <time>2011-02-20T09:36:34Z</time>
      </trkpt>
      <trkpt lat="48.79687" lon="-3.42926">
        <ele>11</ele>
        <time>2011-02-20T09:36:35Z</time>
      </trkpt>
      <trkpt lat="48.79689" lon="-3.42939">
        <ele>11</ele>
        <time>2011-02-20T09:36:36Z</time>
      </trkpt>
      <trkpt lat="48.79691" lon="-3.42952">
        <ele>11</ele>
        <time>2011-02-20T09:36:37Z</time>
      </trkpt>
      <trkpt lat="48.79694" lon="-3.42965">
        <ele>11</ele>
        <time>2011-02-20T09:36:38Z</time>
      </trkpt>
      <trkpt lat="48.79696" lon="-3.42978">
        <ele>11</ele>
        <time>2011-02-20T09:36:39Z</time>
      </trkpt>
      <trkpt lat="48.79698" lon="-3.42991">
        <ele>11</ele>
        <time>2011-02-20T09:36:40Z</time>
      </trkpt>
      <trkpt lat="48.797" lon="-3.43004">
        <ele>11</ele>
        <time>2011-02-20T09:36:41Z</time>
      </trkpt>
      <trkpt lat="48.79702" lon="-3.43017">
        <ele>11</ele>
        <time>2011-02-20T09:36:42Z</time>
      </trkpt>
      <trkpt lat="48.79705" lon="-3.43029">
        <ele>11</ele>
        <time>2011-02-20T09:36:43Z</time>
      </trkpt>
      <trkpt lat="48.79707" lon="-3.43042">
        <ele>11</ele>
        <time>2011-02-20T09:36:44Z</time>
      </trkpt>
      <trkpt lat="48.79709" lon="-3.43055">
        <ele>11</ele>
        <time>2011-02-20T09:36:45Z</time>
      </trkpt>
      <trkpt lat="48.79711" lon="-3.43068">
        <ele>11</ele>
        <time>2011-02-20T09:36:46Z</time>
      </trkpt>
      <trkpt lat="48.79713" lon="-3.4308">
        <ele>11</ele>
        <time>2011-02-20T09:36:47Z</time>
      </trkpt>
      <trkpt lat="48.79715" lon="-3.43093">
        <ele>11</ele>
        <time>2011-02-20T09:36:48Z</time>
      </trkpt>
      <trkpt lat="48.79718" lon="-3.43105">
        <ele>11</ele>
        <time>2011-02-20T09:36:49Z</time>
      </trkpt>
      <trkpt lat="48.79721" lon="-3.4313">
        <ele>10</ele>
        <time>2011-02-20T09:36:51Z</time>
      </trkpt>
      <trkpt lat="48.79723" lon="-3.43142">
        <ele>10</ele>
        <time>2011-02-20T09:36:52Z</time>
      </trkpt>
      <trkpt lat="48.79735" lon="-3.43502">
        <ele>7</ele>
        <time>2011-02-20T09:37:24Z</time>
      </trkpt>
      <trkpt lat="48.79736" lon="-3.43514">
        <ele>7</ele>
        <time>2011-02-20T09:37:25Z</time>
      </trkpt>
      <trkpt lat="48.79738" lon="-3.43525">
        <ele>7</ele>
        <time>2011-02-20T09:37:26Z</time>
      </trkpt>
      <trkpt lat="48.7974" lon="-3.43535">
        <ele>7</ele>
        <time>2011-02-20T09:37:27Z</time>
      </trkpt>
      <trkpt lat="48.79742" lon="-3.43546">
        <ele>7</ele>
        <time>2011-02-20T09:37:28Z</time>
      </trkpt>
      <trkpt lat="48.79744" lon="-3.43556">
        <ele>7</ele>
        <time>2011-02-20T09:37:29Z</time>
      </trkpt>
      <trkpt lat="48.79747" lon="-3.43567">
        <ele>7</ele>
        <time>2011-02-20T09:37:30Z</time>
      </trkpt>
      <trkpt lat="48.7975" lon="-3.43577">
        <ele>7</ele>
        <time>2011-02-20T09:37:31Z</time>
      </trkpt>
      <trkpt lat="48.79752" lon="-3.43587">
        <ele>7</ele>
        <time>2011-02-20T09:37:32Z</time>
      </trkpt>
      <trkpt lat="48.79755" lon="-3.43597">
        <ele>7</ele>
        <time>2011-02-20T09:37:33Z</time>
      </trkpt>
      <trkpt lat="48.79758" lon="-3.43606">
        <ele>7</ele>
        <time>2011-02-20T09:37:34Z</time>
      </trkpt>
      <trkpt lat="48.79761" lon="-3.43616">
        <ele>7</ele>
        <time>2011-02-20T09:37:35Z</time>
      </trkpt>
      <trkpt lat="48.79764" lon="-3.43625">
        <ele>7</ele>
        <time>2011-02-20T09:37:36Z</time>
      </trkpt>
      <trkpt lat="48.79767" lon="-3.43635">
        <ele>7</ele>
        <time>2011-02-20T09:37:37Z</time>
      </trkpt>
      <trkpt lat="48.7977" lon="-3.43644">
        <ele>7</ele>
        <time>2011-02-20T09:37:38Z</time>
      </trkpt>
      <trkpt lat="48.79773" lon="-3.43654">
        <ele>7</ele>
        <time>2011-02-20T09:37:39Z</time>
      </trkpt>
      <trkpt lat="48.79775" lon="-3.43664">
        <ele>7</ele>
        <time>2011-02-20T09:37:40Z</time>
      </trkpt>
      <trkpt lat="48.79778" lon="-3.43673">
        <ele>7</ele>
        <time>2011-02-20T09:37:41Z</time>
      </trkpt>
      <trkpt lat="48.79781" lon="-3.43684">
        <ele>7</ele>
        <time>2011-02-20T09:37:42Z</time>
      </trkpt>
      <trkpt lat="48.79785" lon="-3.43704">
        <ele>7</ele>
        <time>2011-02-20T09:37:44Z</time>
      </trkpt>
      <trkpt lat="48.79787" lon="-3.43715">
        <ele>7</ele>
        <time>2011-02-20T09:37:45Z</time>
      </trkpt>
      <trkpt lat="48.79794" lon="-3.44072">
        <ele>7</ele>
        <time>2011-02-20T09:38:20Z</time>
      </trkpt>
      <trkpt lat="48.79795" lon="-3.44079">
        <ele>7</ele>
        <time>2011-02-20T09:38:21Z</time>
      </trkpt>
      <trkpt lat="48.79797" lon="-3.44086">
        <ele>7</ele>
        <time>2011-02-20T09:38:22Z</time>
      </trkpt>
      <trkpt lat="48.798" lon="-3.44093">
        <ele>7</ele>
        <time>2011-02-20T09:38:23Z</time>
      </trkpt>
      <trkpt lat="48.79802" lon="-3.44101">
        <ele>7</ele>
        <time>2011-02-20T09:38:24Z</time>
      </trkpt>
      <trkpt lat="48.79814" lon="-3.44169">
        <ele>7</ele>
        <time>2011-02-20T09:38:32Z</time>
      </trkpt>
      <trkpt lat="48.79816" lon="-3.44178">
        <ele>7</ele>
        <time>2011-02-20T09:38:33Z</time>
      </trkpt>
      <trkpt lat="48.79819" lon="-3.44185">
        <ele>7</ele>
        <time>2011-02-20T09:38:34Z</time>
      </trkpt>
      <trkpt lat="48.79823" lon="-3.44192">
        <ele>6</ele>
        <time>2011-02-20T09:38:35Z</time>
      </trkpt>
      <trkpt lat="48.79827" lon="-3.44197">
        <ele>6</ele>
        <time>2011-02-20T09:38:36Z</time>
      </trkpt>
      <trkpt lat="48.79832" lon="-3.442">
        <ele>6</ele>
        <time>2011-02-20T09:38:37Z</time>
      </trkpt>
      <trkpt lat="48.79837" lon="-3.44203">
        <ele>6</ele>
        <time>2011-02-20T09:38:38Z</time>
      </trkpt>
      <trkpt lat="48.79842" lon="-3.44205">
        <ele>6</ele>
        <time>2011-02-20T09:38:39Z</time>
      </trkpt>
      <trkpt lat="48.79848" lon="-3.44206">
        <ele>6</ele>
        <time>2011-02-20T09:38:40Z</time>
      </trkpt>
      <trkpt lat="48.79853" lon="-3.44208">
        <ele>6</ele>
        <time>2011-02-20T09:38:41Z</time>
      </trkpt>
      <trkpt lat="48.79858" lon="-3.44208">
        <ele>6</ele>
        <time>2011-02-20T09:38:42Z</time>
      </trkpt>
      <trkpt lat="48.79863" lon="-3.44209">
        <ele>5</ele>
        <time>2011-02-20T09:38:43Z</time>
      </trkpt>
      <trkpt lat="48.79866" lon="-3.4421">
        <ele>5</ele>
        <time>2011-02-20T09:38:44Z</time>
      </trkpt>
      <trkpt lat="48.79869" lon="-3.44211">
        <ele>5</ele>
        <time>2011-02-20T09:38:45Z</time>
      </trkpt>
      <trkpt lat="48.79871" lon="-3.44212">
        <ele>5</ele>
        <time>2011-02-20T09:38:46Z</time>
      </trkpt>
      <trkpt lat="48.79874" lon="-3.44213">
        <ele>5</ele>
        <time>2011-02-20T09:38:47Z</time>
      </trkpt>
      <trkpt lat="48.7989" lon="-3.44216">
        <ele>5</ele>
        <time>2011-02-20T09:39:15Z</time>
      </trkpt>
      <trkpt lat="48.79892" lon="-3.44216">
        <ele>5</ele>
        <time>2011-02-20T09:39:16Z</time>
      </trkpt>
      <trkpt lat="48.799" lon="-3.44219">
        <ele>5</ele>
        <time>2011-02-20T09:39:20Z</time>
      </trkpt>
      <trkpt lat="48.79902" lon="-3.44219">
        <ele>5</ele>
        <time>2011-02-20T09:39:21Z</time>
      </trkpt>
      <trkpt lat="48.79904" lon="-3.44219">
        <ele>5</ele>
        <time>2011-02-20T09:39:22Z</time>
      </trkpt>
      <trkpt lat="48.79906" lon="-3.4422">
        <ele>5</ele>
        <time>2011-02-20T09:39:23Z</time>
      </trkpt>
      <trkpt lat="48.79909" lon="-3.44222">
        <ele>5</ele>
        <time>2011-02-20T09:39:24Z</time>
      </trkpt>
      <trkpt lat="48.79921" lon="-3.44304">
        <ele>5</ele>
        <time>2011-02-20T09:39:38Z</time>
      </trkpt>
      <trkpt lat="48.79925" lon="-3.44317">
        <ele>5</ele>
        <time>2011-02-20T09:39:40Z</time>
      </trkpt>
      <trkpt lat="48.79927" lon="-3.44324">
        <ele>5</ele>
        <time>2011-02-20T09:39:41Z</time>
      </trkpt>
      <trkpt lat="48.79929" lon="-3.4433">
        <ele>5</ele>
        <time>2011-02-20T09:39:42Z</time>
      </trkpt>
      <trkpt lat="48.79932" lon="-3.44336">
        <ele>5</ele>
        <time>2011-02-20T09:39:43Z</time>
      </trkpt>
      <trkpt lat="48.79936" lon="-3.44349">
        <ele>5</ele>
        <time>2011-02-20T09:39:45Z</time>
      </trkpt>
      <trkpt lat="48.79938" lon="-3.44356">
        <ele>5</ele>
        <time>2011-02-20T09:39:46Z</time>
      </trkpt>
      <trkpt lat="48.79941" lon="-3.44363">
        <ele>5</ele>
        <time>2011-02-20T09:39:47Z</time>
      </trkpt>
      <trkpt lat="48.79943" lon="-3.4437">
        <ele>5</ele>
        <time>2011-02-20T09:39:48Z</time>
      </trkpt>
      <trkpt lat="48.79946" lon="-3.44377">
        <ele>5</ele>
        <time>2011-02-20T09:39:49Z</time>
      </trkpt>
      <trkpt lat="48.79948" lon="-3.44384">
        <ele>5</ele>
        <time>2011-02-20T09:39:50Z</time>
      </trkpt>
      <trkpt lat="48.79951" lon="-3.44391">
        <ele>5</ele>
        <time>2011-02-20T09:39:51Z</time>
      </trkpt>
      <trkpt lat="48.79954" lon="-3.44398">
        <ele>5</ele>
        <time>2011-02-20T09:39:52Z</time>
      </trkpt>
      <trkpt lat="48.79958" lon="-3.44405">
        <ele>5</ele>
        <time>2011-02-20T09:39:53Z</time>
      </trkpt>
      <trkpt lat="48.79961" lon="-3.44411">
        <ele>5</ele>
        <time>2011-02-20T09:39:54Z</time>
      </trkpt>
      <trkpt lat="48.79964" lon="-3.44417">
        <ele>5</ele>
        <time>2011-02-20T09:39:55Z</time>
      </trkpt>
      <trkpt lat="48.79968" lon="-3.44423">
        <ele>5</ele>
        <time>2011-02-20T09:39:56Z</time>
      </trkpt>
      <trkpt lat="48.79972" lon="-3.44429">
        <ele>5</ele>
        <time>2011-02-20T09:39:57Z</time>
      </trkpt>
      <trkpt lat="48.79976" lon="-3.44435">
        <ele>5</ele>
        <time>2011-02-20T09:39:58Z</time>
      </trkpt>
      <trkpt lat="48.79979" lon="-3.44441">
        <ele>5</ele>
        <time>2011-02-20T09:39:59Z</time>
      </trkpt>
      <trkpt lat="48.79982" lon="-3.44447">
        <ele>6</ele>
        <time>2011-02-20T09:40:00Z</time>
      </trkpt>
      <trkpt lat="48.79985" lon="-3.44453">
        <ele>6</ele>
        <time>2011-02-20T09:40:01Z</time>
      </trkpt>
      <trkpt lat="48.79988" lon="-3.44459">
        <ele>6</ele>
        <time>2011-02-20T09:40:02Z</time>
      </trkpt>
      <trkpt lat="48.79993" lon="-3.44471">
        <ele>7</ele>
        <time>2011-02-20T09:40:04Z</time>
      </trkpt>
      <trkpt lat="48.79998" lon="-3.44484">
        <ele>7</ele>
        <time>2011-02-20T09:40:06Z</time>
      </trkpt>
      <trkpt lat="48.80004" lon="-3.44509">
        <ele>8</ele>
        <time>2011-02-20T09:40:10Z</time>
      </trkpt>
      <trkpt lat="48.80006" lon="-3.44683">
        <ele>13</ele>
        <time>2011-02-20T09:40:36Z</time>
      </trkpt>
      <trkpt lat="48.80006" lon="-3.44689">
        <ele>13</ele>
        <time>2011-02-20T09:40:37Z</time>
      </trkpt>
      <trkpt lat="48.80008" lon="-3.44715">
        <ele>13</ele>
        <time>2011-02-20T09:40:41Z</time>
      </trkpt>
      <trkpt lat="48.80009" lon="-3.44752">
        <ele>14</ele>
        <time>2011-02-20T09:40:47Z</time>
      </trkpt>
      <trkpt lat="48.80011" lon="-3.44829">
        <ele>18</ele>
        <time>2011-02-20T09:40:59Z</time>
      </trkpt>
      <trkpt lat="48.80012" lon="-3.44854">
        <ele>19</ele>
        <time>2011-02-20T09:41:03Z</time>
      </trkpt>
      <trkpt lat="48.80013" lon="-3.44884">
        <ele>20</ele>
        <time>2011-02-20T09:41:08Z</time>
      </trkpt>
      <trkpt lat="48.80014" lon="-3.44903">
        <ele>21</ele>
        <time>2011-02-20T09:41:11Z</time>
      </trkpt>
      <trkpt lat="48.80015" lon="-3.44934">
        <ele>22</ele>
        <time>2011-02-20T09:41:16Z</time>
      </trkpt>
      <trkpt lat="48.80008" lon="-3.4505">
        <ele>27</ele>
        <time>2011-02-20T09:41:35Z</time>
      </trkpt>
      <trkpt lat="48.80006" lon="-3.45056">
        <ele>27</ele>
        <time>2011-02-20T09:41:36Z</time>
      </trkpt>
      <trkpt lat="48.80004" lon="-3.45061">
        <ele>27</ele>
        <time>2011-02-20T09:41:37Z</time>
      </trkpt>
      <trkpt lat="48.80002" lon="-3.45067">
        <ele>28</ele>
        <time>2011-02-20T09:41:38Z</time>
      </trkpt>
      <trkpt lat="48.79999" lon="-3.45072">
        <ele>28</ele>
        <time>2011-02-20T09:41:39Z</time>
      </trkpt>
      <trkpt lat="48.79997" lon="-3.45077">
        <ele>28</ele>
        <time>2011-02-20T09:41:40Z</time>
      </trkpt>
      <trkpt lat="48.79995" lon="-3.45082">
        <ele>28</ele>
        <time>2011-02-20T09:41:41Z</time>
      </trkpt>
      <trkpt lat="48.79992" lon="-3.45088">
        <ele>28</ele>
        <time>2011-02-20T09:41:42Z</time>
      </trkpt>
      <trkpt lat="48.79987" lon="-3.45098">
        <ele>29</ele>
        <time>2011-02-20T09:41:44Z</time>
      </trkpt>
      <trkpt lat="48.79983" lon="-3.45108">
        <ele>29</ele>
        <time>2011-02-20T09:41:46Z</time>
      </trkpt>
      <trkpt lat="48.79981" lon="-3.45113">
        <ele>29</ele>
        <time>2011-02-20T09:41:47Z</time>
      </trkpt>
      <trkpt lat="48.79979" lon="-3.45117">
        <ele>29</ele>
        <time>2011-02-20T09:41:48Z</time>
      </trkpt>
      <trkpt lat="48.79977" lon="-3.45123">
        <ele>29</ele>
        <time>2011-02-20T09:41:49Z</time>
      </trkpt>
      <trkpt lat="48.79974" lon="-3.45128">
        <ele>29</ele>
        <time>2011-02-20T09:41:50Z</time>
      </trkpt>
      <trkpt lat="48.79972" lon="-3.45133">
        <ele>30</ele>
        <time>2011-02-20T09:41:51Z</time>
      </trkpt>
      <trkpt lat="48.7996" lon="-3.45169">
        <ele>31</ele>
        <time>2011-02-20T09:41:57Z</time>
      </trkpt>
      <trkpt lat="48.79958" lon="-3.45175">
        <ele>32</ele>
        <time>2011-02-20T09:41:58Z</time>
      </trkpt>
      <trkpt lat="48.79954" lon="-3.45216">
        <ele>36</ele>
        <time>2011-02-20T09:42:04Z</time>
      </trkpt>
      <trkpt lat="48.79952" lon="-3.45253">
        <ele>37</ele>
        <time>2011-02-20T09:42:10Z</time>
      </trkpt>
      <trkpt lat="48.79945" lon="-3.45328">
        <ele>39</ele>
        <time>2011-02-20T09:42:22Z</time>
      </trkpt>
      <trkpt lat="48.79943" lon="-3.45335">
        <ele>39</ele>
        <time>2011-02-20T09:42:23Z</time>
      </trkpt>
      <trkpt lat="48.79941" lon="-3.4534">
        <ele>39</ele>
        <time>2011-02-20T09:42:24Z</time>
      </trkpt>
      <trkpt lat="48.79939" lon="-3.45345">
        <ele>39</ele>
        <time>2011-02-20T09:42:25Z</time>
      </trkpt>
      <trkpt lat="48.79936" lon="-3.4535">
        <ele>40</ele>
        <time>2011-02-20T09:42:26Z</time>
      </trkpt>
      <trkpt lat="48.79933" lon="-3.45355">
        <ele>40</ele>
        <time>2011-02-20T09:42:27Z</time>
      </trkpt>
      <trkpt lat="48.7993" lon="-3.45359">
        <ele>40</ele>
        <time>2011-02-20T09:42:28Z</time>
      </trkpt>
      <trkpt lat="48.79927" lon="-3.45364">
        <ele>40</ele>
        <time>2011-02-20T09:42:29Z</time>
      </trkpt>
      <trkpt lat="48.79924" lon="-3.45369">
        <ele>40</ele>
        <time>2011-02-20T09:42:30Z</time>
      </trkpt>
      <trkpt lat="48.7992" lon="-3.45374">
        <ele>40</ele>
        <time>2011-02-20T09:42:31Z</time>
      </trkpt>
      <trkpt lat="48.79917" lon="-3.45379">
        <ele>40</ele>
        <time>2011-02-20T09:42:32Z</time>
      </trkpt>
      <trkpt lat="48.79913" lon="-3.45384">
        <ele>40</ele>
        <time>2011-02-20T09:42:33Z</time>
      </trkpt>
      <trkpt lat="48.79909" lon="-3.45389">
        <ele>41</ele>
        <time>2011-02-20T09:42:34Z</time>
      </trkpt>
      <trkpt lat="48.79906" lon="-3.45393">
        <ele>41</ele>
        <time>2011-02-20T09:42:35Z</time>
      </trkpt>
      <trkpt lat="48.79902" lon="-3.45398">
        <ele>41</ele>
        <time>2011-02-20T09:42:36Z</time>
      </trkpt>
      <trkpt lat="48.79899" lon="-3.45402">
        <ele>41</ele>
        <time>2011-02-20T09:42:37Z</time>
      </trkpt>
      <trkpt lat="48.79895" lon="-3.45406">
        <ele>42</ele>
        <time>2011-02-20T09:42:38Z</time>
      </trkpt>
      <trkpt lat="48.79892" lon="-3.45411">
        <ele>42</ele>
        <time>2011-02-20T09:42:39Z</time>
      </trkpt>
      <trkpt lat="48.79888" lon="-3.45415">
        <ele>42</ele>
        <time>2011-02-20T09:42:40Z</time>
      </trkpt>
      <trkpt lat="48.79885" lon="-3.4542">
        <ele>42</ele>
        <time>2011-02-20T09:42:41Z</time>
      </trkpt>
      <trkpt lat="48.79881" lon="-3.45425">
        <ele>43</ele>
        <time>2011-02-20T09:42:42Z</time>
      </trkpt>
      <trkpt lat="48.79877" lon="-3.45429">
        <ele>43</ele>
        <time>2011-02-20T09:42:43Z</time>
      </trkpt>
      <trkpt lat="48.79874" lon="-3.45434">
        <ele>43</ele>
        <time>2011-02-20T09:42:44Z</time>
      </trkpt>
      <trkpt lat="48.7987" lon="-3.45439">
        <ele>43</ele>
        <time>2011-02-20T09:42:45Z</time>
      </trkpt>
      <trkpt lat="48.79867" lon="-3.45444">
        <ele>43</ele>
        <time>2011-02-20T09:42:46Z</time>
      </trkpt>
      <trkpt lat="48.79864" lon="-3.45449">
        <ele>44</ele>
        <time>2011-02-20T09:42:47Z</time>
      </trkpt>
      <trkpt lat="48.79861" lon="-3.45455">
        <ele>44</ele>
        <time>2011-02-20T09:42:48Z</time>
      </trkpt>
      <trkpt lat="48.79859" lon="-3.4546">
        <ele>44</ele>
        <time>2011-02-20T09:42:49Z</time>
      </trkpt>
      <trkpt lat="48.79855" lon="-3.45472">
        <ele>44</ele>
        <time>2011-02-20T09:42:51Z</time>
      </trkpt>
      <trkpt lat="48.79847" lon="-3.45496">
        <ele>44</ele>
        <time>2011-02-20T09:42:55Z</time>
      </trkpt>
      <trkpt lat="48.79842" lon="-3.45508">
        <ele>44</ele>
        <time>2011-02-20T09:42:57Z</time>
      </trkpt>
      <trkpt lat="48.79836" lon="-3.45527">
        <ele>45</ele>
        <time>2011-02-20T09:43:00Z</time>
      </trkpt>
      <trkpt lat="48.79834" lon="-3.45533">
        <ele>45</ele>
        <time>2011-02-20T09:43:01Z</time>
      </trkpt>
      <trkpt lat="48.7983" lon="-3.45547">
        <ele>46</ele>
        <time>2011-02-20T09:43:03Z</time>
      </trkpt>
      <trkpt lat="48.79825" lon="-3.4556">
        <ele>46</ele>
        <time>2011-02-20T09:43:05Z</time>
      </trkpt>
      <trkpt lat="48.79823" lon="-3.45567">
        <ele>46</ele>
        <time>2011-02-20T09:43:06Z</time>
      </trkpt>
      <trkpt lat="48.79819" lon="-3.45581">
        <ele>46</ele>
        <time>2011-02-20T09:43:08Z</time>
      </trkpt>
      <trkpt lat="48.79815" lon="-3.45594">
        <ele>46</ele>
        <time>2011-02-20T09:43:10Z</time>
      </trkpt>
      <trkpt lat="48.79813" lon="-3.45601">
        <ele>46</ele>
        <time>2011-02-20T09:43:11Z</time>
      </trkpt>
      <trkpt lat="48.7981" lon="-3.45607">
        <ele>46</ele>
        <time>2011-02-20T09:43:12Z</time>
      </trkpt>
      <trkpt lat="48.79806" lon="-3.45621">
        <ele>46</ele>
        <time>2011-02-20T09:43:14Z</time>
      </trkpt>
      <trkpt lat="48.79802" lon="-3.45635">
        <ele>46</ele>
        <time>2011-02-20T09:43:16Z</time>
      </trkpt>
      <trkpt lat="48.798" lon="-3.45642">
        <ele>46</ele>
        <time>2011-02-20T09:43:17Z</time>
      </trkpt>
      <trkpt lat="48.79797" lon="-3.45649">
        <ele>46</ele>
        <time>2011-02-20T09:43:18Z</time>
      </trkpt>
      <trkpt lat="48.79795" lon="-3.45656">
        <ele>46</ele>
        <time>2011-02-20T09:43:19Z</time>
      </trkpt>
      <trkpt lat="48.79792" lon="-3.45662">
        <ele>46</ele>
        <time>2011-02-20T09:43:20Z</time>
      </trkpt>
      <trkpt lat="48.79789" lon="-3.45668">
        <ele>46</ele>
        <time>2011-02-20T09:43:21Z</time>
      </trkpt>
      <trkpt lat="48.79785" lon="-3.45674">
        <ele>46</ele>
        <time>2011-02-20T09:43:22Z</time>
      </trkpt>
      <trkpt lat="48.79781" lon="-3.45679">
        <ele>46</ele>
        <time>2011-02-20T09:43:23Z</time>
      </trkpt>
      <trkpt lat="48.79778" lon="-3.45683">
        <ele>46</ele>
        <time>2011-02-20T09:43:24Z</time>
      </trkpt>
      <trkpt lat="48.79773" lon="-3.45687">
        <ele>46</ele>
        <time>2011-02-20T09:43:25Z</time>
      </trkpt>
      <trkpt lat="48.79769" lon="-3.4569">
        <ele>46</ele>
        <time>2011-02-20T09:43:26Z</time>
      </trkpt>
      <trkpt lat="48.79765" lon="-3.45693">
        <ele>47</ele>
        <time>2011-02-20T09:43:27Z</time>
      </trkpt>
      <trkpt lat="48.7976" lon="-3.45695">
        <ele>47</ele>
        <time>2011-02-20T09:43:28Z</time>
      </trkpt>
      <trkpt lat="48.79756" lon="-3.45697">
        <ele>47</ele>
        <time>2011-02-20T09:43:29Z</time>
      </trkpt>
      <trkpt lat="48.79752" lon="-3.45699">
        <ele>47</ele>
        <time>2011-02-20T09:43:30Z</time>
      </trkpt>
      <trkpt lat="48.79747" lon="-3.45701">
        <ele>47</ele>
        <time>2011-02-20T09:43:31Z</time>
      </trkpt>
      <trkpt lat="48.79742" lon="-3.45703">
        <ele>47</ele>
        <time>2011-02-20T09:43:32Z</time>
      </trkpt>
      <trkpt lat="48.79738" lon="-3.45705">
        <ele>48</ele>
        <time>2011-02-20T09:43:33Z</time>
      </trkpt>
      <trkpt lat="48.79734" lon="-3.45706">
        <ele>48</ele>
        <time>2011-02-20T09:43:34Z</time>
      </trkpt>
      <trkpt lat="48.79729" lon="-3.45708">
        <ele>48</ele>
        <time>2011-02-20T09:43:35Z</time>
      </trkpt>
      <trkpt lat="48.79725" lon="-3.4571">
        <ele>48</ele>
        <time>2011-02-20T09:43:36Z</time>
      </trkpt>
      <trkpt lat="48.7972" lon="-3.45712">
        <ele>48</ele>
        <time>2011-02-20T09:43:37Z</time>
      </trkpt>
      <trkpt lat="48.79716" lon="-3.45713">
        <ele>48</ele>
        <time>2011-02-20T09:43:38Z</time>
      </trkpt>
      <trkpt lat="48.79712" lon="-3.45715">
        <ele>48</ele>
        <time>2011-02-20T09:43:39Z</time>
      </trkpt>
      <trkpt lat="48.79707" lon="-3.45717">
        <ele>48</ele>
        <time>2011-02-20T09:43:40Z</time>
      </trkpt>
      <trkpt lat="48.79703" lon="-3.45718">
        <ele>48</ele>
        <time>2011-02-20T09:43:41Z</time>
      </trkpt>
      <trkpt lat="48.79699" lon="-3.4572">
        <ele>49</ele>
        <time>2011-02-20T09:43:42Z</time>
      </trkpt>
      <trkpt lat="48.79694" lon="-3.45721">
        <ele>49</ele>
        <time>2011-02-20T09:43:43Z</time>
      </trkpt>
      <trkpt lat="48.79689" lon="-3.45723">
        <ele>49</ele>
        <time>2011-02-20T09:43:44Z</time>
      </trkpt>
      <trkpt lat="48.79685" lon="-3.45724">
        <ele>49</ele>
        <time>2011-02-20T09:43:45Z</time>
      </trkpt>
      <trkpt lat="48.7968" lon="-3.45726">
        <ele>50</ele>
        <time>2011-02-20T09:43:46Z</time>
      </trkpt>
      <trkpt lat="48.79676" lon="-3.45729">
        <ele>50</ele>
        <time>2011-02-20T09:43:47Z</time>
      </trkpt>
      <trkpt lat="48.79671" lon="-3.45732">
        <ele>50</ele>
        <time>2011-02-20T09:43:48Z</time>
      </trkpt>
      <trkpt lat="48.79667" lon="-3.45736">
        <ele>50</ele>
        <time>2011-02-20T09:43:49Z</time>
      </trkpt>
      <trkpt lat="48.79663" lon="-3.45741">
        <ele>51</ele>
        <time>2011-02-20T09:43:50Z</time>
      </trkpt>
      <trkpt lat="48.7966" lon="-3.45745">
        <ele>51</ele>
        <time>2011-02-20T09:43:51Z</time>
      </trkpt>
      <trkpt lat="48.79656" lon="-3.4575">
        <ele>51</ele>
        <time>2011-02-20T09:43:52Z</time>
      </trkpt>
      <trkpt lat="48.79653" lon="-3.45755">
        <ele>52</ele>
        <time>2011-02-20T09:43:53Z</time>
      </trkpt>
      <trkpt lat="48.7965" lon="-3.4576">
        <ele>52</ele>
        <time>2011-02-20T09:43:54Z</time>
      </trkpt>
      <trkpt lat="48.79646" lon="-3.45765">
        <ele>52</ele>
        <time>2011-02-20T09:43:55Z</time>
      </trkpt>
      <trkpt lat="48.79643" lon="-3.4577">
        <ele>52</ele>
        <time>2011-02-20T09:43:56Z</time>
      </trkpt>
      <trkpt lat="48.7964" lon="-3.45774">
        <ele>53</ele>
        <time>2011-02-20T09:43:57Z</time>
      </trkpt>
      <trkpt lat="48.79637" lon="-3.45779">
        <ele>53</ele>
        <time>2011-02-20T09:43:58Z</time>
      </trkpt>
      <trkpt lat="48.79633" lon="-3.45784">
        <ele>53</ele>
        <time>2011-02-20T09:43:59Z</time>
      </trkpt>
      <trkpt lat="48.7963" lon="-3.4579">
        <ele>53</ele>
        <time>2011-02-20T09:44:00Z</time>
      </trkpt>
      <trkpt lat="48.79627" lon="-3.45795">
        <ele>53</ele>
        <time>2011-02-20T09:44:01Z</time>
      </trkpt>
      <trkpt lat="48.79623" lon="-3.458">
        <ele>54</ele>
        <time>2011-02-20T09:44:02Z</time>
      </trkpt>
      <trkpt lat="48.7962" lon="-3.45805">
        <ele>54</ele>
        <time>2011-02-20T09:44:03Z</time>
      </trkpt>
      <trkpt lat="48.79617" lon="-3.45811">
        <ele>54</ele>
        <time>2011-02-20T09:44:04Z</time>
      </trkpt>
      <trkpt lat="48.79614" lon="-3.45816">
        <ele>54</ele>
        <time>2011-02-20T09:44:05Z</time>
      </trkpt>
      <trkpt lat="48.79611" lon="-3.45822">
        <ele>55</ele>
        <time>2011-02-20T09:44:06Z</time>
      </trkpt>
      <trkpt lat="48.79608" lon="-3.45828">
        <ele>55</ele>
        <time>2011-02-20T09:44:07Z</time>
      </trkpt>
      <trkpt lat="48.79605" lon="-3.45834">
        <ele>55</ele>
        <time>2011-02-20T09:44:08Z</time>
      </trkpt>
      <trkpt lat="48.79602" lon="-3.45841">
        <ele>55</ele>
        <time>2011-02-20T09:44:09Z</time>
      </trkpt>
      <trkpt lat="48.79599" lon="-3.45847">
        <ele>56</ele>
        <time>2011-02-20T09:44:10Z</time>
      </trkpt>
      <trkpt lat="48.79596" lon="-3.45854">
        <ele>56</ele>
        <time>2011-02-20T09:44:11Z</time>
      </trkpt>
      <trkpt lat="48.79593" lon="-3.45861">
        <ele>56</ele>
        <time>2011-02-20T09:44:12Z</time>
      </trkpt>
      <trkpt lat="48.79591" lon="-3.45867">
        <ele>56</ele>
        <time>2011-02-20T09:44:13Z</time>
      </trkpt>
      <trkpt lat="48.79588" lon="-3.45875">
        <ele>56</ele>
        <time>2011-02-20T09:44:14Z</time>
      </trkpt>
      <trkpt lat="48.79585" lon="-3.45882">
        <ele>56</ele>
        <time>2011-02-20T09:44:15Z</time>
      </trkpt>
      <trkpt lat="48.79582" lon="-3.45889">
        <ele>56</ele>
        <time>2011-02-20T09:44:16Z</time>
      </trkpt>
      <trkpt lat="48.7958" lon="-3.45896">
        <ele>57</ele>
        <time>2011-02-20T09:44:17Z</time>
      </trkpt>
      <trkpt lat="48.79577" lon="-3.45903">
        <ele>57</ele>
        <time>2011-02-20T09:44:18Z</time>
      </trkpt>
      <trkpt lat="48.79574" lon="-3.4591">
        <ele>57</ele>
        <time>2011-02-20T09:44:19Z</time>
      </trkpt>
      <trkpt lat="48.79572" lon="-3.45917">
        <ele>57</ele>
        <time>2011-02-20T09:44:20Z</time>
      </trkpt>
      <trkpt lat="48.79569" lon="-3.45924">
        <ele>57</ele>
        <time>2011-02-20T09:44:21Z</time>
      </trkpt>
      <trkpt lat="48.79567" lon="-3.45931">
        <ele>57</ele>
        <time>2011-02-20T09:44:22Z</time>
      </trkpt>
      <trkpt lat="48.79564" lon="-3.45937">
        <ele>58</ele>
        <time>2011-02-20T09:44:23Z</time>
      </trkpt>
      <trkpt lat="48.79561" lon="-3.45944">
        <ele>58</ele>
        <time>2011-02-20T09:44:24Z</time>
      </trkpt>
      <trkpt lat="48.79559" lon="-3.45951">
        <ele>58</ele>
        <time>2011-02-20T09:44:25Z</time>
      </trkpt>
      <trkpt lat="48.79556" lon="-3.45958">
        <ele>58</ele>
        <time>2011-02-20T09:44:26Z</time>
      </trkpt>
      <trkpt lat="48.79553" lon="-3.45965">
        <ele>58</ele>
        <time>2011-02-20T09:44:27Z</time>
      </trkpt>
      <trkpt lat="48.79551" lon="-3.45972">
        <ele>58</ele>
        <time>2011-02-20T09:44:28Z</time>
      </trkpt>
      <trkpt lat="48.79548" lon="-3.45979">
        <ele>58</ele>
        <time>2011-02-20T09:44:29Z</time>
      </trkpt>
      <trkpt lat="48.79545" lon="-3.45986">
        <ele>58</ele>
        <time>2011-02-20T09:44:30Z</time>
      </trkpt>
      <trkpt lat="48.79543" lon="-3.45993">
        <ele>59</ele>
        <time>2011-02-20T09:44:31Z</time>
      </trkpt>
      <trkpt lat="48.7954" lon="-3.46001">
        <ele>59</ele>
        <time>2011-02-20T09:44:32Z</time>
      </trkpt>
      <trkpt lat="48.79538" lon="-3.46009">
        <ele>59</ele>
        <time>2011-02-20T09:44:33Z</time>
      </trkpt>
      <trkpt lat="48.79533" lon="-3.46024">
        <ele>59</ele>
        <time>2011-02-20T09:44:35Z</time>
      </trkpt>
      <trkpt lat="48.79523" lon="-3.46061">
        <ele>59</ele>
        <time>2011-02-20T09:44:40Z</time>
      </trkpt>
      <trkpt lat="48.79519" lon="-3.46076">
        <ele>60</ele>
        <time>2011-02-20T09:44:42Z</time>
      </trkpt>
      <trkpt lat="48.79517" lon="-3.46083">
        <ele>60</ele>
        <time>2011-02-20T09:44:43Z</time>
      </trkpt>
      <trkpt lat="48.79515" lon="-3.46091">
        <ele>60</ele>
        <time>2011-02-20T09:44:44Z</time>
      </trkpt>
      <trkpt lat="48.79512" lon="-3.46098">
        <ele>61</ele>
        <time>2011-02-20T09:44:45Z</time>
      </trkpt>
      <trkpt lat="48.7951" lon="-3.46105">
        <ele>61</ele>
        <time>2011-02-20T09:44:46Z</time>
      </trkpt>
      <trkpt lat="48.79508" lon="-3.46113">
        <ele>61</ele>
        <time>2011-02-20T09:44:47Z</time>
      </trkpt>
      <trkpt lat="48.79505" lon="-3.4612">
        <ele>61</ele>
        <time>2011-02-20T09:44:48Z</time>
      </trkpt>
      <trkpt lat="48.79503" lon="-3.46128">
        <ele>61</ele>
        <time>2011-02-20T09:44:49Z</time>
      </trkpt>
      <trkpt lat="48.79501" lon="-3.46135">
        <ele>61</ele>
        <time>2011-02-20T09:44:50Z</time>
      </trkpt>
      <trkpt lat="48.79498" lon="-3.46143">
        <ele>61</ele>
        <time>2011-02-20T09:44:51Z</time>
      </trkpt>
      <trkpt lat="48.79496" lon="-3.4615">
        <ele>61</ele>
        <time>2011-02-20T09:44:52Z</time>
      </trkpt>
      <trkpt lat="48.79489" lon="-3.46174">
        <ele>62</ele>
        <time>2011-02-20T09:44:55Z</time>
      </trkpt>
      <trkpt lat="48.7948" lon="-3.46251">
        <ele>63</ele>
        <time>2011-02-20T09:45:04Z</time>
      </trkpt>
      <trkpt lat="48.79478" lon="-3.46259">
        <ele>63</ele>
        <time>2011-02-20T09:45:05Z</time>
      </trkpt>
      <trkpt lat="48.79476" lon="-3.46268">
        <ele>63</ele>
        <time>2011-02-20T09:45:06Z</time>
      </trkpt>
      <trkpt lat="48.79474" lon="-3.46276">
        <ele>63</ele>
        <time>2011-02-20T09:45:07Z</time>
      </trkpt>
      <trkpt lat="48.7947" lon="-3.46284">
        <ele>63</ele>
        <time>2011-02-20T09:45:08Z</time>
      </trkpt>
      <trkpt lat="48.79467" lon="-3.46291">
        <ele>63</ele>
        <time>2011-02-20T09:45:09Z</time>
      </trkpt>
      <trkpt lat="48.79464" lon="-3.46299">
        <ele>63</ele>
        <time>2011-02-20T09:45:10Z</time>
      </trkpt>
      <trkpt lat="48.7946" lon="-3.46306">
        <ele>63</ele>
        <time>2011-02-20T09:45:11Z</time>
      </trkpt>
      <trkpt lat="48.79456" lon="-3.46313">
        <ele>63</ele>
        <time>2011-02-20T09:45:12Z</time>
      </trkpt>
      <trkpt lat="48.79452" lon="-3.4632">
        <ele>63</ele>
        <time>2011-02-20T09:45:13Z</time>
      </trkpt>
      <trkpt lat="48.79448" lon="-3.46327">
        <ele>63</ele>
        <time>2011-02-20T09:45:14Z</time>
      </trkpt>
      <trkpt lat="48.79445" lon="-3.46334">
        <ele>63</ele>
        <time>2011-02-20T09:45:15Z</time>
      </trkpt>
      <trkpt lat="48.79441" lon="-3.4634">
        <ele>63</ele>
        <time>2011-02-20T09:45:16Z</time>
      </trkpt>
      <trkpt lat="48.79436" lon="-3.46347">
        <ele>63</ele>
        <time>2011-02-20T09:45:17Z</time>
      </trkpt>
      <trkpt lat="48.79432" lon="-3.46353">
        <ele>63</ele>
        <time>2011-02-20T09:45:18Z</time>
      </trkpt>
      <trkpt lat="48.79428" lon="-3.4636">
        <ele>63</ele>
        <time>2011-02-20T09:45:19Z</time>
      </trkpt>
      <trkpt lat="48.79424" lon="-3.46367">
        <ele>63</ele>
        <time>2011-02-20T09:45:20Z</time>
      </trkpt>
      <trkpt lat="48.7942" lon="-3.46375">
        <ele>63</ele>
        <time>2011-02-20T09:45:21Z</time>
      </trkpt>
      <trkpt lat="48.79417" lon="-3.46382">
        <ele>63</ele>
        <time>2011-02-20T09:45:22Z</time>
      </trkpt>
      <trkpt lat="48.79413" lon="-3.4639">
        <ele>63</ele>
        <time>2011-02-20T09:45:23Z</time>
      </trkpt>
      <trkpt lat="48.7941" lon="-3.46398">
        <ele>63</ele>
        <time>2011-02-20T09:45:24Z</time>
      </trkpt>
      <trkpt lat="48.79407" lon="-3.46407">
        <ele>63</ele>
        <time>2011-02-20T09:45:25Z</time>
      </trkpt>
      <trkpt lat="48.79404" lon="-3.46415">
        <ele>63</ele>
        <time>2011-02-20T09:45:26Z</time>
      </trkpt>
      <trkpt lat="48.79401" lon="-3.46423">
        <ele>63</ele>
        <time>2011-02-20T09:45:27Z</time>
      </trkpt>
      <trkpt lat="48.79398" lon="-3.46432">
        <ele>63</ele>
        <time>2011-02-20T09:45:28Z</time>
      </trkpt>
      <trkpt lat="48.79396" lon="-3.4644">
        <ele>63</ele>
        <time>2011-02-20T09:45:29Z</time>
      </trkpt>
      <trkpt lat="48.79393" lon="-3.46448">
        <ele>63</ele>
        <time>2011-02-20T09:45:30Z</time>
      </trkpt>
      <trkpt lat="48.7939" lon="-3.46456">
        <ele>63</ele>
        <time>2011-02-20T09:45:31Z</time>
      </trkpt>
      <trkpt lat="48.79388" lon="-3.46464">
        <ele>63</ele>
        <time>2011-02-20T09:45:32Z</time>
      </trkpt>
      <trkpt lat="48.79385" lon="-3.46473">
        <ele>63</ele>
        <time>2011-02-20T09:45:33Z</time>
      </trkpt>
      <trkpt lat="48.79382" lon="-3.46481">
        <ele>63</ele>
        <time>2011-02-20T09:45:34Z</time>
      </trkpt>
      <trkpt lat="48.79379" lon="-3.46489">
        <ele>63</ele>
        <time>2011-02-20T09:45:35Z</time>
      </trkpt>
      <trkpt lat="48.79377" lon="-3.46498">
        <ele>63</ele>
        <time>2011-02-20T09:45:36Z</time>
      </trkpt>
      <trkpt lat="48.79374" lon="-3.46507">
        <ele>63</ele>
        <time>2011-02-20T09:45:37Z</time>
      </trkpt>
      <trkpt lat="48.79372" lon="-3.46515">
        <ele>63</ele>
        <time>2011-02-20T09:45:38Z</time>
      </trkpt>
      <trkpt lat="48.79346" lon="-3.46651">
        <ele>65</ele>
        <time>2011-02-20T09:45:53Z</time>
      </trkpt>
      <trkpt lat="48.79337" lon="-3.46712">
        <ele>65</ele>
        <time>2011-02-20T09:46:00Z</time>
      </trkpt>
      <trkpt lat="48.7934" lon="-3.46841">
        <ele>67</ele>
        <time>2011-02-20T09:46:14Z</time>
      </trkpt>
      <trkpt lat="48.79342" lon="-3.4685">
        <ele>67</ele>
        <time>2011-02-20T09:46:15Z</time>
      </trkpt>
      <trkpt lat="48.79332" lon="-3.47014">
        <ele>69</ele>
        <time>2011-02-20T09:46:33Z</time>
      </trkpt>
      <trkpt lat="48.79327" lon="-3.47039">
        <ele>70</ele>
        <time>2011-02-20T09:46:36Z</time>
      </trkpt>
      <trkpt lat="48.79326" lon="-3.47048">
        <ele>70</ele>
        <time>2011-02-20T09:46:37Z</time>
      </trkpt>
      <trkpt lat="48.79324" lon="-3.47066">
        <ele>71</ele>
        <time>2011-02-20T09:46:39Z</time>
      </trkpt>
      <trkpt lat="48.79325" lon="-3.47166">
        <ele>72</ele>
        <time>2011-02-20T09:46:50Z</time>
      </trkpt>
      <trkpt lat="48.7934" lon="-3.47442">
        <ele>77</ele>
        <time>2011-02-20T09:47:20Z</time>
      </trkpt>
      <trkpt lat="48.79337" lon="-3.47766">
        <ele>81</ele>
        <time>2011-02-20T09:47:54Z</time>
      </trkpt>
      <trkpt lat="48.79339" lon="-3.47777">
        <ele>81</ele>
        <time>2011-02-20T09:47:55Z</time>
      </trkpt>
      <trkpt lat="48.79342" lon="-3.47787">
        <ele>81</ele>
        <time>2011-02-20T09:47:56Z</time>
      </trkpt>
      <trkpt lat="48.79344" lon="-3.47797">
        <ele>81</ele>
        <time>2011-02-20T09:47:57Z</time>
      </trkpt>
      <trkpt lat="48.79346" lon="-3.47807">
        <ele>81</ele>
        <time>2011-02-20T09:47:58Z</time>
      </trkpt>
      <trkpt lat="48.79349" lon="-3.47817">
        <ele>81</ele>
        <time>2011-02-20T09:47:59Z</time>
      </trkpt>
      <trkpt lat="48.79351" lon="-3.47827">
        <ele>81</ele>
        <time>2011-02-20T09:48:00Z</time>
      </trkpt>
      <trkpt lat="48.79358" lon="-3.47859">
        <ele>81</ele>
        <time>2011-02-20T09:48:03Z</time>
      </trkpt>
      <trkpt lat="48.7936" lon="-3.47977">
        <ele>81</ele>
        <time>2011-02-20T09:48:14Z</time>
      </trkpt>
      <trkpt lat="48.79354" lon="-3.48008">
        <ele>81</ele>
        <time>2011-02-20T09:48:17Z</time>
      </trkpt>
      <trkpt lat="48.79352" lon="-3.48018">
        <ele>81</ele>
        <time>2011-02-20T09:48:18Z</time>
      </trkpt>
      <trkpt lat="48.79347" lon="-3.48037">
        <ele>81</ele>
        <time>2011-02-20T09:48:20Z</time>
      </trkpt>
      <trkpt lat="48.79345" lon="-3.48046">
        <ele>81</ele>
        <time>2011-02-20T09:48:21Z</time>
      </trkpt>
      <trkpt lat="48.79343" lon="-3.48055">
        <ele>81</ele>
        <time>2011-02-20T09:48:22Z</time>
      </trkpt>
      <trkpt lat="48.79341" lon="-3.48064">
        <ele>81</ele>
        <time>2011-02-20T09:48:23Z</time>
      </trkpt>
      <trkpt lat="48.79338" lon="-3.48073">
        <ele>81</ele>
        <time>2011-02-20T09:48:24Z</time>
      </trkpt>
      <trkpt lat="48.79336" lon="-3.48082">
        <ele>81</ele>
        <time>2011-02-20T09:48:25Z</time>
      </trkpt>
      <trkpt lat="48.79334" lon="-3.48091">
        <ele>81</ele>
        <time>2011-02-20T09:48:26Z</time>
      </trkpt>
      <trkpt lat="48.79332" lon="-3.481">
        <ele>81</ele>
        <time>2011-02-20T09:48:27Z</time>
      </trkpt>
      <trkpt lat="48.79329" lon="-3.48109">
        <ele>82</ele>
        <time>2011-02-20T09:48:28Z</time>
      </trkpt>
      <trkpt lat="48.79325" lon="-3.48127">
        <ele>82</ele>
        <time>2011-02-20T09:48:30Z</time>
      </trkpt>
      <trkpt lat="48.79321" lon="-3.48146">
        <ele>82</ele>
        <time>2011-02-20T09:48:32Z</time>
      </trkpt>
      <trkpt lat="48.79319" lon="-3.48155">
        <ele>82</ele>
        <time>2011-02-20T09:48:33Z</time>
      </trkpt>
      <trkpt lat="48.79316" lon="-3.48164">
        <ele>82</ele>
        <time>2011-02-20T09:48:34Z</time>
      </trkpt>
      <trkpt lat="48.79312" lon="-3.48181">
        <ele>83</ele>
        <time>2011-02-20T09:48:36Z</time>
      </trkpt>
      <trkpt lat="48.7929" lon="-3.48265">
        <ele>86</ele>
        <time>2011-02-20T09:48:48Z</time>
      </trkpt>
      <trkpt lat="48.79288" lon="-3.48271">
        <ele>86</ele>
        <time>2011-02-20T09:48:49Z</time>
      </trkpt>
      <trkpt lat="48.79285" lon="-3.48277">
        <ele>86</ele>
        <time>2011-02-20T09:48:50Z</time>
      </trkpt>
      <trkpt lat="48.79283" lon="-3.48283">
        <ele>87</ele>
        <time>2011-02-20T09:48:51Z</time>
      </trkpt>
      <trkpt lat="48.79281" lon="-3.4829">
        <ele>87</ele>
        <time>2011-02-20T09:48:52Z</time>
      </trkpt>
      <trkpt lat="48.79279" lon="-3.48296">
        <ele>87</ele>
        <time>2011-02-20T09:48:53Z</time>
      </trkpt>
      <trkpt lat="48.79276" lon="-3.48302">
        <ele>87</ele>
        <time>2011-02-20T09:48:54Z</time>
      </trkpt>
      <trkpt lat="48.79274" lon="-3.48308">
        <ele>87</ele>
        <time>2011-02-20T09:48:55Z</time>
      </trkpt>
      <trkpt lat="48.79271" lon="-3.48314">
        <ele>87</ele>
        <time>2011-02-20T09:48:56Z</time>
      </trkpt>
      <trkpt lat="48.79269" lon="-3.4832">
        <ele>87</ele>
        <time>2011-02-20T09:48:57Z</time>
      </trkpt>
      <trkpt lat="48.79266" lon="-3.48326">
        <ele>88</ele>
        <time>2011-02-20T09:48:58Z</time>
      </trkpt>
      <trkpt lat="48.79264" lon="-3.48331">
        <ele>88</ele>
        <time>2011-02-20T09:48:59Z</time>
      </trkpt>
      <trkpt lat="48.79261" lon="-3.48337">
        <ele>88</ele>
        <time>2011-02-20T09:49:00Z</time>
      </trkpt>
      <trkpt lat="48.79258" lon="-3.48342">
        <ele>88</ele>
        <time>2011-02-20T09:49:01Z</time>
      </trkpt>
      <trkpt lat="48.79256" lon="-3.48347">
        <ele>88</ele>
        <time>2011-02-20T09:49:02Z</time>
      </trkpt>
      <trkpt lat="48.79253" lon="-3.48352">
        <ele>89</ele>
        <time>2011-02-20T09:49:03Z</time>
      </trkpt>
      <trkpt lat="48.7925" lon="-3.48356">
        <ele>89</ele>
        <time>2011-02-20T09:49:04Z</time>
      </trkpt>
      <trkpt lat="48.79247" lon="-3.4836">
        <ele>89</ele>
        <time>2011-02-20T09:49:05Z</time>
      </trkpt>
      <trkpt lat="48.79244" lon="-3.48364">
        <ele>89</ele>
        <time>2011-02-20T09:49:06Z</time>
      </trkpt>
      <trkpt lat="48.79232" lon="-3.48394">
        <ele>89</ele>
        <time>2011-02-20T09:49:12Z</time>
      </trkpt>
      <trkpt lat="48.79225" lon="-3.48443">
        <ele>89</ele>
        <time>2011-02-20T09:49:21Z</time>
      </trkpt>
      <trkpt lat="48.79223" lon="-3.48449">
        <ele>89</ele>
        <time>2011-02-20T09:49:22Z</time>
      </trkpt>
      <trkpt lat="48.7922" lon="-3.48455">
        <ele>89</ele>
        <time>2011-02-20T09:49:23Z</time>
      </trkpt>
      <trkpt lat="48.79216" lon="-3.4846">
        <ele>89</ele>
        <time>2011-02-20T09:49:24Z</time>
      </trkpt>
      <trkpt lat="48.7921" lon="-3.48464">
        <ele>89</ele>
        <time>2011-02-20T09:49:25Z</time>
      </trkpt>
      <trkpt lat="48.79204" lon="-3.48468">
        <ele>89</ele>
        <time>2011-02-20T09:49:26Z</time>
      </trkpt>
      <trkpt lat="48.79198" lon="-3.48474">
        <ele>89</ele>
        <time>2011-02-20T09:49:27Z</time>
      </trkpt>
      <trkpt lat="48.79192" lon="-3.48479">
        <ele>89</ele>
        <time>2011-02-20T09:49:28Z</time>
      </trkpt>
      <trkpt lat="48.79185" lon="-3.48485">
        <ele>89</ele>
        <time>2011-02-20T09:49:29Z</time>
      </trkpt>
      <trkpt lat="48.79179" lon="-3.48491">
        <ele>89</ele>
        <time>2011-02-20T09:49:30Z</time>
      </trkpt>
      <trkpt lat="48.79172" lon="-3.48498">
        <ele>89</ele>
        <time>2011-02-20T09:49:31Z</time>
      </trkpt>
      <trkpt lat="48.79166" lon="-3.48504">
        <ele>89</ele>
        <time>2011-02-20T09:49:32Z</time>
      </trkpt>
      <trkpt lat="48.7916" lon="-3.48511">
        <ele>89</ele>
        <time>2011-02-20T09:49:33Z</time>
      </trkpt>
      <trkpt lat="48.79153" lon="-3.48518">
        <ele>89</ele>
        <time>2011-02-20T09:49:34Z</time>
      </trkpt>
      <trkpt lat="48.79147" lon="-3.48525">
        <ele>89</ele>
        <time>2011-02-20T09:49:35Z</time>
      </trkpt>
      <trkpt lat="48.79141" lon="-3.48532">
        <ele>89</ele>
        <time>2011-02-20T09:49:36Z</time>
      </trkpt>
      <trkpt lat="48.79134" lon="-3.48538">
        <ele>89</ele>
        <time>2011-02-20T09:49:37Z</time>
      </trkpt>
      <trkpt lat="48.79129" lon="-3.48545">
        <ele>89</ele>
        <time>2011-02-20T09:49:38Z</time>
      </trkpt>
      <trkpt lat="48.79123" lon="-3.48551">
        <ele>89</ele>
        <time>2011-02-20T09:49:39Z</time>
      </trkpt>
      <trkpt lat="48.79117" lon="-3.48557">
        <ele>89</ele>
        <time>2011-02-20T09:49:40Z</time>
      </trkpt>
      <trkpt lat="48.79111" lon="-3.48564">
        <ele>89</ele>
        <time>2011-02-20T09:49:41Z</time>
      </trkpt>
      <trkpt lat="48.79107" lon="-3.48569">
        <ele>89</ele>
        <time>2011-02-20T09:49:42Z</time>
      </trkpt>
      <trkpt lat="48.79102" lon="-3.48575">
        <ele>89</ele>
        <time>2011-02-20T09:49:43Z</time>
      </trkpt>
      <trkpt lat="48.79097" lon="-3.48581">
        <ele>89</ele>
        <time>2011-02-20T09:49:44Z</time>
      </trkpt>
      <trkpt lat="48.79092" lon="-3.48587">
        <ele>89</ele>
        <time>2011-02-20T09:49:45Z</time>
      </trkpt>
      <trkpt lat="48.79087" lon="-3.48593">
        <ele>89</ele>
        <time>2011-02-20T09:49:46Z</time>
      </trkpt>
      <trkpt lat="48.79082" lon="-3.48599">
        <ele>89</ele>
        <time>2011-02-20T09:49:47Z</time>
      </trkpt>
      <trkpt lat="48.79077" lon="-3.48605">
        <ele>89</ele>
        <time>2011-02-20T09:49:48Z</time>
      </trkpt>
      <trkpt lat="48.79072" lon="-3.48611">
        <ele>89</ele>
        <time>2011-02-20T09:49:49Z</time>
      </trkpt>
      <trkpt lat="48.79066" lon="-3.48617">
        <ele>89</ele>
        <time>2011-02-20T09:49:50Z</time>
      </trkpt>
      <trkpt lat="48.79061" lon="-3.48622">
        <ele>89</ele>
        <time>2011-02-20T09:49:51Z</time>
      </trkpt>
      <trkpt lat="48.79055" lon="-3.48628">
        <ele>89</ele>
        <time>2011-02-20T09:49:52Z</time>
      </trkpt>
      <trkpt lat="48.7905" lon="-3.48633">
        <ele>89</ele>
        <time>2011-02-20T09:49:53Z</time>
      </trkpt>
      <trkpt lat="48.79044" lon="-3.48638">
        <ele>89</ele>
        <time>2011-02-20T09:49:54Z</time>
      </trkpt>
      <trkpt lat="48.79039" lon="-3.48644">
        <ele>89</ele>
        <time>2011-02-20T09:49:55Z</time>
      </trkpt>
      <trkpt lat="48.79034" lon="-3.48649">
        <ele>89</ele>
        <time>2011-02-20T09:49:56Z</time>
      </trkpt>
      <trkpt lat="48.79029" lon="-3.48655">
        <ele>89</ele>
        <time>2011-02-20T09:49:57Z</time>
      </trkpt>
      <trkpt lat="48.79024" lon="-3.4866">
        <ele>89</ele>
        <time>2011-02-20T09:49:58Z</time>
      </trkpt>
      <trkpt lat="48.7902" lon="-3.48666">
        <ele>89</ele>
        <time>2011-02-20T09:49:59Z</time>
      </trkpt>
      <trkpt lat="48.79015" lon="-3.48672">
        <ele>89</ele>
        <time>2011-02-20T09:50:00Z</time>
      </trkpt>
      <trkpt lat="48.79011" lon="-3.48679">
        <ele>89</ele>
        <time>2011-02-20T09:50:01Z</time>
      </trkpt>
      <trkpt lat="48.79007" lon="-3.48686">
        <ele>89</ele>
        <time>2011-02-20T09:50:02Z</time>
      </trkpt>
      <trkpt lat="48.79002" lon="-3.48692">
        <ele>89</ele>
        <time>2011-02-20T09:50:03Z</time>
      </trkpt>
      <trkpt lat="48.78998" lon="-3.48699">
        <ele>89</ele>
        <time>2011-02-20T09:50:04Z</time>
      </trkpt>
      <trkpt lat="48.78993" lon="-3.48706">
        <ele>89</ele>
        <time>2011-02-20T09:50:05Z</time>
      </trkpt>
      <trkpt lat="48.78989" lon="-3.48713">
        <ele>89</ele>
        <time>2011-02-20T09:50:06Z</time>
      </trkpt>
      <trkpt lat="48.78984" lon="-3.4872">
        <ele>89</ele>
        <time>2011-02-20T09:50:07Z</time>
      </trkpt>
      <trkpt lat="48.78979" lon="-3.48727">
        <ele>89</ele>
        <time>2011-02-20T09:50:08Z</time>
      </trkpt>
      <trkpt lat="48.78974" lon="-3.48733">
        <ele>89</ele>
        <time>2011-02-20T09:50:09Z</time>
      </trkpt>
      <trkpt lat="48.78969" lon="-3.48739">
        <ele>89</ele>
        <time>2011-02-20T09:50:10Z</time>
      </trkpt>
      <trkpt lat="48.78965" lon="-3.48745">
        <ele>89</ele>
        <time>2011-02-20T09:50:11Z</time>
      </trkpt>
      <trkpt lat="48.7896" lon="-3.48752">
        <ele>89</ele>
        <time>2011-02-20T09:50:12Z</time>
      </trkpt>
      <trkpt lat="48.78954" lon="-3.48758">
        <ele>89</ele>
        <time>2011-02-20T09:50:13Z</time>
      </trkpt>
      <trkpt lat="48.78949" lon="-3.48764">
        <ele>89</ele>
        <time>2011-02-20T09:50:14Z</time>
      </trkpt>
      <trkpt lat="48.78944" lon="-3.48771">
        <ele>89</ele>
        <time>2011-02-20T09:50:15Z</time>
      </trkpt>
      <trkpt lat="48.78939" lon="-3.48777">
        <ele>89</ele>
        <time>2011-02-20T09:50:16Z</time>
      </trkpt>
      <trkpt lat="48.78933" lon="-3.48784">
        <ele>89</ele>
        <time>2011-02-20T09:50:17Z</time>
      </trkpt>
      <trkpt lat="48.78928" lon="-3.48791">
        <ele>89</ele>
        <time>2011-02-20T09:50:18Z</time>
      </trkpt>
      <trkpt lat="48.78923" lon="-3.48797">
        <ele>89</ele>
        <time>2011-02-20T09:50:19Z</time>
      </trkpt>
      <trkpt lat="48.78917" lon="-3.48804">
        <ele>89</ele>
        <time>2011-02-20T09:50:20Z</time>
      </trkpt>
      <trkpt lat="48.78912" lon="-3.48811">
        <ele>89</ele>
        <time>2011-02-20T09:50:21Z</time>
      </trkpt>
      <trkpt lat="48.78907" lon="-3.48818">
        <ele>89</ele>
        <time>2011-02-20T09:50:22Z</time>
      </trkpt>
      <trkpt lat="48.78902" lon="-3.48825">
        <ele>89</ele>
        <time>2011-02-20T09:50:23Z</time>
      </trkpt>
      <trkpt lat="48.78896" lon="-3.48831">
        <ele>89</ele>
        <time>2011-02-20T09:50:24Z</time>
      </trkpt>
      <trkpt lat="48.78892" lon="-3.48838">
        <ele>89</ele>
        <time>2011-02-20T09:50:25Z</time>
      </trkpt>
      <trkpt lat="48.78887" lon="-3.48845">
        <ele>89</ele>
        <time>2011-02-20T09:50:26Z</time>
      </trkpt>
      <trkpt lat="48.78882" lon="-3.48852">
        <ele>89</ele>
        <time>2011-02-20T09:50:27Z</time>
      </trkpt>
      <trkpt lat="48.78877" lon="-3.48858">
        <ele>89</ele>
        <time>2011-02-20T09:50:28Z</time>
      </trkpt>
      <trkpt lat="48.78873" lon="-3.48865">
        <ele>89</ele>
        <time>2011-02-20T09:50:29Z</time>
      </trkpt>
      <trkpt lat="48.78868" lon="-3.48872">
        <ele>89</ele>
        <time>2011-02-20T09:50:30Z</time>
      </trkpt>
      <trkpt lat="48.78864" lon="-3.48879">
        <ele>89</ele>
        <time>2011-02-20T09:50:31Z</time>
      </trkpt>
      <trkpt lat="48.78859" lon="-3.48885">
        <ele>89</ele>
        <time>2011-02-20T09:50:32Z</time>
      </trkpt>
      <trkpt lat="48.78854" lon="-3.48892">
        <ele>89</ele>
        <time>2011-02-20T09:50:33Z</time>
      </trkpt>
      <trkpt lat="48.7885" lon="-3.48899">
        <ele>89</ele>
        <time>2011-02-20T09:50:34Z</time>
      </trkpt>
      <trkpt lat="48.78845" lon="-3.48905">
        <ele>89</ele>
        <time>2011-02-20T09:50:35Z</time>
      </trkpt>
      <trkpt lat="48.78841" lon="-3.48911">
        <ele>89</ele>
        <time>2011-02-20T09:50:36Z</time>
      </trkpt>
      <trkpt lat="48.78836" lon="-3.48918">
        <ele>89</ele>
        <time>2011-02-20T09:50:37Z</time>
      </trkpt>
      <trkpt lat="48.78831" lon="-3.48925">
        <ele>89</ele>
        <time>2011-02-20T09:50:38Z</time>
      </trkpt>
      <trkpt lat="48.78827" lon="-3.48932">
        <ele>89</ele>
        <time>2011-02-20T09:50:39Z</time>
      </trkpt>
      <trkpt lat="48.78822" lon="-3.48939">
        <ele>89</ele>
        <time>2011-02-20T09:50:40Z</time>
      </trkpt>
      <trkpt lat="48.78817" lon="-3.48946">
        <ele>90</ele>
        <time>2011-02-20T09:50:41Z</time>
      </trkpt>
      <trkpt lat="48.78812" lon="-3.48953">
        <ele>90</ele>
        <time>2011-02-20T09:50:42Z</time>
      </trkpt>
      <trkpt lat="48.78807" lon="-3.4896">
        <ele>90</ele>
        <time>2011-02-20T09:50:43Z</time>
      </trkpt>
      <trkpt lat="48.78802" lon="-3.48966">
        <ele>90</ele>
        <time>2011-02-20T09:50:44Z</time>
      </trkpt>
      <trkpt lat="48.78798" lon="-3.48973">
        <ele>90</ele>
        <time>2011-02-20T09:50:45Z</time>
      </trkpt>
      <trkpt lat="48.78793" lon="-3.4898">
        <ele>90</ele>
        <time>2011-02-20T09:50:46Z</time>
      </trkpt>
      <trkpt lat="48.78788" lon="-3.48987">
        <ele>90</ele>
        <time>2011-02-20T09:50:47Z</time>
      </trkpt>
      <trkpt lat="48.78783" lon="-3.48994">
        <ele>90</ele>
        <time>2011-02-20T09:50:48Z</time>
      </trkpt>
      <trkpt lat="48.78778" lon="-3.49001">
        <ele>90</ele>
        <time>2011-02-20T09:50:49Z</time>
      </trkpt>
      <trkpt lat="48.78773" lon="-3.49008">
        <ele>90</ele>
        <time>2011-02-20T09:50:50Z</time>
      </trkpt>
      <trkpt lat="48.78768" lon="-3.49016">
        <ele>90</ele>
        <time>2011-02-20T09:50:51Z</time>
      </trkpt>
      <trkpt lat="48.78763" lon="-3.49023">
        <ele>90</ele>
        <time>2011-02-20T09:50:52Z</time>
      </trkpt>
      <trkpt lat="48.78757" lon="-3.49031">
        <ele>90</ele>
        <time>2011-02-20T09:50:53Z</time>
      </trkpt>
      <trkpt lat="48.78752" lon="-3.49039">
        <ele>90</ele>
        <time>2011-02-20T09:50:54Z</time>
      </trkpt>
      <trkpt lat="48.78747" lon="-3.49046">
        <ele>90</ele>
        <time>2011-02-20T09:50:55Z</time>
      </trkpt>
      <trkpt lat="48.78741" lon="-3.49054">
        <ele>90</ele>
        <time>2011-02-20T09:50:56Z</time>
      </trkpt>
      <trkpt lat="48.78736" lon="-3.49061">
        <ele>90</ele>
        <time>2011-02-20T09:50:57Z</time>
      </trkpt>
      <trkpt lat="48.7873" lon="-3.49069">
        <ele>90</ele>
        <time>2011-02-20T09:50:58Z</time>
      </trkpt>
      <trkpt lat="48.78725" lon="-3.49076">
        <ele>90</ele>
        <time>2011-02-20T09:50:59Z</time>
      </trkpt>
      <trkpt lat="48.7872" lon="-3.49084">
        <ele>90</ele>
        <time>2011-02-20T09:51:00Z</time>
      </trkpt>
      <trkpt lat="48.78715" lon="-3.49091">
        <ele>90</ele>
        <time>2011-02-20T09:51:01Z</time>
      </trkpt>
      <trkpt lat="48.7871" lon="-3.49098">
        <ele>90</ele>
        <time>2011-02-20T09:51:02Z</time>
      </trkpt>
      <trkpt lat="48.78705" lon="-3.49104">
        <ele>90</ele>
        <time>2011-02-20T09:51:03Z</time>
      </trkpt>
      <trkpt lat="48.787" lon="-3.49111">
        <ele>90</ele>
        <time>2011-02-20T09:51:04Z</time>
      </trkpt>
      <trkpt lat="48.78696" lon="-3.49118">
        <ele>90</ele>
        <time>2011-02-20T09:51:05Z</time>
      </trkpt>
      <trkpt lat="48.78691" lon="-3.49125">
        <ele>90</ele>
        <time>2011-02-20T09:51:06Z</time>
      </trkpt>
      <trkpt lat="48.78686" lon="-3.49132">
        <ele>90</ele>
        <time>2011-02-20T09:51:07Z</time>
      </trkpt>
      <trkpt lat="48.78681" lon="-3.49139">
        <ele>90</ele>
        <time>2011-02-20T09:51:08Z</time>
      </trkpt>
      <trkpt lat="48.78677" lon="-3.49146">
        <ele>90</ele>
        <time>2011-02-20T09:51:09Z</time>
      </trkpt>
      <trkpt lat="48.78672" lon="-3.49153">
        <ele>90</ele>
        <time>2011-02-20T09:51:10Z</time>
      </trkpt>
      <trkpt lat="48.78668" lon="-3.49161">
        <ele>90</ele>
        <time>2011-02-20T09:51:11Z</time>
      </trkpt>
      <trkpt lat="48.78664" lon="-3.49168">
        <ele>90</ele>
        <time>2011-02-20T09:51:12Z</time>
      </trkpt>
      <trkpt lat="48.78659" lon="-3.49176">
        <ele>90</ele>
        <time>2011-02-20T09:51:13Z</time>
      </trkpt>
      <trkpt lat="48.78656" lon="-3.49182">
        <ele>90</ele>
        <time>2011-02-20T09:51:14Z</time>
      </trkpt>
      <trkpt lat="48.78652" lon="-3.49189">
        <ele>90</ele>
        <time>2011-02-20T09:51:15Z</time>
      </trkpt>
      <trkpt lat="48.78648" lon="-3.49196">
        <ele>90</ele>
        <time>2011-02-20T09:51:16Z</time>
      </trkpt>
      <trkpt lat="48.78645" lon="-3.49202">
        <ele>90</ele>
        <time>2011-02-20T09:51:17Z</time>
      </trkpt>
      <trkpt lat="48.78641" lon="-3.49209">
        <ele>90</ele>
        <time>2011-02-20T09:51:18Z</time>
      </trkpt>
      <trkpt lat="48.78637" lon="-3.49217">
        <ele>90</ele>
        <time>2011-02-20T09:51:19Z</time>
      </trkpt>
      <trkpt lat="48.78635" lon="-3.49224">
        <ele>90</ele>
        <time>2011-02-20T09:51:20Z</time>
      </trkpt>
      <trkpt lat="48.78631" lon="-3.49231">
        <ele>90</ele>
        <time>2011-02-20T09:51:21Z</time>
      </trkpt>
      <trkpt lat="48.78627" lon="-3.49235">
        <ele>90</ele>
        <time>2011-02-20T09:51:22Z</time>
      </trkpt>
      <trkpt lat="48.78622" lon="-3.49237">
        <ele>90</ele>
        <time>2011-02-20T09:51:23Z</time>
      </trkpt>
      <trkpt lat="48.78616" lon="-3.49235">
        <ele>90</ele>
        <time>2011-02-20T09:51:24Z</time>
      </trkpt>
      <trkpt lat="48.7861" lon="-3.49231">
        <ele>90</ele>
        <time>2011-02-20T09:51:25Z</time>
      </trkpt>
      <trkpt lat="48.78604" lon="-3.49225">
        <ele>90</ele>
        <time>2011-02-20T09:51:26Z</time>
      </trkpt>
      <trkpt lat="48.78597" lon="-3.4922">
        <ele>89</ele>
        <time>2011-02-20T09:51:27Z</time>
      </trkpt>
      <trkpt lat="48.7859" lon="-3.49214">
        <ele>88</ele>
        <time>2011-02-20T09:51:28Z</time>
      </trkpt>
      <trkpt lat="48.78583" lon="-3.49208">
        <ele>88</ele>
        <time>2011-02-20T09:51:29Z</time>
      </trkpt>
      <trkpt lat="48.78576" lon="-3.49201">
        <ele>87</ele>
        <time>2011-02-20T09:51:30Z</time>
      </trkpt>
      <trkpt lat="48.78569" lon="-3.49195">
        <ele>87</ele>
        <time>2011-02-20T09:51:31Z</time>
      </trkpt>
      <trkpt lat="48.78561" lon="-3.49189">
        <ele>86</ele>
        <time>2011-02-20T09:51:32Z</time>
      </trkpt>
      <trkpt lat="48.78553" lon="-3.49183">
        <ele>86</ele>
        <time>2011-02-20T09:51:33Z</time>
      </trkpt>
      <trkpt lat="48.78545" lon="-3.49177">
        <ele>86</ele>
        <time>2011-02-20T09:51:34Z</time>
      </trkpt>
      <trkpt lat="48.78537" lon="-3.49171">
        <ele>85</ele>
        <time>2011-02-20T09:51:35Z</time>
      </trkpt>
      <trkpt lat="48.78529" lon="-3.49166">
        <ele>85</ele>
        <time>2011-02-20T09:51:36Z</time>
      </trkpt>
      <trkpt lat="48.78522" lon="-3.49161">
        <ele>85</ele>
        <time>2011-02-20T09:51:37Z</time>
      </trkpt>
      <trkpt lat="48.78513" lon="-3.49156">
        <ele>85</ele>
        <time>2011-02-20T09:51:38Z</time>
      </trkpt>
      <trkpt lat="48.78505" lon="-3.49151">
        <ele>85</ele>
        <time>2011-02-20T09:51:39Z</time>
      </trkpt>
      <trkpt lat="48.78497" lon="-3.49146">
        <ele>85</ele>
        <time>2011-02-20T09:51:40Z</time>
      </trkpt>
      <trkpt lat="48.78489" lon="-3.49142">
        <ele>85</ele>
        <time>2011-02-20T09:51:41Z</time>
      </trkpt>
      <trkpt lat="48.78481" lon="-3.49137">
        <ele>84</ele>
        <time>2011-02-20T09:51:42Z</time>
      </trkpt>
      <trkpt lat="48.78473" lon="-3.49132">
        <ele>84</ele>
        <time>2011-02-20T09:51:43Z</time>
      </trkpt>
      <trkpt lat="48.78464" lon="-3.49127">
        <ele>84</ele>
        <time>2011-02-20T09:51:44Z</time>
      </trkpt>
      <trkpt lat="48.78456" lon="-3.4912">
        <ele>84</ele>
        <time>2011-02-20T09:51:45Z</time>
      </trkpt>
      <trkpt lat="48.78447" lon="-3.49114">
        <ele>84</ele>
        <time>2011-02-20T09:51:46Z</time>
      </trkpt>
      <trkpt lat="48.78439" lon="-3.49108">
        <ele>84</ele>
        <time>2011-02-20T09:51:47Z</time>
      </trkpt>
      <trkpt lat="48.78431" lon="-3.49101">
        <ele>84</ele>
        <time>2011-02-20T09:51:48Z</time>
      </trkpt>
      <trkpt lat="48.78423" lon="-3.49096">
        <ele>84</ele>
        <time>2011-02-20T09:51:49Z</time>
      </trkpt>
      <trkpt lat="48.78415" lon="-3.49091">
        <ele>84</ele>
        <time>2011-02-20T09:51:50Z</time>
      </trkpt>
      <trkpt lat="48.78407" lon="-3.49088">
        <ele>84</ele>
        <time>2011-02-20T09:51:51Z</time>
      </trkpt>
      <trkpt lat="48.78399" lon="-3.49085">
        <ele>84</ele>
        <time>2011-02-20T09:51:52Z</time>
      </trkpt>
      <trkpt lat="48.78391" lon="-3.49083">
        <ele>84</ele>
        <time>2011-02-20T09:51:53Z</time>
      </trkpt>
      <trkpt lat="48.78383" lon="-3.49082">
        <ele>84</ele>
        <time>2011-02-20T09:51:54Z</time>
      </trkpt>
      <trkpt lat="48.78376" lon="-3.49082">
        <ele>84</ele>
        <time>2011-02-20T09:51:55Z</time>
      </trkpt>
      <trkpt lat="48.78368" lon="-3.49082">
        <ele>84</ele>
        <time>2011-02-20T09:51:56Z</time>
      </trkpt>
      <trkpt lat="48.78361" lon="-3.49082">
        <ele>84</ele>
        <time>2011-02-20T09:51:57Z</time>
      </trkpt>
      <trkpt lat="48.78354" lon="-3.49082">
        <ele>84</ele>
        <time>2011-02-20T09:51:58Z</time>
      </trkpt>
      <trkpt lat="48.78347" lon="-3.49082">
        <ele>84</ele>
        <time>2011-02-20T09:51:59Z</time>
      </trkpt>
      <trkpt lat="48.78341" lon="-3.49083">
        <ele>84</ele>
        <time>2011-02-20T09:52:00Z</time>
      </trkpt>
      <trkpt lat="48.78334" lon="-3.49083">
        <ele>84</ele>
        <time>2011-02-20T09:52:01Z</time>
      </trkpt>
      <trkpt lat="48.78327" lon="-3.49083">
        <ele>84</ele>
        <time>2011-02-20T09:52:02Z</time>
      </trkpt>
      <trkpt lat="48.7832" lon="-3.49083">
        <ele>84</ele>
        <time>2011-02-20T09:52:03Z</time>
      </trkpt>
      <trkpt lat="48.78313" lon="-3.49083">
        <ele>84</ele>
        <time>2011-02-20T09:52:04Z</time>
      </trkpt>
      <trkpt lat="48.78306" lon="-3.49083">
        <ele>84</ele>
        <time>2011-02-20T09:52:05Z</time>
      </trkpt>
      <trkpt lat="48.78299" lon="-3.49083">
        <ele>84</ele>
        <time>2011-02-20T09:52:06Z</time>
      </trkpt>
      <trkpt lat="48.78291" lon="-3.49083">
        <ele>84</ele>
        <time>2011-02-20T09:52:07Z</time>
      </trkpt>
      <trkpt lat="48.78284" lon="-3.49083">
        <ele>84</ele>
        <time>2011-02-20T09:52:08Z</time>
      </trkpt>
      <trkpt lat="48.78276" lon="-3.49083">
        <ele>84</ele>
        <time>2011-02-20T09:52:09Z</time>
      </trkpt>
      <trkpt lat="48.78268" lon="-3.49084">
        <ele>84</ele>
        <time>2011-02-20T09:52:10Z</time>
      </trkpt>
      <trkpt lat="48.78261" lon="-3.49084">
        <ele>84</ele>
        <time>2011-02-20T09:52:11Z</time>
      </trkpt>
      <trkpt lat="48.78253" lon="-3.49085">
        <ele>84</ele>
        <time>2011-02-20T09:52:12Z</time>
      </trkpt>
      <trkpt lat="48.78245" lon="-3.49085">
        <ele>84</ele>
        <time>2011-02-20T09:52:13Z</time>
      </trkpt>
      <trkpt lat="48.78237" lon="-3.49086">
        <ele>84</ele>
        <time>2011-02-20T09:52:14Z</time>
      </trkpt>
      <trkpt lat="48.7823" lon="-3.49086">
        <ele>84</ele>
        <time>2011-02-20T09:52:15Z</time>
      </trkpt>
      <trkpt lat="48.78222" lon="-3.49086">
        <ele>84</ele>
        <time>2011-02-20T09:52:16Z</time>
      </trkpt>
      <trkpt lat="48.78214" lon="-3.49087">
        <ele>84</ele>
        <time>2011-02-20T09:52:17Z</time>
      </trkpt>
      <trkpt lat="48.78207" lon="-3.49087">
        <ele>84</ele>
        <time>2011-02-20T09:52:18Z</time>
      </trkpt>
      <trkpt lat="48.782" lon="-3.49088">
        <ele>84</ele>
        <time>2011-02-20T09:52:19Z</time>
      </trkpt>
      <trkpt lat="48.78193" lon="-3.49089">
        <ele>84</ele>
        <time>2011-02-20T09:52:20Z</time>
      </trkpt>
      <trkpt lat="48.78185" lon="-3.4909">
        <ele>84</ele>
        <time>2011-02-20T09:52:21Z</time>
      </trkpt>
      <trkpt lat="48.78178" lon="-3.49092">
        <ele>84</ele>
        <time>2011-02-20T09:52:22Z</time>
      </trkpt>
      <trkpt lat="48.78171" lon="-3.49094">
        <ele>84</ele>
        <time>2011-02-20T09:52:23Z</time>
      </trkpt>
      <trkpt lat="48.78164" lon="-3.49097">
        <ele>84</ele>
        <time>2011-02-20T09:52:24Z</time>
      </trkpt>
      <trkpt lat="48.78157" lon="-3.49102">
        <ele>84</ele>
        <time>2011-02-20T09:52:25Z</time>
      </trkpt>
      <trkpt lat="48.78151" lon="-3.49107">
        <ele>84</ele>
        <time>2011-02-20T09:52:26Z</time>
      </trkpt>
      <trkpt lat="48.78144" lon="-3.49112">
        <ele>84</ele>
        <time>2011-02-20T09:52:27Z</time>
      </trkpt>
      <trkpt lat="48.78138" lon="-3.49117">
        <ele>84</ele>
        <time>2011-02-20T09:52:28Z</time>
      </trkpt>
      <trkpt lat="48.78131" lon="-3.49123">
        <ele>84</ele>
        <time>2011-02-20T09:52:29Z</time>
      </trkpt>
      <trkpt lat="48.78125" lon="-3.49129">
        <ele>84</ele>
        <time>2011-02-20T09:52:30Z</time>
      </trkpt>
      <trkpt lat="48.78118" lon="-3.49134">
        <ele>84</ele>
        <time>2011-02-20T09:52:31Z</time>
      </trkpt>
      <trkpt lat="48.78111" lon="-3.4914">
        <ele>84</ele>
        <time>2011-02-20T09:52:32Z</time>
      </trkpt>
      <trkpt lat="48.78104" lon="-3.49146">
        <ele>84</ele>
        <time>2011-02-20T09:52:33Z</time>
      </trkpt>
      <trkpt lat="48.78098" lon="-3.49151">
        <ele>84</ele>
        <time>2011-02-20T09:52:34Z</time>
      </trkpt>
      <trkpt lat="48.78091" lon="-3.49157">
        <ele>84</ele>
        <time>2011-02-20T09:52:35Z</time>
      </trkpt>
      <trkpt lat="48.78085" lon="-3.49163">
        <ele>84</ele>
        <time>2011-02-20T09:52:36Z</time>
      </trkpt>
      <trkpt lat="48.78078" lon="-3.49168">
        <ele>84</ele>
        <time>2011-02-20T09:52:37Z</time>
      </trkpt>
      <trkpt lat="48.78072" lon="-3.49174">
        <ele>84</ele>
        <time>2011-02-20T09:52:38Z</time>
      </trkpt>
      <trkpt lat="48.78066" lon="-3.49179">
        <ele>84</ele>
        <time>2011-02-20T09:52:39Z</time>
      </trkpt>
      <trkpt lat="48.78059" lon="-3.49184">
        <ele>84</ele>
        <time>2011-02-20T09:52:40Z</time>
      </trkpt>
      <trkpt lat="48.78053" lon="-3.4919">
        <ele>84</ele>
        <time>2011-02-20T09:52:41Z</time>
      </trkpt>
      <trkpt lat="48.78047" lon="-3.49195">
        <ele>84</ele>
        <time>2011-02-20T09:52:42Z</time>
      </trkpt>
      <trkpt lat="48.7804" lon="-3.49201">
        <ele>84</ele>
        <time>2011-02-20T09:52:43Z</time>
      </trkpt>
      <trkpt lat="48.78034" lon="-3.49206">
        <ele>84</ele>
        <time>2011-02-20T09:52:44Z</time>
      </trkpt>
      <trkpt lat="48.78027" lon="-3.49212">
        <ele>84</ele>
        <time>2011-02-20T09:52:45Z</time>
      </trkpt>
      <trkpt lat="48.78021" lon="-3.49218">
        <ele>84</ele>
        <time>2011-02-20T09:52:46Z</time>
      </trkpt>
      <trkpt lat="48.78014" lon="-3.49223">
        <ele>84</ele>
        <time>2011-02-20T09:52:47Z</time>
      </trkpt>
      <trkpt lat="48.78008" lon="-3.49229">
        <ele>84</ele>
        <time>2011-02-20T09:52:48Z</time>
      </trkpt>
      <trkpt lat="48.78001" lon="-3.49234">
        <ele>84</ele>
        <time>2011-02-20T09:52:49Z</time>
      </trkpt>
      <trkpt lat="48.77995" lon="-3.4924">
        <ele>84</ele>
        <time>2011-02-20T09:52:50Z</time>
      </trkpt>
      <trkpt lat="48.77988" lon="-3.49246">
        <ele>84</ele>
        <time>2011-02-20T09:52:51Z</time>
      </trkpt>
      <trkpt lat="48.77981" lon="-3.49251">
        <ele>84</ele>
        <time>2011-02-20T09:52:52Z</time>
      </trkpt>
      <trkpt lat="48.77975" lon="-3.49256">
        <ele>84</ele>
        <time>2011-02-20T09:52:53Z</time>
      </trkpt>
      <trkpt lat="48.77968" lon="-3.49262">
        <ele>84</ele>
        <time>2011-02-20T09:52:54Z</time>
      </trkpt>
      <trkpt lat="48.77961" lon="-3.49268">
        <ele>84</ele>
        <time>2011-02-20T09:52:55Z</time>
      </trkpt>
      <trkpt lat="48.77955" lon="-3.49273">
        <ele>84</ele>
        <time>2011-02-20T09:52:56Z</time>
      </trkpt>
      <trkpt lat="48.77948" lon="-3.49279">
        <ele>84</ele>
        <time>2011-02-20T09:52:57Z</time>
      </trkpt>
      <trkpt lat="48.77942" lon="-3.49285">
        <ele>84</ele>
        <time>2011-02-20T09:52:58Z</time>
      </trkpt>
      <trkpt lat="48.77935" lon="-3.4929">
        <ele>84</ele>
        <time>2011-02-20T09:52:59Z</time>
      </trkpt>
      <trkpt lat="48.77929" lon="-3.49296">
        <ele>84</ele>
        <time>2011-02-20T09:53:00Z</time>
      </trkpt>
      <trkpt lat="48.77922" lon="-3.49302">
        <ele>84</ele>
        <time>2011-02-20T09:53:01Z</time>
      </trkpt>
      <trkpt lat="48.77915" lon="-3.49308">
        <ele>84</ele>
        <time>2011-02-20T09:53:02Z</time>
      </trkpt>
      <trkpt lat="48.77908" lon="-3.49314">
        <ele>84</ele>
        <time>2011-02-20T09:53:03Z</time>
      </trkpt>
      <trkpt lat="48.779" lon="-3.4932">
        <ele>84</ele>
        <time>2011-02-20T09:53:04Z</time>
      </trkpt>
      <trkpt lat="48.77893" lon="-3.49326">
        <ele>84</ele>
        <time>2011-02-20T09:53:05Z</time>
      </trkpt>
      <trkpt lat="48.77886" lon="-3.49332">
        <ele>84</ele>
        <time>2011-02-20T09:53:06Z</time>
      </trkpt>
      <trkpt lat="48.77879" lon="-3.49339">
        <ele>84</ele>
        <time>2011-02-20T09:53:07Z</time>
      </trkpt>
      <trkpt lat="48.77871" lon="-3.49345">
        <ele>84</ele>
        <time>2011-02-20T09:53:08Z</time>
      </trkpt>
      <trkpt lat="48.77864" lon="-3.49352">
        <ele>84</ele>
        <time>2011-02-20T09:53:09Z</time>
      </trkpt>
      <trkpt lat="48.77857" lon="-3.49358">
        <ele>84</ele>
        <time>2011-02-20T09:53:10Z</time>
      </trkpt>
      <trkpt lat="48.7785" lon="-3.49363">
        <ele>84</ele>
        <time>2011-02-20T09:53:11Z</time>
      </trkpt>
      <trkpt lat="48.77843" lon="-3.49369">
        <ele>84</ele>
        <time>2011-02-20T09:53:12Z</time>
      </trkpt>
      <trkpt lat="48.77836" lon="-3.49376">
        <ele>84</ele>
        <time>2011-02-20T09:53:13Z</time>
      </trkpt>
      <trkpt lat="48.77829" lon="-3.49381">
        <ele>84</ele>
        <time>2011-02-20T09:53:14Z</time>
      </trkpt>
      <trkpt lat="48.77822" lon="-3.49387">
        <ele>84</ele>
        <time>2011-02-20T09:53:15Z</time>
      </trkpt>
      <trkpt lat="48.77815" lon="-3.49393">
        <ele>84</ele>
        <time>2011-02-20T09:53:16Z</time>
      </trkpt>
      <trkpt lat="48.77808" lon="-3.49399">
        <ele>84</ele>
        <time>2011-02-20T09:53:17Z</time>
      </trkpt>
      <trkpt lat="48.77801" lon="-3.49405">
        <ele>84</ele>
        <time>2011-02-20T09:53:18Z</time>
      </trkpt>
      <trkpt lat="48.77795" lon="-3.4941">
        <ele>84</ele>
        <time>2011-02-20T09:53:19Z</time>
      </trkpt>
      <trkpt lat="48.77788" lon="-3.49416">
        <ele>84</ele>
        <time>2011-02-20T09:53:20Z</time>
      </trkpt>
      <trkpt lat="48.77781" lon="-3.49422">
        <ele>84</ele>
        <time>2011-02-20T09:53:21Z</time>
      </trkpt>
      <trkpt lat="48.77774" lon="-3.49428">
        <ele>84</ele>
        <time>2011-02-20T09:53:22Z</time>
      </trkpt>
      <trkpt lat="48.77768" lon="-3.49433">
        <ele>84</ele>
        <time>2011-02-20T09:53:23Z</time>
      </trkpt>
      <trkpt lat="48.77761" lon="-3.49439">
        <ele>84</ele>
        <time>2011-02-20T09:53:24Z</time>
      </trkpt>
      <trkpt lat="48.77755" lon="-3.49444">
        <ele>84</ele>
        <time>2011-02-20T09:53:25Z</time>
      </trkpt>
      <trkpt lat="48.77748" lon="-3.4945">
        <ele>84</ele>
        <time>2011-02-20T09:53:26Z</time>
      </trkpt>
      <trkpt lat="48.77741" lon="-3.49455">
        <ele>84</ele>
        <time>2011-02-20T09:53:27Z</time>
      </trkpt>
      <trkpt lat="48.77735" lon="-3.49461">
        <ele>84</ele>
        <time>2011-02-20T09:53:28Z</time>
      </trkpt>
      <trkpt lat="48.77728" lon="-3.49467">
        <ele>84</ele>
        <time>2011-02-20T09:53:29Z</time>
      </trkpt>
      <trkpt lat="48.77721" lon="-3.49472">
        <ele>84</ele>
        <time>2011-02-20T09:53:30Z</time>
      </trkpt>
      <trkpt lat="48.77715" lon="-3.49478">
        <ele>84</ele>
        <time>2011-02-20T09:53:31Z</time>
      </trkpt>
      <trkpt lat="48.77708" lon="-3.49484">
        <ele>84</ele>
        <time>2011-02-20T09:53:32Z</time>
      </trkpt>
      <trkpt lat="48.77702" lon="-3.49489">
        <ele>84</ele>
        <time>2011-02-20T09:53:33Z</time>
      </trkpt>
      <trkpt lat="48.77695" lon="-3.49495">
        <ele>84</ele>
        <time>2011-02-20T09:53:34Z</time>
      </trkpt>
      <trkpt lat="48.77689" lon="-3.495">
        <ele>84</ele>
        <time>2011-02-20T09:53:35Z</time>
      </trkpt>
      <trkpt lat="48.77682" lon="-3.49505">
        <ele>84</ele>
        <time>2011-02-20T09:53:36Z</time>
      </trkpt>
      <trkpt lat="48.77675" lon="-3.49511">
        <ele>84</ele>
        <time>2011-02-20T09:53:37Z</time>
      </trkpt>
      <trkpt lat="48.77669" lon="-3.49516">
        <ele>84</ele>
        <time>2011-02-20T09:53:38Z</time>
      </trkpt>
      <trkpt lat="48.77662" lon="-3.49521">
        <ele>84</ele>
        <time>2011-02-20T09:53:39Z</time>
      </trkpt>
      <trkpt lat="48.77656" lon="-3.49526">
        <ele>84</ele>
        <time>2011-02-20T09:53:40Z</time>
      </trkpt>
      <trkpt lat="48.77649" lon="-3.49531">
        <ele>84</ele>
        <time>2011-02-20T09:53:41Z</time>
      </trkpt>
      <trkpt lat="48.77642" lon="-3.49536">
        <ele>84</ele>
        <time>2011-02-20T09:53:42Z</time>
      </trkpt>
      <trkpt lat="48.77636" lon="-3.49541">
        <ele>84</ele>
        <time>2011-02-20T09:53:43Z</time>
      </trkpt>
      <trkpt lat="48.77629" lon="-3.49546">
        <ele>84</ele>
        <time>2011-02-20T09:53:44Z</time>
      </trkpt>
      <trkpt lat="48.77622" lon="-3.49551">
        <ele>84</ele>
        <time>2011-02-20T09:53:45Z</time>
      </trkpt>
      <trkpt lat="48.77615" lon="-3.49556">
        <ele>84</ele>
        <time>2011-02-20T09:53:46Z</time>
      </trkpt>
      <trkpt lat="48.77609" lon="-3.49561">
        <ele>84</ele>
        <time>2011-02-20T09:53:47Z</time>
      </trkpt>
      <trkpt lat="48.77602" lon="-3.49566">
        <ele>84</ele>
        <time>2011-02-20T09:53:48Z</time>
      </trkpt>
      <trkpt lat="48.77596" lon="-3.49571">
        <ele>84</ele>
        <time>2011-02-20T09:53:49Z</time>
      </trkpt>
      <trkpt lat="48.77589" lon="-3.49577">
        <ele>84</ele>
        <time>2011-02-20T09:53:50Z</time>
      </trkpt>
      <trkpt lat="48.77583" lon="-3.49582">
        <ele>84</ele>
        <time>2011-02-20T09:53:51Z</time>
      </trkpt>
      <trkpt lat="48.77577" lon="-3.49587">
        <ele>85</ele>
        <time>2011-02-20T09:53:52Z</time>
      </trkpt>
      <trkpt lat="48.77571" lon="-3.49592">
        <ele>85</ele>
        <time>2011-02-20T09:53:53Z</time>
      </trkpt>
      <trkpt lat="48.77565" lon="-3.49597">
        <ele>85</ele>
        <time>2011-02-20T09:53:54Z</time>
      </trkpt>
      <trkpt lat="48.77559" lon="-3.49602">
        <ele>85</ele>
        <time>2011-02-20T09:53:55Z</time>
      </trkpt>
      <trkpt lat="48.77554" lon="-3.49606">
        <ele>85</ele>
        <time>2011-02-20T09:53:56Z</time>
      </trkpt>
      <trkpt lat="48.77548" lon="-3.49611">
        <ele>86</ele>
        <time>2011-02-20T09:53:57Z</time>
      </trkpt>
      <trkpt lat="48.77542" lon="-3.49616">
        <ele>86</ele>
        <time>2011-02-20T09:53:58Z</time>
      </trkpt>
      <trkpt lat="48.77537" lon="-3.49621">
        <ele>86</ele>
        <time>2011-02-20T09:53:59Z</time>
      </trkpt>
      <trkpt lat="48.77531" lon="-3.49626">
        <ele>87</ele>
        <time>2011-02-20T09:54:00Z</time>
      </trkpt>
      <trkpt lat="48.77527" lon="-3.49632">
        <ele>87</ele>
        <time>2011-02-20T09:54:01Z</time>
      </trkpt>
      <trkpt lat="48.77522" lon="-3.49638">
        <ele>87</ele>
        <time>2011-02-20T09:54:02Z</time>
      </trkpt>
      <trkpt lat="48.77518" lon="-3.49644">
        <ele>88</ele>
        <time>2011-02-20T09:54:03Z</time>
      </trkpt>
      <trkpt lat="48.77515" lon="-3.49651">
        <ele>88</ele>
        <time>2011-02-20T09:54:04Z</time>
      </trkpt>
      <trkpt lat="48.77511" lon="-3.49658">
        <ele>89</ele>
        <time>2011-02-20T09:54:05Z</time>
      </trkpt>
      <trkpt lat="48.77508" lon="-3.49664">
        <ele>89</ele>
        <time>2011-02-20T09:54:06Z</time>
      </trkpt>
      <trkpt lat="48.77505" lon="-3.49672">
        <ele>90</ele>
        <time>2011-02-20T09:54:07Z</time>
      </trkpt>
      <trkpt lat="48.77503" lon="-3.49679">
        <ele>90</ele>
        <time>2011-02-20T09:54:08Z</time>
      </trkpt>
      <trkpt lat="48.775" lon="-3.49686">
        <ele>91</ele>
        <time>2011-02-20T09:54:09Z</time>
      </trkpt>
      <trkpt lat="48.77497" lon="-3.49694">
        <ele>91</ele>
        <time>2011-02-20T09:54:10Z</time>
      </trkpt>
      <trkpt lat="48.77494" lon="-3.49702">
        <ele>91</ele>
        <time>2011-02-20T09:54:11Z</time>
      </trkpt>
      <trkpt lat="48.77492" lon="-3.4971">
        <ele>91</ele>
        <time>2011-02-20T09:54:12Z</time>
      </trkpt>
      <trkpt lat="48.77489" lon="-3.49717">
        <ele>92</ele>
        <time>2011-02-20T09:54:13Z</time>
      </trkpt>
      <trkpt lat="48.77486" lon="-3.49726">
        <ele>92</ele>
        <time>2011-02-20T09:54:14Z</time>
      </trkpt>
      <trkpt lat="48.77483" lon="-3.49734">
        <ele>92</ele>
        <time>2011-02-20T09:54:15Z</time>
      </trkpt>
      <trkpt lat="48.7748" lon="-3.49742">
        <ele>92</ele>
        <time>2011-02-20T09:54:16Z</time>
      </trkpt>
      <trkpt lat="48.77477" lon="-3.4975">
        <ele>92</ele>
        <time>2011-02-20T09:54:17Z</time>
      </trkpt>
      <trkpt lat="48.77474" lon="-3.49759">
        <ele>92</ele>
        <time>2011-02-20T09:54:18Z</time>
      </trkpt>
      <trkpt lat="48.7747" lon="-3.49768">
        <ele>93</ele>
        <time>2011-02-20T09:54:19Z</time>
      </trkpt>
      <trkpt lat="48.77467" lon="-3.49777">
        <ele>93</ele>
        <time>2011-02-20T09:54:20Z</time>
      </trkpt>
      <trkpt lat="48.77464" lon="-3.49785">
        <ele>93</ele>
        <time>2011-02-20T09:54:21Z</time>
      </trkpt>
      <trkpt lat="48.7746" lon="-3.49794">
        <ele>93</ele>
        <time>2011-02-20T09:54:22Z</time>
      </trkpt>
      <trkpt lat="48.77457" lon="-3.49803">
        <ele>93</ele>
        <time>2011-02-20T09:54:23Z</time>
      </trkpt>
      <trkpt lat="48.77454" lon="-3.49813">
        <ele>93</ele>
        <time>2011-02-20T09:54:24Z</time>
      </trkpt>
      <trkpt lat="48.77446" lon="-3.49852">
        <ele>93</ele>
        <time>2011-02-20T09:54:28Z</time>
      </trkpt>
      <trkpt lat="48.7743" lon="-3.50043">
        <ele>95</ele>
        <time>2011-02-20T09:54:46Z</time>
      </trkpt>
      <trkpt lat="48.77409" lon="-3.50286">
        <ele>95</ele>
        <time>2011-02-20T09:55:06Z</time>
      </trkpt>
      <trkpt lat="48.77407" lon="-3.50298">
        <ele>95</ele>
        <time>2011-02-20T09:55:07Z</time>
      </trkpt>
      <trkpt lat="48.77405" lon="-3.5031">
        <ele>95</ele>
        <time>2011-02-20T09:55:08Z</time>
      </trkpt>
      <trkpt lat="48.77402" lon="-3.50322">
        <ele>95</ele>
        <time>2011-02-20T09:55:09Z</time>
      </trkpt>
      <trkpt lat="48.77399" lon="-3.50333">
        <ele>95</ele>
        <time>2011-02-20T09:55:10Z</time>
      </trkpt>
      <trkpt lat="48.77395" lon="-3.50344">
        <ele>95</ele>
        <time>2011-02-20T09:55:11Z</time>
      </trkpt>
      <trkpt lat="48.77391" lon="-3.50355">
        <ele>95</ele>
        <time>2011-02-20T09:55:12Z</time>
      </trkpt>
      <trkpt lat="48.77386" lon="-3.50366">
        <ele>95</ele>
        <time>2011-02-20T09:55:13Z</time>
      </trkpt>
      <trkpt lat="48.77381" lon="-3.50376">
        <ele>95</ele>
        <time>2011-02-20T09:55:14Z</time>
      </trkpt>
      <trkpt lat="48.77376" lon="-3.50387">
        <ele>95</ele>
        <time>2011-02-20T09:55:15Z</time>
      </trkpt>
      <trkpt lat="48.77371" lon="-3.50397">
        <ele>95</ele>
        <time>2011-02-20T09:55:16Z</time>
      </trkpt>
      <trkpt lat="48.77366" lon="-3.50407">
        <ele>95</ele>
        <time>2011-02-20T09:55:17Z</time>
      </trkpt>
      <trkpt lat="48.77362" lon="-3.50417">
        <ele>95</ele>
        <time>2011-02-20T09:55:18Z</time>
      </trkpt>
      <trkpt lat="48.77357" lon="-3.50428">
        <ele>95</ele>
        <time>2011-02-20T09:55:19Z</time>
      </trkpt>
      <trkpt lat="48.77352" lon="-3.50438">
        <ele>95</ele>
        <time>2011-02-20T09:55:20Z</time>
      </trkpt>
      <trkpt lat="48.77347" lon="-3.50448">
        <ele>95</ele>
        <time>2011-02-20T09:55:21Z</time>
      </trkpt>
      <trkpt lat="48.77342" lon="-3.50459">
        <ele>95</ele>
        <time>2011-02-20T09:55:22Z</time>
      </trkpt>
      <trkpt lat="48.77338" lon="-3.5047">
        <ele>95</ele>
        <time>2011-02-20T09:55:23Z</time>
      </trkpt>
      <trkpt lat="48.77334" lon="-3.50481">
        <ele>95</ele>
        <time>2011-02-20T09:55:24Z</time>
      </trkpt>
      <trkpt lat="48.7733" lon="-3.50492">
        <ele>95</ele>
        <time>2011-02-20T09:55:25Z</time>
      </trkpt>
      <trkpt lat="48.77324" lon="-3.50516">
        <ele>95</ele>
        <time>2011-02-20T09:55:27Z</time>
      </trkpt>
      <trkpt lat="48.77315" lon="-3.50593">
        <ele>95</ele>
        <time>2011-02-20T09:55:34Z</time>
      </trkpt>
      <trkpt lat="48.77313" lon="-3.50604">
        <ele>95</ele>
        <time>2011-02-20T09:55:35Z</time>
      </trkpt>
      <trkpt lat="48.77311" lon="-3.50614">
        <ele>95</ele>
        <time>2011-02-20T09:55:36Z</time>
      </trkpt>
      <trkpt lat="48.77309" lon="-3.50624">
        <ele>95</ele>
        <time>2011-02-20T09:55:37Z</time>
      </trkpt>
      <trkpt lat="48.77305" lon="-3.50634">
        <ele>95</ele>
        <time>2011-02-20T09:55:38Z</time>
      </trkpt>
      <trkpt lat="48.77302" lon="-3.50643">
        <ele>95</ele>
        <time>2011-02-20T09:55:39Z</time>
      </trkpt>
      <trkpt lat="48.77298" lon="-3.50653">
        <ele>95</ele>
        <time>2011-02-20T09:55:40Z</time>
      </trkpt>
      <trkpt lat="48.77293" lon="-3.50661">
        <ele>95</ele>
        <time>2011-02-20T09:55:41Z</time>
      </trkpt>
      <trkpt lat="48.77288" lon="-3.5067">
        <ele>95</ele>
        <time>2011-02-20T09:55:42Z</time>
      </trkpt>
      <trkpt lat="48.77282" lon="-3.50677">
        <ele>95</ele>
        <time>2011-02-20T09:55:43Z</time>
      </trkpt>
      <trkpt lat="48.77277" lon="-3.50684">
        <ele>95</ele>
        <time>2011-02-20T09:55:44Z</time>
      </trkpt>
      <trkpt lat="48.77271" lon="-3.50691">
        <ele>95</ele>
        <time>2011-02-20T09:55:45Z</time>
      </trkpt>
      <trkpt lat="48.77264" lon="-3.50696">
        <ele>95</ele>
        <time>2011-02-20T09:55:46Z</time>
      </trkpt>
      <trkpt lat="48.77258" lon="-3.50703">
        <ele>95</ele>
        <time>2011-02-20T09:55:47Z</time>
      </trkpt>
      <trkpt lat="48.77252" lon="-3.50709">
        <ele>95</ele>
        <time>2011-02-20T09:55:48Z</time>
      </trkpt>
      <trkpt lat="48.77246" lon="-3.50715">
        <ele>95</ele>
        <time>2011-02-20T09:55:49Z</time>
      </trkpt>
      <trkpt lat="48.7724" lon="-3.50722">
        <ele>95</ele>
        <time>2011-02-20T09:55:50Z</time>
      </trkpt>
      <trkpt lat="48.77235" lon="-3.50728">
        <ele>95</ele>
        <time>2011-02-20T09:55:51Z</time>
      </trkpt>
      <trkpt lat="48.77229" lon="-3.50735">
        <ele>95</ele>
        <time>2011-02-20T09:55:52Z</time>
      </trkpt>
      <trkpt lat="48.77224" lon="-3.50742">
        <ele>95</ele>
        <time>2011-02-20T09:55:53Z</time>
      </trkpt>
      <trkpt lat="48.77218" lon="-3.50749">
        <ele>95</ele>
        <time>2011-02-20T09:55:54Z</time>
      </trkpt>
      <trkpt lat="48.77213" lon="-3.50757">
        <ele>95</ele>
        <time>2011-02-20T09:55:55Z</time>
      </trkpt>
      <trkpt lat="48.77208" lon="-3.50765">
        <ele>95</ele>
        <time>2011-02-20T09:55:56Z</time>
      </trkpt>
      <trkpt lat="48.77202" lon="-3.50773">
        <ele>95</ele>
        <time>2011-02-20T09:55:57Z</time>
      </trkpt>
      <trkpt lat="48.77197" lon="-3.5078">
        <ele>95</ele>
        <time>2011-02-20T09:55:58Z</time>
      </trkpt>
      <trkpt lat="48.77192" lon="-3.50788">
        <ele>95</ele>
        <time>2011-02-20T09:55:59Z</time>
      </trkpt>
      <trkpt lat="48.77187" lon="-3.50796">
        <ele>95</ele>
        <time>2011-02-20T09:56:00Z</time>
      </trkpt>
      <trkpt lat="48.77183" lon="-3.50804">
        <ele>95</ele>
        <time>2011-02-20T09:56:01Z</time>
      </trkpt>
      <trkpt lat="48.77178" lon="-3.50812">
        <ele>95</ele>
        <time>2011-02-20T09:56:02Z</time>
      </trkpt>
      <trkpt lat="48.77174" lon="-3.5082">
        <ele>95</ele>
        <time>2011-02-20T09:56:03Z</time>
      </trkpt>
      <trkpt lat="48.77169" lon="-3.50829">
        <ele>95</ele>
        <time>2011-02-20T09:56:04Z</time>
      </trkpt>
      <trkpt lat="48.77165" lon="-3.50838">
        <ele>95</ele>
        <time>2011-02-20T09:56:05Z</time>
      </trkpt>
      <trkpt lat="48.77161" lon="-3.50847">
        <ele>95</ele>
        <time>2011-02-20T09:56:06Z</time>
      </trkpt>
      <trkpt lat="48.77157" lon="-3.50856">
        <ele>95</ele>
        <time>2011-02-20T09:56:07Z</time>
      </trkpt>
      <trkpt lat="48.77153" lon="-3.50866">
        <ele>95</ele>
        <time>2011-02-20T09:56:08Z</time>
      </trkpt>
      <trkpt lat="48.7715" lon="-3.50875">
        <ele>95</ele>
        <time>2011-02-20T09:56:09Z</time>
      </trkpt>
      <trkpt lat="48.77146" lon="-3.50885">
        <ele>95</ele>
        <time>2011-02-20T09:56:10Z</time>
      </trkpt>
      <trkpt lat="48.77143" lon="-3.50895">
        <ele>95</ele>
        <time>2011-02-20T09:56:11Z</time>
      </trkpt>
      <trkpt lat="48.77139" lon="-3.50905">
        <ele>95</ele>
        <time>2011-02-20T09:56:12Z</time>
      </trkpt>
      <trkpt lat="48.77134" lon="-3.50914">
        <ele>95</ele>
        <time>2011-02-20T09:56:13Z</time>
      </trkpt>
      <trkpt lat="48.77129" lon="-3.50923">
        <ele>95</ele>
        <time>2011-02-20T09:56:14Z</time>
      </trkpt>
      <trkpt lat="48.77124" lon="-3.50933">
        <ele>95</ele>
        <time>2011-02-20T09:56:15Z</time>
      </trkpt>
      <trkpt lat="48.77119" lon="-3.50942">
        <ele>95</ele>
        <time>2011-02-20T09:56:16Z</time>
      </trkpt>
      <trkpt lat="48.77113" lon="-3.50951">
        <ele>95</ele>
        <time>2011-02-20T09:56:17Z</time>
      </trkpt>
      <trkpt lat="48.77108" lon="-3.5096">
        <ele>95</ele>
        <time>2011-02-20T09:56:18Z</time>
      </trkpt>
      <trkpt lat="48.77103" lon="-3.50968">
        <ele>95</ele>
        <time>2011-02-20T09:56:19Z</time>
      </trkpt>
      <trkpt lat="48.77099" lon="-3.50976">
        <ele>95</ele>
        <time>2011-02-20T09:56:20Z</time>
      </trkpt>
      <trkpt lat="48.77094" lon="-3.50985">
        <ele>95</ele>
        <time>2011-02-20T09:56:21Z</time>
      </trkpt>
      <trkpt lat="48.7709" lon="-3.50993">
        <ele>95</ele>
        <time>2011-02-20T09:56:22Z</time>
      </trkpt>
      <trkpt lat="48.77087" lon="-3.51002">
        <ele>95</ele>
        <time>2011-02-20T09:56:23Z</time>
      </trkpt>
      <trkpt lat="48.77082" lon="-3.5101">
        <ele>95</ele>
        <time>2011-02-20T09:56:24Z</time>
      </trkpt>
      <trkpt lat="48.77079" lon="-3.51019">
        <ele>95</ele>
        <time>2011-02-20T09:56:25Z</time>
      </trkpt>
      <trkpt lat="48.77075" lon="-3.51027">
        <ele>95</ele>
        <time>2011-02-20T09:56:26Z</time>
      </trkpt>
      <trkpt lat="48.77071" lon="-3.51035">
        <ele>95</ele>
        <time>2011-02-20T09:56:27Z</time>
      </trkpt>
      <trkpt lat="48.77066" lon="-3.51044">
        <ele>95</ele>
        <time>2011-02-20T09:56:28Z</time>
      </trkpt>
      <trkpt lat="48.77062" lon="-3.51053">
        <ele>95</ele>
        <time>2011-02-20T09:56:29Z</time>
      </trkpt>
      <trkpt lat="48.77058" lon="-3.51061">
        <ele>95</ele>
        <time>2011-02-20T09:56:30Z</time>
      </trkpt>
      <trkpt lat="48.77053" lon="-3.51069">
        <ele>95</ele>
        <time>2011-02-20T09:56:31Z</time>
      </trkpt>
      <trkpt lat="48.77049" lon="-3.51076">
        <ele>95</ele>
        <time>2011-02-20T09:56:32Z</time>
      </trkpt>
      <trkpt lat="48.77037" lon="-3.51123">
        <ele>95</ele>
        <time>2011-02-20T09:56:37Z</time>
      </trkpt>
      <trkpt lat="48.7703" lon="-3.5118">
        <ele>95</ele>
        <time>2011-02-20T09:56:42Z</time>
      </trkpt>
      <trkpt lat="48.77032" lon="-3.51192">
        <ele>95</ele>
        <time>2011-02-20T09:56:43Z</time>
      </trkpt>
      <trkpt lat="48.77034" lon="-3.51204">
        <ele>95</ele>
        <time>2011-02-20T09:56:44Z</time>
      </trkpt>
      <trkpt lat="48.77037" lon="-3.51215">
        <ele>95</ele>
        <time>2011-02-20T09:56:45Z</time>
      </trkpt>
      <trkpt lat="48.7704" lon="-3.51227">
        <ele>95</ele>
        <time>2011-02-20T09:56:46Z</time>
      </trkpt>
      <trkpt lat="48.77043" lon="-3.51239">
        <ele>95</ele>
        <time>2011-02-20T09:56:47Z</time>
      </trkpt>
      <trkpt lat="48.77046" lon="-3.51251">
        <ele>95</ele>
        <time>2011-02-20T09:56:48Z</time>
      </trkpt>
      <trkpt lat="48.77049" lon="-3.51262">
        <ele>95</ele>
        <time>2011-02-20T09:56:49Z</time>
      </trkpt>
      <trkpt lat="48.77052" lon="-3.51274">
        <ele>95</ele>
        <time>2011-02-20T09:56:50Z</time>
      </trkpt>
      <trkpt lat="48.77055" lon="-3.51287">
        <ele>95</ele>
        <time>2011-02-20T09:56:51Z</time>
      </trkpt>
      <trkpt lat="48.77058" lon="-3.51298">
        <ele>95</ele>
        <time>2011-02-20T09:56:52Z</time>
      </trkpt>
      <trkpt lat="48.77061" lon="-3.5131">
        <ele>95</ele>
        <time>2011-02-20T09:56:53Z</time>
      </trkpt>
      <trkpt lat="48.77064" lon="-3.51322">
        <ele>95</ele>
        <time>2011-02-20T09:56:54Z</time>
      </trkpt>
      <trkpt lat="48.77067" lon="-3.51334">
        <ele>95</ele>
        <time>2011-02-20T09:56:55Z</time>
      </trkpt>
      <trkpt lat="48.7707" lon="-3.51346">
        <ele>95</ele>
        <time>2011-02-20T09:56:56Z</time>
      </trkpt>
      <trkpt lat="48.77073" lon="-3.51359">
        <ele>95</ele>
        <time>2011-02-20T09:56:57Z</time>
      </trkpt>
      <trkpt lat="48.77076" lon="-3.51371">
        <ele>95</ele>
        <time>2011-02-20T09:56:58Z</time>
      </trkpt>
      <trkpt lat="48.77079" lon="-3.51382">
        <ele>95</ele>
        <time>2011-02-20T09:56:59Z</time>
      </trkpt>
      <trkpt lat="48.77082" lon="-3.51395">
        <ele>95</ele>
        <time>2011-02-20T09:57:00Z</time>
      </trkpt>
      <trkpt lat="48.77085" lon="-3.51407">
        <ele>95</ele>
        <time>2011-02-20T09:57:01Z</time>
      </trkpt>
      <trkpt lat="48.77088" lon="-3.51418">
        <ele>95</ele>
        <time>2011-02-20T09:57:02Z</time>
      </trkpt>
      <trkpt lat="48.77091" lon="-3.51431">
        <ele>95</ele>
        <time>2011-02-20T09:57:03Z</time>
      </trkpt>
      <trkpt lat="48.77094" lon="-3.51443">
        <ele>95</ele>
        <time>2011-02-20T09:57:04Z</time>
      </trkpt>
      <trkpt lat="48.77097" lon="-3.51455">
        <ele>95</ele>
        <time>2011-02-20T09:57:05Z</time>
      </trkpt>
      <trkpt lat="48.771" lon="-3.51467">
        <ele>95</ele>
        <time>2011-02-20T09:57:06Z</time>
      </trkpt>
      <trkpt lat="48.77103" lon="-3.5148">
        <ele>95</ele>
        <time>2011-02-20T09:57:07Z</time>
      </trkpt>
      <trkpt lat="48.77106" lon="-3.51492">
        <ele>95</ele>
        <time>2011-02-20T09:57:08Z</time>
      </trkpt>
      <trkpt lat="48.77109" lon="-3.51504">
        <ele>95</ele>
        <time>2011-02-20T09:57:09Z</time>
      </trkpt>
      <trkpt lat="48.77112" lon="-3.51516">
        <ele>95</ele>
        <time>2011-02-20T09:57:10Z</time>
      </trkpt>
      <trkpt lat="48.77114" lon="-3.51528">
        <ele>95</ele>
        <time>2011-02-20T09:57:11Z</time>
      </trkpt>
      <trkpt lat="48.77117" lon="-3.5154">
        <ele>95</ele>
        <time>2011-02-20T09:57:12Z</time>
      </trkpt>
      <trkpt lat="48.7712" lon="-3.51552">
        <ele>95</ele>
        <time>2011-02-20T09:57:13Z</time>
      </trkpt>
      <trkpt lat="48.77123" lon="-3.51564">
        <ele>95</ele>
        <time>2011-02-20T09:57:14Z</time>
      </trkpt>
      <trkpt lat="48.77126" lon="-3.51575">
        <ele>95</ele>
        <time>2011-02-20T09:57:15Z</time>
      </trkpt>
      <trkpt lat="48.77129" lon="-3.51587">
        <ele>95</ele>
        <time>2011-02-20T09:57:16Z</time>
      </trkpt>
      <trkpt lat="48.77131" lon="-3.51599">
        <ele>95</ele>
        <time>2011-02-20T09:57:17Z</time>
      </trkpt>
      <trkpt lat="48.77134" lon="-3.5161">
        <ele>95</ele>
        <time>2011-02-20T09:57:18Z</time>
      </trkpt>
      <trkpt lat="48.77137" lon="-3.51621">
        <ele>95</ele>
        <time>2011-02-20T09:57:19Z</time>
      </trkpt>
      <trkpt lat="48.7714" lon="-3.51632">
        <ele>95</ele>
        <time>2011-02-20T09:57:20Z</time>
      </trkpt>
      <trkpt lat="48.77143" lon="-3.51644">
        <ele>94</ele>
        <time>2011-02-20T09:57:21Z</time>
      </trkpt>
      <trkpt lat="48.77146" lon="-3.51655">
        <ele>94</ele>
        <time>2011-02-20T09:57:22Z</time>
      </trkpt>
      <trkpt lat="48.77149" lon="-3.51666">
        <ele>94</ele>
        <time>2011-02-20T09:57:23Z</time>
      </trkpt>
      <trkpt lat="48.77152" lon="-3.51678">
        <ele>94</ele>
        <time>2011-02-20T09:57:24Z</time>
      </trkpt>
      <trkpt lat="48.77155" lon="-3.51689">
        <ele>94</ele>
        <time>2011-02-20T09:57:25Z</time>
      </trkpt>
      <trkpt lat="48.77158" lon="-3.51701">
        <ele>94</ele>
        <time>2011-02-20T09:57:26Z</time>
      </trkpt>
      <trkpt lat="48.77161" lon="-3.51711">
        <ele>94</ele>
        <time>2011-02-20T09:57:27Z</time>
      </trkpt>
      <trkpt lat="48.77166" lon="-3.5172">
        <ele>94</ele>
        <time>2011-02-20T09:57:28Z</time>
      </trkpt>
      <trkpt lat="48.7717" lon="-3.51729">
        <ele>94</ele>
        <time>2011-02-20T09:57:29Z</time>
      </trkpt>
      <trkpt lat="48.77174" lon="-3.51738">
        <ele>94</ele>
        <time>2011-02-20T09:57:30Z</time>
      </trkpt>
      <trkpt lat="48.77177" lon="-3.51748">
        <ele>93</ele>
        <time>2011-02-20T09:57:31Z</time>
      </trkpt>
      <trkpt lat="48.77179" lon="-3.5176">
        <ele>93</ele>
        <time>2011-02-20T09:57:32Z</time>
      </trkpt>
      <trkpt lat="48.77182" lon="-3.51771">
        <ele>93</ele>
        <time>2011-02-20T09:57:33Z</time>
      </trkpt>
      <trkpt lat="48.77185" lon="-3.51783">
        <ele>93</ele>
        <time>2011-02-20T09:57:34Z</time>
      </trkpt>
      <trkpt lat="48.7719" lon="-3.51794">
        <ele>93</ele>
        <time>2011-02-20T09:57:35Z</time>
      </trkpt>
      <trkpt lat="48.77194" lon="-3.51805">
        <ele>93</ele>
        <time>2011-02-20T09:57:36Z</time>
      </trkpt>
      <trkpt lat="48.77199" lon="-3.51816">
        <ele>93</ele>
        <time>2011-02-20T09:57:37Z</time>
      </trkpt>
      <trkpt lat="48.77204" lon="-3.51827">
        <ele>93</ele>
        <time>2011-02-20T09:57:38Z</time>
      </trkpt>
      <trkpt lat="48.7721" lon="-3.51838">
        <ele>93</ele>
        <time>2011-02-20T09:57:39Z</time>
      </trkpt>
      <trkpt lat="48.77216" lon="-3.51849">
        <ele>92</ele>
        <time>2011-02-20T09:57:40Z</time>
      </trkpt>
      <trkpt lat="48.77222" lon="-3.5186">
        <ele>92</ele>
        <time>2011-02-20T09:57:41Z</time>
      </trkpt>
      <trkpt lat="48.77228" lon="-3.51871">
        <ele>92</ele>
        <time>2011-02-20T09:57:42Z</time>
      </trkpt>
      <trkpt lat="48.77234" lon="-3.51882">
        <ele>92</ele>
        <time>2011-02-20T09:57:43Z</time>
      </trkpt>
      <trkpt lat="48.7724" lon="-3.51892">
        <ele>91</ele>
        <time>2011-02-20T09:57:44Z</time>
      </trkpt>
      <trkpt lat="48.77246" lon="-3.51903">
        <ele>91</ele>
        <time>2011-02-20T09:57:45Z</time>
      </trkpt>
      <trkpt lat="48.77252" lon="-3.51913">
        <ele>91</ele>
        <time>2011-02-20T09:57:46Z</time>
      </trkpt>
      <trkpt lat="48.77259" lon="-3.51923">
        <ele>91</ele>
        <time>2011-02-20T09:57:47Z</time>
      </trkpt>
      <trkpt lat="48.77264" lon="-3.51933">
        <ele>90</ele>
        <time>2011-02-20T09:57:48Z</time>
      </trkpt>
      <trkpt lat="48.7727" lon="-3.51943">
        <ele>90</ele>
        <time>2011-02-20T09:57:49Z</time>
      </trkpt>
      <trkpt lat="48.77276" lon="-3.51952">
        <ele>90</ele>
        <time>2011-02-20T09:57:50Z</time>
      </trkpt>
      <trkpt lat="48.77282" lon="-3.51961">
        <ele>90</ele>
        <time>2011-02-20T09:57:51Z</time>
      </trkpt>
      <trkpt lat="48.77288" lon="-3.51971">
        <ele>89</ele>
        <time>2011-02-20T09:57:52Z</time>
      </trkpt>
      <trkpt lat="48.77294" lon="-3.5198">
        <ele>89</ele>
        <time>2011-02-20T09:57:53Z</time>
      </trkpt>
      <trkpt lat="48.77299" lon="-3.51989">
        <ele>89</ele>
        <time>2011-02-20T09:57:54Z</time>
      </trkpt>
      <trkpt lat="48.77304" lon="-3.51997">
        <ele>89</ele>
        <time>2011-02-20T09:57:55Z</time>
      </trkpt>
      <trkpt lat="48.77309" lon="-3.52005">
        <ele>89</ele>
        <time>2011-02-20T09:57:56Z</time>
      </trkpt>
      <trkpt lat="48.77313" lon="-3.52011">
        <ele>88</ele>
        <time>2011-02-20T09:57:57Z</time>
      </trkpt>
      <trkpt lat="48.77318" lon="-3.52017">
        <ele>88</ele>
        <time>2011-02-20T09:57:58Z</time>
      </trkpt>
      <trkpt lat="48.77323" lon="-3.52023">
        <ele>88</ele>
        <time>2011-02-20T09:57:59Z</time>
      </trkpt>
      <trkpt lat="48.77328" lon="-3.52027">
        <ele>88</ele>
        <time>2011-02-20T09:58:00Z</time>
      </trkpt>
      <trkpt lat="48.77334" lon="-3.52033">
        <ele>87</ele>
        <time>2011-02-20T09:58:01Z</time>
      </trkpt>
      <trkpt lat="48.77339" lon="-3.5204">
        <ele>87</ele>
        <time>2011-02-20T09:58:02Z</time>
      </trkpt>
      <trkpt lat="48.77343" lon="-3.5205">
        <ele>87</ele>
        <time>2011-02-20T09:58:03Z</time>
      </trkpt>
      <trkpt lat="48.77346" lon="-3.52061">
        <ele>87</ele>
        <time>2011-02-20T09:58:04Z</time>
      </trkpt>
      <trkpt lat="48.7735" lon="-3.52073">
        <ele>87</ele>
        <time>2011-02-20T09:58:05Z</time>
      </trkpt>
      <trkpt lat="48.77355" lon="-3.52085">
        <ele>86</ele>
        <time>2011-02-20T09:58:06Z</time>
      </trkpt>
      <trkpt lat="48.77362" lon="-3.52096">
        <ele>86</ele>
        <time>2011-02-20T09:58:07Z</time>
      </trkpt>
      <trkpt lat="48.77368" lon="-3.52107">
        <ele>86</ele>
        <time>2011-02-20T09:58:07Z</time>
      </trkpt>
      <trkpt lat="48.77375" lon="-3.52118">
        <ele>85</ele>
        <time>2011-02-20T09:58:08Z</time>
      </trkpt>
      <trkpt lat="48.77383" lon="-3.5213">
        <ele>84</ele>
        <time>2011-02-20T09:58:09Z</time>
      </trkpt>
      <trkpt lat="48.7739" lon="-3.52142">
        <ele>84</ele>
        <time>2011-02-20T09:58:10Z</time>
      </trkpt>
      <trkpt lat="48.77398" lon="-3.52155">
        <ele>83</ele>
        <time>2011-02-20T09:58:11Z</time>
      </trkpt>
      <trkpt lat="48.77406" lon="-3.52168">
        <ele>82</ele>
        <time>2011-02-20T09:58:12Z</time>
      </trkpt>
      <trkpt lat="48.77414" lon="-3.52182">
        <ele>81</ele>
        <time>2011-02-20T09:58:13Z</time>
      </trkpt>
      <trkpt lat="48.77422" lon="-3.52196">
        <ele>81</ele>
        <time>2011-02-20T09:58:14Z</time>
      </trkpt>
      <trkpt lat="48.77431" lon="-3.5221">
        <ele>80</ele>
        <time>2011-02-20T09:58:15Z</time>
      </trkpt>
      <trkpt lat="48.7744" lon="-3.52226">
        <ele>79</ele>
        <time>2011-02-20T09:58:16Z</time>
      </trkpt>
      <trkpt lat="48.77449" lon="-3.52241">
        <ele>79</ele>
        <time>2011-02-20T09:58:17Z</time>
      </trkpt>
      <trkpt lat="48.77459" lon="-3.52257">
        <ele>78</ele>
        <time>2011-02-20T09:58:18Z</time>
      </trkpt>
      <trkpt lat="48.77468" lon="-3.52274">
        <ele>77</ele>
        <time>2011-02-20T09:58:19Z</time>
      </trkpt>
      <trkpt lat="48.77478" lon="-3.5229">
        <ele>76</ele>
        <time>2011-02-20T09:58:20Z</time>
      </trkpt>
      <trkpt lat="48.77488" lon="-3.52307">
        <ele>76</ele>
        <time>2011-02-20T09:58:21Z</time>
      </trkpt>
      <trkpt lat="48.77498" lon="-3.52324">
        <ele>75</ele>
        <time>2011-02-20T09:58:22Z</time>
      </trkpt>
      <trkpt lat="48.77509" lon="-3.52342">
        <ele>74</ele>
        <time>2011-02-20T09:58:23Z</time>
      </trkpt>
      <trkpt lat="48.77519" lon="-3.5236">
        <ele>73</ele>
        <time>2011-02-20T09:58:24Z</time>
      </trkpt>
      <trkpt lat="48.7753" lon="-3.52379">
        <ele>72</ele>
        <time>2011-02-20T09:58:25Z</time>
      </trkpt>
      <trkpt lat="48.77541" lon="-3.52397">
        <ele>71</ele>
        <time>2011-02-20T09:58:26Z</time>
      </trkpt>
      <trkpt lat="48.77552" lon="-3.52416">
        <ele>71</ele>
        <time>2011-02-20T09:58:27Z</time>
      </trkpt>
      <trkpt lat="48.77564" lon="-3.52434">
        <ele>70</ele>
        <time>2011-02-20T09:58:28Z</time>
      </trkpt>
      <trkpt lat="48.77575" lon="-3.52453">
        <ele>69</ele>
        <time>2011-02-20T09:58:29Z</time>
      </trkpt>
      <trkpt lat="48.77587" lon="-3.52471">
        <ele>68</ele>
        <time>2011-02-20T09:58:30Z</time>
      </trkpt>
      <trkpt lat="48.77598" lon="-3.5249">
        <ele>67</ele>
        <time>2011-02-20T09:58:31Z</time>
      </trkpt>
      <trkpt lat="48.77608" lon="-3.52507">
        <ele>66</ele>
        <time>2011-02-20T09:58:32Z</time>
      </trkpt>
      <trkpt lat="48.77618" lon="-3.52523">
        <ele>65</ele>
        <time>2011-02-20T09:58:33Z</time>
      </trkpt>
      <trkpt lat="48.77629" lon="-3.52539">
        <ele>64</ele>
        <time>2011-02-20T09:58:34Z</time>
      </trkpt>
      <trkpt lat="48.77639" lon="-3.52554">
        <ele>63</ele>
        <time>2011-02-20T09:58:35Z</time>
      </trkpt>
      <trkpt lat="48.7765" lon="-3.52571">
        <ele>62</ele>
        <time>2011-02-20T09:58:37Z</time>
      </trkpt>
      <trkpt lat="48.77661" lon="-3.52586">
        <ele>61</ele>
        <time>2011-02-20T09:58:37Z</time>
      </trkpt>
      <trkpt lat="48.77672" lon="-3.52601">
        <ele>60</ele>
        <time>2011-02-20T09:58:38Z</time>
      </trkpt>
      <trkpt lat="48.77684" lon="-3.52616">
        <ele>59</ele>
        <time>2011-02-20T09:58:39Z</time>
      </trkpt>
      <trkpt lat="48.77697" lon="-3.52629">
        <ele>58</ele>
        <time>2011-02-20T09:58:40Z</time>
      </trkpt>
      <trkpt lat="48.7771" lon="-3.52643">
        <ele>57</ele>
        <time>2011-02-20T09:58:41Z</time>
      </trkpt>
      <trkpt lat="48.77723" lon="-3.52656">
        <ele>56</ele>
        <time>2011-02-20T09:58:42Z</time>
      </trkpt>
      <trkpt lat="48.77737" lon="-3.52667">
        <ele>55</ele>
        <time>2011-02-20T09:58:43Z</time>
      </trkpt>
      <trkpt lat="48.77751" lon="-3.52679">
        <ele>54</ele>
        <time>2011-02-20T09:58:44Z</time>
      </trkpt>
      <trkpt lat="48.77766" lon="-3.52689">
        <ele>53</ele>
        <time>2011-02-20T09:58:45Z</time>
      </trkpt>
      <trkpt lat="48.77781" lon="-3.52699">
        <ele>52</ele>
        <time>2011-02-20T09:58:46Z</time>
      </trkpt>
      <trkpt lat="48.77795" lon="-3.52708">
        <ele>51</ele>
        <time>2011-02-20T09:58:47Z</time>
      </trkpt>
      <trkpt lat="48.7781" lon="-3.52716">
        <ele>50</ele>
        <time>2011-02-20T09:58:48Z</time>
      </trkpt>
      <trkpt lat="48.77825" lon="-3.52724">
        <ele>49</ele>
        <time>2011-02-20T09:58:49Z</time>
      </trkpt>
      <trkpt lat="48.77841" lon="-3.52732">
        <ele>48</ele>
        <time>2011-02-20T09:58:50Z</time>
      </trkpt>
      <trkpt lat="48.77856" lon="-3.5274">
        <ele>47</ele>
        <time>2011-02-20T09:58:51Z</time>
      </trkpt>
      <trkpt lat="48.77871" lon="-3.52747">
        <ele>46</ele>
        <time>2011-02-20T09:58:52Z</time>
      </trkpt>
      <trkpt lat="48.77886" lon="-3.52754">
        <ele>45</ele>
        <time>2011-02-20T09:58:53Z</time>
      </trkpt>
      <trkpt lat="48.77901" lon="-3.52762">
        <ele>44</ele>
        <time>2011-02-20T09:58:54Z</time>
      </trkpt>
      <trkpt lat="48.77916" lon="-3.52768">
        <ele>43</ele>
        <time>2011-02-20T09:58:55Z</time>
      </trkpt>
      <trkpt lat="48.7793" lon="-3.52775">
        <ele>42</ele>
        <time>2011-02-20T09:58:56Z</time>
      </trkpt>
      <trkpt lat="48.77945" lon="-3.52782">
        <ele>41</ele>
        <time>2011-02-20T09:58:57Z</time>
      </trkpt>
      <trkpt lat="48.77959" lon="-3.52789">
        <ele>40</ele>
        <time>2011-02-20T09:58:58Z</time>
      </trkpt>
      <trkpt lat="48.77973" lon="-3.52796">
        <ele>39</ele>
        <time>2011-02-20T09:58:59Z</time>
      </trkpt>
      <trkpt lat="48.77988" lon="-3.52803">
        <ele>38</ele>
        <time>2011-02-20T09:59:00Z</time>
      </trkpt>
      <trkpt lat="48.78001" lon="-3.5281">
        <ele>37</ele>
        <time>2011-02-20T09:59:01Z</time>
      </trkpt>
      <trkpt lat="48.78015" lon="-3.52817">
        <ele>37</ele>
        <time>2011-02-20T09:59:02Z</time>
      </trkpt>
      <trkpt lat="48.78028" lon="-3.52824">
        <ele>36</ele>
        <time>2011-02-20T09:59:03Z</time>
      </trkpt>
      <trkpt lat="48.78042" lon="-3.52831">
        <ele>36</ele>
        <time>2011-02-20T09:59:04Z</time>
      </trkpt>
      <trkpt lat="48.78055" lon="-3.52838">
        <ele>36</ele>
        <time>2011-02-20T09:59:05Z</time>
      </trkpt>
      <trkpt lat="48.78068" lon="-3.52845">
        <ele>35</ele>
        <time>2011-02-20T09:59:06Z</time>
      </trkpt>
      <trkpt lat="48.78082" lon="-3.52852">
        <ele>35</ele>
        <time>2011-02-20T09:59:07Z</time>
      </trkpt>
      <trkpt lat="48.78094" lon="-3.5286">
        <ele>34</ele>
        <time>2011-02-20T09:59:08Z</time>
      </trkpt>
      <trkpt lat="48.78107" lon="-3.52869">
        <ele>33</ele>
        <time>2011-02-20T09:59:09Z</time>
      </trkpt>
      <trkpt lat="48.7812" lon="-3.52878">
        <ele>33</ele>
        <time>2011-02-20T09:59:10Z</time>
      </trkpt>
      <trkpt lat="48.78133" lon="-3.52888">
        <ele>32</ele>
        <time>2011-02-20T09:59:11Z</time>
      </trkpt>
      <trkpt lat="48.78146" lon="-3.529">
        <ele>31</ele>
        <time>2011-02-20T09:59:12Z</time>
      </trkpt>
      <trkpt lat="48.78158" lon="-3.52911">
        <ele>30</ele>
        <time>2011-02-20T09:59:13Z</time>
      </trkpt>
      <trkpt lat="48.7817" lon="-3.52924">
        <ele>30</ele>
        <time>2011-02-20T09:59:14Z</time>
      </trkpt>
      <trkpt lat="48.78182" lon="-3.52938">
        <ele>29</ele>
        <time>2011-02-20T09:59:15Z</time>
      </trkpt>
      <trkpt lat="48.78193" lon="-3.52951">
        <ele>28</ele>
        <time>2011-02-20T09:59:16Z</time>
      </trkpt>
      <trkpt lat="48.78205" lon="-3.52965">
        <ele>27</ele>
        <time>2011-02-20T09:59:17Z</time>
      </trkpt>
      <trkpt lat="48.78216" lon="-3.5298">
        <ele>27</ele>
        <time>2011-02-20T09:59:18Z</time>
      </trkpt>
      <trkpt lat="48.78226" lon="-3.52995">
        <ele>26</ele>
        <time>2011-02-20T09:59:19Z</time>
      </trkpt>
      <trkpt lat="48.78237" lon="-3.5301">
        <ele>25</ele>
        <time>2011-02-20T09:59:20Z</time>
      </trkpt>
      <trkpt lat="48.78247" lon="-3.53026">
        <ele>24</ele>
        <time>2011-02-20T09:59:21Z</time>
      </trkpt>
      <trkpt lat="48.78257" lon="-3.53042">
        <ele>24</ele>
        <time>2011-02-20T09:59:22Z</time>
      </trkpt>
      <trkpt lat="48.78266" lon="-3.53058">
        <ele>23</ele>
        <time>2011-02-20T09:59:23Z</time>
      </trkpt>
      <trkpt lat="48.78274" lon="-3.53074">
        <ele>22</ele>
        <time>2011-02-20T09:59:24Z</time>
      </trkpt>
      <trkpt lat="48.78283" lon="-3.53091">
        <ele>22</ele>
        <time>2011-02-20T09:59:25Z</time>
      </trkpt>
      <trkpt lat="48.7829" lon="-3.53108">
        <ele>21</ele>
        <time>2011-02-20T09:59:26Z</time>
      </trkpt>
      <trkpt lat="48.78298" lon="-3.53124">
        <ele>21</ele>
        <time>2011-02-20T09:59:27Z</time>
      </trkpt>
      <trkpt lat="48.78305" lon="-3.53141">
        <ele>21</ele>
        <time>2011-02-20T09:59:28Z</time>
      </trkpt>
      <trkpt lat="48.78313" lon="-3.53157">
        <ele>20</ele>
        <time>2011-02-20T09:59:29Z</time>
      </trkpt>
      <trkpt lat="48.7832" lon="-3.53173">
        <ele>20</ele>
        <time>2011-02-20T09:59:30Z</time>
      </trkpt>
      <trkpt lat="48.78327" lon="-3.53188">
        <ele>20</ele>
        <time>2011-02-20T09:59:31Z</time>
      </trkpt>
      <trkpt lat="48.78334" lon="-3.53204">
        <ele>20</ele>
        <time>2011-02-20T09:59:32Z</time>
      </trkpt>
      <trkpt lat="48.78341" lon="-3.5322">
        <ele>20</ele>
        <time>2011-02-20T09:59:33Z</time>
      </trkpt>
      <trkpt lat="48.78347" lon="-3.53235">
        <ele>20</ele>
        <time>2011-02-20T09:59:34Z</time>
      </trkpt>
      <trkpt lat="48.78354" lon="-3.5325">
        <ele>20</ele>
        <time>2011-02-20T09:59:35Z</time>
      </trkpt>
      <trkpt lat="48.7836" lon="-3.53265">
        <ele>20</ele>
        <time>2011-02-20T09:59:36Z</time>
      </trkpt>
      <trkpt lat="48.78366" lon="-3.5328">
        <ele>19</ele>
        <time>2011-02-20T09:59:37Z</time>
      </trkpt>
      <trkpt lat="48.78371" lon="-3.53294">
        <ele>19</ele>
        <time>2011-02-20T09:59:38Z</time>
      </trkpt>
      <trkpt lat="48.78377" lon="-3.53309">
        <ele>19</ele>
        <time>2011-02-20T09:59:39Z</time>
      </trkpt>
      <trkpt lat="48.78382" lon="-3.53324">
        <ele>19</ele>
        <time>2011-02-20T09:59:40Z</time>
      </trkpt>
      <trkpt lat="48.78388" lon="-3.53338">
        <ele>19</ele>
        <time>2011-02-20T09:59:41Z</time>
      </trkpt>
      <trkpt lat="48.78393" lon="-3.53353">
        <ele>19</ele>
        <time>2011-02-20T09:59:42Z</time>
      </trkpt>
      <trkpt lat="48.78398" lon="-3.53367">
        <ele>19</ele>
        <time>2011-02-20T09:59:43Z</time>
      </trkpt>
      <trkpt lat="48.78403" lon="-3.53381">
        <ele>18</ele>
        <time>2011-02-20T09:59:44Z</time>
      </trkpt>
      <trkpt lat="48.78408" lon="-3.53396">
        <ele>18</ele>
        <time>2011-02-20T09:59:45Z</time>
      </trkpt>
      <trkpt lat="48.78413" lon="-3.5341">
        <ele>18</ele>
        <time>2011-02-20T09:59:46Z</time>
      </trkpt>
      <trkpt lat="48.78417" lon="-3.53424">
        <ele>18</ele>
        <time>2011-02-20T09:59:47Z</time>
      </trkpt>
      <trkpt lat="48.78422" lon="-3.53439">
        <ele>18</ele>
        <time>2011-02-20T09:59:48Z</time>
      </trkpt>
      <trkpt lat="48.78426" lon="-3.53453">
        <ele>18</ele>
        <time>2011-02-20T09:59:49Z</time>
      </trkpt>
      <trkpt lat="48.78431" lon="-3.53467">
        <ele>18</ele>
        <time>2011-02-20T09:59:50Z</time>
      </trkpt>
      <trkpt lat="48.78435" lon="-3.53482">
        <ele>18</ele>
        <time>2011-02-20T09:59:51Z</time>
      </trkpt>
      <trkpt lat="48.78439" lon="-3.53496">
        <ele>18</ele>
        <time>2011-02-20T09:59:52Z</time>
      </trkpt>
      <trkpt lat="48.78444" lon="-3.5351">
        <ele>18</ele>
        <time>2011-02-20T09:59:53Z</time>
      </trkpt>
      <trkpt lat="48.78448" lon="-3.53524">
        <ele>18</ele>
        <time>2011-02-20T09:59:54Z</time>
      </trkpt>
      <trkpt lat="48.78452" lon="-3.53538">
        <ele>18</ele>
        <time>2011-02-20T09:59:55Z</time>
      </trkpt>
      <trkpt lat="48.78456" lon="-3.53552">
        <ele>18</ele>
        <time>2011-02-20T09:59:56Z</time>
      </trkpt>
      <trkpt lat="48.78461" lon="-3.53566">
        <ele>18</ele>
        <time>2011-02-20T09:59:58Z</time>
      </trkpt>
      <trkpt lat="48.78465" lon="-3.53579">
        <ele>18</ele>
        <time>2011-02-20T09:59:59Z</time>
      </trkpt>
      <trkpt lat="48.78469" lon="-3.53593">
        <ele>18</ele>
        <time>2011-02-20T10:00:00Z</time>
      </trkpt>
      <trkpt lat="48.78473" lon="-3.53606">
        <ele>18</ele>
        <time>2011-02-20T10:00:01Z</time>
      </trkpt>
      <trkpt lat="48.78477" lon="-3.5362">
        <ele>18</ele>
        <time>2011-02-20T10:00:02Z</time>
      </trkpt>
      <trkpt lat="48.78482" lon="-3.53633">
        <ele>18</ele>
        <time>2011-02-20T10:00:03Z</time>
      </trkpt>
      <trkpt lat="48.78485" lon="-3.53647">
        <ele>18</ele>
        <time>2011-02-20T10:00:04Z</time>
      </trkpt>
      <trkpt lat="48.7849" lon="-3.5366">
        <ele>18</ele>
        <time>2011-02-20T10:00:05Z</time>
      </trkpt>
      <trkpt lat="48.78494" lon="-3.53674">
        <ele>18</ele>
        <time>2011-02-20T10:00:06Z</time>
      </trkpt>
      <trkpt lat="48.78498" lon="-3.53687">
        <ele>18</ele>
        <time>2011-02-20T10:00:07Z</time>
      </trkpt>
      <trkpt lat="48.78502" lon="-3.53701">
        <ele>18</ele>
        <time>2011-02-20T10:00:08Z</time>
      </trkpt>
      <trkpt lat="48.78506" lon="-3.53714">
        <ele>18</ele>
        <time>2011-02-20T10:00:09Z</time>
      </trkpt>
      <trkpt lat="48.78511" lon="-3.53727">
        <ele>18</ele>
        <time>2011-02-20T10:00:10Z</time>
      </trkpt>
      <trkpt lat="48.78515" lon="-3.53741">
        <ele>18</ele>
        <time>2011-02-20T10:00:11Z</time>
      </trkpt>
      <trkpt lat="48.78519" lon="-3.53754">
        <ele>17</ele>
        <time>2011-02-20T10:00:12Z</time>
      </trkpt>
      <trkpt lat="48.78523" lon="-3.53767">
        <ele>17</ele>
        <time>2011-02-20T10:00:13Z</time>
      </trkpt>
      <trkpt lat="48.78527" lon="-3.5378">
        <ele>17</ele>
        <time>2011-02-20T10:00:14Z</time>
      </trkpt>
      <trkpt lat="48.78532" lon="-3.53793">
        <ele>17</ele>
        <time>2011-02-20T10:00:15Z</time>
      </trkpt>
      <trkpt lat="48.78536" lon="-3.53805">
        <ele>17</ele>
        <time>2011-02-20T10:00:16Z</time>
      </trkpt>
      <trkpt lat="48.7854" lon="-3.53818">
        <ele>17</ele>
        <time>2011-02-20T10:00:17Z</time>
      </trkpt>
      <trkpt lat="48.78545" lon="-3.53831">
        <ele>17</ele>
        <time>2011-02-20T10:00:18Z</time>
      </trkpt>
      <trkpt lat="48.78549" lon="-3.53843">
        <ele>17</ele>
        <time>2011-02-20T10:00:19Z</time>
      </trkpt>
      <trkpt lat="48.78554" lon="-3.53856">
        <ele>17</ele>
        <time>2011-02-20T10:00:20Z</time>
      </trkpt>
      <trkpt lat="48.78558" lon="-3.53868">
        <ele>17</ele>
        <time>2011-02-20T10:00:21Z</time>
      </trkpt>
      <trkpt lat="48.78563" lon="-3.53881">
        <ele>17</ele>
        <time>2011-02-20T10:00:22Z</time>
      </trkpt>
      <trkpt lat="48.78567" lon="-3.53893">
        <ele>17</ele>
        <time>2011-02-20T10:00:23Z</time>
      </trkpt>
      <trkpt lat="48.78572" lon="-3.53905">
        <ele>17</ele>
        <time>2011-02-20T10:00:24Z</time>
      </trkpt>
      <trkpt lat="48.78577" lon="-3.53917">
        <ele>17</ele>
        <time>2011-02-20T10:00:25Z</time>
      </trkpt>
      <trkpt lat="48.78581" lon="-3.5393">
        <ele>17</ele>
        <time>2011-02-20T10:00:26Z</time>
      </trkpt>
      <trkpt lat="48.78586" lon="-3.53942">
        <ele>16</ele>
        <time>2011-02-20T10:00:27Z</time>
      </trkpt>
      <trkpt lat="48.7859" lon="-3.53954">
        <ele>16</ele>
        <time>2011-02-20T10:00:28Z</time>
      </trkpt>
      <trkpt lat="48.78595" lon="-3.53965">
        <ele>16</ele>
        <time>2011-02-20T10:00:29Z</time>
      </trkpt>
      <trkpt lat="48.786" lon="-3.53977">
        <ele>16</ele>
        <time>2011-02-20T10:00:30Z</time>
      </trkpt>
      <trkpt lat="48.78605" lon="-3.53989">
        <ele>16</ele>
        <time>2011-02-20T10:00:31Z</time>
      </trkpt>
      <trkpt lat="48.78609" lon="-3.54001">
        <ele>16</ele>
        <time>2011-02-20T10:00:32Z</time>
      </trkpt>
      <trkpt lat="48.78614" lon="-3.54012">
        <ele>15</ele>
        <time>2011-02-20T10:00:33Z</time>
      </trkpt>
      <trkpt lat="48.78619" lon="-3.54024">
        <ele>15</ele>
        <time>2011-02-20T10:00:34Z</time>
      </trkpt>
      <trkpt lat="48.78624" lon="-3.54036">
        <ele>15</ele>
        <time>2011-02-20T10:00:35Z</time>
      </trkpt>
      <trkpt lat="48.78629" lon="-3.54047">
        <ele>15</ele>
        <time>2011-02-20T10:00:36Z</time>
      </trkpt>
      <trkpt lat="48.78634" lon="-3.54059">
        <ele>15</ele>
        <time>2011-02-20T10:00:37Z</time>
      </trkpt>
      <trkpt lat="48.78639" lon="-3.54071">
        <ele>15</ele>
        <time>2011-02-20T10:00:38Z</time>
      </trkpt>
      <trkpt lat="48.78644" lon="-3.54082">
        <ele>15</ele>
        <time>2011-02-20T10:00:39Z</time>
      </trkpt>
      <trkpt lat="48.78649" lon="-3.54094">
        <ele>14</ele>
        <time>2011-02-20T10:00:40Z</time>
      </trkpt>
      <trkpt lat="48.78654" lon="-3.54106">
        <ele>14</ele>
        <time>2011-02-20T10:00:41Z</time>
      </trkpt>
      <trkpt lat="48.78659" lon="-3.54118">
        <ele>14</ele>
        <time>2011-02-20T10:00:42Z</time>
      </trkpt>
      <trkpt lat="48.78664" lon="-3.5413">
        <ele>14</ele>
        <time>2011-02-20T10:00:43Z</time>
      </trkpt>
      <trkpt lat="48.78669" lon="-3.54142">
        <ele>14</ele>
        <time>2011-02-20T10:00:44Z</time>
      </trkpt>
      <trkpt lat="48.78675" lon="-3.54154">
        <ele>13</ele>
        <time>2011-02-20T10:00:45Z</time>
      </trkpt>
      <trkpt lat="48.7868" lon="-3.54166">
        <ele>13</ele>
        <time>2011-02-20T10:00:46Z</time>
      </trkpt>
      <trkpt lat="48.78685" lon="-3.54178">
        <ele>13</ele>
        <time>2011-02-20T10:00:47Z</time>
      </trkpt>
      <trkpt lat="48.78691" lon="-3.54191">
        <ele>13</ele>
        <time>2011-02-20T10:00:48Z</time>
      </trkpt>
      <trkpt lat="48.78696" lon="-3.54204">
        <ele>13</ele>
        <time>2011-02-20T10:00:49Z</time>
      </trkpt>
      <trkpt lat="48.78701" lon="-3.54217">
        <ele>13</ele>
        <time>2011-02-20T10:00:50Z</time>
      </trkpt>
      <trkpt lat="48.78707" lon="-3.5423">
        <ele>13</ele>
        <time>2011-02-20T10:00:51Z</time>
      </trkpt>
      <trkpt lat="48.78712" lon="-3.54242">
        <ele>13</ele>
        <time>2011-02-20T10:00:52Z</time>
      </trkpt>
      <trkpt lat="48.78718" lon="-3.54255">
        <ele>13</ele>
        <time>2011-02-20T10:00:53Z</time>
      </trkpt>
      <trkpt lat="48.78723" lon="-3.54268">
        <ele>13</ele>
        <time>2011-02-20T10:00:54Z</time>
      </trkpt>
      <trkpt lat="48.78729" lon="-3.5428">
        <ele>13</ele>
        <time>2011-02-20T10:00:55Z</time>
      </trkpt>
      <trkpt lat="48.78734" lon="-3.54292">
        <ele>13</ele>
        <time>2011-02-20T10:00:56Z</time>
      </trkpt>
      <trkpt lat="48.78739" lon="-3.54305">
        <ele>13</ele>
        <time>2011-02-20T10:00:57Z</time>
      </trkpt>
      <trkpt lat="48.78744" lon="-3.54316">
        <ele>13</ele>
        <time>2011-02-20T10:00:58Z</time>
      </trkpt>
      <trkpt lat="48.78749" lon="-3.54328">
        <ele>13</ele>
        <time>2011-02-20T10:00:59Z</time>
      </trkpt>
      <trkpt lat="48.78754" lon="-3.54341">
        <ele>13</ele>
        <time>2011-02-20T10:01:00Z</time>
      </trkpt>
      <trkpt lat="48.78758" lon="-3.54353">
        <ele>13</ele>
        <time>2011-02-20T10:01:01Z</time>
      </trkpt>
      <trkpt lat="48.78762" lon="-3.54365">
        <ele>13</ele>
        <time>2011-02-20T10:01:02Z</time>
      </trkpt>
      <trkpt lat="48.78767" lon="-3.54378">
        <ele>13</ele>
        <time>2011-02-20T10:01:03Z</time>
      </trkpt>
      <trkpt lat="48.7877" lon="-3.54391">
        <ele>13</ele>
        <time>2011-02-20T10:01:04Z</time>
      </trkpt>
      <trkpt lat="48.78773" lon="-3.54404">
        <ele>13</ele>
        <time>2011-02-20T10:01:05Z</time>
      </trkpt>
      <trkpt lat="48.78776" lon="-3.54417">
        <ele>13</ele>
        <time>2011-02-20T10:01:06Z</time>
      </trkpt>
      <trkpt lat="48.78779" lon="-3.5443">
        <ele>13</ele>
        <time>2011-02-20T10:01:07Z</time>
      </trkpt>
      <trkpt lat="48.78782" lon="-3.54443">
        <ele>13</ele>
        <time>2011-02-20T10:01:08Z</time>
      </trkpt>
      <trkpt lat="48.78784" lon="-3.54456">
        <ele>13</ele>
        <time>2011-02-20T10:01:09Z</time>
      </trkpt>
      <trkpt lat="48.78788" lon="-3.54482">
        <ele>13</ele>
        <time>2011-02-20T10:01:11Z</time>
      </trkpt>
      <trkpt lat="48.78787" lon="-3.54658">
        <ele>12</ele>
        <time>2011-02-20T10:01:24Z</time>
      </trkpt>
      <trkpt lat="48.78777" lon="-3.54743">
        <ele>11</ele>
        <time>2011-02-20T10:01:30Z</time>
      </trkpt>
      <trkpt lat="48.78774" lon="-3.54771">
        <ele>11</ele>
        <time>2011-02-20T10:01:32Z</time>
      </trkpt>
      <trkpt lat="48.78772" lon="-3.54786">
        <ele>11</ele>
        <time>2011-02-20T10:01:33Z</time>
      </trkpt>
      <trkpt lat="48.7877" lon="-3.548">
        <ele>11</ele>
        <time>2011-02-20T10:01:34Z</time>
      </trkpt>
      <trkpt lat="48.78767" lon="-3.54829">
        <ele>11</ele>
        <time>2011-02-20T10:01:36Z</time>
      </trkpt>
      <trkpt lat="48.78763" lon="-3.54856">
        <ele>10</ele>
        <time>2011-02-20T10:01:38Z</time>
      </trkpt>
      <trkpt lat="48.78762" lon="-3.5487">
        <ele>10</ele>
        <time>2011-02-20T10:01:39Z</time>
      </trkpt>
      <trkpt lat="48.78758" lon="-3.54897">
        <ele>9</ele>
        <time>2011-02-20T10:01:41Z</time>
      </trkpt>
      <trkpt lat="48.78756" lon="-3.5491">
        <ele>9</ele>
        <time>2011-02-20T10:01:42Z</time>
      </trkpt>
      <trkpt lat="48.78752" lon="-3.54935">
        <ele>9</ele>
        <time>2011-02-20T10:01:44Z</time>
      </trkpt>
      <trkpt lat="48.78748" lon="-3.55012">
        <ele>8</ele>
        <time>2011-02-20T10:01:50Z</time>
      </trkpt>
      <trkpt lat="48.78749" lon="-3.55026">
        <ele>8</ele>
        <time>2011-02-20T10:01:51Z</time>
      </trkpt>
      <trkpt lat="48.78751" lon="-3.55039">
        <ele>8</ele>
        <time>2011-02-20T10:01:52Z</time>
      </trkpt>
      <trkpt lat="48.78754" lon="-3.55051">
        <ele>8</ele>
        <time>2011-02-20T10:01:53Z</time>
      </trkpt>
      <trkpt lat="48.78757" lon="-3.55063">
        <ele>8</ele>
        <time>2011-02-20T10:01:54Z</time>
      </trkpt>
      <trkpt lat="48.78761" lon="-3.55074">
        <ele>8</ele>
        <time>2011-02-20T10:01:55Z</time>
      </trkpt>
      <trkpt lat="48.78766" lon="-3.55085">
        <ele>8</ele>
        <time>2011-02-20T10:01:56Z</time>
      </trkpt>
      <trkpt lat="48.78772" lon="-3.55096">
        <ele>8</ele>
        <time>2011-02-20T10:01:57Z</time>
      </trkpt>
      <trkpt lat="48.78778" lon="-3.55104">
        <ele>9</ele>
        <time>2011-02-20T10:01:58Z</time>
      </trkpt>
      <trkpt lat="48.78785" lon="-3.55111">
        <ele>9</ele>
        <time>2011-02-20T10:01:59Z</time>
      </trkpt>
      <trkpt lat="48.78792" lon="-3.55116">
        <ele>9</ele>
        <time>2011-02-20T10:02:00Z</time>
      </trkpt>
      <trkpt lat="48.78799" lon="-3.5512">
        <ele>9</ele>
        <time>2011-02-20T10:02:01Z</time>
      </trkpt>
      <trkpt lat="48.78807" lon="-3.55124">
        <ele>9</ele>
        <time>2011-02-20T10:02:02Z</time>
      </trkpt>
      <trkpt lat="48.78814" lon="-3.55127">
        <ele>9</ele>
        <time>2011-02-20T10:02:03Z</time>
      </trkpt>
      <trkpt lat="48.78822" lon="-3.55128">
        <ele>9</ele>
        <time>2011-02-20T10:02:04Z</time>
      </trkpt>
      <trkpt lat="48.7883" lon="-3.55128">
        <ele>9</ele>
        <time>2011-02-20T10:02:05Z</time>
      </trkpt>
      <trkpt lat="48.78838" lon="-3.55127">
        <ele>9</ele>
        <time>2011-02-20T10:02:06Z</time>
      </trkpt>
      <trkpt lat="48.78846" lon="-3.55124">
        <ele>9</ele>
        <time>2011-02-20T10:02:07Z</time>
      </trkpt>
      <trkpt lat="48.78855" lon="-3.55122">
        <ele>9</ele>
        <time>2011-02-20T10:02:08Z</time>
      </trkpt>
      <trkpt lat="48.78863" lon="-3.5512">
        <ele>9</ele>
        <time>2011-02-20T10:02:09Z</time>
      </trkpt>
      <trkpt lat="48.78872" lon="-3.5512">
        <ele>9</ele>
        <time>2011-02-20T10:02:10Z</time>
      </trkpt>
      <trkpt lat="48.78881" lon="-3.5512">
        <ele>9</ele>
        <time>2011-02-20T10:02:11Z</time>
      </trkpt>
      <trkpt lat="48.78891" lon="-3.55122">
        <ele>9</ele>
        <time>2011-02-20T10:02:12Z</time>
      </trkpt>
      <trkpt lat="48.789" lon="-3.55124">
        <ele>9</ele>
        <time>2011-02-20T10:02:13Z</time>
      </trkpt>
      <trkpt lat="48.7891" lon="-3.55128">
        <ele>9</ele>
        <time>2011-02-20T10:02:13Z</time>
      </trkpt>
      <trkpt lat="48.7892" lon="-3.55132">
        <ele>9</ele>
        <time>2011-02-20T10:02:15Z</time>
      </trkpt>
      <trkpt lat="48.78929" lon="-3.55137">
        <ele>9</ele>
        <time>2011-02-20T10:02:15Z</time>
      </trkpt>
      <trkpt lat="48.78939" lon="-3.55142">
        <ele>9</ele>
        <time>2011-02-20T10:02:16Z</time>
      </trkpt>
      <trkpt lat="48.78949" lon="-3.55149">
        <ele>8</ele>
        <time>2011-02-20T10:02:17Z</time>
      </trkpt>
      <trkpt lat="48.78958" lon="-3.55156">
        <ele>7</ele>
        <time>2011-02-20T10:02:18Z</time>
      </trkpt>
      <trkpt lat="48.78967" lon="-3.55165">
        <ele>7</ele>
        <time>2011-02-20T10:02:19Z</time>
      </trkpt>
      <trkpt lat="48.78976" lon="-3.55174">
        <ele>6</ele>
        <time>2011-02-20T10:02:20Z</time>
      </trkpt>
      <trkpt lat="48.78985" lon="-3.55183">
        <ele>5</ele>
        <time>2011-02-20T10:02:21Z</time>
      </trkpt>
      <trkpt lat="48.78993" lon="-3.55192">
        <ele>5</ele>
        <time>2011-02-20T10:02:22Z</time>
      </trkpt>
      <trkpt lat="48.79002" lon="-3.55201">
        <ele>4</ele>
        <time>2011-02-20T10:02:24Z</time>
      </trkpt>
      <trkpt lat="48.7901" lon="-3.55209">
        <ele>4</ele>
        <time>2011-02-20T10:02:25Z</time>
      </trkpt>
      <trkpt lat="48.79017" lon="-3.55218">
        <ele>3</ele>
        <time>2011-02-20T10:02:26Z</time>
      </trkpt>
      <trkpt lat="48.79024" lon="-3.55227">
        <ele>3</ele>
        <time>2011-02-20T10:02:27Z</time>
      </trkpt>
      <trkpt lat="48.79031" lon="-3.55238">
        <ele>2</ele>
        <time>2011-02-20T10:02:28Z</time>
      </trkpt>
      <trkpt lat="48.79036" lon="-3.5525">
        <ele>2</ele>
        <time>2011-02-20T10:02:29Z</time>
      </trkpt>
      <trkpt lat="48.79041" lon="-3.55262">
        <ele>2</ele>
        <time>2011-02-20T10:02:30Z</time>
      </trkpt>
      <trkpt lat="48.79047" lon="-3.55289">
        <ele>2</ele>
        <time>2011-02-20T10:02:32Z</time>
      </trkpt>
      <trkpt lat="48.79051" lon="-3.55344">
        <ele>1</ele>
        <time>2011-02-20T10:02:36Z</time>
      </trkpt>
      <trkpt lat="48.79053" lon="-3.55357">
        <ele>1</ele>
        <time>2011-02-20T10:02:37Z</time>
      </trkpt>
      <trkpt lat="48.79055" lon="-3.5537">
        <ele>1</ele>
        <time>2011-02-20T10:02:38Z</time>
      </trkpt>
      <trkpt lat="48.79057" lon="-3.55383">
        <ele>1</ele>
        <time>2011-02-20T10:02:39Z</time>
      </trkpt>
      <trkpt lat="48.7906" lon="-3.55396">
        <ele>1</ele>
        <time>2011-02-20T10:02:40Z</time>
      </trkpt>
      <trkpt lat="48.79064" lon="-3.55407">
        <ele>1</ele>
        <time>2011-02-20T10:02:41Z</time>
      </trkpt>
      <trkpt lat="48.79068" lon="-3.55418">
        <ele>1</ele>
        <time>2011-02-20T10:02:42Z</time>
      </trkpt>
      <trkpt lat="48.79073" lon="-3.55428">
        <ele>1</ele>
        <time>2011-02-20T10:02:43Z</time>
      </trkpt>
      <trkpt lat="48.79078" lon="-3.55438">
        <ele>1</ele>
        <time>2011-02-20T10:02:44Z</time>
      </trkpt>
      <trkpt lat="48.79083" lon="-3.55446">
        <ele>1</ele>
        <time>2011-02-20T10:02:45Z</time>
      </trkpt>
      <trkpt lat="48.79088" lon="-3.55454">
        <ele>1</ele>
        <time>2011-02-20T10:02:46Z</time>
      </trkpt>
      <trkpt lat="48.79092" lon="-3.5546">
        <ele>1</ele>
        <time>2011-02-20T10:02:47Z</time>
      </trkpt>
      <trkpt lat="48.79095" lon="-3.55466">
        <ele>1</ele>
        <time>2011-02-20T10:02:48Z</time>
      </trkpt>
      <trkpt lat="48.79098" lon="-3.5547">
        <ele>1</ele>
        <time>2011-02-20T10:02:49Z</time>
      </trkpt>
      <trkpt lat="48.79101" lon="-3.55475">
        <ele>1</ele>
        <time>2011-02-20T10:02:50Z</time>
      </trkpt>
      <trkpt lat="48.79104" lon="-3.55479">
        <ele>1</ele>
        <time>2011-02-20T10:02:51Z</time>
      </trkpt>
      <trkpt lat="48.79107" lon="-3.55484">
        <ele>1</ele>
        <time>2011-02-20T10:02:52Z</time>
      </trkpt>
      <trkpt lat="48.7911" lon="-3.55487">
        <ele>1</ele>
        <time>2011-02-20T10:02:53Z</time>
      </trkpt>
      <trkpt lat="48.79113" lon="-3.5549">
        <ele>1</ele>
        <time>2011-02-20T10:02:54Z</time>
      </trkpt>
      <trkpt lat="48.79115" lon="-3.55491">
        <ele>1</ele>
        <time>2011-02-20T10:02:55Z</time>
      </trkpt>
      <trkpt lat="48.79118" lon="-3.55493">
        <ele>1</ele>
        <time>2011-02-20T10:02:56Z</time>
      </trkpt>
      <trkpt lat="48.79121" lon="-3.55495">
        <ele>1</ele>
        <time>2011-02-20T10:02:57Z</time>
      </trkpt>
      <trkpt lat="48.79124" lon="-3.55498">
        <ele>1</ele>
        <time>2011-02-20T10:02:58Z</time>
      </trkpt>
      <trkpt lat="48.79134" lon="-3.55718">
        <ele>4.8</ele>
        <time>2011-02-20T10:03:24Z</time>
      </trkpt>
      <trkpt lat="48.79147" lon="-3.55777">
        <ele>4.4</ele>
        <time>2011-02-20T10:03:31Z</time>
      </trkpt>
      <trkpt lat="48.79149" lon="-3.55785">
        <ele>4.4</ele>
        <time>2011-02-20T10:03:32Z</time>
      </trkpt>
      <trkpt lat="48.79151" lon="-3.55793">
        <ele>4.4</ele>
        <time>2011-02-20T10:03:33Z</time>
      </trkpt>
      <trkpt lat="48.79156" lon="-3.55811">
        <ele>4.6</ele>
        <time>2011-02-20T10:03:35Z</time>
      </trkpt>
      <trkpt lat="48.79164" lon="-3.55847">
        <ele>5.9</ele>
        <time>2011-02-20T10:03:40Z</time>
      </trkpt>
      <trkpt lat="48.79168" lon="-3.55862">
        <ele>6</ele>
        <time>2011-02-20T10:03:42Z</time>
      </trkpt>
      <trkpt lat="48.7917" lon="-3.55871">
        <ele>6</ele>
        <time>2011-02-20T10:03:43Z</time>
      </trkpt>
      <trkpt lat="48.79172" lon="-3.55993">
        <ele>7.2</ele>
        <time>2011-02-20T10:03:56Z</time>
      </trkpt>
      <trkpt lat="48.7917" lon="-3.56003">
        <ele>7.1</ele>
        <time>2011-02-20T10:03:57Z</time>
      </trkpt>
      <trkpt lat="48.79168" lon="-3.56013">
        <ele>7</ele>
        <time>2011-02-20T10:03:58Z</time>
      </trkpt>
      <trkpt lat="48.79165" lon="-3.56024">
        <ele>6.9</ele>
        <time>2011-02-20T10:03:59Z</time>
      </trkpt>
      <trkpt lat="48.79163" lon="-3.56035">
        <ele>6.9</ele>
        <time>2011-02-20T10:04:00Z</time>
      </trkpt>
      <trkpt lat="48.7916" lon="-3.56046">
        <ele>6.8</ele>
        <time>2011-02-20T10:04:01Z</time>
      </trkpt>
      <trkpt lat="48.79158" lon="-3.56057">
        <ele>6.6</ele>
        <time>2011-02-20T10:04:02Z</time>
      </trkpt>
      <trkpt lat="48.79155" lon="-3.56068">
        <ele>6.3</ele>
        <time>2011-02-20T10:04:03Z</time>
      </trkpt>
      <trkpt lat="48.79153" lon="-3.56079">
        <ele>6.1</ele>
        <time>2011-02-20T10:04:04Z</time>
      </trkpt>
      <trkpt lat="48.7915" lon="-3.5609">
        <ele>6</ele>
        <time>2011-02-20T10:04:05Z</time>
      </trkpt>
      <trkpt lat="48.79147" lon="-3.56101">
        <ele>6</ele>
        <time>2011-02-20T10:04:06Z</time>
      </trkpt>
      <trkpt lat="48.79145" lon="-3.56113">
        <ele>6</ele>
        <time>2011-02-20T10:04:07Z</time>
      </trkpt>
      <trkpt lat="48.79142" lon="-3.56125">
        <ele>6</ele>
        <time>2011-02-20T10:04:08Z</time>
      </trkpt>
      <trkpt lat="48.79139" lon="-3.56136">
        <ele>6</ele>
        <time>2011-02-20T10:04:09Z</time>
      </trkpt>
      <trkpt lat="48.79136" lon="-3.56148">
        <ele>6</ele>
        <time>2011-02-20T10:04:10Z</time>
      </trkpt>
      <trkpt lat="48.79133" lon="-3.56159">
        <ele>6</ele>
        <time>2011-02-20T10:04:11Z</time>
      </trkpt>
      <trkpt lat="48.7913" lon="-3.56171">
        <ele>6.1</ele>
        <time>2011-02-20T10:04:12Z</time>
      </trkpt>
      <trkpt lat="48.79127" lon="-3.56184">
        <ele>6.3</ele>
        <time>2011-02-20T10:04:13Z</time>
      </trkpt>
      <trkpt lat="48.79124" lon="-3.56196">
        <ele>6.5</ele>
        <time>2011-02-20T10:04:14Z</time>
      </trkpt>
      <trkpt lat="48.79121" lon="-3.56208">
        <ele>6.3</ele>
        <time>2011-02-20T10:04:15Z</time>
      </trkpt>
      <trkpt lat="48.79118" lon="-3.56221">
        <ele>6</ele>
        <time>2011-02-20T10:04:16Z</time>
      </trkpt>
      <trkpt lat="48.79115" lon="-3.56233">
        <ele>6.4</ele>
        <time>2011-02-20T10:04:17Z</time>
      </trkpt>
      <trkpt lat="48.79112" lon="-3.56245">
        <ele>6.8</ele>
        <time>2011-02-20T10:04:18Z</time>
      </trkpt>
      <trkpt lat="48.79109" lon="-3.56257">
        <ele>7</ele>
        <time>2011-02-20T10:04:19Z</time>
      </trkpt>
      <trkpt lat="48.79106" lon="-3.56268">
        <ele>7</ele>
        <time>2011-02-20T10:04:20Z</time>
      </trkpt>
      <trkpt lat="48.79103" lon="-3.5628">
        <ele>7.1</ele>
        <time>2011-02-20T10:04:21Z</time>
      </trkpt>
      <trkpt lat="48.79101" lon="-3.56292">
        <ele>7.3</ele>
        <time>2011-02-20T10:04:22Z</time>
      </trkpt>
      <trkpt lat="48.79098" lon="-3.56304">
        <ele>7.5</ele>
        <time>2011-02-20T10:04:23Z</time>
      </trkpt>
      <trkpt lat="48.79095" lon="-3.56315">
        <ele>7.6</ele>
        <time>2011-02-20T10:04:24Z</time>
      </trkpt>
      <trkpt lat="48.79092" lon="-3.56326">
        <ele>7.8</ele>
        <time>2011-02-20T10:04:25Z</time>
      </trkpt>
      <trkpt lat="48.7909" lon="-3.56337">
        <ele>8</ele>
        <time>2011-02-20T10:04:26Z</time>
      </trkpt>
      <trkpt lat="48.79087" lon="-3.56348">
        <ele>8.1</ele>
        <time>2011-02-20T10:04:27Z</time>
      </trkpt>
      <trkpt lat="48.79085" lon="-3.56359">
        <ele>8</ele>
        <time>2011-02-20T10:04:28Z</time>
      </trkpt>
      <trkpt lat="48.79082" lon="-3.5637">
        <ele>8.3</ele>
        <time>2011-02-20T10:04:29Z</time>
      </trkpt>
      <trkpt lat="48.79079" lon="-3.56382">
        <ele>8.6</ele>
        <time>2011-02-20T10:04:30Z</time>
      </trkpt>
      <trkpt lat="48.79077" lon="-3.56393">
        <ele>8.8</ele>
        <time>2011-02-20T10:04:31Z</time>
      </trkpt>
      <trkpt lat="48.79074" lon="-3.56404">
        <ele>8.7</ele>
        <time>2011-02-20T10:04:32Z</time>
      </trkpt>
      <trkpt lat="48.79071" lon="-3.56416">
        <ele>8.6</ele>
        <time>2011-02-20T10:04:33Z</time>
      </trkpt>
      <trkpt lat="48.79068" lon="-3.56427">
        <ele>8.3</ele>
        <time>2011-02-20T10:04:34Z</time>
      </trkpt>
      <trkpt lat="48.79066" lon="-3.56439">
        <ele>8.1</ele>
        <time>2011-02-20T10:04:35Z</time>
      </trkpt>
      <trkpt lat="48.79063" lon="-3.56451">
        <ele>8</ele>
        <time>2011-02-20T10:04:36Z</time>
      </trkpt>
      <trkpt lat="48.7906" lon="-3.56462">
        <ele>8</ele>
        <time>2011-02-20T10:04:37Z</time>
      </trkpt>
      <trkpt lat="48.79057" lon="-3.56474">
        <ele>7.9</ele>
        <time>2011-02-20T10:04:38Z</time>
      </trkpt>
      <trkpt lat="48.79055" lon="-3.56486">
        <ele>7.5</ele>
        <time>2011-02-20T10:04:39Z</time>
      </trkpt>
      <trkpt lat="48.79052" lon="-3.56497">
        <ele>7.2</ele>
        <time>2011-02-20T10:04:40Z</time>
      </trkpt>
      <trkpt lat="48.79049" lon="-3.56509">
        <ele>7.2</ele>
        <time>2011-02-20T10:04:41Z</time>
      </trkpt>
      <trkpt lat="48.79047" lon="-3.5652">
        <ele>7.1</ele>
        <time>2011-02-20T10:04:42Z</time>
      </trkpt>
      <trkpt lat="48.79044" lon="-3.56532">
        <ele>7</ele>
        <time>2011-02-20T10:04:43Z</time>
      </trkpt>
      <trkpt lat="48.79041" lon="-3.56544">
        <ele>7</ele>
        <time>2011-02-20T10:04:44Z</time>
      </trkpt>
      <trkpt lat="48.79038" lon="-3.56555">
        <ele>7</ele>
        <time>2011-02-20T10:04:45Z</time>
      </trkpt>
      <trkpt lat="48.79035" lon="-3.56567">
        <ele>7</ele>
        <time>2011-02-20T10:04:46Z</time>
      </trkpt>
      <trkpt lat="48.79032" lon="-3.56579">
        <ele>7</ele>
        <time>2011-02-20T10:04:47Z</time>
      </trkpt>
      <trkpt lat="48.79029" lon="-3.56591">
        <ele>7</ele>
        <time>2011-02-20T10:04:48Z</time>
      </trkpt>
      <trkpt lat="48.79026" lon="-3.56602">
        <ele>7</ele>
        <time>2011-02-20T10:04:49Z</time>
      </trkpt>
      <trkpt lat="48.79023" lon="-3.56614">
        <ele>6.9</ele>
        <time>2011-02-20T10:04:50Z</time>
      </trkpt>
      <trkpt lat="48.7902" lon="-3.56626">
        <ele>6.6</ele>
        <time>2011-02-20T10:04:51Z</time>
      </trkpt>
      <trkpt lat="48.79018" lon="-3.56638">
        <ele>6.4</ele>
        <time>2011-02-20T10:04:52Z</time>
      </trkpt>
      <trkpt lat="48.79015" lon="-3.56649">
        <ele>6.5</ele>
        <time>2011-02-20T10:04:53Z</time>
      </trkpt>
      <trkpt lat="48.79012" lon="-3.56661">
        <ele>6.6</ele>
        <time>2011-02-20T10:04:54Z</time>
      </trkpt>
      <trkpt lat="48.79009" lon="-3.56673">
        <ele>6.7</ele>
        <time>2011-02-20T10:04:55Z</time>
      </trkpt>
      <trkpt lat="48.79007" lon="-3.56685">
        <ele>6.8</ele>
        <time>2011-02-20T10:04:56Z</time>
      </trkpt>
      <trkpt lat="48.79004" lon="-3.56697">
        <ele>6.8</ele>
        <time>2011-02-20T10:04:57Z</time>
      </trkpt>
      <trkpt lat="48.79001" lon="-3.56709">
        <ele>6.5</ele>
        <time>2011-02-20T10:04:58Z</time>
      </trkpt>
      <trkpt lat="48.78998" lon="-3.5672">
        <ele>6.1</ele>
        <time>2011-02-20T10:04:59Z</time>
      </trkpt>
      <trkpt lat="48.78995" lon="-3.56732">
        <ele>6.2</ele>
        <time>2011-02-20T10:05:00Z</time>
      </trkpt>
      <trkpt lat="48.78992" lon="-3.56744">
        <ele>6.3</ele>
        <time>2011-02-20T10:05:01Z</time>
      </trkpt>
      <trkpt lat="48.78989" lon="-3.56756">
        <ele>6.4</ele>
        <time>2011-02-20T10:05:02Z</time>
      </trkpt>
      <trkpt lat="48.78986" lon="-3.56768">
        <ele>6.5</ele>
        <time>2011-02-20T10:05:03Z</time>
      </trkpt>
      <trkpt lat="48.78983" lon="-3.5678">
        <ele>6.6</ele>
        <time>2011-02-20T10:05:04Z</time>
      </trkpt>
      <trkpt lat="48.7898" lon="-3.56792">
        <ele>6.4</ele>
        <time>2011-02-20T10:05:05Z</time>
      </trkpt>
      <trkpt lat="48.78977" lon="-3.56804">
        <ele>6.1</ele>
        <time>2011-02-20T10:05:06Z</time>
      </trkpt>
      <trkpt lat="48.78974" lon="-3.56816">
        <ele>6</ele>
        <time>2011-02-20T10:05:07Z</time>
      </trkpt>
      <trkpt lat="48.78971" lon="-3.56828">
        <ele>6</ele>
        <time>2011-02-20T10:05:08Z</time>
      </trkpt>
      <trkpt lat="48.78969" lon="-3.56839">
        <ele>5.9</ele>
        <time>2011-02-20T10:05:09Z</time>
      </trkpt>
      <trkpt lat="48.78966" lon="-3.56851">
        <ele>5.7</ele>
        <time>2011-02-20T10:05:10Z</time>
      </trkpt>
      <trkpt lat="48.78963" lon="-3.56863">
        <ele>5.6</ele>
        <time>2011-02-20T10:05:11Z</time>
      </trkpt>
      <trkpt lat="48.7896" lon="-3.56874">
        <ele>5.6</ele>
        <time>2011-02-20T10:05:12Z</time>
      </trkpt>
      <trkpt lat="48.78958" lon="-3.56886">
        <ele>5.6</ele>
        <time>2011-02-20T10:05:13Z</time>
      </trkpt>
      <trkpt lat="48.78955" lon="-3.56898">
        <ele>5.6</ele>
        <time>2011-02-20T10:05:14Z</time>
      </trkpt>
      <trkpt lat="48.78953" lon="-3.5691">
        <ele>5.7</ele>
        <time>2011-02-20T10:05:15Z</time>
      </trkpt>
      <trkpt lat="48.7895" lon="-3.56923">
        <ele>6</ele>
        <time>2011-02-20T10:05:16Z</time>
      </trkpt>
      <trkpt lat="48.78947" lon="-3.56934">
        <ele>6.6</ele>
        <time>2011-02-20T10:05:17Z</time>
      </trkpt>
      <trkpt lat="48.78944" lon="-3.56946">
        <ele>6.9</ele>
        <time>2011-02-20T10:05:18Z</time>
      </trkpt>
      <trkpt lat="48.78941" lon="-3.56959">
        <ele>6.7</ele>
        <time>2011-02-20T10:05:19Z</time>
      </trkpt>
      <trkpt lat="48.78938" lon="-3.5697">
        <ele>6.5</ele>
        <time>2011-02-20T10:05:20Z</time>
      </trkpt>
      <trkpt lat="48.78936" lon="-3.56982">
        <ele>6.6</ele>
        <time>2011-02-20T10:05:21Z</time>
      </trkpt>
      <trkpt lat="48.78933" lon="-3.56994">
        <ele>6.8</ele>
        <time>2011-02-20T10:05:22Z</time>
      </trkpt>
      <trkpt lat="48.7893" lon="-3.57006">
        <ele>7</ele>
        <time>2011-02-20T10:05:23Z</time>
      </trkpt>
      <trkpt lat="48.78928" lon="-3.57017">
        <ele>7.2</ele>
        <time>2011-02-20T10:05:24Z</time>
      </trkpt>
      <trkpt lat="48.78925" lon="-3.57028">
        <ele>7.4</ele>
        <time>2011-02-20T10:05:25Z</time>
      </trkpt>
      <trkpt lat="48.78922" lon="-3.57039">
        <ele>7.6</ele>
        <time>2011-02-20T10:05:26Z</time>
      </trkpt>
      <trkpt lat="48.78919" lon="-3.5705">
        <ele>7.8</ele>
        <time>2011-02-20T10:05:27Z</time>
      </trkpt>
      <trkpt lat="48.78917" lon="-3.57062">
        <ele>7.8</ele>
        <time>2011-02-20T10:05:28Z</time>
      </trkpt>
      <trkpt lat="48.78914" lon="-3.57072">
        <ele>7.5</ele>
        <time>2011-02-20T10:05:29Z</time>
      </trkpt>
      <trkpt lat="48.78912" lon="-3.57084">
        <ele>7.4</ele>
        <time>2011-02-20T10:05:30Z</time>
      </trkpt>
      <trkpt lat="48.78909" lon="-3.57095">
        <ele>7.4</ele>
        <time>2011-02-20T10:05:31Z</time>
      </trkpt>
      <trkpt lat="48.78906" lon="-3.57106">
        <ele>7.4</ele>
        <time>2011-02-20T10:05:32Z</time>
      </trkpt>
      <trkpt lat="48.78904" lon="-3.57117">
        <ele>7.5</ele>
        <time>2011-02-20T10:05:33Z</time>
      </trkpt>
      <trkpt lat="48.78901" lon="-3.57128">
        <ele>7.6</ele>
        <time>2011-02-20T10:05:34Z</time>
      </trkpt>
      <trkpt lat="48.78898" lon="-3.57139">
        <ele>7.7</ele>
        <time>2011-02-20T10:05:35Z</time>
      </trkpt>
      <trkpt lat="48.78896" lon="-3.5715">
        <ele>7.7</ele>
        <time>2011-02-20T10:05:36Z</time>
      </trkpt>
      <trkpt lat="48.78893" lon="-3.57161">
        <ele>7.7</ele>
        <time>2011-02-20T10:05:37Z</time>
      </trkpt>
      <trkpt lat="48.7889" lon="-3.57173">
        <ele>7.9</ele>
        <time>2011-02-20T10:05:38Z</time>
      </trkpt>
      <trkpt lat="48.78888" lon="-3.57184">
        <ele>8</ele>
        <time>2011-02-20T10:05:39Z</time>
      </trkpt>
      <trkpt lat="48.78885" lon="-3.57196">
        <ele>8</ele>
        <time>2011-02-20T10:05:40Z</time>
      </trkpt>
      <trkpt lat="48.78882" lon="-3.57208">
        <ele>7.6</ele>
        <time>2011-02-20T10:05:41Z</time>
      </trkpt>
      <trkpt lat="48.7888" lon="-3.57219">
        <ele>7.4</ele>
        <time>2011-02-20T10:05:42Z</time>
      </trkpt>
      <trkpt lat="48.78876" lon="-3.57231">
        <ele>7.4</ele>
        <time>2011-02-20T10:05:43Z</time>
      </trkpt>
      <trkpt lat="48.78874" lon="-3.57243">
        <ele>7.5</ele>
        <time>2011-02-20T10:05:44Z</time>
      </trkpt>
      <trkpt lat="48.78871" lon="-3.57255">
        <ele>7.7</ele>
        <time>2011-02-20T10:05:45Z</time>
      </trkpt>
      <trkpt lat="48.78868" lon="-3.57266">
        <ele>7.7</ele>
        <time>2011-02-20T10:05:46Z</time>
      </trkpt>
      <trkpt lat="48.78865" lon="-3.57278">
        <ele>7.8</ele>
        <time>2011-02-20T10:05:47Z</time>
      </trkpt>
      <trkpt lat="48.78863" lon="-3.5729">
        <ele>7.9</ele>
        <time>2011-02-20T10:05:48Z</time>
      </trkpt>
      <trkpt lat="48.7886" lon="-3.57301">
        <ele>8</ele>
        <time>2011-02-20T10:05:49Z</time>
      </trkpt>
      <trkpt lat="48.78857" lon="-3.57313">
        <ele>8</ele>
        <time>2011-02-20T10:05:50Z</time>
      </trkpt>
      <trkpt lat="48.78854" lon="-3.57325">
        <ele>8</ele>
        <time>2011-02-20T10:05:51Z</time>
      </trkpt>
      <trkpt lat="48.78852" lon="-3.57336">
        <ele>8</ele>
        <time>2011-02-20T10:05:52Z</time>
      </trkpt>
      <trkpt lat="48.78849" lon="-3.57347">
        <ele>7.9</ele>
        <time>2011-02-20T10:05:53Z</time>
      </trkpt>
      <trkpt lat="48.78846" lon="-3.57359">
        <ele>8.1</ele>
        <time>2011-02-20T10:05:54Z</time>
      </trkpt>
      <trkpt lat="48.78844" lon="-3.5737">
        <ele>8.4</ele>
        <time>2011-02-20T10:05:55Z</time>
      </trkpt>
      <trkpt lat="48.78841" lon="-3.57382">
        <ele>8.6</ele>
        <time>2011-02-20T10:05:56Z</time>
      </trkpt>
      <trkpt lat="48.78838" lon="-3.57393">
        <ele>8.8</ele>
        <time>2011-02-20T10:05:57Z</time>
      </trkpt>
      <trkpt lat="48.78836" lon="-3.57404">
        <ele>8.9</ele>
        <time>2011-02-20T10:05:58Z</time>
      </trkpt>
      <trkpt lat="48.78833" lon="-3.57416">
        <ele>9</ele>
        <time>2011-02-20T10:05:59Z</time>
      </trkpt>
      <trkpt lat="48.7883" lon="-3.57427">
        <ele>8.9</ele>
        <time>2011-02-20T10:06:00Z</time>
      </trkpt>
      <trkpt lat="48.78828" lon="-3.57438">
        <ele>8.8</ele>
        <time>2011-02-20T10:06:01Z</time>
      </trkpt>
      <trkpt lat="48.78825" lon="-3.5745">
        <ele>8.9</ele>
        <time>2011-02-20T10:06:02Z</time>
      </trkpt>
      <trkpt lat="48.78822" lon="-3.57461">
        <ele>9.2</ele>
        <time>2011-02-20T10:06:03Z</time>
      </trkpt>
      <trkpt lat="48.7882" lon="-3.57472">
        <ele>9.5</ele>
        <time>2011-02-20T10:06:04Z</time>
      </trkpt>
      <trkpt lat="48.78817" lon="-3.57484">
        <ele>9.1</ele>
        <time>2011-02-20T10:06:05Z</time>
      </trkpt>
      <trkpt lat="48.78814" lon="-3.57495">
        <ele>8.7</ele>
        <time>2011-02-20T10:06:06Z</time>
      </trkpt>
      <trkpt lat="48.78812" lon="-3.57507">
        <ele>8.7</ele>
        <time>2011-02-20T10:06:07Z</time>
      </trkpt>
      <trkpt lat="48.78809" lon="-3.57518">
        <ele>9.3</ele>
        <time>2011-02-20T10:06:08Z</time>
      </trkpt>
      <trkpt lat="48.78806" lon="-3.57529">
        <ele>9.9</ele>
        <time>2011-02-20T10:06:09Z</time>
      </trkpt>
      <trkpt lat="48.78803" lon="-3.5754">
        <ele>10.2</ele>
        <time>2011-02-20T10:06:10Z</time>
      </trkpt>
      <trkpt lat="48.788" lon="-3.57551">
        <ele>10.4</ele>
        <time>2011-02-20T10:06:11Z</time>
      </trkpt>
      <trkpt lat="48.78797" lon="-3.57561">
        <ele>10.4</ele>
        <time>2011-02-20T10:06:12Z</time>
      </trkpt>
      <trkpt lat="48.78793" lon="-3.57571">
        <ele>10.1</ele>
        <time>2011-02-20T10:06:13Z</time>
      </trkpt>
      <trkpt lat="48.78788" lon="-3.57581">
        <ele>9.8</ele>
        <time>2011-02-20T10:06:14Z</time>
      </trkpt>
      <trkpt lat="48.78783" lon="-3.5759">
        <ele>9.8</ele>
        <time>2011-02-20T10:06:15Z</time>
      </trkpt>
      <trkpt lat="48.78778" lon="-3.57598">
        <ele>10</ele>
        <time>2011-02-20T10:06:16Z</time>
      </trkpt>
      <trkpt lat="48.78772" lon="-3.57606">
        <ele>10.8</ele>
        <time>2011-02-20T10:06:16Z</time>
      </trkpt>
      <trkpt lat="48.78766" lon="-3.57613">
        <ele>11.1</ele>
        <time>2011-02-20T10:06:18Z</time>
      </trkpt>
      <trkpt lat="48.78759" lon="-3.57621">
        <ele>11.2</ele>
        <time>2011-02-20T10:06:19Z</time>
      </trkpt>
      <trkpt lat="48.78753" lon="-3.57627">
        <ele>11.1</ele>
        <time>2011-02-20T10:06:20Z</time>
      </trkpt>
      <trkpt lat="48.78746" lon="-3.57632">
        <ele>10.7</ele>
        <time>2011-02-20T10:06:21Z</time>
      </trkpt>
      <trkpt lat="48.78738" lon="-3.57637">
        <ele>10.2</ele>
        <time>2011-02-20T10:06:22Z</time>
      </trkpt>
      <trkpt lat="48.78731" lon="-3.57642">
        <ele>9.9</ele>
        <time>2011-02-20T10:06:23Z</time>
      </trkpt>
      <trkpt lat="48.78724" lon="-3.57645">
        <ele>9.8</ele>
        <time>2011-02-20T10:06:24Z</time>
      </trkpt>
      <trkpt lat="48.78717" lon="-3.57648">
        <ele>9.7</ele>
        <time>2011-02-20T10:06:25Z</time>
      </trkpt>
      <trkpt lat="48.78709" lon="-3.5765">
        <ele>9.6</ele>
        <time>2011-02-20T10:06:26Z</time>
      </trkpt>
      <trkpt lat="48.78702" lon="-3.57652">
        <ele>9.5</ele>
        <time>2011-02-20T10:06:27Z</time>
      </trkpt>
      <trkpt lat="48.78695" lon="-3.57655">
        <ele>9.4</ele>
        <time>2011-02-20T10:06:28Z</time>
      </trkpt>
      <trkpt lat="48.78687" lon="-3.57658">
        <ele>9.4</ele>
        <time>2011-02-20T10:06:29Z</time>
      </trkpt>
      <trkpt lat="48.7868" lon="-3.57661">
        <ele>9.3</ele>
        <time>2011-02-20T10:06:30Z</time>
      </trkpt>
      <trkpt lat="48.78672" lon="-3.57663">
        <ele>9.2</ele>
        <time>2011-02-20T10:06:31Z</time>
      </trkpt>
      <trkpt lat="48.78664" lon="-3.57666">
        <ele>9</ele>
        <time>2011-02-20T10:06:32Z</time>
      </trkpt>
      <trkpt lat="48.78657" lon="-3.57668">
        <ele>9</ele>
        <time>2011-02-20T10:06:33Z</time>
      </trkpt>
      <trkpt lat="48.78649" lon="-3.57671">
        <ele>9</ele>
        <time>2011-02-20T10:06:34Z</time>
      </trkpt>
      <trkpt lat="48.78642" lon="-3.57674">
        <ele>9</ele>
        <time>2011-02-20T10:06:35Z</time>
      </trkpt>
      <trkpt lat="48.78634" lon="-3.57676">
        <ele>9</ele>
        <time>2011-02-20T10:06:36Z</time>
      </trkpt>
      <trkpt lat="48.78627" lon="-3.57679">
        <ele>9</ele>
        <time>2011-02-20T10:06:37Z</time>
      </trkpt>
      <trkpt lat="48.78619" lon="-3.57681">
        <ele>9</ele>
        <time>2011-02-20T10:06:38Z</time>
      </trkpt>
      <trkpt lat="48.78612" lon="-3.57684">
        <ele>9</ele>
        <time>2011-02-20T10:06:39Z</time>
      </trkpt>
      <trkpt lat="48.78605" lon="-3.57686">
        <ele>9</ele>
        <time>2011-02-20T10:06:40Z</time>
      </trkpt>
      <trkpt lat="48.78598" lon="-3.57689">
        <ele>9</ele>
        <time>2011-02-20T10:06:41Z</time>
      </trkpt>
      <trkpt lat="48.78591" lon="-3.57691">
        <ele>9</ele>
        <time>2011-02-20T10:06:42Z</time>
      </trkpt>
      <trkpt lat="48.78584" lon="-3.57694">
        <ele>9</ele>
        <time>2011-02-20T10:06:43Z</time>
      </trkpt>
      <trkpt lat="48.78577" lon="-3.57696">
        <ele>9.1</ele>
        <time>2011-02-20T10:06:44Z</time>
      </trkpt>
      <trkpt lat="48.78569" lon="-3.57699">
        <ele>9.2</ele>
        <time>2011-02-20T10:06:45Z</time>
      </trkpt>
      <trkpt lat="48.78562" lon="-3.57701">
        <ele>9.4</ele>
        <time>2011-02-20T10:06:46Z</time>
      </trkpt>
      <trkpt lat="48.78556" lon="-3.57703">
        <ele>9.7</ele>
        <time>2011-02-20T10:06:47Z</time>
      </trkpt>
      <trkpt lat="48.78548" lon="-3.57706">
        <ele>9.7</ele>
        <time>2011-02-20T10:06:48Z</time>
      </trkpt>
      <trkpt lat="48.78541" lon="-3.57708">
        <ele>9.7</ele>
        <time>2011-02-20T10:06:49Z</time>
      </trkpt>
      <trkpt lat="48.78534" lon="-3.57711">
        <ele>9.7</ele>
        <time>2011-02-20T10:06:50Z</time>
      </trkpt>
      <trkpt lat="48.78527" lon="-3.57713">
        <ele>9.7</ele>
        <time>2011-02-20T10:06:51Z</time>
      </trkpt>
      <trkpt lat="48.78521" lon="-3.57716">
        <ele>9.5</ele>
        <time>2011-02-20T10:06:52Z</time>
      </trkpt>
      <trkpt lat="48.78514" lon="-3.57718">
        <ele>9.3</ele>
        <time>2011-02-20T10:06:53Z</time>
      </trkpt>
      <trkpt lat="48.78507" lon="-3.57721">
        <ele>9.2</ele>
        <time>2011-02-20T10:06:54Z</time>
      </trkpt>
      <trkpt lat="48.785" lon="-3.57723">
        <ele>9</ele>
        <time>2011-02-20T10:06:55Z</time>
      </trkpt>
      <trkpt lat="48.78493" lon="-3.57725">
        <ele>8.8</ele>
        <time>2011-02-20T10:06:56Z</time>
      </trkpt>
      <trkpt lat="48.78486" lon="-3.57728">
        <ele>8.6</ele>
        <time>2011-02-20T10:06:57Z</time>
      </trkpt>
      <trkpt lat="48.78479" lon="-3.5773">
        <ele>8.5</ele>
        <time>2011-02-20T10:06:58Z</time>
      </trkpt>
      <trkpt lat="48.78472" lon="-3.57733">
        <ele>8.4</ele>
        <time>2011-02-20T10:06:59Z</time>
      </trkpt>
      <trkpt lat="48.78465" lon="-3.57735">
        <ele>8.5</ele>
        <time>2011-02-20T10:07:00Z</time>
      </trkpt>
      <trkpt lat="48.78457" lon="-3.57737">
        <ele>8.5</ele>
        <time>2011-02-20T10:07:01Z</time>
      </trkpt>
      <trkpt lat="48.7845" lon="-3.5774">
        <ele>8.6</ele>
        <time>2011-02-20T10:07:02Z</time>
      </trkpt>
      <trkpt lat="48.78443" lon="-3.57742">
        <ele>8.7</ele>
        <time>2011-02-20T10:07:03Z</time>
      </trkpt>
      <trkpt lat="48.78436" lon="-3.57745">
        <ele>8.7</ele>
        <time>2011-02-20T10:07:04Z</time>
      </trkpt>
      <trkpt lat="48.78429" lon="-3.57747">
        <ele>8.8</ele>
        <time>2011-02-20T10:07:05Z</time>
      </trkpt>
      <trkpt lat="48.78422" lon="-3.5775">
        <ele>9</ele>
        <time>2011-02-20T10:07:06Z</time>
      </trkpt>
      <trkpt lat="48.78415" lon="-3.57753">
        <ele>9</ele>
        <time>2011-02-20T10:07:07Z</time>
      </trkpt>
      <trkpt lat="48.78408" lon="-3.57755">
        <ele>9.1</ele>
        <time>2011-02-20T10:07:08Z</time>
      </trkpt>
      <trkpt lat="48.784" lon="-3.57758">
        <ele>9.2</ele>
        <time>2011-02-20T10:07:09Z</time>
      </trkpt>
      <trkpt lat="48.78393" lon="-3.5776">
        <ele>9.3</ele>
        <time>2011-02-20T10:07:10Z</time>
      </trkpt>
      <trkpt lat="48.78386" lon="-3.57763">
        <ele>9.4</ele>
        <time>2011-02-20T10:07:11Z</time>
      </trkpt>
      <trkpt lat="48.78379" lon="-3.57765">
        <ele>9.4</ele>
        <time>2011-02-20T10:07:12Z</time>
      </trkpt>
      <trkpt lat="48.78372" lon="-3.57768">
        <ele>9.2</ele>
        <time>2011-02-20T10:07:13Z</time>
      </trkpt>
      <trkpt lat="48.78365" lon="-3.5777">
        <ele>9.1</ele>
        <time>2011-02-20T10:07:14Z</time>
      </trkpt>
      <trkpt lat="48.78358" lon="-3.57772">
        <ele>9</ele>
        <time>2011-02-20T10:07:15Z</time>
      </trkpt>
      <trkpt lat="48.78351" lon="-3.57775">
        <ele>9</ele>
        <time>2011-02-20T10:07:16Z</time>
      </trkpt>
      <trkpt lat="48.78344" lon="-3.57778">
        <ele>9</ele>
        <time>2011-02-20T10:07:17Z</time>
      </trkpt>
      <trkpt lat="48.78337" lon="-3.5778">
        <ele>8.9</ele>
        <time>2011-02-20T10:07:18Z</time>
      </trkpt>
      <trkpt lat="48.7833" lon="-3.57783">
        <ele>8.7</ele>
        <time>2011-02-20T10:07:19Z</time>
      </trkpt>
      <trkpt lat="48.78323" lon="-3.57785">
        <ele>8.4</ele>
        <time>2011-02-20T10:07:20Z</time>
      </trkpt>
      <trkpt lat="48.78315" lon="-3.57788">
        <ele>8.2</ele>
        <time>2011-02-20T10:07:21Z</time>
      </trkpt>
      <trkpt lat="48.78307" lon="-3.57791">
        <ele>8</ele>
        <time>2011-02-20T10:07:22Z</time>
      </trkpt>
      <trkpt lat="48.783" lon="-3.57793">
        <ele>7.9</ele>
        <time>2011-02-20T10:07:23Z</time>
      </trkpt>
      <trkpt lat="48.78292" lon="-3.57796">
        <ele>7.8</ele>
        <time>2011-02-20T10:07:24Z</time>
      </trkpt>
      <trkpt lat="48.78284" lon="-3.57799">
        <ele>7.8</ele>
        <time>2011-02-20T10:07:25Z</time>
      </trkpt>
      <trkpt lat="48.78276" lon="-3.57802">
        <ele>7.8</ele>
        <time>2011-02-20T10:07:26Z</time>
      </trkpt>
      <trkpt lat="48.78269" lon="-3.57804">
        <ele>7.7</ele>
        <time>2011-02-20T10:07:27Z</time>
      </trkpt>
      <trkpt lat="48.78261" lon="-3.57807">
        <ele>7.3</ele>
        <time>2011-02-20T10:07:28Z</time>
      </trkpt>
      <trkpt lat="48.78253" lon="-3.5781">
        <ele>6.9</ele>
        <time>2011-02-20T10:07:29Z</time>
      </trkpt>
      <trkpt lat="48.78245" lon="-3.57813">
        <ele>6.7</ele>
        <time>2011-02-20T10:07:30Z</time>
      </trkpt>
      <trkpt lat="48.78237" lon="-3.57815">
        <ele>6.5</ele>
        <time>2011-02-20T10:07:31Z</time>
      </trkpt>
      <trkpt lat="48.7823" lon="-3.57818">
        <ele>6.5</ele>
        <time>2011-02-20T10:07:32Z</time>
      </trkpt>
      <trkpt lat="48.78222" lon="-3.5782">
        <ele>6.5</ele>
        <time>2011-02-20T10:07:33Z</time>
      </trkpt>
      <trkpt lat="48.78215" lon="-3.57823">
        <ele>6.6</ele>
        <time>2011-02-20T10:07:34Z</time>
      </trkpt>
      <trkpt lat="48.78208" lon="-3.57826">
        <ele>6.7</ele>
        <time>2011-02-20T10:07:35Z</time>
      </trkpt>
      <trkpt lat="48.78201" lon="-3.57828">
        <ele>6.8</ele>
        <time>2011-02-20T10:07:36Z</time>
      </trkpt>
      <trkpt lat="48.78194" lon="-3.57831">
        <ele>6.9</ele>
        <time>2011-02-20T10:07:37Z</time>
      </trkpt>
      <trkpt lat="48.78186" lon="-3.57833">
        <ele>7</ele>
        <time>2011-02-20T10:07:38Z</time>
      </trkpt>
      <trkpt lat="48.78179" lon="-3.57836">
        <ele>6.9</ele>
        <time>2011-02-20T10:07:39Z</time>
      </trkpt>
      <trkpt lat="48.78172" lon="-3.57838">
        <ele>6.8</ele>
        <time>2011-02-20T10:07:40Z</time>
      </trkpt>
      <trkpt lat="48.78165" lon="-3.57841">
        <ele>6.7</ele>
        <time>2011-02-20T10:07:41Z</time>
      </trkpt>
      <trkpt lat="48.78158" lon="-3.57843">
        <ele>6.6</ele>
        <time>2011-02-20T10:07:42Z</time>
      </trkpt>
      <trkpt lat="48.7815" lon="-3.57846">
        <ele>6.5</ele>
        <time>2011-02-20T10:07:43Z</time>
      </trkpt>
      <trkpt lat="48.78143" lon="-3.57848">
        <ele>6.5</ele>
        <time>2011-02-20T10:07:44Z</time>
      </trkpt>
      <trkpt lat="48.78136" lon="-3.57851">
        <ele>6.7</ele>
        <time>2011-02-20T10:07:45Z</time>
      </trkpt>
      <trkpt lat="48.78128" lon="-3.57853">
        <ele>6.8</ele>
        <time>2011-02-20T10:07:46Z</time>
      </trkpt>
      <trkpt lat="48.78122" lon="-3.57855">
        <ele>6.9</ele>
        <time>2011-02-20T10:07:47Z</time>
      </trkpt>
      <trkpt lat="48.78115" lon="-3.57858">
        <ele>7</ele>
        <time>2011-02-20T10:07:48Z</time>
      </trkpt>
      <trkpt lat="48.78108" lon="-3.5786">
        <ele>7.1</ele>
        <time>2011-02-20T10:07:49Z</time>
      </trkpt>
      <trkpt lat="48.78101" lon="-3.57863">
        <ele>7.3</ele>
        <time>2011-02-20T10:07:50Z</time>
      </trkpt>
      <trkpt lat="48.78095" lon="-3.57865">
        <ele>7.4</ele>
        <time>2011-02-20T10:07:51Z</time>
      </trkpt>
      <trkpt lat="48.78089" lon="-3.57867">
        <ele>7.6</ele>
        <time>2011-02-20T10:07:52Z</time>
      </trkpt>
      <trkpt lat="48.78083" lon="-3.57869">
        <ele>7.7</ele>
        <time>2011-02-20T10:07:53Z</time>
      </trkpt>
      <trkpt lat="48.78077" lon="-3.57872">
        <ele>8.1</ele>
        <time>2011-02-20T10:07:54Z</time>
      </trkpt>
      <trkpt lat="48.78071" lon="-3.57874">
        <ele>8.4</ele>
        <time>2011-02-20T10:07:55Z</time>
      </trkpt>
      <trkpt lat="48.78065" lon="-3.57876">
        <ele>8.7</ele>
        <time>2011-02-20T10:07:56Z</time>
      </trkpt>
      <trkpt lat="48.7806" lon="-3.57878">
        <ele>9.1</ele>
        <time>2011-02-20T10:07:57Z</time>
      </trkpt>
      <trkpt lat="48.78054" lon="-3.5788">
        <ele>9.4</ele>
        <time>2011-02-20T10:07:58Z</time>
      </trkpt>
      <trkpt lat="48.78048" lon="-3.57882">
        <ele>9.7</ele>
        <time>2011-02-20T10:07:59Z</time>
      </trkpt>
      <trkpt lat="48.78043" lon="-3.57884">
        <ele>10</ele>
        <time>2011-02-20T10:08:00Z</time>
      </trkpt>
      <trkpt lat="48.78037" lon="-3.57886">
        <ele>10.4</ele>
        <time>2011-02-20T10:08:01Z</time>
      </trkpt>
      <trkpt lat="48.78032" lon="-3.57888">
        <ele>10.7</ele>
        <time>2011-02-20T10:08:02Z</time>
      </trkpt>
      <trkpt lat="48.78027" lon="-3.57889">
        <ele>11</ele>
        <time>2011-02-20T10:08:03Z</time>
      </trkpt>
      <trkpt lat="48.78022" lon="-3.57891">
        <ele>11.1</ele>
        <time>2011-02-20T10:08:04Z</time>
      </trkpt>
      <trkpt lat="48.78017" lon="-3.57892">
        <ele>11.2</ele>
        <time>2011-02-20T10:08:05Z</time>
      </trkpt>
      <trkpt lat="48.78012" lon="-3.57893">
        <ele>1</ele>
        <time>2011-02-20T10:08:06Z</time>
      </trkpt>
      <trkpt lat="48.78007" lon="-3.57895">
        <ele>1</ele>
        <time>2011-02-20T10:08:07Z</time>
      </trkpt>
      <trkpt lat="48.78002" lon="-3.57897">
        <ele>1</ele>
        <time>2011-02-20T10:08:08Z</time>
      </trkpt>
      <trkpt lat="48.77997" lon="-3.57899">
        <ele>1</ele>
        <time>2011-02-20T10:08:09Z</time>
      </trkpt>
      <trkpt lat="48.77992" lon="-3.57901">
        <ele>2</ele>
        <time>2011-02-20T10:08:10Z</time>
      </trkpt>
      <trkpt lat="48.77987" lon="-3.57902">
        <ele>2</ele>
        <time>2011-02-20T10:08:11Z</time>
      </trkpt>
      <trkpt lat="48.77982" lon="-3.57904">
        <ele>2</ele>
        <time>2011-02-20T10:08:12Z</time>
      </trkpt>
      <trkpt lat="48.77977" lon="-3.57906">
        <ele>2</ele>
        <time>2011-02-20T10:08:13Z</time>
      </trkpt>
      <trkpt lat="48.77973" lon="-3.57907">
        <ele>3</ele>
        <time>2011-02-20T10:08:14Z</time>
      </trkpt>
      <trkpt lat="48.77969" lon="-3.57909">
        <ele>3</ele>
        <time>2011-02-20T10:08:15Z</time>
      </trkpt>
      <trkpt lat="48.77964" lon="-3.5791">
        <ele>3</ele>
        <time>2011-02-20T10:08:16Z</time>
      </trkpt>
      <trkpt lat="48.7796" lon="-3.57912">
        <ele>3</ele>
        <time>2011-02-20T10:08:17Z</time>
      </trkpt>
      <trkpt lat="48.77956" lon="-3.57913">
        <ele>3</ele>
        <time>2011-02-20T10:08:18Z</time>
      </trkpt>
      <trkpt lat="48.77952" lon="-3.57915">
        <ele>4</ele>
        <time>2011-02-20T10:08:19Z</time>
      </trkpt>
      <trkpt lat="48.77948" lon="-3.57916">
        <ele>4</ele>
        <time>2011-02-20T10:08:20Z</time>
      </trkpt>
      <trkpt lat="48.77943" lon="-3.57918">
        <ele>4</ele>
        <time>2011-02-20T10:08:21Z</time>
      </trkpt>
      <trkpt lat="48.77939" lon="-3.57919">
        <ele>4</ele>
        <time>2011-02-20T10:08:22Z</time>
      </trkpt>
      <trkpt lat="48.77935" lon="-3.57921">
        <ele>5</ele>
        <time>2011-02-20T10:08:23Z</time>
      </trkpt>
      <trkpt lat="48.7793" lon="-3.57923">
        <ele>5</ele>
        <time>2011-02-20T10:08:24Z</time>
      </trkpt>
      <trkpt lat="48.77926" lon="-3.57924">
        <ele>6</ele>
        <time>2011-02-20T10:08:25Z</time>
      </trkpt>
      <trkpt lat="48.77921" lon="-3.57926">
        <ele>6</ele>
        <time>2011-02-20T10:08:26Z</time>
      </trkpt>
      <trkpt lat="48.77916" lon="-3.57927">
        <ele>6</ele>
        <time>2011-02-20T10:08:27Z</time>
      </trkpt>
      <trkpt lat="48.77912" lon="-3.57929">
        <ele>7</ele>
        <time>2011-02-20T10:08:28Z</time>
      </trkpt>
      <trkpt lat="48.77908" lon="-3.5793">
        <ele>7</ele>
        <time>2011-02-20T10:08:29Z</time>
      </trkpt>
      <trkpt lat="48.77903" lon="-3.57931">
        <ele>7</ele>
        <time>2011-02-20T10:08:30Z</time>
      </trkpt>
      <trkpt lat="48.77899" lon="-3.57933">
        <ele>8</ele>
        <time>2011-02-20T10:08:31Z</time>
      </trkpt>
      <trkpt lat="48.77895" lon="-3.57933">
        <ele>8</ele>
        <time>2011-02-20T10:08:32Z</time>
      </trkpt>
      <trkpt lat="48.7789" lon="-3.57934">
        <ele>8</ele>
        <time>2011-02-20T10:08:33Z</time>
      </trkpt>
      <trkpt lat="48.77886" lon="-3.57935">
        <ele>9</ele>
        <time>2011-02-20T10:08:34Z</time>
      </trkpt>
      <trkpt lat="48.77882" lon="-3.57935">
        <ele>9</ele>
        <time>2011-02-20T10:08:35Z</time>
      </trkpt>
      <trkpt lat="48.77878" lon="-3.57935">
        <ele>9</ele>
        <time>2011-02-20T10:08:36Z</time>
      </trkpt>
      <trkpt lat="48.77874" lon="-3.57935">
        <ele>9</ele>
        <time>2011-02-20T10:08:37Z</time>
      </trkpt>
      <trkpt lat="48.77869" lon="-3.57935">
        <ele>10</ele>
        <time>2011-02-20T10:08:38Z</time>
      </trkpt>
      <trkpt lat="48.77865" lon="-3.57934">
        <ele>10</ele>
        <time>2011-02-20T10:08:39Z</time>
      </trkpt>
      <trkpt lat="48.77861" lon="-3.57934">
        <ele>10</ele>
        <time>2011-02-20T10:08:39Z</time>
      </trkpt>
      <trkpt lat="48.77857" lon="-3.57934">
        <ele>10</ele>
        <time>2011-02-20T10:08:40Z</time>
      </trkpt>
      <trkpt lat="48.77853" lon="-3.57933">
        <ele>11</ele>
        <time>2011-02-20T10:08:41Z</time>
      </trkpt>
      <trkpt lat="48.77849" lon="-3.57932">
        <ele>11</ele>
        <time>2011-02-20T10:08:42Z</time>
      </trkpt>
      <trkpt lat="48.77845" lon="-3.57931">
        <ele>11</ele>
        <time>2011-02-20T10:08:43Z</time>
      </trkpt>
      <trkpt lat="48.77841" lon="-3.5793">
        <ele>12</ele>
        <time>2011-02-20T10:08:45Z</time>
      </trkpt>
      <trkpt lat="48.77837" lon="-3.57929">
        <ele>12</ele>
        <time>2011-02-20T10:08:45Z</time>
      </trkpt>
      <trkpt lat="48.77834" lon="-3.57929">
        <ele>12</ele>
        <time>2011-02-20T10:08:46Z</time>
      </trkpt>
      <trkpt lat="48.7783" lon="-3.57928">
        <ele>12</ele>
        <time>2011-02-20T10:08:48Z</time>
      </trkpt>
      <trkpt lat="48.77826" lon="-3.57927">
        <ele>13</ele>
        <time>2011-02-20T10:08:49Z</time>
      </trkpt>
      <trkpt lat="48.77823" lon="-3.57927">
        <ele>13</ele>
        <time>2011-02-20T10:08:50Z</time>
      </trkpt>
      <trkpt lat="48.77819" lon="-3.57926">
        <ele>13</ele>
        <time>2011-02-20T10:08:50Z</time>
      </trkpt>
      <trkpt lat="48.77815" lon="-3.57925">
        <ele>13</ele>
        <time>2011-02-20T10:08:52Z</time>
      </trkpt>
      <trkpt lat="48.77811" lon="-3.57924">
        <ele>14</ele>
        <time>2011-02-20T10:08:52Z</time>
      </trkpt>
      <trkpt lat="48.77808" lon="-3.57923">
        <ele>14</ele>
        <time>2011-02-20T10:08:53Z</time>
      </trkpt>
      <trkpt lat="48.77803" lon="-3.57923">
        <ele>14</ele>
        <time>2011-02-20T10:08:55Z</time>
      </trkpt>
      <trkpt lat="48.77799" lon="-3.57922">
        <ele>14</ele>
        <time>2011-02-20T10:08:55Z</time>
      </trkpt>
      <trkpt lat="48.77795" lon="-3.57921">
        <ele>14</ele>
        <time>2011-02-20T10:08:56Z</time>
      </trkpt>
      <trkpt lat="48.77791" lon="-3.5792">
        <ele>14</ele>
        <time>2011-02-20T10:08:57Z</time>
      </trkpt>
      <trkpt lat="48.77787" lon="-3.57919">
        <ele>15</ele>
        <time>2011-02-20T10:08:58Z</time>
      </trkpt>
      <trkpt lat="48.77783" lon="-3.57918">
        <ele>15</ele>
        <time>2011-02-20T10:09:00Z</time>
      </trkpt>
      <trkpt lat="48.77778" lon="-3.57917">
        <ele>15</ele>
        <time>2011-02-20T10:09:01Z</time>
      </trkpt>
      <trkpt lat="48.77774" lon="-3.57916">
        <ele>15</ele>
        <time>2011-02-20T10:09:01Z</time>
      </trkpt>
      <trkpt lat="48.77769" lon="-3.57915">
        <ele>15</ele>
        <time>2011-02-20T10:09:02Z</time>
      </trkpt>
      <trkpt lat="48.77764" lon="-3.57914">
        <ele>15</ele>
        <time>2011-02-20T10:09:03Z</time>
      </trkpt>
      <trkpt lat="48.77759" lon="-3.57913">
        <ele>16</ele>
        <time>2011-02-20T10:09:05Z</time>
      </trkpt>
      <trkpt lat="48.77755" lon="-3.57912">
        <ele>16</ele>
        <time>2011-02-20T10:09:05Z</time>
      </trkpt>
      <trkpt lat="48.7775" lon="-3.57911">
        <ele>16</ele>
        <time>2011-02-20T10:09:06Z</time>
      </trkpt>
      <trkpt lat="48.77745" lon="-3.5791">
        <ele>16</ele>
        <time>2011-02-20T10:09:07Z</time>
      </trkpt>
      <trkpt lat="48.7774" lon="-3.57909">
        <ele>17</ele>
        <time>2011-02-20T10:09:08Z</time>
      </trkpt>
      <trkpt lat="48.77736" lon="-3.57909">
        <ele>17</ele>
        <time>2011-02-20T10:09:10Z</time>
      </trkpt>
      <trkpt lat="48.77731" lon="-3.57908">
        <ele>17</ele>
        <time>2011-02-20T10:09:10Z</time>
      </trkpt>
      <trkpt lat="48.77727" lon="-3.57906">
        <ele>17</ele>
        <time>2011-02-20T10:09:11Z</time>
      </trkpt>
      <trkpt lat="48.77722" lon="-3.57905">
        <ele>18</ele>
        <time>2011-02-20T10:09:12Z</time>
      </trkpt>
      <trkpt lat="48.77718" lon="-3.57904">
        <ele>18</ele>
        <time>2011-02-20T10:09:13Z</time>
      </trkpt>
      <trkpt lat="48.77714" lon="-3.57904">
        <ele>18</ele>
        <time>2011-02-20T10:09:15Z</time>
      </trkpt>
      <trkpt lat="48.7771" lon="-3.57903">
        <ele>18</ele>
        <time>2011-02-20T10:09:15Z</time>
      </trkpt>
      <trkpt lat="48.77706" lon="-3.57902">
        <ele>18</ele>
        <time>2011-02-20T10:09:16Z</time>
      </trkpt>
      <trkpt lat="48.77703" lon="-3.57902">
        <ele>18</ele>
        <time>2011-02-20T10:09:17Z</time>
      </trkpt>
      <trkpt lat="48.77699" lon="-3.57901">
        <ele>19</ele>
        <time>2011-02-20T10:09:18Z</time>
      </trkpt>
      <trkpt lat="48.77696" lon="-3.579">
        <ele>19</ele>
        <time>2011-02-20T10:09:20Z</time>
      </trkpt>
      <trkpt lat="48.77692" lon="-3.57899">
        <ele>19</ele>
        <time>2011-02-20T10:09:20Z</time>
      </trkpt>
      <trkpt lat="48.77688" lon="-3.57899">
        <ele>19</ele>
        <time>2011-02-20T10:09:21Z</time>
      </trkpt>
      <trkpt lat="48.77684" lon="-3.57898">
        <ele>20</ele>
        <time>2011-02-20T10:09:22Z</time>
      </trkpt>
      <trkpt lat="48.7768" lon="-3.57898">
        <ele>20</ele>
        <time>2011-02-20T10:09:23Z</time>
      </trkpt>
      <trkpt lat="48.77676" lon="-3.57898">
        <ele>20</ele>
        <time>2011-02-20T10:09:25Z</time>
      </trkpt>
      <trkpt lat="48.77671" lon="-3.57897">
        <ele>20</ele>
        <time>2011-02-20T10:09:25Z</time>
      </trkpt>
      <trkpt lat="48.77666" lon="-3.57895">
        <ele>20</ele>
        <time>2011-02-20T10:09:26Z</time>
      </trkpt>
      <trkpt lat="48.77661" lon="-3.57894">
        <ele>20</ele>
        <time>2011-02-20T10:09:28Z</time>
      </trkpt>
      <trkpt lat="48.77656" lon="-3.57893">
        <ele>21</ele>
        <time>2011-02-20T10:09:28Z</time>
      </trkpt>
      <trkpt lat="48.77651" lon="-3.57892">
        <ele>21</ele>
        <time>2011-02-20T10:09:29Z</time>
      </trkpt>
      <trkpt lat="48.77645" lon="-3.5789">
        <ele>21</ele>
        <time>2011-02-20T10:09:31Z</time>
      </trkpt>
      <trkpt lat="48.7764" lon="-3.57889">
        <ele>21</ele>
        <time>2011-02-20T10:09:31Z</time>
      </trkpt>
      <trkpt lat="48.77635" lon="-3.57888">
        <ele>21</ele>
        <time>2011-02-20T10:09:32Z</time>
      </trkpt>
      <trkpt lat="48.7763" lon="-3.57887">
        <ele>21</ele>
        <time>2011-02-20T10:09:33Z</time>
      </trkpt>
      <trkpt lat="48.77625" lon="-3.57886">
        <ele>21</ele>
        <time>2011-02-20T10:09:34Z</time>
      </trkpt>
      <trkpt lat="48.7762" lon="-3.57885">
        <ele>21</ele>
        <time>2011-02-20T10:09:36Z</time>
      </trkpt>
      <trkpt lat="48.77615" lon="-3.57884">
        <ele>21</ele>
        <time>2011-02-20T10:09:36Z</time>
      </trkpt>
      <trkpt lat="48.7761" lon="-3.57883">
        <ele>21</ele>
        <time>2011-02-20T10:09:37Z</time>
      </trkpt>
      <trkpt lat="48.77604" lon="-3.57882">
        <ele>21</ele>
        <time>2011-02-20T10:09:38Z</time>
      </trkpt>
      <trkpt lat="48.77599" lon="-3.57881">
        <ele>21</ele>
        <time>2011-02-20T10:09:39Z</time>
      </trkpt>
      <trkpt lat="48.77594" lon="-3.57879">
        <ele>21</ele>
        <time>2011-02-20T10:09:41Z</time>
      </trkpt>
      <trkpt lat="48.77589" lon="-3.57878">
        <ele>21</ele>
        <time>2011-02-20T10:09:41Z</time>
      </trkpt>
      <trkpt lat="48.77583" lon="-3.57877">
        <ele>21</ele>
        <time>2011-02-20T10:09:42Z</time>
      </trkpt>
      <trkpt lat="48.77578" lon="-3.57876">
        <ele>21</ele>
        <time>2011-02-20T10:09:43Z</time>
      </trkpt>
      <trkpt lat="48.77573" lon="-3.57875">
        <ele>21</ele>
        <time>2011-02-20T10:09:44Z</time>
      </trkpt>
      <trkpt lat="48.77567" lon="-3.57873">
        <ele>21</ele>
        <time>2011-02-20T10:09:46Z</time>
      </trkpt>
      <trkpt lat="48.77561" lon="-3.57872">
        <ele>21</ele>
        <time>2011-02-20T10:09:46Z</time>
      </trkpt>
      <trkpt lat="48.77556" lon="-3.57871">
        <ele>21</ele>
        <time>2011-02-20T10:09:47Z</time>
      </trkpt>
      <trkpt lat="48.7755" lon="-3.5787">
        <ele>21</ele>
        <time>2011-02-20T10:09:48Z</time>
      </trkpt>
      <trkpt lat="48.77545" lon="-3.57869">
        <ele>21</ele>
        <time>2011-02-20T10:09:49Z</time>
      </trkpt>
      <trkpt lat="48.77539" lon="-3.57867">
        <ele>21</ele>
        <time>2011-02-20T10:09:51Z</time>
      </trkpt>
      <trkpt lat="48.77533" lon="-3.57865">
        <ele>21</ele>
        <time>2011-02-20T10:09:51Z</time>
      </trkpt>
      <trkpt lat="48.77528" lon="-3.57864">
        <ele>21</ele>
        <time>2011-02-20T10:09:52Z</time>
      </trkpt>
      <trkpt lat="48.77523" lon="-3.57862">
        <ele>21</ele>
        <time>2011-02-20T10:09:53Z</time>
      </trkpt>
      <trkpt lat="48.77517" lon="-3.5786">
        <ele>21</ele>
        <time>2011-02-20T10:09:54Z</time>
      </trkpt>
      <trkpt lat="48.77511" lon="-3.57858">
        <ele>21</ele>
        <time>2011-02-20T10:09:56Z</time>
      </trkpt>
      <trkpt lat="48.77506" lon="-3.57856">
        <ele>21</ele>
        <time>2011-02-20T10:09:56Z</time>
      </trkpt>
      <trkpt lat="48.775" lon="-3.57855">
        <ele>21</ele>
        <time>2011-02-20T10:09:57Z</time>
      </trkpt>
      <trkpt lat="48.77494" lon="-3.57854">
        <ele>21</ele>
        <time>2011-02-20T10:09:58Z</time>
      </trkpt>
      <trkpt lat="48.77488" lon="-3.57853">
        <ele>21</ele>
        <time>2011-02-20T10:09:59Z</time>
      </trkpt>
      <trkpt lat="48.77482" lon="-3.57853">
        <ele>21</ele>
        <time>2011-02-20T10:10:01Z</time>
      </trkpt>
      <trkpt lat="48.77475" lon="-3.57852">
        <ele>21</ele>
        <time>2011-02-20T10:10:01Z</time>
      </trkpt>
      <trkpt lat="48.77469" lon="-3.57852">
        <ele>21</ele>
        <time>2011-02-20T10:10:02Z</time>
      </trkpt>
      <trkpt lat="48.77463" lon="-3.57851">
        <ele>21</ele>
        <time>2011-02-20T10:10:03Z</time>
      </trkpt>
      <trkpt lat="48.77457" lon="-3.5785">
        <ele>21</ele>
        <time>2011-02-20T10:10:04Z</time>
      </trkpt>
      <trkpt lat="48.77451" lon="-3.57848">
        <ele>21</ele>
        <time>2011-02-20T10:10:06Z</time>
      </trkpt>
      <trkpt lat="48.77444" lon="-3.57847">
        <ele>21</ele>
        <time>2011-02-20T10:10:06Z</time>
      </trkpt>
      <trkpt lat="48.77438" lon="-3.57845">
        <ele>21</ele>
        <time>2011-02-20T10:10:07Z</time>
      </trkpt>
      <trkpt lat="48.77431" lon="-3.57844">
        <ele>21</ele>
        <time>2011-02-20T10:10:08Z</time>
      </trkpt>
      <trkpt lat="48.77425" lon="-3.57843">
        <ele>21</ele>
        <time>2011-02-20T10:10:09Z</time>
      </trkpt>
      <trkpt lat="48.77419" lon="-3.57841">
        <ele>21</ele>
        <time>2011-02-20T10:10:11Z</time>
      </trkpt>
      <trkpt lat="48.77412" lon="-3.5784">
        <ele>21</ele>
        <time>2011-02-20T10:10:11Z</time>
      </trkpt>
      <trkpt lat="48.77406" lon="-3.57839">
        <ele>21</ele>
        <time>2011-02-20T10:10:12Z</time>
      </trkpt>
      <trkpt lat="48.774" lon="-3.57838">
        <ele>21</ele>
        <time>2011-02-20T10:10:13Z</time>
      </trkpt>
      <trkpt lat="48.77393" lon="-3.57836">
        <ele>21</ele>
        <time>2011-02-20T10:10:14Z</time>
      </trkpt>
      <trkpt lat="48.77387" lon="-3.57835">
        <ele>21</ele>
        <time>2011-02-20T10:10:16Z</time>
      </trkpt>
      <trkpt lat="48.77381" lon="-3.57834">
        <ele>21</ele>
        <time>2011-02-20T10:10:16Z</time>
      </trkpt>
      <trkpt lat="48.77375" lon="-3.57832">
        <ele>21</ele>
        <time>2011-02-20T10:10:17Z</time>
      </trkpt>
      <trkpt lat="48.77369" lon="-3.57831">
        <ele>21</ele>
        <time>2011-02-20T10:10:18Z</time>
      </trkpt>
      <trkpt lat="48.77363" lon="-3.5783">
        <ele>21</ele>
        <time>2011-02-20T10:10:19Z</time>
      </trkpt>
      <trkpt lat="48.77357" lon="-3.57828">
        <ele>21</ele>
        <time>2011-02-20T10:10:21Z</time>
      </trkpt>
      <trkpt lat="48.77351" lon="-3.57827">
        <ele>21</ele>
        <time>2011-02-20T10:10:21Z</time>
      </trkpt>
      <trkpt lat="48.77346" lon="-3.57826">
        <ele>21</ele>
        <time>2011-02-20T10:10:22Z</time>
      </trkpt>
      <trkpt lat="48.77341" lon="-3.57823">
        <ele>22</ele>
        <time>2011-02-20T10:10:23Z</time>
      </trkpt>
      <trkpt lat="48.77336" lon="-3.57821">
        <ele>22</ele>
        <time>2011-02-20T10:10:24Z</time>
      </trkpt>
      <trkpt lat="48.77331" lon="-3.5782">
        <ele>22</ele>
        <time>2011-02-20T10:10:26Z</time>
      </trkpt>
      <trkpt lat="48.77327" lon="-3.5782">
        <ele>22</ele>
        <time>2011-02-20T10:10:26Z</time>
      </trkpt>
      <trkpt lat="48.77322" lon="-3.57819">
        <ele>23</ele>
        <time>2011-02-20T10:10:27Z</time>
      </trkpt>
      <trkpt lat="48.77317" lon="-3.57818">
        <ele>23</ele>
        <time>2011-02-20T10:10:28Z</time>
      </trkpt>
      <trkpt lat="48.77313" lon="-3.57817">
        <ele>23</ele>
        <time>2011-02-20T10:10:29Z</time>
      </trkpt>
      <trkpt lat="48.77308" lon="-3.57817">
        <ele>23</ele>
        <time>2011-02-20T10:10:31Z</time>
      </trkpt>
      <trkpt lat="48.77303" lon="-3.57817">
        <ele>23</ele>
        <time>2011-02-20T10:10:31Z</time>
      </trkpt>
      <trkpt lat="48.77299" lon="-3.57816">
        <ele>24</ele>
        <time>2011-02-20T10:10:32Z</time>
      </trkpt>
      <trkpt lat="48.77294" lon="-3.57815">
        <ele>24</ele>
        <time>2011-02-20T10:10:33Z</time>
      </trkpt>
      <trkpt lat="48.77289" lon="-3.57813">
        <ele>24</ele>
        <time>2011-02-20T10:10:34Z</time>
      </trkpt>
      <trkpt lat="48.77284" lon="-3.57812">
        <ele>24</ele>
        <time>2011-02-20T10:10:36Z</time>
      </trkpt>
      <trkpt lat="48.77279" lon="-3.57811">
        <ele>24</ele>
        <time>2011-02-20T10:10:36Z</time>
      </trkpt>
      <trkpt lat="48.77275" lon="-3.5781">
        <ele>24</ele>
        <time>2011-02-20T10:10:37Z</time>
      </trkpt>
      <trkpt lat="48.77271" lon="-3.57809">
        <ele>25</ele>
        <time>2011-02-20T10:10:38Z</time>
      </trkpt>
      <trkpt lat="48.77266" lon="-3.57809">
        <ele>25</ele>
        <time>2011-02-20T10:10:39Z</time>
      </trkpt>
      <trkpt lat="48.77262" lon="-3.57808">
        <ele>25</ele>
        <time>2011-02-20T10:10:41Z</time>
      </trkpt>
      <trkpt lat="48.77258" lon="-3.57807">
        <ele>25</ele>
        <time>2011-02-20T10:10:41Z</time>
      </trkpt>
      <trkpt lat="48.77253" lon="-3.57806">
        <ele>25</ele>
        <time>2011-02-20T10:10:42Z</time>
      </trkpt>
      <trkpt lat="48.77249" lon="-3.57805">
        <ele>25</ele>
        <time>2011-02-20T10:10:43Z</time>
      </trkpt>
      <trkpt lat="48.77245" lon="-3.57804">
        <ele>26</ele>
        <time>2011-02-20T10:10:44Z</time>
      </trkpt>
      <trkpt lat="48.7724" lon="-3.57803">
        <ele>26</ele>
        <time>2011-02-20T10:10:46Z</time>
      </trkpt>
      <trkpt lat="48.77235" lon="-3.57803">
        <ele>26</ele>
        <time>2011-02-20T10:10:46Z</time>
      </trkpt>
      <trkpt lat="48.77231" lon="-3.57802">
        <ele>26</ele>
        <time>2011-02-20T10:10:47Z</time>
      </trkpt>
      <trkpt lat="48.77227" lon="-3.57802">
        <ele>26</ele>
        <time>2011-02-20T10:10:48Z</time>
      </trkpt>
      <trkpt lat="48.77222" lon="-3.57801">
        <ele>26</ele>
        <time>2011-02-20T10:10:49Z</time>
      </trkpt>
      <trkpt lat="48.77218" lon="-3.57801">
        <ele>26</ele>
        <time>2011-02-20T10:10:51Z</time>
      </trkpt>
      <trkpt lat="48.77214" lon="-3.578">
        <ele>27</ele>
        <time>2011-02-20T10:10:51Z</time>
      </trkpt>
      <trkpt lat="48.7721" lon="-3.57799">
        <ele>27</ele>
        <time>2011-02-20T10:10:52Z</time>
      </trkpt>
      <trkpt lat="48.77206" lon="-3.57798">
        <ele>27</ele>
        <time>2011-02-20T10:10:53Z</time>
      </trkpt>
      <trkpt lat="48.77201" lon="-3.57797">
        <ele>27</ele>
        <time>2011-02-20T10:10:54Z</time>
      </trkpt>
      <trkpt lat="48.77197" lon="-3.57796">
        <ele>27</ele>
        <time>2011-02-20T10:10:56Z</time>
      </trkpt>
      <trkpt lat="48.77193" lon="-3.57795">
        <ele>27</ele>
        <time>2011-02-20T10:10:56Z</time>
      </trkpt>
      <trkpt lat="48.77188" lon="-3.57794">
        <ele>27</ele>
        <time>2011-02-20T10:10:57Z</time>
      </trkpt>
      <trkpt lat="48.77184" lon="-3.57792">
        <ele>27</ele>
        <time>2011-02-20T10:10:58Z</time>
      </trkpt>
      <trkpt lat="48.77179" lon="-3.57791">
        <ele>28</ele>
        <time>2011-02-20T10:10:59Z</time>
      </trkpt>
      <trkpt lat="48.77174" lon="-3.5779">
        <ele>28</ele>
        <time>2011-02-20T10:11:01Z</time>
      </trkpt>
      <trkpt lat="48.77171" lon="-3.57789">
        <ele>28</ele>
        <time>2011-02-20T10:11:01Z</time>
      </trkpt>
      <trkpt lat="48.77166" lon="-3.57788">
        <ele>28</ele>
        <time>2011-02-20T10:11:02Z</time>
      </trkpt>
      <trkpt lat="48.77162" lon="-3.57787">
        <ele>28</ele>
        <time>2011-02-20T10:11:03Z</time>
      </trkpt>
      <trkpt lat="48.77158" lon="-3.57787">
        <ele>28</ele>
        <time>2011-02-20T10:11:04Z</time>
      </trkpt>
      <trkpt lat="48.77154" lon="-3.57786">
        <ele>28</ele>
        <time>2011-02-20T10:11:06Z</time>
      </trkpt>
      <trkpt lat="48.77149" lon="-3.57785">
        <ele>28</ele>
        <time>2011-02-20T10:11:06Z</time>
      </trkpt>
      <trkpt lat="48.77143" lon="-3.57784">
        <ele>28</ele>
        <time>2011-02-20T10:11:07Z</time>
      </trkpt>
      <trkpt lat="48.77138" lon="-3.57782">
        <ele>28</ele>
        <time>2011-02-20T10:11:08Z</time>
      </trkpt>
      <trkpt lat="48.77134" lon="-3.57781">
        <ele>29</ele>
        <time>2011-02-20T10:11:09Z</time>
      </trkpt>
      <trkpt lat="48.77129" lon="-3.5778">
        <ele>29</ele>
        <time>2011-02-20T10:11:11Z</time>
      </trkpt>
      <trkpt lat="48.77125" lon="-3.57778">
        <ele>30</ele>
        <time>2011-02-20T10:11:11Z</time>
      </trkpt>
      <trkpt lat="48.77121" lon="-3.57775">
        <ele>30</ele>
        <time>2011-02-20T10:11:12Z</time>
      </trkpt>
      <trkpt lat="48.77118" lon="-3.57773">
        <ele>30</ele>
        <time>2011-02-20T10:11:13Z</time>
      </trkpt>
      <trkpt lat="48.77114" lon="-3.5777">
        <ele>30</ele>
        <time>2011-02-20T10:11:14Z</time>
      </trkpt>
      <trkpt lat="48.77111" lon="-3.57768">
        <ele>31</ele>
        <time>2011-02-20T10:11:16Z</time>
      </trkpt>
      <trkpt lat="48.77106" lon="-3.57766">
        <ele>31</ele>
        <time>2011-02-20T10:11:16Z</time>
      </trkpt>
      <trkpt lat="48.77102" lon="-3.57765">
        <ele>31</ele>
        <time>2011-02-20T10:11:17Z</time>
      </trkpt>
      <trkpt lat="48.77098" lon="-3.57763">
        <ele>31</ele>
        <time>2011-02-20T10:11:18Z</time>
      </trkpt>
      <trkpt lat="48.77093" lon="-3.57762">
        <ele>31</ele>
        <time>2011-02-20T10:11:19Z</time>
      </trkpt>
      <trkpt lat="48.77088" lon="-3.57761">
        <ele>32</ele>
        <time>2011-02-20T10:11:21Z</time>
      </trkpt>
      <trkpt lat="48.77083" lon="-3.57761">
        <ele>32</ele>
        <time>2011-02-20T10:11:21Z</time>
      </trkpt>
      <trkpt lat="48.77078" lon="-3.57761">
        <ele>32</ele>
        <time>2011-02-20T10:11:22Z</time>
      </trkpt>
      <trkpt lat="48.77073" lon="-3.57762">
        <ele>32</ele>
        <time>2011-02-20T10:11:23Z</time>
      </trkpt>
      <trkpt lat="48.77068" lon="-3.57761">
        <ele>33</ele>
        <time>2011-02-20T10:11:24Z</time>
      </trkpt>
      <trkpt lat="48.77063" lon="-3.57761">
        <ele>33</ele>
        <time>2011-02-20T10:11:26Z</time>
      </trkpt>
      <trkpt lat="48.77058" lon="-3.5776">
        <ele>33</ele>
        <time>2011-02-20T10:11:26Z</time>
      </trkpt>
      <trkpt lat="48.77053" lon="-3.57759">
        <ele>34</ele>
        <time>2011-02-20T10:11:27Z</time>
      </trkpt>
      <trkpt lat="48.77048" lon="-3.57759">
        <ele>34</ele>
        <time>2011-02-20T10:11:28Z</time>
      </trkpt>
      <trkpt lat="48.77043" lon="-3.57759">
        <ele>35</ele>
        <time>2011-02-20T10:11:29Z</time>
      </trkpt>
      <trkpt lat="48.77039" lon="-3.57759">
        <ele>35</ele>
        <time>2011-02-20T10:11:31Z</time>
      </trkpt>
      <trkpt lat="48.77034" lon="-3.57759">
        <ele>36</ele>
        <time>2011-02-20T10:11:31Z</time>
      </trkpt>
      <trkpt lat="48.7703" lon="-3.57759">
        <ele>36</ele>
        <time>2011-02-20T10:11:32Z</time>
      </trkpt>
      <trkpt lat="48.77026" lon="-3.57759">
        <ele>37</ele>
        <time>2011-02-20T10:11:33Z</time>
      </trkpt>
      <trkpt lat="48.77021" lon="-3.57759">
        <ele>37</ele>
        <time>2011-02-20T10:11:34Z</time>
      </trkpt>
      <trkpt lat="48.77016" lon="-3.57759">
        <ele>38</ele>
        <time>2011-02-20T10:11:35Z</time>
      </trkpt>
      <trkpt lat="48.77012" lon="-3.57759">
        <ele>38</ele>
        <time>2011-02-20T10:11:36Z</time>
      </trkpt>
      <trkpt lat="48.77007" lon="-3.57759">
        <ele>38</ele>
        <time>2011-02-20T10:11:37Z</time>
      </trkpt>
      <trkpt lat="48.77003" lon="-3.5776">
        <ele>38</ele>
        <time>2011-02-20T10:11:38Z</time>
      </trkpt>
      <trkpt lat="48.76998" lon="-3.5776">
        <ele>39</ele>
        <time>2011-02-20T10:11:39Z</time>
      </trkpt>
      <trkpt lat="48.76994" lon="-3.57761">
        <ele>39</ele>
        <time>2011-02-20T10:11:41Z</time>
      </trkpt>
      <trkpt lat="48.76989" lon="-3.57762">
        <ele>39</ele>
        <time>2011-02-20T10:11:41Z</time>
      </trkpt>
      <trkpt lat="48.76985" lon="-3.57763">
        <ele>39</ele>
        <time>2011-02-20T10:11:42Z</time>
      </trkpt>
      <trkpt lat="48.7698" lon="-3.57764">
        <ele>40</ele>
        <time>2011-02-20T10:11:43Z</time>
      </trkpt>
      <trkpt lat="48.76976" lon="-3.57766">
        <ele>40</ele>
        <time>2011-02-20T10:11:44Z</time>
      </trkpt>
      <trkpt lat="48.76971" lon="-3.57767">
        <ele>40</ele>
        <time>2011-02-20T10:11:46Z</time>
      </trkpt>
      <trkpt lat="48.76966" lon="-3.57769">
        <ele>40</ele>
        <time>2011-02-20T10:11:46Z</time>
      </trkpt>
      <trkpt lat="48.76962" lon="-3.57771">
        <ele>41</ele>
        <time>2011-02-20T10:11:47Z</time>
      </trkpt>
      <trkpt lat="48.76958" lon="-3.57773">
        <ele>41</ele>
        <time>2011-02-20T10:11:48Z</time>
      </trkpt>
      <trkpt lat="48.76953" lon="-3.57776">
        <ele>41</ele>
        <time>2011-02-20T10:11:49Z</time>
      </trkpt>
      <trkpt lat="48.76949" lon="-3.57778">
        <ele>41</ele>
        <time>2011-02-20T10:11:51Z</time>
      </trkpt>
      <trkpt lat="48.76945" lon="-3.57781">
        <ele>42</ele>
        <time>2011-02-20T10:11:51Z</time>
      </trkpt>
      <trkpt lat="48.7694" lon="-3.57783">
        <ele>42</ele>
        <time>2011-02-20T10:11:52Z</time>
      </trkpt>
      <trkpt lat="48.76936" lon="-3.57786">
        <ele>42</ele>
        <time>2011-02-20T10:11:53Z</time>
      </trkpt>
      <trkpt lat="48.76931" lon="-3.57788">
        <ele>42</ele>
        <time>2011-02-20T10:11:54Z</time>
      </trkpt>
      <trkpt lat="48.76927" lon="-3.57791">
        <ele>42</ele>
        <time>2011-02-20T10:11:55Z</time>
      </trkpt>
      <trkpt lat="48.76923" lon="-3.57794">
        <ele>42</ele>
        <time>2011-02-20T10:11:56Z</time>
      </trkpt>
      <trkpt lat="48.76918" lon="-3.57796">
        <ele>42</ele>
        <time>2011-02-20T10:11:57Z</time>
      </trkpt>
      <trkpt lat="48.76914" lon="-3.57799">
        <ele>42</ele>
        <time>2011-02-20T10:11:58Z</time>
      </trkpt>
      <trkpt lat="48.7691" lon="-3.57802">
        <ele>42</ele>
        <time>2011-02-20T10:11:59Z</time>
      </trkpt>
      <trkpt lat="48.76905" lon="-3.57804">
        <ele>43</ele>
        <time>2011-02-20T10:12:01Z</time>
      </trkpt>
      <trkpt lat="48.769" lon="-3.57805">
        <ele>43</ele>
        <time>2011-02-20T10:12:01Z</time>
      </trkpt>
      <trkpt lat="48.76896" lon="-3.57807">
        <ele>43</ele>
        <time>2011-02-20T10:12:02Z</time>
      </trkpt>
      <trkpt lat="48.76891" lon="-3.57809">
        <ele>43</ele>
        <time>2011-02-20T10:12:03Z</time>
      </trkpt>
      <trkpt lat="48.76887" lon="-3.57811">
        <ele>43</ele>
        <time>2011-02-20T10:12:04Z</time>
      </trkpt>
      <trkpt lat="48.76882" lon="-3.57812">
        <ele>44</ele>
        <time>2011-02-20T10:12:06Z</time>
      </trkpt>
      <trkpt lat="48.76878" lon="-3.57813">
        <ele>44</ele>
        <time>2011-02-20T10:12:06Z</time>
      </trkpt>
      <trkpt lat="48.76873" lon="-3.57814">
        <ele>44</ele>
        <time>2011-02-20T10:12:07Z</time>
      </trkpt>
      <trkpt lat="48.76868" lon="-3.57815">
        <ele>44</ele>
        <time>2011-02-20T10:12:08Z</time>
      </trkpt>
      <trkpt lat="48.76864" lon="-3.57816">
        <ele>44</ele>
        <time>2011-02-20T10:12:09Z</time>
      </trkpt>
      <trkpt lat="48.7686" lon="-3.57816">
        <ele>45</ele>
        <time>2011-02-20T10:12:11Z</time>
      </trkpt>
      <trkpt lat="48.76855" lon="-3.57816">
        <ele>45</ele>
        <time>2011-02-20T10:12:11Z</time>
      </trkpt>
      <trkpt lat="48.76852" lon="-3.57816">
        <ele>45</ele>
        <time>2011-02-20T10:12:12Z</time>
      </trkpt>
      <trkpt lat="48.76847" lon="-3.57816">
        <ele>45</ele>
        <time>2011-02-20T10:12:13Z</time>
      </trkpt>
      <trkpt lat="48.76844" lon="-3.57816">
        <ele>46</ele>
        <time>2011-02-20T10:12:14Z</time>
      </trkpt>
      <trkpt lat="48.76839" lon="-3.57816">
        <ele>46</ele>
        <time>2011-02-20T10:12:16Z</time>
      </trkpt>
      <trkpt lat="48.76836" lon="-3.57816">
        <ele>46</ele>
        <time>2011-02-20T10:12:16Z</time>
      </trkpt>
      <trkpt lat="48.76831" lon="-3.57815">
        <ele>47</ele>
        <time>2011-02-20T10:12:17Z</time>
      </trkpt>
      <trkpt lat="48.76828" lon="-3.57814">
        <ele>47</ele>
        <time>2011-02-20T10:12:18Z</time>
      </trkpt>
      <trkpt lat="48.76824" lon="-3.57813">
        <ele>47</ele>
        <time>2011-02-20T10:12:19Z</time>
      </trkpt>
      <trkpt lat="48.7682" lon="-3.57812">
        <ele>47</ele>
        <time>2011-02-20T10:12:21Z</time>
      </trkpt>
      <trkpt lat="48.76817" lon="-3.57811">
        <ele>48</ele>
        <time>2011-02-20T10:12:21Z</time>
      </trkpt>
      <trkpt lat="48.76813" lon="-3.57809">
        <ele>48</ele>
        <time>2011-02-20T10:12:22Z</time>
      </trkpt>
      <trkpt lat="48.76809" lon="-3.57807">
        <ele>48</ele>
        <time>2011-02-20T10:12:23Z</time>
      </trkpt>
      <trkpt lat="48.76806" lon="-3.57806">
        <ele>49</ele>
        <time>2011-02-20T10:12:24Z</time>
      </trkpt>
      <trkpt lat="48.76802" lon="-3.57804">
        <ele>49</ele>
        <time>2011-02-20T10:12:26Z</time>
      </trkpt>
      <trkpt lat="48.76798" lon="-3.57803">
        <ele>49</ele>
        <time>2011-02-20T10:12:26Z</time>
      </trkpt>
      <trkpt lat="48.76794" lon="-3.57801">
        <ele>49</ele>
        <time>2011-02-20T10:12:27Z</time>
      </trkpt>
      <trkpt lat="48.76791" lon="-3.57799">
        <ele>50</ele>
        <time>2011-02-20T10:12:28Z</time>
      </trkpt>
      <trkpt lat="48.76787" lon="-3.57797">
        <ele>50</ele>
        <time>2011-02-20T10:12:29Z</time>
      </trkpt>
      <trkpt lat="48.76783" lon="-3.57794">
        <ele>50</ele>
        <time>2011-02-20T10:12:31Z</time>
      </trkpt>
      <trkpt lat="48.76779" lon="-3.57791">
        <ele>50</ele>
        <time>2011-02-20T10:12:31Z</time>
      </trkpt>
      <trkpt lat="48.76775" lon="-3.57788">
        <ele>51</ele>
        <time>2011-02-20T10:12:32Z</time>
      </trkpt>
      <trkpt lat="48.76771" lon="-3.57785">
        <ele>51</ele>
        <time>2011-02-20T10:12:33Z</time>
      </trkpt>
      <trkpt lat="48.76767" lon="-3.57782">
        <ele>51</ele>
        <time>2011-02-20T10:12:34Z</time>
      </trkpt>
      <trkpt lat="48.76763" lon="-3.57778">
        <ele>51</ele>
        <time>2011-02-20T10:12:36Z</time>
      </trkpt>
      <trkpt lat="48.76759" lon="-3.57774">
        <ele>51</ele>
        <time>2011-02-20T10:12:36Z</time>
      </trkpt>
      <trkpt lat="48.76755" lon="-3.5777">
        <ele>51</ele>
        <time>2011-02-20T10:12:37Z</time>
      </trkpt>
      <trkpt lat="48.76751" lon="-3.57766">
        <ele>51</ele>
        <time>2011-02-20T10:12:38Z</time>
      </trkpt>
      <trkpt lat="48.76747" lon="-3.57761">
        <ele>51</ele>
        <time>2011-02-20T10:12:39Z</time>
      </trkpt>
      <trkpt lat="48.76743" lon="-3.57757">
        <ele>51</ele>
        <time>2011-02-20T10:12:41Z</time>
      </trkpt>
      <trkpt lat="48.76739" lon="-3.57752">
        <ele>52</ele>
        <time>2011-02-20T10:12:41Z</time>
      </trkpt>
      <trkpt lat="48.76736" lon="-3.57748">
        <ele>52</ele>
        <time>2011-02-20T10:12:42Z</time>
      </trkpt>
      <trkpt lat="48.76732" lon="-3.57742">
        <ele>52</ele>
        <time>2011-02-20T10:12:43Z</time>
      </trkpt>
      <trkpt lat="48.76729" lon="-3.57737">
        <ele>52</ele>
        <time>2011-02-20T10:12:44Z</time>
      </trkpt>
      <trkpt lat="48.76725" lon="-3.57732">
        <ele>52</ele>
        <time>2011-02-20T10:12:46Z</time>
      </trkpt>
      <trkpt lat="48.76722" lon="-3.57726">
        <ele>52</ele>
        <time>2011-02-20T10:12:46Z</time>
      </trkpt>
      <trkpt lat="48.76719" lon="-3.57721">
        <ele>52</ele>
        <time>2011-02-20T10:12:47Z</time>
      </trkpt>
      <trkpt lat="48.76715" lon="-3.57715">
        <ele>52</ele>
        <time>2011-02-20T10:12:48Z</time>
      </trkpt>
      <trkpt lat="48.76712" lon="-3.5771">
        <ele>52</ele>
        <time>2011-02-20T10:12:49Z</time>
      </trkpt>
      <trkpt lat="48.76709" lon="-3.57703">
        <ele>52</ele>
        <time>2011-02-20T10:12:51Z</time>
      </trkpt>
      <trkpt lat="48.76706" lon="-3.57697">
        <ele>52</ele>
        <time>2011-02-20T10:12:51Z</time>
      </trkpt>
      <trkpt lat="48.76703" lon="-3.57691">
        <ele>52</ele>
        <time>2011-02-20T10:12:52Z</time>
      </trkpt>
      <trkpt lat="48.767" lon="-3.57685">
        <ele>52</ele>
        <time>2011-02-20T10:12:53Z</time>
      </trkpt>
      <trkpt lat="48.76698" lon="-3.57679">
        <ele>52</ele>
        <time>2011-02-20T10:12:54Z</time>
      </trkpt>
      <trkpt lat="48.76694" lon="-3.57673">
        <ele>52</ele>
        <time>2011-02-20T10:12:56Z</time>
      </trkpt>
      <trkpt lat="48.76691" lon="-3.57667">
        <ele>52</ele>
        <time>2011-02-20T10:12:56Z</time>
      </trkpt>
      <trkpt lat="48.76688" lon="-3.5766">
        <ele>52</ele>
        <time>2011-02-20T10:12:57Z</time>
      </trkpt>
      <trkpt lat="48.76684" lon="-3.57653">
        <ele>52</ele>
        <time>2011-02-20T10:12:58Z</time>
      </trkpt>
      <trkpt lat="48.7668" lon="-3.57647">
        <ele>52</ele>
        <time>2011-02-20T10:12:59Z</time>
      </trkpt>
      <trkpt lat="48.76676" lon="-3.5764">
        <ele>52</ele>
        <time>2011-02-20T10:13:01Z</time>
      </trkpt>
      <trkpt lat="48.76672" lon="-3.57633">
        <ele>52</ele>
        <time>2011-02-20T10:13:01Z</time>
      </trkpt>
      <trkpt lat="48.76668" lon="-3.57626">
        <ele>52</ele>
        <time>2011-02-20T10:13:02Z</time>
      </trkpt>
      <trkpt lat="48.76664" lon="-3.57619">
        <ele>52</ele>
        <time>2011-02-20T10:13:03Z</time>
      </trkpt>
      <trkpt lat="48.76659" lon="-3.57612">
        <ele>52</ele>
        <time>2011-02-20T10:13:04Z</time>
      </trkpt>
      <trkpt lat="48.76655" lon="-3.57606">
        <ele>52</ele>
        <time>2011-02-20T10:13:06Z</time>
      </trkpt>
      <trkpt lat="48.7665" lon="-3.57599">
        <ele>52</ele>
        <time>2011-02-20T10:13:06Z</time>
      </trkpt>
      <trkpt lat="48.76645" lon="-3.57594">
        <ele>52</ele>
        <time>2011-02-20T10:13:07Z</time>
      </trkpt>
      <trkpt lat="48.76639" lon="-3.57588">
        <ele>52</ele>
        <time>2011-02-20T10:13:08Z</time>
      </trkpt>
      <trkpt lat="48.76634" lon="-3.57583">
        <ele>52</ele>
        <time>2011-02-20T10:13:09Z</time>
      </trkpt>
      <trkpt lat="48.76629" lon="-3.57578">
        <ele>52</ele>
        <time>2011-02-20T10:13:10Z</time>
      </trkpt>
      <trkpt lat="48.76624" lon="-3.57575">
        <ele>52</ele>
        <time>2011-02-20T10:13:11Z</time>
      </trkpt>
      <trkpt lat="48.76619" lon="-3.57571">
        <ele>52</ele>
        <time>2011-02-20T10:13:12Z</time>
      </trkpt>
      <trkpt lat="48.76614" lon="-3.57568">
        <ele>52</ele>
        <time>2011-02-20T10:13:13Z</time>
      </trkpt>
      <trkpt lat="48.76609" lon="-3.57565">
        <ele>52</ele>
        <time>2011-02-20T10:13:14Z</time>
      </trkpt>
      <trkpt lat="48.76604" lon="-3.57563">
        <ele>52</ele>
        <time>2011-02-20T10:13:16Z</time>
      </trkpt>
      <trkpt lat="48.766" lon="-3.57561">
        <ele>52</ele>
        <time>2011-02-20T10:13:16Z</time>
      </trkpt>
      <trkpt lat="48.76595" lon="-3.57559">
        <ele>52</ele>
        <time>2011-02-20T10:13:17Z</time>
      </trkpt>
      <trkpt lat="48.76591" lon="-3.57557">
        <ele>52</ele>
        <time>2011-02-20T10:13:18Z</time>
      </trkpt>
      <trkpt lat="48.76586" lon="-3.57556">
        <ele>52</ele>
        <time>2011-02-20T10:13:19Z</time>
      </trkpt>
      <trkpt lat="48.76582" lon="-3.57554">
        <ele>53</ele>
        <time>2011-02-20T10:13:21Z</time>
      </trkpt>
      <trkpt lat="48.76577" lon="-3.57553">
        <ele>53</ele>
        <time>2011-02-20T10:13:21Z</time>
      </trkpt>
      <trkpt lat="48.76573" lon="-3.57552">
        <ele>53</ele>
        <time>2011-02-20T10:13:22Z</time>
      </trkpt>
      <trkpt lat="48.76568" lon="-3.57551">
        <ele>53</ele>
        <time>2011-02-20T10:13:23Z</time>
      </trkpt>
      <trkpt lat="48.76564" lon="-3.57551">
        <ele>54</ele>
        <time>2011-02-20T10:13:24Z</time>
      </trkpt>
      <trkpt lat="48.76559" lon="-3.5755">
        <ele>54</ele>
        <time>2011-02-20T10:13:26Z</time>
      </trkpt>
      <trkpt lat="48.76554" lon="-3.57549">
        <ele>54</ele>
        <time>2011-02-20T10:13:26Z</time>
      </trkpt>
      <trkpt lat="48.76549" lon="-3.57548">
        <ele>54</ele>
        <time>2011-02-20T10:13:27Z</time>
      </trkpt>
      <trkpt lat="48.76544" lon="-3.57548">
        <ele>55</ele>
        <time>2011-02-20T10:13:28Z</time>
      </trkpt>
      <trkpt lat="48.76539" lon="-3.57547">
        <ele>55</ele>
        <time>2011-02-20T10:13:29Z</time>
      </trkpt>
      <trkpt lat="48.76534" lon="-3.57547">
        <ele>55</ele>
        <time>2011-02-20T10:13:31Z</time>
      </trkpt>
      <trkpt lat="48.76529" lon="-3.57548">
        <ele>55</ele>
        <time>2011-02-20T10:13:31Z</time>
      </trkpt>
      <trkpt lat="48.76523" lon="-3.57548">
        <ele>56</ele>
        <time>2011-02-20T10:13:32Z</time>
      </trkpt>
      <trkpt lat="48.76517" lon="-3.57548">
        <ele>56</ele>
        <time>2011-02-20T10:13:33Z</time>
      </trkpt>
      <trkpt lat="48.76512" lon="-3.57548">
        <ele>56</ele>
        <time>2011-02-20T10:13:34Z</time>
      </trkpt>
      <trkpt lat="48.76507" lon="-3.57549">
        <ele>56</ele>
        <time>2011-02-20T10:13:36Z</time>
      </trkpt>
      <trkpt lat="48.76501" lon="-3.57549">
        <ele>57</ele>
        <time>2011-02-20T10:13:36Z</time>
      </trkpt>
      <trkpt lat="48.76496" lon="-3.57549">
        <ele>57</ele>
        <time>2011-02-20T10:13:37Z</time>
      </trkpt>
      <trkpt lat="48.76491" lon="-3.57549">
        <ele>57</ele>
        <time>2011-02-20T10:13:38Z</time>
      </trkpt>
      <trkpt lat="48.76485" lon="-3.57549">
        <ele>57</ele>
        <time>2011-02-20T10:13:39Z</time>
      </trkpt>
      <trkpt lat="48.7648" lon="-3.5755">
        <ele>58</ele>
        <time>2011-02-20T10:13:41Z</time>
      </trkpt>
      <trkpt lat="48.76475" lon="-3.5755">
        <ele>58</ele>
        <time>2011-02-20T10:13:41Z</time>
      </trkpt>
      <trkpt lat="48.76469" lon="-3.5755">
        <ele>58</ele>
        <time>2011-02-20T10:13:42Z</time>
      </trkpt>
      <trkpt lat="48.76464" lon="-3.5755">
        <ele>58</ele>
        <time>2011-02-20T10:13:43Z</time>
      </trkpt>
      <trkpt lat="48.76459" lon="-3.5755">
        <ele>58</ele>
        <time>2011-02-20T10:13:44Z</time>
      </trkpt>
      <trkpt lat="48.76454" lon="-3.5755">
        <ele>58</ele>
        <time>2011-02-20T10:13:46Z</time>
      </trkpt>
      <trkpt lat="48.76448" lon="-3.5755">
        <ele>58</ele>
        <time>2011-02-20T10:13:46Z</time>
      </trkpt>
      <trkpt lat="48.76443" lon="-3.57551">
        <ele>58</ele>
        <time>2011-02-20T10:13:47Z</time>
      </trkpt>
      <trkpt lat="48.76438" lon="-3.57551">
        <ele>58</ele>
        <time>2011-02-20T10:13:48Z</time>
      </trkpt>
      <trkpt lat="48.76432" lon="-3.57551">
        <ele>58</ele>
        <time>2011-02-20T10:13:49Z</time>
      </trkpt>
      <trkpt lat="48.76427" lon="-3.57551">
        <ele>58</ele>
        <time>2011-02-20T10:13:50Z</time>
      </trkpt>
      <trkpt lat="48.76421" lon="-3.57551">
        <ele>58</ele>
        <time>2011-02-20T10:13:51Z</time>
      </trkpt>
      <trkpt lat="48.76415" lon="-3.57551">
        <ele>59</ele>
        <time>2011-02-20T10:13:52Z</time>
      </trkpt>
      <trkpt lat="48.7641" lon="-3.57551">
        <ele>59</ele>
        <time>2011-02-20T10:13:53Z</time>
      </trkpt>
      <trkpt lat="48.76405" lon="-3.57551">
        <ele>59</ele>
        <time>2011-02-20T10:13:54Z</time>
      </trkpt>
      <trkpt lat="48.76399" lon="-3.57551">
        <ele>59</ele>
        <time>2011-02-20T10:13:55Z</time>
      </trkpt>
      <trkpt lat="48.76394" lon="-3.57551">
        <ele>59</ele>
        <time>2011-02-20T10:13:56Z</time>
      </trkpt>
      <trkpt lat="48.76389" lon="-3.5755">
        <ele>59</ele>
        <time>2011-02-20T10:13:57Z</time>
      </trkpt>
      <trkpt lat="48.76383" lon="-3.5755">
        <ele>59</ele>
        <time>2011-02-20T10:13:58Z</time>
      </trkpt>
      <trkpt lat="48.76377" lon="-3.57549">
        <ele>59</ele>
        <time>2011-02-20T10:13:59Z</time>
      </trkpt>
      <trkpt lat="48.76371" lon="-3.57548">
        <ele>59</ele>
        <time>2011-02-20T10:14:01Z</time>
      </trkpt>
      <trkpt lat="48.76366" lon="-3.57547">
        <ele>59</ele>
        <time>2011-02-20T10:14:01Z</time>
      </trkpt>
      <trkpt lat="48.7636" lon="-3.57545">
        <ele>59</ele>
        <time>2011-02-20T10:14:02Z</time>
      </trkpt>
      <trkpt lat="48.76354" lon="-3.57543">
        <ele>59</ele>
        <time>2011-02-20T10:14:03Z</time>
      </trkpt>
      <trkpt lat="48.76347" lon="-3.57542">
        <ele>59</ele>
        <time>2011-02-20T10:14:04Z</time>
      </trkpt>
      <trkpt lat="48.76341" lon="-3.5754">
        <ele>59</ele>
        <time>2011-02-20T10:14:06Z</time>
      </trkpt>
      <trkpt lat="48.76335" lon="-3.57538">
        <ele>59</ele>
        <time>2011-02-20T10:14:06Z</time>
      </trkpt>
      <trkpt lat="48.76329" lon="-3.57536">
        <ele>59</ele>
        <time>2011-02-20T10:14:07Z</time>
      </trkpt>
      <trkpt lat="48.76323" lon="-3.57534">
        <ele>59</ele>
        <time>2011-02-20T10:14:08Z</time>
      </trkpt>
      <trkpt lat="48.76318" lon="-3.57531">
        <ele>59</ele>
        <time>2011-02-20T10:14:09Z</time>
      </trkpt>
      <trkpt lat="48.76313" lon="-3.57528">
        <ele>59</ele>
        <time>2011-02-20T10:14:10Z</time>
      </trkpt>
      <trkpt lat="48.76308" lon="-3.57525">
        <ele>59</ele>
        <time>2011-02-20T10:14:11Z</time>
      </trkpt>
      <trkpt lat="48.76303" lon="-3.57523">
        <ele>59</ele>
        <time>2011-02-20T10:14:12Z</time>
      </trkpt>
      <trkpt lat="48.76298" lon="-3.5752">
        <ele>59</ele>
        <time>2011-02-20T10:14:13Z</time>
      </trkpt>
      <trkpt lat="48.76293" lon="-3.57518">
        <ele>59</ele>
        <time>2011-02-20T10:14:14Z</time>
      </trkpt>
      <trkpt lat="48.76287" lon="-3.57515">
        <ele>59</ele>
        <time>2011-02-20T10:14:16Z</time>
      </trkpt>
      <trkpt lat="48.76282" lon="-3.57512">
        <ele>59</ele>
        <time>2011-02-20T10:14:16Z</time>
      </trkpt>
      <trkpt lat="48.76276" lon="-3.5751">
        <ele>59</ele>
        <time>2011-02-20T10:14:17Z</time>
      </trkpt>
      <trkpt lat="48.76271" lon="-3.57507">
        <ele>59</ele>
        <time>2011-02-20T10:14:18Z</time>
      </trkpt>
      <trkpt lat="48.76266" lon="-3.57504">
        <ele>59</ele>
        <time>2011-02-20T10:14:19Z</time>
      </trkpt>
      <trkpt lat="48.76261" lon="-3.57502">
        <ele>59</ele>
        <time>2011-02-20T10:14:21Z</time>
      </trkpt>
      <trkpt lat="48.76256" lon="-3.57499">
        <ele>59</ele>
        <time>2011-02-20T10:14:21Z</time>
      </trkpt>
      <trkpt lat="48.76251" lon="-3.57496">
        <ele>59</ele>
        <time>2011-02-20T10:14:22Z</time>
      </trkpt>
      <trkpt lat="48.76247" lon="-3.57493">
        <ele>59</ele>
        <time>2011-02-20T10:14:23Z</time>
      </trkpt>
      <trkpt lat="48.76231" lon="-3.57472">
        <ele>59</ele>
        <time>2011-02-20T10:14:28Z</time>
      </trkpt>
      <trkpt lat="48.76233" lon="-3.57465">
        <ele>59</ele>
        <time>2011-02-20T10:14:29Z</time>
      </trkpt>
      <trkpt lat="48.76236" lon="-3.57458">
        <ele>59</ele>
        <time>2011-02-20T10:14:31Z</time>
      </trkpt>
      <trkpt lat="48.7624" lon="-3.57451">
        <ele>59</ele>
        <time>2011-02-20T10:14:31Z</time>
      </trkpt>
      <trkpt lat="48.76245" lon="-3.57444">
        <ele>59</ele>
        <time>2011-02-20T10:14:32Z</time>
      </trkpt>
      <trkpt lat="48.76249" lon="-3.57437">
        <ele>59</ele>
        <time>2011-02-20T10:14:33Z</time>
      </trkpt>
      <trkpt lat="48.76254" lon="-3.5743">
        <ele>59</ele>
        <time>2011-02-20T10:14:34Z</time>
      </trkpt>
      <trkpt lat="48.76258" lon="-3.57422">
        <ele>59</ele>
        <time>2011-02-20T10:14:36Z</time>
      </trkpt>
      <trkpt lat="48.76263" lon="-3.57415">
        <ele>59</ele>
        <time>2011-02-20T10:14:36Z</time>
      </trkpt>
      <trkpt lat="48.76267" lon="-3.57407">
        <ele>59</ele>
        <time>2011-02-20T10:14:37Z</time>
      </trkpt>
      <trkpt lat="48.76271" lon="-3.574">
        <ele>59</ele>
        <time>2011-02-20T10:14:38Z</time>
      </trkpt>
      <trkpt lat="48.76275" lon="-3.57393">
        <ele>59</ele>
        <time>2011-02-20T10:14:39Z</time>
      </trkpt>
      <trkpt lat="48.76279" lon="-3.57386">
        <ele>59</ele>
        <time>2011-02-20T10:14:40Z</time>
      </trkpt>
      <trkpt lat="48.76284" lon="-3.57379">
        <ele>59</ele>
        <time>2011-02-20T10:14:41Z</time>
      </trkpt>
      <trkpt lat="48.76287" lon="-3.57372">
        <ele>59</ele>
        <time>2011-02-20T10:14:42Z</time>
      </trkpt>
      <trkpt lat="48.76291" lon="-3.57366">
        <ele>59</ele>
        <time>2011-02-20T10:14:43Z</time>
      </trkpt>
      <trkpt lat="48.76295" lon="-3.57359">
        <ele>59</ele>
        <time>2011-02-20T10:14:44Z</time>
      </trkpt>
      <trkpt lat="48.76299" lon="-3.57353">
        <ele>59</ele>
        <time>2011-02-20T10:14:45Z</time>
      </trkpt>
      <trkpt lat="48.76303" lon="-3.57347">
        <ele>59</ele>
        <time>2011-02-20T10:14:46Z</time>
      </trkpt>
      <trkpt lat="48.76307" lon="-3.57342">
        <ele>59</ele>
        <time>2011-02-20T10:14:47Z</time>
      </trkpt>
      <trkpt lat="48.76311" lon="-3.57336">
        <ele>59</ele>
        <time>2011-02-20T10:14:48Z</time>
      </trkpt>
      <trkpt lat="48.76316" lon="-3.57331">
        <ele>59</ele>
        <time>2011-02-20T10:14:49Z</time>
      </trkpt>
      <trkpt lat="48.7632" lon="-3.57326">
        <ele>59</ele>
        <time>2011-02-20T10:14:50Z</time>
      </trkpt>
      <trkpt lat="48.76325" lon="-3.57321">
        <ele>59</ele>
        <time>2011-02-20T10:14:51Z</time>
      </trkpt>
      <trkpt lat="48.7633" lon="-3.57316">
        <ele>59</ele>
        <time>2011-02-20T10:14:52Z</time>
      </trkpt>
      <trkpt lat="48.76334" lon="-3.5731">
        <ele>59</ele>
        <time>2011-02-20T10:14:53Z</time>
      </trkpt>
      <trkpt lat="48.76338" lon="-3.57303">
        <ele>60</ele>
        <time>2011-02-20T10:14:54Z</time>
      </trkpt>
      <trkpt lat="48.76342" lon="-3.57296">
        <ele>60</ele>
        <time>2011-02-20T10:14:55Z</time>
      </trkpt>
      <trkpt lat="48.76345" lon="-3.57288">
        <ele>60</ele>
        <time>2011-02-20T10:14:56Z</time>
      </trkpt>
      <trkpt lat="48.76348" lon="-3.5728">
        <ele>60</ele>
        <time>2011-02-20T10:14:57Z</time>
      </trkpt>
      <trkpt lat="48.76351" lon="-3.57272">
        <ele>60</ele>
        <time>2011-02-20T10:14:58Z</time>
      </trkpt>
      <trkpt lat="48.76354" lon="-3.57264">
        <ele>60</ele>
        <time>2011-02-20T10:14:59Z</time>
      </trkpt>
      <trkpt lat="48.76357" lon="-3.57257">
        <ele>60</ele>
        <time>2011-02-20T10:15:01Z</time>
      </trkpt>
      <trkpt lat="48.7636" lon="-3.57249">
        <ele>60</ele>
        <time>2011-02-20T10:15:01Z</time>
      </trkpt>
      <trkpt lat="48.76363" lon="-3.57242">
        <ele>60</ele>
        <time>2011-02-20T10:15:02Z</time>
      </trkpt>
      <trkpt lat="48.76366" lon="-3.57236">
        <ele>60</ele>
        <time>2011-02-20T10:15:03Z</time>
      </trkpt>
      <trkpt lat="48.7637" lon="-3.5723">
        <ele>61</ele>
        <time>2011-02-20T10:15:04Z</time>
      </trkpt>
      <trkpt lat="48.76373" lon="-3.57225">
        <ele>61</ele>
        <time>2011-02-20T10:15:05Z</time>
      </trkpt>
      <trkpt lat="48.76377" lon="-3.5722">
        <ele>61</ele>
        <time>2011-02-20T10:15:06Z</time>
      </trkpt>
      <trkpt lat="48.7638" lon="-3.57215">
        <ele>61</ele>
        <time>2011-02-20T10:15:07Z</time>
      </trkpt>
      <trkpt lat="48.76384" lon="-3.5721">
        <ele>62</ele>
        <time>2011-02-20T10:15:08Z</time>
      </trkpt>
      <trkpt lat="48.76387" lon="-3.57205">
        <ele>62</ele>
        <time>2011-02-20T10:15:09Z</time>
      </trkpt>
      <trkpt lat="48.76391" lon="-3.57201">
        <ele>62</ele>
        <time>2011-02-20T10:15:10Z</time>
      </trkpt>
      <trkpt lat="48.76395" lon="-3.57195">
        <ele>62</ele>
        <time>2011-02-20T10:15:11Z</time>
      </trkpt>
      <trkpt lat="48.76398" lon="-3.5719">
        <ele>63</ele>
        <time>2011-02-20T10:15:12Z</time>
      </trkpt>
      <trkpt lat="48.76402" lon="-3.57185">
        <ele>63</ele>
        <time>2011-02-20T10:15:13Z</time>
      </trkpt>
      <trkpt lat="48.76406" lon="-3.57179">
        <ele>63</ele>
        <time>2011-02-20T10:15:14Z</time>
      </trkpt>
      <trkpt lat="48.76411" lon="-3.57174">
        <ele>63</ele>
        <time>2011-02-20T10:15:15Z</time>
      </trkpt>
      <trkpt lat="48.76415" lon="-3.57169">
        <ele>64</ele>
        <time>2011-02-20T10:15:16Z</time>
      </trkpt>
      <trkpt lat="48.76419" lon="-3.57163">
        <ele>64</ele>
        <time>2011-02-20T10:15:17Z</time>
      </trkpt>
      <trkpt lat="48.76423" lon="-3.57157">
        <ele>64</ele>
        <time>2011-02-20T10:15:18Z</time>
      </trkpt>
      <trkpt lat="48.76426" lon="-3.5715">
        <ele>65</ele>
        <time>2011-02-20T10:15:19Z</time>
      </trkpt>
      <trkpt lat="48.76429" lon="-3.57143">
        <ele>65</ele>
        <time>2011-02-20T10:15:20Z</time>
      </trkpt>
      <trkpt lat="48.76435" lon="-3.5712">
        <ele>66</ele>
        <time>2011-02-20T10:15:23Z</time>
      </trkpt>
      <trkpt lat="48.76436" lon="-3.57112">
        <ele>66</ele>
        <time>2011-02-20T10:15:24Z</time>
      </trkpt>
      <trkpt lat="48.76438" lon="-3.57095">
        <ele>67</ele>
        <time>2011-02-20T10:15:26Z</time>
      </trkpt>
      <trkpt lat="48.76444" lon="-3.57025">
        <ele>70</ele>
        <time>2011-02-20T10:15:36Z</time>
      </trkpt>
      <trkpt lat="48.76451" lon="-3.56983">
        <ele>72</ele>
        <time>2011-02-20T10:15:42Z</time>
      </trkpt>
      <trkpt lat="48.76453" lon="-3.56977">
        <ele>72</ele>
        <time>2011-02-20T10:15:43Z</time>
      </trkpt>
      <trkpt lat="48.76456" lon="-3.56971">
        <ele>72</ele>
        <time>2011-02-20T10:15:44Z</time>
      </trkpt>
      <trkpt lat="48.76458" lon="-3.56965">
        <ele>73</ele>
        <time>2011-02-20T10:15:45Z</time>
      </trkpt>
      <trkpt lat="48.76461" lon="-3.56959">
        <ele>73</ele>
        <time>2011-02-20T10:15:46Z</time>
      </trkpt>
      <trkpt lat="48.76463" lon="-3.56953">
        <ele>73</ele>
        <time>2011-02-20T10:15:47Z</time>
      </trkpt>
      <trkpt lat="48.76466" lon="-3.56947">
        <ele>73</ele>
        <time>2011-02-20T10:15:48Z</time>
      </trkpt>
      <trkpt lat="48.76469" lon="-3.56941">
        <ele>73</ele>
        <time>2011-02-20T10:15:49Z</time>
      </trkpt>
      <trkpt lat="48.76471" lon="-3.56934">
        <ele>73</ele>
        <time>2011-02-20T10:15:50Z</time>
      </trkpt>
      <trkpt lat="48.76475" lon="-3.56928">
        <ele>73</ele>
        <time>2011-02-20T10:15:51Z</time>
      </trkpt>
      <trkpt lat="48.76479" lon="-3.56921">
        <ele>73</ele>
        <time>2011-02-20T10:15:52Z</time>
      </trkpt>
      <trkpt lat="48.76483" lon="-3.56914">
        <ele>73</ele>
        <time>2011-02-20T10:15:53Z</time>
      </trkpt>
      <trkpt lat="48.76487" lon="-3.56908">
        <ele>73</ele>
        <time>2011-02-20T10:15:54Z</time>
      </trkpt>
      <trkpt lat="48.76492" lon="-3.56901">
        <ele>73</ele>
        <time>2011-02-20T10:15:55Z</time>
      </trkpt>
      <trkpt lat="48.76498" lon="-3.56895">
        <ele>73</ele>
        <time>2011-02-20T10:15:56Z</time>
      </trkpt>
      <trkpt lat="48.76503" lon="-3.56888">
        <ele>73</ele>
        <time>2011-02-20T10:15:57Z</time>
      </trkpt>
      <trkpt lat="48.76509" lon="-3.56881">
        <ele>73</ele>
        <time>2011-02-20T10:15:58Z</time>
      </trkpt>
      <trkpt lat="48.76516" lon="-3.56874">
        <ele>73</ele>
        <time>2011-02-20T10:15:59Z</time>
      </trkpt>
      <trkpt lat="48.76522" lon="-3.56867">
        <ele>73</ele>
        <time>2011-02-20T10:16:00Z</time>
      </trkpt>
      <trkpt lat="48.76529" lon="-3.5686">
        <ele>73</ele>
        <time>2011-02-20T10:16:01Z</time>
      </trkpt>
      <trkpt lat="48.76535" lon="-3.56854">
        <ele>73</ele>
        <time>2011-02-20T10:16:02Z</time>
      </trkpt>
      <trkpt lat="48.76541" lon="-3.56848">
        <ele>73</ele>
        <time>2011-02-20T10:16:03Z</time>
      </trkpt>
      <trkpt lat="48.76547" lon="-3.56841">
        <ele>73</ele>
        <time>2011-02-20T10:16:04Z</time>
      </trkpt>
      <trkpt lat="48.76553" lon="-3.56836">
        <ele>73</ele>
        <time>2011-02-20T10:16:05Z</time>
      </trkpt>
      <trkpt lat="48.76559" lon="-3.5683">
        <ele>73</ele>
        <time>2011-02-20T10:16:06Z</time>
      </trkpt>
      <trkpt lat="48.76564" lon="-3.56825">
        <ele>73</ele>
        <time>2011-02-20T10:16:07Z</time>
      </trkpt>
      <trkpt lat="48.76569" lon="-3.56821">
        <ele>73</ele>
        <time>2011-02-20T10:16:08Z</time>
      </trkpt>
      <trkpt lat="48.76574" lon="-3.56816">
        <ele>73</ele>
        <time>2011-02-20T10:16:09Z</time>
      </trkpt>
      <trkpt lat="48.76579" lon="-3.56812">
        <ele>73</ele>
        <time>2011-02-20T10:16:10Z</time>
      </trkpt>
      <trkpt lat="48.76583" lon="-3.56808">
        <ele>73</ele>
        <time>2011-02-20T10:16:11Z</time>
      </trkpt>
      <trkpt lat="48.76588" lon="-3.56804">
        <ele>73</ele>
        <time>2011-02-20T10:16:12Z</time>
      </trkpt>
      <trkpt lat="48.76593" lon="-3.568">
        <ele>73</ele>
        <time>2011-02-20T10:16:13Z</time>
      </trkpt>
      <trkpt lat="48.76599" lon="-3.56796">
        <ele>73</ele>
        <time>2011-02-20T10:16:14Z</time>
      </trkpt>
      <trkpt lat="48.76604" lon="-3.56791">
        <ele>73</ele>
        <time>2011-02-20T10:16:15Z</time>
      </trkpt>
      <trkpt lat="48.7661" lon="-3.56785">
        <ele>73</ele>
        <time>2011-02-20T10:16:16Z</time>
      </trkpt>
      <trkpt lat="48.76616" lon="-3.56778">
        <ele>73</ele>
        <time>2011-02-20T10:16:17Z</time>
      </trkpt>
      <trkpt lat="48.76622" lon="-3.56771">
        <ele>73</ele>
        <time>2011-02-20T10:16:18Z</time>
      </trkpt>
      <trkpt lat="48.76628" lon="-3.56764">
        <ele>73</ele>
        <time>2011-02-20T10:16:19Z</time>
      </trkpt>
      <trkpt lat="48.76634" lon="-3.56757">
        <ele>73</ele>
        <time>2011-02-20T10:16:21Z</time>
      </trkpt>
      <trkpt lat="48.76639" lon="-3.56749">
        <ele>73</ele>
        <time>2011-02-20T10:16:21Z</time>
      </trkpt>
      <trkpt lat="48.76645" lon="-3.56741">
        <ele>73</ele>
        <time>2011-02-20T10:16:22Z</time>
      </trkpt>
      <trkpt lat="48.76651" lon="-3.56733">
        <ele>73</ele>
        <time>2011-02-20T10:16:23Z</time>
      </trkpt>
      <trkpt lat="48.76656" lon="-3.56725">
        <ele>73</ele>
        <time>2011-02-20T10:16:24Z</time>
      </trkpt>
      <trkpt lat="48.76662" lon="-3.56718">
        <ele>73</ele>
        <time>2011-02-20T10:16:25Z</time>
      </trkpt>
      <trkpt lat="48.76667" lon="-3.5671">
        <ele>73</ele>
        <time>2011-02-20T10:16:26Z</time>
      </trkpt>
      <trkpt lat="48.76673" lon="-3.56703">
        <ele>73</ele>
        <time>2011-02-20T10:16:27Z</time>
      </trkpt>
      <trkpt lat="48.76679" lon="-3.56696">
        <ele>73</ele>
        <time>2011-02-20T10:16:28Z</time>
      </trkpt>
      <trkpt lat="48.76685" lon="-3.56688">
        <ele>73</ele>
        <time>2011-02-20T10:16:29Z</time>
      </trkpt>
      <trkpt lat="48.7669" lon="-3.56681">
        <ele>73</ele>
        <time>2011-02-20T10:16:31Z</time>
      </trkpt>
      <trkpt lat="48.76696" lon="-3.56673">
        <ele>73</ele>
        <time>2011-02-20T10:16:31Z</time>
      </trkpt>
      <trkpt lat="48.76702" lon="-3.56665">
        <ele>73</ele>
        <time>2011-02-20T10:16:32Z</time>
      </trkpt>
      <trkpt lat="48.76707" lon="-3.56656">
        <ele>73</ele>
        <time>2011-02-20T10:16:33Z</time>
      </trkpt>
      <trkpt lat="48.76713" lon="-3.56648">
        <ele>73</ele>
        <time>2011-02-20T10:16:34Z</time>
      </trkpt>
      <trkpt lat="48.76719" lon="-3.56639">
        <ele>73</ele>
        <time>2011-02-20T10:16:36Z</time>
      </trkpt>
      <trkpt lat="48.76724" lon="-3.5663">
        <ele>73</ele>
        <time>2011-02-20T10:16:36Z</time>
      </trkpt>
      <trkpt lat="48.7673" lon="-3.56621">
        <ele>73</ele>
        <time>2011-02-20T10:16:37Z</time>
      </trkpt>
      <trkpt lat="48.76735" lon="-3.56612">
        <ele>73</ele>
        <time>2011-02-20T10:16:38Z</time>
      </trkpt>
      <trkpt lat="48.7674" lon="-3.56603">
        <ele>73</ele>
        <time>2011-02-20T10:16:39Z</time>
      </trkpt>
      <trkpt lat="48.76746" lon="-3.56594">
        <ele>73</ele>
        <time>2011-02-20T10:16:40Z</time>
      </trkpt>
      <trkpt lat="48.76752" lon="-3.56585">
        <ele>73</ele>
        <time>2011-02-20T10:16:41Z</time>
      </trkpt>
      <trkpt lat="48.76757" lon="-3.56576">
        <ele>73</ele>
        <time>2011-02-20T10:16:42Z</time>
      </trkpt>
      <trkpt lat="48.76762" lon="-3.56568">
        <ele>73</ele>
        <time>2011-02-20T10:16:43Z</time>
      </trkpt>
      <trkpt lat="48.76768" lon="-3.56559">
        <ele>73</ele>
        <time>2011-02-20T10:16:44Z</time>
      </trkpt>
      <trkpt lat="48.76773" lon="-3.56552">
        <ele>73</ele>
        <time>2011-02-20T10:16:45Z</time>
      </trkpt>
      <trkpt lat="48.76779" lon="-3.56545">
        <ele>73</ele>
        <time>2011-02-20T10:16:46Z</time>
      </trkpt>
      <trkpt lat="48.76785" lon="-3.56538">
        <ele>73</ele>
        <time>2011-02-20T10:16:47Z</time>
      </trkpt>
      <trkpt lat="48.76791" lon="-3.5653">
        <ele>73</ele>
        <time>2011-02-20T10:16:48Z</time>
      </trkpt>
      <trkpt lat="48.76796" lon="-3.56524">
        <ele>73</ele>
        <time>2011-02-20T10:16:49Z</time>
      </trkpt>
      <trkpt lat="48.76802" lon="-3.56517">
        <ele>73</ele>
        <time>2011-02-20T10:16:50Z</time>
      </trkpt>
      <trkpt lat="48.76809" lon="-3.56512">
        <ele>73</ele>
        <time>2011-02-20T10:16:51Z</time>
      </trkpt>
      <trkpt lat="48.76815" lon="-3.56506">
        <ele>73</ele>
        <time>2011-02-20T10:16:52Z</time>
      </trkpt>
      <trkpt lat="48.76821" lon="-3.56501">
        <ele>73</ele>
        <time>2011-02-20T10:16:53Z</time>
      </trkpt>
      <trkpt lat="48.76827" lon="-3.56496">
        <ele>73</ele>
        <time>2011-02-20T10:16:54Z</time>
      </trkpt>
      <trkpt lat="48.76833" lon="-3.56491">
        <ele>73</ele>
        <time>2011-02-20T10:16:55Z</time>
      </trkpt>
      <trkpt lat="48.76839" lon="-3.56486">
        <ele>73</ele>
        <time>2011-02-20T10:16:56Z</time>
      </trkpt>
      <trkpt lat="48.76846" lon="-3.56481">
        <ele>73</ele>
        <time>2011-02-20T10:16:57Z</time>
      </trkpt>
      <trkpt lat="48.76852" lon="-3.56475">
        <ele>73</ele>
        <time>2011-02-20T10:16:58Z</time>
      </trkpt>
      <trkpt lat="48.76857" lon="-3.56468">
        <ele>73</ele>
        <time>2011-02-20T10:16:59Z</time>
      </trkpt>
      <trkpt lat="48.76862" lon="-3.56459">
        <ele>73</ele>
        <time>2011-02-20T10:17:00Z</time>
      </trkpt>
      <trkpt lat="48.76866" lon="-3.5645">
        <ele>73</ele>
        <time>2011-02-20T10:17:01Z</time>
      </trkpt>
      <trkpt lat="48.76869" lon="-3.5644">
        <ele>73</ele>
        <time>2011-02-20T10:17:02Z</time>
      </trkpt>
      <trkpt lat="48.76872" lon="-3.56431">
        <ele>73</ele>
        <time>2011-02-20T10:17:03Z</time>
      </trkpt>
      <trkpt lat="48.76875" lon="-3.56423">
        <ele>73</ele>
        <time>2011-02-20T10:17:04Z</time>
      </trkpt>
      <trkpt lat="48.76878" lon="-3.56415">
        <ele>73</ele>
        <time>2011-02-20T10:17:05Z</time>
      </trkpt>
      <trkpt lat="48.76884" lon="-3.56392">
        <ele>73</ele>
        <time>2011-02-20T10:17:08Z</time>
      </trkpt>
      <trkpt lat="48.76886" lon="-3.56385">
        <ele>73</ele>
        <time>2011-02-20T10:17:09Z</time>
      </trkpt>
      <trkpt lat="48.76892" lon="-3.56329">
        <ele>73</ele>
        <time>2011-02-20T10:17:16Z</time>
      </trkpt>
      <trkpt lat="48.76897" lon="-3.56284">
        <ele>73</ele>
        <time>2011-02-20T10:17:20Z</time>
      </trkpt>
      <trkpt lat="48.76897" lon="-3.56272">
        <ele>73</ele>
        <time>2011-02-20T10:17:21Z</time>
      </trkpt>
      <trkpt lat="48.76899" lon="-3.56249">
        <ele>73</ele>
        <time>2011-02-20T10:17:23Z</time>
      </trkpt>
      <trkpt lat="48.76905" lon="-3.55999">
        <ele>73</ele>
        <time>2011-02-20T10:17:44Z</time>
      </trkpt>
      <trkpt lat="48.76905" lon="-3.55988">
        <ele>73</ele>
        <time>2011-02-20T10:17:45Z</time>
      </trkpt>
      <trkpt lat="48.76902" lon="-3.55977">
        <ele>73</ele>
        <time>2011-02-20T10:17:46Z</time>
      </trkpt>
      <trkpt lat="48.769" lon="-3.55966">
        <ele>73</ele>
        <time>2011-02-20T10:17:47Z</time>
      </trkpt>
      <trkpt lat="48.76896" lon="-3.55956">
        <ele>73</ele>
        <time>2011-02-20T10:17:48Z</time>
      </trkpt>
      <trkpt lat="48.76892" lon="-3.55946">
        <ele>73</ele>
        <time>2011-02-20T10:17:49Z</time>
      </trkpt>
      <trkpt lat="48.76888" lon="-3.55936">
        <ele>73</ele>
        <time>2011-02-20T10:17:50Z</time>
      </trkpt>
      <trkpt lat="48.76884" lon="-3.55927">
        <ele>73</ele>
        <time>2011-02-20T10:17:51Z</time>
      </trkpt>
      <trkpt lat="48.7688" lon="-3.55918">
        <ele>73</ele>
        <time>2011-02-20T10:17:52Z</time>
      </trkpt>
      <trkpt lat="48.76876" lon="-3.55908">
        <ele>73</ele>
        <time>2011-02-20T10:17:53Z</time>
      </trkpt>
      <trkpt lat="48.76873" lon="-3.55898">
        <ele>73</ele>
        <time>2011-02-20T10:17:54Z</time>
      </trkpt>
      <trkpt lat="48.76869" lon="-3.55889">
        <ele>73</ele>
        <time>2011-02-20T10:17:56Z</time>
      </trkpt>
      <trkpt lat="48.76865" lon="-3.55879">
        <ele>73</ele>
        <time>2011-02-20T10:17:56Z</time>
      </trkpt>
      <trkpt lat="48.76862" lon="-3.5587">
        <ele>73</ele>
        <time>2011-02-20T10:17:57Z</time>
      </trkpt>
      <trkpt lat="48.76859" lon="-3.55861">
        <ele>73</ele>
        <time>2011-02-20T10:17:58Z</time>
      </trkpt>
      <trkpt lat="48.76856" lon="-3.55852">
        <ele>73</ele>
        <time>2011-02-20T10:17:59Z</time>
      </trkpt>
      <trkpt lat="48.76853" lon="-3.55844">
        <ele>73</ele>
        <time>2011-02-20T10:18:00Z</time>
      </trkpt>
      <trkpt lat="48.76851" lon="-3.55835">
        <ele>73</ele>
        <time>2011-02-20T10:18:01Z</time>
      </trkpt>
      <trkpt lat="48.76848" lon="-3.55827">
        <ele>73</ele>
        <time>2011-02-20T10:18:02Z</time>
      </trkpt>
      <trkpt lat="48.76845" lon="-3.55819">
        <ele>73</ele>
        <time>2011-02-20T10:18:03Z</time>
      </trkpt>
      <trkpt lat="48.76842" lon="-3.5581">
        <ele>73</ele>
        <time>2011-02-20T10:18:04Z</time>
      </trkpt>
      <trkpt lat="48.76839" lon="-3.55802">
        <ele>73</ele>
        <time>2011-02-20T10:18:05Z</time>
      </trkpt>
      <trkpt lat="48.76837" lon="-3.55793">
        <ele>73</ele>
        <time>2011-02-20T10:18:06Z</time>
      </trkpt>
      <trkpt lat="48.76834" lon="-3.55784">
        <ele>73</ele>
        <time>2011-02-20T10:18:07Z</time>
      </trkpt>
      <trkpt lat="48.76831" lon="-3.55775">
        <ele>73</ele>
        <time>2011-02-20T10:18:08Z</time>
      </trkpt>
      <trkpt lat="48.76828" lon="-3.55766">
        <ele>73</ele>
        <time>2011-02-20T10:18:09Z</time>
      </trkpt>
      <trkpt lat="48.76825" lon="-3.55757">
        <ele>73</ele>
        <time>2011-02-20T10:18:10Z</time>
      </trkpt>
      <trkpt lat="48.76823" lon="-3.55748">
        <ele>73</ele>
        <time>2011-02-20T10:18:11Z</time>
      </trkpt>
      <trkpt lat="48.7682" lon="-3.55739">
        <ele>73</ele>
        <time>2011-02-20T10:18:12Z</time>
      </trkpt>
      <trkpt lat="48.76817" lon="-3.5573">
        <ele>73</ele>
        <time>2011-02-20T10:18:13Z</time>
      </trkpt>
      <trkpt lat="48.76814" lon="-3.55721">
        <ele>73</ele>
        <time>2011-02-20T10:18:14Z</time>
      </trkpt>
      <trkpt lat="48.76812" lon="-3.55712">
        <ele>73</ele>
        <time>2011-02-20T10:18:15Z</time>
      </trkpt>
      <trkpt lat="48.76809" lon="-3.55703">
        <ele>73</ele>
        <time>2011-02-20T10:18:16Z</time>
      </trkpt>
      <trkpt lat="48.76807" lon="-3.55694">
        <ele>73</ele>
        <time>2011-02-20T10:18:17Z</time>
      </trkpt>
      <trkpt lat="48.76804" lon="-3.55685">
        <ele>73</ele>
        <time>2011-02-20T10:18:18Z</time>
      </trkpt>
      <trkpt lat="48.76802" lon="-3.55677">
        <ele>73</ele>
        <time>2011-02-20T10:18:19Z</time>
      </trkpt>
      <trkpt lat="48.76799" lon="-3.55668">
        <ele>73</ele>
        <time>2011-02-20T10:18:20Z</time>
      </trkpt>
      <trkpt lat="48.76796" lon="-3.55659">
        <ele>74</ele>
        <time>2011-02-20T10:18:21Z</time>
      </trkpt>
      <trkpt lat="48.76794" lon="-3.5565">
        <ele>74</ele>
        <time>2011-02-20T10:18:22Z</time>
      </trkpt>
      <trkpt lat="48.76791" lon="-3.55641">
        <ele>74</ele>
        <time>2011-02-20T10:18:23Z</time>
      </trkpt>
      <trkpt lat="48.76789" lon="-3.55631">
        <ele>74</ele>
        <time>2011-02-20T10:18:24Z</time>
      </trkpt>
      <trkpt lat="48.76786" lon="-3.55622">
        <ele>74</ele>
        <time>2011-02-20T10:18:25Z</time>
      </trkpt>
      <trkpt lat="48.76784" lon="-3.55613">
        <ele>74</ele>
        <time>2011-02-20T10:18:26Z</time>
      </trkpt>
      <trkpt lat="48.7678" lon="-3.55595">
        <ele>74</ele>
        <time>2011-02-20T10:18:28Z</time>
      </trkpt>
      <trkpt lat="48.76775" lon="-3.55576">
        <ele>74</ele>
        <time>2011-02-20T10:18:30Z</time>
      </trkpt>
      <trkpt lat="48.7677" lon="-3.55549">
        <ele>75</ele>
        <time>2011-02-20T10:18:33Z</time>
      </trkpt>
      <trkpt lat="48.76769" lon="-3.55539">
        <ele>75</ele>
        <time>2011-02-20T10:18:34Z</time>
      </trkpt>
      <trkpt lat="48.76766" lon="-3.5552">
        <ele>75</ele>
        <time>2011-02-20T10:18:36Z</time>
      </trkpt>
      <trkpt lat="48.76757" lon="-3.55458">
        <ele>76</ele>
        <time>2011-02-20T10:18:43Z</time>
      </trkpt>
      <trkpt lat="48.76751" lon="-3.55414">
        <ele>77</ele>
        <time>2011-02-20T10:18:48Z</time>
      </trkpt>
      <trkpt lat="48.76741" lon="-3.55346">
        <ele>78</ele>
        <time>2011-02-20T10:18:56Z</time>
      </trkpt>
      <trkpt lat="48.76731" lon="-3.55284">
        <ele>78</ele>
        <time>2011-02-20T10:19:03Z</time>
      </trkpt>
      <trkpt lat="48.76728" lon="-3.55266">
        <ele>79</ele>
        <time>2011-02-20T10:19:05Z</time>
      </trkpt>
      <trkpt lat="48.76726" lon="-3.55258">
        <ele>79</ele>
        <time>2011-02-20T10:19:06Z</time>
      </trkpt>
      <trkpt lat="48.76723" lon="-3.55249">
        <ele>79</ele>
        <time>2011-02-20T10:19:07Z</time>
      </trkpt>
      <trkpt lat="48.76721" lon="-3.5524">
        <ele>79</ele>
        <time>2011-02-20T10:19:08Z</time>
      </trkpt>
      <trkpt lat="48.76719" lon="-3.55232">
        <ele>79</ele>
        <time>2011-02-20T10:19:09Z</time>
      </trkpt>
      <trkpt lat="48.76716" lon="-3.55224">
        <ele>79</ele>
        <time>2011-02-20T10:19:10Z</time>
      </trkpt>
      <trkpt lat="48.76714" lon="-3.55216">
        <ele>79</ele>
        <time>2011-02-20T10:19:11Z</time>
      </trkpt>
      <trkpt lat="48.76712" lon="-3.55207">
        <ele>79</ele>
        <time>2011-02-20T10:19:12Z</time>
      </trkpt>
      <trkpt lat="48.76709" lon="-3.55199">
        <ele>79</ele>
        <time>2011-02-20T10:19:13Z</time>
      </trkpt>
      <trkpt lat="48.76706" lon="-3.55191">
        <ele>79</ele>
        <time>2011-02-20T10:19:14Z</time>
      </trkpt>
      <trkpt lat="48.76703" lon="-3.55183">
        <ele>80</ele>
        <time>2011-02-20T10:19:15Z</time>
      </trkpt>
      <trkpt lat="48.76701" lon="-3.55175">
        <ele>80</ele>
        <time>2011-02-20T10:19:16Z</time>
      </trkpt>
      <trkpt lat="48.76697" lon="-3.55168">
        <ele>80</ele>
        <time>2011-02-20T10:19:17Z</time>
      </trkpt>
      <trkpt lat="48.76694" lon="-3.55161">
        <ele>80</ele>
        <time>2011-02-20T10:19:18Z</time>
      </trkpt>
      <trkpt lat="48.7669" lon="-3.55155">
        <ele>80</ele>
        <time>2011-02-20T10:19:19Z</time>
      </trkpt>
      <trkpt lat="48.76685" lon="-3.55149">
        <ele>80</ele>
        <time>2011-02-20T10:19:20Z</time>
      </trkpt>
      <trkpt lat="48.76682" lon="-3.55142">
        <ele>80</ele>
        <time>2011-02-20T10:19:21Z</time>
      </trkpt>
      <trkpt lat="48.76678" lon="-3.55134">
        <ele>80</ele>
        <time>2011-02-20T10:19:22Z</time>
      </trkpt>
      <trkpt lat="48.76676" lon="-3.55126">
        <ele>80</ele>
        <time>2011-02-20T10:19:23Z</time>
      </trkpt>
      <trkpt lat="48.76674" lon="-3.55118">
        <ele>80</ele>
        <time>2011-02-20T10:19:24Z</time>
      </trkpt>
      <trkpt lat="48.76671" lon="-3.5511">
        <ele>80</ele>
        <time>2011-02-20T10:19:25Z</time>
      </trkpt>
      <trkpt lat="48.76668" lon="-3.55101">
        <ele>81</ele>
        <time>2011-02-20T10:19:26Z</time>
      </trkpt>
      <trkpt lat="48.76664" lon="-3.55093">
        <ele>81</ele>
        <time>2011-02-20T10:19:27Z</time>
      </trkpt>
      <trkpt lat="48.76661" lon="-3.55084">
        <ele>81</ele>
        <time>2011-02-20T10:19:28Z</time>
      </trkpt>
      <trkpt lat="48.76657" lon="-3.55077">
        <ele>81</ele>
        <time>2011-02-20T10:19:29Z</time>
      </trkpt>
      <trkpt lat="48.76653" lon="-3.55069">
        <ele>81</ele>
        <time>2011-02-20T10:19:30Z</time>
      </trkpt>
      <trkpt lat="48.76649" lon="-3.55062">
        <ele>81</ele>
        <time>2011-02-20T10:19:31Z</time>
      </trkpt>
      <trkpt lat="48.76646" lon="-3.55055">
        <ele>81</ele>
        <time>2011-02-20T10:19:32Z</time>
      </trkpt>
      <trkpt lat="48.76642" lon="-3.55047">
        <ele>81</ele>
        <time>2011-02-20T10:19:33Z</time>
      </trkpt>
      <trkpt lat="48.76638" lon="-3.5504">
        <ele>81</ele>
        <time>2011-02-20T10:19:34Z</time>
      </trkpt>
      <trkpt lat="48.76635" lon="-3.55033">
        <ele>81</ele>
        <time>2011-02-20T10:19:35Z</time>
      </trkpt>
      <trkpt lat="48.76631" lon="-3.55026">
        <ele>81</ele>
        <time>2011-02-20T10:19:36Z</time>
      </trkpt>
      <trkpt lat="48.76627" lon="-3.55019">
        <ele>81</ele>
        <time>2011-02-20T10:19:37Z</time>
      </trkpt>
      <trkpt lat="48.76624" lon="-3.55012">
        <ele>81</ele>
        <time>2011-02-20T10:19:38Z</time>
      </trkpt>
      <trkpt lat="48.7662" lon="-3.55005">
        <ele>81</ele>
        <time>2011-02-20T10:19:39Z</time>
      </trkpt>
      <trkpt lat="48.76617" lon="-3.54998">
        <ele>81</ele>
        <time>2011-02-20T10:19:40Z</time>
      </trkpt>
      <trkpt lat="48.76613" lon="-3.54991">
        <ele>81</ele>
        <time>2011-02-20T10:19:41Z</time>
      </trkpt>
      <trkpt lat="48.7661" lon="-3.54983">
        <ele>81</ele>
        <time>2011-02-20T10:19:42Z</time>
      </trkpt>
      <trkpt lat="48.76606" lon="-3.54976">
        <ele>82</ele>
        <time>2011-02-20T10:19:43Z</time>
      </trkpt>
      <trkpt lat="48.76602" lon="-3.54969">
        <ele>82</ele>
        <time>2011-02-20T10:19:44Z</time>
      </trkpt>
      <trkpt lat="48.76598" lon="-3.54961">
        <ele>82</ele>
        <time>2011-02-20T10:19:45Z</time>
      </trkpt>
      <trkpt lat="48.76593" lon="-3.54954">
        <ele>82</ele>
        <time>2011-02-20T10:19:46Z</time>
      </trkpt>
      <trkpt lat="48.76589" lon="-3.54947">
        <ele>82</ele>
        <time>2011-02-20T10:19:47Z</time>
      </trkpt>
      <trkpt lat="48.76585" lon="-3.5494">
        <ele>82</ele>
        <time>2011-02-20T10:19:48Z</time>
      </trkpt>
      <trkpt lat="48.76581" lon="-3.54933">
        <ele>82</ele>
        <time>2011-02-20T10:19:49Z</time>
      </trkpt>
      <trkpt lat="48.76576" lon="-3.54927">
        <ele>82</ele>
        <time>2011-02-20T10:19:50Z</time>
      </trkpt>
      <trkpt lat="48.76572" lon="-3.54921">
        <ele>82</ele>
        <time>2011-02-20T10:19:51Z</time>
      </trkpt>
      <trkpt lat="48.76568" lon="-3.54914">
        <ele>82</ele>
        <time>2011-02-20T10:19:52Z</time>
      </trkpt>
      <trkpt lat="48.76564" lon="-3.54908">
        <ele>82</ele>
        <time>2011-02-20T10:19:53Z</time>
      </trkpt>
      <trkpt lat="48.7656" lon="-3.54902">
        <ele>82</ele>
        <time>2011-02-20T10:19:54Z</time>
      </trkpt>
      <trkpt lat="48.76556" lon="-3.54895">
        <ele>82</ele>
        <time>2011-02-20T10:19:55Z</time>
      </trkpt>
      <trkpt lat="48.76552" lon="-3.54889">
        <ele>82</ele>
        <time>2011-02-20T10:19:56Z</time>
      </trkpt>
      <trkpt lat="48.76548" lon="-3.54882">
        <ele>82</ele>
        <time>2011-02-20T10:19:57Z</time>
      </trkpt>
      <trkpt lat="48.76544" lon="-3.54875">
        <ele>82</ele>
        <time>2011-02-20T10:19:58Z</time>
      </trkpt>
      <trkpt lat="48.7654" lon="-3.54869">
        <ele>82</ele>
        <time>2011-02-20T10:19:59Z</time>
      </trkpt>
      <trkpt lat="48.76536" lon="-3.54863">
        <ele>83</ele>
        <time>2011-02-20T10:20:00Z</time>
      </trkpt>
      <trkpt lat="48.76532" lon="-3.54856">
        <ele>83</ele>
        <time>2011-02-20T10:20:01Z</time>
      </trkpt>
      <trkpt lat="48.76528" lon="-3.54849">
        <ele>83</ele>
        <time>2011-02-20T10:20:02Z</time>
      </trkpt>
      <trkpt lat="48.76525" lon="-3.54841">
        <ele>83</ele>
        <time>2011-02-20T10:20:03Z</time>
      </trkpt>
      <trkpt lat="48.76522" lon="-3.54834">
        <ele>83</ele>
        <time>2011-02-20T10:20:04Z</time>
      </trkpt>
      <trkpt lat="48.76519" lon="-3.54826">
        <ele>84</ele>
        <time>2011-02-20T10:20:05Z</time>
      </trkpt>
      <trkpt lat="48.76516" lon="-3.54818">
        <ele>84</ele>
        <time>2011-02-20T10:20:06Z</time>
      </trkpt>
      <trkpt lat="48.76512" lon="-3.54811">
        <ele>84</ele>
        <time>2011-02-20T10:20:07Z</time>
      </trkpt>
      <trkpt lat="48.76508" lon="-3.54803">
        <ele>84</ele>
        <time>2011-02-20T10:20:08Z</time>
      </trkpt>
      <trkpt lat="48.76503" lon="-3.54796">
        <ele>84</ele>
        <time>2011-02-20T10:20:09Z</time>
      </trkpt>
      <trkpt lat="48.76499" lon="-3.54789">
        <ele>84</ele>
        <time>2011-02-20T10:20:10Z</time>
      </trkpt>
      <trkpt lat="48.76495" lon="-3.54782">
        <ele>85</ele>
        <time>2011-02-20T10:20:11Z</time>
      </trkpt>
      <trkpt lat="48.76491" lon="-3.54775">
        <ele>85</ele>
        <time>2011-02-20T10:20:12Z</time>
      </trkpt>
      <trkpt lat="48.76487" lon="-3.54768">
        <ele>85</ele>
        <time>2011-02-20T10:20:13Z</time>
      </trkpt>
      <trkpt lat="48.76482" lon="-3.54761">
        <ele>85</ele>
        <time>2011-02-20T10:20:14Z</time>
      </trkpt>
      <trkpt lat="48.76478" lon="-3.54753">
        <ele>85</ele>
        <time>2011-02-20T10:20:15Z</time>
      </trkpt>
      <trkpt lat="48.76474" lon="-3.54746">
        <ele>85</ele>
        <time>2011-02-20T10:20:16Z</time>
      </trkpt>
      <trkpt lat="48.7647" lon="-3.54739">
        <ele>85</ele>
        <time>2011-02-20T10:20:17Z</time>
      </trkpt>
      <trkpt lat="48.76466" lon="-3.54732">
        <ele>85</ele>
        <time>2011-02-20T10:20:18Z</time>
      </trkpt>
      <trkpt lat="48.76461" lon="-3.54725">
        <ele>85</ele>
        <time>2011-02-20T10:20:19Z</time>
      </trkpt>
      <trkpt lat="48.76457" lon="-3.54717">
        <ele>85</ele>
        <time>2011-02-20T10:20:20Z</time>
      </trkpt>
      <trkpt lat="48.76453" lon="-3.5471">
        <ele>86</ele>
        <time>2011-02-20T10:20:21Z</time>
      </trkpt>
      <trkpt lat="48.76449" lon="-3.54703">
        <ele>86</ele>
        <time>2011-02-20T10:20:22Z</time>
      </trkpt>
      <trkpt lat="48.76445" lon="-3.54696">
        <ele>86</ele>
        <time>2011-02-20T10:20:23Z</time>
      </trkpt>
      <trkpt lat="48.76441" lon="-3.54689">
        <ele>86</ele>
        <time>2011-02-20T10:20:24Z</time>
      </trkpt>
      <trkpt lat="48.76437" lon="-3.54682">
        <ele>86</ele>
        <time>2011-02-20T10:20:25Z</time>
      </trkpt>
      <trkpt lat="48.76432" lon="-3.54675">
        <ele>86</ele>
        <time>2011-02-20T10:20:26Z</time>
      </trkpt>
      <trkpt lat="48.76428" lon="-3.54667">
        <ele>86</ele>
        <time>2011-02-20T10:20:27Z</time>
      </trkpt>
      <trkpt lat="48.76424" lon="-3.5466">
        <ele>86</ele>
        <time>2011-02-20T10:20:28Z</time>
      </trkpt>
      <trkpt lat="48.76419" lon="-3.54653">
        <ele>86</ele>
        <time>2011-02-20T10:20:29Z</time>
      </trkpt>
      <trkpt lat="48.76415" lon="-3.54645">
        <ele>86</ele>
        <time>2011-02-20T10:20:30Z</time>
      </trkpt>
      <trkpt lat="48.76411" lon="-3.54638">
        <ele>86</ele>
        <time>2011-02-20T10:20:31Z</time>
      </trkpt>
      <trkpt lat="48.76406" lon="-3.5463">
        <ele>86</ele>
        <time>2011-02-20T10:20:32Z</time>
      </trkpt>
      <trkpt lat="48.76401" lon="-3.54623">
        <ele>86</ele>
        <time>2011-02-20T10:20:33Z</time>
      </trkpt>
      <trkpt lat="48.76397" lon="-3.54615">
        <ele>86</ele>
        <time>2011-02-20T10:20:34Z</time>
      </trkpt>
      <trkpt lat="48.76392" lon="-3.54608">
        <ele>86</ele>
        <time>2011-02-20T10:20:35Z</time>
      </trkpt>
      <trkpt lat="48.76388" lon="-3.546">
        <ele>86</ele>
        <time>2011-02-20T10:20:36Z</time>
      </trkpt>
      <trkpt lat="48.76384" lon="-3.54593">
        <ele>86</ele>
        <time>2011-02-20T10:20:37Z</time>
      </trkpt>
      <trkpt lat="48.76379" lon="-3.54586">
        <ele>87</ele>
        <time>2011-02-20T10:20:38Z</time>
      </trkpt>
      <trkpt lat="48.76375" lon="-3.54578">
        <ele>87</ele>
        <time>2011-02-20T10:20:39Z</time>
      </trkpt>
      <trkpt lat="48.7637" lon="-3.54571">
        <ele>87</ele>
        <time>2011-02-20T10:20:40Z</time>
      </trkpt>
      <trkpt lat="48.76366" lon="-3.54563">
        <ele>87</ele>
        <time>2011-02-20T10:20:41Z</time>
      </trkpt>
      <trkpt lat="48.76362" lon="-3.54556">
        <ele>87</ele>
        <time>2011-02-20T10:20:42Z</time>
      </trkpt>
      <trkpt lat="48.76358" lon="-3.54549">
        <ele>87</ele>
        <time>2011-02-20T10:20:43Z</time>
      </trkpt>
      <trkpt lat="48.76353" lon="-3.54541">
        <ele>87</ele>
        <time>2011-02-20T10:20:44Z</time>
      </trkpt>
      <trkpt lat="48.76349" lon="-3.54534">
        <ele>87</ele>
        <time>2011-02-20T10:20:45Z</time>
      </trkpt>
      <trkpt lat="48.76344" lon="-3.54526">
        <ele>87</ele>
        <time>2011-02-20T10:20:46Z</time>
      </trkpt>
      <trkpt lat="48.76339" lon="-3.54519">
        <ele>87</ele>
        <time>2011-02-20T10:20:47Z</time>
      </trkpt>
      <trkpt lat="48.76334" lon="-3.54512">
        <ele>87</ele>
        <time>2011-02-20T10:20:48Z</time>
      </trkpt>
      <trkpt lat="48.76329" lon="-3.54505">
        <ele>87</ele>
        <time>2011-02-20T10:20:49Z</time>
      </trkpt>
      <trkpt lat="48.76324" lon="-3.54498">
        <ele>87</ele>
        <time>2011-02-20T10:20:50Z</time>
      </trkpt>
      <trkpt lat="48.7632" lon="-3.54491">
        <ele>87</ele>
        <time>2011-02-20T10:20:51Z</time>
      </trkpt>
      <trkpt lat="48.76315" lon="-3.54483">
        <ele>87</ele>
        <time>2011-02-20T10:20:52Z</time>
      </trkpt>
      <trkpt lat="48.76311" lon="-3.54474">
        <ele>87</ele>
        <time>2011-02-20T10:20:53Z</time>
      </trkpt>
      <trkpt lat="48.76308" lon="-3.54466">
        <ele>88</ele>
        <time>2011-02-20T10:20:54Z</time>
      </trkpt>
      <trkpt lat="48.76304" lon="-3.54458">
        <ele>88</ele>
        <time>2011-02-20T10:20:55Z</time>
      </trkpt>
      <trkpt lat="48.76299" lon="-3.5445">
        <ele>88</ele>
        <time>2011-02-20T10:20:56Z</time>
      </trkpt>
      <trkpt lat="48.76295" lon="-3.54443">
        <ele>88</ele>
        <time>2011-02-20T10:20:57Z</time>
      </trkpt>
      <trkpt lat="48.76291" lon="-3.54435">
        <ele>88</ele>
        <time>2011-02-20T10:20:58Z</time>
      </trkpt>
      <trkpt lat="48.76286" lon="-3.54428">
        <ele>88</ele>
        <time>2011-02-20T10:20:59Z</time>
      </trkpt>
      <trkpt lat="48.76282" lon="-3.54421">
        <ele>88</ele>
        <time>2011-02-20T10:21:00Z</time>
      </trkpt>
      <trkpt lat="48.76278" lon="-3.54414">
        <ele>88</ele>
        <time>2011-02-20T10:21:01Z</time>
      </trkpt>
      <trkpt lat="48.76274" lon="-3.54407">
        <ele>88</ele>
        <time>2011-02-20T10:21:02Z</time>
      </trkpt>
      <trkpt lat="48.7627" lon="-3.544">
        <ele>88</ele>
        <time>2011-02-20T10:21:03Z</time>
      </trkpt>
      <trkpt lat="48.76266" lon="-3.54393">
        <ele>89</ele>
        <time>2011-02-20T10:21:04Z</time>
      </trkpt>
      <trkpt lat="48.76263" lon="-3.54386">
        <ele>89</ele>
        <time>2011-02-20T10:21:05Z</time>
      </trkpt>
      <trkpt lat="48.76259" lon="-3.54379">
        <ele>89</ele>
        <time>2011-02-20T10:21:06Z</time>
      </trkpt>
      <trkpt lat="48.76255" lon="-3.54372">
        <ele>89</ele>
        <time>2011-02-20T10:21:07Z</time>
      </trkpt>
      <trkpt lat="48.76251" lon="-3.54365">
        <ele>90</ele>
        <time>2011-02-20T10:21:08Z</time>
      </trkpt>
      <trkpt lat="48.76247" lon="-3.54358">
        <ele>90</ele>
        <time>2011-02-20T10:21:09Z</time>
      </trkpt>
      <trkpt lat="48.76243" lon="-3.54349">
        <ele>90</ele>
        <time>2011-02-20T10:21:10Z</time>
      </trkpt>
      <trkpt lat="48.76239" lon="-3.54341">
        <ele>90</ele>
        <time>2011-02-20T10:21:11Z</time>
      </trkpt>
      <trkpt lat="48.76235" lon="-3.54332">
        <ele>91</ele>
        <time>2011-02-20T10:21:12Z</time>
      </trkpt>
      <trkpt lat="48.76231" lon="-3.54324">
        <ele>91</ele>
        <time>2011-02-20T10:21:13Z</time>
      </trkpt>
      <trkpt lat="48.76226" lon="-3.54315">
        <ele>91</ele>
        <time>2011-02-20T10:21:14Z</time>
      </trkpt>
      <trkpt lat="48.76223" lon="-3.54306">
        <ele>91</ele>
        <time>2011-02-20T10:21:15Z</time>
      </trkpt>
      <trkpt lat="48.76219" lon="-3.54298">
        <ele>91</ele>
        <time>2011-02-20T10:21:16Z</time>
      </trkpt>
      <trkpt lat="48.76215" lon="-3.5429">
        <ele>91</ele>
        <time>2011-02-20T10:21:17Z</time>
      </trkpt>
      <trkpt lat="48.76211" lon="-3.54281">
        <ele>91</ele>
        <time>2011-02-20T10:21:18Z</time>
      </trkpt>
      <trkpt lat="48.76207" lon="-3.54273">
        <ele>92</ele>
        <time>2011-02-20T10:21:19Z</time>
      </trkpt>
      <trkpt lat="48.76202" lon="-3.54264">
        <ele>92</ele>
        <time>2011-02-20T10:21:20Z</time>
      </trkpt>
      <trkpt lat="48.76199" lon="-3.54256">
        <ele>92</ele>
        <time>2011-02-20T10:21:21Z</time>
      </trkpt>
      <trkpt lat="48.76194" lon="-3.54247">
        <ele>92</ele>
        <time>2011-02-20T10:21:22Z</time>
      </trkpt>
      <trkpt lat="48.76191" lon="-3.54239">
        <ele>92</ele>
        <time>2011-02-20T10:21:23Z</time>
      </trkpt>
      <trkpt lat="48.76186" lon="-3.5423">
        <ele>92</ele>
        <time>2011-02-20T10:21:24Z</time>
      </trkpt>
      <trkpt lat="48.76183" lon="-3.54221">
        <ele>92</ele>
        <time>2011-02-20T10:21:25Z</time>
      </trkpt>
      <trkpt lat="48.76178" lon="-3.54212">
        <ele>92</ele>
        <time>2011-02-20T10:21:26Z</time>
      </trkpt>
      <trkpt lat="48.76175" lon="-3.54204">
        <ele>92</ele>
        <time>2011-02-20T10:21:27Z</time>
      </trkpt>
      <trkpt lat="48.76171" lon="-3.54195">
        <ele>93</ele>
        <time>2011-02-20T10:21:28Z</time>
      </trkpt>
      <trkpt lat="48.76167" lon="-3.54187">
        <ele>93</ele>
        <time>2011-02-20T10:21:29Z</time>
      </trkpt>
      <trkpt lat="48.76162" lon="-3.54178">
        <ele>93</ele>
        <time>2011-02-20T10:21:30Z</time>
      </trkpt>
      <trkpt lat="48.76158" lon="-3.5417">
        <ele>93</ele>
        <time>2011-02-20T10:21:31Z</time>
      </trkpt>
      <trkpt lat="48.76154" lon="-3.54161">
        <ele>94</ele>
        <time>2011-02-20T10:21:32Z</time>
      </trkpt>
      <trkpt lat="48.7615" lon="-3.54152">
        <ele>94</ele>
        <time>2011-02-20T10:21:33Z</time>
      </trkpt>
      <trkpt lat="48.76146" lon="-3.54144">
        <ele>94</ele>
        <time>2011-02-20T10:21:34Z</time>
      </trkpt>
      <trkpt lat="48.76141" lon="-3.54135">
        <ele>94</ele>
        <time>2011-02-20T10:21:35Z</time>
      </trkpt>
      <trkpt lat="48.76137" lon="-3.54126">
        <ele>94</ele>
        <time>2011-02-20T10:21:36Z</time>
      </trkpt>
      <trkpt lat="48.76132" lon="-3.54118">
        <ele>94</ele>
        <time>2011-02-20T10:21:37Z</time>
      </trkpt>
      <trkpt lat="48.76128" lon="-3.54109">
        <ele>94</ele>
        <time>2011-02-20T10:21:38Z</time>
      </trkpt>
      <trkpt lat="48.76123" lon="-3.541">
        <ele>94</ele>
        <time>2011-02-20T10:21:39Z</time>
      </trkpt>
      <trkpt lat="48.76119" lon="-3.54091">
        <ele>94</ele>
        <time>2011-02-20T10:21:40Z</time>
      </trkpt>
      <trkpt lat="48.76114" lon="-3.54082">
        <ele>94</ele>
        <time>2011-02-20T10:21:41Z</time>
      </trkpt>
      <trkpt lat="48.76109" lon="-3.54073">
        <ele>94</ele>
        <time>2011-02-20T10:21:42Z</time>
      </trkpt>
      <trkpt lat="48.76104" lon="-3.54064">
        <ele>94</ele>
        <time>2011-02-20T10:21:43Z</time>
      </trkpt>
      <trkpt lat="48.76099" lon="-3.54056">
        <ele>94</ele>
        <time>2011-02-20T10:21:44Z</time>
      </trkpt>
      <trkpt lat="48.76095" lon="-3.54047">
        <ele>94</ele>
        <time>2011-02-20T10:21:45Z</time>
      </trkpt>
      <trkpt lat="48.7609" lon="-3.54038">
        <ele>94</ele>
        <time>2011-02-20T10:21:46Z</time>
      </trkpt>
      <trkpt lat="48.76085" lon="-3.54029">
        <ele>94</ele>
        <time>2011-02-20T10:21:47Z</time>
      </trkpt>
      <trkpt lat="48.7608" lon="-3.5402">
        <ele>94</ele>
        <time>2011-02-20T10:21:48Z</time>
      </trkpt>
      <trkpt lat="48.76075" lon="-3.54011">
        <ele>94</ele>
        <time>2011-02-20T10:21:49Z</time>
      </trkpt>
      <trkpt lat="48.7607" lon="-3.54003">
        <ele>94</ele>
        <time>2011-02-20T10:21:50Z</time>
      </trkpt>
      <trkpt lat="48.76065" lon="-3.53994">
        <ele>94</ele>
        <time>2011-02-20T10:21:51Z</time>
      </trkpt>
      <trkpt lat="48.76061" lon="-3.53986">
        <ele>94</ele>
        <time>2011-02-20T10:21:52Z</time>
      </trkpt>
      <trkpt lat="48.76056" lon="-3.53977">
        <ele>95</ele>
        <time>2011-02-20T10:21:53Z</time>
      </trkpt>
      <trkpt lat="48.76051" lon="-3.53969">
        <ele>95</ele>
        <time>2011-02-20T10:21:54Z</time>
      </trkpt>
      <trkpt lat="48.76046" lon="-3.5396">
        <ele>95</ele>
        <time>2011-02-20T10:21:55Z</time>
      </trkpt>
      <trkpt lat="48.76041" lon="-3.53951">
        <ele>95</ele>
        <time>2011-02-20T10:21:56Z</time>
      </trkpt>
      <trkpt lat="48.76036" lon="-3.53942">
        <ele>95</ele>
        <time>2011-02-20T10:21:57Z</time>
      </trkpt>
      <trkpt lat="48.7603" lon="-3.53933">
        <ele>95</ele>
        <time>2011-02-20T10:21:58Z</time>
      </trkpt>
      <trkpt lat="48.76025" lon="-3.53924">
        <ele>95</ele>
        <time>2011-02-20T10:21:59Z</time>
      </trkpt>
      <trkpt lat="48.76021" lon="-3.53915">
        <ele>95</ele>
        <time>2011-02-20T10:22:00Z</time>
      </trkpt>
      <trkpt lat="48.76016" lon="-3.53906">
        <ele>95</ele>
        <time>2011-02-20T10:22:01Z</time>
      </trkpt>
      <trkpt lat="48.76011" lon="-3.53897">
        <ele>95</ele>
        <time>2011-02-20T10:22:02Z</time>
      </trkpt>
      <trkpt lat="48.76006" lon="-3.53888">
        <ele>95</ele>
        <time>2011-02-20T10:22:03Z</time>
      </trkpt>
      <trkpt lat="48.76002" lon="-3.53878">
        <ele>95</ele>
        <time>2011-02-20T10:22:04Z</time>
      </trkpt>
      <trkpt lat="48.75997" lon="-3.53868">
        <ele>95</ele>
        <time>2011-02-20T10:22:05Z</time>
      </trkpt>
      <trkpt lat="48.75993" lon="-3.53858">
        <ele>95</ele>
        <time>2011-02-20T10:22:06Z</time>
      </trkpt>
      <trkpt lat="48.75988" lon="-3.53849">
        <ele>95</ele>
        <time>2011-02-20T10:22:07Z</time>
      </trkpt>
      <trkpt lat="48.75984" lon="-3.53838">
        <ele>95</ele>
        <time>2011-02-20T10:22:08Z</time>
      </trkpt>
      <trkpt lat="48.7598" lon="-3.53828">
        <ele>95</ele>
        <time>2011-02-20T10:22:09Z</time>
      </trkpt>
      <trkpt lat="48.75977" lon="-3.53818">
        <ele>95</ele>
        <time>2011-02-20T10:22:10Z</time>
      </trkpt>
      <trkpt lat="48.75973" lon="-3.53806">
        <ele>95</ele>
        <time>2011-02-20T10:22:11Z</time>
      </trkpt>
      <trkpt lat="48.7597" lon="-3.53795">
        <ele>95</ele>
        <time>2011-02-20T10:22:12Z</time>
      </trkpt>
      <trkpt lat="48.75967" lon="-3.53785">
        <ele>95</ele>
        <time>2011-02-20T10:22:13Z</time>
      </trkpt>
      <trkpt lat="48.75964" lon="-3.53775">
        <ele>95</ele>
        <time>2011-02-20T10:22:14Z</time>
      </trkpt>
      <trkpt lat="48.7596" lon="-3.53765">
        <ele>95</ele>
        <time>2011-02-20T10:22:15Z</time>
      </trkpt>
      <trkpt lat="48.75957" lon="-3.53754">
        <ele>95</ele>
        <time>2011-02-20T10:22:16Z</time>
      </trkpt>
      <trkpt lat="48.75954" lon="-3.53744">
        <ele>95</ele>
        <time>2011-02-20T10:22:17Z</time>
      </trkpt>
      <trkpt lat="48.75951" lon="-3.53734">
        <ele>95</ele>
        <time>2011-02-20T10:22:18Z</time>
      </trkpt>
      <trkpt lat="48.75947" lon="-3.53724">
        <ele>95</ele>
        <time>2011-02-20T10:22:19Z</time>
      </trkpt>
      <trkpt lat="48.75944" lon="-3.53714">
        <ele>95</ele>
        <time>2011-02-20T10:22:20Z</time>
      </trkpt>
      <trkpt lat="48.75941" lon="-3.53703">
        <ele>95</ele>
        <time>2011-02-20T10:22:21Z</time>
      </trkpt>
      <trkpt lat="48.75938" lon="-3.53693">
        <ele>95</ele>
        <time>2011-02-20T10:22:22Z</time>
      </trkpt>
      <trkpt lat="48.75935" lon="-3.53682">
        <ele>95</ele>
        <time>2011-02-20T10:22:23Z</time>
      </trkpt>
      <trkpt lat="48.75931" lon="-3.53672">
        <ele>95</ele>
        <time>2011-02-20T10:22:24Z</time>
      </trkpt>
      <trkpt lat="48.75928" lon="-3.5366">
        <ele>95</ele>
        <time>2011-02-20T10:22:25Z</time>
      </trkpt>
      <trkpt lat="48.75925" lon="-3.53649">
        <ele>95</ele>
        <time>2011-02-20T10:22:26Z</time>
      </trkpt>
      <trkpt lat="48.75923" lon="-3.53639">
        <ele>95</ele>
        <time>2011-02-20T10:22:27Z</time>
      </trkpt>
      <trkpt lat="48.7592" lon="-3.53627">
        <ele>95</ele>
        <time>2011-02-20T10:22:28Z</time>
      </trkpt>
      <trkpt lat="48.75917" lon="-3.53616">
        <ele>95</ele>
        <time>2011-02-20T10:22:29Z</time>
      </trkpt>
      <trkpt lat="48.75914" lon="-3.53606">
        <ele>95</ele>
        <time>2011-02-20T10:22:30Z</time>
      </trkpt>
      <trkpt lat="48.75911" lon="-3.53595">
        <ele>95</ele>
        <time>2011-02-20T10:22:31Z</time>
      </trkpt>
      <trkpt lat="48.75909" lon="-3.53584">
        <ele>95</ele>
        <time>2011-02-20T10:22:32Z</time>
      </trkpt>
      <trkpt lat="48.75906" lon="-3.53573">
        <ele>95</ele>
        <time>2011-02-20T10:22:33Z</time>
      </trkpt>
      <trkpt lat="48.75903" lon="-3.53562">
        <ele>95</ele>
        <time>2011-02-20T10:22:34Z</time>
      </trkpt>
      <trkpt lat="48.759" lon="-3.53551">
        <ele>95</ele>
        <time>2011-02-20T10:22:35Z</time>
      </trkpt>
      <trkpt lat="48.75897" lon="-3.5354">
        <ele>95</ele>
        <time>2011-02-20T10:22:36Z</time>
      </trkpt>
      <trkpt lat="48.75894" lon="-3.53528">
        <ele>95</ele>
        <time>2011-02-20T10:22:37Z</time>
      </trkpt>
      <trkpt lat="48.75891" lon="-3.53517">
        <ele>95</ele>
        <time>2011-02-20T10:22:38Z</time>
      </trkpt>
      <trkpt lat="48.75888" lon="-3.53505">
        <ele>95</ele>
        <time>2011-02-20T10:22:39Z</time>
      </trkpt>
      <trkpt lat="48.75885" lon="-3.53493">
        <ele>95</ele>
        <time>2011-02-20T10:22:40Z</time>
      </trkpt>
      <trkpt lat="48.75882" lon="-3.53481">
        <ele>95</ele>
        <time>2011-02-20T10:22:41Z</time>
      </trkpt>
      <trkpt lat="48.75878" lon="-3.53469">
        <ele>95</ele>
        <time>2011-02-20T10:22:42Z</time>
      </trkpt>
      <trkpt lat="48.75875" lon="-3.53456">
        <ele>95</ele>
        <time>2011-02-20T10:22:43Z</time>
      </trkpt>
      <trkpt lat="48.75872" lon="-3.53444">
        <ele>95</ele>
        <time>2011-02-20T10:22:44Z</time>
      </trkpt>
      <trkpt lat="48.75869" lon="-3.53432">
        <ele>95</ele>
        <time>2011-02-20T10:22:45Z</time>
      </trkpt>
      <trkpt lat="48.75866" lon="-3.53419">
        <ele>95</ele>
        <time>2011-02-20T10:22:46Z</time>
      </trkpt>
      <trkpt lat="48.75862" lon="-3.53407">
        <ele>95</ele>
        <time>2011-02-20T10:22:47Z</time>
      </trkpt>
      <trkpt lat="48.75859" lon="-3.53394">
        <ele>95</ele>
        <time>2011-02-20T10:22:48Z</time>
      </trkpt>
      <trkpt lat="48.75856" lon="-3.53382">
        <ele>94</ele>
        <time>2011-02-20T10:22:49Z</time>
      </trkpt>
      <trkpt lat="48.75852" lon="-3.53369">
        <ele>94</ele>
        <time>2011-02-20T10:22:50Z</time>
      </trkpt>
      <trkpt lat="48.75849" lon="-3.53357">
        <ele>94</ele>
        <time>2011-02-20T10:22:51Z</time>
      </trkpt>
      <trkpt lat="48.75845" lon="-3.53344">
        <ele>93</ele>
        <time>2011-02-20T10:22:52Z</time>
      </trkpt>
      <trkpt lat="48.75842" lon="-3.5333">
        <ele>93</ele>
        <time>2011-02-20T10:22:53Z</time>
      </trkpt>
      <trkpt lat="48.75839" lon="-3.53317">
        <ele>93</ele>
        <time>2011-02-20T10:22:54Z</time>
      </trkpt>
      <trkpt lat="48.75835" lon="-3.53304">
        <ele>92</ele>
        <time>2011-02-20T10:22:55Z</time>
      </trkpt>
      <trkpt lat="48.75832" lon="-3.5329">
        <ele>92</ele>
        <time>2011-02-20T10:22:56Z</time>
      </trkpt>
      <trkpt lat="48.75829" lon="-3.53276">
        <ele>91</ele>
        <time>2011-02-20T10:22:57Z</time>
      </trkpt>
      <trkpt lat="48.75825" lon="-3.53263">
        <ele>91</ele>
        <time>2011-02-20T10:22:58Z</time>
      </trkpt>
      <trkpt lat="48.75822" lon="-3.5325">
        <ele>90</ele>
        <time>2011-02-20T10:22:59Z</time>
      </trkpt>
      <trkpt lat="48.75819" lon="-3.53236">
        <ele>90</ele>
        <time>2011-02-20T10:23:00Z</time>
      </trkpt>
      <trkpt lat="48.75815" lon="-3.53223">
        <ele>90</ele>
        <time>2011-02-20T10:23:01Z</time>
      </trkpt>
      <trkpt lat="48.75812" lon="-3.53211">
        <ele>90</ele>
        <time>2011-02-20T10:23:02Z</time>
      </trkpt>
      <trkpt lat="48.75809" lon="-3.53199">
        <ele>90</ele>
        <time>2011-02-20T10:23:03Z</time>
      </trkpt>
      <trkpt lat="48.75806" lon="-3.53187">
        <ele>90</ele>
        <time>2011-02-20T10:23:04Z</time>
      </trkpt>
      <trkpt lat="48.75803" lon="-3.53175">
        <ele>90</ele>
        <time>2011-02-20T10:23:05Z</time>
      </trkpt>
      <trkpt lat="48.75801" lon="-3.53164">
        <ele>90</ele>
        <time>2011-02-20T10:23:06Z</time>
      </trkpt>
      <trkpt lat="48.75798" lon="-3.53153">
        <ele>90</ele>
        <time>2011-02-20T10:23:07Z</time>
      </trkpt>
      <trkpt lat="48.75796" lon="-3.53143">
        <ele>90</ele>
        <time>2011-02-20T10:23:08Z</time>
      </trkpt>
      <trkpt lat="48.75793" lon="-3.53133">
        <ele>90</ele>
        <time>2011-02-20T10:23:09Z</time>
      </trkpt>
      <trkpt lat="48.75788" lon="-3.53115">
        <ele>90</ele>
        <time>2011-02-20T10:23:11Z</time>
      </trkpt>
      <trkpt lat="48.75786" lon="-3.53106">
        <ele>90</ele>
        <time>2011-02-20T10:23:12Z</time>
      </trkpt>
      <trkpt lat="48.7578" lon="-3.53082">
        <ele>90</ele>
        <time>2011-02-20T10:23:15Z</time>
      </trkpt>
      <trkpt lat="48.75757" lon="-3.52993">
        <ele>90</ele>
        <time>2011-02-20T10:23:27Z</time>
      </trkpt>
      <trkpt lat="48.75755" lon="-3.52985">
        <ele>90</ele>
        <time>2011-02-20T10:23:28Z</time>
      </trkpt>
      <trkpt lat="48.75753" lon="-3.52977">
        <ele>90</ele>
        <time>2011-02-20T10:23:29Z</time>
      </trkpt>
      <trkpt lat="48.7575" lon="-3.5297">
        <ele>90</ele>
        <time>2011-02-20T10:23:30Z</time>
      </trkpt>
      <trkpt lat="48.75748" lon="-3.52962">
        <ele>90</ele>
        <time>2011-02-20T10:23:31Z</time>
      </trkpt>
      <trkpt lat="48.75745" lon="-3.52954">
        <ele>90</ele>
        <time>2011-02-20T10:23:32Z</time>
      </trkpt>
      <trkpt lat="48.75743" lon="-3.52946">
        <ele>90</ele>
        <time>2011-02-20T10:23:33Z</time>
      </trkpt>
      <trkpt lat="48.7574" lon="-3.52938">
        <ele>90</ele>
        <time>2011-02-20T10:23:34Z</time>
      </trkpt>
      <trkpt lat="48.75738" lon="-3.5293">
        <ele>91</ele>
        <time>2011-02-20T10:23:35Z</time>
      </trkpt>
      <trkpt lat="48.75736" lon="-3.52923">
        <ele>91</ele>
        <time>2011-02-20T10:23:36Z</time>
      </trkpt>
      <trkpt lat="48.75733" lon="-3.52915">
        <ele>92</ele>
        <time>2011-02-20T10:23:37Z</time>
      </trkpt>
      <trkpt lat="48.75731" lon="-3.52907">
        <ele>92</ele>
        <time>2011-02-20T10:23:38Z</time>
      </trkpt>
      <trkpt lat="48.75728" lon="-3.529">
        <ele>92</ele>
        <time>2011-02-20T10:23:39Z</time>
      </trkpt>
      <trkpt lat="48.75726" lon="-3.52892">
        <ele>92</ele>
        <time>2011-02-20T10:23:40Z</time>
      </trkpt>
      <trkpt lat="48.75723" lon="-3.52885">
        <ele>93</ele>
        <time>2011-02-20T10:23:41Z</time>
      </trkpt>
      <trkpt lat="48.7572" lon="-3.52877">
        <ele>93</ele>
        <time>2011-02-20T10:23:42Z</time>
      </trkpt>
      <trkpt lat="48.75717" lon="-3.52869">
        <ele>93</ele>
        <time>2011-02-20T10:23:43Z</time>
      </trkpt>
      <trkpt lat="48.75714" lon="-3.52861">
        <ele>93</ele>
        <time>2011-02-20T10:23:44Z</time>
      </trkpt>
      <trkpt lat="48.75711" lon="-3.52853">
        <ele>94</ele>
        <time>2011-02-20T10:23:45Z</time>
      </trkpt>
      <trkpt lat="48.75708" lon="-3.52846">
        <ele>94</ele>
        <time>2011-02-20T10:23:46Z</time>
      </trkpt>
      <trkpt lat="48.75705" lon="-3.52838">
        <ele>94</ele>
        <time>2011-02-20T10:23:47Z</time>
      </trkpt>
      <trkpt lat="48.75702" lon="-3.5283">
        <ele>94</ele>
        <time>2011-02-20T10:23:48Z</time>
      </trkpt>
      <trkpt lat="48.75699" lon="-3.52822">
        <ele>94</ele>
        <time>2011-02-20T10:23:49Z</time>
      </trkpt>
      <trkpt lat="48.75695" lon="-3.52815">
        <ele>95</ele>
        <time>2011-02-20T10:23:50Z</time>
      </trkpt>
      <trkpt lat="48.75692" lon="-3.52807">
        <ele>95</ele>
        <time>2011-02-20T10:23:51Z</time>
      </trkpt>
      <trkpt lat="48.75689" lon="-3.528">
        <ele>95</ele>
        <time>2011-02-20T10:23:52Z</time>
      </trkpt>
      <trkpt lat="48.75686" lon="-3.52792">
        <ele>95</ele>
        <time>2011-02-20T10:23:53Z</time>
      </trkpt>
      <trkpt lat="48.75682" lon="-3.52785">
        <ele>95</ele>
        <time>2011-02-20T10:23:54Z</time>
      </trkpt>
      <trkpt lat="48.75679" lon="-3.52778">
        <ele>95</ele>
        <time>2011-02-20T10:23:55Z</time>
      </trkpt>
      <trkpt lat="48.75676" lon="-3.5277">
        <ele>95</ele>
        <time>2011-02-20T10:23:56Z</time>
      </trkpt>
      <trkpt lat="48.75672" lon="-3.52763">
        <ele>96</ele>
        <time>2011-02-20T10:23:57Z</time>
      </trkpt>
      <trkpt lat="48.75668" lon="-3.52755">
        <ele>96</ele>
        <time>2011-02-20T10:23:58Z</time>
      </trkpt>
      <trkpt lat="48.75665" lon="-3.52748">
        <ele>96</ele>
        <time>2011-02-20T10:23:59Z</time>
      </trkpt>
      <trkpt lat="48.75661" lon="-3.52741">
        <ele>96</ele>
        <time>2011-02-20T10:24:00Z</time>
      </trkpt>
      <trkpt lat="48.75657" lon="-3.52733">
        <ele>96</ele>
        <time>2011-02-20T10:24:01Z</time>
      </trkpt>
      <trkpt lat="48.75653" lon="-3.52725">
        <ele>96</ele>
        <time>2011-02-20T10:24:02Z</time>
      </trkpt>
      <trkpt lat="48.75649" lon="-3.52717">
        <ele>97</ele>
        <time>2011-02-20T10:24:03Z</time>
      </trkpt>
      <trkpt lat="48.75645" lon="-3.5271">
        <ele>97</ele>
        <time>2011-02-20T10:24:04Z</time>
      </trkpt>
      <trkpt lat="48.7564" lon="-3.52702">
        <ele>97</ele>
        <time>2011-02-20T10:24:05Z</time>
      </trkpt>
      <trkpt lat="48.75637" lon="-3.52695">
        <ele>97</ele>
        <time>2011-02-20T10:24:06Z</time>
      </trkpt>
      <trkpt lat="48.75632" lon="-3.52688">
        <ele>97</ele>
        <time>2011-02-20T10:24:07Z</time>
      </trkpt>
      <trkpt lat="48.75629" lon="-3.52681">
        <ele>97</ele>
        <time>2011-02-20T10:24:08Z</time>
      </trkpt>
      <trkpt lat="48.75625" lon="-3.52675">
        <ele>97</ele>
        <time>2011-02-20T10:24:09Z</time>
      </trkpt>
      <trkpt lat="48.75621" lon="-3.52668">
        <ele>97</ele>
        <time>2011-02-20T10:24:10Z</time>
      </trkpt>
      <trkpt lat="48.75617" lon="-3.52661">
        <ele>97</ele>
        <time>2011-02-20T10:24:11Z</time>
      </trkpt>
      <trkpt lat="48.75613" lon="-3.52655">
        <ele>97</ele>
        <time>2011-02-20T10:24:12Z</time>
      </trkpt>
      <trkpt lat="48.75609" lon="-3.52648">
        <ele>97</ele>
        <time>2011-02-20T10:24:13Z</time>
      </trkpt>
      <trkpt lat="48.75605" lon="-3.52641">
        <ele>98</ele>
        <time>2011-02-20T10:24:14Z</time>
      </trkpt>
      <trkpt lat="48.756" lon="-3.52635">
        <ele>98</ele>
        <time>2011-02-20T10:24:15Z</time>
      </trkpt>
      <trkpt lat="48.75596" lon="-3.52628">
        <ele>98</ele>
        <time>2011-02-20T10:24:16Z</time>
      </trkpt>
      <trkpt lat="48.75591" lon="-3.52622">
        <ele>98</ele>
        <time>2011-02-20T10:24:17Z</time>
      </trkpt>
      <trkpt lat="48.75587" lon="-3.52615">
        <ele>98</ele>
        <time>2011-02-20T10:24:18Z</time>
      </trkpt>
      <trkpt lat="48.75582" lon="-3.52609">
        <ele>98</ele>
        <time>2011-02-20T10:24:19Z</time>
      </trkpt>
      <trkpt lat="48.75578" lon="-3.52603">
        <ele>98</ele>
        <time>2011-02-20T10:24:20Z</time>
      </trkpt>
      <trkpt lat="48.75573" lon="-3.52596">
        <ele>98</ele>
        <time>2011-02-20T10:24:21Z</time>
      </trkpt>
      <trkpt lat="48.75569" lon="-3.5259">
        <ele>98</ele>
        <time>2011-02-20T10:24:22Z</time>
      </trkpt>
      <trkpt lat="48.75564" lon="-3.52584">
        <ele>98</ele>
        <time>2011-02-20T10:24:23Z</time>
      </trkpt>
      <trkpt lat="48.7556" lon="-3.52578">
        <ele>98</ele>
        <time>2011-02-20T10:24:24Z</time>
      </trkpt>
      <trkpt lat="48.75555" lon="-3.52572">
        <ele>98</ele>
        <time>2011-02-20T10:24:25Z</time>
      </trkpt>
      <trkpt lat="48.75551" lon="-3.52565">
        <ele>98</ele>
        <time>2011-02-20T10:24:26Z</time>
      </trkpt>
      <trkpt lat="48.75546" lon="-3.52559">
        <ele>98</ele>
        <time>2011-02-20T10:24:27Z</time>
      </trkpt>
      <trkpt lat="48.75542" lon="-3.52553">
        <ele>98</ele>
        <time>2011-02-20T10:24:28Z</time>
      </trkpt>
      <trkpt lat="48.75537" lon="-3.52546">
        <ele>98</ele>
        <time>2011-02-20T10:24:29Z</time>
      </trkpt>
      <trkpt lat="48.75533" lon="-3.52539">
        <ele>98</ele>
        <time>2011-02-20T10:24:30Z</time>
      </trkpt>
      <trkpt lat="48.75529" lon="-3.52533">
        <ele>98</ele>
        <time>2011-02-20T10:24:31Z</time>
      </trkpt>
      <trkpt lat="48.75525" lon="-3.52526">
        <ele>98</ele>
        <time>2011-02-20T10:24:32Z</time>
      </trkpt>
      <trkpt lat="48.75521" lon="-3.52519">
        <ele>98</ele>
        <time>2011-02-20T10:24:33Z</time>
      </trkpt>
      <trkpt lat="48.75516" lon="-3.52512">
        <ele>98</ele>
        <time>2011-02-20T10:24:34Z</time>
      </trkpt>
      <trkpt lat="48.75512" lon="-3.52504">
        <ele>98</ele>
        <time>2011-02-20T10:24:35Z</time>
      </trkpt>
      <trkpt lat="48.75507" lon="-3.52496">
        <ele>98</ele>
        <time>2011-02-20T10:24:36Z</time>
      </trkpt>
      <trkpt lat="48.75503" lon="-3.52487">
        <ele>98</ele>
        <time>2011-02-20T10:24:37Z</time>
      </trkpt>
      <trkpt lat="48.75499" lon="-3.52478">
        <ele>98</ele>
        <time>2011-02-20T10:24:38Z</time>
      </trkpt>
      <trkpt lat="48.75496" lon="-3.52469">
        <ele>98</ele>
        <time>2011-02-20T10:24:39Z</time>
      </trkpt>
      <trkpt lat="48.75492" lon="-3.5246">
        <ele>98</ele>
        <time>2011-02-20T10:24:40Z</time>
      </trkpt>
      <trkpt lat="48.75489" lon="-3.5245">
        <ele>98</ele>
        <time>2011-02-20T10:24:41Z</time>
      </trkpt>
      <trkpt lat="48.75486" lon="-3.5244">
        <ele>98</ele>
        <time>2011-02-20T10:24:42Z</time>
      </trkpt>
      <trkpt lat="48.75483" lon="-3.5243">
        <ele>98</ele>
        <time>2011-02-20T10:24:43Z</time>
      </trkpt>
      <trkpt lat="48.7548" lon="-3.52419">
        <ele>98</ele>
        <time>2011-02-20T10:24:44Z</time>
      </trkpt>
      <trkpt lat="48.75477" lon="-3.52409">
        <ele>98</ele>
        <time>2011-02-20T10:24:45Z</time>
      </trkpt>
      <trkpt lat="48.75474" lon="-3.52398">
        <ele>98</ele>
        <time>2011-02-20T10:24:46Z</time>
      </trkpt>
      <trkpt lat="48.75471" lon="-3.52387">
        <ele>98</ele>
        <time>2011-02-20T10:24:47Z</time>
      </trkpt>
      <trkpt lat="48.75468" lon="-3.52377">
        <ele>98</ele>
        <time>2011-02-20T10:24:48Z</time>
      </trkpt>
      <trkpt lat="48.75466" lon="-3.52366">
        <ele>98</ele>
        <time>2011-02-20T10:24:49Z</time>
      </trkpt>
      <trkpt lat="48.75462" lon="-3.52344">
        <ele>98</ele>
        <time>2011-02-20T10:24:51Z</time>
      </trkpt>
      <trkpt lat="48.7546" lon="-3.52334">
        <ele>98</ele>
        <time>2011-02-20T10:24:52Z</time>
      </trkpt>
      <trkpt lat="48.75455" lon="-3.52311">
        <ele>98</ele>
        <time>2011-02-20T10:24:54Z</time>
      </trkpt>
      <trkpt lat="48.75453" lon="-3.523">
        <ele>98</ele>
        <time>2011-02-20T10:24:55Z</time>
      </trkpt>
      <trkpt lat="48.75451" lon="-3.52289">
        <ele>98</ele>
        <time>2011-02-20T10:24:56Z</time>
      </trkpt>
      <trkpt lat="48.75449" lon="-3.52277">
        <ele>98</ele>
        <time>2011-02-20T10:24:57Z</time>
      </trkpt>
      <trkpt lat="48.75446" lon="-3.52267">
        <ele>98</ele>
        <time>2011-02-20T10:24:58Z</time>
      </trkpt>
      <trkpt lat="48.75444" lon="-3.52256">
        <ele>98</ele>
        <time>2011-02-20T10:24:59Z</time>
      </trkpt>
      <trkpt lat="48.75442" lon="-3.52245">
        <ele>98</ele>
        <time>2011-02-20T10:25:00Z</time>
      </trkpt>
      <trkpt lat="48.75439" lon="-3.52234">
        <ele>98</ele>
        <time>2011-02-20T10:25:01Z</time>
      </trkpt>
      <trkpt lat="48.75435" lon="-3.52212">
        <ele>98</ele>
        <time>2011-02-20T10:25:03Z</time>
      </trkpt>
      <trkpt lat="48.75431" lon="-3.52189">
        <ele>98</ele>
        <time>2011-02-20T10:25:05Z</time>
      </trkpt>
      <trkpt lat="48.75429" lon="-3.52178">
        <ele>98</ele>
        <time>2011-02-20T10:25:06Z</time>
      </trkpt>
      <trkpt lat="48.75426" lon="-3.52167">
        <ele>98</ele>
        <time>2011-02-20T10:25:07Z</time>
      </trkpt>
      <trkpt lat="48.75424" lon="-3.52155">
        <ele>98</ele>
        <time>2011-02-20T10:25:08Z</time>
      </trkpt>
      <trkpt lat="48.75422" lon="-3.52144">
        <ele>98</ele>
        <time>2011-02-20T10:25:09Z</time>
      </trkpt>
      <trkpt lat="48.75419" lon="-3.52133">
        <ele>98</ele>
        <time>2011-02-20T10:25:10Z</time>
      </trkpt>
      <trkpt lat="48.75417" lon="-3.52122">
        <ele>98</ele>
        <time>2011-02-20T10:25:11Z</time>
      </trkpt>
      <trkpt lat="48.75415" lon="-3.52111">
        <ele>98</ele>
        <time>2011-02-20T10:25:12Z</time>
      </trkpt>
      <trkpt lat="48.75412" lon="-3.52099">
        <ele>98</ele>
        <time>2011-02-20T10:25:13Z</time>
      </trkpt>
      <trkpt lat="48.7541" lon="-3.52088">
        <ele>98</ele>
        <time>2011-02-20T10:25:14Z</time>
      </trkpt>
      <trkpt lat="48.75408" lon="-3.52077">
        <ele>98</ele>
        <time>2011-02-20T10:25:15Z</time>
      </trkpt>
      <trkpt lat="48.75406" lon="-3.52066">
        <ele>98</ele>
        <time>2011-02-20T10:25:16Z</time>
      </trkpt>
      <trkpt lat="48.75403" lon="-3.52055">
        <ele>98</ele>
        <time>2011-02-20T10:25:17Z</time>
      </trkpt>
      <trkpt lat="48.75401" lon="-3.52043">
        <ele>98</ele>
        <time>2011-02-20T10:25:18Z</time>
      </trkpt>
      <trkpt lat="48.75399" lon="-3.52032">
        <ele>98</ele>
        <time>2011-02-20T10:25:19Z</time>
      </trkpt>
      <trkpt lat="48.75394" lon="-3.5201">
        <ele>98</ele>
        <time>2011-02-20T10:25:21Z</time>
      </trkpt>
      <trkpt lat="48.75392" lon="-3.51999">
        <ele>98</ele>
        <time>2011-02-20T10:25:22Z</time>
      </trkpt>
      <trkpt lat="48.75387" lon="-3.51978">
        <ele>98</ele>
        <time>2011-02-20T10:25:24Z</time>
      </trkpt>
      <trkpt lat="48.75385" lon="-3.51967">
        <ele>98</ele>
        <time>2011-02-20T10:25:25Z</time>
      </trkpt>
      <trkpt lat="48.75381" lon="-3.51946">
        <ele>98</ele>
        <time>2011-02-20T10:25:27Z</time>
      </trkpt>
      <trkpt lat="48.75379" lon="-3.51935">
        <ele>98</ele>
        <time>2011-02-20T10:25:28Z</time>
      </trkpt>
      <trkpt lat="48.75374" lon="-3.51913">
        <ele>98</ele>
        <time>2011-02-20T10:25:30Z</time>
      </trkpt>
      <trkpt lat="48.75372" lon="-3.51902">
        <ele>98</ele>
        <time>2011-02-20T10:25:31Z</time>
      </trkpt>
      <trkpt lat="48.7537" lon="-3.51891">
        <ele>98</ele>
        <time>2011-02-20T10:25:32Z</time>
      </trkpt>
      <trkpt lat="48.75365" lon="-3.51869">
        <ele>98</ele>
        <time>2011-02-20T10:25:34Z</time>
      </trkpt>
      <trkpt lat="48.75363" lon="-3.51857">
        <ele>98</ele>
        <time>2011-02-20T10:25:35Z</time>
      </trkpt>
      <trkpt lat="48.75361" lon="-3.51846">
        <ele>98</ele>
        <time>2011-02-20T10:25:36Z</time>
      </trkpt>
      <trkpt lat="48.75359" lon="-3.51835">
        <ele>98</ele>
        <time>2011-02-20T10:25:37Z</time>
      </trkpt>
      <trkpt lat="48.75356" lon="-3.51823">
        <ele>98</ele>
        <time>2011-02-20T10:25:38Z</time>
      </trkpt>
      <trkpt lat="48.75344" lon="-3.51755">
        <ele>98</ele>
        <time>2011-02-20T10:25:44Z</time>
      </trkpt>
      <trkpt lat="48.75343" lon="-3.51744">
        <ele>98</ele>
        <time>2011-02-20T10:25:45Z</time>
      </trkpt>
      <trkpt lat="48.75337" lon="-3.51699">
        <ele>98</ele>
        <time>2011-02-20T10:25:49Z</time>
      </trkpt>
      <trkpt lat="48.7533" lon="-3.51631">
        <ele>98</ele>
        <time>2011-02-20T10:25:55Z</time>
      </trkpt>
      <trkpt lat="48.75328" lon="-3.5162">
        <ele>98</ele>
        <time>2011-02-20T10:25:56Z</time>
      </trkpt>
      <trkpt lat="48.75325" lon="-3.51597">
        <ele>98</ele>
        <time>2011-02-20T10:25:58Z</time>
      </trkpt>
      <trkpt lat="48.75321" lon="-3.51563">
        <ele>98</ele>
        <time>2011-02-20T10:26:01Z</time>
      </trkpt>
      <trkpt lat="48.75315" lon="-3.51506">
        <ele>98</ele>
        <time>2011-02-20T10:26:06Z</time>
      </trkpt>
      <trkpt lat="48.7531" lon="-3.51462">
        <ele>98</ele>
        <time>2011-02-20T10:26:10Z</time>
      </trkpt>
      <trkpt lat="48.75247" lon="-3.50994">
        <ele>98</ele>
        <time>2011-02-20T10:26:52Z</time>
      </trkpt>
      <trkpt lat="48.75246" lon="-3.50983">
        <ele>98</ele>
        <time>2011-02-20T10:26:53Z</time>
      </trkpt>
      <trkpt lat="48.7524" lon="-3.5094">
        <ele>98</ele>
        <time>2011-02-20T10:26:57Z</time>
      </trkpt>
      <trkpt lat="48.75238" lon="-3.50929">
        <ele>98</ele>
        <time>2011-02-20T10:26:58Z</time>
      </trkpt>
      <trkpt lat="48.75236" lon="-3.50906">
        <ele>98</ele>
        <time>2011-02-20T10:27:00Z</time>
      </trkpt>
      <trkpt lat="48.75212" lon="-3.50318">
        <ele>98</ele>
        <time>2011-02-20T10:27:50Z</time>
      </trkpt>
      <trkpt lat="48.75211" lon="-3.50292">
        <ele>98</ele>
        <time>2011-02-20T10:27:52Z</time>
      </trkpt>
      <trkpt lat="48.75209" lon="-3.50239">
        <ele>98</ele>
        <time>2011-02-20T10:27:56Z</time>
      </trkpt>
      <trkpt lat="48.75207" lon="-3.50199">
        <ele>98</ele>
        <time>2011-02-20T10:27:59Z</time>
      </trkpt>
      <trkpt lat="48.75201" lon="-3.50051">
        <ele>98</ele>
        <time>2011-02-20T10:28:10Z</time>
      </trkpt>
      <trkpt lat="48.75197" lon="-3.49943">
        <ele>98</ele>
        <time>2011-02-20T10:28:18Z</time>
      </trkpt>
      <trkpt lat="48.75196" lon="-3.49916">
        <ele>98</ele>
        <time>2011-02-20T10:28:20Z</time>
      </trkpt>
      <trkpt lat="48.75167" lon="-3.49592">
        <ele>98</ele>
        <time>2011-02-20T10:28:45Z</time>
      </trkpt>
      <trkpt lat="48.75163" lon="-3.49568">
        <ele>98</ele>
        <time>2011-02-20T10:28:47Z</time>
      </trkpt>
      <trkpt lat="48.75161" lon="-3.49556">
        <ele>98</ele>
        <time>2011-02-20T10:28:48Z</time>
      </trkpt>
      <trkpt lat="48.75158" lon="-3.49545">
        <ele>98</ele>
        <time>2011-02-20T10:28:49Z</time>
      </trkpt>
      <trkpt lat="48.75156" lon="-3.49534">
        <ele>98</ele>
        <time>2011-02-20T10:28:50Z</time>
      </trkpt>
      <trkpt lat="48.75154" lon="-3.49522">
        <ele>98</ele>
        <time>2011-02-20T10:28:51Z</time>
      </trkpt>
      <trkpt lat="48.75151" lon="-3.49511">
        <ele>98</ele>
        <time>2011-02-20T10:28:52Z</time>
      </trkpt>
      <trkpt lat="48.75149" lon="-3.495">
        <ele>98</ele>
        <time>2011-02-20T10:28:53Z</time>
      </trkpt>
      <trkpt lat="48.75147" lon="-3.49488">
        <ele>98</ele>
        <time>2011-02-20T10:28:54Z</time>
      </trkpt>
      <trkpt lat="48.75144" lon="-3.49477">
        <ele>98</ele>
        <time>2011-02-20T10:28:55Z</time>
      </trkpt>
      <trkpt lat="48.75141" lon="-3.49466">
        <ele>98</ele>
        <time>2011-02-20T10:28:56Z</time>
      </trkpt>
      <trkpt lat="48.75138" lon="-3.49455">
        <ele>98</ele>
        <time>2011-02-20T10:28:57Z</time>
      </trkpt>
      <trkpt lat="48.75136" lon="-3.49444">
        <ele>98</ele>
        <time>2011-02-20T10:28:58Z</time>
      </trkpt>
      <trkpt lat="48.75133" lon="-3.49433">
        <ele>98</ele>
        <time>2011-02-20T10:28:59Z</time>
      </trkpt>
      <trkpt lat="48.7513" lon="-3.49423">
        <ele>98</ele>
        <time>2011-02-20T10:29:00Z</time>
      </trkpt>
      <trkpt lat="48.75127" lon="-3.49412">
        <ele>98</ele>
        <time>2011-02-20T10:29:01Z</time>
      </trkpt>
      <trkpt lat="48.75124" lon="-3.49401">
        <ele>98</ele>
        <time>2011-02-20T10:29:02Z</time>
      </trkpt>
      <trkpt lat="48.75121" lon="-3.4939">
        <ele>98</ele>
        <time>2011-02-20T10:29:03Z</time>
      </trkpt>
      <trkpt lat="48.75117" lon="-3.49379">
        <ele>98</ele>
        <time>2011-02-20T10:29:04Z</time>
      </trkpt>
      <trkpt lat="48.75114" lon="-3.49369">
        <ele>98</ele>
        <time>2011-02-20T10:29:05Z</time>
      </trkpt>
      <trkpt lat="48.7511" lon="-3.49358">
        <ele>98</ele>
        <time>2011-02-20T10:29:06Z</time>
      </trkpt>
      <trkpt lat="48.75107" lon="-3.49347">
        <ele>98</ele>
        <time>2011-02-20T10:29:07Z</time>
      </trkpt>
      <trkpt lat="48.75103" lon="-3.49337">
        <ele>98</ele>
        <time>2011-02-20T10:29:08Z</time>
      </trkpt>
      <trkpt lat="48.751" lon="-3.49326">
        <ele>98</ele>
        <time>2011-02-20T10:29:09Z</time>
      </trkpt>
      <trkpt lat="48.75096" lon="-3.49316">
        <ele>98</ele>
        <time>2011-02-20T10:29:10Z</time>
      </trkpt>
      <trkpt lat="48.75092" lon="-3.49305">
        <ele>98</ele>
        <time>2011-02-20T10:29:11Z</time>
      </trkpt>
      <trkpt lat="48.75089" lon="-3.49294">
        <ele>98</ele>
        <time>2011-02-20T10:29:12Z</time>
      </trkpt>
      <trkpt lat="48.75085" lon="-3.49283">
        <ele>98</ele>
        <time>2011-02-20T10:29:13Z</time>
      </trkpt>
      <trkpt lat="48.75081" lon="-3.49272">
        <ele>98</ele>
        <time>2011-02-20T10:29:14Z</time>
      </trkpt>
      <trkpt lat="48.75078" lon="-3.49261">
        <ele>98</ele>
        <time>2011-02-20T10:29:15Z</time>
      </trkpt>
      <trkpt lat="48.75074" lon="-3.49251">
        <ele>98</ele>
        <time>2011-02-20T10:29:16Z</time>
      </trkpt>
      <trkpt lat="48.7507" lon="-3.4924">
        <ele>98</ele>
        <time>2011-02-20T10:29:17Z</time>
      </trkpt>
      <trkpt lat="48.75066" lon="-3.49229">
        <ele>98</ele>
        <time>2011-02-20T10:29:18Z</time>
      </trkpt>
      <trkpt lat="48.75062" lon="-3.49219">
        <ele>98</ele>
        <time>2011-02-20T10:29:19Z</time>
      </trkpt>
      <trkpt lat="48.75059" lon="-3.49208">
        <ele>98</ele>
        <time>2011-02-20T10:29:20Z</time>
      </trkpt>
      <trkpt lat="48.75055" lon="-3.49197">
        <ele>98</ele>
        <time>2011-02-20T10:29:21Z</time>
      </trkpt>
      <trkpt lat="48.75052" lon="-3.49187">
        <ele>98</ele>
        <time>2011-02-20T10:29:22Z</time>
      </trkpt>
      <trkpt lat="48.75048" lon="-3.49176">
        <ele>98</ele>
        <time>2011-02-20T10:29:23Z</time>
      </trkpt>
      <trkpt lat="48.75045" lon="-3.49166">
        <ele>98</ele>
        <time>2011-02-20T10:29:24Z</time>
      </trkpt>
      <trkpt lat="48.75041" lon="-3.49155">
        <ele>98</ele>
        <time>2011-02-20T10:29:25Z</time>
      </trkpt>
      <trkpt lat="48.75038" lon="-3.49144">
        <ele>98</ele>
        <time>2011-02-20T10:29:26Z</time>
      </trkpt>
      <trkpt lat="48.75034" lon="-3.49134">
        <ele>98</ele>
        <time>2011-02-20T10:29:27Z</time>
      </trkpt>
      <trkpt lat="48.75031" lon="-3.49124">
        <ele>98</ele>
        <time>2011-02-20T10:29:28Z</time>
      </trkpt>
      <trkpt lat="48.75027" lon="-3.49113">
        <ele>98</ele>
        <time>2011-02-20T10:29:29Z</time>
      </trkpt>
      <trkpt lat="48.75024" lon="-3.49103">
        <ele>98</ele>
        <time>2011-02-20T10:29:30Z</time>
      </trkpt>
      <trkpt lat="48.7502" lon="-3.49093">
        <ele>98</ele>
        <time>2011-02-20T10:29:31Z</time>
      </trkpt>
      <trkpt lat="48.75017" lon="-3.49082">
        <ele>98</ele>
        <time>2011-02-20T10:29:32Z</time>
      </trkpt>
      <trkpt lat="48.75013" lon="-3.49072">
        <ele>98</ele>
        <time>2011-02-20T10:29:33Z</time>
      </trkpt>
      <trkpt lat="48.7501" lon="-3.49061">
        <ele>98</ele>
        <time>2011-02-20T10:29:34Z</time>
      </trkpt>
      <trkpt lat="48.75006" lon="-3.4905">
        <ele>98</ele>
        <time>2011-02-20T10:29:35Z</time>
      </trkpt>
      <trkpt lat="48.75002" lon="-3.4904">
        <ele>98</ele>
        <time>2011-02-20T10:29:36Z</time>
      </trkpt>
      <trkpt lat="48.74998" lon="-3.49029">
        <ele>98</ele>
        <time>2011-02-20T10:29:37Z</time>
      </trkpt>
      <trkpt lat="48.74994" lon="-3.49018">
        <ele>98</ele>
        <time>2011-02-20T10:29:38Z</time>
      </trkpt>
      <trkpt lat="48.7499" lon="-3.49007">
        <ele>98</ele>
        <time>2011-02-20T10:29:39Z</time>
      </trkpt>
      <trkpt lat="48.74987" lon="-3.48996">
        <ele>98</ele>
        <time>2011-02-20T10:29:40Z</time>
      </trkpt>
      <trkpt lat="48.74983" lon="-3.48985">
        <ele>98</ele>
        <time>2011-02-20T10:29:41Z</time>
      </trkpt>
      <trkpt lat="48.74979" lon="-3.48974">
        <ele>98</ele>
        <time>2011-02-20T10:29:42Z</time>
      </trkpt>
      <trkpt lat="48.74975" lon="-3.48963">
        <ele>98</ele>
        <time>2011-02-20T10:29:43Z</time>
      </trkpt>
      <trkpt lat="48.74971" lon="-3.48952">
        <ele>98</ele>
        <time>2011-02-20T10:29:44Z</time>
      </trkpt>
      <trkpt lat="48.74968" lon="-3.48941">
        <ele>98</ele>
        <time>2011-02-20T10:29:45Z</time>
      </trkpt>
      <trkpt lat="48.74964" lon="-3.48929">
        <ele>98</ele>
        <time>2011-02-20T10:29:46Z</time>
      </trkpt>
      <trkpt lat="48.7496" lon="-3.48918">
        <ele>98</ele>
        <time>2011-02-20T10:29:47Z</time>
      </trkpt>
      <trkpt lat="48.74957" lon="-3.48907">
        <ele>98</ele>
        <time>2011-02-20T10:29:48Z</time>
      </trkpt>
      <trkpt lat="48.74953" lon="-3.48896">
        <ele>98</ele>
        <time>2011-02-20T10:29:49Z</time>
      </trkpt>
      <trkpt lat="48.74949" lon="-3.48885">
        <ele>98</ele>
        <time>2011-02-20T10:29:50Z</time>
      </trkpt>
      <trkpt lat="48.74945" lon="-3.48874">
        <ele>98</ele>
        <time>2011-02-20T10:29:51Z</time>
      </trkpt>
      <trkpt lat="48.74942" lon="-3.48863">
        <ele>98</ele>
        <time>2011-02-20T10:29:52Z</time>
      </trkpt>
      <trkpt lat="48.74938" lon="-3.48851">
        <ele>98</ele>
        <time>2011-02-20T10:29:53Z</time>
      </trkpt>
      <trkpt lat="48.74934" lon="-3.4884">
        <ele>98</ele>
        <time>2011-02-20T10:29:54Z</time>
      </trkpt>
      <trkpt lat="48.7493" lon="-3.48829">
        <ele>98</ele>
        <time>2011-02-20T10:29:55Z</time>
      </trkpt>
      <trkpt lat="48.74926" lon="-3.48818">
        <ele>98</ele>
        <time>2011-02-20T10:29:56Z</time>
      </trkpt>
      <trkpt lat="48.74923" lon="-3.48807">
        <ele>98</ele>
        <time>2011-02-20T10:29:57Z</time>
      </trkpt>
      <trkpt lat="48.74919" lon="-3.48797">
        <ele>98</ele>
        <time>2011-02-20T10:29:58Z</time>
      </trkpt>
      <trkpt lat="48.74915" lon="-3.48786">
        <ele>98</ele>
        <time>2011-02-20T10:29:59Z</time>
      </trkpt>
      <trkpt lat="48.74912" lon="-3.48775">
        <ele>98</ele>
        <time>2011-02-20T10:30:00Z</time>
      </trkpt>
      <trkpt lat="48.74908" lon="-3.48764">
        <ele>97</ele>
        <time>2011-02-20T10:30:01Z</time>
      </trkpt>
      <trkpt lat="48.74904" lon="-3.48752">
        <ele>97</ele>
        <time>2011-02-20T10:30:02Z</time>
      </trkpt>
      <trkpt lat="48.749" lon="-3.48741">
        <ele>97</ele>
        <time>2011-02-20T10:30:03Z</time>
      </trkpt>
      <trkpt lat="48.74897" lon="-3.4873">
        <ele>97</ele>
        <time>2011-02-20T10:30:04Z</time>
      </trkpt>
      <trkpt lat="48.74892" lon="-3.48719">
        <ele>96</ele>
        <time>2011-02-20T10:30:05Z</time>
      </trkpt>
      <trkpt lat="48.74888" lon="-3.48708">
        <ele>96</ele>
        <time>2011-02-20T10:30:06Z</time>
      </trkpt>
      <trkpt lat="48.74884" lon="-3.48697">
        <ele>96</ele>
        <time>2011-02-20T10:30:07Z</time>
      </trkpt>
      <trkpt lat="48.7488" lon="-3.48685">
        <ele>95</ele>
        <time>2011-02-20T10:30:08Z</time>
      </trkpt>
      <trkpt lat="48.74876" lon="-3.48673">
        <ele>95</ele>
        <time>2011-02-20T10:30:09Z</time>
      </trkpt>
      <trkpt lat="48.74872" lon="-3.48661">
        <ele>95</ele>
        <time>2011-02-20T10:30:10Z</time>
      </trkpt>
      <trkpt lat="48.74868" lon="-3.48649">
        <ele>94</ele>
        <time>2011-02-20T10:30:11Z</time>
      </trkpt>
      <trkpt lat="48.74864" lon="-3.48636">
        <ele>94</ele>
        <time>2011-02-20T10:30:12Z</time>
      </trkpt>
      <trkpt lat="48.74861" lon="-3.48623">
        <ele>94</ele>
        <time>2011-02-20T10:30:13Z</time>
      </trkpt>
      <trkpt lat="48.74857" lon="-3.4861">
        <ele>93</ele>
        <time>2011-02-20T10:30:14Z</time>
      </trkpt>
      <trkpt lat="48.74854" lon="-3.48597">
        <ele>93</ele>
        <time>2011-02-20T10:30:15Z</time>
      </trkpt>
      <trkpt lat="48.7485" lon="-3.48583">
        <ele>92</ele>
        <time>2011-02-20T10:30:16Z</time>
      </trkpt>
      <trkpt lat="48.74846" lon="-3.48569">
        <ele>92</ele>
        <time>2011-02-20T10:30:17Z</time>
      </trkpt>
      <trkpt lat="48.74842" lon="-3.48554">
        <ele>92</ele>
        <time>2011-02-20T10:30:18Z</time>
      </trkpt>
      <trkpt lat="48.74839" lon="-3.48539">
        <ele>91</ele>
        <time>2011-02-20T10:30:19Z</time>
      </trkpt>
      <trkpt lat="48.74835" lon="-3.48524">
        <ele>91</ele>
        <time>2011-02-20T10:30:20Z</time>
      </trkpt>
      <trkpt lat="48.74831" lon="-3.48509">
        <ele>90</ele>
        <time>2011-02-20T10:30:21Z</time>
      </trkpt>
      <trkpt lat="48.74827" lon="-3.48494">
        <ele>90</ele>
        <time>2011-02-20T10:30:22Z</time>
      </trkpt>
      <trkpt lat="48.74823" lon="-3.48479">
        <ele>89</ele>
        <time>2011-02-20T10:30:23Z</time>
      </trkpt>
      <trkpt lat="48.7482" lon="-3.48463">
        <ele>89</ele>
        <time>2011-02-20T10:30:24Z</time>
      </trkpt>
      <trkpt lat="48.74816" lon="-3.48448">
        <ele>88</ele>
        <time>2011-02-20T10:30:25Z</time>
      </trkpt>
      <trkpt lat="48.74812" lon="-3.48433">
        <ele>88</ele>
        <time>2011-02-20T10:30:26Z</time>
      </trkpt>
      <trkpt lat="48.74809" lon="-3.48419">
        <ele>87</ele>
        <time>2011-02-20T10:30:27Z</time>
      </trkpt>
      <trkpt lat="48.74805" lon="-3.48404">
        <ele>87</ele>
        <time>2011-02-20T10:30:28Z</time>
      </trkpt>
      <trkpt lat="48.74801" lon="-3.4839">
        <ele>86</ele>
        <time>2011-02-20T10:30:29Z</time>
      </trkpt>
      <trkpt lat="48.74797" lon="-3.48376">
        <ele>86</ele>
        <time>2011-02-20T10:30:30Z</time>
      </trkpt>
      <trkpt lat="48.74792" lon="-3.48361">
        <ele>85</ele>
        <time>2011-02-20T10:30:31Z</time>
      </trkpt>
      <trkpt lat="48.74787" lon="-3.48347">
        <ele>85</ele>
        <time>2011-02-20T10:30:32Z</time>
      </trkpt>
      <trkpt lat="48.74782" lon="-3.48334">
        <ele>85</ele>
        <time>2011-02-20T10:30:33Z</time>
      </trkpt>
      <trkpt lat="48.74776" lon="-3.4832">
        <ele>84</ele>
        <time>2011-02-20T10:30:34Z</time>
      </trkpt>
      <trkpt lat="48.74771" lon="-3.48306">
        <ele>84</ele>
        <time>2011-02-20T10:30:35Z</time>
      </trkpt>
      <trkpt lat="48.74766" lon="-3.48292">
        <ele>83</ele>
        <time>2011-02-20T10:30:36Z</time>
      </trkpt>
      <trkpt lat="48.7476" lon="-3.48279">
        <ele>83</ele>
        <time>2011-02-20T10:30:37Z</time>
      </trkpt>
      <trkpt lat="48.74754" lon="-3.48265">
        <ele>82</ele>
        <time>2011-02-20T10:30:38Z</time>
      </trkpt>
      <trkpt lat="48.74749" lon="-3.48251">
        <ele>82</ele>
        <time>2011-02-20T10:30:39Z</time>
      </trkpt>
      <trkpt lat="48.74744" lon="-3.48237">
        <ele>82</ele>
        <time>2011-02-20T10:30:40Z</time>
      </trkpt>
      <trkpt lat="48.74738" lon="-3.48223">
        <ele>81</ele>
        <time>2011-02-20T10:30:41Z</time>
      </trkpt>
      <trkpt lat="48.74733" lon="-3.48209">
        <ele>81</ele>
        <time>2011-02-20T10:30:42Z</time>
      </trkpt>
      <trkpt lat="48.74728" lon="-3.48195">
        <ele>81</ele>
        <time>2011-02-20T10:30:43Z</time>
      </trkpt>
      <trkpt lat="48.74723" lon="-3.48182">
        <ele>80</ele>
        <time>2011-02-20T10:30:44Z</time>
      </trkpt>
      <trkpt lat="48.74718" lon="-3.4817">
        <ele>80</ele>
        <time>2011-02-20T10:30:45Z</time>
      </trkpt>
      <trkpt lat="48.74713" lon="-3.48158">
        <ele>80</ele>
        <time>2011-02-20T10:30:46Z</time>
      </trkpt>
      <trkpt lat="48.74709" lon="-3.48147">
        <ele>80</ele>
        <time>2011-02-20T10:30:47Z</time>
      </trkpt>
      <trkpt lat="48.74704" lon="-3.48135">
        <ele>80</ele>
        <time>2011-02-20T10:30:48Z</time>
      </trkpt>
      <trkpt lat="48.74699" lon="-3.48123">
        <ele>79</ele>
        <time>2011-02-20T10:30:49Z</time>
      </trkpt>
      <trkpt lat="48.74695" lon="-3.48111">
        <ele>79</ele>
        <time>2011-02-20T10:30:50Z</time>
      </trkpt>
      <trkpt lat="48.7469" lon="-3.48099">
        <ele>79</ele>
        <time>2011-02-20T10:30:51Z</time>
      </trkpt>
      <trkpt lat="48.74686" lon="-3.48087">
        <ele>79</ele>
        <time>2011-02-20T10:30:52Z</time>
      </trkpt>
      <trkpt lat="48.74681" lon="-3.48075">
        <ele>78</ele>
        <time>2011-02-20T10:30:53Z</time>
      </trkpt>
      <trkpt lat="48.74676" lon="-3.48062">
        <ele>78</ele>
        <time>2011-02-20T10:30:54Z</time>
      </trkpt>
      <trkpt lat="48.74671" lon="-3.4805">
        <ele>78</ele>
        <time>2011-02-20T10:30:55Z</time>
      </trkpt>
      <trkpt lat="48.74666" lon="-3.48037">
        <ele>78</ele>
        <time>2011-02-20T10:30:56Z</time>
      </trkpt>
      <trkpt lat="48.74662" lon="-3.48024">
        <ele>78</ele>
        <time>2011-02-20T10:30:57Z</time>
      </trkpt>
      <trkpt lat="48.74657" lon="-3.48011">
        <ele>78</ele>
        <time>2011-02-20T10:30:58Z</time>
      </trkpt>
      <trkpt lat="48.74652" lon="-3.47999">
        <ele>77</ele>
        <time>2011-02-20T10:30:59Z</time>
      </trkpt>
      <trkpt lat="48.74647" lon="-3.47986">
        <ele>77</ele>
        <time>2011-02-20T10:31:00Z</time>
      </trkpt>
      <trkpt lat="48.74642" lon="-3.47972">
        <ele>77</ele>
        <time>2011-02-20T10:31:01Z</time>
      </trkpt>
      <trkpt lat="48.74636" lon="-3.47958">
        <ele>77</ele>
        <time>2011-02-20T10:31:02Z</time>
      </trkpt>
      <trkpt lat="48.74631" lon="-3.47944">
        <ele>76</ele>
        <time>2011-02-20T10:31:03Z</time>
      </trkpt>
      <trkpt lat="48.74625" lon="-3.4793">
        <ele>76</ele>
        <time>2011-02-20T10:31:04Z</time>
      </trkpt>
      <trkpt lat="48.7462" lon="-3.47915">
        <ele>76</ele>
        <time>2011-02-20T10:31:05Z</time>
      </trkpt>
      <trkpt lat="48.74614" lon="-3.479">
        <ele>75</ele>
        <time>2011-02-20T10:31:06Z</time>
      </trkpt>
      <trkpt lat="48.74609" lon="-3.47885">
        <ele>75</ele>
        <time>2011-02-20T10:31:07Z</time>
      </trkpt>
      <trkpt lat="48.74603" lon="-3.47869">
        <ele>74</ele>
        <time>2011-02-20T10:31:08Z</time>
      </trkpt>
      <trkpt lat="48.74598" lon="-3.47854">
        <ele>74</ele>
        <time>2011-02-20T10:31:09Z</time>
      </trkpt>
      <trkpt lat="48.74593" lon="-3.47838">
        <ele>73</ele>
        <time>2011-02-20T10:31:10Z</time>
      </trkpt>
      <trkpt lat="48.74588" lon="-3.47822">
        <ele>72</ele>
        <time>2011-02-20T10:31:11Z</time>
      </trkpt>
      <trkpt lat="48.74582" lon="-3.47807">
        <ele>72</ele>
        <time>2011-02-20T10:31:12Z</time>
      </trkpt>
      <trkpt lat="48.74576" lon="-3.47793">
        <ele>72</ele>
        <time>2011-02-20T10:31:13Z</time>
      </trkpt>
      <trkpt lat="48.7457" lon="-3.47779">
        <ele>72</ele>
        <time>2011-02-20T10:31:14Z</time>
      </trkpt>
      <trkpt lat="48.74564" lon="-3.47766">
        <ele>72</ele>
        <time>2011-02-20T10:31:15Z</time>
      </trkpt>
      <trkpt lat="48.74558" lon="-3.47754">
        <ele>72</ele>
        <time>2011-02-20T10:31:16Z</time>
      </trkpt>
      <trkpt lat="48.74552" lon="-3.47741">
        <ele>72</ele>
        <time>2011-02-20T10:31:17Z</time>
      </trkpt>
      <trkpt lat="48.74546" lon="-3.47729">
        <ele>72</ele>
        <time>2011-02-20T10:31:18Z</time>
      </trkpt>
      <trkpt lat="48.74539" lon="-3.47718">
        <ele>72</ele>
        <time>2011-02-20T10:31:19Z</time>
      </trkpt>
      <trkpt lat="48.74533" lon="-3.47707">
        <ele>72</ele>
        <time>2011-02-20T10:31:20Z</time>
      </trkpt>
      <trkpt lat="48.74526" lon="-3.47698">
        <ele>72</ele>
        <time>2011-02-20T10:31:21Z</time>
      </trkpt>
      <trkpt lat="48.7452" lon="-3.47689">
        <ele>72</ele>
        <time>2011-02-20T10:31:22Z</time>
      </trkpt>
      <trkpt lat="48.74514" lon="-3.4768">
        <ele>72</ele>
        <time>2011-02-20T10:31:23Z</time>
      </trkpt>
      <trkpt lat="48.74507" lon="-3.47673">
        <ele>72</ele>
        <time>2011-02-20T10:31:24Z</time>
      </trkpt>
      <trkpt lat="48.745" lon="-3.47669">
        <ele>72</ele>
        <time>2011-02-20T10:31:25Z</time>
      </trkpt>
      <trkpt lat="48.74493" lon="-3.47666">
        <ele>72</ele>
        <time>2011-02-20T10:31:26Z</time>
      </trkpt>
      <trkpt lat="48.74485" lon="-3.47664">
        <ele>72</ele>
        <time>2011-02-20T10:31:27Z</time>
      </trkpt>
      <trkpt lat="48.74478" lon="-3.4766">
        <ele>72</ele>
        <time>2011-02-20T10:31:28Z</time>
      </trkpt>
      <trkpt lat="48.74471" lon="-3.47653">
        <ele>72</ele>
        <time>2011-02-20T10:31:29Z</time>
      </trkpt>
      <trkpt lat="48.74466" lon="-3.47644">
        <ele>72</ele>
        <time>2011-02-20T10:31:30Z</time>
      </trkpt>
      <trkpt lat="48.74462" lon="-3.47634">
        <ele>72</ele>
        <time>2011-02-20T10:31:31Z</time>
      </trkpt>
      <trkpt lat="48.74458" lon="-3.47623">
        <ele>72</ele>
        <time>2011-02-20T10:31:32Z</time>
      </trkpt>
      <trkpt lat="48.74453" lon="-3.47611">
        <ele>72</ele>
        <time>2011-02-20T10:31:33Z</time>
      </trkpt>
      <trkpt lat="48.74449" lon="-3.476">
        <ele>72</ele>
        <time>2011-02-20T10:31:34Z</time>
      </trkpt>
      <trkpt lat="48.74444" lon="-3.47588">
        <ele>72</ele>
        <time>2011-02-20T10:31:35Z</time>
      </trkpt>
      <trkpt lat="48.74439" lon="-3.47578">
        <ele>72</ele>
        <time>2011-02-20T10:31:36Z</time>
      </trkpt>
      <trkpt lat="48.74434" lon="-3.47568">
        <ele>72</ele>
        <time>2011-02-20T10:31:37Z</time>
      </trkpt>
      <trkpt lat="48.74429" lon="-3.47559">
        <ele>72</ele>
        <time>2011-02-20T10:31:38Z</time>
      </trkpt>
      <trkpt lat="48.74423" lon="-3.4755">
        <ele>72</ele>
        <time>2011-02-20T10:31:39Z</time>
      </trkpt>
      <trkpt lat="48.74418" lon="-3.47541">
        <ele>72</ele>
        <time>2011-02-20T10:31:40Z</time>
      </trkpt>
      <trkpt lat="48.74414" lon="-3.47533">
        <ele>72</ele>
        <time>2011-02-20T10:31:41Z</time>
      </trkpt>
      <trkpt lat="48.74409" lon="-3.47524">
        <ele>72</ele>
        <time>2011-02-20T10:31:42Z</time>
      </trkpt>
      <trkpt lat="48.74405" lon="-3.47516">
        <ele>72</ele>
        <time>2011-02-20T10:31:43Z</time>
      </trkpt>
      <trkpt lat="48.744" lon="-3.47509">
        <ele>72</ele>
        <time>2011-02-20T10:31:44Z</time>
      </trkpt>
      <trkpt lat="48.74396" lon="-3.47501">
        <ele>72</ele>
        <time>2011-02-20T10:31:45Z</time>
      </trkpt>
      <trkpt lat="48.74391" lon="-3.47494">
        <ele>72</ele>
        <time>2011-02-20T10:31:46Z</time>
      </trkpt>
      <trkpt lat="48.74387" lon="-3.47486">
        <ele>72</ele>
        <time>2011-02-20T10:31:47Z</time>
      </trkpt>
      <trkpt lat="48.74382" lon="-3.47478">
        <ele>72</ele>
        <time>2011-02-20T10:31:48Z</time>
      </trkpt>
      <trkpt lat="48.74377" lon="-3.4747">
        <ele>72</ele>
        <time>2011-02-20T10:31:49Z</time>
      </trkpt>
      <trkpt lat="48.74373" lon="-3.47462">
        <ele>72</ele>
        <time>2011-02-20T10:31:50Z</time>
      </trkpt>
      <trkpt lat="48.74368" lon="-3.47453">
        <ele>72</ele>
        <time>2011-02-20T10:31:51Z</time>
      </trkpt>
      <trkpt lat="48.74363" lon="-3.47445">
        <ele>72</ele>
        <time>2011-02-20T10:31:52Z</time>
      </trkpt>
      <trkpt lat="48.74358" lon="-3.47437">
        <ele>72</ele>
        <time>2011-02-20T10:31:53Z</time>
      </trkpt>
      <trkpt lat="48.74353" lon="-3.47428">
        <ele>72</ele>
        <time>2011-02-20T10:31:54Z</time>
      </trkpt>
      <trkpt lat="48.74349" lon="-3.4742">
        <ele>72</ele>
        <time>2011-02-20T10:31:55Z</time>
      </trkpt>
      <trkpt lat="48.74344" lon="-3.47411">
        <ele>72</ele>
        <time>2011-02-20T10:31:56Z</time>
      </trkpt>
      <trkpt lat="48.74339" lon="-3.47403">
        <ele>72</ele>
        <time>2011-02-20T10:31:57Z</time>
      </trkpt>
      <trkpt lat="48.74334" lon="-3.47394">
        <ele>72</ele>
        <time>2011-02-20T10:31:58Z</time>
      </trkpt>
      <trkpt lat="48.7433" lon="-3.47386">
        <ele>72</ele>
        <time>2011-02-20T10:31:59Z</time>
      </trkpt>
      <trkpt lat="48.74325" lon="-3.47378">
        <ele>72</ele>
        <time>2011-02-20T10:32:00Z</time>
      </trkpt>
      <trkpt lat="48.7432" lon="-3.47371">
        <ele>72</ele>
        <time>2011-02-20T10:32:01Z</time>
      </trkpt>
      <trkpt lat="48.74316" lon="-3.47364">
        <ele>72</ele>
        <time>2011-02-20T10:32:02Z</time>
      </trkpt>
      <trkpt lat="48.74311" lon="-3.47357">
        <ele>72</ele>
        <time>2011-02-20T10:32:03Z</time>
      </trkpt>
      <trkpt lat="48.74306" lon="-3.47352">
        <ele>72</ele>
        <time>2011-02-20T10:32:04Z</time>
      </trkpt>
      <trkpt lat="48.74301" lon="-3.47346">
        <ele>72</ele>
        <time>2011-02-20T10:32:05Z</time>
      </trkpt>
      <trkpt lat="48.74297" lon="-3.47342">
        <ele>72</ele>
        <time>2011-02-20T10:32:06Z</time>
      </trkpt>
      <trkpt lat="48.74291" lon="-3.47338">
        <ele>72</ele>
        <time>2011-02-20T10:32:07Z</time>
      </trkpt>
      <trkpt lat="48.74286" lon="-3.47336">
        <ele>72</ele>
        <time>2011-02-20T10:32:08Z</time>
      </trkpt>
      <trkpt lat="48.74279" lon="-3.47336">
        <ele>71</ele>
        <time>2011-02-20T10:32:09Z</time>
      </trkpt>
      <trkpt lat="48.74263" lon="-3.47316">
        <ele>71</ele>
        <time>2011-02-20T10:32:13Z</time>
      </trkpt>
      <trkpt lat="48.74265" lon="-3.47308">
        <ele>71</ele>
        <time>2011-02-20T10:32:14Z</time>
      </trkpt>
      <trkpt lat="48.74268" lon="-3.47302">
        <ele>71</ele>
        <time>2011-02-20T10:32:15Z</time>
      </trkpt>
      <trkpt lat="48.74274" lon="-3.47298">
        <ele>70</ele>
        <time>2011-02-20T10:32:16Z</time>
      </trkpt>
      <trkpt lat="48.74279" lon="-3.47298">
        <ele>70</ele>
        <time>2011-02-20T10:32:17Z</time>
      </trkpt>
      <trkpt lat="48.74286" lon="-3.47299">
        <ele>70</ele>
        <time>2011-02-20T10:32:18Z</time>
      </trkpt>
      <trkpt lat="48.74292" lon="-3.47298">
        <ele>70</ele>
        <time>2011-02-20T10:32:19Z</time>
      </trkpt>
      <trkpt lat="48.74298" lon="-3.47294">
        <ele>70</ele>
        <time>2011-02-20T10:32:20Z</time>
      </trkpt>
      <trkpt lat="48.74304" lon="-3.47288">
        <ele>70</ele>
        <time>2011-02-20T10:32:21Z</time>
      </trkpt>
      <trkpt lat="48.7431" lon="-3.47283">
        <ele>70</ele>
        <time>2011-02-20T10:32:22Z</time>
      </trkpt>
      <trkpt lat="48.74316" lon="-3.47276">
        <ele>70</ele>
        <time>2011-02-20T10:32:23Z</time>
      </trkpt>
      <trkpt lat="48.74322" lon="-3.4727">
        <ele>70</ele>
        <time>2011-02-20T10:32:24Z</time>
      </trkpt>
      <trkpt lat="48.74329" lon="-3.47264">
        <ele>70</ele>
        <time>2011-02-20T10:32:25Z</time>
      </trkpt>
      <trkpt lat="48.74335" lon="-3.47258">
        <ele>70</ele>
        <time>2011-02-20T10:32:26Z</time>
      </trkpt>
      <trkpt lat="48.74342" lon="-3.47252">
        <ele>70</ele>
        <time>2011-02-20T10:32:27Z</time>
      </trkpt>
      <trkpt lat="48.74348" lon="-3.47246">
        <ele>69</ele>
        <time>2011-02-20T10:32:28Z</time>
      </trkpt>
      <trkpt lat="48.74355" lon="-3.4724">
        <ele>69</ele>
        <time>2011-02-20T10:32:29Z</time>
      </trkpt>
      <trkpt lat="48.74361" lon="-3.47234">
        <ele>69</ele>
        <time>2011-02-20T10:32:30Z</time>
      </trkpt>
      <trkpt lat="48.74368" lon="-3.47227">
        <ele>69</ele>
        <time>2011-02-20T10:32:31Z</time>
      </trkpt>
      <trkpt lat="48.74374" lon="-3.4722">
        <ele>69</ele>
        <time>2011-02-20T10:32:32Z</time>
      </trkpt>
      <trkpt lat="48.74381" lon="-3.47215">
        <ele>68</ele>
        <time>2011-02-20T10:32:33Z</time>
      </trkpt>
      <trkpt lat="48.74387" lon="-3.47209">
        <ele>68</ele>
        <time>2011-02-20T10:32:34Z</time>
      </trkpt>
      <trkpt lat="48.74393" lon="-3.47203">
        <ele>68</ele>
        <time>2011-02-20T10:32:35Z</time>
      </trkpt>
      <trkpt lat="48.74399" lon="-3.47198">
        <ele>68</ele>
        <time>2011-02-20T10:32:36Z</time>
      </trkpt>
      <trkpt lat="48.74405" lon="-3.47192">
        <ele>68</ele>
        <time>2011-02-20T10:32:37Z</time>
      </trkpt>
      <trkpt lat="48.74411" lon="-3.47186">
        <ele>68</ele>
        <time>2011-02-20T10:32:38Z</time>
      </trkpt>
      <trkpt lat="48.74417" lon="-3.4718">
        <ele>68</ele>
        <time>2011-02-20T10:32:39Z</time>
      </trkpt>
      <trkpt lat="48.74424" lon="-3.47174">
        <ele>68</ele>
        <time>2011-02-20T10:32:40Z</time>
      </trkpt>
      <trkpt lat="48.7443" lon="-3.47168">
        <ele>68</ele>
        <time>2011-02-20T10:32:41Z</time>
      </trkpt>
      <trkpt lat="48.74435" lon="-3.47163">
        <ele>68</ele>
        <time>2011-02-20T10:32:42Z</time>
      </trkpt>
      <trkpt lat="48.74441" lon="-3.47158">
        <ele>68</ele>
        <time>2011-02-20T10:32:43Z</time>
      </trkpt>
      <trkpt lat="48.74445" lon="-3.47154">
        <ele>68</ele>
        <time>2011-02-20T10:32:44Z</time>
      </trkpt>
      <trkpt lat="48.7445" lon="-3.4715">
        <ele>68</ele>
        <time>2011-02-20T10:32:45Z</time>
      </trkpt>
      <trkpt lat="48.74454" lon="-3.47146">
        <ele>68</ele>
        <time>2011-02-20T10:32:46Z</time>
      </trkpt>
      <trkpt lat="48.74458" lon="-3.47142">
        <ele>68</ele>
        <time>2011-02-20T10:32:47Z</time>
      </trkpt>
      <trkpt lat="48.74463" lon="-3.47137">
        <ele>68</ele>
        <time>2011-02-20T10:32:48Z</time>
      </trkpt>
      <trkpt lat="48.74468" lon="-3.47132">
        <ele>68</ele>
        <time>2011-02-20T10:32:49Z</time>
      </trkpt>
      <trkpt lat="48.74473" lon="-3.47127">
        <ele>68</ele>
        <time>2011-02-20T10:32:50Z</time>
      </trkpt>
      <trkpt lat="48.74478" lon="-3.47121">
        <ele>67</ele>
        <time>2011-02-20T10:32:51Z</time>
      </trkpt>
      <trkpt lat="48.74483" lon="-3.47116">
        <ele>67</ele>
        <time>2011-02-20T10:32:52Z</time>
      </trkpt>
      <trkpt lat="48.74489" lon="-3.47111">
        <ele>67</ele>
        <time>2011-02-20T10:32:53Z</time>
      </trkpt>
      <trkpt lat="48.74494" lon="-3.47105">
        <ele>67</ele>
        <time>2011-02-20T10:32:54Z</time>
      </trkpt>
      <trkpt lat="48.745" lon="-3.471">
        <ele>67</ele>
        <time>2011-02-20T10:32:55Z</time>
      </trkpt>
      <trkpt lat="48.74505" lon="-3.47094">
        <ele>67</ele>
        <time>2011-02-20T10:32:56Z</time>
      </trkpt>
      <trkpt lat="48.74511" lon="-3.47089">
        <ele>67</ele>
        <time>2011-02-20T10:32:57Z</time>
      </trkpt>
      <trkpt lat="48.74517" lon="-3.47084">
        <ele>67</ele>
        <time>2011-02-20T10:32:58Z</time>
      </trkpt>
      <trkpt lat="48.74522" lon="-3.47079">
        <ele>67</ele>
        <time>2011-02-20T10:32:59Z</time>
      </trkpt>
      <trkpt lat="48.74527" lon="-3.47073">
        <ele>67</ele>
        <time>2011-02-20T10:33:00Z</time>
      </trkpt>
      <trkpt lat="48.74533" lon="-3.47068">
        <ele>67</ele>
        <time>2011-02-20T10:33:01Z</time>
      </trkpt>
      <trkpt lat="48.74538" lon="-3.47063">
        <ele>67</ele>
        <time>2011-02-20T10:33:02Z</time>
      </trkpt>
      <trkpt lat="48.74543" lon="-3.47057">
        <ele>66</ele>
        <time>2011-02-20T10:33:03Z</time>
      </trkpt>
      <trkpt lat="48.74548" lon="-3.47051">
        <ele>66</ele>
        <time>2011-02-20T10:33:04Z</time>
      </trkpt>
      <trkpt lat="48.74553" lon="-3.47044">
        <ele>66</ele>
        <time>2011-02-20T10:33:05Z</time>
      </trkpt>
      <trkpt lat="48.74557" lon="-3.47038">
        <ele>66</ele>
        <time>2011-02-20T10:33:06Z</time>
      </trkpt>
      <trkpt lat="48.74562" lon="-3.47031">
        <ele>66</ele>
        <time>2011-02-20T10:33:07Z</time>
      </trkpt>
      <trkpt lat="48.74566" lon="-3.47024">
        <ele>65</ele>
        <time>2011-02-20T10:33:08Z</time>
      </trkpt>
      <trkpt lat="48.7457" lon="-3.47017">
        <ele>65</ele>
        <time>2011-02-20T10:33:09Z</time>
      </trkpt>
      <trkpt lat="48.74574" lon="-3.4701">
        <ele>65</ele>
        <time>2011-02-20T10:33:10Z</time>
      </trkpt>
      <trkpt lat="48.7458" lon="-3.47002">
        <ele>65</ele>
        <time>2011-02-20T10:33:11Z</time>
      </trkpt>
      <trkpt lat="48.74585" lon="-3.46995">
        <ele>65</ele>
        <time>2011-02-20T10:33:12Z</time>
      </trkpt>
      <trkpt lat="48.74589" lon="-3.46987">
        <ele>65</ele>
        <time>2011-02-20T10:33:13Z</time>
      </trkpt>
      <trkpt lat="48.74593" lon="-3.46979">
        <ele>65</ele>
        <time>2011-02-20T10:33:14Z</time>
      </trkpt>
      <trkpt lat="48.74596" lon="-3.46971">
        <ele>65</ele>
        <time>2011-02-20T10:33:15Z</time>
      </trkpt>
      <trkpt lat="48.746" lon="-3.46961">
        <ele>65</ele>
        <time>2011-02-20T10:33:16Z</time>
      </trkpt>
      <trkpt lat="48.74603" lon="-3.46952">
        <ele>65</ele>
        <time>2011-02-20T10:33:17Z</time>
      </trkpt>
      <trkpt lat="48.74606" lon="-3.46942">
        <ele>65</ele>
        <time>2011-02-20T10:33:18Z</time>
      </trkpt>
      <trkpt lat="48.74609" lon="-3.46933">
        <ele>65</ele>
        <time>2011-02-20T10:33:19Z</time>
      </trkpt>
      <trkpt lat="48.74612" lon="-3.46923">
        <ele>65</ele>
        <time>2011-02-20T10:33:20Z</time>
      </trkpt>
      <trkpt lat="48.74614" lon="-3.46913">
        <ele>65</ele>
        <time>2011-02-20T10:33:21Z</time>
      </trkpt>
      <trkpt lat="48.74626" lon="-3.4685">
        <ele>65</ele>
        <time>2011-02-20T10:33:27Z</time>
      </trkpt>
      <trkpt lat="48.74628" lon="-3.46838">
        <ele>65</ele>
        <time>2011-02-20T10:33:28Z</time>
      </trkpt>
      <trkpt lat="48.74638" lon="-3.46657">
        <ele>69</ele>
        <time>2011-02-20T10:33:44Z</time>
      </trkpt>
      <trkpt lat="48.74639" lon="-3.46646">
        <ele>69</ele>
        <time>2011-02-20T10:33:45Z</time>
      </trkpt>
      <trkpt lat="48.74646" lon="-3.46582">
        <ele>69</ele>
        <time>2011-02-20T10:33:51Z</time>
      </trkpt>
      <trkpt lat="48.74647" lon="-3.4657">
        <ele>69</ele>
        <time>2011-02-20T10:33:52Z</time>
      </trkpt>
      <trkpt lat="48.74649" lon="-3.46547">
        <ele>69</ele>
        <time>2011-02-20T10:33:54Z</time>
      </trkpt>
      <trkpt lat="48.74657" lon="-3.46445">
        <ele>69</ele>
        <time>2011-02-20T10:34:03Z</time>
      </trkpt>
      <trkpt lat="48.74658" lon="-3.46435">
        <ele>69</ele>
        <time>2011-02-20T10:34:04Z</time>
      </trkpt>
      <trkpt lat="48.74661" lon="-3.46394">
        <ele>69</ele>
        <time>2011-02-20T10:34:08Z</time>
      </trkpt>
      <trkpt lat="48.74674" lon="-3.46211">
        <ele>69</ele>
        <time>2011-02-20T10:34:27Z</time>
      </trkpt>
      <trkpt lat="48.74663" lon="-3.46154">
        <ele>69</ele>
        <time>2011-02-20T10:34:33Z</time>
      </trkpt>
      <trkpt lat="48.74665" lon="-3.46143">
        <ele>69</ele>
        <time>2011-02-20T10:34:34Z</time>
      </trkpt>
      <trkpt lat="48.74668" lon="-3.46133">
        <ele>69</ele>
        <time>2011-02-20T10:34:35Z</time>
      </trkpt>
      <trkpt lat="48.74672" lon="-3.46123">
        <ele>69</ele>
        <time>2011-02-20T10:34:36Z</time>
      </trkpt>
      <trkpt lat="48.74676" lon="-3.46113">
        <ele>69</ele>
        <time>2011-02-20T10:34:37Z</time>
      </trkpt>
      <trkpt lat="48.7468" lon="-3.46103">
        <ele>69</ele>
        <time>2011-02-20T10:34:38Z</time>
      </trkpt>
      <trkpt lat="48.74689" lon="-3.45916">
        <ele>69</ele>
        <time>2011-02-20T10:34:56Z</time>
      </trkpt>
      <trkpt lat="48.74702" lon="-3.45682">
        <ele>69</ele>
        <time>2011-02-20T10:35:16Z</time>
      </trkpt>
      <trkpt lat="48.74701" lon="-3.45666">
        <ele>68</ele>
        <time>2011-02-20T10:35:17Z</time>
      </trkpt>
      <trkpt lat="48.74697" lon="-3.45651">
        <ele>68</ele>
        <time>2011-02-20T10:35:18Z</time>
      </trkpt>
      <trkpt lat="48.74693" lon="-3.45636">
        <ele>67</ele>
        <time>2011-02-20T10:35:19Z</time>
      </trkpt>
      <trkpt lat="48.74687" lon="-3.45621">
        <ele>66</ele>
        <time>2011-02-20T10:35:20Z</time>
      </trkpt>
      <trkpt lat="48.7468" lon="-3.45607">
        <ele>65</ele>
        <time>2011-02-20T10:35:21Z</time>
      </trkpt>
      <trkpt lat="48.74672" lon="-3.45595">
        <ele>65</ele>
        <time>2011-02-20T10:35:22Z</time>
      </trkpt>
      <trkpt lat="48.74663" lon="-3.45584">
        <ele>64</ele>
        <time>2011-02-20T10:35:23Z</time>
      </trkpt>
      <trkpt lat="48.74653" lon="-3.45574">
        <ele>63</ele>
        <time>2011-02-20T10:35:24Z</time>
      </trkpt>
      <trkpt lat="48.74644" lon="-3.45565">
        <ele>62</ele>
        <time>2011-02-20T10:35:25Z</time>
      </trkpt>
      <trkpt lat="48.74634" lon="-3.45555">
        <ele>61</ele>
        <time>2011-02-20T10:35:26Z</time>
      </trkpt>
      <trkpt lat="48.74625" lon="-3.45545">
        <ele>61</ele>
        <time>2011-02-20T10:35:27Z</time>
      </trkpt>
      <trkpt lat="48.74615" lon="-3.45535">
        <ele>60</ele>
        <time>2011-02-20T10:35:28Z</time>
      </trkpt>
      <trkpt lat="48.74605" lon="-3.45525">
        <ele>60</ele>
        <time>2011-02-20T10:35:29Z</time>
      </trkpt>
      <trkpt lat="48.74596" lon="-3.45514">
        <ele>59</ele>
        <time>2011-02-20T10:35:30Z</time>
      </trkpt>
      <trkpt lat="48.74586" lon="-3.45503">
        <ele>59</ele>
        <time>2011-02-20T10:35:31Z</time>
      </trkpt>
      <trkpt lat="48.74577" lon="-3.45492">
        <ele>58</ele>
        <time>2011-02-20T10:35:32Z</time>
      </trkpt>
      <trkpt lat="48.74568" lon="-3.45479">
        <ele>57</ele>
        <time>2011-02-20T10:35:33Z</time>
      </trkpt>
      <trkpt lat="48.7456" lon="-3.45466">
        <ele>56</ele>
        <time>2011-02-20T10:35:34Z</time>
      </trkpt>
      <trkpt lat="48.74552" lon="-3.45451">
        <ele>56</ele>
        <time>2011-02-20T10:35:35Z</time>
      </trkpt>
      <trkpt lat="48.74544" lon="-3.45436">
        <ele>55</ele>
        <time>2011-02-20T10:35:36Z</time>
      </trkpt>
      <trkpt lat="48.74536" lon="-3.4542">
        <ele>54</ele>
        <time>2011-02-20T10:35:37Z</time>
      </trkpt>
      <trkpt lat="48.74528" lon="-3.45405">
        <ele>53</ele>
        <time>2011-02-20T10:35:38Z</time>
      </trkpt>
      <trkpt lat="48.7452" lon="-3.45391">
        <ele>53</ele>
        <time>2011-02-20T10:35:39Z</time>
      </trkpt>
      <trkpt lat="48.74513" lon="-3.45378">
        <ele>53</ele>
        <time>2011-02-20T10:35:40Z</time>
      </trkpt>
      <trkpt lat="48.74506" lon="-3.45367">
        <ele>52</ele>
        <time>2011-02-20T10:35:41Z</time>
      </trkpt>
      <trkpt lat="48.74499" lon="-3.45357">
        <ele>52</ele>
        <time>2011-02-20T10:35:42Z</time>
      </trkpt>
      <trkpt lat="48.74492" lon="-3.45348">
        <ele>52</ele>
        <time>2011-02-20T10:35:43Z</time>
      </trkpt>
      <trkpt lat="48.74486" lon="-3.4534">
        <ele>52</ele>
        <time>2011-02-20T10:35:44Z</time>
      </trkpt>
      <trkpt lat="48.7448" lon="-3.45333">
        <ele>52</ele>
        <time>2011-02-20T10:35:45Z</time>
      </trkpt>
      <trkpt lat="48.74475" lon="-3.45326">
        <ele>52</ele>
        <time>2011-02-20T10:35:46Z</time>
      </trkpt>
      <trkpt lat="48.7447" lon="-3.4532">
        <ele>52</ele>
        <time>2011-02-20T10:35:47Z</time>
      </trkpt>
      <trkpt lat="48.74465" lon="-3.45314">
        <ele>52</ele>
        <time>2011-02-20T10:35:48Z</time>
      </trkpt>
      <trkpt lat="48.7446" lon="-3.45309">
        <ele>52</ele>
        <time>2011-02-20T10:35:49Z</time>
      </trkpt>
      <trkpt lat="48.74456" lon="-3.45303">
        <ele>52</ele>
        <time>2011-02-20T10:35:50Z</time>
      </trkpt>
      <trkpt lat="48.74451" lon="-3.45298">
        <ele>52</ele>
        <time>2011-02-20T10:35:51Z</time>
      </trkpt>
      <trkpt lat="48.74447" lon="-3.45293">
        <ele>52</ele>
        <time>2011-02-20T10:35:52Z</time>
      </trkpt>
      <trkpt lat="48.74443" lon="-3.45288">
        <ele>52</ele>
        <time>2011-02-20T10:35:53Z</time>
      </trkpt>
      <trkpt lat="48.74439" lon="-3.45284">
        <ele>52</ele>
        <time>2011-02-20T10:35:54Z</time>
      </trkpt>
      <trkpt lat="48.74435" lon="-3.45279">
        <ele>53</ele>
        <time>2011-02-20T10:35:55Z</time>
      </trkpt>
      <trkpt lat="48.74432" lon="-3.45275">
        <ele>53</ele>
        <time>2011-02-20T10:35:56Z</time>
      </trkpt>
      <trkpt lat="48.74429" lon="-3.45272">
        <ele>53</ele>
        <time>2011-02-20T10:35:57Z</time>
      </trkpt>
      <trkpt lat="48.74426" lon="-3.45269">
        <ele>54</ele>
        <time>2011-02-20T10:35:58Z</time>
      </trkpt>
      <trkpt lat="48.74424" lon="-3.45266">
        <ele>54</ele>
        <time>2011-02-20T10:35:59Z</time>
      </trkpt>
      <trkpt lat="48.74421" lon="-3.45263">
        <ele>54</ele>
        <time>2011-02-20T10:36:00Z</time>
      </trkpt>
      <trkpt lat="48.74418" lon="-3.45259">
        <ele>54</ele>
        <time>2011-02-20T10:36:01Z</time>
      </trkpt>
      <trkpt lat="48.74415" lon="-3.45256">
        <ele>55</ele>
        <time>2011-02-20T10:36:02Z</time>
      </trkpt>
      <trkpt lat="48.74412" lon="-3.45253">
        <ele>55</ele>
        <time>2011-02-20T10:36:03Z</time>
      </trkpt>
      <trkpt lat="48.74409" lon="-3.45249">
        <ele>55</ele>
        <time>2011-02-20T10:36:04Z</time>
      </trkpt>
      <trkpt lat="48.74406" lon="-3.45246">
        <ele>55</ele>
        <time>2011-02-20T10:36:05Z</time>
      </trkpt>
      <trkpt lat="48.74402" lon="-3.45242">
        <ele>55</ele>
        <time>2011-02-20T10:36:06Z</time>
      </trkpt>
      <trkpt lat="48.74399" lon="-3.45239">
        <ele>56</ele>
        <time>2011-02-20T10:36:07Z</time>
      </trkpt>
      <trkpt lat="48.74395" lon="-3.45235">
        <ele>56</ele>
        <time>2011-02-20T10:36:08Z</time>
      </trkpt>
      <trkpt lat="48.74391" lon="-3.45232">
        <ele>56</ele>
        <time>2011-02-20T10:36:09Z</time>
      </trkpt>
      <trkpt lat="48.74386" lon="-3.45229">
        <ele>56</ele>
        <time>2011-02-20T10:36:10Z</time>
      </trkpt>
      <trkpt lat="48.74381" lon="-3.45227">
        <ele>56</ele>
        <time>2011-02-20T10:36:11Z</time>
      </trkpt>
      <trkpt lat="48.74376" lon="-3.45224">
        <ele>56</ele>
        <time>2011-02-20T10:36:12Z</time>
      </trkpt>
      <trkpt lat="48.7437" lon="-3.45221">
        <ele>56</ele>
        <time>2011-02-20T10:36:13Z</time>
      </trkpt>
      <trkpt lat="48.74364" lon="-3.45219">
        <ele>56</ele>
        <time>2011-02-20T10:36:14Z</time>
      </trkpt>
      <trkpt lat="48.74358" lon="-3.45216">
        <ele>56</ele>
        <time>2011-02-20T10:36:15Z</time>
      </trkpt>
      <trkpt lat="48.74353" lon="-3.45213">
        <ele>56</ele>
        <time>2011-02-20T10:36:16Z</time>
      </trkpt>
      <trkpt lat="48.74346" lon="-3.4521">
        <ele>56</ele>
        <time>2011-02-20T10:36:17Z</time>
      </trkpt>
      <trkpt lat="48.7434" lon="-3.45206">
        <ele>56</ele>
        <time>2011-02-20T10:36:18Z</time>
      </trkpt>
      <trkpt lat="48.74333" lon="-3.45201">
        <ele>56</ele>
        <time>2011-02-20T10:36:19Z</time>
      </trkpt>
      <trkpt lat="48.74327" lon="-3.45195">
        <ele>56</ele>
        <time>2011-02-20T10:36:20Z</time>
      </trkpt>
      <trkpt lat="48.7432" lon="-3.45188">
        <ele>56</ele>
        <time>2011-02-20T10:36:21Z</time>
      </trkpt>
      <trkpt lat="48.74314" lon="-3.45181">
        <ele>56</ele>
        <time>2011-02-20T10:36:22Z</time>
      </trkpt>
      <trkpt lat="48.74308" lon="-3.45173">
        <ele>56</ele>
        <time>2011-02-20T10:36:23Z</time>
      </trkpt>
      <trkpt lat="48.74302" lon="-3.45164">
        <ele>56</ele>
        <time>2011-02-20T10:36:24Z</time>
      </trkpt>
      <trkpt lat="48.74296" lon="-3.45155">
        <ele>56</ele>
        <time>2011-02-20T10:36:25Z</time>
      </trkpt>
      <trkpt lat="48.74291" lon="-3.45144">
        <ele>56</ele>
        <time>2011-02-20T10:36:26Z</time>
      </trkpt>
      <trkpt lat="48.74286" lon="-3.45133">
        <ele>56</ele>
        <time>2011-02-20T10:36:27Z</time>
      </trkpt>
      <trkpt lat="48.74282" lon="-3.45121">
        <ele>56</ele>
        <time>2011-02-20T10:36:28Z</time>
      </trkpt>
      <trkpt lat="48.74271" lon="-3.44696">
        <ele>42</ele>
        <time>2011-02-20T10:36:56Z</time>
      </trkpt>
      <trkpt lat="48.74269" lon="-3.44681">
        <ele>41</ele>
        <time>2011-02-20T10:36:57Z</time>
      </trkpt>
      <trkpt lat="48.74267" lon="-3.44666">
        <ele>41</ele>
        <time>2011-02-20T10:36:58Z</time>
      </trkpt>
      <trkpt lat="48.74265" lon="-3.44653">
        <ele>40</ele>
        <time>2011-02-20T10:36:59Z</time>
      </trkpt>
      <trkpt lat="48.74261" lon="-3.4464">
        <ele>40</ele>
        <time>2011-02-20T10:37:00Z</time>
      </trkpt>
      <trkpt lat="48.74255" lon="-3.44629">
        <ele>40</ele>
        <time>2011-02-20T10:37:01Z</time>
      </trkpt>
      <trkpt lat="48.74249" lon="-3.44619">
        <ele>39</ele>
        <time>2011-02-20T10:37:02Z</time>
      </trkpt>
      <trkpt lat="48.74243" lon="-3.44608">
        <ele>39</ele>
        <time>2011-02-20T10:37:03Z</time>
      </trkpt>
      <trkpt lat="48.74236" lon="-3.44597">
        <ele>39</ele>
        <time>2011-02-20T10:37:04Z</time>
      </trkpt>
      <trkpt lat="48.74229" lon="-3.44588">
        <ele>38</ele>
        <time>2011-02-20T10:37:05Z</time>
      </trkpt>
      <trkpt lat="48.7422" lon="-3.44581">
        <ele>38</ele>
        <time>2011-02-20T10:37:06Z</time>
      </trkpt>
      <trkpt lat="48.7421" lon="-3.44575">
        <ele>38</ele>
        <time>2011-02-20T10:37:07Z</time>
      </trkpt>
      <trkpt lat="48.742" lon="-3.4457">
        <ele>37</ele>
        <time>2011-02-20T10:37:08Z</time>
      </trkpt>
      <trkpt lat="48.74191" lon="-3.44566">
        <ele>37</ele>
        <time>2011-02-20T10:37:09Z</time>
      </trkpt>
      <trkpt lat="48.74181" lon="-3.44561">
        <ele>36</ele>
        <time>2011-02-20T10:37:10Z</time>
      </trkpt>
      <trkpt lat="48.74171" lon="-3.44557">
        <ele>36</ele>
        <time>2011-02-20T10:37:11Z</time>
      </trkpt>
      <trkpt lat="48.74162" lon="-3.44553">
        <ele>36</ele>
        <time>2011-02-20T10:37:12Z</time>
      </trkpt>
      <trkpt lat="48.74152" lon="-3.44549">
        <ele>35</ele>
        <time>2011-02-20T10:37:13Z</time>
      </trkpt>
      <trkpt lat="48.74143" lon="-3.44545">
        <ele>35</ele>
        <time>2011-02-20T10:37:14Z</time>
      </trkpt>
      <trkpt lat="48.74134" lon="-3.44541">
        <ele>35</ele>
        <time>2011-02-20T10:37:15Z</time>
      </trkpt>
      <trkpt lat="48.74124" lon="-3.44537">
        <ele>34</ele>
        <time>2011-02-20T10:37:16Z</time>
      </trkpt>
      <trkpt lat="48.74115" lon="-3.44533">
        <ele>34</ele>
        <time>2011-02-20T10:37:17Z</time>
      </trkpt>
      <trkpt lat="48.74106" lon="-3.44529">
        <ele>34</ele>
        <time>2011-02-20T10:37:18Z</time>
      </trkpt>
      <trkpt lat="48.74097" lon="-3.44525">
        <ele>34</ele>
        <time>2011-02-20T10:37:19Z</time>
      </trkpt>
      <trkpt lat="48.74089" lon="-3.44521">
        <ele>33</ele>
        <time>2011-02-20T10:37:20Z</time>
      </trkpt>
      <trkpt lat="48.7408" lon="-3.44517">
        <ele>33</ele>
        <time>2011-02-20T10:37:21Z</time>
      </trkpt>
      <trkpt lat="48.74072" lon="-3.44513">
        <ele>33</ele>
        <time>2011-02-20T10:37:22Z</time>
      </trkpt>
      <trkpt lat="48.74063" lon="-3.4451">
        <ele>32</ele>
        <time>2011-02-20T10:37:23Z</time>
      </trkpt>
      <trkpt lat="48.74055" lon="-3.44506">
        <ele>32</ele>
        <time>2011-02-20T10:37:24Z</time>
      </trkpt>
      <trkpt lat="48.74047" lon="-3.44502">
        <ele>32</ele>
        <time>2011-02-20T10:37:25Z</time>
      </trkpt>
      <trkpt lat="48.74039" lon="-3.44499">
        <ele>32</ele>
        <time>2011-02-20T10:37:26Z</time>
      </trkpt>
      <trkpt lat="48.74031" lon="-3.44496">
        <ele>31</ele>
        <time>2011-02-20T10:37:27Z</time>
      </trkpt>
      <trkpt lat="48.74024" lon="-3.44493">
        <ele>31</ele>
        <time>2011-02-20T10:37:28Z</time>
      </trkpt>
      <trkpt lat="48.74016" lon="-3.4449">
        <ele>31</ele>
        <time>2011-02-20T10:37:29Z</time>
      </trkpt>
      <trkpt lat="48.74009" lon="-3.44488">
        <ele>31</ele>
        <time>2011-02-20T10:37:30Z</time>
      </trkpt>
      <trkpt lat="48.74002" lon="-3.44485">
        <ele>31</ele>
        <time>2011-02-20T10:37:31Z</time>
      </trkpt>
      <trkpt lat="48.73995" lon="-3.44484">
        <ele>31</ele>
        <time>2011-02-20T10:37:32Z</time>
      </trkpt>
      <trkpt lat="48.73988" lon="-3.44486">
        <ele>30</ele>
        <time>2011-02-20T10:37:33Z</time>
      </trkpt>
      <trkpt lat="48.73982" lon="-3.4449">
        <ele>30</ele>
        <time>2011-02-20T10:37:34Z</time>
      </trkpt>
      <trkpt lat="48.73975" lon="-3.44493">
        <ele>30</ele>
        <time>2011-02-20T10:37:35Z</time>
      </trkpt>
      <trkpt lat="48.73968" lon="-3.44495">
        <ele>30</ele>
        <time>2011-02-20T10:37:36Z</time>
      </trkpt>
      <trkpt lat="48.73961" lon="-3.44493">
        <ele>29</ele>
        <time>2011-02-20T10:37:37Z</time>
      </trkpt>
      <trkpt lat="48.73956" lon="-3.44488">
        <ele>29</ele>
        <time>2011-02-20T10:37:38Z</time>
      </trkpt>
      <trkpt lat="48.7395" lon="-3.44482">
        <ele>29</ele>
        <time>2011-02-20T10:37:39Z</time>
      </trkpt>
      <trkpt lat="48.73944" lon="-3.44476">
        <ele>29</ele>
        <time>2011-02-20T10:37:40Z</time>
      </trkpt>
      <trkpt lat="48.73938" lon="-3.4447">
        <ele>29</ele>
        <time>2011-02-20T10:37:41Z</time>
      </trkpt>
      <trkpt lat="48.7393" lon="-3.44466">
        <ele>29</ele>
        <time>2011-02-20T10:37:42Z</time>
      </trkpt>
      <trkpt lat="48.73922" lon="-3.44463">
        <ele>28</ele>
        <time>2011-02-20T10:37:43Z</time>
      </trkpt>
      <trkpt lat="48.73914" lon="-3.4446">
        <ele>28</ele>
        <time>2011-02-20T10:37:44Z</time>
      </trkpt>
      <trkpt lat="48.73906" lon="-3.44457">
        <ele>28</ele>
        <time>2011-02-20T10:37:45Z</time>
      </trkpt>
      <trkpt lat="48.73896" lon="-3.44455">
        <ele>27</ele>
        <time>2011-02-20T10:37:46Z</time>
      </trkpt>
      <trkpt lat="48.73887" lon="-3.44452">
        <ele>27</ele>
        <time>2011-02-20T10:37:47Z</time>
      </trkpt>
      <trkpt lat="48.73878" lon="-3.44448">
        <ele>27</ele>
        <time>2011-02-20T10:37:48Z</time>
      </trkpt>
      <trkpt lat="48.73868" lon="-3.44445">
        <ele>26</ele>
        <time>2011-02-20T10:37:49Z</time>
      </trkpt>
      <trkpt lat="48.73858" lon="-3.44442">
        <ele>26</ele>
        <time>2011-02-20T10:37:50Z</time>
      </trkpt>
      <trkpt lat="48.73848" lon="-3.4444">
        <ele>26</ele>
        <time>2011-02-20T10:37:51Z</time>
      </trkpt>
      <trkpt lat="48.73839" lon="-3.44439">
        <ele>25</ele>
        <time>2011-02-20T10:37:52Z</time>
      </trkpt>
      <trkpt lat="48.73829" lon="-3.4444">
        <ele>25</ele>
        <time>2011-02-20T10:37:53Z</time>
      </trkpt>
      <trkpt lat="48.73819" lon="-3.44443">
        <ele>24</ele>
        <time>2011-02-20T10:37:54Z</time>
      </trkpt>
      <trkpt lat="48.73809" lon="-3.44448">
        <ele>24</ele>
        <time>2011-02-20T10:37:55Z</time>
      </trkpt>
      <trkpt lat="48.73799" lon="-3.44454">
        <ele>23</ele>
        <time>2011-02-20T10:37:56Z</time>
      </trkpt>
      <trkpt lat="48.7379" lon="-3.44462">
        <ele>22</ele>
        <time>2011-02-20T10:37:57Z</time>
      </trkpt>
      <trkpt lat="48.7378" lon="-3.44471">
        <ele>22</ele>
        <time>2011-02-20T10:37:58Z</time>
      </trkpt>
      <trkpt lat="48.73771" lon="-3.44479">
        <ele>21</ele>
        <time>2011-02-20T10:37:59Z</time>
      </trkpt>
      <trkpt lat="48.73761" lon="-3.44486">
        <ele>20</ele>
        <time>2011-02-20T10:38:00Z</time>
      </trkpt>
      <trkpt lat="48.73751" lon="-3.4449">
        <ele>19</ele>
        <time>2011-02-20T10:38:01Z</time>
      </trkpt>
      <trkpt lat="48.7374" lon="-3.44492">
        <ele>19</ele>
        <time>2011-02-20T10:38:02Z</time>
      </trkpt>
      <trkpt lat="48.73729" lon="-3.4449">
        <ele>18</ele>
        <time>2011-02-20T10:38:03Z</time>
      </trkpt>
      <trkpt lat="48.73719" lon="-3.44484">
        <ele>18</ele>
        <time>2011-02-20T10:38:04Z</time>
      </trkpt>
      <trkpt lat="48.73709" lon="-3.44476">
        <ele>17</ele>
        <time>2011-02-20T10:38:05Z</time>
      </trkpt>
      <trkpt lat="48.737" lon="-3.44468">
        <ele>17</ele>
        <time>2011-02-20T10:38:06Z</time>
      </trkpt>
      <trkpt lat="48.73691" lon="-3.4446">
        <ele>17</ele>
        <time>2011-02-20T10:38:07Z</time>
      </trkpt>
      <trkpt lat="48.73682" lon="-3.44452">
        <ele>17</ele>
        <time>2011-02-20T10:38:08Z</time>
      </trkpt>
      <trkpt lat="48.73674" lon="-3.44444">
        <ele>17</ele>
        <time>2011-02-20T10:38:09Z</time>
      </trkpt>
      <trkpt lat="48.73665" lon="-3.44437">
        <ele>17</ele>
        <time>2011-02-20T10:38:10Z</time>
      </trkpt>
      <trkpt lat="48.73657" lon="-3.44431">
        <ele>17</ele>
        <time>2011-02-20T10:38:11Z</time>
      </trkpt>
      <trkpt lat="48.73649" lon="-3.44425">
        <ele>17</ele>
        <time>2011-02-20T10:38:12Z</time>
      </trkpt>
      <trkpt lat="48.73642" lon="-3.4442">
        <ele>17</ele>
        <time>2011-02-20T10:38:13Z</time>
      </trkpt>
      <trkpt lat="48.73634" lon="-3.44416">
        <ele>17</ele>
        <time>2011-02-20T10:38:14Z</time>
      </trkpt>
      <trkpt lat="48.73627" lon="-3.44412">
        <ele>17</ele>
        <time>2011-02-20T10:38:15Z</time>
      </trkpt>
      <trkpt lat="48.7362" lon="-3.44409">
        <ele>17</ele>
        <time>2011-02-20T10:38:16Z</time>
      </trkpt>
      <trkpt lat="48.73614" lon="-3.44407">
        <ele>17</ele>
        <time>2011-02-20T10:38:17Z</time>
      </trkpt>
      <trkpt lat="48.73607" lon="-3.44405">
        <ele>17</ele>
        <time>2011-02-20T10:38:18Z</time>
      </trkpt>
      <trkpt lat="48.736" lon="-3.44403">
        <ele>17</ele>
        <time>2011-02-20T10:38:19Z</time>
      </trkpt>
      <trkpt lat="48.73593" lon="-3.44401">
        <ele>17</ele>
        <time>2011-02-20T10:38:20Z</time>
      </trkpt>
      <trkpt lat="48.73586" lon="-3.44399">
        <ele>17</ele>
        <time>2011-02-20T10:38:21Z</time>
      </trkpt>
      <trkpt lat="48.7358" lon="-3.44399">
        <ele>17</ele>
        <time>2011-02-20T10:38:22Z</time>
      </trkpt>
      <trkpt lat="48.73574" lon="-3.44398">
        <ele>17</ele>
        <time>2011-02-20T10:38:23Z</time>
      </trkpt>
      <trkpt lat="48.73568" lon="-3.44398">
        <ele>17</ele>
        <time>2011-02-20T10:38:24Z</time>
      </trkpt>
      <trkpt lat="48.73563" lon="-3.44398">
        <ele>17</ele>
        <time>2011-02-20T10:38:25Z</time>
      </trkpt>
      <trkpt lat="48.73557" lon="-3.44398">
        <ele>18</ele>
        <time>2011-02-20T10:38:26Z</time>
      </trkpt>
      <trkpt lat="48.73551" lon="-3.44399">
        <ele>18</ele>
        <time>2011-02-20T10:38:27Z</time>
      </trkpt>
      <trkpt lat="48.73545" lon="-3.444">
        <ele>18</ele>
        <time>2011-02-20T10:38:28Z</time>
      </trkpt>
      <trkpt lat="48.73539" lon="-3.44402">
        <ele>19</ele>
        <time>2011-02-20T10:38:29Z</time>
      </trkpt>
      <trkpt lat="48.73533" lon="-3.44404">
        <ele>19</ele>
        <time>2011-02-20T10:38:30Z</time>
      </trkpt>
      <trkpt lat="48.73527" lon="-3.44406">
        <ele>20</ele>
        <time>2011-02-20T10:38:31Z</time>
      </trkpt>
      <trkpt lat="48.73521" lon="-3.44408">
        <ele>20</ele>
        <time>2011-02-20T10:38:32Z</time>
      </trkpt>
      <trkpt lat="48.73515" lon="-3.4441">
        <ele>21</ele>
        <time>2011-02-20T10:38:33Z</time>
      </trkpt>
      <trkpt lat="48.73509" lon="-3.44412">
        <ele>21</ele>
        <time>2011-02-20T10:38:34Z</time>
      </trkpt>
      <trkpt lat="48.73504" lon="-3.44414">
        <ele>21</ele>
        <time>2011-02-20T10:38:35Z</time>
      </trkpt>
      <trkpt lat="48.73499" lon="-3.44416">
        <ele>22</ele>
        <time>2011-02-20T10:38:36Z</time>
      </trkpt>
      <trkpt lat="48.73494" lon="-3.44419">
        <ele>22</ele>
        <time>2011-02-20T10:38:37Z</time>
      </trkpt>
      <trkpt lat="48.73489" lon="-3.44422">
        <ele>22</ele>
        <time>2011-02-20T10:38:38Z</time>
      </trkpt>
      <trkpt lat="48.73484" lon="-3.44425">
        <ele>23</ele>
        <time>2011-02-20T10:38:39Z</time>
      </trkpt>
      <trkpt lat="48.7348" lon="-3.44427">
        <ele>23</ele>
        <time>2011-02-20T10:38:40Z</time>
      </trkpt>
      <trkpt lat="48.73476" lon="-3.44431">
        <ele>23</ele>
        <time>2011-02-20T10:38:41Z</time>
      </trkpt>
      <trkpt lat="48.73471" lon="-3.44434">
        <ele>23</ele>
        <time>2011-02-20T10:38:42Z</time>
      </trkpt>
      <trkpt lat="48.73468" lon="-3.44439">
        <ele>23</ele>
        <time>2011-02-20T10:38:43Z</time>
      </trkpt>
      <trkpt lat="48.73465" lon="-3.44444">
        <ele>24</ele>
        <time>2011-02-20T10:38:44Z</time>
      </trkpt>
      <trkpt lat="48.73462" lon="-3.44449">
        <ele>24</ele>
        <time>2011-02-20T10:38:45Z</time>
      </trkpt>
      <trkpt lat="48.7346" lon="-3.44455">
        <ele>24</ele>
        <time>2011-02-20T10:38:46Z</time>
      </trkpt>
      <trkpt lat="48.73457" lon="-3.44461">
        <ele>24</ele>
        <time>2011-02-20T10:38:47Z</time>
      </trkpt>
      <trkpt lat="48.73455" lon="-3.44467">
        <ele>25</ele>
        <time>2011-02-20T10:38:48Z</time>
      </trkpt>
      <trkpt lat="48.73452" lon="-3.44473">
        <ele>25</ele>
        <time>2011-02-20T10:38:49Z</time>
      </trkpt>
      <trkpt lat="48.73449" lon="-3.44478">
        <ele>25</ele>
        <time>2011-02-20T10:38:50Z</time>
      </trkpt>
      <trkpt lat="48.73446" lon="-3.44482">
        <ele>25</ele>
        <time>2011-02-20T10:38:51Z</time>
      </trkpt>
      <trkpt lat="48.73442" lon="-3.44485">
        <ele>25</ele>
        <time>2011-02-20T10:38:52Z</time>
      </trkpt>
      <trkpt lat="48.73437" lon="-3.44487">
        <ele>25</ele>
        <time>2011-02-20T10:38:53Z</time>
      </trkpt>
      <trkpt lat="48.73433" lon="-3.44488">
        <ele>25</ele>
        <time>2011-02-20T10:38:54Z</time>
      </trkpt>
      <trkpt lat="48.73428" lon="-3.44486">
        <ele>26</ele>
        <time>2011-02-20T10:38:55Z</time>
      </trkpt>
      <trkpt lat="48.73424" lon="-3.44484">
        <ele>26</ele>
        <time>2011-02-20T10:38:56Z</time>
      </trkpt>
      <trkpt lat="48.7342" lon="-3.4448">
        <ele>26</ele>
        <time>2011-02-20T10:38:57Z</time>
      </trkpt>
      <trkpt lat="48.73414" lon="-3.44469">
        <ele>26</ele>
        <time>2011-02-20T10:38:59Z</time>
      </trkpt>
      <trkpt lat="48.73409" lon="-3.44439">
        <ele>27</ele>
        <time>2011-02-20T10:39:03Z</time>
      </trkpt>
      <trkpt lat="48.73402" lon="-3.44379">
        <ele>27</ele>
        <time>2011-02-20T10:39:10Z</time>
      </trkpt>
      <trkpt lat="48.73401" lon="-3.4437">
        <ele>27</ele>
        <time>2011-02-20T10:39:11Z</time>
      </trkpt>
      <trkpt lat="48.73397" lon="-3.44335">
        <ele>27</ele>
        <time>2011-02-20T10:39:15Z</time>
      </trkpt>
      <trkpt lat="48.73391" lon="-3.44157">
        <ele>28</ele>
        <time>2011-02-20T10:39:35Z</time>
      </trkpt>
      <trkpt lat="48.73401" lon="-3.4411">
        <ele>29</ele>
        <time>2011-02-20T10:39:41Z</time>
      </trkpt>
      <trkpt lat="48.73403" lon="-3.44103">
        <ele>29</ele>
        <time>2011-02-20T10:39:42Z</time>
      </trkpt>
      <trkpt lat="48.73411" lon="-3.44029">
        <ele>31</ele>
        <time>2011-02-20T10:39:53Z</time>
      </trkpt>
      <trkpt lat="48.73413" lon="-3.44022">
        <ele>31</ele>
        <time>2011-02-20T10:39:54Z</time>
      </trkpt>
      <trkpt lat="48.73416" lon="-3.44016">
        <ele>31</ele>
        <time>2011-02-20T10:39:55Z</time>
      </trkpt>
      <trkpt lat="48.73429" lon="-3.43952">
        <ele>32</ele>
        <time>2011-02-20T10:40:04Z</time>
      </trkpt>
      <trkpt lat="48.73436" lon="-3.43868">
        <ele>34</ele>
        <time>2011-02-20T10:40:16Z</time>
      </trkpt>
      <trkpt lat="48.73438" lon="-3.43862">
        <ele>34</ele>
        <time>2011-02-20T10:40:17Z</time>
      </trkpt>
      <trkpt lat="48.73441" lon="-3.43857">
        <ele>34</ele>
        <time>2011-02-20T10:40:18Z</time>
      </trkpt>
      <trkpt lat="48.73444" lon="-3.43853">
        <ele>34</ele>
        <time>2011-02-20T10:40:19Z</time>
      </trkpt>
      <trkpt lat="48.73448" lon="-3.43849">
        <ele>35</ele>
        <time>2011-02-20T10:40:20Z</time>
      </trkpt>
      <trkpt lat="48.73452" lon="-3.43845">
        <ele>35</ele>
        <time>2011-02-20T10:40:21Z</time>
      </trkpt>
      <trkpt lat="48.73455" lon="-3.4384">
        <ele>35</ele>
        <time>2011-02-20T10:40:22Z</time>
      </trkpt>
      <trkpt lat="48.73458" lon="-3.43834">
        <ele>35</ele>
        <time>2011-02-20T10:40:23Z</time>
      </trkpt>
      <trkpt lat="48.7346" lon="-3.43828">
        <ele>35</ele>
        <time>2011-02-20T10:40:24Z</time>
      </trkpt>
      <trkpt lat="48.73463" lon="-3.43822">
        <ele>35</ele>
        <time>2011-02-20T10:40:25Z</time>
      </trkpt>
      <trkpt lat="48.73465" lon="-3.43815">
        <ele>35</ele>
        <time>2011-02-20T10:40:26Z</time>
      </trkpt>
      <trkpt lat="48.73468" lon="-3.43809">
        <ele>35</ele>
        <time>2011-02-20T10:40:27Z</time>
      </trkpt>
      <trkpt lat="48.7347" lon="-3.43803">
        <ele>35</ele>
        <time>2011-02-20T10:40:28Z</time>
      </trkpt>
      <trkpt lat="48.73473" lon="-3.43797">
        <ele>35</ele>
        <time>2011-02-20T10:40:29Z</time>
      </trkpt>
      <trkpt lat="48.73476" lon="-3.43792">
        <ele>35</ele>
        <time>2011-02-20T10:40:30Z</time>
      </trkpt>
      <trkpt lat="48.73479" lon="-3.43786">
        <ele>35</ele>
        <time>2011-02-20T10:40:31Z</time>
      </trkpt>
      <trkpt lat="48.73481" lon="-3.4378">
        <ele>36</ele>
        <time>2011-02-20T10:40:32Z</time>
      </trkpt>
      <trkpt lat="48.73484" lon="-3.43774">
        <ele>36</ele>
        <time>2011-02-20T10:40:33Z</time>
      </trkpt>
      <trkpt lat="48.73487" lon="-3.43768">
        <ele>36</ele>
        <time>2011-02-20T10:40:34Z</time>
      </trkpt>
      <trkpt lat="48.73489" lon="-3.43762">
        <ele>37</ele>
        <time>2011-02-20T10:40:35Z</time>
      </trkpt>
      <trkpt lat="48.73492" lon="-3.43757">
        <ele>37</ele>
        <time>2011-02-20T10:40:36Z</time>
      </trkpt>
      <trkpt lat="48.73494" lon="-3.43752">
        <ele>37</ele>
        <time>2011-02-20T10:40:37Z</time>
      </trkpt>
      <trkpt lat="48.73497" lon="-3.43747">
        <ele>37</ele>
        <time>2011-02-20T10:40:38Z</time>
      </trkpt>
      <trkpt lat="48.73499" lon="-3.43676">
        <ele>38</ele>
        <time>2011-02-20T10:40:50Z</time>
      </trkpt>
      <trkpt lat="48.73508" lon="-3.43643">
        <ele>39</ele>
        <time>2011-02-20T10:40:55Z</time>
      </trkpt>
      <trkpt lat="48.73507" lon="-3.43636">
        <ele>39</ele>
        <time>2011-02-20T10:40:56Z</time>
      </trkpt>
      <trkpt lat="48.73504" lon="-3.4363">
        <ele>39</ele>
        <time>2011-02-20T10:40:57Z</time>
      </trkpt>
      <trkpt lat="48.735" lon="-3.43626">
        <ele>39</ele>
        <time>2011-02-20T10:40:58Z</time>
      </trkpt>
      <trkpt lat="48.73495" lon="-3.43624">
        <ele>39</ele>
        <time>2011-02-20T10:40:59Z</time>
      </trkpt>
      <trkpt lat="48.73489" lon="-3.43623">
        <ele>39</ele>
        <time>2011-02-20T10:41:00Z</time>
      </trkpt>
      <trkpt lat="48.73484" lon="-3.43622">
        <ele>39</ele>
        <time>2011-02-20T10:41:01Z</time>
      </trkpt>
      <trkpt lat="48.73479" lon="-3.43621">
        <ele>39</ele>
        <time>2011-02-20T10:41:02Z</time>
      </trkpt>
      <trkpt lat="48.73474" lon="-3.43619">
        <ele>39</ele>
        <time>2011-02-20T10:41:03Z</time>
      </trkpt>
      <trkpt lat="48.73469" lon="-3.43615">
        <ele>39</ele>
        <time>2011-02-20T10:41:04Z</time>
      </trkpt>
      <trkpt lat="48.73464" lon="-3.43611">
        <ele>39</ele>
        <time>2011-02-20T10:41:05Z</time>
      </trkpt>
      <trkpt lat="48.7346" lon="-3.43606">
        <ele>39</ele>
        <time>2011-02-20T10:41:06Z</time>
      </trkpt>
      <trkpt lat="48.73456" lon="-3.43601">
        <ele>39</ele>
        <time>2011-02-20T10:41:07Z</time>
      </trkpt>
      <trkpt lat="48.73452" lon="-3.43596">
        <ele>39</ele>
        <time>2011-02-20T10:41:08Z</time>
      </trkpt>
      <trkpt lat="48.73448" lon="-3.4359">
        <ele>39</ele>
        <time>2011-02-20T10:41:09Z</time>
      </trkpt>
      <trkpt lat="48.73444" lon="-3.43584">
        <ele>40</ele>
        <time>2011-02-20T10:41:10Z</time>
      </trkpt>
      <trkpt lat="48.73441" lon="-3.43579">
        <ele>40</ele>
        <time>2011-02-20T10:41:11Z</time>
      </trkpt>
      <trkpt lat="48.73437" lon="-3.43572">
        <ele>40</ele>
        <time>2011-02-20T10:41:12Z</time>
      </trkpt>
      <trkpt lat="48.73434" lon="-3.43566">
        <ele>40</ele>
        <time>2011-02-20T10:41:13Z</time>
      </trkpt>
      <trkpt lat="48.73431" lon="-3.43559">
        <ele>41</ele>
        <time>2011-02-20T10:41:14Z</time>
      </trkpt>
      <trkpt lat="48.73423" lon="-3.43537">
        <ele>41</ele>
        <time>2011-02-20T10:41:17Z</time>
      </trkpt>
      <trkpt lat="48.73417" lon="-3.43503">
        <ele>42</ele>
        <time>2011-02-20T10:41:21Z</time>
      </trkpt>
      <trkpt lat="48.73411" lon="-3.43453">
        <ele>44</ele>
        <time>2011-02-20T10:41:27Z</time>
      </trkpt>
      <trkpt lat="48.7341" lon="-3.43446">
        <ele>44</ele>
        <time>2011-02-20T10:41:28Z</time>
      </trkpt>
      <trkpt lat="48.73398" lon="-3.43329">
        <ele>48</ele>
        <time>2011-02-20T10:41:44Z</time>
      </trkpt>
      <trkpt lat="48.73396" lon="-3.43322">
        <ele>48</ele>
        <time>2011-02-20T10:41:45Z</time>
      </trkpt>
      <trkpt lat="48.73377" lon="-3.42915">
        <ele>58</ele>
        <time>2011-02-20T10:42:38Z</time>
      </trkpt>
      <trkpt lat="48.73375" lon="-3.42906">
        <ele>58</ele>
        <time>2011-02-20T10:42:39Z</time>
      </trkpt>
      <trkpt lat="48.73368" lon="-3.4285">
        <ele>58</ele>
        <time>2011-02-20T10:42:45Z</time>
      </trkpt>
      <trkpt lat="48.73367" lon="-3.4284">
        <ele>58</ele>
        <time>2011-02-20T10:42:46Z</time>
      </trkpt>
      <trkpt lat="48.73364" lon="-3.42789">
        <ele>58</ele>
        <time>2011-02-20T10:42:51Z</time>
      </trkpt>
      <trkpt lat="48.73355" lon="-3.42653">
        <ele>58</ele>
        <time>2011-02-20T10:43:03Z</time>
      </trkpt>
      <trkpt lat="48.73349" lon="-3.42608">
        <ele>58</ele>
        <time>2011-02-20T10:43:07Z</time>
      </trkpt>
      <trkpt lat="48.73343" lon="-3.42559">
        <ele>58</ele>
        <time>2011-02-20T10:43:12Z</time>
      </trkpt>
      <trkpt lat="48.7334" lon="-3.42177">
        <ele>58</ele>
        <time>2011-02-20T10:43:48Z</time>
      </trkpt>
      <trkpt lat="48.73342" lon="-3.42165">
        <ele>58</ele>
        <time>2011-02-20T10:43:49Z</time>
      </trkpt>
      <trkpt lat="48.73345" lon="-3.42153">
        <ele>58</ele>
        <time>2011-02-20T10:43:50Z</time>
      </trkpt>
      <trkpt lat="48.73347" lon="-3.42141">
        <ele>58</ele>
        <time>2011-02-20T10:43:51Z</time>
      </trkpt>
      <trkpt lat="48.73349" lon="-3.4213">
        <ele>58</ele>
        <time>2011-02-20T10:43:52Z</time>
      </trkpt>
      <trkpt lat="48.73359" lon="-3.42032">
        <ele>58</ele>
        <time>2011-02-20T10:44:00Z</time>
      </trkpt>
      <trkpt lat="48.73357" lon="-3.42019">
        <ele>57</ele>
        <time>2011-02-20T10:44:01Z</time>
      </trkpt>
      <trkpt lat="48.73354" lon="-3.42007">
        <ele>57</ele>
        <time>2011-02-20T10:44:02Z</time>
      </trkpt>
      <trkpt lat="48.7335" lon="-3.41996">
        <ele>57</ele>
        <time>2011-02-20T10:44:03Z</time>
      </trkpt>
      <trkpt lat="48.73345" lon="-3.41986">
        <ele>57</ele>
        <time>2011-02-20T10:44:04Z</time>
      </trkpt>
      <trkpt lat="48.7334" lon="-3.41978">
        <ele>57</ele>
        <time>2011-02-20T10:44:05Z</time>
      </trkpt>
      <trkpt lat="48.73334" lon="-3.41971">
        <ele>57</ele>
        <time>2011-02-20T10:44:06Z</time>
      </trkpt>
      <trkpt lat="48.73329" lon="-3.41965">
        <ele>57</ele>
        <time>2011-02-20T10:44:07Z</time>
      </trkpt>
      <trkpt lat="48.73323" lon="-3.4196">
        <ele>57</ele>
        <time>2011-02-20T10:44:08Z</time>
      </trkpt>
      <trkpt lat="48.73318" lon="-3.41955">
        <ele>57</ele>
        <time>2011-02-20T10:44:09Z</time>
      </trkpt>
      <trkpt lat="48.73313" lon="-3.4195">
        <ele>57</ele>
        <time>2011-02-20T10:44:10Z</time>
      </trkpt>
      <trkpt lat="48.73309" lon="-3.41945">
        <ele>57</ele>
        <time>2011-02-20T10:44:11Z</time>
      </trkpt>
      <trkpt lat="48.73304" lon="-3.41941">
        <ele>57</ele>
        <time>2011-02-20T10:44:12Z</time>
      </trkpt>
      <trkpt lat="48.733" lon="-3.41936">
        <ele>57</ele>
        <time>2011-02-20T10:44:13Z</time>
      </trkpt>
      <trkpt lat="48.73295" lon="-3.41931">
        <ele>57</ele>
        <time>2011-02-20T10:44:14Z</time>
      </trkpt>
      <trkpt lat="48.73291" lon="-3.41925">
        <ele>57</ele>
        <time>2011-02-20T10:44:15Z</time>
      </trkpt>
      <trkpt lat="48.73288" lon="-3.4192">
        <ele>57</ele>
        <time>2011-02-20T10:44:16Z</time>
      </trkpt>
      <trkpt lat="48.73284" lon="-3.41914">
        <ele>57</ele>
        <time>2011-02-20T10:44:17Z</time>
      </trkpt>
      <trkpt lat="48.7328" lon="-3.41907">
        <ele>57</ele>
        <time>2011-02-20T10:44:18Z</time>
      </trkpt>
      <trkpt lat="48.73276" lon="-3.419">
        <ele>57</ele>
        <time>2011-02-20T10:44:19Z</time>
      </trkpt>
      <trkpt lat="48.73273" lon="-3.41893">
        <ele>57</ele>
        <time>2011-02-20T10:44:20Z</time>
      </trkpt>
      <trkpt lat="48.7327" lon="-3.41885">
        <ele>57</ele>
        <time>2011-02-20T10:44:21Z</time>
      </trkpt>
      <trkpt lat="48.73267" lon="-3.41877">
        <ele>57</ele>
        <time>2011-02-20T10:44:22Z</time>
      </trkpt>
      <trkpt lat="48.73264" lon="-3.4187">
        <ele>57</ele>
        <time>2011-02-20T10:44:23Z</time>
      </trkpt>
      <trkpt lat="48.73261" lon="-3.41862">
        <ele>57</ele>
        <time>2011-02-20T10:44:24Z</time>
      </trkpt>
      <trkpt lat="48.73257" lon="-3.41855">
        <ele>57</ele>
        <time>2011-02-20T10:44:25Z</time>
      </trkpt>
      <trkpt lat="48.73254" lon="-3.41847">
        <ele>57</ele>
        <time>2011-02-20T10:44:26Z</time>
      </trkpt>
      <trkpt lat="48.73249" lon="-3.4183">
        <ele>58</ele>
        <time>2011-02-20T10:44:28Z</time>
      </trkpt>
      <trkpt lat="48.73245" lon="-3.41813">
        <ele>58</ele>
        <time>2011-02-20T10:44:30Z</time>
      </trkpt>
      <trkpt lat="48.73243" lon="-3.41805">
        <ele>58</ele>
        <time>2011-02-20T10:44:31Z</time>
      </trkpt>
      <trkpt lat="48.73226" lon="-3.41706">
        <ele>61</ele>
        <time>2011-02-20T10:44:42Z</time>
      </trkpt>
      <trkpt lat="48.73218" lon="-3.41668">
        <ele>62</ele>
        <time>2011-02-20T10:44:46Z</time>
      </trkpt>
      <trkpt lat="48.73212" lon="-3.41639">
        <ele>63</ele>
        <time>2011-02-20T10:44:49Z</time>
      </trkpt>
      <trkpt lat="48.73211" lon="-3.41629">
        <ele>64</ele>
        <time>2011-02-20T10:44:50Z</time>
      </trkpt>
      <trkpt lat="48.73215" lon="-3.41328">
        <ele>69</ele>
        <time>2011-02-20T10:45:22Z</time>
      </trkpt>
      <trkpt lat="48.73212" lon="-3.41279">
        <ele>69</ele>
        <time>2011-02-20T10:45:27Z</time>
      </trkpt>
      <trkpt lat="48.73208" lon="-3.4124">
        <ele>69</ele>
        <time>2011-02-20T10:45:31Z</time>
      </trkpt>
      <trkpt lat="48.73189" lon="-3.4106">
        <ele>70</ele>
        <time>2011-02-20T10:45:51Z</time>
      </trkpt>
      <trkpt lat="48.7317" lon="-3.40956">
        <ele>71</ele>
        <time>2011-02-20T10:46:02Z</time>
      </trkpt>
      <trkpt lat="48.73166" lon="-3.40937">
        <ele>71</ele>
        <time>2011-02-20T10:46:04Z</time>
      </trkpt>
      <trkpt lat="48.73164" lon="-3.40927">
        <ele>71</ele>
        <time>2011-02-20T10:46:05Z</time>
      </trkpt>
      <trkpt lat="48.73161" lon="-3.40917">
        <ele>71</ele>
        <time>2011-02-20T10:46:06Z</time>
      </trkpt>
      <trkpt lat="48.73159" lon="-3.40907">
        <ele>71</ele>
        <time>2011-02-20T10:46:07Z</time>
      </trkpt>
      <trkpt lat="48.73157" lon="-3.40897">
        <ele>71</ele>
        <time>2011-02-20T10:46:08Z</time>
      </trkpt>
      <trkpt lat="48.73154" lon="-3.40887">
        <ele>71</ele>
        <time>2011-02-20T10:46:09Z</time>
      </trkpt>
      <trkpt lat="48.73152" lon="-3.40877">
        <ele>71</ele>
        <time>2011-02-20T10:46:10Z</time>
      </trkpt>
      <trkpt lat="48.73149" lon="-3.40867">
        <ele>71</ele>
        <time>2011-02-20T10:46:11Z</time>
      </trkpt>
      <trkpt lat="48.73147" lon="-3.40857">
        <ele>71</ele>
        <time>2011-02-20T10:46:12Z</time>
      </trkpt>
      <trkpt lat="48.73145" lon="-3.40847">
        <ele>71</ele>
        <time>2011-02-20T10:46:13Z</time>
      </trkpt>
      <trkpt lat="48.73143" lon="-3.40837">
        <ele>71</ele>
        <time>2011-02-20T10:46:14Z</time>
      </trkpt>
      <trkpt lat="48.73138" lon="-3.40818">
        <ele>71</ele>
        <time>2011-02-20T10:46:16Z</time>
      </trkpt>
      <trkpt lat="48.73134" lon="-3.408">
        <ele>71</ele>
        <time>2011-02-20T10:46:18Z</time>
      </trkpt>
      <trkpt lat="48.73128" lon="-3.40772">
        <ele>71</ele>
        <time>2011-02-20T10:46:21Z</time>
      </trkpt>
      <trkpt lat="48.73126" lon="-3.40762">
        <ele>71</ele>
        <time>2011-02-20T10:46:22Z</time>
      </trkpt>
      <trkpt lat="48.73121" lon="-3.40744">
        <ele>71</ele>
        <time>2011-02-20T10:46:24Z</time>
      </trkpt>
      <trkpt lat="48.73117" lon="-3.40726">
        <ele>71</ele>
        <time>2011-02-20T10:46:26Z</time>
      </trkpt>
      <trkpt lat="48.73115" lon="-3.40717">
        <ele>71</ele>
        <time>2011-02-20T10:46:27Z</time>
      </trkpt>
      <trkpt lat="48.73112" lon="-3.40708">
        <ele>71</ele>
        <time>2011-02-20T10:46:28Z</time>
      </trkpt>
      <trkpt lat="48.73109" lon="-3.407">
        <ele>71</ele>
        <time>2011-02-20T10:46:29Z</time>
      </trkpt>
      <trkpt lat="48.73106" lon="-3.40692">
        <ele>71</ele>
        <time>2011-02-20T10:46:30Z</time>
      </trkpt>
      <trkpt lat="48.73103" lon="-3.40684">
        <ele>71</ele>
        <time>2011-02-20T10:46:31Z</time>
      </trkpt>
      <trkpt lat="48.731" lon="-3.40677">
        <ele>71</ele>
        <time>2011-02-20T10:46:32Z</time>
      </trkpt>
      <trkpt lat="48.73096" lon="-3.40669">
        <ele>71</ele>
        <time>2011-02-20T10:46:33Z</time>
      </trkpt>
      <trkpt lat="48.73093" lon="-3.40662">
        <ele>71</ele>
        <time>2011-02-20T10:46:34Z</time>
      </trkpt>
      <trkpt lat="48.73089" lon="-3.40654">
        <ele>71</ele>
        <time>2011-02-20T10:46:35Z</time>
      </trkpt>
      <trkpt lat="48.73085" lon="-3.40646">
        <ele>71</ele>
        <time>2011-02-20T10:46:36Z</time>
      </trkpt>
      <trkpt lat="48.73081" lon="-3.40639">
        <ele>71</ele>
        <time>2011-02-20T10:46:37Z</time>
      </trkpt>
      <trkpt lat="48.73077" lon="-3.40631">
        <ele>71</ele>
        <time>2011-02-20T10:46:38Z</time>
      </trkpt>
      <trkpt lat="48.73073" lon="-3.40623">
        <ele>71</ele>
        <time>2011-02-20T10:46:39Z</time>
      </trkpt>
      <trkpt lat="48.7307" lon="-3.40615">
        <ele>72</ele>
        <time>2011-02-20T10:46:40Z</time>
      </trkpt>
      <trkpt lat="48.73067" lon="-3.40606">
        <ele>72</ele>
        <time>2011-02-20T10:46:41Z</time>
      </trkpt>
      <trkpt lat="48.73064" lon="-3.40598">
        <ele>72</ele>
        <time>2011-02-20T10:46:42Z</time>
      </trkpt>
      <trkpt lat="48.7305" lon="-3.40447">
        <ele>73</ele>
        <time>2011-02-20T10:46:57Z</time>
      </trkpt>
      <trkpt lat="48.73046" lon="-3.40427">
        <ele>73</ele>
        <time>2011-02-20T10:46:59Z</time>
      </trkpt>
      <trkpt lat="48.73044" lon="-3.40418">
        <ele>73</ele>
        <time>2011-02-20T10:47:00Z</time>
      </trkpt>
      <trkpt lat="48.73042" lon="-3.40409">
        <ele>73</ele>
        <time>2011-02-20T10:47:01Z</time>
      </trkpt>
      <trkpt lat="48.73038" lon="-3.404">
        <ele>74</ele>
        <time>2011-02-20T10:47:02Z</time>
      </trkpt>
      <trkpt lat="48.73036" lon="-3.4039">
        <ele>74</ele>
        <time>2011-02-20T10:47:03Z</time>
      </trkpt>
      <trkpt lat="48.73033" lon="-3.40381">
        <ele>74</ele>
        <time>2011-02-20T10:47:04Z</time>
      </trkpt>
      <trkpt lat="48.7303" lon="-3.40371">
        <ele>74</ele>
        <time>2011-02-20T10:47:05Z</time>
      </trkpt>
      <trkpt lat="48.73027" lon="-3.40362">
        <ele>74</ele>
        <time>2011-02-20T10:47:06Z</time>
      </trkpt>
      <trkpt lat="48.73022" lon="-3.40341">
        <ele>74</ele>
        <time>2011-02-20T10:47:08Z</time>
      </trkpt>
      <trkpt lat="48.73011" lon="-3.40236">
        <ele>74</ele>
        <time>2011-02-20T10:47:17Z</time>
      </trkpt>
      <trkpt lat="48.73009" lon="-3.40224">
        <ele>74</ele>
        <time>2011-02-20T10:47:18Z</time>
      </trkpt>
      <trkpt lat="48.73006" lon="-3.40213">
        <ele>74</ele>
        <time>2011-02-20T10:47:19Z</time>
      </trkpt>
      <trkpt lat="48.73003" lon="-3.40203">
        <ele>74</ele>
        <time>2011-02-20T10:47:20Z</time>
      </trkpt>
      <trkpt lat="48.73" lon="-3.40193">
        <ele>74</ele>
        <time>2011-02-20T10:47:21Z</time>
      </trkpt>
      <trkpt lat="48.72997" lon="-3.40183">
        <ele>74</ele>
        <time>2011-02-20T10:47:22Z</time>
      </trkpt>
      <trkpt lat="48.72994" lon="-3.40174">
        <ele>74</ele>
        <time>2011-02-20T10:47:23Z</time>
      </trkpt>
      <trkpt lat="48.72991" lon="-3.40165">
        <ele>74</ele>
        <time>2011-02-20T10:47:24Z</time>
      </trkpt>
      <trkpt lat="48.72989" lon="-3.40156">
        <ele>74</ele>
        <time>2011-02-20T10:47:25Z</time>
      </trkpt>
      <trkpt lat="48.72986" lon="-3.40146">
        <ele>74</ele>
        <time>2011-02-20T10:47:26Z</time>
      </trkpt>
      <trkpt lat="48.72967" lon="-3.40009">
        <ele>75</ele>
        <time>2011-02-20T10:47:40Z</time>
      </trkpt>
      <trkpt lat="48.72965" lon="-3.40001">
        <ele>75</ele>
        <time>2011-02-20T10:47:41Z</time>
      </trkpt>
      <trkpt lat="48.72962" lon="-3.39992">
        <ele>75</ele>
        <time>2011-02-20T10:47:42Z</time>
      </trkpt>
      <trkpt lat="48.7296" lon="-3.39983">
        <ele>75</ele>
        <time>2011-02-20T10:47:43Z</time>
      </trkpt>
      <trkpt lat="48.72958" lon="-3.39974">
        <ele>75</ele>
        <time>2011-02-20T10:47:44Z</time>
      </trkpt>
      <trkpt lat="48.72955" lon="-3.39965">
        <ele>75</ele>
        <time>2011-02-20T10:47:45Z</time>
      </trkpt>
      <trkpt lat="48.72952" lon="-3.39956">
        <ele>75</ele>
        <time>2011-02-20T10:47:46Z</time>
      </trkpt>
      <trkpt lat="48.7295" lon="-3.39946">
        <ele>75</ele>
        <time>2011-02-20T10:47:47Z</time>
      </trkpt>
      <trkpt lat="48.72947" lon="-3.39936">
        <ele>76</ele>
        <time>2011-02-20T10:47:48Z</time>
      </trkpt>
      <trkpt lat="48.72943" lon="-3.39927">
        <ele>76</ele>
        <time>2011-02-20T10:47:49Z</time>
      </trkpt>
      <trkpt lat="48.7294" lon="-3.39918">
        <ele>76</ele>
        <time>2011-02-20T10:47:50Z</time>
      </trkpt>
      <trkpt lat="48.72937" lon="-3.39909">
        <ele>76</ele>
        <time>2011-02-20T10:47:51Z</time>
      </trkpt>
      <trkpt lat="48.72935" lon="-3.399">
        <ele>76</ele>
        <time>2011-02-20T10:47:52Z</time>
      </trkpt>
      <trkpt lat="48.72932" lon="-3.39891">
        <ele>76</ele>
        <time>2011-02-20T10:47:53Z</time>
      </trkpt>
      <trkpt lat="48.72929" lon="-3.39882">
        <ele>76</ele>
        <time>2011-02-20T10:47:54Z</time>
      </trkpt>
      <trkpt lat="48.72926" lon="-3.39873">
        <ele>76</ele>
        <time>2011-02-20T10:47:55Z</time>
      </trkpt>
      <trkpt lat="48.72922" lon="-3.39863">
        <ele>76</ele>
        <time>2011-02-20T10:47:56Z</time>
      </trkpt>
      <trkpt lat="48.72918" lon="-3.39854">
        <ele>76</ele>
        <time>2011-02-20T10:47:57Z</time>
      </trkpt>
      <trkpt lat="48.72914" lon="-3.39845">
        <ele>76</ele>
        <time>2011-02-20T10:47:58Z</time>
      </trkpt>
      <trkpt lat="48.7291" lon="-3.39837">
        <ele>76</ele>
        <time>2011-02-20T10:47:59Z</time>
      </trkpt>
      <trkpt lat="48.72906" lon="-3.39828">
        <ele>76</ele>
        <time>2011-02-20T10:48:00Z</time>
      </trkpt>
      <trkpt lat="48.72902" lon="-3.3982">
        <ele>76</ele>
        <time>2011-02-20T10:48:01Z</time>
      </trkpt>
      <trkpt lat="48.72898" lon="-3.39812">
        <ele>76</ele>
        <time>2011-02-20T10:48:02Z</time>
      </trkpt>
      <trkpt lat="48.72894" lon="-3.39804">
        <ele>76</ele>
        <time>2011-02-20T10:48:03Z</time>
      </trkpt>
      <trkpt lat="48.72889" lon="-3.39796">
        <ele>76</ele>
        <time>2011-02-20T10:48:04Z</time>
      </trkpt>
      <trkpt lat="48.72885" lon="-3.39788">
        <ele>76</ele>
        <time>2011-02-20T10:48:05Z</time>
      </trkpt>
      <trkpt lat="48.72881" lon="-3.3978">
        <ele>76</ele>
        <time>2011-02-20T10:48:06Z</time>
      </trkpt>
      <trkpt lat="48.72876" lon="-3.39772">
        <ele>77</ele>
        <time>2011-02-20T10:48:07Z</time>
      </trkpt>
      <trkpt lat="48.72872" lon="-3.39763">
        <ele>77</ele>
        <time>2011-02-20T10:48:08Z</time>
      </trkpt>
      <trkpt lat="48.72868" lon="-3.39754">
        <ele>77</ele>
        <time>2011-02-20T10:48:09Z</time>
      </trkpt>
      <trkpt lat="48.72863" lon="-3.39745">
        <ele>77</ele>
        <time>2011-02-20T10:48:10Z</time>
      </trkpt>
      <trkpt lat="48.72859" lon="-3.39736">
        <ele>77</ele>
        <time>2011-02-20T10:48:11Z</time>
      </trkpt>
      <trkpt lat="48.72855" lon="-3.39727">
        <ele>77</ele>
        <time>2011-02-20T10:48:12Z</time>
      </trkpt>
      <trkpt lat="48.72852" lon="-3.39717">
        <ele>77</ele>
        <time>2011-02-20T10:48:13Z</time>
      </trkpt>
      <trkpt lat="48.72848" lon="-3.39707">
        <ele>77</ele>
        <time>2011-02-20T10:48:14Z</time>
      </trkpt>
      <trkpt lat="48.72845" lon="-3.39698">
        <ele>77</ele>
        <time>2011-02-20T10:48:15Z</time>
      </trkpt>
      <trkpt lat="48.72842" lon="-3.39687">
        <ele>77</ele>
        <time>2011-02-20T10:48:16Z</time>
      </trkpt>
      <trkpt lat="48.72837" lon="-3.39666">
        <ele>77</ele>
        <time>2011-02-20T10:48:18Z</time>
      </trkpt>
      <trkpt lat="48.72835" lon="-3.39655">
        <ele>77</ele>
        <time>2011-02-20T10:48:19Z</time>
      </trkpt>
      <trkpt lat="48.72831" lon="-3.39634">
        <ele>77</ele>
        <time>2011-02-20T10:48:21Z</time>
      </trkpt>
      <trkpt lat="48.72829" lon="-3.39476">
        <ele>78</ele>
        <time>2011-02-20T10:48:35Z</time>
      </trkpt>
      <trkpt lat="48.72851" lon="-3.3908">
        <ele>78</ele>
        <time>2011-02-20T10:49:07Z</time>
      </trkpt>
      <trkpt lat="48.72852" lon="-3.39068">
        <ele>78</ele>
        <time>2011-02-20T10:49:08Z</time>
      </trkpt>
      <trkpt lat="48.72861" lon="-3.38994">
        <ele>78</ele>
        <time>2011-02-20T10:49:14Z</time>
      </trkpt>
      <trkpt lat="48.72863" lon="-3.38982">
        <ele>78</ele>
        <time>2011-02-20T10:49:15Z</time>
      </trkpt>
      <trkpt lat="48.72877" lon="-3.3886">
        <ele>78</ele>
        <time>2011-02-20T10:49:25Z</time>
      </trkpt>
      <trkpt lat="48.72879" lon="-3.38848">
        <ele>78</ele>
        <time>2011-02-20T10:49:26Z</time>
      </trkpt>
      <trkpt lat="48.72881" lon="-3.38837">
        <ele>77</ele>
        <time>2011-02-20T10:49:27Z</time>
      </trkpt>
      <trkpt lat="48.72884" lon="-3.38825">
        <ele>77</ele>
        <time>2011-02-20T10:49:28Z</time>
      </trkpt>
      <trkpt lat="48.72887" lon="-3.38814">
        <ele>77</ele>
        <time>2011-02-20T10:49:29Z</time>
      </trkpt>
      <trkpt lat="48.7289" lon="-3.38803">
        <ele>77</ele>
        <time>2011-02-20T10:49:30Z</time>
      </trkpt>
      <trkpt lat="48.72894" lon="-3.38792">
        <ele>77</ele>
        <time>2011-02-20T10:49:31Z</time>
      </trkpt>
      <trkpt lat="48.72898" lon="-3.38782">
        <ele>77</ele>
        <time>2011-02-20T10:49:32Z</time>
      </trkpt>
      <trkpt lat="48.72902" lon="-3.38771">
        <ele>77</ele>
        <time>2011-02-20T10:49:33Z</time>
      </trkpt>
      <trkpt lat="48.72906" lon="-3.38761">
        <ele>77</ele>
        <time>2011-02-20T10:49:34Z</time>
      </trkpt>
      <trkpt lat="48.7291" lon="-3.38751">
        <ele>77</ele>
        <time>2011-02-20T10:49:35Z</time>
      </trkpt>
      <trkpt lat="48.72913" lon="-3.38741">
        <ele>77</ele>
        <time>2011-02-20T10:49:36Z</time>
      </trkpt>
      <trkpt lat="48.72917" lon="-3.3873">
        <ele>77</ele>
        <time>2011-02-20T10:49:37Z</time>
      </trkpt>
      <trkpt lat="48.7292" lon="-3.38584">
        <ele>77</ele>
        <time>2011-02-20T10:49:53Z</time>
      </trkpt>
      <trkpt lat="48.72918" lon="-3.38579">
        <ele>77</ele>
        <time>2011-02-20T10:49:54Z</time>
      </trkpt>
      <trkpt lat="48.72911" lon="-3.38532">
        <ele>77</ele>
        <time>2011-02-20T10:50:03Z</time>
      </trkpt>
      <trkpt lat="48.72913" lon="-3.38527">
        <ele>77</ele>
        <time>2011-02-20T10:50:04Z</time>
      </trkpt>
      <trkpt lat="48.72922" lon="-3.38507">
        <ele>77</ele>
        <time>2011-02-20T10:50:09Z</time>
      </trkpt>
      <trkpt lat="48.72924" lon="-3.38504">
        <ele>77</ele>
        <time>2011-02-20T10:50:10Z</time>
      </trkpt>
      <trkpt lat="48.72932" lon="-3.38506">
        <ele>76</ele>
        <time>2011-02-20T10:50:16Z</time>
      </trkpt>
      <trkpt lat="48.72932" lon="-3.38506">
        <ele>76</ele>
        <time>2011-02-20T10:50:17Z</time>
      </trkpt>
    </trkseg>
  </trk>
</gpx>